<?xml version="1.0" encoding="UTF-8" standalone="no" ?>
<gpx xmlns="http://www.topografix.com/GPX/1/1" xmlns:xsi="http://www.w3.org/2001/XMLSchema-instance" xsi:schemaLocation="http://www.topografix.com/GPX/1/1 http://www.topografix.com/GPX/1/1/gpx.xsd" version="1.1" creator="VisuGPX - https://www.visugpx.com">
  <metadata>
    <name>VTT le 12 mai 2019</name>
    <desc><![CDATA[VTT le 12 mai 2019
]]></desc>
  </metadata>
  <trk>
    <name><![CDATA[2019-01-06_SYLVIE_SOURCE_HUVEAUNNE]]></name>
    <trkseg>
      <trkpt lat="43.35484" lon="5.77731">
        <ele>367.36</ele>
        <time>2019-01-06T10:51:28Z</time>
      </trkpt>
      <trkpt lat="43.35476" lon="5.77719">
        <ele>368.8</ele>
        <time>2019-01-06T10:51:43Z</time>
      </trkpt>
      <trkpt lat="43.35466" lon="5.7771">
        <ele>369.76</ele>
        <time>2019-01-06T10:51:59Z</time>
      </trkpt>
      <trkpt lat="43.35458" lon="5.77696">
        <ele>369.76</ele>
        <time>2019-01-06T10:52:19Z</time>
      </trkpt>
      <trkpt lat="43.35446" lon="5.77686">
        <ele>370.73</ele>
        <time>2019-01-06T10:52:39Z</time>
      </trkpt>
      <trkpt lat="43.35445" lon="5.77693">
        <ele>371.21</ele>
        <time>2019-01-06T10:53:02Z</time>
      </trkpt>
      <trkpt lat="43.35444" lon="5.77694">
        <ele>367.84</ele>
        <time>2019-01-06T10:53:09Z</time>
      </trkpt>
      <trkpt lat="43.35443" lon="5.77695">
        <ele>372.17</ele>
        <time>2019-01-06T10:53:12Z</time>
      </trkpt>
      <trkpt lat="43.35431" lon="5.77691">
        <ele>371.21</ele>
        <time>2019-01-06T10:53:33Z</time>
      </trkpt>
      <trkpt lat="43.35429" lon="5.77691">
        <ele>372.65</ele>
        <time>2019-01-06T10:53:35Z</time>
      </trkpt>
      <trkpt lat="43.35426" lon="5.7769">
        <ele>370.73</ele>
        <time>2019-01-06T10:53:38Z</time>
      </trkpt>
      <trkpt lat="43.35422" lon="5.77689">
        <ele>372.65</ele>
        <time>2019-01-06T10:53:41Z</time>
      </trkpt>
      <trkpt lat="43.35402" lon="5.77684">
        <ele>373.13</ele>
        <time>2019-01-06T10:54:02Z</time>
      </trkpt>
      <trkpt lat="43.35378" lon="5.7768">
        <ele>375.05</ele>
        <time>2019-01-06T10:54:24Z</time>
      </trkpt>
      <trkpt lat="43.35369" lon="5.7768">
        <ele>376.01</ele>
        <time>2019-01-06T10:54:32Z</time>
      </trkpt>
      <trkpt lat="43.35367" lon="5.7768">
        <ele>376.01</ele>
        <time>2019-01-06T10:54:33Z</time>
      </trkpt>
      <trkpt lat="43.35366" lon="5.7768">
        <ele>376.01</ele>
        <time>2019-01-06T10:54:34Z</time>
      </trkpt>
      <trkpt lat="43.35365" lon="5.77679">
        <ele>376.01</ele>
        <time>2019-01-06T10:54:35Z</time>
      </trkpt>
      <trkpt lat="43.35364" lon="5.77678">
        <ele>374.57</ele>
        <time>2019-01-06T10:54:36Z</time>
      </trkpt>
      <trkpt lat="43.3536" lon="5.77674">
        <ele>376.97</ele>
        <time>2019-01-06T10:54:41Z</time>
      </trkpt>
      <trkpt lat="43.35346" lon="5.77669">
        <ele>378.42</ele>
        <time>2019-01-06T10:54:56Z</time>
      </trkpt>
      <trkpt lat="43.3534" lon="5.77666">
        <ele>378.9</ele>
        <time>2019-01-06T10:55:03Z</time>
      </trkpt>
      <trkpt lat="43.35323" lon="5.77651">
        <ele>380.34</ele>
        <time>2019-01-06T10:55:19Z</time>
      </trkpt>
      <trkpt lat="43.3531" lon="5.77642">
        <ele>380.34</ele>
        <time>2019-01-06T10:55:31Z</time>
      </trkpt>
      <trkpt lat="43.35308" lon="5.77639">
        <ele>382.26</ele>
        <time>2019-01-06T10:55:33Z</time>
      </trkpt>
      <trkpt lat="43.35299" lon="5.77632">
        <ele>383.22</ele>
        <time>2019-01-06T10:55:42Z</time>
      </trkpt>
      <trkpt lat="43.35293" lon="5.77628">
        <ele>382.74</ele>
        <time>2019-01-06T10:55:50Z</time>
      </trkpt>
      <trkpt lat="43.35288" lon="5.77625">
        <ele>385.15</ele>
        <time>2019-01-06T10:55:55Z</time>
      </trkpt>
      <trkpt lat="43.35287" lon="5.77624">
        <ele>383.22</ele>
        <time>2019-01-06T10:55:57Z</time>
      </trkpt>
      <trkpt lat="43.35285" lon="5.77621">
        <ele>384.66</ele>
        <time>2019-01-06T10:55:59Z</time>
      </trkpt>
      <trkpt lat="43.35279" lon="5.77615">
        <ele>386.59</ele>
        <time>2019-01-06T10:56:07Z</time>
      </trkpt>
      <trkpt lat="43.35273" lon="5.77611">
        <ele>386.59</ele>
        <time>2019-01-06T10:56:18Z</time>
      </trkpt>
      <trkpt lat="43.35268" lon="5.77609">
        <ele>388.03</ele>
        <time>2019-01-06T10:56:24Z</time>
      </trkpt>
      <trkpt lat="43.3526" lon="5.77602">
        <ele>388.99</ele>
        <time>2019-01-06T10:56:36Z</time>
      </trkpt>
      <trkpt lat="43.35256" lon="5.776">
        <ele>390.43</ele>
        <time>2019-01-06T10:56:42Z</time>
      </trkpt>
      <trkpt lat="43.35252" lon="5.77597">
        <ele>391.87</ele>
        <time>2019-01-06T10:56:48Z</time>
      </trkpt>
      <trkpt lat="43.35241" lon="5.7759">
        <ele>393.32</ele>
        <time>2019-01-06T10:57:00Z</time>
      </trkpt>
      <trkpt lat="43.35233" lon="5.77581">
        <ele>395.72</ele>
        <time>2019-01-06T10:57:10Z</time>
      </trkpt>
      <trkpt lat="43.35229" lon="5.77578">
        <ele>395.72</ele>
        <time>2019-01-06T10:57:14Z</time>
      </trkpt>
      <trkpt lat="43.35223" lon="5.77573">
        <ele>396.2</ele>
        <time>2019-01-06T10:57:22Z</time>
      </trkpt>
      <trkpt lat="43.35219" lon="5.77571">
        <ele>396.68</ele>
        <time>2019-01-06T10:57:26Z</time>
      </trkpt>
      <trkpt lat="43.35212" lon="5.77561">
        <ele>399.08</ele>
        <time>2019-01-06T10:57:40Z</time>
      </trkpt>
      <trkpt lat="43.35212" lon="5.77556">
        <ele>400.05</ele>
        <time>2019-01-06T10:57:44Z</time>
      </trkpt>
      <trkpt lat="43.35211" lon="5.77555">
        <ele>400.05</ele>
        <time>2019-01-06T10:57:45Z</time>
      </trkpt>
      <trkpt lat="43.35207" lon="5.77537">
        <ele>400.53</ele>
        <time>2019-01-06T10:57:58Z</time>
      </trkpt>
      <trkpt lat="43.35204" lon="5.77521">
        <ele>400.53</ele>
        <time>2019-01-06T10:58:11Z</time>
      </trkpt>
      <trkpt lat="43.35201" lon="5.77504">
        <ele>400.53</ele>
        <time>2019-01-06T10:58:23Z</time>
      </trkpt>
      <trkpt lat="43.35201" lon="5.77484">
        <ele>401.49</ele>
        <time>2019-01-06T10:58:35Z</time>
      </trkpt>
      <trkpt lat="43.35201" lon="5.7746">
        <ele>401.01</ele>
        <time>2019-01-06T10:58:49Z</time>
      </trkpt>
      <trkpt lat="43.35203" lon="5.77455">
        <ele>401.49</ele>
        <time>2019-01-06T10:58:53Z</time>
      </trkpt>
      <trkpt lat="43.35204" lon="5.77451">
        <ele>399.57</ele>
        <time>2019-01-06T10:58:56Z</time>
      </trkpt>
      <trkpt lat="43.35205" lon="5.77449">
        <ele>401.97</ele>
        <time>2019-01-06T10:58:58Z</time>
      </trkpt>
      <trkpt lat="43.35208" lon="5.77446">
        <ele>400.53</ele>
        <time>2019-01-06T10:59:01Z</time>
      </trkpt>
      <trkpt lat="43.35209" lon="5.77444">
        <ele>401.97</ele>
        <time>2019-01-06T10:59:03Z</time>
      </trkpt>
      <trkpt lat="43.35209" lon="5.77431">
        <ele>400.53</ele>
        <time>2019-01-06T10:59:13Z</time>
      </trkpt>
      <trkpt lat="43.35209" lon="5.77428">
        <ele>401.97</ele>
        <time>2019-01-06T10:59:15Z</time>
      </trkpt>
      <trkpt lat="43.3521" lon="5.7741">
        <ele>401.49</ele>
        <time>2019-01-06T10:59:25Z</time>
      </trkpt>
      <trkpt lat="43.35211" lon="5.77404">
        <ele>402.93</ele>
        <time>2019-01-06T10:59:28Z</time>
      </trkpt>
      <trkpt lat="43.35212" lon="5.77396">
        <ele>403.41</ele>
        <time>2019-01-06T10:59:32Z</time>
      </trkpt>
      <trkpt lat="43.35212" lon="5.77378">
        <ele>403.89</ele>
        <time>2019-01-06T10:59:45Z</time>
      </trkpt>
      <trkpt lat="43.35214" lon="5.77353">
        <ele>405.81</ele>
        <time>2019-01-06T10:59:59Z</time>
      </trkpt>
      <trkpt lat="43.35214" lon="5.77335">
        <ele>405.33</ele>
        <time>2019-01-06T11:00:12Z</time>
      </trkpt>
      <trkpt lat="43.35215" lon="5.77332">
        <ele>406.77</ele>
        <time>2019-01-06T11:00:14Z</time>
      </trkpt>
      <trkpt lat="43.3522" lon="5.77306">
        <ele>407.26</ele>
        <time>2019-01-06T11:00:33Z</time>
      </trkpt>
      <trkpt lat="43.35219" lon="5.77301">
        <ele>405.33</ele>
        <time>2019-01-06T11:00:36Z</time>
      </trkpt>
      <trkpt lat="43.35218" lon="5.77297">
        <ele>407.74</ele>
        <time>2019-01-06T11:00:38Z</time>
      </trkpt>
      <trkpt lat="43.35218" lon="5.77293">
        <ele>406.29</ele>
        <time>2019-01-06T11:00:41Z</time>
      </trkpt>
      <trkpt lat="43.3522" lon="5.77269">
        <ele>408.22</ele>
        <time>2019-01-06T11:01:04Z</time>
      </trkpt>
      <trkpt lat="43.35221" lon="5.77266">
        <ele>407.26</ele>
        <time>2019-01-06T11:01:08Z</time>
      </trkpt>
      <trkpt lat="43.35222" lon="5.77265">
        <ele>408.7</ele>
        <time>2019-01-06T11:01:10Z</time>
      </trkpt>
      <trkpt lat="43.35214" lon="5.77239">
        <ele>411.1</ele>
        <time>2019-01-06T11:01:30Z</time>
      </trkpt>
      <trkpt lat="43.35209" lon="5.77226">
        <ele>411.58</ele>
        <time>2019-01-06T11:01:36Z</time>
      </trkpt>
      <trkpt lat="43.35208" lon="5.77224">
        <ele>411.1</ele>
        <time>2019-01-06T11:01:37Z</time>
      </trkpt>
      <trkpt lat="43.35203" lon="5.77199">
        <ele>410.62</ele>
        <time>2019-01-06T11:01:55Z</time>
      </trkpt>
      <trkpt lat="43.35201" lon="5.77179">
        <ele>411.1</ele>
        <time>2019-01-06T11:02:10Z</time>
      </trkpt>
      <trkpt lat="43.35201" lon="5.77176">
        <ele>411.1</ele>
        <time>2019-01-06T11:02:12Z</time>
      </trkpt>
      <trkpt lat="43.35201" lon="5.77175">
        <ele>411.1</ele>
        <time>2019-01-06T11:02:13Z</time>
      </trkpt>
      <trkpt lat="43.35203" lon="5.77143">
        <ele>413.02</ele>
        <time>2019-01-06T11:02:34Z</time>
      </trkpt>
      <trkpt lat="43.35203" lon="5.77135">
        <ele>411.1</ele>
        <time>2019-01-06T11:02:38Z</time>
      </trkpt>
      <trkpt lat="43.35204" lon="5.77131">
        <ele>413.02</ele>
        <time>2019-01-06T11:02:40Z</time>
      </trkpt>
      <trkpt lat="43.35204" lon="5.77128">
        <ele>412.06</ele>
        <time>2019-01-06T11:02:43Z</time>
      </trkpt>
      <trkpt lat="43.35204" lon="5.77126">
        <ele>413.02</ele>
        <time>2019-01-06T11:02:45Z</time>
      </trkpt>
      <trkpt lat="43.35204" lon="5.77122">
        <ele>411.1</ele>
        <time>2019-01-06T11:02:49Z</time>
      </trkpt>
      <trkpt lat="43.35204" lon="5.77121">
        <ele>412.54</ele>
        <time>2019-01-06T11:02:51Z</time>
      </trkpt>
      <trkpt lat="43.35205" lon="5.77118">
        <ele>411.58</ele>
        <time>2019-01-06T11:02:54Z</time>
      </trkpt>
      <trkpt lat="43.35209" lon="5.77115">
        <ele>412.54</ele>
        <time>2019-01-06T11:02:59Z</time>
      </trkpt>
      <trkpt lat="43.35216" lon="5.77108">
        <ele>411.1</ele>
        <time>2019-01-06T11:03:06Z</time>
      </trkpt>
      <trkpt lat="43.35219" lon="5.77106">
        <ele>412.06</ele>
        <time>2019-01-06T11:03:10Z</time>
      </trkpt>
      <trkpt lat="43.35224" lon="5.77105">
        <ele>410.62</ele>
        <time>2019-01-06T11:03:14Z</time>
      </trkpt>
      <trkpt lat="43.35226" lon="5.77106">
        <ele>411.58</ele>
        <time>2019-01-06T11:03:16Z</time>
      </trkpt>
      <trkpt lat="43.35238" lon="5.77102">
        <ele>410.14</ele>
        <time>2019-01-06T11:03:25Z</time>
      </trkpt>
      <trkpt lat="43.3524" lon="5.77101">
        <ele>411.58</ele>
        <time>2019-01-06T11:03:27Z</time>
      </trkpt>
      <trkpt lat="43.35255" lon="5.77099">
        <ele>410.62</ele>
        <time>2019-01-06T11:03:39Z</time>
      </trkpt>
      <trkpt lat="43.35257" lon="5.771">
        <ele>412.06</ele>
        <time>2019-01-06T11:03:41Z</time>
      </trkpt>
      <trkpt lat="43.35271" lon="5.77095">
        <ele>412.54</ele>
        <time>2019-01-06T11:04:01Z</time>
      </trkpt>
      <trkpt lat="43.35278" lon="5.77099">
        <ele>413.5</ele>
        <time>2019-01-06T11:04:19Z</time>
      </trkpt>
      <trkpt lat="43.35279" lon="5.77102">
        <ele>412.06</ele>
        <time>2019-01-06T11:04:23Z</time>
      </trkpt>
      <trkpt lat="43.35278" lon="5.77105">
        <ele>413.5</ele>
        <time>2019-01-06T11:04:30Z</time>
      </trkpt>
      <trkpt lat="43.35283" lon="5.77106">
        <ele>413.98</ele>
        <time>2019-01-06T11:04:37Z</time>
      </trkpt>
      <trkpt lat="43.35295" lon="5.771">
        <ele>415.43</ele>
        <time>2019-01-06T11:04:49Z</time>
      </trkpt>
      <trkpt lat="43.35298" lon="5.77091">
        <ele>415.91</ele>
        <time>2019-01-06T11:05:00Z</time>
      </trkpt>
      <trkpt lat="43.35296" lon="5.77074">
        <ele>416.87</ele>
        <time>2019-01-06T11:05:13Z</time>
      </trkpt>
      <trkpt lat="43.35295" lon="5.77056">
        <ele>417.35</ele>
        <time>2019-01-06T11:05:26Z</time>
      </trkpt>
      <trkpt lat="43.35296" lon="5.77054">
        <ele>417.35</ele>
        <time>2019-01-06T11:05:27Z</time>
      </trkpt>
      <trkpt lat="43.35296" lon="5.77052">
        <ele>417.35</ele>
        <time>2019-01-06T11:05:28Z</time>
      </trkpt>
      <trkpt lat="43.35298" lon="5.77049">
        <ele>417.83</ele>
        <time>2019-01-06T11:05:29Z</time>
      </trkpt>
      <trkpt lat="43.35303" lon="5.77037">
        <ele>419.27</ele>
        <time>2019-01-06T11:05:43Z</time>
      </trkpt>
      <trkpt lat="43.35297" lon="5.77023">
        <ele>420.71</ele>
        <time>2019-01-06T11:05:58Z</time>
      </trkpt>
      <trkpt lat="43.35289" lon="5.7701">
        <ele>421.19</ele>
        <time>2019-01-06T11:06:12Z</time>
      </trkpt>
      <trkpt lat="43.35288" lon="5.77009">
        <ele>421.68</ele>
        <time>2019-01-06T11:06:13Z</time>
      </trkpt>
      <trkpt lat="43.35278" lon="5.76997">
        <ele>423.12</ele>
        <time>2019-01-06T11:06:27Z</time>
      </trkpt>
      <trkpt lat="43.3527" lon="5.76984">
        <ele>424.56</ele>
        <time>2019-01-06T11:06:42Z</time>
      </trkpt>
      <trkpt lat="43.35261" lon="5.76968">
        <ele>425.52</ele>
        <time>2019-01-06T11:06:57Z</time>
      </trkpt>
      <trkpt lat="43.35257" lon="5.76954">
        <ele>426.48</ele>
        <time>2019-01-06T11:07:10Z</time>
      </trkpt>
      <trkpt lat="43.35252" lon="5.76943">
        <ele>427.44</ele>
        <time>2019-01-06T11:07:26Z</time>
      </trkpt>
      <trkpt lat="43.3525" lon="5.76938">
        <ele>427.92</ele>
        <time>2019-01-06T11:07:31Z</time>
      </trkpt>
      <trkpt lat="43.3525" lon="5.76927">
        <ele>428.89</ele>
        <time>2019-01-06T11:07:43Z</time>
      </trkpt>
      <trkpt lat="43.35247" lon="5.76911">
        <ele>429.85</ele>
        <time>2019-01-06T11:07:58Z</time>
      </trkpt>
      <trkpt lat="43.35245" lon="5.76892">
        <ele>431.77</ele>
        <time>2019-01-06T11:08:13Z</time>
      </trkpt>
      <trkpt lat="43.35239" lon="5.76875">
        <ele>433.69</ele>
        <time>2019-01-06T11:08:27Z</time>
      </trkpt>
      <trkpt lat="43.35233" lon="5.76868">
        <ele>435.13</ele>
        <time>2019-01-06T11:08:40Z</time>
      </trkpt>
      <trkpt lat="43.35226" lon="5.7687">
        <ele>433.69</ele>
        <time>2019-01-06T11:08:47Z</time>
      </trkpt>
      <trkpt lat="43.35225" lon="5.76869">
        <ele>433.69</ele>
        <time>2019-01-06T11:08:49Z</time>
      </trkpt>
      <trkpt lat="43.35221" lon="5.76862">
        <ele>434.65</ele>
        <time>2019-01-06T11:09:01Z</time>
      </trkpt>
      <trkpt lat="43.3522" lon="5.76851">
        <ele>435.13</ele>
        <time>2019-01-06T11:09:17Z</time>
      </trkpt>
      <trkpt lat="43.35213" lon="5.76836">
        <ele>437.54</ele>
        <time>2019-01-06T11:09:34Z</time>
      </trkpt>
      <trkpt lat="43.35212" lon="5.76832">
        <ele>438.02</ele>
        <time>2019-01-06T11:09:44Z</time>
      </trkpt>
      <trkpt lat="43.35205" lon="5.76816">
        <ele>438.98</ele>
        <time>2019-01-06T11:09:54Z</time>
      </trkpt>
      <trkpt lat="43.35201" lon="5.76812">
        <ele>440.42</ele>
        <time>2019-01-06T11:09:58Z</time>
      </trkpt>
      <trkpt lat="43.35197" lon="5.76797">
        <ele>441.38</ele>
        <time>2019-01-06T11:10:06Z</time>
      </trkpt>
      <trkpt lat="43.35193" lon="5.76786">
        <ele>442.34</ele>
        <time>2019-01-06T11:10:23Z</time>
      </trkpt>
      <trkpt lat="43.35188" lon="5.76778">
        <ele>443.79</ele>
        <time>2019-01-06T11:10:36Z</time>
      </trkpt>
      <trkpt lat="43.35185" lon="5.76773">
        <ele>443.79</ele>
        <time>2019-01-06T11:10:40Z</time>
      </trkpt>
      <trkpt lat="43.35177" lon="5.76765">
        <ele>443.31</ele>
        <time>2019-01-06T11:10:48Z</time>
      </trkpt>
      <trkpt lat="43.35177" lon="5.76775">
        <ele>443.79</ele>
        <time>2019-01-06T11:11:03Z</time>
      </trkpt>
      <trkpt lat="43.35178" lon="5.76777">
        <ele>445.23</ele>
        <time>2019-01-06T11:11:06Z</time>
      </trkpt>
      <trkpt lat="43.35175" lon="5.76769">
        <ele>444.27</ele>
        <time>2019-01-06T11:11:23Z</time>
      </trkpt>
      <trkpt lat="43.35172" lon="5.76765">
        <ele>445.71</ele>
        <time>2019-01-06T11:11:26Z</time>
      </trkpt>
      <trkpt lat="43.35162" lon="5.76756">
        <ele>445.23</ele>
        <time>2019-01-06T11:11:36Z</time>
      </trkpt>
      <trkpt lat="43.35149" lon="5.76741">
        <ele>444.75</ele>
        <time>2019-01-06T11:11:50Z</time>
      </trkpt>
      <trkpt lat="43.3514" lon="5.76732">
        <ele>445.23</ele>
        <time>2019-01-06T11:12:02Z</time>
      </trkpt>
      <trkpt lat="43.35137" lon="5.76727">
        <ele>444.75</ele>
        <time>2019-01-06T11:12:05Z</time>
      </trkpt>
      <trkpt lat="43.3513" lon="5.76718">
        <ele>444.75</ele>
        <time>2019-01-06T11:12:18Z</time>
      </trkpt>
      <trkpt lat="43.35122" lon="5.76704">
        <ele>444.75</ele>
        <time>2019-01-06T11:12:36Z</time>
      </trkpt>
      <trkpt lat="43.35115" lon="5.76696">
        <ele>444.27</ele>
        <time>2019-01-06T11:12:48Z</time>
      </trkpt>
      <trkpt lat="43.35108" lon="5.76684">
        <ele>444.27</ele>
        <time>2019-01-06T11:13:02Z</time>
      </trkpt>
      <trkpt lat="43.35101" lon="5.76666">
        <ele>444.27</ele>
        <time>2019-01-06T11:13:19Z</time>
      </trkpt>
      <trkpt lat="43.35097" lon="5.76652">
        <ele>443.79</ele>
        <time>2019-01-06T11:13:31Z</time>
      </trkpt>
      <trkpt lat="43.35094" lon="5.76638">
        <ele>442.34</ele>
        <time>2019-01-06T11:13:42Z</time>
      </trkpt>
      <trkpt lat="43.35091" lon="5.76628">
        <ele>441.38</ele>
        <time>2019-01-06T11:13:52Z</time>
      </trkpt>
      <trkpt lat="43.35092" lon="5.76622">
        <ele>440.9</ele>
        <time>2019-01-06T11:14:03Z</time>
      </trkpt>
      <trkpt lat="43.35087" lon="5.76604">
        <ele>440.9</ele>
        <time>2019-01-06T11:14:17Z</time>
      </trkpt>
      <trkpt lat="43.35087" lon="5.76594">
        <ele>439.94</ele>
        <time>2019-01-06T11:14:23Z</time>
      </trkpt>
      <trkpt lat="43.35086" lon="5.76593">
        <ele>439.94</ele>
        <time>2019-01-06T11:14:24Z</time>
      </trkpt>
      <trkpt lat="43.35086" lon="5.76591">
        <ele>439.94</ele>
        <time>2019-01-06T11:14:25Z</time>
      </trkpt>
      <trkpt lat="43.35085" lon="5.76588">
        <ele>439.94</ele>
        <time>2019-01-06T11:14:27Z</time>
      </trkpt>
      <trkpt lat="43.35085" lon="5.76586">
        <ele>439.46</ele>
        <time>2019-01-06T11:14:28Z</time>
      </trkpt>
      <trkpt lat="43.35084" lon="5.76585">
        <ele>439.46</ele>
        <time>2019-01-06T11:14:29Z</time>
      </trkpt>
      <trkpt lat="43.3508" lon="5.76574">
        <ele>438.98</ele>
        <time>2019-01-06T11:14:37Z</time>
      </trkpt>
      <trkpt lat="43.35081" lon="5.76572">
        <ele>438.5</ele>
        <time>2019-01-06T11:14:38Z</time>
      </trkpt>
      <trkpt lat="43.3508" lon="5.7657">
        <ele>438.5</ele>
        <time>2019-01-06T11:14:39Z</time>
      </trkpt>
      <trkpt lat="43.3508" lon="5.76555">
        <ele>436.58</ele>
        <time>2019-01-06T11:14:50Z</time>
      </trkpt>
      <trkpt lat="43.3508" lon="5.76547">
        <ele>436.58</ele>
        <time>2019-01-06T11:14:56Z</time>
      </trkpt>
      <trkpt lat="43.3508" lon="5.76546">
        <ele>436.1</ele>
        <time>2019-01-06T11:14:57Z</time>
      </trkpt>
      <trkpt lat="43.35075" lon="5.76525">
        <ele>435.61</ele>
        <time>2019-01-06T11:15:12Z</time>
      </trkpt>
      <trkpt lat="43.35061" lon="5.76507">
        <ele>435.61</ele>
        <time>2019-01-06T11:15:27Z</time>
      </trkpt>
      <trkpt lat="43.35059" lon="5.76492">
        <ele>434.65</ele>
        <time>2019-01-06T11:15:39Z</time>
      </trkpt>
      <trkpt lat="43.35057" lon="5.76485">
        <ele>434.65</ele>
        <time>2019-01-06T11:15:44Z</time>
      </trkpt>
      <trkpt lat="43.35054" lon="5.76479">
        <ele>434.17</ele>
        <time>2019-01-06T11:15:59Z</time>
      </trkpt>
      <trkpt lat="43.35051" lon="5.76477">
        <ele>433.69</ele>
        <time>2019-01-06T11:16:06Z</time>
      </trkpt>
      <trkpt lat="43.35044" lon="5.76471">
        <ele>433.21</ele>
        <time>2019-01-06T11:16:15Z</time>
      </trkpt>
      <trkpt lat="43.35043" lon="5.76471">
        <ele>433.21</ele>
        <time>2019-01-06T11:16:16Z</time>
      </trkpt>
      <trkpt lat="43.35037" lon="5.76469">
        <ele>432.25</ele>
        <time>2019-01-06T11:16:25Z</time>
      </trkpt>
      <trkpt lat="43.35035" lon="5.7647">
        <ele>432.25</ele>
        <time>2019-01-06T11:16:28Z</time>
      </trkpt>
      <trkpt lat="43.35034" lon="5.76471">
        <ele>431.77</ele>
        <time>2019-01-06T11:16:29Z</time>
      </trkpt>
      <trkpt lat="43.35032" lon="5.76472">
        <ele>431.77</ele>
        <time>2019-01-06T11:16:30Z</time>
      </trkpt>
      <trkpt lat="43.35031" lon="5.76473">
        <ele>431.77</ele>
        <time>2019-01-06T11:16:31Z</time>
      </trkpt>
      <trkpt lat="43.35027" lon="5.76474">
        <ele>430.81</ele>
        <time>2019-01-06T11:16:36Z</time>
      </trkpt>
      <trkpt lat="43.35014" lon="5.76477">
        <ele>430.33</ele>
        <time>2019-01-06T11:16:49Z</time>
      </trkpt>
      <trkpt lat="43.35008" lon="5.76476">
        <ele>429.85</ele>
        <time>2019-01-06T11:17:00Z</time>
      </trkpt>
      <trkpt lat="43.35006" lon="5.76475">
        <ele>429.85</ele>
        <time>2019-01-06T11:17:02Z</time>
      </trkpt>
      <trkpt lat="43.35004" lon="5.76474">
        <ele>429.85</ele>
        <time>2019-01-06T11:17:03Z</time>
      </trkpt>
      <trkpt lat="43.35003" lon="5.76473">
        <ele>429.37</ele>
        <time>2019-01-06T11:17:04Z</time>
      </trkpt>
      <trkpt lat="43.35001" lon="5.76472">
        <ele>429.37</ele>
        <time>2019-01-06T11:17:05Z</time>
      </trkpt>
      <trkpt lat="43.34998" lon="5.76471">
        <ele>429.85</ele>
        <time>2019-01-06T11:17:06Z</time>
      </trkpt>
      <trkpt lat="43.34997" lon="5.76471">
        <ele>429.85</ele>
        <time>2019-01-06T11:17:07Z</time>
      </trkpt>
      <trkpt lat="43.34995" lon="5.7647">
        <ele>429.37</ele>
        <time>2019-01-06T11:17:11Z</time>
      </trkpt>
      <trkpt lat="43.34994" lon="5.76469">
        <ele>428.89</ele>
        <time>2019-01-06T11:17:12Z</time>
      </trkpt>
      <trkpt lat="43.34992" lon="5.76468">
        <ele>428.89</ele>
        <time>2019-01-06T11:17:13Z</time>
      </trkpt>
      <trkpt lat="43.3499" lon="5.76467">
        <ele>428.4</ele>
        <time>2019-01-06T11:17:14Z</time>
      </trkpt>
      <trkpt lat="43.34989" lon="5.76465">
        <ele>428.4</ele>
        <time>2019-01-06T11:17:15Z</time>
      </trkpt>
      <trkpt lat="43.34987" lon="5.76464">
        <ele>428.4</ele>
        <time>2019-01-06T11:17:16Z</time>
      </trkpt>
      <trkpt lat="43.34986" lon="5.76464">
        <ele>428.4</ele>
        <time>2019-01-06T11:17:17Z</time>
      </trkpt>
      <trkpt lat="43.34977" lon="5.7646">
        <ele>427.44</ele>
        <time>2019-01-06T11:17:28Z</time>
      </trkpt>
      <trkpt lat="43.34973" lon="5.7646">
        <ele>427.44</ele>
        <time>2019-01-06T11:17:34Z</time>
      </trkpt>
      <trkpt lat="43.34972" lon="5.76459">
        <ele>427.44</ele>
        <time>2019-01-06T11:17:35Z</time>
      </trkpt>
      <trkpt lat="43.34971" lon="5.76458">
        <ele>427.44</ele>
        <time>2019-01-06T11:17:36Z</time>
      </trkpt>
      <trkpt lat="43.34967" lon="5.76461">
        <ele>427.44</ele>
        <time>2019-01-06T11:17:51Z</time>
      </trkpt>
      <trkpt lat="43.34965" lon="5.76463">
        <ele>428.89</ele>
        <time>2019-01-06T11:17:58Z</time>
      </trkpt>
      <trkpt lat="43.34964" lon="5.76463">
        <ele>428.89</ele>
        <time>2019-01-06T11:17:59Z</time>
      </trkpt>
      <trkpt lat="43.34964" lon="5.76455">
        <ele>427.44</ele>
        <time>2019-01-06T11:18:10Z</time>
      </trkpt>
      <trkpt lat="43.34962" lon="5.76449">
        <ele>426</ele>
        <time>2019-01-06T11:18:21Z</time>
      </trkpt>
      <trkpt lat="43.34957" lon="5.76441">
        <ele>423.6</ele>
        <time>2019-01-06T11:18:38Z</time>
      </trkpt>
      <trkpt lat="43.34953" lon="5.76432">
        <ele>421.19</ele>
        <time>2019-01-06T11:18:53Z</time>
      </trkpt>
      <trkpt lat="43.34948" lon="5.76433">
        <ele>419.75</ele>
        <time>2019-01-06T11:19:10Z</time>
      </trkpt>
      <trkpt lat="43.34946" lon="5.76432">
        <ele>421.19</ele>
        <time>2019-01-06T11:19:33Z</time>
      </trkpt>
      <trkpt lat="43.34946" lon="5.76432">
        <ele>421.19</ele>
        <time>2019-01-06T11:19:34Z</time>
      </trkpt>
      <trkpt lat="43.34946" lon="5.76433">
        <ele>419.27</ele>
        <time>2019-01-06T11:19:37Z</time>
      </trkpt>
      <trkpt lat="43.34948" lon="5.76436">
        <ele>418.79</ele>
        <time>2019-01-06T11:19:42Z</time>
      </trkpt>
      <trkpt lat="43.34955" lon="5.76416">
        <ele>421.19</ele>
        <time>2019-01-06T11:20:31Z</time>
      </trkpt>
      <trkpt lat="43.34947" lon="5.76413">
        <ele>413.5</ele>
        <time>2019-01-06T11:20:39Z</time>
      </trkpt>
      <trkpt lat="43.34946" lon="5.76413">
        <ele>416.87</ele>
        <time>2019-01-06T11:20:40Z</time>
      </trkpt>
      <trkpt lat="43.34946" lon="5.76412">
        <ele>419.75</ele>
        <time>2019-01-06T11:20:41Z</time>
      </trkpt>
      <trkpt lat="43.34946" lon="5.76412">
        <ele>419.75</ele>
        <time>2019-01-06T11:20:42Z</time>
      </trkpt>
      <trkpt lat="43.34945" lon="5.76409">
        <ele>424.56</ele>
        <time>2019-01-06T11:20:46Z</time>
      </trkpt>
      <trkpt lat="43.34943" lon="5.76404">
        <ele>420.71</ele>
        <time>2019-01-06T11:20:51Z</time>
      </trkpt>
      <trkpt lat="43.34947" lon="5.76422">
        <ele>420.71</ele>
        <time>2019-01-06T11:21:08Z</time>
      </trkpt>
      <trkpt lat="43.3495" lon="5.76431">
        <ele>421.19</ele>
        <time>2019-01-06T11:21:36Z</time>
      </trkpt>
      <trkpt lat="43.34953" lon="5.76428">
        <ele>420.23</ele>
        <time>2019-01-06T11:21:59Z</time>
      </trkpt>
      <trkpt lat="43.34953" lon="5.76426">
        <ele>420.23</ele>
        <time>2019-01-06T11:22:00Z</time>
      </trkpt>
      <trkpt lat="43.3495" lon="5.76424">
        <ele>421.68</ele>
        <time>2019-01-06T11:22:24Z</time>
      </trkpt>
      <trkpt lat="43.34949" lon="5.76428">
        <ele>422.16</ele>
        <time>2019-01-06T11:22:51Z</time>
      </trkpt>
      <trkpt lat="43.34948" lon="5.76426">
        <ele>420.71</ele>
        <time>2019-01-06T11:23:14Z</time>
      </trkpt>
      <trkpt lat="43.34948" lon="5.7644">
        <ele>421.68</ele>
        <time>2019-01-06T11:23:37Z</time>
      </trkpt>
      <trkpt lat="43.34952" lon="5.76432">
        <ele>423.12</ele>
        <time>2019-01-06T11:24:00Z</time>
      </trkpt>
      <trkpt lat="43.34959" lon="5.76422">
        <ele>423.6</ele>
        <time>2019-01-06T11:24:21Z</time>
      </trkpt>
      <trkpt lat="43.34958" lon="5.7643">
        <ele>426.96</ele>
        <time>2019-01-06T11:24:36Z</time>
      </trkpt>
      <trkpt lat="43.34961" lon="5.76442">
        <ele>429.85</ele>
        <time>2019-01-06T11:24:56Z</time>
      </trkpt>
      <trkpt lat="43.34961" lon="5.76447">
        <ele>433.69</ele>
        <time>2019-01-06T11:25:09Z</time>
      </trkpt>
      <trkpt lat="43.34964" lon="5.76448">
        <ele>433.21</ele>
        <time>2019-01-06T11:25:20Z</time>
      </trkpt>
      <trkpt lat="43.34953" lon="5.76451">
        <ele>435.13</ele>
        <time>2019-01-06T11:25:33Z</time>
      </trkpt>
      <trkpt lat="43.34952" lon="5.7645">
        <ele>433.21</ele>
        <time>2019-01-06T11:25:35Z</time>
      </trkpt>
      <trkpt lat="43.34951" lon="5.76449">
        <ele>435.61</ele>
        <time>2019-01-06T11:25:37Z</time>
      </trkpt>
      <trkpt lat="43.34938" lon="5.76444">
        <ele>435.61</ele>
        <time>2019-01-06T11:25:51Z</time>
      </trkpt>
      <trkpt lat="43.34928" lon="5.76438">
        <ele>434.17</ele>
        <time>2019-01-06T11:26:14Z</time>
      </trkpt>
      <trkpt lat="43.34911" lon="5.76437">
        <ele>433.69</ele>
        <time>2019-01-06T11:26:35Z</time>
      </trkpt>
      <trkpt lat="43.34908" lon="5.76436">
        <ele>433.69</ele>
        <time>2019-01-06T11:26:37Z</time>
      </trkpt>
      <trkpt lat="43.34895" lon="5.7643">
        <ele>433.21</ele>
        <time>2019-01-06T11:26:44Z</time>
      </trkpt>
      <trkpt lat="43.34894" lon="5.76429">
        <ele>433.21</ele>
        <time>2019-01-06T11:26:45Z</time>
      </trkpt>
      <trkpt lat="43.34889" lon="5.76425">
        <ele>433.21</ele>
        <time>2019-01-06T11:26:50Z</time>
      </trkpt>
      <trkpt lat="43.34873" lon="5.76425">
        <ele>433.21</ele>
        <time>2019-01-06T11:27:06Z</time>
      </trkpt>
      <trkpt lat="43.34869" lon="5.76423">
        <ele>434.17</ele>
        <time>2019-01-06T11:27:29Z</time>
      </trkpt>
      <trkpt lat="43.3487" lon="5.76418">
        <ele>433.21</ele>
        <time>2019-01-06T11:27:50Z</time>
      </trkpt>
      <trkpt lat="43.34865" lon="5.76424">
        <ele>435.13</ele>
        <time>2019-01-06T11:28:06Z</time>
      </trkpt>
      <trkpt lat="43.34861" lon="5.76424">
        <ele>435.61</ele>
        <time>2019-01-06T11:28:20Z</time>
      </trkpt>
      <trkpt lat="43.34847" lon="5.76419">
        <ele>440.9</ele>
        <time>2019-01-06T11:28:41Z</time>
      </trkpt>
      <trkpt lat="43.34846" lon="5.7642">
        <ele>440.9</ele>
        <time>2019-01-06T11:28:42Z</time>
      </trkpt>
      <trkpt lat="43.34839" lon="5.76423">
        <ele>439.46</ele>
        <time>2019-01-06T11:28:45Z</time>
      </trkpt>
      <trkpt lat="43.34836" lon="5.76425">
        <ele>440.42</ele>
        <time>2019-01-06T11:28:47Z</time>
      </trkpt>
      <trkpt lat="43.34806" lon="5.76432">
        <ele>442.82</ele>
        <time>2019-01-06T11:29:09Z</time>
      </trkpt>
      <trkpt lat="43.34777" lon="5.76428">
        <ele>442.82</ele>
        <time>2019-01-06T11:29:29Z</time>
      </trkpt>
      <trkpt lat="43.34766" lon="5.76426">
        <ele>442.34</ele>
        <time>2019-01-06T11:29:38Z</time>
      </trkpt>
      <trkpt lat="43.34743" lon="5.76408">
        <ele>443.79</ele>
        <time>2019-01-06T11:30:01Z</time>
      </trkpt>
      <trkpt lat="43.34738" lon="5.76393">
        <ele>445.23</ele>
        <time>2019-01-06T11:30:13Z</time>
      </trkpt>
      <trkpt lat="43.34737" lon="5.76392">
        <ele>443.79</ele>
        <time>2019-01-06T11:30:15Z</time>
      </trkpt>
      <trkpt lat="43.34732" lon="5.76386">
        <ele>445.23</ele>
        <time>2019-01-06T11:30:21Z</time>
      </trkpt>
      <trkpt lat="43.34722" lon="5.7638">
        <ele>446.67</ele>
        <time>2019-01-06T11:30:44Z</time>
      </trkpt>
      <trkpt lat="43.34721" lon="5.76378">
        <ele>443.79</ele>
        <time>2019-01-06T11:30:50Z</time>
      </trkpt>
      <trkpt lat="43.3472" lon="5.76376">
        <ele>448.59</ele>
        <time>2019-01-06T11:30:54Z</time>
      </trkpt>
      <trkpt lat="43.34719" lon="5.76376">
        <ele>448.59</ele>
        <time>2019-01-06T11:30:55Z</time>
      </trkpt>
      <trkpt lat="43.34718" lon="5.76376">
        <ele>444.75</ele>
        <time>2019-01-06T11:30:56Z</time>
      </trkpt>
      <trkpt lat="43.34717" lon="5.76376">
        <ele>448.11</ele>
        <time>2019-01-06T11:30:57Z</time>
      </trkpt>
      <trkpt lat="43.34713" lon="5.76375">
        <ele>446.19</ele>
        <time>2019-01-06T11:31:00Z</time>
      </trkpt>
      <trkpt lat="43.34705" lon="5.76371">
        <ele>446.19</ele>
        <time>2019-01-06T11:31:09Z</time>
      </trkpt>
      <trkpt lat="43.34704" lon="5.76371">
        <ele>448.11</ele>
        <time>2019-01-06T11:31:11Z</time>
      </trkpt>
      <trkpt lat="43.34696" lon="5.76364">
        <ele>448.59</ele>
        <time>2019-01-06T11:31:23Z</time>
      </trkpt>
      <trkpt lat="43.34693" lon="5.76351">
        <ele>448.59</ele>
        <time>2019-01-06T11:31:36Z</time>
      </trkpt>
      <trkpt lat="43.34692" lon="5.7635">
        <ele>450.52</ele>
        <time>2019-01-06T11:31:38Z</time>
      </trkpt>
      <trkpt lat="43.34672" lon="5.76321">
        <ele>451.48</ele>
        <time>2019-01-06T11:31:55Z</time>
      </trkpt>
      <trkpt lat="43.34671" lon="5.76319">
        <ele>451.48</ele>
        <time>2019-01-06T11:31:57Z</time>
      </trkpt>
      <trkpt lat="43.34666" lon="5.76313">
        <ele>451.48</ele>
        <time>2019-01-06T11:32:03Z</time>
      </trkpt>
      <trkpt lat="43.34657" lon="5.76293">
        <ele>452.44</ele>
        <time>2019-01-06T11:32:19Z</time>
      </trkpt>
      <trkpt lat="43.34645" lon="5.76281">
        <ele>451.48</ele>
        <time>2019-01-06T11:32:35Z</time>
      </trkpt>
      <trkpt lat="43.34627" lon="5.76277">
        <ele>454.36</ele>
        <time>2019-01-06T11:32:56Z</time>
      </trkpt>
      <trkpt lat="43.3462" lon="5.76278">
        <ele>454.36</ele>
        <time>2019-01-06T11:33:06Z</time>
      </trkpt>
      <trkpt lat="43.34614" lon="5.76282">
        <ele>450.52</ele>
        <time>2019-01-06T11:33:16Z</time>
      </trkpt>
      <trkpt lat="43.34613" lon="5.76283">
        <ele>450.52</ele>
        <time>2019-01-06T11:33:17Z</time>
      </trkpt>
      <trkpt lat="43.34613" lon="5.76284">
        <ele>456.76</ele>
        <time>2019-01-06T11:33:18Z</time>
      </trkpt>
      <trkpt lat="43.34612" lon="5.76284">
        <ele>455.32</ele>
        <time>2019-01-06T11:33:19Z</time>
      </trkpt>
      <trkpt lat="43.34612" lon="5.76286">
        <ele>453.88</ele>
        <time>2019-01-06T11:33:21Z</time>
      </trkpt>
      <trkpt lat="43.3461" lon="5.76287">
        <ele>450.03</ele>
        <time>2019-01-06T11:33:25Z</time>
      </trkpt>
      <trkpt lat="43.3461" lon="5.76287">
        <ele>453.4</ele>
        <time>2019-01-06T11:33:26Z</time>
      </trkpt>
      <trkpt lat="43.3461" lon="5.76288">
        <ele>453.4</ele>
        <time>2019-01-06T11:33:27Z</time>
      </trkpt>
      <trkpt lat="43.34606" lon="5.76281">
        <ele>463.01</ele>
        <time>2019-01-06T11:33:45Z</time>
      </trkpt>
      <trkpt lat="43.34605" lon="5.7628">
        <ele>463.01</ele>
        <time>2019-01-06T11:33:46Z</time>
      </trkpt>
      <trkpt lat="43.34605" lon="5.7628">
        <ele>454.84</ele>
        <time>2019-01-06T11:33:47Z</time>
      </trkpt>
      <trkpt lat="43.346" lon="5.76275">
        <ele>456.28</ele>
        <time>2019-01-06T11:33:52Z</time>
      </trkpt>
      <trkpt lat="43.34599" lon="5.76279">
        <ele>457.24</ele>
        <time>2019-01-06T11:33:57Z</time>
      </trkpt>
      <trkpt lat="43.34595" lon="5.76291">
        <ele>460.61</ele>
        <time>2019-01-06T11:34:05Z</time>
      </trkpt>
      <trkpt lat="43.34596" lon="5.76294">
        <ele>457.72</ele>
        <time>2019-01-06T11:34:08Z</time>
      </trkpt>
      <trkpt lat="43.34596" lon="5.76297">
        <ele>462.05</ele>
        <time>2019-01-06T11:34:11Z</time>
      </trkpt>
      <trkpt lat="43.3459" lon="5.76295">
        <ele>458.69</ele>
        <time>2019-01-06T11:34:22Z</time>
      </trkpt>
      <trkpt lat="43.34585" lon="5.76296">
        <ele>462.53</ele>
        <time>2019-01-06T11:34:32Z</time>
      </trkpt>
      <trkpt lat="43.34587" lon="5.76296">
        <ele>461.09</ele>
        <time>2019-01-06T11:34:50Z</time>
      </trkpt>
      <trkpt lat="43.34591" lon="5.76297">
        <ele>462.05</ele>
        <time>2019-01-06T11:35:11Z</time>
      </trkpt>
      <trkpt lat="43.34592" lon="5.76299">
        <ele>462.53</ele>
        <time>2019-01-06T11:35:39Z</time>
      </trkpt>
      <trkpt lat="43.34588" lon="5.76297">
        <ele>463.01</ele>
        <time>2019-01-06T11:35:59Z</time>
      </trkpt>
      <trkpt lat="43.3459" lon="5.76299">
        <ele>463.01</ele>
        <time>2019-01-06T11:36:17Z</time>
      </trkpt>
      <trkpt lat="43.34592" lon="5.763">
        <ele>461.57</ele>
        <time>2019-01-06T11:36:36Z</time>
      </trkpt>
      <trkpt lat="43.34592" lon="5.76295">
        <ele>461.09</ele>
        <time>2019-01-06T11:36:50Z</time>
      </trkpt>
      <trkpt lat="43.34592" lon="5.76294">
        <ele>460.61</ele>
        <time>2019-01-06T11:37:07Z</time>
      </trkpt>
      <trkpt lat="43.34592" lon="5.76295">
        <ele>461.09</ele>
        <time>2019-01-06T11:37:26Z</time>
      </trkpt>
      <trkpt lat="43.34593" lon="5.76292">
        <ele>460.61</ele>
        <time>2019-01-06T11:37:42Z</time>
      </trkpt>
      <trkpt lat="43.34596" lon="5.76293">
        <ele>460.61</ele>
        <time>2019-01-06T11:38:04Z</time>
      </trkpt>
      <trkpt lat="43.34595" lon="5.76301">
        <ele>461.09</ele>
        <time>2019-01-06T11:38:22Z</time>
      </trkpt>
      <trkpt lat="43.34595" lon="5.76302">
        <ele>457.24</ele>
        <time>2019-01-06T11:38:23Z</time>
      </trkpt>
      <trkpt lat="43.34595" lon="5.76302">
        <ele>463.49</ele>
        <time>2019-01-06T11:38:24Z</time>
      </trkpt>
      <trkpt lat="43.34595" lon="5.76303">
        <ele>459.65</ele>
        <time>2019-01-06T11:38:25Z</time>
      </trkpt>
      <trkpt lat="43.34602" lon="5.76294">
        <ele>461.09</ele>
        <time>2019-01-06T11:38:44Z</time>
      </trkpt>
      <trkpt lat="43.34603" lon="5.76295">
        <ele>459.65</ele>
        <time>2019-01-06T11:38:46Z</time>
      </trkpt>
      <trkpt lat="43.34604" lon="5.76295">
        <ele>455.32</ele>
        <time>2019-01-06T11:38:48Z</time>
      </trkpt>
      <trkpt lat="43.34604" lon="5.76295">
        <ele>458.69</ele>
        <time>2019-01-06T11:38:49Z</time>
      </trkpt>
      <trkpt lat="43.34604" lon="5.76295">
        <ele>458.69</ele>
        <time>2019-01-06T11:38:50Z</time>
      </trkpt>
      <trkpt lat="43.34607" lon="5.76294">
        <ele>461.09</ele>
        <time>2019-01-06T11:38:55Z</time>
      </trkpt>
      <trkpt lat="43.34609" lon="5.76295">
        <ele>462.05</ele>
        <time>2019-01-06T11:38:58Z</time>
      </trkpt>
      <trkpt lat="43.34609" lon="5.76295">
        <ele>459.17</ele>
        <time>2019-01-06T11:38:59Z</time>
      </trkpt>
      <trkpt lat="43.3461" lon="5.76295">
        <ele>460.61</ele>
        <time>2019-01-06T11:39:00Z</time>
      </trkpt>
      <trkpt lat="43.34612" lon="5.76295">
        <ele>461.57</ele>
        <time>2019-01-06T11:39:02Z</time>
      </trkpt>
      <trkpt lat="43.34613" lon="5.76295">
        <ele>460.13</ele>
        <time>2019-01-06T11:39:03Z</time>
      </trkpt>
      <trkpt lat="43.34615" lon="5.76297">
        <ele>454.36</ele>
        <time>2019-01-06T11:39:06Z</time>
      </trkpt>
      <trkpt lat="43.34615" lon="5.76297">
        <ele>458.21</ele>
        <time>2019-01-06T11:39:07Z</time>
      </trkpt>
      <trkpt lat="43.34619" lon="5.76299">
        <ele>453.4</ele>
        <time>2019-01-06T11:39:16Z</time>
      </trkpt>
      <trkpt lat="43.34619" lon="5.76299">
        <ele>453.4</ele>
        <time>2019-01-06T11:39:17Z</time>
      </trkpt>
      <trkpt lat="43.34619" lon="5.76298">
        <ele>463.01</ele>
        <time>2019-01-06T11:39:18Z</time>
      </trkpt>
      <trkpt lat="43.34619" lon="5.76297">
        <ele>460.61</ele>
        <time>2019-01-06T11:39:19Z</time>
      </trkpt>
      <trkpt lat="43.34618" lon="5.76296">
        <ele>460.13</ele>
        <time>2019-01-06T11:39:21Z</time>
      </trkpt>
      <trkpt lat="43.34616" lon="5.76289">
        <ele>464.45</ele>
        <time>2019-01-06T11:39:28Z</time>
      </trkpt>
      <trkpt lat="43.34614" lon="5.76286">
        <ele>460.61</ele>
        <time>2019-01-06T11:39:31Z</time>
      </trkpt>
      <trkpt lat="43.34596" lon="5.7629">
        <ele>460.13</ele>
        <time>2019-01-06T11:39:50Z</time>
      </trkpt>
      <trkpt lat="43.34596" lon="5.76292">
        <ele>453.88</ele>
        <time>2019-01-06T11:39:53Z</time>
      </trkpt>
      <trkpt lat="43.34597" lon="5.76293">
        <ele>453.88</ele>
        <time>2019-01-06T11:39:54Z</time>
      </trkpt>
      <trkpt lat="43.34597" lon="5.76293">
        <ele>466.38</ele>
        <time>2019-01-06T11:39:55Z</time>
      </trkpt>
      <trkpt lat="43.34597" lon="5.76293">
        <ele>461.09</ele>
        <time>2019-01-06T11:39:56Z</time>
      </trkpt>
      <trkpt lat="43.34599" lon="5.76294">
        <ele>459.65</ele>
        <time>2019-01-06T11:40:05Z</time>
      </trkpt>
      <trkpt lat="43.34601" lon="5.76292">
        <ele>462.53</ele>
        <time>2019-01-06T11:40:13Z</time>
      </trkpt>
      <trkpt lat="43.34601" lon="5.76292">
        <ele>458.21</ele>
        <time>2019-01-06T11:40:14Z</time>
      </trkpt>
      <trkpt lat="43.34602" lon="5.76292">
        <ele>457.72</ele>
        <time>2019-01-06T11:40:16Z</time>
      </trkpt>
      <trkpt lat="43.34602" lon="5.76292">
        <ele>464.45</ele>
        <time>2019-01-06T11:40:17Z</time>
      </trkpt>
      <trkpt lat="43.34603" lon="5.76288">
        <ele>457.72</ele>
        <time>2019-01-06T11:40:22Z</time>
      </trkpt>
      <trkpt lat="43.34602" lon="5.76288">
        <ele>463.01</ele>
        <time>2019-01-06T11:40:23Z</time>
      </trkpt>
      <trkpt lat="43.34602" lon="5.76288">
        <ele>460.61</ele>
        <time>2019-01-06T11:40:24Z</time>
      </trkpt>
      <trkpt lat="43.34599" lon="5.76288">
        <ele>455.32</ele>
        <time>2019-01-06T11:40:34Z</time>
      </trkpt>
      <trkpt lat="43.34598" lon="5.76288">
        <ele>464.93</ele>
        <time>2019-01-06T11:40:35Z</time>
      </trkpt>
      <trkpt lat="43.34598" lon="5.76289">
        <ele>460.61</ele>
        <time>2019-01-06T11:40:36Z</time>
      </trkpt>
      <trkpt lat="43.346" lon="5.76289">
        <ele>460.13</ele>
        <time>2019-01-06T11:40:56Z</time>
      </trkpt>
      <trkpt lat="43.34605" lon="5.76278">
        <ele>457.72</ele>
        <time>2019-01-06T11:41:19Z</time>
      </trkpt>
      <trkpt lat="43.34618" lon="5.76279">
        <ele>456.28</ele>
        <time>2019-01-06T11:41:40Z</time>
      </trkpt>
      <trkpt lat="43.34643" lon="5.76275">
        <ele>455.8</ele>
        <time>2019-01-06T11:42:00Z</time>
      </trkpt>
      <trkpt lat="43.34629" lon="5.76269">
        <ele>457.72</ele>
        <time>2019-01-06T11:42:20Z</time>
      </trkpt>
      <trkpt lat="43.34624" lon="5.7627">
        <ele>459.17</ele>
        <time>2019-01-06T11:42:25Z</time>
      </trkpt>
      <trkpt lat="43.34622" lon="5.76271">
        <ele>457.72</ele>
        <time>2019-01-06T11:42:27Z</time>
      </trkpt>
      <trkpt lat="43.34615" lon="5.76275">
        <ele>459.17</ele>
        <time>2019-01-06T11:42:34Z</time>
      </trkpt>
      <trkpt lat="43.34611" lon="5.76271">
        <ele>457.72</ele>
        <time>2019-01-06T11:42:41Z</time>
      </trkpt>
      <trkpt lat="43.34616" lon="5.76257">
        <ele>457.24</ele>
        <time>2019-01-06T11:43:02Z</time>
      </trkpt>
      <trkpt lat="43.34622" lon="5.76259">
        <ele>456.76</ele>
        <time>2019-01-06T11:43:23Z</time>
      </trkpt>
      <trkpt lat="43.3463" lon="5.76256">
        <ele>457.72</ele>
        <time>2019-01-06T11:43:41Z</time>
      </trkpt>
      <trkpt lat="43.34633" lon="5.76256">
        <ele>456.28</ele>
        <time>2019-01-06T11:43:43Z</time>
      </trkpt>
      <trkpt lat="43.34639" lon="5.76257">
        <ele>457.72</ele>
        <time>2019-01-06T11:43:45Z</time>
      </trkpt>
      <trkpt lat="43.34655" lon="5.76262">
        <ele>456.28</ele>
        <time>2019-01-06T11:44:02Z</time>
      </trkpt>
      <trkpt lat="43.34664" lon="5.76268">
        <ele>455.8</ele>
        <time>2019-01-06T11:44:14Z</time>
      </trkpt>
      <trkpt lat="43.34676" lon="5.76277">
        <ele>454.84</ele>
        <time>2019-01-06T11:44:29Z</time>
      </trkpt>
      <trkpt lat="43.34683" lon="5.76286">
        <ele>453.88</ele>
        <time>2019-01-06T11:44:41Z</time>
      </trkpt>
      <trkpt lat="43.34687" lon="5.76294">
        <ele>452.92</ele>
        <time>2019-01-06T11:44:51Z</time>
      </trkpt>
      <trkpt lat="43.34688" lon="5.76297">
        <ele>452.44</ele>
        <time>2019-01-06T11:45:12Z</time>
      </trkpt>
      <trkpt lat="43.34692" lon="5.76302">
        <ele>453.4</ele>
        <time>2019-01-06T11:45:29Z</time>
      </trkpt>
      <trkpt lat="43.34699" lon="5.76311">
        <ele>453.88</ele>
        <time>2019-01-06T11:45:42Z</time>
      </trkpt>
      <trkpt lat="43.347" lon="5.76313">
        <ele>453.88</ele>
        <time>2019-01-06T11:45:44Z</time>
      </trkpt>
      <trkpt lat="43.34707" lon="5.76322">
        <ele>452.44</ele>
        <time>2019-01-06T11:45:52Z</time>
      </trkpt>
      <trkpt lat="43.3471" lon="5.76333">
        <ele>451.96</ele>
        <time>2019-01-06T11:46:02Z</time>
      </trkpt>
      <trkpt lat="43.34716" lon="5.76342">
        <ele>451.48</ele>
        <time>2019-01-06T11:46:18Z</time>
      </trkpt>
      <trkpt lat="43.34712" lon="5.76341">
        <ele>450.52</ele>
        <time>2019-01-06T11:46:33Z</time>
      </trkpt>
      <trkpt lat="43.34713" lon="5.7634">
        <ele>451.96</ele>
        <time>2019-01-06T11:46:35Z</time>
      </trkpt>
      <trkpt lat="43.34726" lon="5.76347">
        <ele>451</ele>
        <time>2019-01-06T11:46:50Z</time>
      </trkpt>
      <trkpt lat="43.34738" lon="5.7636">
        <ele>449.07</ele>
        <time>2019-01-06T11:47:06Z</time>
      </trkpt>
      <trkpt lat="43.34745" lon="5.76368">
        <ele>448.59</ele>
        <time>2019-01-06T11:47:16Z</time>
      </trkpt>
      <trkpt lat="43.34744" lon="5.76371">
        <ele>444.75</ele>
        <time>2019-01-06T11:47:19Z</time>
      </trkpt>
      <trkpt lat="43.34744" lon="5.76371">
        <ele>438.98</ele>
        <time>2019-01-06T11:47:20Z</time>
      </trkpt>
      <trkpt lat="43.34744" lon="5.76371">
        <ele>450.03</ele>
        <time>2019-01-06T11:47:21Z</time>
      </trkpt>
      <trkpt lat="43.34743" lon="5.76371">
        <ele>449.07</ele>
        <time>2019-01-06T11:47:22Z</time>
      </trkpt>
      <trkpt lat="43.34743" lon="5.76371">
        <ele>448.11</ele>
        <time>2019-01-06T11:47:24Z</time>
      </trkpt>
      <trkpt lat="43.3475" lon="5.76382">
        <ele>447.15</ele>
        <time>2019-01-06T11:47:46Z</time>
      </trkpt>
      <trkpt lat="43.34751" lon="5.76385">
        <ele>453.88</ele>
        <time>2019-01-06T11:47:48Z</time>
      </trkpt>
      <trkpt lat="43.34742" lon="5.76378">
        <ele>449.07</ele>
        <time>2019-01-06T11:47:49Z</time>
      </trkpt>
      <trkpt lat="43.34735" lon="5.76372">
        <ele>448.11</ele>
        <time>2019-01-06T11:47:59Z</time>
      </trkpt>
      <trkpt lat="43.34736" lon="5.76372">
        <ele>450.03</ele>
        <time>2019-01-06T11:48:02Z</time>
      </trkpt>
      <trkpt lat="43.34737" lon="5.76371">
        <ele>449.07</ele>
        <time>2019-01-06T11:48:04Z</time>
      </trkpt>
      <trkpt lat="43.3475" lon="5.76382">
        <ele>447.63</ele>
        <time>2019-01-06T11:48:18Z</time>
      </trkpt>
      <trkpt lat="43.34757" lon="5.76389">
        <ele>448.59</ele>
        <time>2019-01-06T11:48:29Z</time>
      </trkpt>
      <trkpt lat="43.34772" lon="5.76403">
        <ele>445.23</ele>
        <time>2019-01-06T11:48:44Z</time>
      </trkpt>
      <trkpt lat="43.34773" lon="5.76408">
        <ele>441.86</ele>
        <time>2019-01-06T11:48:51Z</time>
      </trkpt>
      <trkpt lat="43.34773" lon="5.76407">
        <ele>446.19</ele>
        <time>2019-01-06T11:48:52Z</time>
      </trkpt>
      <trkpt lat="43.34773" lon="5.76406">
        <ele>444.75</ele>
        <time>2019-01-06T11:48:53Z</time>
      </trkpt>
      <trkpt lat="43.34772" lon="5.76401">
        <ele>451.96</ele>
        <time>2019-01-06T11:49:01Z</time>
      </trkpt>
      <trkpt lat="43.34772" lon="5.76401">
        <ele>446.19</ele>
        <time>2019-01-06T11:49:02Z</time>
      </trkpt>
      <trkpt lat="43.3477" lon="5.76402">
        <ele>445.71</ele>
        <time>2019-01-06T11:49:04Z</time>
      </trkpt>
      <trkpt lat="43.34789" lon="5.764">
        <ele>445.71</ele>
        <time>2019-01-06T11:49:21Z</time>
      </trkpt>
      <trkpt lat="43.34806" lon="5.76406">
        <ele>443.79</ele>
        <time>2019-01-06T11:49:39Z</time>
      </trkpt>
      <trkpt lat="43.34808" lon="5.76406">
        <ele>445.23</ele>
        <time>2019-01-06T11:49:42Z</time>
      </trkpt>
      <trkpt lat="43.34814" lon="5.7641">
        <ele>441.86</ele>
        <time>2019-01-06T11:49:52Z</time>
      </trkpt>
      <trkpt lat="43.34818" lon="5.76424">
        <ele>438.98</ele>
        <time>2019-01-06T11:50:07Z</time>
      </trkpt>
      <trkpt lat="43.34818" lon="5.76425">
        <ele>441.38</ele>
        <time>2019-01-06T11:50:09Z</time>
      </trkpt>
      <trkpt lat="43.34818" lon="5.76427">
        <ele>444.27</ele>
        <time>2019-01-06T11:50:12Z</time>
      </trkpt>
      <trkpt lat="43.34818" lon="5.76426">
        <ele>442.34</ele>
        <time>2019-01-06T11:50:14Z</time>
      </trkpt>
      <trkpt lat="43.34819" lon="5.76424">
        <ele>440.42</ele>
        <time>2019-01-06T11:50:16Z</time>
      </trkpt>
      <trkpt lat="43.34819" lon="5.76424">
        <ele>440.9</ele>
        <time>2019-01-06T11:50:20Z</time>
      </trkpt>
      <trkpt lat="43.34819" lon="5.76424">
        <ele>446.19</ele>
        <time>2019-01-06T11:50:21Z</time>
      </trkpt>
      <trkpt lat="43.34819" lon="5.76425">
        <ele>441.86</ele>
        <time>2019-01-06T11:50:25Z</time>
      </trkpt>
      <trkpt lat="43.3482" lon="5.76419">
        <ele>445.23</ele>
        <time>2019-01-06T11:50:33Z</time>
      </trkpt>
      <trkpt lat="43.34822" lon="5.76403">
        <ele>444.75</ele>
        <time>2019-01-06T11:50:44Z</time>
      </trkpt>
      <trkpt lat="43.34828" lon="5.764">
        <ele>444.27</ele>
        <time>2019-01-06T11:50:51Z</time>
      </trkpt>
      <trkpt lat="43.34836" lon="5.764">
        <ele>444.75</ele>
        <time>2019-01-06T11:51:00Z</time>
      </trkpt>
      <trkpt lat="43.3486" lon="5.76395">
        <ele>445.23</ele>
        <time>2019-01-06T11:51:21Z</time>
      </trkpt>
      <trkpt lat="43.34867" lon="5.76397">
        <ele>444.27</ele>
        <time>2019-01-06T11:51:28Z</time>
      </trkpt>
      <trkpt lat="43.34871" lon="5.76397">
        <ele>445.23</ele>
        <time>2019-01-06T11:51:31Z</time>
      </trkpt>
      <trkpt lat="43.3489" lon="5.76397">
        <ele>446.19</ele>
        <time>2019-01-06T11:51:45Z</time>
      </trkpt>
      <trkpt lat="43.34901" lon="5.76399">
        <ele>446.19</ele>
        <time>2019-01-06T11:51:55Z</time>
      </trkpt>
      <trkpt lat="43.34912" lon="5.76398">
        <ele>446.67</ele>
        <time>2019-01-06T11:52:07Z</time>
      </trkpt>
      <trkpt lat="43.34926" lon="5.76396">
        <ele>448.11</ele>
        <time>2019-01-06T11:52:21Z</time>
      </trkpt>
      <trkpt lat="43.34938" lon="5.76392">
        <ele>449.55</ele>
        <time>2019-01-06T11:52:34Z</time>
      </trkpt>
      <trkpt lat="43.34939" lon="5.76391">
        <ele>449.55</ele>
        <time>2019-01-06T11:52:35Z</time>
      </trkpt>
      <trkpt lat="43.34948" lon="5.76389">
        <ele>448.59</ele>
        <time>2019-01-06T11:52:43Z</time>
      </trkpt>
      <trkpt lat="43.34953" lon="5.76387">
        <ele>448.11</ele>
        <time>2019-01-06T11:52:52Z</time>
      </trkpt>
      <trkpt lat="43.34959" lon="5.76383">
        <ele>447.63</ele>
        <time>2019-01-06T11:53:00Z</time>
      </trkpt>
      <trkpt lat="43.34962" lon="5.76378">
        <ele>447.15</ele>
        <time>2019-01-06T11:53:06Z</time>
      </trkpt>
      <trkpt lat="43.34975" lon="5.76365">
        <ele>448.59</ele>
        <time>2019-01-06T11:53:21Z</time>
      </trkpt>
      <trkpt lat="43.34979" lon="5.7636">
        <ele>448.59</ele>
        <time>2019-01-06T11:53:30Z</time>
      </trkpt>
      <trkpt lat="43.3498" lon="5.76357">
        <ele>447.63</ele>
        <time>2019-01-06T11:53:34Z</time>
      </trkpt>
      <trkpt lat="43.34988" lon="5.7635">
        <ele>445.23</ele>
        <time>2019-01-06T11:53:46Z</time>
      </trkpt>
      <trkpt lat="43.3499" lon="5.7635">
        <ele>445.23</ele>
        <time>2019-01-06T11:53:47Z</time>
      </trkpt>
      <trkpt lat="43.34997" lon="5.76345">
        <ele>444.75</ele>
        <time>2019-01-06T11:53:57Z</time>
      </trkpt>
      <trkpt lat="43.35005" lon="5.76338">
        <ele>442.34</ele>
        <time>2019-01-06T11:54:09Z</time>
      </trkpt>
      <trkpt lat="43.35007" lon="5.76328">
        <ele>440.42</ele>
        <time>2019-01-06T11:54:20Z</time>
      </trkpt>
      <trkpt lat="43.35009" lon="5.7632">
        <ele>439.46</ele>
        <time>2019-01-06T11:54:27Z</time>
      </trkpt>
      <trkpt lat="43.35009" lon="5.76316">
        <ele>438.98</ele>
        <time>2019-01-06T11:54:30Z</time>
      </trkpt>
      <trkpt lat="43.35014" lon="5.76304">
        <ele>436.58</ele>
        <time>2019-01-06T11:54:42Z</time>
      </trkpt>
      <trkpt lat="43.35012" lon="5.76301">
        <ele>436.58</ele>
        <time>2019-01-06T11:54:53Z</time>
      </trkpt>
      <trkpt lat="43.35012" lon="5.76298">
        <ele>436.58</ele>
        <time>2019-01-06T11:54:56Z</time>
      </trkpt>
      <trkpt lat="43.35012" lon="5.76285">
        <ele>435.61</ele>
        <time>2019-01-06T11:55:09Z</time>
      </trkpt>
      <trkpt lat="43.35011" lon="5.76266">
        <ele>434.17</ele>
        <time>2019-01-06T11:55:24Z</time>
      </trkpt>
      <trkpt lat="43.35013" lon="5.76251">
        <ele>431.77</ele>
        <time>2019-01-06T11:55:39Z</time>
      </trkpt>
      <trkpt lat="43.35014" lon="5.76245">
        <ele>431.29</ele>
        <time>2019-01-06T11:55:44Z</time>
      </trkpt>
      <trkpt lat="43.35019" lon="5.76232">
        <ele>429.85</ele>
        <time>2019-01-06T11:55:58Z</time>
      </trkpt>
      <trkpt lat="43.35023" lon="5.76231">
        <ele>428.4</ele>
        <time>2019-01-06T11:56:03Z</time>
      </trkpt>
      <trkpt lat="43.3503" lon="5.76234">
        <ele>426.96</ele>
        <time>2019-01-06T11:56:16Z</time>
      </trkpt>
      <trkpt lat="43.35031" lon="5.76236">
        <ele>426</ele>
        <time>2019-01-06T11:56:36Z</time>
      </trkpt>
      <trkpt lat="43.35031" lon="5.76234">
        <ele>426</ele>
        <time>2019-01-06T11:56:52Z</time>
      </trkpt>
      <trkpt lat="43.35036" lon="5.76235">
        <ele>425.04</ele>
        <time>2019-01-06T11:57:03Z</time>
      </trkpt>
      <trkpt lat="43.35037" lon="5.76234">
        <ele>425.52</ele>
        <time>2019-01-06T11:57:31Z</time>
      </trkpt>
      <trkpt lat="43.35038" lon="5.7623">
        <ele>425.52</ele>
        <time>2019-01-06T11:57:53Z</time>
      </trkpt>
      <trkpt lat="43.3504" lon="5.7623">
        <ele>427.44</ele>
        <time>2019-01-06T11:57:55Z</time>
      </trkpt>
      <trkpt lat="43.35045" lon="5.76226">
        <ele>427.44</ele>
        <time>2019-01-06T11:58:02Z</time>
      </trkpt>
      <trkpt lat="43.35049" lon="5.76211">
        <ele>428.4</ele>
        <time>2019-01-06T11:58:14Z</time>
      </trkpt>
      <trkpt lat="43.35049" lon="5.76211">
        <ele>428.4</ele>
        <time>2019-01-06T11:58:15Z</time>
      </trkpt>
      <trkpt lat="43.35051" lon="5.76203">
        <ele>428.4</ele>
        <time>2019-01-06T11:58:20Z</time>
      </trkpt>
      <trkpt lat="43.35055" lon="5.76188">
        <ele>428.89</ele>
        <time>2019-01-06T11:58:30Z</time>
      </trkpt>
      <trkpt lat="43.35057" lon="5.7618">
        <ele>428.89</ele>
        <time>2019-01-06T11:58:37Z</time>
      </trkpt>
      <trkpt lat="43.3506" lon="5.76168">
        <ele>427.44</ele>
        <time>2019-01-06T11:58:44Z</time>
      </trkpt>
      <trkpt lat="43.35064" lon="5.76153">
        <ele>426</ele>
        <time>2019-01-06T11:58:54Z</time>
      </trkpt>
      <trkpt lat="43.35071" lon="5.7614">
        <ele>424.56</ele>
        <time>2019-01-06T11:59:04Z</time>
      </trkpt>
      <trkpt lat="43.35074" lon="5.7613">
        <ele>422.64</ele>
        <time>2019-01-06T11:59:15Z</time>
      </trkpt>
      <trkpt lat="43.3508" lon="5.76126">
        <ele>416.39</ele>
        <time>2019-01-06T11:59:32Z</time>
      </trkpt>
      <trkpt lat="43.35081" lon="5.76126">
        <ele>419.75</ele>
        <time>2019-01-06T11:59:33Z</time>
      </trkpt>
      <trkpt lat="43.35082" lon="5.76125">
        <ele>423.12</ele>
        <time>2019-01-06T11:59:37Z</time>
      </trkpt>
      <trkpt lat="43.35083" lon="5.76123">
        <ele>419.27</ele>
        <time>2019-01-06T11:59:42Z</time>
      </trkpt>
      <trkpt lat="43.35084" lon="5.76117">
        <ele>421.68</ele>
        <time>2019-01-06T11:59:45Z</time>
      </trkpt>
      <trkpt lat="43.35084" lon="5.76113">
        <ele>421.68</ele>
        <time>2019-01-06T11:59:49Z</time>
      </trkpt>
      <trkpt lat="43.35091" lon="5.76094">
        <ele>420.23</ele>
        <time>2019-01-06T12:00:07Z</time>
      </trkpt>
      <trkpt lat="43.35094" lon="5.76074">
        <ele>420.23</ele>
        <time>2019-01-06T12:00:27Z</time>
      </trkpt>
      <trkpt lat="43.351" lon="5.76052">
        <ele>419.75</ele>
        <time>2019-01-06T12:00:44Z</time>
      </trkpt>
      <trkpt lat="43.35105" lon="5.76048">
        <ele>419.75</ele>
        <time>2019-01-06T12:00:56Z</time>
      </trkpt>
      <trkpt lat="43.35118" lon="5.76044">
        <ele>419.75</ele>
        <time>2019-01-06T12:01:13Z</time>
      </trkpt>
      <trkpt lat="43.35124" lon="5.7604">
        <ele>421.19</ele>
        <time>2019-01-06T12:01:29Z</time>
      </trkpt>
      <trkpt lat="43.3513" lon="5.76046">
        <ele>421.68</ele>
        <time>2019-01-06T12:01:44Z</time>
      </trkpt>
      <trkpt lat="43.3513" lon="5.76046">
        <ele>421.68</ele>
        <time>2019-01-06T12:02:06Z</time>
      </trkpt>
      <trkpt lat="43.35123" lon="5.76045">
        <ele>422.16</ele>
        <time>2019-01-06T12:02:17Z</time>
      </trkpt>
      <trkpt lat="43.35107" lon="5.76044">
        <ele>423.12</ele>
        <time>2019-01-06T12:02:31Z</time>
      </trkpt>
      <trkpt lat="43.35102" lon="5.76045">
        <ele>423.6</ele>
        <time>2019-01-06T12:02:44Z</time>
      </trkpt>
      <trkpt lat="43.35113" lon="5.76046">
        <ele>423.6</ele>
        <time>2019-01-06T12:03:00Z</time>
      </trkpt>
      <trkpt lat="43.35125" lon="5.76043">
        <ele>422.64</ele>
        <time>2019-01-06T12:03:16Z</time>
      </trkpt>
      <trkpt lat="43.35135" lon="5.76042">
        <ele>422.16</ele>
        <time>2019-01-06T12:03:27Z</time>
      </trkpt>
      <trkpt lat="43.35149" lon="5.76037">
        <ele>421.19</ele>
        <time>2019-01-06T12:03:40Z</time>
      </trkpt>
      <trkpt lat="43.3516" lon="5.76027">
        <ele>421.19</ele>
        <time>2019-01-06T12:03:55Z</time>
      </trkpt>
      <trkpt lat="43.35165" lon="5.76018">
        <ele>420.23</ele>
        <time>2019-01-06T12:04:08Z</time>
      </trkpt>
      <trkpt lat="43.35173" lon="5.76009">
        <ele>420.23</ele>
        <time>2019-01-06T12:04:18Z</time>
      </trkpt>
      <trkpt lat="43.35179" lon="5.76004">
        <ele>420.23</ele>
        <time>2019-01-06T12:04:29Z</time>
      </trkpt>
      <trkpt lat="43.35185" lon="5.75991">
        <ele>419.75</ele>
        <time>2019-01-06T12:04:42Z</time>
      </trkpt>
      <trkpt lat="43.35191" lon="5.75987">
        <ele>419.75</ele>
        <time>2019-01-06T12:04:50Z</time>
      </trkpt>
      <trkpt lat="43.352" lon="5.75979">
        <ele>419.27</ele>
        <time>2019-01-06T12:05:05Z</time>
      </trkpt>
      <trkpt lat="43.35204" lon="5.75969">
        <ele>418.79</ele>
        <time>2019-01-06T12:05:15Z</time>
      </trkpt>
      <trkpt lat="43.35213" lon="5.7596">
        <ele>419.27</ele>
        <time>2019-01-06T12:05:25Z</time>
      </trkpt>
      <trkpt lat="43.35217" lon="5.75956">
        <ele>419.27</ele>
        <time>2019-01-06T12:05:31Z</time>
      </trkpt>
      <trkpt lat="43.3522" lon="5.75954">
        <ele>418.79</ele>
        <time>2019-01-06T12:05:35Z</time>
      </trkpt>
      <trkpt lat="43.35227" lon="5.7595">
        <ele>418.31</ele>
        <time>2019-01-06T12:05:41Z</time>
      </trkpt>
      <trkpt lat="43.35237" lon="5.75945">
        <ele>418.31</ele>
        <time>2019-01-06T12:05:53Z</time>
      </trkpt>
      <trkpt lat="43.35242" lon="5.75941">
        <ele>418.31</ele>
        <time>2019-01-06T12:06:07Z</time>
      </trkpt>
      <trkpt lat="43.35251" lon="5.75937">
        <ele>418.31</ele>
        <time>2019-01-06T12:06:20Z</time>
      </trkpt>
      <trkpt lat="43.35257" lon="5.75933">
        <ele>418.31</ele>
        <time>2019-01-06T12:06:26Z</time>
      </trkpt>
      <trkpt lat="43.3526" lon="5.75931">
        <ele>419.75</ele>
        <time>2019-01-06T12:06:29Z</time>
      </trkpt>
      <trkpt lat="43.35267" lon="5.7593">
        <ele>419.75</ele>
        <time>2019-01-06T12:06:35Z</time>
      </trkpt>
      <trkpt lat="43.35277" lon="5.75927">
        <ele>420.71</ele>
        <time>2019-01-06T12:06:46Z</time>
      </trkpt>
      <trkpt lat="43.35278" lon="5.7592">
        <ele>421.19</ele>
        <time>2019-01-06T12:06:50Z</time>
      </trkpt>
      <trkpt lat="43.35279" lon="5.75918">
        <ele>422.64</ele>
        <time>2019-01-06T12:06:58Z</time>
      </trkpt>
      <trkpt lat="43.35277" lon="5.75921">
        <ele>422.64</ele>
        <time>2019-01-06T12:07:00Z</time>
      </trkpt>
      <trkpt lat="43.35278" lon="5.75923">
        <ele>421.19</ele>
        <time>2019-01-06T12:07:02Z</time>
      </trkpt>
      <trkpt lat="43.35279" lon="5.75923">
        <ele>421.19</ele>
        <time>2019-01-06T12:07:03Z</time>
      </trkpt>
      <trkpt lat="43.35282" lon="5.75925">
        <ele>420.71</ele>
        <time>2019-01-06T12:07:06Z</time>
      </trkpt>
      <trkpt lat="43.35284" lon="5.75925">
        <ele>420.71</ele>
        <time>2019-01-06T12:07:07Z</time>
      </trkpt>
      <trkpt lat="43.35286" lon="5.75924">
        <ele>420.71</ele>
        <time>2019-01-06T12:07:08Z</time>
      </trkpt>
      <trkpt lat="43.35289" lon="5.75925">
        <ele>420.23</ele>
        <time>2019-01-06T12:07:13Z</time>
      </trkpt>
      <trkpt lat="43.35291" lon="5.75925">
        <ele>420.23</ele>
        <time>2019-01-06T12:07:14Z</time>
      </trkpt>
      <trkpt lat="43.35296" lon="5.75925">
        <ele>419.27</ele>
        <time>2019-01-06T12:07:22Z</time>
      </trkpt>
      <trkpt lat="43.3531" lon="5.75926">
        <ele>418.31</ele>
        <time>2019-01-06T12:07:38Z</time>
      </trkpt>
      <trkpt lat="43.35318" lon="5.75928">
        <ele>416.39</ele>
        <time>2019-01-06T12:07:50Z</time>
      </trkpt>
      <trkpt lat="43.35319" lon="5.75929">
        <ele>416.39</ele>
        <time>2019-01-06T12:08:03Z</time>
      </trkpt>
      <trkpt lat="43.35318" lon="5.75931">
        <ele>416.39</ele>
        <time>2019-01-06T12:08:04Z</time>
      </trkpt>
      <trkpt lat="43.35315" lon="5.75942">
        <ele>416.39</ele>
        <time>2019-01-06T12:08:17Z</time>
      </trkpt>
      <trkpt lat="43.35315" lon="5.75944">
        <ele>416.39</ele>
        <time>2019-01-06T12:08:26Z</time>
      </trkpt>
      <trkpt lat="43.35316" lon="5.75949">
        <ele>416.39</ele>
        <time>2019-01-06T12:08:38Z</time>
      </trkpt>
      <trkpt lat="43.35316" lon="5.7595">
        <ele>416.39</ele>
        <time>2019-01-06T12:08:57Z</time>
      </trkpt>
      <trkpt lat="43.35319" lon="5.75951">
        <ele>416.39</ele>
        <time>2019-01-06T12:09:04Z</time>
      </trkpt>
      <trkpt lat="43.35325" lon="5.75951">
        <ele>416.39</ele>
        <time>2019-01-06T12:09:17Z</time>
      </trkpt>
      <trkpt lat="43.35328" lon="5.7595">
        <ele>416.39</ele>
        <time>2019-01-06T12:09:26Z</time>
      </trkpt>
      <trkpt lat="43.35338" lon="5.75947">
        <ele>417.35</ele>
        <time>2019-01-06T12:09:38Z</time>
      </trkpt>
      <trkpt lat="43.35341" lon="5.75947">
        <ele>417.35</ele>
        <time>2019-01-06T12:09:41Z</time>
      </trkpt>
      <trkpt lat="43.35345" lon="5.75946">
        <ele>417.35</ele>
        <time>2019-01-06T12:09:46Z</time>
      </trkpt>
      <trkpt lat="43.35347" lon="5.75945">
        <ele>417.35</ele>
        <time>2019-01-06T12:09:47Z</time>
      </trkpt>
      <trkpt lat="43.35348" lon="5.75945">
        <ele>417.35</ele>
        <time>2019-01-06T12:09:48Z</time>
      </trkpt>
      <trkpt lat="43.3535" lon="5.75945">
        <ele>417.35</ele>
        <time>2019-01-06T12:09:51Z</time>
      </trkpt>
      <trkpt lat="43.35352" lon="5.75946">
        <ele>417.35</ele>
        <time>2019-01-06T12:09:52Z</time>
      </trkpt>
      <trkpt lat="43.35359" lon="5.75947">
        <ele>417.35</ele>
        <time>2019-01-06T12:10:01Z</time>
      </trkpt>
      <trkpt lat="43.3536" lon="5.75947">
        <ele>417.35</ele>
        <time>2019-01-06T12:10:02Z</time>
      </trkpt>
      <trkpt lat="43.35363" lon="5.75943">
        <ele>417.35</ele>
        <time>2019-01-06T12:10:07Z</time>
      </trkpt>
      <trkpt lat="43.35364" lon="5.75942">
        <ele>417.35</ele>
        <time>2019-01-06T12:10:08Z</time>
      </trkpt>
      <trkpt lat="43.35366" lon="5.7594">
        <ele>417.35</ele>
        <time>2019-01-06T12:10:09Z</time>
      </trkpt>
      <trkpt lat="43.35367" lon="5.75937">
        <ele>417.35</ele>
        <time>2019-01-06T12:10:10Z</time>
      </trkpt>
      <trkpt lat="43.35367" lon="5.75935">
        <ele>417.35</ele>
        <time>2019-01-06T12:10:11Z</time>
      </trkpt>
      <trkpt lat="43.35376" lon="5.75933">
        <ele>415.91</ele>
        <time>2019-01-06T12:10:18Z</time>
      </trkpt>
      <trkpt lat="43.35378" lon="5.75932">
        <ele>415.43</ele>
        <time>2019-01-06T12:10:19Z</time>
      </trkpt>
      <trkpt lat="43.35379" lon="5.75931">
        <ele>415.43</ele>
        <time>2019-01-06T12:10:20Z</time>
      </trkpt>
      <trkpt lat="43.3538" lon="5.7593">
        <ele>415.43</ele>
        <time>2019-01-06T12:10:21Z</time>
      </trkpt>
      <trkpt lat="43.35383" lon="5.75927">
        <ele>415.43</ele>
        <time>2019-01-06T12:10:26Z</time>
      </trkpt>
      <trkpt lat="43.35385" lon="5.75926">
        <ele>415.43</ele>
        <time>2019-01-06T12:10:27Z</time>
      </trkpt>
      <trkpt lat="43.35387" lon="5.75925">
        <ele>414.95</ele>
        <time>2019-01-06T12:10:29Z</time>
      </trkpt>
      <trkpt lat="43.35392" lon="5.75922">
        <ele>414.95</ele>
        <time>2019-01-06T12:10:34Z</time>
      </trkpt>
      <trkpt lat="43.35393" lon="5.75921">
        <ele>414.95</ele>
        <time>2019-01-06T12:10:35Z</time>
      </trkpt>
      <trkpt lat="43.35399" lon="5.75911">
        <ele>413.5</ele>
        <time>2019-01-06T12:10:42Z</time>
      </trkpt>
      <trkpt lat="43.35401" lon="5.7591">
        <ele>413.98</ele>
        <time>2019-01-06T12:10:43Z</time>
      </trkpt>
      <trkpt lat="43.35402" lon="5.75908">
        <ele>413.98</ele>
        <time>2019-01-06T12:10:44Z</time>
      </trkpt>
      <trkpt lat="43.35404" lon="5.75906">
        <ele>413.5</ele>
        <time>2019-01-06T12:10:47Z</time>
      </trkpt>
      <trkpt lat="43.35405" lon="5.75905">
        <ele>413.5</ele>
        <time>2019-01-06T12:10:48Z</time>
      </trkpt>
      <trkpt lat="43.35406" lon="5.75904">
        <ele>413.02</ele>
        <time>2019-01-06T12:10:49Z</time>
      </trkpt>
      <trkpt lat="43.35408" lon="5.75902">
        <ele>413.02</ele>
        <time>2019-01-06T12:10:53Z</time>
      </trkpt>
      <trkpt lat="43.35409" lon="5.759">
        <ele>413.02</ele>
        <time>2019-01-06T12:10:54Z</time>
      </trkpt>
      <trkpt lat="43.3541" lon="5.75899">
        <ele>413.02</ele>
        <time>2019-01-06T12:10:55Z</time>
      </trkpt>
      <trkpt lat="43.3541" lon="5.75898">
        <ele>413.02</ele>
        <time>2019-01-06T12:10:56Z</time>
      </trkpt>
      <trkpt lat="43.35411" lon="5.75895">
        <ele>412.06</ele>
        <time>2019-01-06T12:11:00Z</time>
      </trkpt>
      <trkpt lat="43.35412" lon="5.75893">
        <ele>412.06</ele>
        <time>2019-01-06T12:11:01Z</time>
      </trkpt>
      <trkpt lat="43.35412" lon="5.75891">
        <ele>412.06</ele>
        <time>2019-01-06T12:11:02Z</time>
      </trkpt>
      <trkpt lat="43.35414" lon="5.75887">
        <ele>413.98</ele>
        <time>2019-01-06T12:11:15Z</time>
      </trkpt>
      <trkpt lat="43.35418" lon="5.7588">
        <ele>412.54</ele>
        <time>2019-01-06T12:11:20Z</time>
      </trkpt>
      <trkpt lat="43.35429" lon="5.75863">
        <ele>412.54</ele>
        <time>2019-01-06T12:11:36Z</time>
      </trkpt>
      <trkpt lat="43.35434" lon="5.75856">
        <ele>412.54</ele>
        <time>2019-01-06T12:11:41Z</time>
      </trkpt>
      <trkpt lat="43.35438" lon="5.75853">
        <ele>412.06</ele>
        <time>2019-01-06T12:11:46Z</time>
      </trkpt>
      <trkpt lat="43.35441" lon="5.75851">
        <ele>411.58</ele>
        <time>2019-01-06T12:11:48Z</time>
      </trkpt>
      <trkpt lat="43.35441" lon="5.7585">
        <ele>411.58</ele>
        <time>2019-01-06T12:11:49Z</time>
      </trkpt>
      <trkpt lat="43.3545" lon="5.75838">
        <ele>411.1</ele>
        <time>2019-01-06T12:12:01Z</time>
      </trkpt>
      <trkpt lat="43.35459" lon="5.75826">
        <ele>411.1</ele>
        <time>2019-01-06T12:12:16Z</time>
      </trkpt>
      <trkpt lat="43.35463" lon="5.75824">
        <ele>411.1</ele>
        <time>2019-01-06T12:12:28Z</time>
      </trkpt>
      <trkpt lat="43.35469" lon="5.75818">
        <ele>412.54</ele>
        <time>2019-01-06T12:12:44Z</time>
      </trkpt>
      <trkpt lat="43.3548" lon="5.75811">
        <ele>412.06</ele>
        <time>2019-01-06T12:12:56Z</time>
      </trkpt>
      <trkpt lat="43.35483" lon="5.75809">
        <ele>412.06</ele>
        <time>2019-01-06T12:13:00Z</time>
      </trkpt>
      <trkpt lat="43.35485" lon="5.75808">
        <ele>412.06</ele>
        <time>2019-01-06T12:13:01Z</time>
      </trkpt>
      <trkpt lat="43.3549" lon="5.75804">
        <ele>412.54</ele>
        <time>2019-01-06T12:13:06Z</time>
      </trkpt>
      <trkpt lat="43.35498" lon="5.75796">
        <ele>412.06</ele>
        <time>2019-01-06T12:13:16Z</time>
      </trkpt>
      <trkpt lat="43.35512" lon="5.75788">
        <ele>412.06</ele>
        <time>2019-01-06T12:13:30Z</time>
      </trkpt>
      <trkpt lat="43.35521" lon="5.75784">
        <ele>412.06</ele>
        <time>2019-01-06T12:13:40Z</time>
      </trkpt>
      <trkpt lat="43.3553" lon="5.75777">
        <ele>412.06</ele>
        <time>2019-01-06T12:13:50Z</time>
      </trkpt>
      <trkpt lat="43.35539" lon="5.75771">
        <ele>412.06</ele>
        <time>2019-01-06T12:14:01Z</time>
      </trkpt>
      <trkpt lat="43.35541" lon="5.7577">
        <ele>412.06</ele>
        <time>2019-01-06T12:14:02Z</time>
      </trkpt>
      <trkpt lat="43.35542" lon="5.75768">
        <ele>412.06</ele>
        <time>2019-01-06T12:14:03Z</time>
      </trkpt>
      <trkpt lat="43.35548" lon="5.75763">
        <ele>412.06</ele>
        <time>2019-01-06T12:14:08Z</time>
      </trkpt>
      <trkpt lat="43.35549" lon="5.75763">
        <ele>412.06</ele>
        <time>2019-01-06T12:14:09Z</time>
      </trkpt>
      <trkpt lat="43.35551" lon="5.75762">
        <ele>412.06</ele>
        <time>2019-01-06T12:14:13Z</time>
      </trkpt>
      <trkpt lat="43.35552" lon="5.75761">
        <ele>412.06</ele>
        <time>2019-01-06T12:14:14Z</time>
      </trkpt>
      <trkpt lat="43.35554" lon="5.75756">
        <ele>412.06</ele>
        <time>2019-01-06T12:14:18Z</time>
      </trkpt>
      <trkpt lat="43.35555" lon="5.75754">
        <ele>412.06</ele>
        <time>2019-01-06T12:14:19Z</time>
      </trkpt>
      <trkpt lat="43.3556" lon="5.75748">
        <ele>411.1</ele>
        <time>2019-01-06T12:14:28Z</time>
      </trkpt>
      <trkpt lat="43.35562" lon="5.75747">
        <ele>411.1</ele>
        <time>2019-01-06T12:14:30Z</time>
      </trkpt>
      <trkpt lat="43.35563" lon="5.75746">
        <ele>411.1</ele>
        <time>2019-01-06T12:14:31Z</time>
      </trkpt>
      <trkpt lat="43.35566" lon="5.75744">
        <ele>410.62</ele>
        <time>2019-01-06T12:14:36Z</time>
      </trkpt>
      <trkpt lat="43.35575" lon="5.75742">
        <ele>410.62</ele>
        <time>2019-01-06T12:14:46Z</time>
      </trkpt>
      <trkpt lat="43.35579" lon="5.75741">
        <ele>410.62</ele>
        <time>2019-01-06T12:14:49Z</time>
      </trkpt>
      <trkpt lat="43.3558" lon="5.7574">
        <ele>410.62</ele>
        <time>2019-01-06T12:14:50Z</time>
      </trkpt>
      <trkpt lat="43.35586" lon="5.75738">
        <ele>410.62</ele>
        <time>2019-01-06T12:14:55Z</time>
      </trkpt>
      <trkpt lat="43.35587" lon="5.75738">
        <ele>410.62</ele>
        <time>2019-01-06T12:14:56Z</time>
      </trkpt>
      <trkpt lat="43.35596" lon="5.75729">
        <ele>410.62</ele>
        <time>2019-01-06T12:15:07Z</time>
      </trkpt>
      <trkpt lat="43.35604" lon="5.75717">
        <ele>409.66</ele>
        <time>2019-01-06T12:15:21Z</time>
      </trkpt>
      <trkpt lat="43.35618" lon="5.75704">
        <ele>408.7</ele>
        <time>2019-01-06T12:15:36Z</time>
      </trkpt>
      <trkpt lat="43.35625" lon="5.75696">
        <ele>408.22</ele>
        <time>2019-01-06T12:15:46Z</time>
      </trkpt>
      <trkpt lat="43.3563" lon="5.75688">
        <ele>408.22</ele>
        <time>2019-01-06T12:15:56Z</time>
      </trkpt>
      <trkpt lat="43.35632" lon="5.75685">
        <ele>408.22</ele>
        <time>2019-01-06T12:15:58Z</time>
      </trkpt>
      <trkpt lat="43.35636" lon="5.75682">
        <ele>407.74</ele>
        <time>2019-01-06T12:16:04Z</time>
      </trkpt>
      <trkpt lat="43.35638" lon="5.75681">
        <ele>406.77</ele>
        <time>2019-01-06T12:16:05Z</time>
      </trkpt>
      <trkpt lat="43.3564" lon="5.75679">
        <ele>406.77</ele>
        <time>2019-01-06T12:16:06Z</time>
      </trkpt>
      <trkpt lat="43.3564" lon="5.75676">
        <ele>406.77</ele>
        <time>2019-01-06T12:16:13Z</time>
      </trkpt>
      <trkpt lat="43.35641" lon="5.75674">
        <ele>406.77</ele>
        <time>2019-01-06T12:16:14Z</time>
      </trkpt>
      <trkpt lat="43.35643" lon="5.75672">
        <ele>406.77</ele>
        <time>2019-01-06T12:16:15Z</time>
      </trkpt>
      <trkpt lat="43.35644" lon="5.75671">
        <ele>406.77</ele>
        <time>2019-01-06T12:16:16Z</time>
      </trkpt>
      <trkpt lat="43.35644" lon="5.7567">
        <ele>406.77</ele>
        <time>2019-01-06T12:16:17Z</time>
      </trkpt>
      <trkpt lat="43.35647" lon="5.75668">
        <ele>406.77</ele>
        <time>2019-01-06T12:16:21Z</time>
      </trkpt>
      <trkpt lat="43.35648" lon="5.75667">
        <ele>406.77</ele>
        <time>2019-01-06T12:16:22Z</time>
      </trkpt>
      <trkpt lat="43.3565" lon="5.75666">
        <ele>406.77</ele>
        <time>2019-01-06T12:16:23Z</time>
      </trkpt>
      <trkpt lat="43.35652" lon="5.75665">
        <ele>406.77</ele>
        <time>2019-01-06T12:16:24Z</time>
      </trkpt>
      <trkpt lat="43.35655" lon="5.75661">
        <ele>406.77</ele>
        <time>2019-01-06T12:16:29Z</time>
      </trkpt>
      <trkpt lat="43.35656" lon="5.75661">
        <ele>406.77</ele>
        <time>2019-01-06T12:16:30Z</time>
      </trkpt>
      <trkpt lat="43.35658" lon="5.7566">
        <ele>406.77</ele>
        <time>2019-01-06T12:16:31Z</time>
      </trkpt>
      <trkpt lat="43.35659" lon="5.75659">
        <ele>406.77</ele>
        <time>2019-01-06T12:16:32Z</time>
      </trkpt>
      <trkpt lat="43.35668" lon="5.75656">
        <ele>406.77</ele>
        <time>2019-01-06T12:16:42Z</time>
      </trkpt>
      <trkpt lat="43.35669" lon="5.75655">
        <ele>406.77</ele>
        <time>2019-01-06T12:16:43Z</time>
      </trkpt>
      <trkpt lat="43.35671" lon="5.75654">
        <ele>406.77</ele>
        <time>2019-01-06T12:16:44Z</time>
      </trkpt>
      <trkpt lat="43.35677" lon="5.75649">
        <ele>406.29</ele>
        <time>2019-01-06T12:16:50Z</time>
      </trkpt>
      <trkpt lat="43.3568" lon="5.75646">
        <ele>406.29</ele>
        <time>2019-01-06T12:16:55Z</time>
      </trkpt>
      <trkpt lat="43.35682" lon="5.75645">
        <ele>406.29</ele>
        <time>2019-01-06T12:16:56Z</time>
      </trkpt>
      <trkpt lat="43.35684" lon="5.75644">
        <ele>405.81</ele>
        <time>2019-01-06T12:16:57Z</time>
      </trkpt>
      <trkpt lat="43.35687" lon="5.75642">
        <ele>406.29</ele>
        <time>2019-01-06T12:17:01Z</time>
      </trkpt>
      <trkpt lat="43.35693" lon="5.75641">
        <ele>405.81</ele>
        <time>2019-01-06T12:17:08Z</time>
      </trkpt>
      <trkpt lat="43.35695" lon="5.7564">
        <ele>405.81</ele>
        <time>2019-01-06T12:17:09Z</time>
      </trkpt>
      <trkpt lat="43.35699" lon="5.75639">
        <ele>405.81</ele>
        <time>2019-01-06T12:17:17Z</time>
      </trkpt>
      <trkpt lat="43.35704" lon="5.75636">
        <ele>405.81</ele>
        <time>2019-01-06T12:17:27Z</time>
      </trkpt>
      <trkpt lat="43.35706" lon="5.75633">
        <ele>405.33</ele>
        <time>2019-01-06T12:17:31Z</time>
      </trkpt>
      <trkpt lat="43.35707" lon="5.75634">
        <ele>405.33</ele>
        <time>2019-01-06T12:17:44Z</time>
      </trkpt>
      <trkpt lat="43.35709" lon="5.75635">
        <ele>405.33</ele>
        <time>2019-01-06T12:18:04Z</time>
      </trkpt>
      <trkpt lat="43.35717" lon="5.75631">
        <ele>406.77</ele>
        <time>2019-01-06T12:18:21Z</time>
      </trkpt>
      <trkpt lat="43.35725" lon="5.75626">
        <ele>406.77</ele>
        <time>2019-01-06T12:18:32Z</time>
      </trkpt>
      <trkpt lat="43.35731" lon="5.75616">
        <ele>406.77</ele>
        <time>2019-01-06T12:18:42Z</time>
      </trkpt>
      <trkpt lat="43.35733" lon="5.75613">
        <ele>406.77</ele>
        <time>2019-01-06T12:18:49Z</time>
      </trkpt>
      <trkpt lat="43.35739" lon="5.75598">
        <ele>406.77</ele>
        <time>2019-01-06T12:18:59Z</time>
      </trkpt>
      <trkpt lat="43.35744" lon="5.75588">
        <ele>407.26</ele>
        <time>2019-01-06T12:19:09Z</time>
      </trkpt>
      <trkpt lat="43.35745" lon="5.75587">
        <ele>407.26</ele>
        <time>2019-01-06T12:19:10Z</time>
      </trkpt>
      <trkpt lat="43.35746" lon="5.75585">
        <ele>407.26</ele>
        <time>2019-01-06T12:19:11Z</time>
      </trkpt>
      <trkpt lat="43.35747" lon="5.75584">
        <ele>407.26</ele>
        <time>2019-01-06T12:19:12Z</time>
      </trkpt>
      <trkpt lat="43.35748" lon="5.75582">
        <ele>407.26</ele>
        <time>2019-01-06T12:19:13Z</time>
      </trkpt>
      <trkpt lat="43.35757" lon="5.75564">
        <ele>407.26</ele>
        <time>2019-01-06T12:19:29Z</time>
      </trkpt>
      <trkpt lat="43.35763" lon="5.75551">
        <ele>407.26</ele>
        <time>2019-01-06T12:19:40Z</time>
      </trkpt>
      <trkpt lat="43.35764" lon="5.75551">
        <ele>407.26</ele>
        <time>2019-01-06T12:19:41Z</time>
      </trkpt>
      <trkpt lat="43.35767" lon="5.75547">
        <ele>407.26</ele>
        <time>2019-01-06T12:19:45Z</time>
      </trkpt>
      <trkpt lat="43.35768" lon="5.75546">
        <ele>407.26</ele>
        <time>2019-01-06T12:19:46Z</time>
      </trkpt>
      <trkpt lat="43.35773" lon="5.75539">
        <ele>407.26</ele>
        <time>2019-01-06T12:19:58Z</time>
      </trkpt>
      <trkpt lat="43.35778" lon="5.75523">
        <ele>405.33</ele>
        <time>2019-01-06T12:20:11Z</time>
      </trkpt>
      <trkpt lat="43.35779" lon="5.75521">
        <ele>406.77</ele>
        <time>2019-01-06T12:20:13Z</time>
      </trkpt>
      <trkpt lat="43.35792" lon="5.755">
        <ele>405.81</ele>
        <time>2019-01-06T12:20:35Z</time>
      </trkpt>
      <trkpt lat="43.35796" lon="5.75494">
        <ele>406.29</ele>
        <time>2019-01-06T12:20:41Z</time>
      </trkpt>
      <trkpt lat="43.35802" lon="5.75484">
        <ele>405.33</ele>
        <time>2019-01-06T12:20:49Z</time>
      </trkpt>
      <trkpt lat="43.35807" lon="5.75469">
        <ele>405.33</ele>
        <time>2019-01-06T12:21:09Z</time>
      </trkpt>
      <trkpt lat="43.35815" lon="5.75456">
        <ele>406.29</ele>
        <time>2019-01-06T12:21:22Z</time>
      </trkpt>
      <trkpt lat="43.35817" lon="5.7545">
        <ele>404.85</ele>
        <time>2019-01-06T12:21:26Z</time>
      </trkpt>
      <trkpt lat="43.35821" lon="5.75444">
        <ele>404.37</ele>
        <time>2019-01-06T12:21:43Z</time>
      </trkpt>
      <trkpt lat="43.35822" lon="5.7544">
        <ele>405.81</ele>
        <time>2019-01-06T12:21:52Z</time>
      </trkpt>
      <trkpt lat="43.35821" lon="5.75437">
        <ele>404.37</ele>
        <time>2019-01-06T12:21:55Z</time>
      </trkpt>
      <trkpt lat="43.35828" lon="5.7543">
        <ele>405.81</ele>
        <time>2019-01-06T12:22:15Z</time>
      </trkpt>
      <trkpt lat="43.35831" lon="5.75426">
        <ele>405.33</ele>
        <time>2019-01-06T12:22:20Z</time>
      </trkpt>
      <trkpt lat="43.35834" lon="5.75423">
        <ele>405.33</ele>
        <time>2019-01-06T12:22:25Z</time>
      </trkpt>
      <trkpt lat="43.35835" lon="5.75422">
        <ele>405.81</ele>
        <time>2019-01-06T12:22:26Z</time>
      </trkpt>
      <trkpt lat="43.35837" lon="5.7542">
        <ele>405.81</ele>
        <time>2019-01-06T12:22:27Z</time>
      </trkpt>
      <trkpt lat="43.3584" lon="5.75416">
        <ele>405.33</ele>
        <time>2019-01-06T12:22:32Z</time>
      </trkpt>
      <trkpt lat="43.35847" lon="5.75405">
        <ele>405.33</ele>
        <time>2019-01-06T12:22:41Z</time>
      </trkpt>
      <trkpt lat="43.35847" lon="5.75401">
        <ele>404.37</ele>
        <time>2019-01-06T12:22:46Z</time>
      </trkpt>
      <trkpt lat="43.35849" lon="5.75399">
        <ele>404.37</ele>
        <time>2019-01-06T12:22:47Z</time>
      </trkpt>
      <trkpt lat="43.3585" lon="5.75396">
        <ele>404.37</ele>
        <time>2019-01-06T12:22:48Z</time>
      </trkpt>
      <trkpt lat="43.35851" lon="5.75394">
        <ele>404.37</ele>
        <time>2019-01-06T12:22:49Z</time>
      </trkpt>
      <trkpt lat="43.35858" lon="5.75383">
        <ele>404.37</ele>
        <time>2019-01-06T12:22:57Z</time>
      </trkpt>
      <trkpt lat="43.35859" lon="5.75383">
        <ele>404.37</ele>
        <time>2019-01-06T12:22:58Z</time>
      </trkpt>
      <trkpt lat="43.35861" lon="5.75382">
        <ele>404.37</ele>
        <time>2019-01-06T12:22:59Z</time>
      </trkpt>
      <trkpt lat="43.35863" lon="5.75381">
        <ele>404.37</ele>
        <time>2019-01-06T12:23:00Z</time>
      </trkpt>
      <trkpt lat="43.35864" lon="5.7538">
        <ele>404.37</ele>
        <time>2019-01-06T12:23:01Z</time>
      </trkpt>
      <trkpt lat="43.35866" lon="5.75377">
        <ele>404.37</ele>
        <time>2019-01-06T12:23:04Z</time>
      </trkpt>
      <trkpt lat="43.35868" lon="5.75375">
        <ele>403.89</ele>
        <time>2019-01-06T12:23:05Z</time>
      </trkpt>
      <trkpt lat="43.35871" lon="5.75374">
        <ele>403.89</ele>
        <time>2019-01-06T12:23:09Z</time>
      </trkpt>
      <trkpt lat="43.35872" lon="5.75375">
        <ele>403.89</ele>
        <time>2019-01-06T12:23:10Z</time>
      </trkpt>
      <trkpt lat="43.35874" lon="5.75375">
        <ele>403.89</ele>
        <time>2019-01-06T12:23:11Z</time>
      </trkpt>
      <trkpt lat="43.35877" lon="5.75375">
        <ele>404.37</ele>
        <time>2019-01-06T12:23:13Z</time>
      </trkpt>
      <trkpt lat="43.35877" lon="5.75371">
        <ele>403.89</ele>
        <time>2019-01-06T12:23:17Z</time>
      </trkpt>
      <trkpt lat="43.35878" lon="5.75367">
        <ele>405.33</ele>
        <time>2019-01-06T12:23:20Z</time>
      </trkpt>
      <trkpt lat="43.35879" lon="5.75366">
        <ele>405.33</ele>
        <time>2019-01-06T12:23:21Z</time>
      </trkpt>
      <trkpt lat="43.35887" lon="5.75353">
        <ele>405.81</ele>
        <time>2019-01-06T12:23:38Z</time>
      </trkpt>
      <trkpt lat="43.35888" lon="5.7535">
        <ele>405.81</ele>
        <time>2019-01-06T12:23:40Z</time>
      </trkpt>
      <trkpt lat="43.35895" lon="5.75341">
        <ele>405.81</ele>
        <time>2019-01-06T12:23:49Z</time>
      </trkpt>
      <trkpt lat="43.359" lon="5.75336">
        <ele>405.81</ele>
        <time>2019-01-06T12:23:54Z</time>
      </trkpt>
      <trkpt lat="43.35902" lon="5.75336">
        <ele>405.81</ele>
        <time>2019-01-06T12:23:55Z</time>
      </trkpt>
      <trkpt lat="43.35905" lon="5.75334">
        <ele>405.81</ele>
        <time>2019-01-06T12:23:58Z</time>
      </trkpt>
      <trkpt lat="43.35912" lon="5.75325">
        <ele>406.29</ele>
        <time>2019-01-06T12:24:06Z</time>
      </trkpt>
      <trkpt lat="43.35915" lon="5.75322">
        <ele>406.77</ele>
        <time>2019-01-06T12:24:10Z</time>
      </trkpt>
      <trkpt lat="43.35913" lon="5.75317">
        <ele>406.77</ele>
        <time>2019-01-06T12:24:16Z</time>
      </trkpt>
      <trkpt lat="43.35912" lon="5.75314">
        <ele>406.77</ele>
        <time>2019-01-06T12:24:17Z</time>
      </trkpt>
      <trkpt lat="43.35912" lon="5.75312">
        <ele>406.77</ele>
        <time>2019-01-06T12:24:18Z</time>
      </trkpt>
      <trkpt lat="43.35915" lon="5.75309">
        <ele>406.77</ele>
        <time>2019-01-06T12:24:21Z</time>
      </trkpt>
      <trkpt lat="43.35922" lon="5.75299">
        <ele>406.77</ele>
        <time>2019-01-06T12:24:39Z</time>
      </trkpt>
      <trkpt lat="43.35927" lon="5.75291">
        <ele>406.29</ele>
        <time>2019-01-06T12:25:02Z</time>
      </trkpt>
      <trkpt lat="43.35929" lon="5.75288">
        <ele>406.29</ele>
        <time>2019-01-06T12:25:18Z</time>
      </trkpt>
      <trkpt lat="43.35935" lon="5.75295">
        <ele>406.29</ele>
        <time>2019-01-06T12:25:31Z</time>
      </trkpt>
      <trkpt lat="43.35934" lon="5.75307">
        <ele>407.26</ele>
        <time>2019-01-06T12:25:42Z</time>
      </trkpt>
      <trkpt lat="43.35932" lon="5.75317">
        <ele>408.22</ele>
        <time>2019-01-06T12:25:47Z</time>
      </trkpt>
      <trkpt lat="43.35934" lon="5.75332">
        <ele>408.7</ele>
        <time>2019-01-06T12:26:03Z</time>
      </trkpt>
      <trkpt lat="43.35938" lon="5.75348">
        <ele>410.14</ele>
        <time>2019-01-06T12:26:14Z</time>
      </trkpt>
      <trkpt lat="43.35942" lon="5.75361">
        <ele>411.1</ele>
        <time>2019-01-06T12:26:23Z</time>
      </trkpt>
      <trkpt lat="43.3595" lon="5.75374">
        <ele>413.98</ele>
        <time>2019-01-06T12:26:37Z</time>
      </trkpt>
      <trkpt lat="43.35954" lon="5.7539">
        <ele>415.91</ele>
        <time>2019-01-06T12:26:51Z</time>
      </trkpt>
      <trkpt lat="43.35956" lon="5.75403">
        <ele>416.87</ele>
        <time>2019-01-06T12:27:06Z</time>
      </trkpt>
      <trkpt lat="43.35956" lon="5.75405">
        <ele>416.87</ele>
        <time>2019-01-06T12:27:07Z</time>
      </trkpt>
      <trkpt lat="43.35956" lon="5.75407">
        <ele>416.87</ele>
        <time>2019-01-06T12:27:08Z</time>
      </trkpt>
      <trkpt lat="43.35959" lon="5.75423">
        <ele>418.31</ele>
        <time>2019-01-06T12:27:23Z</time>
      </trkpt>
      <trkpt lat="43.35958" lon="5.75425">
        <ele>418.31</ele>
        <time>2019-01-06T12:27:25Z</time>
      </trkpt>
      <trkpt lat="43.35958" lon="5.75427">
        <ele>418.31</ele>
        <time>2019-01-06T12:27:26Z</time>
      </trkpt>
      <trkpt lat="43.35957" lon="5.75429">
        <ele>418.31</ele>
        <time>2019-01-06T12:27:27Z</time>
      </trkpt>
      <trkpt lat="43.35955" lon="5.75433">
        <ele>418.31</ele>
        <time>2019-01-06T12:27:35Z</time>
      </trkpt>
      <trkpt lat="43.35954" lon="5.75433">
        <ele>418.31</ele>
        <time>2019-01-06T12:27:42Z</time>
      </trkpt>
      <trkpt lat="43.35952" lon="5.75435">
        <ele>418.31</ele>
        <time>2019-01-06T12:27:43Z</time>
      </trkpt>
      <trkpt lat="43.35951" lon="5.75437">
        <ele>418.31</ele>
        <time>2019-01-06T12:27:44Z</time>
      </trkpt>
      <trkpt lat="43.3595" lon="5.75439">
        <ele>418.31</ele>
        <time>2019-01-06T12:27:45Z</time>
      </trkpt>
      <trkpt lat="43.3595" lon="5.75439">
        <ele>418.31</ele>
        <time>2019-01-06T12:27:46Z</time>
      </trkpt>
      <trkpt lat="43.35947" lon="5.75447">
        <ele>418.31</ele>
        <time>2019-01-06T12:27:53Z</time>
      </trkpt>
      <trkpt lat="43.35946" lon="5.75451">
        <ele>418.79</ele>
        <time>2019-01-06T12:28:07Z</time>
      </trkpt>
      <trkpt lat="43.35945" lon="5.75453">
        <ele>418.79</ele>
        <time>2019-01-06T12:28:11Z</time>
      </trkpt>
      <trkpt lat="43.35943" lon="5.75459">
        <ele>419.27</ele>
        <time>2019-01-06T12:28:22Z</time>
      </trkpt>
      <trkpt lat="43.35943" lon="5.7546">
        <ele>419.27</ele>
        <time>2019-01-06T12:28:27Z</time>
      </trkpt>
      <trkpt lat="43.35941" lon="5.75464">
        <ele>419.27</ele>
        <time>2019-01-06T12:28:32Z</time>
      </trkpt>
      <trkpt lat="43.3594" lon="5.75465">
        <ele>419.27</ele>
        <time>2019-01-06T12:28:33Z</time>
      </trkpt>
      <trkpt lat="43.35937" lon="5.75469">
        <ele>420.23</ele>
        <time>2019-01-06T12:28:43Z</time>
      </trkpt>
      <trkpt lat="43.35935" lon="5.75473">
        <ele>420.23</ele>
        <time>2019-01-06T12:28:47Z</time>
      </trkpt>
      <trkpt lat="43.35928" lon="5.75487">
        <ele>422.16</ele>
        <time>2019-01-06T12:28:58Z</time>
      </trkpt>
      <trkpt lat="43.35928" lon="5.75489">
        <ele>422.16</ele>
        <time>2019-01-06T12:29:00Z</time>
      </trkpt>
      <trkpt lat="43.35927" lon="5.75491">
        <ele>422.16</ele>
        <time>2019-01-06T12:29:02Z</time>
      </trkpt>
      <trkpt lat="43.35926" lon="5.75494">
        <ele>422.64</ele>
        <time>2019-01-06T12:29:03Z</time>
      </trkpt>
      <trkpt lat="43.35924" lon="5.75496">
        <ele>422.64</ele>
        <time>2019-01-06T12:29:06Z</time>
      </trkpt>
      <trkpt lat="43.35925" lon="5.75498">
        <ele>422.64</ele>
        <time>2019-01-06T12:29:07Z</time>
      </trkpt>
      <trkpt lat="43.35924" lon="5.75501">
        <ele>423.12</ele>
        <time>2019-01-06T12:29:10Z</time>
      </trkpt>
      <trkpt lat="43.35923" lon="5.75503">
        <ele>423.12</ele>
        <time>2019-01-06T12:29:11Z</time>
      </trkpt>
      <trkpt lat="43.35922" lon="5.75509">
        <ele>423.6</ele>
        <time>2019-01-06T12:29:17Z</time>
      </trkpt>
      <trkpt lat="43.35922" lon="5.75511">
        <ele>424.08</ele>
        <time>2019-01-06T12:29:18Z</time>
      </trkpt>
      <trkpt lat="43.35924" lon="5.75521">
        <ele>425.04</ele>
        <time>2019-01-06T12:29:29Z</time>
      </trkpt>
      <trkpt lat="43.35921" lon="5.75522">
        <ele>424.56</ele>
        <time>2019-01-06T12:29:46Z</time>
      </trkpt>
      <trkpt lat="43.35921" lon="5.75522">
        <ele>424.56</ele>
        <time>2019-01-06T12:29:47Z</time>
      </trkpt>
      <trkpt lat="43.35921" lon="5.75523">
        <ele>426.48</ele>
        <time>2019-01-06T12:29:49Z</time>
      </trkpt>
      <trkpt lat="43.35922" lon="5.7553">
        <ele>424.56</ele>
        <time>2019-01-06T12:29:57Z</time>
      </trkpt>
      <trkpt lat="43.35923" lon="5.75531">
        <ele>428.89</ele>
        <time>2019-01-06T12:29:58Z</time>
      </trkpt>
      <trkpt lat="43.35922" lon="5.75538">
        <ele>425.52</ele>
        <time>2019-01-06T12:30:08Z</time>
      </trkpt>
      <trkpt lat="43.35922" lon="5.7554">
        <ele>425.52</ele>
        <time>2019-01-06T12:30:14Z</time>
      </trkpt>
      <trkpt lat="43.35922" lon="5.7554">
        <ele>424.08</ele>
        <time>2019-01-06T12:30:16Z</time>
      </trkpt>
      <trkpt lat="43.35922" lon="5.75541">
        <ele>428.89</ele>
        <time>2019-01-06T12:30:18Z</time>
      </trkpt>
      <trkpt lat="43.35921" lon="5.75541">
        <ele>426.96</ele>
        <time>2019-01-06T12:30:19Z</time>
      </trkpt>
      <trkpt lat="43.35922" lon="5.75539">
        <ele>426.48</ele>
        <time>2019-01-06T12:30:41Z</time>
      </trkpt>
      <trkpt lat="43.35925" lon="5.75535">
        <ele>426</ele>
        <time>2019-01-06T12:30:43Z</time>
      </trkpt>
      <trkpt lat="43.35929" lon="5.75526">
        <ele>425.52</ele>
        <time>2019-01-06T12:31:10Z</time>
      </trkpt>
      <trkpt lat="43.3592" lon="5.75522">
        <ele>426</ele>
        <time>2019-01-06T12:31:26Z</time>
      </trkpt>
      <trkpt lat="43.35921" lon="5.75522">
        <ele>425.52</ele>
        <time>2019-01-06T12:31:41Z</time>
      </trkpt>
      <trkpt lat="43.35922" lon="5.75524">
        <ele>426.48</ele>
        <time>2019-01-06T12:32:00Z</time>
      </trkpt>
      <trkpt lat="43.3592" lon="5.75522">
        <ele>425.04</ele>
        <time>2019-01-06T12:32:13Z</time>
      </trkpt>
      <trkpt lat="43.3592" lon="5.75523">
        <ele>426.48</ele>
        <time>2019-01-06T12:32:15Z</time>
      </trkpt>
      <trkpt lat="43.35923" lon="5.75532">
        <ele>427.92</ele>
        <time>2019-01-06T12:32:25Z</time>
      </trkpt>
      <trkpt lat="43.35926" lon="5.75545">
        <ele>426.96</ele>
        <time>2019-01-06T12:32:41Z</time>
      </trkpt>
      <trkpt lat="43.35926" lon="5.75546">
        <ele>426.96</ele>
        <time>2019-01-06T12:32:42Z</time>
      </trkpt>
      <trkpt lat="43.35926" lon="5.75547">
        <ele>429.37</ele>
        <time>2019-01-06T12:32:43Z</time>
      </trkpt>
      <trkpt lat="43.35927" lon="5.75549">
        <ele>429.37</ele>
        <time>2019-01-06T12:32:44Z</time>
      </trkpt>
      <trkpt lat="43.35929" lon="5.75554">
        <ele>428.89</ele>
        <time>2019-01-06T12:32:59Z</time>
      </trkpt>
      <trkpt lat="43.35929" lon="5.75556">
        <ele>431.77</ele>
        <time>2019-01-06T12:33:02Z</time>
      </trkpt>
      <trkpt lat="43.3593" lon="5.75569">
        <ele>433.69</ele>
        <time>2019-01-06T12:33:11Z</time>
      </trkpt>
      <trkpt lat="43.35937" lon="5.7558">
        <ele>432.73</ele>
        <time>2019-01-06T12:33:23Z</time>
      </trkpt>
      <trkpt lat="43.35942" lon="5.75589">
        <ele>433.21</ele>
        <time>2019-01-06T12:33:31Z</time>
      </trkpt>
      <trkpt lat="43.35944" lon="5.75596">
        <ele>434.17</ele>
        <time>2019-01-06T12:33:40Z</time>
      </trkpt>
      <trkpt lat="43.35946" lon="5.756">
        <ele>435.61</ele>
        <time>2019-01-06T12:33:44Z</time>
      </trkpt>
      <trkpt lat="43.35947" lon="5.75604">
        <ele>436.1</ele>
        <time>2019-01-06T12:33:51Z</time>
      </trkpt>
      <trkpt lat="43.35948" lon="5.75609">
        <ele>437.06</ele>
        <time>2019-01-06T12:34:00Z</time>
      </trkpt>
      <trkpt lat="43.35948" lon="5.75612">
        <ele>436.1</ele>
        <time>2019-01-06T12:34:09Z</time>
      </trkpt>
      <trkpt lat="43.35949" lon="5.75619">
        <ele>437.54</ele>
        <time>2019-01-06T12:34:25Z</time>
      </trkpt>
      <trkpt lat="43.35959" lon="5.75628">
        <ele>438.5</ele>
        <time>2019-01-06T12:34:45Z</time>
      </trkpt>
      <trkpt lat="43.35968" lon="5.7563">
        <ele>438.98</ele>
        <time>2019-01-06T12:35:05Z</time>
      </trkpt>
      <trkpt lat="43.3596" lon="5.75635">
        <ele>439.94</ele>
        <time>2019-01-06T12:35:23Z</time>
      </trkpt>
      <trkpt lat="43.35959" lon="5.75645">
        <ele>442.34</ele>
        <time>2019-01-06T12:35:42Z</time>
      </trkpt>
      <trkpt lat="43.3596" lon="5.75652">
        <ele>442.82</ele>
        <time>2019-01-06T12:35:59Z</time>
      </trkpt>
      <trkpt lat="43.35962" lon="5.75655">
        <ele>444.27</ele>
        <time>2019-01-06T12:36:11Z</time>
      </trkpt>
      <trkpt lat="43.35964" lon="5.75662">
        <ele>442.82</ele>
        <time>2019-01-06T12:36:16Z</time>
      </trkpt>
      <trkpt lat="43.35965" lon="5.75664">
        <ele>444.75</ele>
        <time>2019-01-06T12:36:18Z</time>
      </trkpt>
      <trkpt lat="43.35971" lon="5.75682">
        <ele>446.67</ele>
        <time>2019-01-06T12:36:34Z</time>
      </trkpt>
      <trkpt lat="43.35974" lon="5.75693">
        <ele>447.15</ele>
        <time>2019-01-06T12:36:47Z</time>
      </trkpt>
      <trkpt lat="43.35975" lon="5.75706">
        <ele>448.59</ele>
        <time>2019-01-06T12:36:58Z</time>
      </trkpt>
      <trkpt lat="43.35974" lon="5.75716">
        <ele>451</ele>
        <time>2019-01-06T12:37:06Z</time>
      </trkpt>
      <trkpt lat="43.35974" lon="5.75718">
        <ele>451</ele>
        <time>2019-01-06T12:37:07Z</time>
      </trkpt>
      <trkpt lat="43.35975" lon="5.75723">
        <ele>451.48</ele>
        <time>2019-01-06T12:37:11Z</time>
      </trkpt>
      <trkpt lat="43.35979" lon="5.75727">
        <ele>451.96</ele>
        <time>2019-01-06T12:37:25Z</time>
      </trkpt>
      <trkpt lat="43.3598" lon="5.75728">
        <ele>451.96</ele>
        <time>2019-01-06T12:37:28Z</time>
      </trkpt>
      <trkpt lat="43.35981" lon="5.75729">
        <ele>451.96</ele>
        <time>2019-01-06T12:37:29Z</time>
      </trkpt>
      <trkpt lat="43.35984" lon="5.75738">
        <ele>453.88</ele>
        <time>2019-01-06T12:37:41Z</time>
      </trkpt>
      <trkpt lat="43.35987" lon="5.75745">
        <ele>454.36</ele>
        <time>2019-01-06T12:37:52Z</time>
      </trkpt>
      <trkpt lat="43.35987" lon="5.75747">
        <ele>453.88</ele>
        <time>2019-01-06T12:37:53Z</time>
      </trkpt>
      <trkpt lat="43.35987" lon="5.75749">
        <ele>454.36</ele>
        <time>2019-01-06T12:37:54Z</time>
      </trkpt>
      <trkpt lat="43.3599" lon="5.75762">
        <ele>456.28</ele>
        <time>2019-01-06T12:38:04Z</time>
      </trkpt>
      <trkpt lat="43.35991" lon="5.75766">
        <ele>456.76</ele>
        <time>2019-01-06T12:38:08Z</time>
      </trkpt>
      <trkpt lat="43.35993" lon="5.75771">
        <ele>458.21</ele>
        <time>2019-01-06T12:38:20Z</time>
      </trkpt>
      <trkpt lat="43.35993" lon="5.75779">
        <ele>459.17</ele>
        <time>2019-01-06T12:38:32Z</time>
      </trkpt>
      <trkpt lat="43.35993" lon="5.75783">
        <ele>459.17</ele>
        <time>2019-01-06T12:38:36Z</time>
      </trkpt>
      <trkpt lat="43.35995" lon="5.75786">
        <ele>459.17</ele>
        <time>2019-01-06T12:38:39Z</time>
      </trkpt>
      <trkpt lat="43.35996" lon="5.75788">
        <ele>459.17</ele>
        <time>2019-01-06T12:38:40Z</time>
      </trkpt>
      <trkpt lat="43.36003" lon="5.75799">
        <ele>460.61</ele>
        <time>2019-01-06T12:38:50Z</time>
      </trkpt>
      <trkpt lat="43.36011" lon="5.75808">
        <ele>463.01</ele>
        <time>2019-01-06T12:39:01Z</time>
      </trkpt>
      <trkpt lat="43.36012" lon="5.75809">
        <ele>463.49</ele>
        <time>2019-01-06T12:39:15Z</time>
      </trkpt>
      <trkpt lat="43.36015" lon="5.75821">
        <ele>464.93</ele>
        <time>2019-01-06T12:39:30Z</time>
      </trkpt>
      <trkpt lat="43.36015" lon="5.75831">
        <ele>466.86</ele>
        <time>2019-01-06T12:39:43Z</time>
      </trkpt>
      <trkpt lat="43.36015" lon="5.75837">
        <ele>466.86</ele>
        <time>2019-01-06T12:39:48Z</time>
      </trkpt>
      <trkpt lat="43.36017" lon="5.75854">
        <ele>470.22</ele>
        <time>2019-01-06T12:40:02Z</time>
      </trkpt>
      <trkpt lat="43.3602" lon="5.75874">
        <ele>473.59</ele>
        <time>2019-01-06T12:40:21Z</time>
      </trkpt>
      <trkpt lat="43.36019" lon="5.75878">
        <ele>473.59</ele>
        <time>2019-01-06T12:40:25Z</time>
      </trkpt>
      <trkpt lat="43.36021" lon="5.75891">
        <ele>475.51</ele>
        <time>2019-01-06T12:40:41Z</time>
      </trkpt>
      <trkpt lat="43.36022" lon="5.75894">
        <ele>476.47</ele>
        <time>2019-01-06T12:40:52Z</time>
      </trkpt>
      <trkpt lat="43.36024" lon="5.75907">
        <ele>477.91</ele>
        <time>2019-01-06T12:41:00Z</time>
      </trkpt>
      <trkpt lat="43.36029" lon="5.75918">
        <ele>479.84</ele>
        <time>2019-01-06T12:41:12Z</time>
      </trkpt>
      <trkpt lat="43.36032" lon="5.75924">
        <ele>480.8</ele>
        <time>2019-01-06T12:41:17Z</time>
      </trkpt>
      <trkpt lat="43.36034" lon="5.75927">
        <ele>480.32</ele>
        <time>2019-01-06T12:41:20Z</time>
      </trkpt>
      <trkpt lat="43.36039" lon="5.75935">
        <ele>481.76</ele>
        <time>2019-01-06T12:41:28Z</time>
      </trkpt>
      <trkpt lat="43.36041" lon="5.75949">
        <ele>483.2</ele>
        <time>2019-01-06T12:41:41Z</time>
      </trkpt>
      <trkpt lat="43.36043" lon="5.75958">
        <ele>484.16</ele>
        <time>2019-01-06T12:41:54Z</time>
      </trkpt>
      <trkpt lat="43.36044" lon="5.75959">
        <ele>484.16</ele>
        <time>2019-01-06T12:41:55Z</time>
      </trkpt>
      <trkpt lat="43.36045" lon="5.75962">
        <ele>484.64</ele>
        <time>2019-01-06T12:41:58Z</time>
      </trkpt>
      <trkpt lat="43.36046" lon="5.75965">
        <ele>485.12</ele>
        <time>2019-01-06T12:42:02Z</time>
      </trkpt>
      <trkpt lat="43.36052" lon="5.75967">
        <ele>485.6</ele>
        <time>2019-01-06T12:42:10Z</time>
      </trkpt>
      <trkpt lat="43.36058" lon="5.75968">
        <ele>486.08</ele>
        <time>2019-01-06T12:42:19Z</time>
      </trkpt>
      <trkpt lat="43.36062" lon="5.75969">
        <ele>487.05</ele>
        <time>2019-01-06T12:42:35Z</time>
      </trkpt>
      <trkpt lat="43.36056" lon="5.7597">
        <ele>487.05</ele>
        <time>2019-01-06T12:42:52Z</time>
      </trkpt>
      <trkpt lat="43.36054" lon="5.75968">
        <ele>486.56</ele>
        <time>2019-01-06T12:43:17Z</time>
      </trkpt>
      <trkpt lat="43.36056" lon="5.75971">
        <ele>487.05</ele>
        <time>2019-01-06T12:43:24Z</time>
      </trkpt>
      <trkpt lat="43.36058" lon="5.75982">
        <ele>488.97</ele>
        <time>2019-01-06T12:43:45Z</time>
      </trkpt>
      <trkpt lat="43.36059" lon="5.76003">
        <ele>490.41</ele>
        <time>2019-01-06T12:43:59Z</time>
      </trkpt>
      <trkpt lat="43.36061" lon="5.76005">
        <ele>490.41</ele>
        <time>2019-01-06T12:44:03Z</time>
      </trkpt>
      <trkpt lat="43.36064" lon="5.76006">
        <ele>490.89</ele>
        <time>2019-01-06T12:44:07Z</time>
      </trkpt>
      <trkpt lat="43.36069" lon="5.76011">
        <ele>491.85</ele>
        <time>2019-01-06T12:44:12Z</time>
      </trkpt>
      <trkpt lat="43.36078" lon="5.76014">
        <ele>492.81</ele>
        <time>2019-01-06T12:44:24Z</time>
      </trkpt>
      <trkpt lat="43.36082" lon="5.76015">
        <ele>492.81</ele>
        <time>2019-01-06T12:44:28Z</time>
      </trkpt>
      <trkpt lat="43.36088" lon="5.76015">
        <ele>494.26</ele>
        <time>2019-01-06T12:44:33Z</time>
      </trkpt>
      <trkpt lat="43.361" lon="5.76016">
        <ele>494.74</ele>
        <time>2019-01-06T12:44:45Z</time>
      </trkpt>
      <trkpt lat="43.36108" lon="5.76016">
        <ele>495.22</ele>
        <time>2019-01-06T12:44:56Z</time>
      </trkpt>
      <trkpt lat="43.36113" lon="5.76013">
        <ele>495.7</ele>
        <time>2019-01-06T12:45:02Z</time>
      </trkpt>
      <trkpt lat="43.36118" lon="5.76015">
        <ele>495.7</ele>
        <time>2019-01-06T12:45:06Z</time>
      </trkpt>
      <trkpt lat="43.36122" lon="5.76015">
        <ele>496.18</ele>
        <time>2019-01-06T12:45:11Z</time>
      </trkpt>
      <trkpt lat="43.36129" lon="5.76013">
        <ele>497.14</ele>
        <time>2019-01-06T12:45:20Z</time>
      </trkpt>
      <trkpt lat="43.36127" lon="5.75995">
        <ele>497.14</ele>
        <time>2019-01-06T12:45:39Z</time>
      </trkpt>
      <trkpt lat="43.36126" lon="5.75983">
        <ele>495.7</ele>
        <time>2019-01-06T12:46:01Z</time>
      </trkpt>
      <trkpt lat="43.36126" lon="5.75982">
        <ele>495.7</ele>
        <time>2019-01-06T12:46:20Z</time>
      </trkpt>
      <trkpt lat="43.36127" lon="5.75989">
        <ele>495.7</ele>
        <time>2019-01-06T12:46:41Z</time>
      </trkpt>
      <trkpt lat="43.36129" lon="5.75993">
        <ele>497.14</ele>
        <time>2019-01-06T12:46:45Z</time>
      </trkpt>
      <trkpt lat="43.36128" lon="5.76007">
        <ele>497.14</ele>
        <time>2019-01-06T12:47:13Z</time>
      </trkpt>
      <trkpt lat="43.36129" lon="5.76011">
        <ele>498.1</ele>
        <time>2019-01-06T12:47:39Z</time>
      </trkpt>
      <trkpt lat="43.36132" lon="5.76019">
        <ele>498.1</ele>
        <time>2019-01-06T12:47:58Z</time>
      </trkpt>
      <trkpt lat="43.36133" lon="5.76019">
        <ele>500.02</ele>
        <time>2019-01-06T12:48:01Z</time>
      </trkpt>
      <trkpt lat="43.36137" lon="5.76022">
        <ele>498.58</ele>
        <time>2019-01-06T12:48:04Z</time>
      </trkpt>
      <trkpt lat="43.36139" lon="5.76023">
        <ele>498.58</ele>
        <time>2019-01-06T12:48:05Z</time>
      </trkpt>
      <trkpt lat="43.36147" lon="5.76028">
        <ele>499.54</ele>
        <time>2019-01-06T12:48:13Z</time>
      </trkpt>
      <trkpt lat="43.36149" lon="5.76031">
        <ele>500.98</ele>
        <time>2019-01-06T12:48:18Z</time>
      </trkpt>
      <trkpt lat="43.3615" lon="5.76038">
        <ele>501.46</ele>
        <time>2019-01-06T12:48:24Z</time>
      </trkpt>
      <trkpt lat="43.36155" lon="5.76057">
        <ele>501.95</ele>
        <time>2019-01-06T12:48:37Z</time>
      </trkpt>
      <trkpt lat="43.36157" lon="5.76069">
        <ele>502.43</ele>
        <time>2019-01-06T12:48:48Z</time>
      </trkpt>
      <trkpt lat="43.36158" lon="5.76072">
        <ele>502.43</ele>
        <time>2019-01-06T12:48:50Z</time>
      </trkpt>
      <trkpt lat="43.36159" lon="5.76074">
        <ele>502.43</ele>
        <time>2019-01-06T12:48:51Z</time>
      </trkpt>
      <trkpt lat="43.36161" lon="5.7608">
        <ele>502.43</ele>
        <time>2019-01-06T12:48:56Z</time>
      </trkpt>
      <trkpt lat="43.36162" lon="5.76082">
        <ele>502.91</ele>
        <time>2019-01-06T12:48:57Z</time>
      </trkpt>
      <trkpt lat="43.36166" lon="5.76092">
        <ele>504.35</ele>
        <time>2019-01-06T12:49:03Z</time>
      </trkpt>
      <trkpt lat="43.36178" lon="5.76106">
        <ele>504.83</ele>
        <time>2019-01-06T12:49:23Z</time>
      </trkpt>
      <trkpt lat="43.36191" lon="5.76118">
        <ele>506.27</ele>
        <time>2019-01-06T12:49:45Z</time>
      </trkpt>
      <trkpt lat="43.36205" lon="5.76147">
        <ele>508.67</ele>
        <time>2019-01-06T12:50:04Z</time>
      </trkpt>
      <trkpt lat="43.36207" lon="5.76152">
        <ele>508.67</ele>
        <time>2019-01-06T12:50:05Z</time>
      </trkpt>
      <trkpt lat="43.3621" lon="5.76163">
        <ele>508.67</ele>
        <time>2019-01-06T12:50:11Z</time>
      </trkpt>
      <trkpt lat="43.36218" lon="5.76177">
        <ele>509.64</ele>
        <time>2019-01-06T12:50:25Z</time>
      </trkpt>
      <trkpt lat="43.3622" lon="5.76179">
        <ele>509.64</ele>
        <time>2019-01-06T12:50:36Z</time>
      </trkpt>
      <trkpt lat="43.36219" lon="5.76185">
        <ele>510.12</ele>
        <time>2019-01-06T12:50:52Z</time>
      </trkpt>
      <trkpt lat="43.3622" lon="5.76183">
        <ele>510.12</ele>
        <time>2019-01-06T12:51:05Z</time>
      </trkpt>
      <trkpt lat="43.36219" lon="5.7618">
        <ele>509.16</ele>
        <time>2019-01-06T12:51:13Z</time>
      </trkpt>
      <trkpt lat="43.36218" lon="5.76178">
        <ele>509.16</ele>
        <time>2019-01-06T12:51:14Z</time>
      </trkpt>
      <trkpt lat="43.36215" lon="5.76175">
        <ele>509.16</ele>
        <time>2019-01-06T12:51:23Z</time>
      </trkpt>
      <trkpt lat="43.36217" lon="5.76172">
        <ele>508.67</ele>
        <time>2019-01-06T12:51:35Z</time>
      </trkpt>
      <trkpt lat="43.3622" lon="5.76176">
        <ele>508.67</ele>
        <time>2019-01-06T12:51:39Z</time>
      </trkpt>
      <trkpt lat="43.36221" lon="5.76177">
        <ele>508.67</ele>
        <time>2019-01-06T12:51:40Z</time>
      </trkpt>
      <trkpt lat="43.36222" lon="5.76179">
        <ele>508.67</ele>
        <time>2019-01-06T12:51:41Z</time>
      </trkpt>
      <trkpt lat="43.36227" lon="5.76184">
        <ele>508.19</ele>
        <time>2019-01-06T12:51:49Z</time>
      </trkpt>
      <trkpt lat="43.36225" lon="5.76184">
        <ele>508.19</ele>
        <time>2019-01-06T12:52:01Z</time>
      </trkpt>
      <trkpt lat="43.36223" lon="5.76185">
        <ele>508.19</ele>
        <time>2019-01-06T12:52:02Z</time>
      </trkpt>
      <trkpt lat="43.3622" lon="5.7619">
        <ele>509.64</ele>
        <time>2019-01-06T12:52:09Z</time>
      </trkpt>
      <trkpt lat="43.3622" lon="5.7619">
        <ele>509.64</ele>
        <time>2019-01-06T12:52:10Z</time>
      </trkpt>
      <trkpt lat="43.36225" lon="5.76201">
        <ele>510.6</ele>
        <time>2019-01-06T12:52:24Z</time>
      </trkpt>
      <trkpt lat="43.36225" lon="5.76201">
        <ele>510.6</ele>
        <time>2019-01-06T12:52:40Z</time>
      </trkpt>
      <trkpt lat="43.36226" lon="5.76208">
        <ele>511.08</ele>
        <time>2019-01-06T12:52:55Z</time>
      </trkpt>
      <trkpt lat="43.36233" lon="5.76218">
        <ele>511.08</ele>
        <time>2019-01-06T12:53:15Z</time>
      </trkpt>
      <trkpt lat="43.3624" lon="5.76229">
        <ele>511.08</ele>
        <time>2019-01-06T12:53:27Z</time>
      </trkpt>
      <trkpt lat="43.36242" lon="5.76231">
        <ele>509.64</ele>
        <time>2019-01-06T12:53:29Z</time>
      </trkpt>
      <trkpt lat="43.36246" lon="5.76242">
        <ele>509.64</ele>
        <time>2019-01-06T12:53:40Z</time>
      </trkpt>
      <trkpt lat="43.36248" lon="5.76244">
        <ele>509.64</ele>
        <time>2019-01-06T12:53:43Z</time>
      </trkpt>
      <trkpt lat="43.36248" lon="5.76245">
        <ele>509.16</ele>
        <time>2019-01-06T12:53:44Z</time>
      </trkpt>
      <trkpt lat="43.3625" lon="5.76251">
        <ele>509.16</ele>
        <time>2019-01-06T12:53:50Z</time>
      </trkpt>
      <trkpt lat="43.36251" lon="5.76256">
        <ele>509.16</ele>
        <time>2019-01-06T12:54:02Z</time>
      </trkpt>
      <trkpt lat="43.36256" lon="5.76274">
        <ele>509.16</ele>
        <time>2019-01-06T12:54:19Z</time>
      </trkpt>
      <trkpt lat="43.36258" lon="5.76281">
        <ele>509.16</ele>
        <time>2019-01-06T12:54:25Z</time>
      </trkpt>
      <trkpt lat="43.3626" lon="5.76285">
        <ele>509.16</ele>
        <time>2019-01-06T12:54:28Z</time>
      </trkpt>
      <trkpt lat="43.3626" lon="5.76287">
        <ele>509.16</ele>
        <time>2019-01-06T12:54:29Z</time>
      </trkpt>
      <trkpt lat="43.36263" lon="5.76303">
        <ele>509.16</ele>
        <time>2019-01-06T12:54:41Z</time>
      </trkpt>
      <trkpt lat="43.36268" lon="5.76316">
        <ele>509.16</ele>
        <time>2019-01-06T12:54:51Z</time>
      </trkpt>
      <trkpt lat="43.36273" lon="5.76331">
        <ele>509.16</ele>
        <time>2019-01-06T12:55:00Z</time>
      </trkpt>
      <trkpt lat="43.3628" lon="5.76345">
        <ele>510.6</ele>
        <time>2019-01-06T12:55:10Z</time>
      </trkpt>
      <trkpt lat="43.36285" lon="5.76353">
        <ele>510.12</ele>
        <time>2019-01-06T12:55:19Z</time>
      </trkpt>
      <trkpt lat="43.36287" lon="5.76356">
        <ele>510.12</ele>
        <time>2019-01-06T12:55:22Z</time>
      </trkpt>
      <trkpt lat="43.36288" lon="5.76357">
        <ele>510.12</ele>
        <time>2019-01-06T12:55:23Z</time>
      </trkpt>
      <trkpt lat="43.36294" lon="5.7637">
        <ele>510.12</ele>
        <time>2019-01-06T12:55:34Z</time>
      </trkpt>
      <trkpt lat="43.36297" lon="5.76374">
        <ele>510.12</ele>
        <time>2019-01-06T12:55:38Z</time>
      </trkpt>
      <trkpt lat="43.36297" lon="5.76376">
        <ele>510.12</ele>
        <time>2019-01-06T12:55:39Z</time>
      </trkpt>
      <trkpt lat="43.36298" lon="5.76378">
        <ele>510.12</ele>
        <time>2019-01-06T12:55:40Z</time>
      </trkpt>
      <trkpt lat="43.36299" lon="5.7638">
        <ele>510.12</ele>
        <time>2019-01-06T12:55:41Z</time>
      </trkpt>
      <trkpt lat="43.36305" lon="5.76393">
        <ele>510.12</ele>
        <time>2019-01-06T12:55:50Z</time>
      </trkpt>
      <trkpt lat="43.36304" lon="5.76395">
        <ele>510.12</ele>
        <time>2019-01-06T12:55:53Z</time>
      </trkpt>
      <trkpt lat="43.36305" lon="5.76396">
        <ele>510.6</ele>
        <time>2019-01-06T12:55:54Z</time>
      </trkpt>
      <trkpt lat="43.36308" lon="5.76404">
        <ele>510.6</ele>
        <time>2019-01-06T12:55:59Z</time>
      </trkpt>
      <trkpt lat="43.36309" lon="5.76405">
        <ele>510.6</ele>
        <time>2019-01-06T12:56:00Z</time>
      </trkpt>
      <trkpt lat="43.36311" lon="5.76411">
        <ele>510.6</ele>
        <time>2019-01-06T12:56:05Z</time>
      </trkpt>
      <trkpt lat="43.36313" lon="5.76417">
        <ele>510.6</ele>
        <time>2019-01-06T12:56:10Z</time>
      </trkpt>
      <trkpt lat="43.36314" lon="5.76418">
        <ele>510.6</ele>
        <time>2019-01-06T12:56:11Z</time>
      </trkpt>
      <trkpt lat="43.36318" lon="5.76428">
        <ele>509.64</ele>
        <time>2019-01-06T12:56:18Z</time>
      </trkpt>
      <trkpt lat="43.36317" lon="5.76429">
        <ele>509.64</ele>
        <time>2019-01-06T12:56:21Z</time>
      </trkpt>
      <trkpt lat="43.36319" lon="5.76439">
        <ele>508.67</ele>
        <time>2019-01-06T12:56:31Z</time>
      </trkpt>
      <trkpt lat="43.36319" lon="5.76442">
        <ele>508.19</ele>
        <time>2019-01-06T12:56:32Z</time>
      </trkpt>
      <trkpt lat="43.36319" lon="5.76444">
        <ele>508.19</ele>
        <time>2019-01-06T12:56:33Z</time>
      </trkpt>
      <trkpt lat="43.36322" lon="5.76452">
        <ele>508.19</ele>
        <time>2019-01-06T12:56:40Z</time>
      </trkpt>
      <trkpt lat="43.36327" lon="5.76459">
        <ele>507.23</ele>
        <time>2019-01-06T12:56:48Z</time>
      </trkpt>
      <trkpt lat="43.36329" lon="5.7646">
        <ele>507.23</ele>
        <time>2019-01-06T12:56:49Z</time>
      </trkpt>
      <trkpt lat="43.36331" lon="5.76461">
        <ele>507.23</ele>
        <time>2019-01-06T12:56:50Z</time>
      </trkpt>
      <trkpt lat="43.36332" lon="5.76462">
        <ele>507.23</ele>
        <time>2019-01-06T12:56:51Z</time>
      </trkpt>
      <trkpt lat="43.36334" lon="5.76462">
        <ele>507.23</ele>
        <time>2019-01-06T12:56:52Z</time>
      </trkpt>
      <trkpt lat="43.36337" lon="5.76465">
        <ele>507.23</ele>
        <time>2019-01-06T12:56:57Z</time>
      </trkpt>
      <trkpt lat="43.36339" lon="5.76468">
        <ele>507.23</ele>
        <time>2019-01-06T12:56:59Z</time>
      </trkpt>
      <trkpt lat="43.36343" lon="5.7647">
        <ele>507.23</ele>
        <time>2019-01-06T12:57:04Z</time>
      </trkpt>
      <trkpt lat="43.36344" lon="5.76471">
        <ele>507.23</ele>
        <time>2019-01-06T12:57:05Z</time>
      </trkpt>
      <trkpt lat="43.36357" lon="5.76475">
        <ele>509.64</ele>
        <time>2019-01-06T12:57:16Z</time>
      </trkpt>
      <trkpt lat="43.3636" lon="5.76475">
        <ele>510.12</ele>
        <time>2019-01-06T12:57:20Z</time>
      </trkpt>
      <trkpt lat="43.36361" lon="5.76475">
        <ele>510.12</ele>
        <time>2019-01-06T12:57:21Z</time>
      </trkpt>
      <trkpt lat="43.36365" lon="5.76473">
        <ele>510.6</ele>
        <time>2019-01-06T12:57:25Z</time>
      </trkpt>
      <trkpt lat="43.36366" lon="5.76472">
        <ele>511.08</ele>
        <time>2019-01-06T12:57:26Z</time>
      </trkpt>
      <trkpt lat="43.36369" lon="5.76472">
        <ele>511.56</ele>
        <time>2019-01-06T12:57:29Z</time>
      </trkpt>
      <trkpt lat="43.36374" lon="5.76474">
        <ele>511.56</ele>
        <time>2019-01-06T12:57:34Z</time>
      </trkpt>
      <trkpt lat="43.36376" lon="5.76474">
        <ele>512.52</ele>
        <time>2019-01-06T12:57:36Z</time>
      </trkpt>
      <trkpt lat="43.36378" lon="5.76475">
        <ele>512.52</ele>
        <time>2019-01-06T12:57:38Z</time>
      </trkpt>
      <trkpt lat="43.36379" lon="5.76476">
        <ele>512.52</ele>
        <time>2019-01-06T12:57:39Z</time>
      </trkpt>
      <trkpt lat="43.36381" lon="5.76477">
        <ele>512.52</ele>
        <time>2019-01-06T12:57:40Z</time>
      </trkpt>
      <trkpt lat="43.36383" lon="5.76479">
        <ele>512.52</ele>
        <time>2019-01-06T12:57:43Z</time>
      </trkpt>
      <trkpt lat="43.36387" lon="5.76483">
        <ele>513</ele>
        <time>2019-01-06T12:57:53Z</time>
      </trkpt>
      <trkpt lat="43.36389" lon="5.76485">
        <ele>513</ele>
        <time>2019-01-06T12:58:00Z</time>
      </trkpt>
      <trkpt lat="43.36391" lon="5.76489">
        <ele>513</ele>
        <time>2019-01-06T12:58:04Z</time>
      </trkpt>
      <trkpt lat="43.36398" lon="5.76497">
        <ele>511.56</ele>
        <time>2019-01-06T12:58:15Z</time>
      </trkpt>
      <trkpt lat="43.36399" lon="5.76498">
        <ele>513</ele>
        <time>2019-01-06T12:58:17Z</time>
      </trkpt>
      <trkpt lat="43.36405" lon="5.76507">
        <ele>512.52</ele>
        <time>2019-01-06T12:58:30Z</time>
      </trkpt>
      <trkpt lat="43.36413" lon="5.76513">
        <ele>513.48</ele>
        <time>2019-01-06T12:58:37Z</time>
      </trkpt>
      <trkpt lat="43.36418" lon="5.76521">
        <ele>513.48</ele>
        <time>2019-01-06T12:58:43Z</time>
      </trkpt>
      <trkpt lat="43.36431" lon="5.7654">
        <ele>513.48</ele>
        <time>2019-01-06T12:58:57Z</time>
      </trkpt>
      <trkpt lat="43.36433" lon="5.76543">
        <ele>512.52</ele>
        <time>2019-01-06T12:59:02Z</time>
      </trkpt>
      <trkpt lat="43.36435" lon="5.76544">
        <ele>512.04</ele>
        <time>2019-01-06T12:59:03Z</time>
      </trkpt>
      <trkpt lat="43.36437" lon="5.76546">
        <ele>511.56</ele>
        <time>2019-01-06T12:59:07Z</time>
      </trkpt>
      <trkpt lat="43.3644" lon="5.76546">
        <ele>511.56</ele>
        <time>2019-01-06T12:59:08Z</time>
      </trkpt>
      <trkpt lat="43.36443" lon="5.76547">
        <ele>511.08</ele>
        <time>2019-01-06T12:59:12Z</time>
      </trkpt>
      <trkpt lat="43.36445" lon="5.76548">
        <ele>511.08</ele>
        <time>2019-01-06T12:59:13Z</time>
      </trkpt>
      <trkpt lat="43.36446" lon="5.76549">
        <ele>511.08</ele>
        <time>2019-01-06T12:59:14Z</time>
      </trkpt>
      <trkpt lat="43.36448" lon="5.76551">
        <ele>510.6</ele>
        <time>2019-01-06T12:59:18Z</time>
      </trkpt>
      <trkpt lat="43.36449" lon="5.76553">
        <ele>510.6</ele>
        <time>2019-01-06T12:59:19Z</time>
      </trkpt>
      <trkpt lat="43.36452" lon="5.76556">
        <ele>510.6</ele>
        <time>2019-01-06T12:59:22Z</time>
      </trkpt>
      <trkpt lat="43.36452" lon="5.76557">
        <ele>510.6</ele>
        <time>2019-01-06T12:59:23Z</time>
      </trkpt>
      <trkpt lat="43.36454" lon="5.76559">
        <ele>510.6</ele>
        <time>2019-01-06T12:59:25Z</time>
      </trkpt>
      <trkpt lat="43.3646" lon="5.76567">
        <ele>510.6</ele>
        <time>2019-01-06T12:59:33Z</time>
      </trkpt>
      <trkpt lat="43.36467" lon="5.76578">
        <ele>510.6</ele>
        <time>2019-01-06T12:59:45Z</time>
      </trkpt>
      <trkpt lat="43.36477" lon="5.76591">
        <ele>510.6</ele>
        <time>2019-01-06T13:00:03Z</time>
      </trkpt>
      <trkpt lat="43.36483" lon="5.76599">
        <ele>510.6</ele>
        <time>2019-01-06T13:00:11Z</time>
      </trkpt>
      <trkpt lat="43.36483" lon="5.766">
        <ele>510.6</ele>
        <time>2019-01-06T13:00:12Z</time>
      </trkpt>
      <trkpt lat="43.36493" lon="5.76612">
        <ele>511.56</ele>
        <time>2019-01-06T13:00:25Z</time>
      </trkpt>
      <trkpt lat="43.36495" lon="5.76615">
        <ele>511.56</ele>
        <time>2019-01-06T13:00:28Z</time>
      </trkpt>
      <trkpt lat="43.36496" lon="5.76616">
        <ele>511.56</ele>
        <time>2019-01-06T13:00:29Z</time>
      </trkpt>
      <trkpt lat="43.36497" lon="5.76618">
        <ele>511.56</ele>
        <time>2019-01-06T13:00:30Z</time>
      </trkpt>
      <trkpt lat="43.365" lon="5.76621">
        <ele>511.56</ele>
        <time>2019-01-06T13:00:35Z</time>
      </trkpt>
      <trkpt lat="43.36503" lon="5.76625">
        <ele>511.56</ele>
        <time>2019-01-06T13:00:40Z</time>
      </trkpt>
      <trkpt lat="43.36506" lon="5.76631">
        <ele>510.12</ele>
        <time>2019-01-06T13:00:45Z</time>
      </trkpt>
      <trkpt lat="43.36507" lon="5.76633">
        <ele>510.12</ele>
        <time>2019-01-06T13:00:46Z</time>
      </trkpt>
      <trkpt lat="43.36509" lon="5.76636">
        <ele>510.12</ele>
        <time>2019-01-06T13:00:50Z</time>
      </trkpt>
      <trkpt lat="43.36509" lon="5.76638">
        <ele>510.12</ele>
        <time>2019-01-06T13:00:51Z</time>
      </trkpt>
      <trkpt lat="43.36513" lon="5.76654">
        <ele>510.12</ele>
        <time>2019-01-06T13:01:04Z</time>
      </trkpt>
      <trkpt lat="43.36515" lon="5.76669">
        <ele>510.12</ele>
        <time>2019-01-06T13:01:18Z</time>
      </trkpt>
      <trkpt lat="43.36521" lon="5.76687">
        <ele>508.67</ele>
        <time>2019-01-06T13:01:33Z</time>
      </trkpt>
      <trkpt lat="43.36526" lon="5.76701">
        <ele>508.19</ele>
        <time>2019-01-06T13:01:44Z</time>
      </trkpt>
      <trkpt lat="43.3653" lon="5.76714">
        <ele>507.23</ele>
        <time>2019-01-06T13:01:57Z</time>
      </trkpt>
      <trkpt lat="43.36531" lon="5.76735">
        <ele>506.27</ele>
        <time>2019-01-06T13:02:12Z</time>
      </trkpt>
      <trkpt lat="43.36531" lon="5.76754">
        <ele>505.79</ele>
        <time>2019-01-06T13:02:26Z</time>
      </trkpt>
      <trkpt lat="43.36528" lon="5.76769">
        <ele>505.79</ele>
        <time>2019-01-06T13:02:39Z</time>
      </trkpt>
      <trkpt lat="43.36531" lon="5.76797">
        <ele>503.87</ele>
        <time>2019-01-06T13:03:01Z</time>
      </trkpt>
      <trkpt lat="43.36539" lon="5.7682">
        <ele>502.43</ele>
        <time>2019-01-06T13:03:19Z</time>
      </trkpt>
      <trkpt lat="43.36544" lon="5.76843">
        <ele>502.43</ele>
        <time>2019-01-06T13:03:37Z</time>
      </trkpt>
      <trkpt lat="43.36544" lon="5.76851">
        <ele>502.43</ele>
        <time>2019-01-06T13:03:40Z</time>
      </trkpt>
      <trkpt lat="43.36544" lon="5.76855">
        <ele>502.43</ele>
        <time>2019-01-06T13:03:41Z</time>
      </trkpt>
      <trkpt lat="43.36551" lon="5.76878">
        <ele>504.83</ele>
        <time>2019-01-06T13:03:57Z</time>
      </trkpt>
      <trkpt lat="43.36554" lon="5.76894">
        <ele>504.83</ele>
        <time>2019-01-06T13:04:08Z</time>
      </trkpt>
      <trkpt lat="43.36555" lon="5.76914">
        <ele>504.83</ele>
        <time>2019-01-06T13:04:24Z</time>
      </trkpt>
      <trkpt lat="43.36557" lon="5.76936">
        <ele>505.31</ele>
        <time>2019-01-06T13:04:38Z</time>
      </trkpt>
      <trkpt lat="43.36558" lon="5.7695">
        <ele>505.79</ele>
        <time>2019-01-06T13:04:50Z</time>
      </trkpt>
      <trkpt lat="43.36558" lon="5.76952">
        <ele>505.79</ele>
        <time>2019-01-06T13:04:51Z</time>
      </trkpt>
      <trkpt lat="43.36558" lon="5.76954">
        <ele>505.79</ele>
        <time>2019-01-06T13:04:52Z</time>
      </trkpt>
      <trkpt lat="43.36562" lon="5.76963">
        <ele>504.83</ele>
        <time>2019-01-06T13:04:58Z</time>
      </trkpt>
      <trkpt lat="43.36566" lon="5.76981">
        <ele>504.35</ele>
        <time>2019-01-06T13:05:11Z</time>
      </trkpt>
      <trkpt lat="43.36576" lon="5.77">
        <ele>504.35</ele>
        <time>2019-01-06T13:05:25Z</time>
      </trkpt>
      <trkpt lat="43.36577" lon="5.77001">
        <ele>504.35</ele>
        <time>2019-01-06T13:05:26Z</time>
      </trkpt>
      <trkpt lat="43.36577" lon="5.77003">
        <ele>504.35</ele>
        <time>2019-01-06T13:05:27Z</time>
      </trkpt>
      <trkpt lat="43.36585" lon="5.77019">
        <ele>503.39</ele>
        <time>2019-01-06T13:05:42Z</time>
      </trkpt>
      <trkpt lat="43.36586" lon="5.77021">
        <ele>502.91</ele>
        <time>2019-01-06T13:05:43Z</time>
      </trkpt>
      <trkpt lat="43.3659" lon="5.77028">
        <ele>503.39</ele>
        <time>2019-01-06T13:05:49Z</time>
      </trkpt>
      <trkpt lat="43.36591" lon="5.7703">
        <ele>502.91</ele>
        <time>2019-01-06T13:05:50Z</time>
      </trkpt>
      <trkpt lat="43.36593" lon="5.77032">
        <ele>502.91</ele>
        <time>2019-01-06T13:05:51Z</time>
      </trkpt>
      <trkpt lat="43.36595" lon="5.77034">
        <ele>502.91</ele>
        <time>2019-01-06T13:05:52Z</time>
      </trkpt>
      <trkpt lat="43.36596" lon="5.77036">
        <ele>502.91</ele>
        <time>2019-01-06T13:05:53Z</time>
      </trkpt>
      <trkpt lat="43.36604" lon="5.77044">
        <ele>502.91</ele>
        <time>2019-01-06T13:06:02Z</time>
      </trkpt>
      <trkpt lat="43.36605" lon="5.77053">
        <ele>502.43</ele>
        <time>2019-01-06T13:06:11Z</time>
      </trkpt>
      <trkpt lat="43.36605" lon="5.77063">
        <ele>500.5</ele>
        <time>2019-01-06T13:06:20Z</time>
      </trkpt>
      <trkpt lat="43.36608" lon="5.77075">
        <ele>499.54</ele>
        <time>2019-01-06T13:06:29Z</time>
      </trkpt>
      <trkpt lat="43.36608" lon="5.77077">
        <ele>499.06</ele>
        <time>2019-01-06T13:06:30Z</time>
      </trkpt>
      <trkpt lat="43.3661" lon="5.77086">
        <ele>498.58</ele>
        <time>2019-01-06T13:06:34Z</time>
      </trkpt>
      <trkpt lat="43.3661" lon="5.77092">
        <ele>498.58</ele>
        <time>2019-01-06T13:06:45Z</time>
      </trkpt>
      <trkpt lat="43.36614" lon="5.77097">
        <ele>497.62</ele>
        <time>2019-01-06T13:06:55Z</time>
      </trkpt>
      <trkpt lat="43.36615" lon="5.77099">
        <ele>497.62</ele>
        <time>2019-01-06T13:06:56Z</time>
      </trkpt>
      <trkpt lat="43.36616" lon="5.77101">
        <ele>497.14</ele>
        <time>2019-01-06T13:06:57Z</time>
      </trkpt>
      <trkpt lat="43.36618" lon="5.77103">
        <ele>497.14</ele>
        <time>2019-01-06T13:06:58Z</time>
      </trkpt>
      <trkpt lat="43.36619" lon="5.77105">
        <ele>497.14</ele>
        <time>2019-01-06T13:06:59Z</time>
      </trkpt>
      <trkpt lat="43.36627" lon="5.77117">
        <ele>495.7</ele>
        <time>2019-01-06T13:07:10Z</time>
      </trkpt>
      <trkpt lat="43.36633" lon="5.77131">
        <ele>494.74</ele>
        <time>2019-01-06T13:07:23Z</time>
      </trkpt>
      <trkpt lat="43.36631" lon="5.77133">
        <ele>493.77</ele>
        <time>2019-01-06T13:07:26Z</time>
      </trkpt>
      <trkpt lat="43.36625" lon="5.77146">
        <ele>490.41</ele>
        <time>2019-01-06T13:07:39Z</time>
      </trkpt>
      <trkpt lat="43.36631" lon="5.77159">
        <ele>488.97</ele>
        <time>2019-01-06T13:07:53Z</time>
      </trkpt>
      <trkpt lat="43.36632" lon="5.77165">
        <ele>488.49</ele>
        <time>2019-01-06T13:07:57Z</time>
      </trkpt>
      <trkpt lat="43.3663" lon="5.77183">
        <ele>487.05</ele>
        <time>2019-01-06T13:08:14Z</time>
      </trkpt>
      <trkpt lat="43.36626" lon="5.77186">
        <ele>486.56</ele>
        <time>2019-01-06T13:08:19Z</time>
      </trkpt>
      <trkpt lat="43.3662" lon="5.7719">
        <ele>486.08</ele>
        <time>2019-01-06T13:08:26Z</time>
      </trkpt>
      <trkpt lat="43.36612" lon="5.772">
        <ele>486.08</ele>
        <time>2019-01-06T13:08:39Z</time>
      </trkpt>
      <trkpt lat="43.36613" lon="5.77201">
        <ele>486.08</ele>
        <time>2019-01-06T13:08:46Z</time>
      </trkpt>
      <trkpt lat="43.36613" lon="5.77203">
        <ele>486.08</ele>
        <time>2019-01-06T13:08:47Z</time>
      </trkpt>
      <trkpt lat="43.36614" lon="5.77206">
        <ele>485.6</ele>
        <time>2019-01-06T13:08:52Z</time>
      </trkpt>
      <trkpt lat="43.36614" lon="5.77213">
        <ele>485.12</ele>
        <time>2019-01-06T13:08:57Z</time>
      </trkpt>
      <trkpt lat="43.36615" lon="5.77224">
        <ele>484.64</ele>
        <time>2019-01-06T13:09:06Z</time>
      </trkpt>
      <trkpt lat="43.36615" lon="5.77229">
        <ele>484.64</ele>
        <time>2019-01-06T13:09:09Z</time>
      </trkpt>
      <trkpt lat="43.36617" lon="5.77243">
        <ele>483.68</ele>
        <time>2019-01-06T13:09:21Z</time>
      </trkpt>
      <trkpt lat="43.3662" lon="5.77261">
        <ele>482.72</ele>
        <time>2019-01-06T13:09:40Z</time>
      </trkpt>
      <trkpt lat="43.36621" lon="5.7728">
        <ele>480.8</ele>
        <time>2019-01-06T13:09:57Z</time>
      </trkpt>
      <trkpt lat="43.3662" lon="5.77302">
        <ele>479.35</ele>
        <time>2019-01-06T13:10:14Z</time>
      </trkpt>
      <trkpt lat="43.36621" lon="5.77304">
        <ele>479.35</ele>
        <time>2019-01-06T13:10:15Z</time>
      </trkpt>
      <trkpt lat="43.3662" lon="5.77321">
        <ele>476.95</ele>
        <time>2019-01-06T13:10:31Z</time>
      </trkpt>
      <trkpt lat="43.36621" lon="5.77335">
        <ele>476.47</ele>
        <time>2019-01-06T13:10:39Z</time>
      </trkpt>
      <trkpt lat="43.36628" lon="5.7735">
        <ele>475.51</ele>
        <time>2019-01-06T13:10:51Z</time>
      </trkpt>
      <trkpt lat="43.36629" lon="5.77356">
        <ele>475.03</ele>
        <time>2019-01-06T13:10:54Z</time>
      </trkpt>
      <trkpt lat="43.3663" lon="5.77358">
        <ele>475.03</ele>
        <time>2019-01-06T13:10:55Z</time>
      </trkpt>
      <trkpt lat="43.3663" lon="5.7736">
        <ele>475.03</ele>
        <time>2019-01-06T13:10:56Z</time>
      </trkpt>
      <trkpt lat="43.36632" lon="5.77383">
        <ele>474.07</ele>
        <time>2019-01-06T13:11:12Z</time>
      </trkpt>
      <trkpt lat="43.36632" lon="5.77399">
        <ele>473.11</ele>
        <time>2019-01-06T13:11:27Z</time>
      </trkpt>
      <trkpt lat="43.36637" lon="5.77417">
        <ele>472.14</ele>
        <time>2019-01-06T13:11:42Z</time>
      </trkpt>
      <trkpt lat="43.36642" lon="5.77433">
        <ele>471.18</ele>
        <time>2019-01-06T13:11:58Z</time>
      </trkpt>
      <trkpt lat="43.36649" lon="5.77448">
        <ele>470.22</ele>
        <time>2019-01-06T13:12:17Z</time>
      </trkpt>
      <trkpt lat="43.36656" lon="5.77453">
        <ele>468.3</ele>
        <time>2019-01-06T13:12:30Z</time>
      </trkpt>
      <trkpt lat="43.36659" lon="5.77465">
        <ele>468.3</ele>
        <time>2019-01-06T13:12:47Z</time>
      </trkpt>
      <trkpt lat="43.36664" lon="5.77488">
        <ele>466.86</ele>
        <time>2019-01-06T13:13:02Z</time>
      </trkpt>
      <trkpt lat="43.36674" lon="5.77502">
        <ele>464.93</ele>
        <time>2019-01-06T13:13:16Z</time>
      </trkpt>
      <trkpt lat="43.36684" lon="5.77514">
        <ele>463.01</ele>
        <time>2019-01-06T13:13:32Z</time>
      </trkpt>
      <trkpt lat="43.36689" lon="5.77518">
        <ele>462.53</ele>
        <time>2019-01-06T13:13:49Z</time>
      </trkpt>
      <trkpt lat="43.36688" lon="5.77518">
        <ele>462.05</ele>
        <time>2019-01-06T13:13:56Z</time>
      </trkpt>
      <trkpt lat="43.36684" lon="5.7752">
        <ele>462.53</ele>
        <time>2019-01-06T13:14:06Z</time>
      </trkpt>
      <trkpt lat="43.36681" lon="5.77536">
        <ele>462.53</ele>
        <time>2019-01-06T13:14:22Z</time>
      </trkpt>
      <trkpt lat="43.36677" lon="5.77552">
        <ele>462.53</ele>
        <time>2019-01-06T13:14:33Z</time>
      </trkpt>
      <trkpt lat="43.36668" lon="5.77562">
        <ele>462.53</ele>
        <time>2019-01-06T13:14:45Z</time>
      </trkpt>
      <trkpt lat="43.36656" lon="5.77576">
        <ele>461.09</ele>
        <time>2019-01-06T13:14:58Z</time>
      </trkpt>
      <trkpt lat="43.36654" lon="5.7758">
        <ele>461.09</ele>
        <time>2019-01-06T13:15:01Z</time>
      </trkpt>
      <trkpt lat="43.36654" lon="5.77586">
        <ele>461.57</ele>
        <time>2019-01-06T13:15:06Z</time>
      </trkpt>
      <trkpt lat="43.36653" lon="5.77599">
        <ele>461.09</ele>
        <time>2019-01-06T13:15:16Z</time>
      </trkpt>
      <trkpt lat="43.36656" lon="5.77622">
        <ele>461.09</ele>
        <time>2019-01-06T13:15:30Z</time>
      </trkpt>
      <trkpt lat="43.36658" lon="5.77627">
        <ele>459.17</ele>
        <time>2019-01-06T13:15:36Z</time>
      </trkpt>
      <trkpt lat="43.36659" lon="5.77629">
        <ele>459.17</ele>
        <time>2019-01-06T13:15:37Z</time>
      </trkpt>
      <trkpt lat="43.36661" lon="5.7763">
        <ele>459.17</ele>
        <time>2019-01-06T13:15:38Z</time>
      </trkpt>
      <trkpt lat="43.36663" lon="5.77631">
        <ele>459.17</ele>
        <time>2019-01-06T13:15:39Z</time>
      </trkpt>
      <trkpt lat="43.36664" lon="5.77631">
        <ele>458.69</ele>
        <time>2019-01-06T13:15:40Z</time>
      </trkpt>
      <trkpt lat="43.36666" lon="5.77632">
        <ele>458.69</ele>
        <time>2019-01-06T13:15:41Z</time>
      </trkpt>
      <trkpt lat="43.36671" lon="5.77635">
        <ele>457.72</ele>
        <time>2019-01-06T13:15:45Z</time>
      </trkpt>
      <trkpt lat="43.36672" lon="5.77636">
        <ele>457.24</ele>
        <time>2019-01-06T13:15:46Z</time>
      </trkpt>
      <trkpt lat="43.3668" lon="5.77652">
        <ele>456.28</ele>
        <time>2019-01-06T13:15:58Z</time>
      </trkpt>
      <trkpt lat="43.3669" lon="5.77674">
        <ele>454.84</ele>
        <time>2019-01-06T13:16:14Z</time>
      </trkpt>
      <trkpt lat="43.36693" lon="5.77681">
        <ele>453.4</ele>
        <time>2019-01-06T13:16:24Z</time>
      </trkpt>
      <trkpt lat="43.367" lon="5.77693">
        <ele>451</ele>
        <time>2019-01-06T13:16:38Z</time>
      </trkpt>
      <trkpt lat="43.36715" lon="5.77703">
        <ele>447.63</ele>
        <time>2019-01-06T13:16:52Z</time>
      </trkpt>
      <trkpt lat="43.3672" lon="5.77705">
        <ele>447.15</ele>
        <time>2019-01-06T13:16:57Z</time>
      </trkpt>
      <trkpt lat="43.36728" lon="5.77708">
        <ele>445.23</ele>
        <time>2019-01-06T13:17:06Z</time>
      </trkpt>
      <trkpt lat="43.36732" lon="5.77709">
        <ele>444.27</ele>
        <time>2019-01-06T13:17:18Z</time>
      </trkpt>
      <trkpt lat="43.36734" lon="5.77714">
        <ele>443.31</ele>
        <time>2019-01-06T13:17:32Z</time>
      </trkpt>
      <trkpt lat="43.36736" lon="5.77728">
        <ele>441.86</ele>
        <time>2019-01-06T13:17:41Z</time>
      </trkpt>
      <trkpt lat="43.36738" lon="5.77738">
        <ele>441.86</ele>
        <time>2019-01-06T13:17:47Z</time>
      </trkpt>
      <trkpt lat="43.3674" lon="5.7774">
        <ele>440.42</ele>
        <time>2019-01-06T13:17:50Z</time>
      </trkpt>
      <trkpt lat="43.36744" lon="5.7774">
        <ele>439.94</ele>
        <time>2019-01-06T13:18:03Z</time>
      </trkpt>
      <trkpt lat="43.36741" lon="5.77749">
        <ele>440.9</ele>
        <time>2019-01-06T13:18:12Z</time>
      </trkpt>
      <trkpt lat="43.36741" lon="5.77752">
        <ele>440.9</ele>
        <time>2019-01-06T13:18:14Z</time>
      </trkpt>
      <trkpt lat="43.36741" lon="5.77766">
        <ele>439.46</ele>
        <time>2019-01-06T13:18:27Z</time>
      </trkpt>
      <trkpt lat="43.36743" lon="5.77781">
        <ele>438.98</ele>
        <time>2019-01-06T13:18:40Z</time>
      </trkpt>
      <trkpt lat="43.36744" lon="5.77798">
        <ele>437.54</ele>
        <time>2019-01-06T13:18:51Z</time>
      </trkpt>
      <trkpt lat="43.36744" lon="5.77801">
        <ele>438.02</ele>
        <time>2019-01-06T13:18:55Z</time>
      </trkpt>
      <trkpt lat="43.36748" lon="5.77811">
        <ele>437.06</ele>
        <time>2019-01-06T13:19:02Z</time>
      </trkpt>
      <trkpt lat="43.36756" lon="5.77825">
        <ele>435.13</ele>
        <time>2019-01-06T13:19:14Z</time>
      </trkpt>
      <trkpt lat="43.36759" lon="5.77829">
        <ele>434.65</ele>
        <time>2019-01-06T13:19:18Z</time>
      </trkpt>
      <trkpt lat="43.36764" lon="5.77839">
        <ele>434.17</ele>
        <time>2019-01-06T13:19:26Z</time>
      </trkpt>
      <trkpt lat="43.36769" lon="5.77853">
        <ele>433.69</ele>
        <time>2019-01-06T13:19:38Z</time>
      </trkpt>
      <trkpt lat="43.36772" lon="5.77866">
        <ele>432.25</ele>
        <time>2019-01-06T13:19:48Z</time>
      </trkpt>
      <trkpt lat="43.36773" lon="5.77873">
        <ele>431.77</ele>
        <time>2019-01-06T13:19:53Z</time>
      </trkpt>
      <trkpt lat="43.36782" lon="5.77887">
        <ele>429.37</ele>
        <time>2019-01-06T13:20:08Z</time>
      </trkpt>
      <trkpt lat="43.36791" lon="5.77902">
        <ele>426</ele>
        <time>2019-01-06T13:20:28Z</time>
      </trkpt>
      <trkpt lat="43.36797" lon="5.77927">
        <ele>423.6</ele>
        <time>2019-01-06T13:20:48Z</time>
      </trkpt>
      <trkpt lat="43.36796" lon="5.77939">
        <ele>420.71</ele>
        <time>2019-01-06T13:21:05Z</time>
      </trkpt>
      <trkpt lat="43.36801" lon="5.77951">
        <ele>417.83</ele>
        <time>2019-01-06T13:21:20Z</time>
      </trkpt>
      <trkpt lat="43.36818" lon="5.77961">
        <ele>414.95</ele>
        <time>2019-01-06T13:21:38Z</time>
      </trkpt>
      <trkpt lat="43.36826" lon="5.77979">
        <ele>413.5</ele>
        <time>2019-01-06T13:21:54Z</time>
      </trkpt>
      <trkpt lat="43.36837" lon="5.78">
        <ele>411.1</ele>
        <time>2019-01-06T13:22:13Z</time>
      </trkpt>
      <trkpt lat="43.36846" lon="5.78016">
        <ele>410.14</ele>
        <time>2019-01-06T13:22:28Z</time>
      </trkpt>
      <trkpt lat="43.36852" lon="5.78027">
        <ele>408.7</ele>
        <time>2019-01-06T13:22:44Z</time>
      </trkpt>
      <trkpt lat="43.36853" lon="5.78032">
        <ele>408.22</ele>
        <time>2019-01-06T13:22:47Z</time>
      </trkpt>
      <trkpt lat="43.36862" lon="5.7805">
        <ele>405.81</ele>
        <time>2019-01-06T13:23:07Z</time>
      </trkpt>
      <trkpt lat="43.36862" lon="5.78066">
        <ele>404.85</ele>
        <time>2019-01-06T13:23:20Z</time>
      </trkpt>
      <trkpt lat="43.36854" lon="5.78078">
        <ele>404.37</ele>
        <time>2019-01-06T13:23:29Z</time>
      </trkpt>
      <trkpt lat="43.36837" lon="5.78097">
        <ele>404.37</ele>
        <time>2019-01-06T13:23:49Z</time>
      </trkpt>
      <trkpt lat="43.36824" lon="5.78108">
        <ele>405.81</ele>
        <time>2019-01-06T13:24:05Z</time>
      </trkpt>
      <trkpt lat="43.36805" lon="5.7811">
        <ele>406.77</ele>
        <time>2019-01-06T13:24:24Z</time>
      </trkpt>
      <trkpt lat="43.36798" lon="5.7811">
        <ele>406.77</ele>
        <time>2019-01-06T13:24:32Z</time>
      </trkpt>
      <trkpt lat="43.36772" lon="5.78105">
        <ele>407.26</ele>
        <time>2019-01-06T13:24:55Z</time>
      </trkpt>
      <trkpt lat="43.36746" lon="5.78102">
        <ele>407.74</ele>
        <time>2019-01-06T13:25:16Z</time>
      </trkpt>
      <trkpt lat="43.36719" lon="5.78099">
        <ele>408.22</ele>
        <time>2019-01-06T13:25:36Z</time>
      </trkpt>
      <trkpt lat="43.36702" lon="5.78093">
        <ele>408.7</ele>
        <time>2019-01-06T13:25:54Z</time>
      </trkpt>
      <trkpt lat="43.36679" lon="5.78079">
        <ele>410.62</ele>
        <time>2019-01-06T13:26:15Z</time>
      </trkpt>
      <trkpt lat="43.36662" lon="5.78071">
        <ele>411.58</ele>
        <time>2019-01-06T13:26:36Z</time>
      </trkpt>
      <trkpt lat="43.36646" lon="5.78075">
        <ele>413.5</ele>
        <time>2019-01-06T13:26:56Z</time>
      </trkpt>
      <trkpt lat="43.36623" lon="5.78073">
        <ele>413.98</ele>
        <time>2019-01-06T13:27:16Z</time>
      </trkpt>
      <trkpt lat="43.36601" lon="5.78072">
        <ele>414.47</ele>
        <time>2019-01-06T13:27:35Z</time>
      </trkpt>
      <trkpt lat="43.36595" lon="5.78072">
        <ele>414.95</ele>
        <time>2019-01-06T13:27:48Z</time>
      </trkpt>
      <trkpt lat="43.36589" lon="5.78073">
        <ele>414.95</ele>
        <time>2019-01-06T13:27:53Z</time>
      </trkpt>
      <trkpt lat="43.36579" lon="5.78065">
        <ele>414.95</ele>
        <time>2019-01-06T13:28:03Z</time>
      </trkpt>
      <trkpt lat="43.36574" lon="5.78053">
        <ele>415.43</ele>
        <time>2019-01-06T13:28:05Z</time>
      </trkpt>
      <trkpt lat="43.36553" lon="5.78038">
        <ele>415.91</ele>
        <time>2019-01-06T13:28:24Z</time>
      </trkpt>
      <trkpt lat="43.3655" lon="5.78036">
        <ele>416.39</ele>
        <time>2019-01-06T13:28:27Z</time>
      </trkpt>
      <trkpt lat="43.36542" lon="5.7803">
        <ele>416.39</ele>
        <time>2019-01-06T13:28:37Z</time>
      </trkpt>
      <trkpt lat="43.36537" lon="5.78026">
        <ele>417.35</ele>
        <time>2019-01-06T13:28:44Z</time>
      </trkpt>
      <trkpt lat="43.36532" lon="5.7802">
        <ele>417.83</ele>
        <time>2019-01-06T13:28:51Z</time>
      </trkpt>
      <trkpt lat="43.3653" lon="5.78017">
        <ele>417.83</ele>
        <time>2019-01-06T13:28:54Z</time>
      </trkpt>
      <trkpt lat="43.36528" lon="5.78015">
        <ele>417.83</ele>
        <time>2019-01-06T13:28:57Z</time>
      </trkpt>
      <trkpt lat="43.36522" lon="5.78009">
        <ele>418.79</ele>
        <time>2019-01-06T13:29:05Z</time>
      </trkpt>
      <trkpt lat="43.3652" lon="5.78007">
        <ele>419.27</ele>
        <time>2019-01-06T13:29:08Z</time>
      </trkpt>
      <trkpt lat="43.3651" lon="5.77996">
        <ele>421.19</ele>
        <time>2019-01-06T13:29:30Z</time>
      </trkpt>
      <trkpt lat="43.36501" lon="5.77993">
        <ele>424.56</ele>
        <time>2019-01-06T13:29:46Z</time>
      </trkpt>
      <trkpt lat="43.36499" lon="5.77992">
        <ele>424.56</ele>
        <time>2019-01-06T13:29:48Z</time>
      </trkpt>
      <trkpt lat="43.36485" lon="5.77974">
        <ele>426</ele>
        <time>2019-01-06T13:30:09Z</time>
      </trkpt>
      <trkpt lat="43.36477" lon="5.77955">
        <ele>428.4</ele>
        <time>2019-01-06T13:30:28Z</time>
      </trkpt>
      <trkpt lat="43.36467" lon="5.77954">
        <ele>429.37</ele>
        <time>2019-01-06T13:30:46Z</time>
      </trkpt>
      <trkpt lat="43.36455" lon="5.77955">
        <ele>430.81</ele>
        <time>2019-01-06T13:31:03Z</time>
      </trkpt>
      <trkpt lat="43.36443" lon="5.77941">
        <ele>434.17</ele>
        <time>2019-01-06T13:31:22Z</time>
      </trkpt>
      <trkpt lat="43.36436" lon="5.77934">
        <ele>434.17</ele>
        <time>2019-01-06T13:31:31Z</time>
      </trkpt>
      <trkpt lat="43.36415" lon="5.77916">
        <ele>435.13</ele>
        <time>2019-01-06T13:31:44Z</time>
      </trkpt>
      <trkpt lat="43.36404" lon="5.77903">
        <ele>436.58</ele>
        <time>2019-01-06T13:31:59Z</time>
      </trkpt>
      <trkpt lat="43.36394" lon="5.77892">
        <ele>437.06</ele>
        <time>2019-01-06T13:32:15Z</time>
      </trkpt>
      <trkpt lat="43.36384" lon="5.77884">
        <ele>438.02</ele>
        <time>2019-01-06T13:32:30Z</time>
      </trkpt>
      <trkpt lat="43.36378" lon="5.77881">
        <ele>438.5</ele>
        <time>2019-01-06T13:32:39Z</time>
      </trkpt>
      <trkpt lat="43.36374" lon="5.77878">
        <ele>438.98</ele>
        <time>2019-01-06T13:32:44Z</time>
      </trkpt>
      <trkpt lat="43.36361" lon="5.77865">
        <ele>439.94</ele>
        <time>2019-01-06T13:33:00Z</time>
      </trkpt>
      <trkpt lat="43.36353" lon="5.77856">
        <ele>439.94</ele>
        <time>2019-01-06T13:33:09Z</time>
      </trkpt>
      <trkpt lat="43.36349" lon="5.77854">
        <ele>439.94</ele>
        <time>2019-01-06T13:33:12Z</time>
      </trkpt>
      <trkpt lat="43.36348" lon="5.77852">
        <ele>439.94</ele>
        <time>2019-01-06T13:33:13Z</time>
      </trkpt>
      <trkpt lat="43.36345" lon="5.77849">
        <ele>439.94</ele>
        <time>2019-01-06T13:33:18Z</time>
      </trkpt>
      <trkpt lat="43.36343" lon="5.77848">
        <ele>439.94</ele>
        <time>2019-01-06T13:33:19Z</time>
      </trkpt>
      <trkpt lat="43.36338" lon="5.77845">
        <ele>439.94</ele>
        <time>2019-01-06T13:33:24Z</time>
      </trkpt>
      <trkpt lat="43.36337" lon="5.77844">
        <ele>439.94</ele>
        <time>2019-01-06T13:33:25Z</time>
      </trkpt>
      <trkpt lat="43.3633" lon="5.77842">
        <ele>439.94</ele>
        <time>2019-01-06T13:33:33Z</time>
      </trkpt>
      <trkpt lat="43.36329" lon="5.77843">
        <ele>439.94</ele>
        <time>2019-01-06T13:33:34Z</time>
      </trkpt>
      <trkpt lat="43.36327" lon="5.77844">
        <ele>439.94</ele>
        <time>2019-01-06T13:33:36Z</time>
      </trkpt>
      <trkpt lat="43.36326" lon="5.77843">
        <ele>439.94</ele>
        <time>2019-01-06T13:33:37Z</time>
      </trkpt>
      <trkpt lat="43.36315" lon="5.7784">
        <ele>440.42</ele>
        <time>2019-01-06T13:33:50Z</time>
      </trkpt>
      <trkpt lat="43.36305" lon="5.77839">
        <ele>440.9</ele>
        <time>2019-01-06T13:34:00Z</time>
      </trkpt>
      <trkpt lat="43.36302" lon="5.77839">
        <ele>440.9</ele>
        <time>2019-01-06T13:34:02Z</time>
      </trkpt>
      <trkpt lat="43.363" lon="5.77839">
        <ele>440.9</ele>
        <time>2019-01-06T13:34:04Z</time>
      </trkpt>
      <trkpt lat="43.36299" lon="5.77839">
        <ele>440.9</ele>
        <time>2019-01-06T13:34:05Z</time>
      </trkpt>
      <trkpt lat="43.36298" lon="5.77838">
        <ele>440.9</ele>
        <time>2019-01-06T13:34:06Z</time>
      </trkpt>
      <trkpt lat="43.36296" lon="5.77838">
        <ele>440.9</ele>
        <time>2019-01-06T13:34:07Z</time>
      </trkpt>
      <trkpt lat="43.36295" lon="5.77838">
        <ele>440.9</ele>
        <time>2019-01-06T13:34:08Z</time>
      </trkpt>
      <trkpt lat="43.36283" lon="5.77839">
        <ele>441.86</ele>
        <time>2019-01-06T13:34:20Z</time>
      </trkpt>
      <trkpt lat="43.36269" lon="5.77841">
        <ele>441.86</ele>
        <time>2019-01-06T13:34:36Z</time>
      </trkpt>
      <trkpt lat="43.36266" lon="5.77842">
        <ele>441.86</ele>
        <time>2019-01-06T13:34:40Z</time>
      </trkpt>
      <trkpt lat="43.36265" lon="5.77843">
        <ele>441.86</ele>
        <time>2019-01-06T13:34:41Z</time>
      </trkpt>
      <trkpt lat="43.36262" lon="5.77843">
        <ele>441.86</ele>
        <time>2019-01-06T13:34:44Z</time>
      </trkpt>
      <trkpt lat="43.36261" lon="5.77844">
        <ele>441.86</ele>
        <time>2019-01-06T13:34:45Z</time>
      </trkpt>
      <trkpt lat="43.36259" lon="5.77844">
        <ele>441.86</ele>
        <time>2019-01-06T13:34:46Z</time>
      </trkpt>
      <trkpt lat="43.36248" lon="5.77847">
        <ele>442.82</ele>
        <time>2019-01-06T13:34:58Z</time>
      </trkpt>
      <trkpt lat="43.36237" lon="5.77847">
        <ele>442.82</ele>
        <time>2019-01-06T13:35:11Z</time>
      </trkpt>
      <trkpt lat="43.36234" lon="5.77846">
        <ele>442.82</ele>
        <time>2019-01-06T13:35:34Z</time>
      </trkpt>
      <trkpt lat="43.36233" lon="5.77849">
        <ele>442.82</ele>
        <time>2019-01-06T13:35:42Z</time>
      </trkpt>
      <trkpt lat="43.36216" lon="5.77857">
        <ele>442.82</ele>
        <time>2019-01-06T13:36:26Z</time>
      </trkpt>
      <trkpt lat="43.36209" lon="5.77867">
        <ele>441.86</ele>
        <time>2019-01-06T13:36:39Z</time>
      </trkpt>
      <trkpt lat="43.36196" lon="5.77869">
        <ele>441.38</ele>
        <time>2019-01-06T13:36:51Z</time>
      </trkpt>
      <trkpt lat="43.36185" lon="5.77869">
        <ele>441.38</ele>
        <time>2019-01-06T13:37:04Z</time>
      </trkpt>
      <trkpt lat="43.36181" lon="5.77871">
        <ele>441.38</ele>
        <time>2019-01-06T13:37:08Z</time>
      </trkpt>
      <trkpt lat="43.36174" lon="5.77874">
        <ele>441.38</ele>
        <time>2019-01-06T13:37:17Z</time>
      </trkpt>
      <trkpt lat="43.36168" lon="5.77876">
        <ele>443.31</ele>
        <time>2019-01-06T13:37:23Z</time>
      </trkpt>
      <trkpt lat="43.36153" lon="5.77878">
        <ele>443.31</ele>
        <time>2019-01-06T13:37:37Z</time>
      </trkpt>
      <trkpt lat="43.36136" lon="5.77887">
        <ele>443.31</ele>
        <time>2019-01-06T13:37:59Z</time>
      </trkpt>
      <trkpt lat="43.36135" lon="5.77887">
        <ele>443.31</ele>
        <time>2019-01-06T13:38:00Z</time>
      </trkpt>
      <trkpt lat="43.36125" lon="5.779">
        <ele>441.86</ele>
        <time>2019-01-06T13:38:20Z</time>
      </trkpt>
      <trkpt lat="43.36112" lon="5.77908">
        <ele>439.46</ele>
        <time>2019-01-06T13:38:43Z</time>
      </trkpt>
      <trkpt lat="43.36097" lon="5.77911">
        <ele>437.54</ele>
        <time>2019-01-06T13:39:01Z</time>
      </trkpt>
      <trkpt lat="43.36074" lon="5.77907">
        <ele>435.13</ele>
        <time>2019-01-06T13:39:22Z</time>
      </trkpt>
      <trkpt lat="43.36066" lon="5.77896">
        <ele>433.69</ele>
        <time>2019-01-06T13:39:41Z</time>
      </trkpt>
      <trkpt lat="43.36047" lon="5.77876">
        <ele>432.25</ele>
        <time>2019-01-06T13:40:07Z</time>
      </trkpt>
      <trkpt lat="43.36035" lon="5.77855">
        <ele>430.33</ele>
        <time>2019-01-06T13:40:29Z</time>
      </trkpt>
      <trkpt lat="43.36018" lon="5.77847">
        <ele>427.92</ele>
        <time>2019-01-06T13:40:51Z</time>
      </trkpt>
      <trkpt lat="43.36008" lon="5.77842">
        <ele>426.48</ele>
        <time>2019-01-06T13:41:10Z</time>
      </trkpt>
      <trkpt lat="43.36003" lon="5.77821">
        <ele>426.48</ele>
        <time>2019-01-06T13:41:29Z</time>
      </trkpt>
      <trkpt lat="43.3599" lon="5.77804">
        <ele>426.48</ele>
        <time>2019-01-06T13:41:50Z</time>
      </trkpt>
      <trkpt lat="43.3598" lon="5.77796">
        <ele>426.48</ele>
        <time>2019-01-06T13:42:10Z</time>
      </trkpt>
      <trkpt lat="43.35971" lon="5.77787">
        <ele>426.48</ele>
        <time>2019-01-06T13:42:29Z</time>
      </trkpt>
      <trkpt lat="43.35952" lon="5.77772">
        <ele>426</ele>
        <time>2019-01-06T13:42:49Z</time>
      </trkpt>
      <trkpt lat="43.35939" lon="5.77762">
        <ele>426</ele>
        <time>2019-01-06T13:43:05Z</time>
      </trkpt>
      <trkpt lat="43.3592" lon="5.77752">
        <ele>426</ele>
        <time>2019-01-06T13:43:21Z</time>
      </trkpt>
      <trkpt lat="43.35905" lon="5.77742">
        <ele>425.04</ele>
        <time>2019-01-06T13:43:40Z</time>
      </trkpt>
      <trkpt lat="43.35888" lon="5.77729">
        <ele>423.6</ele>
        <time>2019-01-06T13:44:00Z</time>
      </trkpt>
      <trkpt lat="43.35871" lon="5.77726">
        <ele>423.6</ele>
        <time>2019-01-06T13:44:19Z</time>
      </trkpt>
      <trkpt lat="43.3586" lon="5.77727">
        <ele>423.6</ele>
        <time>2019-01-06T13:44:38Z</time>
      </trkpt>
      <trkpt lat="43.35857" lon="5.77723">
        <ele>423.6</ele>
        <time>2019-01-06T13:44:55Z</time>
      </trkpt>
      <trkpt lat="43.35848" lon="5.77722">
        <ele>423.6</ele>
        <time>2019-01-06T13:45:09Z</time>
      </trkpt>
      <trkpt lat="43.35845" lon="5.77721">
        <ele>423.6</ele>
        <time>2019-01-06T13:45:12Z</time>
      </trkpt>
      <trkpt lat="43.35826" lon="5.77716">
        <ele>423.6</ele>
        <time>2019-01-06T13:45:30Z</time>
      </trkpt>
      <trkpt lat="43.35816" lon="5.77712">
        <ele>423.12</ele>
        <time>2019-01-06T13:45:48Z</time>
      </trkpt>
      <trkpt lat="43.35801" lon="5.77711">
        <ele>423.6</ele>
        <time>2019-01-06T13:46:05Z</time>
      </trkpt>
      <trkpt lat="43.35791" lon="5.77709">
        <ele>423.6</ele>
        <time>2019-01-06T13:46:22Z</time>
      </trkpt>
      <trkpt lat="43.35788" lon="5.77707">
        <ele>424.08</ele>
        <time>2019-01-06T13:46:34Z</time>
      </trkpt>
      <trkpt lat="43.35774" lon="5.77708">
        <ele>424.56</ele>
        <time>2019-01-06T13:46:54Z</time>
      </trkpt>
      <trkpt lat="43.35762" lon="5.77703">
        <ele>426</ele>
        <time>2019-01-06T13:47:14Z</time>
      </trkpt>
      <trkpt lat="43.35743" lon="5.77698">
        <ele>427.44</ele>
        <time>2019-01-06T13:47:34Z</time>
      </trkpt>
      <trkpt lat="43.35732" lon="5.77696">
        <ele>426</ele>
        <time>2019-01-06T13:47:44Z</time>
      </trkpt>
      <trkpt lat="43.35721" lon="5.77702">
        <ele>424.08</ele>
        <time>2019-01-06T13:48:06Z</time>
      </trkpt>
      <trkpt lat="43.35711" lon="5.77705">
        <ele>422.64</ele>
        <time>2019-01-06T13:48:27Z</time>
      </trkpt>
      <trkpt lat="43.35701" lon="5.77713">
        <ele>421.68</ele>
        <time>2019-01-06T13:48:38Z</time>
      </trkpt>
      <trkpt lat="43.35696" lon="5.77728">
        <ele>420.23</ele>
        <time>2019-01-06T13:48:54Z</time>
      </trkpt>
      <trkpt lat="43.3569" lon="5.77758">
        <ele>419.75</ele>
        <time>2019-01-06T13:49:15Z</time>
      </trkpt>
      <trkpt lat="43.35677" lon="5.77772">
        <ele>419.27</ele>
        <time>2019-01-06T13:49:35Z</time>
      </trkpt>
      <trkpt lat="43.35654" lon="5.7777">
        <ele>419.75</ele>
        <time>2019-01-06T13:49:53Z</time>
      </trkpt>
      <trkpt lat="43.35647" lon="5.77768">
        <ele>420.71</ele>
        <time>2019-01-06T13:49:55Z</time>
      </trkpt>
      <trkpt lat="43.35639" lon="5.77763">
        <ele>420.71</ele>
        <time>2019-01-06T13:50:00Z</time>
      </trkpt>
      <trkpt lat="43.35628" lon="5.77759">
        <ele>419.75</ele>
        <time>2019-01-06T13:50:15Z</time>
      </trkpt>
      <trkpt lat="43.35613" lon="5.77747">
        <ele>419.75</ele>
        <time>2019-01-06T13:50:32Z</time>
      </trkpt>
      <trkpt lat="43.35604" lon="5.77744">
        <ele>419.75</ele>
        <time>2019-01-06T13:50:41Z</time>
      </trkpt>
      <trkpt lat="43.35604" lon="5.77743">
        <ele>419.75</ele>
        <time>2019-01-06T13:50:43Z</time>
      </trkpt>
      <trkpt lat="43.35595" lon="5.77735">
        <ele>418.79</ele>
        <time>2019-01-06T13:50:52Z</time>
      </trkpt>
      <trkpt lat="43.3559" lon="5.77733">
        <ele>417.83</ele>
        <time>2019-01-06T13:51:02Z</time>
      </trkpt>
      <trkpt lat="43.3558" lon="5.77734">
        <ele>416.87</ele>
        <time>2019-01-06T13:51:14Z</time>
      </trkpt>
      <trkpt lat="43.35578" lon="5.77733">
        <ele>416.87</ele>
        <time>2019-01-06T13:51:15Z</time>
      </trkpt>
      <trkpt lat="43.35564" lon="5.77719">
        <ele>416.39</ele>
        <time>2019-01-06T13:51:35Z</time>
      </trkpt>
      <trkpt lat="43.35554" lon="5.77719">
        <ele>415.43</ele>
        <time>2019-01-06T13:51:51Z</time>
      </trkpt>
      <trkpt lat="43.35531" lon="5.77715">
        <ele>417.35</ele>
        <time>2019-01-06T13:52:09Z</time>
      </trkpt>
      <trkpt lat="43.35518" lon="5.77728">
        <ele>417.35</ele>
        <time>2019-01-06T13:52:30Z</time>
      </trkpt>
      <trkpt lat="43.35511" lon="5.77733">
        <ele>416.39</ele>
        <time>2019-01-06T13:52:39Z</time>
      </trkpt>
      <trkpt lat="43.355" lon="5.77739">
        <ele>415.91</ele>
        <time>2019-01-06T13:52:54Z</time>
      </trkpt>
      <trkpt lat="43.35489" lon="5.77736">
        <ele>415.43</ele>
        <time>2019-01-06T13:53:13Z</time>
      </trkpt>
    </trkseg>
  </trk>
  <trk>
    <name><![CDATA[2019-03-10-VTT_FRED_LES BATAILLOLES]]></name>
    <trkseg>
      <trkpt lat="43.43961" lon="5.86025">
        <ele>391.87</ele>
        <time>2019-02-24T11:00:32Z</time>
      </trkpt>
      <trkpt lat="43.43961" lon="5.86025">
        <ele>391.87</ele>
        <time>2019-02-24T11:00:33Z</time>
      </trkpt>
      <trkpt lat="43.43961" lon="5.86023">
        <ele>391.87</ele>
        <time>2019-02-24T11:00:36Z</time>
      </trkpt>
      <trkpt lat="43.43901" lon="5.86018">
        <ele>367.36</ele>
        <time>2019-02-24T11:03:48Z</time>
      </trkpt>
      <trkpt lat="43.43959" lon="5.8603">
        <ele>367.36</ele>
        <time>2019-02-24T11:03:59Z</time>
      </trkpt>
      <trkpt lat="43.43966" lon="5.86028">
        <ele>291.42</ele>
        <time>2019-03-03T16:53:21Z</time>
      </trkpt>
      <trkpt lat="43.43959" lon="5.86023">
        <ele>295.74</ele>
        <time>2019-03-03T16:53:30Z</time>
      </trkpt>
      <trkpt lat="43.43958" lon="5.86023">
        <ele>300.07</ele>
        <time>2019-03-03T16:53:32Z</time>
      </trkpt>
      <trkpt lat="43.43957" lon="5.86023">
        <ele>303.91</ele>
        <time>2019-03-03T16:53:34Z</time>
      </trkpt>
      <trkpt lat="43.43957" lon="5.86023">
        <ele>307.28</ele>
        <time>2019-03-03T16:53:35Z</time>
      </trkpt>
      <trkpt lat="43.43955" lon="5.86024">
        <ele>310.64</ele>
        <time>2019-03-03T16:53:37Z</time>
      </trkpt>
      <trkpt lat="43.43955" lon="5.86024">
        <ele>310.64</ele>
        <time>2019-03-03T16:53:38Z</time>
      </trkpt>
      <trkpt lat="43.43955" lon="5.86023">
        <ele>313.53</ele>
        <time>2019-03-03T16:53:40Z</time>
      </trkpt>
      <trkpt lat="43.43955" lon="5.86023">
        <ele>317.85</ele>
        <time>2019-03-03T16:53:43Z</time>
      </trkpt>
      <trkpt lat="43.43955" lon="5.86022">
        <ele>321.7</ele>
        <time>2019-03-03T16:53:46Z</time>
      </trkpt>
      <trkpt lat="43.43955" lon="5.86022">
        <ele>325.06</ele>
        <time>2019-03-03T16:53:49Z</time>
      </trkpt>
      <trkpt lat="43.43955" lon="5.86022">
        <ele>328.43</ele>
        <time>2019-03-03T16:53:52Z</time>
      </trkpt>
      <trkpt lat="43.43956" lon="5.86023">
        <ele>332.75</ele>
        <time>2019-03-03T16:53:56Z</time>
      </trkpt>
      <trkpt lat="43.43956" lon="5.86023">
        <ele>332.75</ele>
        <time>2019-03-03T16:53:57Z</time>
      </trkpt>
      <trkpt lat="43.43957" lon="5.86023">
        <ele>334.68</ele>
        <time>2019-03-03T16:53:59Z</time>
      </trkpt>
      <trkpt lat="43.43958" lon="5.86023">
        <ele>339</ele>
        <time>2019-03-03T16:54:04Z</time>
      </trkpt>
      <trkpt lat="43.43958" lon="5.86023">
        <ele>339</ele>
        <time>2019-03-03T16:54:05Z</time>
      </trkpt>
      <trkpt lat="43.43959" lon="5.86023">
        <ele>339.96</ele>
        <time>2019-03-03T16:54:07Z</time>
      </trkpt>
      <trkpt lat="43.4396" lon="5.86023">
        <ele>343.33</ele>
        <time>2019-03-03T16:54:13Z</time>
      </trkpt>
      <trkpt lat="43.43959" lon="5.86024">
        <ele>346.69</ele>
        <time>2019-03-03T16:54:21Z</time>
      </trkpt>
      <trkpt lat="43.43961" lon="5.86027">
        <ele>349.58</ele>
        <time>2019-03-03T16:54:30Z</time>
      </trkpt>
      <trkpt lat="43.43959" lon="5.86029">
        <ele>352.94</ele>
        <time>2019-03-03T16:54:47Z</time>
      </trkpt>
      <trkpt lat="43.43962" lon="5.86031">
        <ele>355.34</ele>
        <time>2019-03-03T16:55:20Z</time>
      </trkpt>
      <trkpt lat="43.4396" lon="5.86028">
        <ele>355.83</ele>
        <time>2019-03-03T16:55:52Z</time>
      </trkpt>
      <trkpt lat="43.43959" lon="5.86025">
        <ele>355.83</ele>
        <time>2019-03-03T16:56:11Z</time>
      </trkpt>
      <trkpt lat="43.43957" lon="5.86026">
        <ele>355.83</ele>
        <time>2019-03-03T16:56:39Z</time>
      </trkpt>
      <trkpt lat="43.43961" lon="5.86021">
        <ele>355.83</ele>
        <time>2019-03-03T16:57:12Z</time>
      </trkpt>
      <trkpt lat="43.4396" lon="5.86022">
        <ele>355.83</ele>
        <time>2019-03-03T16:57:38Z</time>
      </trkpt>
      <trkpt lat="43.43959" lon="5.86021">
        <ele>355.83</ele>
        <time>2019-03-03T16:58:10Z</time>
      </trkpt>
      <trkpt lat="43.43962" lon="5.86021">
        <ele>355.83</ele>
        <time>2019-03-03T16:58:40Z</time>
      </trkpt>
      <trkpt lat="43.4396" lon="5.86024">
        <ele>355.83</ele>
        <time>2019-03-03T16:59:11Z</time>
      </trkpt>
      <trkpt lat="43.43959" lon="5.86025">
        <ele>355.83</ele>
        <time>2019-03-03T16:59:38Z</time>
      </trkpt>
      <trkpt lat="43.4396" lon="5.86026">
        <ele>355.83</ele>
        <time>2019-03-03T16:59:59Z</time>
      </trkpt>
      <trkpt lat="43.43955" lon="5.86031">
        <ele>356.31</ele>
        <time>2019-03-03T17:00:21Z</time>
      </trkpt>
      <trkpt lat="43.43958" lon="5.86029">
        <ele>356.31</ele>
        <time>2019-03-03T17:00:45Z</time>
      </trkpt>
      <trkpt lat="43.43957" lon="5.86029">
        <ele>356.31</ele>
        <time>2019-03-03T17:01:11Z</time>
      </trkpt>
      <trkpt lat="43.43957" lon="5.86028">
        <ele>356.31</ele>
        <time>2019-03-03T17:01:32Z</time>
      </trkpt>
      <trkpt lat="43.4396" lon="5.86025">
        <ele>356.31</ele>
        <time>2019-03-03T17:01:51Z</time>
      </trkpt>
      <trkpt lat="43.43959" lon="5.86018">
        <ele>356.79</ele>
        <time>2019-03-03T17:05:36Z</time>
      </trkpt>
      <trkpt lat="43.43961" lon="5.86025">
        <ele>356.79</ele>
        <time>2019-03-03T17:06:09Z</time>
      </trkpt>
      <trkpt lat="43.4396" lon="5.86022">
        <ele>356.79</ele>
        <time>2019-03-03T17:06:41Z</time>
      </trkpt>
      <trkpt lat="43.43959" lon="5.8602">
        <ele>356.79</ele>
        <time>2019-03-03T17:07:13Z</time>
      </trkpt>
      <trkpt lat="43.4396" lon="5.86017">
        <ele>356.79</ele>
        <time>2019-03-03T17:07:41Z</time>
      </trkpt>
      <trkpt lat="43.4396" lon="5.86022">
        <ele>356.79</ele>
        <time>2019-03-03T17:08:06Z</time>
      </trkpt>
      <trkpt lat="43.4397" lon="5.86027">
        <ele>356.79</ele>
        <time>2019-03-03T17:09:52Z</time>
      </trkpt>
      <trkpt lat="43.43966" lon="5.86023">
        <ele>356.79</ele>
        <time>2019-03-03T17:10:18Z</time>
      </trkpt>
      <trkpt lat="43.43969" lon="5.86021">
        <ele>356.79</ele>
        <time>2019-03-03T17:10:37Z</time>
      </trkpt>
      <trkpt lat="43.43974" lon="5.86016">
        <ele>356.79</ele>
        <time>2019-03-03T17:11:06Z</time>
      </trkpt>
      <trkpt lat="43.43969" lon="5.86016">
        <ele>356.79</ele>
        <time>2019-03-03T17:11:31Z</time>
      </trkpt>
      <trkpt lat="43.43968" lon="5.86022">
        <ele>356.31</ele>
        <time>2019-03-03T17:11:58Z</time>
      </trkpt>
      <trkpt lat="43.43975" lon="5.86018">
        <ele>356.31</ele>
        <time>2019-03-03T17:12:28Z</time>
      </trkpt>
      <trkpt lat="43.4398" lon="5.86019">
        <ele>356.31</ele>
        <time>2019-03-03T17:12:47Z</time>
      </trkpt>
      <trkpt lat="43.43983" lon="5.86023">
        <ele>356.31</ele>
        <time>2019-03-03T17:12:55Z</time>
      </trkpt>
      <trkpt lat="43.43992" lon="5.86016">
        <ele>356.79</ele>
        <time>2019-03-03T17:13:14Z</time>
      </trkpt>
      <trkpt lat="43.43963" lon="5.8602">
        <ele>356.79</ele>
        <time>2019-03-03T17:13:26Z</time>
      </trkpt>
      <trkpt lat="43.43959" lon="5.8602">
        <ele>356.79</ele>
        <time>2019-03-03T17:13:48Z</time>
      </trkpt>
      <trkpt lat="43.43959" lon="5.86018">
        <ele>356.79</ele>
        <time>2019-03-03T17:14:09Z</time>
      </trkpt>
      <trkpt lat="43.43959" lon="5.8602">
        <ele>356.31</ele>
        <time>2019-03-03T17:14:45Z</time>
      </trkpt>
      <trkpt lat="43.43961" lon="5.86024">
        <ele>356.31</ele>
        <time>2019-03-03T17:15:01Z</time>
      </trkpt>
      <trkpt lat="43.43967" lon="5.8602">
        <ele>356.31</ele>
        <time>2019-03-03T17:15:18Z</time>
      </trkpt>
      <trkpt lat="43.43968" lon="5.86018">
        <ele>354.86</ele>
        <time>2019-03-03T17:15:27Z</time>
      </trkpt>
      <trkpt lat="43.43967" lon="5.86016">
        <ele>354.86</ele>
        <time>2019-03-03T17:15:44Z</time>
      </trkpt>
      <trkpt lat="43.43968" lon="5.86016">
        <ele>354.86</ele>
        <time>2019-03-03T17:16:04Z</time>
      </trkpt>
      <trkpt lat="43.43968" lon="5.86015">
        <ele>354.38</ele>
        <time>2019-03-03T17:16:25Z</time>
      </trkpt>
      <trkpt lat="43.43963" lon="5.86021">
        <ele>354.38</ele>
        <time>2019-03-03T17:16:45Z</time>
      </trkpt>
      <trkpt lat="43.43961" lon="5.86027">
        <ele>354.38</ele>
        <time>2019-03-03T17:17:13Z</time>
      </trkpt>
      <trkpt lat="43.43959" lon="5.86027">
        <ele>354.38</ele>
        <time>2019-03-03T17:17:52Z</time>
      </trkpt>
      <trkpt lat="43.43959" lon="5.86027">
        <ele>354.38</ele>
        <time>2019-03-03T17:18:31Z</time>
      </trkpt>
      <trkpt lat="43.43959" lon="5.86025">
        <ele>354.38</ele>
        <time>2019-03-03T17:18:51Z</time>
      </trkpt>
      <trkpt lat="43.43961" lon="5.86024">
        <ele>354.38</ele>
        <time>2019-03-03T17:19:19Z</time>
      </trkpt>
      <trkpt lat="43.43961" lon="5.86026">
        <ele>354.38</ele>
        <time>2019-03-03T17:19:44Z</time>
      </trkpt>
      <trkpt lat="43.4396" lon="5.86029">
        <ele>354.86</ele>
        <time>2019-03-03T17:20:16Z</time>
      </trkpt>
      <trkpt lat="43.43961" lon="5.8603">
        <ele>354.86</ele>
        <time>2019-03-03T17:20:52Z</time>
      </trkpt>
      <trkpt lat="43.4396" lon="5.86027">
        <ele>354.86</ele>
        <time>2019-03-03T17:21:19Z</time>
      </trkpt>
      <trkpt lat="43.4396" lon="5.86024">
        <ele>355.34</ele>
        <time>2019-03-03T17:21:44Z</time>
      </trkpt>
      <trkpt lat="43.43961" lon="5.86025">
        <ele>355.34</ele>
        <time>2019-03-03T17:22:23Z</time>
      </trkpt>
      <trkpt lat="43.4396" lon="5.86027">
        <ele>354.86</ele>
        <time>2019-03-03T17:23:02Z</time>
      </trkpt>
      <trkpt lat="43.43963" lon="5.86026">
        <ele>354.86</ele>
        <time>2019-03-03T17:23:41Z</time>
      </trkpt>
      <trkpt lat="43.43959" lon="5.86025">
        <ele>354.86</ele>
        <time>2019-03-03T17:24:18Z</time>
      </trkpt>
      <trkpt lat="43.43965" lon="5.86024">
        <ele>354.86</ele>
        <time>2019-03-03T17:25:00Z</time>
      </trkpt>
      <trkpt lat="43.43961" lon="5.86024">
        <ele>354.86</ele>
        <time>2019-03-03T17:25:32Z</time>
      </trkpt>
      <trkpt lat="43.43958" lon="5.86019">
        <ele>354.86</ele>
        <time>2019-03-03T17:26:02Z</time>
      </trkpt>
      <trkpt lat="43.43962" lon="5.86025">
        <ele>354.86</ele>
        <time>2019-03-03T17:26:32Z</time>
      </trkpt>
      <trkpt lat="43.43961" lon="5.86023">
        <ele>354.86</ele>
        <time>2019-03-03T17:27:01Z</time>
      </trkpt>
      <trkpt lat="43.43961" lon="5.86024">
        <ele>354.86</ele>
        <time>2019-03-03T17:27:28Z</time>
      </trkpt>
      <trkpt lat="43.43959" lon="5.86025">
        <ele>354.86</ele>
        <time>2019-03-03T17:27:56Z</time>
      </trkpt>
      <trkpt lat="43.43958" lon="5.86026">
        <ele>354.86</ele>
        <time>2019-03-03T17:28:32Z</time>
      </trkpt>
      <trkpt lat="43.43958" lon="5.86025">
        <ele>354.86</ele>
        <time>2019-03-03T17:29:01Z</time>
      </trkpt>
      <trkpt lat="43.43957" lon="5.86027">
        <ele>354.86</ele>
        <time>2019-03-03T17:29:28Z</time>
      </trkpt>
      <trkpt lat="43.43957" lon="5.86028">
        <ele>354.86</ele>
        <time>2019-03-03T17:29:35Z</time>
      </trkpt>
      <trkpt lat="43.4396" lon="5.86027">
        <ele>355.83</ele>
        <time>2019-03-03T17:29:52Z</time>
      </trkpt>
      <trkpt lat="43.43963" lon="5.86025">
        <ele>355.83</ele>
        <time>2019-03-03T17:30:29Z</time>
      </trkpt>
      <trkpt lat="43.43965" lon="5.86024">
        <ele>356.31</ele>
        <time>2019-03-03T17:31:02Z</time>
      </trkpt>
      <trkpt lat="43.43964" lon="5.86024">
        <ele>355.83</ele>
        <time>2019-03-03T17:31:33Z</time>
      </trkpt>
      <trkpt lat="43.43962" lon="5.86024">
        <ele>355.83</ele>
        <time>2019-03-03T17:32:07Z</time>
      </trkpt>
      <trkpt lat="43.43959" lon="5.86023">
        <ele>355.83</ele>
        <time>2019-03-03T17:32:37Z</time>
      </trkpt>
      <trkpt lat="43.43958" lon="5.86022">
        <ele>355.83</ele>
        <time>2019-03-03T17:33:09Z</time>
      </trkpt>
      <trkpt lat="43.43962" lon="5.86023">
        <ele>355.83</ele>
        <time>2019-03-03T17:33:46Z</time>
      </trkpt>
      <trkpt lat="43.43962" lon="5.86022">
        <ele>355.83</ele>
        <time>2019-03-03T17:34:18Z</time>
      </trkpt>
      <trkpt lat="43.43962" lon="5.86021">
        <ele>355.83</ele>
        <time>2019-03-03T17:34:57Z</time>
      </trkpt>
      <trkpt lat="43.43963" lon="5.86022">
        <ele>355.34</ele>
        <time>2019-03-03T17:35:34Z</time>
      </trkpt>
      <trkpt lat="43.43964" lon="5.86021">
        <ele>355.34</ele>
        <time>2019-03-03T17:36:16Z</time>
      </trkpt>
      <trkpt lat="43.43965" lon="5.86019">
        <ele>355.34</ele>
        <time>2019-03-03T17:36:46Z</time>
      </trkpt>
      <trkpt lat="43.43963" lon="5.8602">
        <ele>355.34</ele>
        <time>2019-03-03T17:37:23Z</time>
      </trkpt>
      <trkpt lat="43.43967" lon="5.86019">
        <ele>355.83</ele>
        <time>2019-03-03T17:37:50Z</time>
      </trkpt>
      <trkpt lat="43.43967" lon="5.86021">
        <ele>354.38</ele>
        <time>2019-03-03T17:38:29Z</time>
      </trkpt>
      <trkpt lat="43.43966" lon="5.86025">
        <ele>354.38</ele>
        <time>2019-03-03T17:39:02Z</time>
      </trkpt>
      <trkpt lat="43.43967" lon="5.86026">
        <ele>354.86</ele>
        <time>2019-03-03T17:39:36Z</time>
      </trkpt>
      <trkpt lat="43.43965" lon="5.86027">
        <ele>354.86</ele>
        <time>2019-03-03T17:40:14Z</time>
      </trkpt>
      <trkpt lat="43.43964" lon="5.86026">
        <ele>354.86</ele>
        <time>2019-03-03T17:40:46Z</time>
      </trkpt>
      <trkpt lat="43.43963" lon="5.86025">
        <ele>354.86</ele>
        <time>2019-03-03T17:41:19Z</time>
      </trkpt>
      <trkpt lat="43.43963" lon="5.86024">
        <ele>354.86</ele>
        <time>2019-03-03T17:41:54Z</time>
      </trkpt>
      <trkpt lat="43.43961" lon="5.86025">
        <ele>354.86</ele>
        <time>2019-03-03T17:42:27Z</time>
      </trkpt>
      <trkpt lat="43.43963" lon="5.86025">
        <ele>355.34</ele>
        <time>2019-03-03T17:43:00Z</time>
      </trkpt>
      <trkpt lat="43.43963" lon="5.86022">
        <ele>355.34</ele>
        <time>2019-03-03T17:43:30Z</time>
      </trkpt>
      <trkpt lat="43.43963" lon="5.86022">
        <ele>355.34</ele>
        <time>2019-03-03T17:44:00Z</time>
      </trkpt>
      <trkpt lat="43.43962" lon="5.86022">
        <ele>355.34</ele>
        <time>2019-03-03T17:44:31Z</time>
      </trkpt>
      <trkpt lat="43.43962" lon="5.86024">
        <ele>355.34</ele>
        <time>2019-03-03T17:45:06Z</time>
      </trkpt>
      <trkpt lat="43.43963" lon="5.86022">
        <ele>355.34</ele>
        <time>2019-03-03T17:45:45Z</time>
      </trkpt>
      <trkpt lat="43.43963" lon="5.86022">
        <ele>355.34</ele>
        <time>2019-03-03T17:46:17Z</time>
      </trkpt>
      <trkpt lat="43.43963" lon="5.86018">
        <ele>355.34</ele>
        <time>2019-03-03T17:46:50Z</time>
      </trkpt>
      <trkpt lat="43.43963" lon="5.86019">
        <ele>355.83</ele>
        <time>2019-03-03T17:47:23Z</time>
      </trkpt>
      <trkpt lat="43.43962" lon="5.86021">
        <ele>355.83</ele>
        <time>2019-03-03T17:47:59Z</time>
      </trkpt>
      <trkpt lat="43.43961" lon="5.86024">
        <ele>355.34</ele>
        <time>2019-03-03T17:48:31Z</time>
      </trkpt>
      <trkpt lat="43.43962" lon="5.86022">
        <ele>355.34</ele>
        <time>2019-03-03T17:49:06Z</time>
      </trkpt>
      <trkpt lat="43.43963" lon="5.86021">
        <ele>355.34</ele>
        <time>2019-03-03T17:49:34Z</time>
      </trkpt>
      <trkpt lat="43.43968" lon="5.8602">
        <ele>355.34</ele>
        <time>2019-03-03T17:50:10Z</time>
      </trkpt>
      <trkpt lat="43.43967" lon="5.86021">
        <ele>354.86</ele>
        <time>2019-03-03T17:50:17Z</time>
      </trkpt>
      <trkpt lat="43.43976" lon="5.86054">
        <ele>236.62</ele>
        <time>2019-03-10T08:38:57Z</time>
      </trkpt>
      <trkpt lat="43.43983" lon="5.86062">
        <ele>236.14</ele>
        <time>2019-03-10T08:39:19Z</time>
      </trkpt>
      <trkpt lat="43.43978" lon="5.86045">
        <ele>240.47</ele>
        <time>2019-03-10T08:39:39Z</time>
      </trkpt>
      <trkpt lat="43.43978" lon="5.86045">
        <ele>244.79</ele>
        <time>2019-03-10T08:39:40Z</time>
      </trkpt>
      <trkpt lat="43.43979" lon="5.86044">
        <ele>248.64</ele>
        <time>2019-03-10T08:39:41Z</time>
      </trkpt>
      <trkpt lat="43.43979" lon="5.86044">
        <ele>256.33</ele>
        <time>2019-03-10T08:39:42Z</time>
      </trkpt>
      <trkpt lat="43.43979" lon="5.86043">
        <ele>260.17</ele>
        <time>2019-03-10T08:39:43Z</time>
      </trkpt>
      <trkpt lat="43.43979" lon="5.86043">
        <ele>260.17</ele>
        <time>2019-03-10T08:39:44Z</time>
      </trkpt>
      <trkpt lat="43.43979" lon="5.86043">
        <ele>263.54</ele>
        <time>2019-03-10T08:39:45Z</time>
      </trkpt>
      <trkpt lat="43.43979" lon="5.86042">
        <ele>266.9</ele>
        <time>2019-03-10T08:39:46Z</time>
      </trkpt>
      <trkpt lat="43.43979" lon="5.86041">
        <ele>270.27</ele>
        <time>2019-03-10T08:39:47Z</time>
      </trkpt>
      <trkpt lat="43.43979" lon="5.8604">
        <ele>273.15</ele>
        <time>2019-03-10T08:39:48Z</time>
      </trkpt>
      <trkpt lat="43.43979" lon="5.8604">
        <ele>276.04</ele>
        <time>2019-03-10T08:39:49Z</time>
      </trkpt>
      <trkpt lat="43.43979" lon="5.86039">
        <ele>281.8</ele>
        <time>2019-03-10T08:39:51Z</time>
      </trkpt>
      <trkpt lat="43.43979" lon="5.86039">
        <ele>286.13</ele>
        <time>2019-03-10T08:39:52Z</time>
      </trkpt>
      <trkpt lat="43.43979" lon="5.86038">
        <ele>290.94</ele>
        <time>2019-03-10T08:39:54Z</time>
      </trkpt>
      <trkpt lat="43.43979" lon="5.86037">
        <ele>295.74</ele>
        <time>2019-03-10T08:39:56Z</time>
      </trkpt>
      <trkpt lat="43.43979" lon="5.86036">
        <ele>300.07</ele>
        <time>2019-03-10T08:39:58Z</time>
      </trkpt>
      <trkpt lat="43.43979" lon="5.86035">
        <ele>303.91</ele>
        <time>2019-03-10T08:40:00Z</time>
      </trkpt>
      <trkpt lat="43.43979" lon="5.86034">
        <ele>307.76</ele>
        <time>2019-03-10T08:40:02Z</time>
      </trkpt>
      <trkpt lat="43.43979" lon="5.86033">
        <ele>311.12</ele>
        <time>2019-03-10T08:40:04Z</time>
      </trkpt>
      <trkpt lat="43.43978" lon="5.86032">
        <ele>314.49</ele>
        <time>2019-03-10T08:40:06Z</time>
      </trkpt>
      <trkpt lat="43.43976" lon="5.86031">
        <ele>318.81</ele>
        <time>2019-03-10T08:40:08Z</time>
      </trkpt>
      <trkpt lat="43.43975" lon="5.8603">
        <ele>319.78</ele>
        <time>2019-03-10T08:40:10Z</time>
      </trkpt>
      <trkpt lat="43.43973" lon="5.86029">
        <ele>323.14</ele>
        <time>2019-03-10T08:40:13Z</time>
      </trkpt>
      <trkpt lat="43.43973" lon="5.86029">
        <ele>326.99</ele>
        <time>2019-03-10T08:40:17Z</time>
      </trkpt>
      <trkpt lat="43.43973" lon="5.86028">
        <ele>330.35</ele>
        <time>2019-03-10T08:40:21Z</time>
      </trkpt>
      <trkpt lat="43.43971" lon="5.86029">
        <ele>333.71</ele>
        <time>2019-03-10T08:40:26Z</time>
      </trkpt>
      <trkpt lat="43.43971" lon="5.86028">
        <ele>337.08</ele>
        <time>2019-03-10T08:40:32Z</time>
      </trkpt>
      <trkpt lat="43.43971" lon="5.86027">
        <ele>339.96</ele>
        <time>2019-03-10T08:40:39Z</time>
      </trkpt>
      <trkpt lat="43.4397" lon="5.86031">
        <ele>343.33</ele>
        <time>2019-03-10T08:40:49Z</time>
      </trkpt>
      <trkpt lat="43.4397" lon="5.86035">
        <ele>346.69</ele>
        <time>2019-03-10T08:41:04Z</time>
      </trkpt>
      <trkpt lat="43.43968" lon="5.86039">
        <ele>349.1</ele>
        <time>2019-03-10T08:41:35Z</time>
      </trkpt>
      <trkpt lat="43.43966" lon="5.86029">
        <ele>349.58</ele>
        <time>2019-03-10T08:42:05Z</time>
      </trkpt>
      <trkpt lat="43.43969" lon="5.86029">
        <ele>349.58</ele>
        <time>2019-03-10T08:42:41Z</time>
      </trkpt>
      <trkpt lat="43.43967" lon="5.8603">
        <ele>349.58</ele>
        <time>2019-03-10T08:43:19Z</time>
      </trkpt>
      <trkpt lat="43.43968" lon="5.8603">
        <ele>349.58</ele>
        <time>2019-03-10T08:43:55Z</time>
      </trkpt>
      <trkpt lat="43.43968" lon="5.86033">
        <ele>349.58</ele>
        <time>2019-03-10T08:44:28Z</time>
      </trkpt>
      <trkpt lat="43.43967" lon="5.86031">
        <ele>350.06</ele>
        <time>2019-03-10T08:45:04Z</time>
      </trkpt>
      <trkpt lat="43.43968" lon="5.8603">
        <ele>350.06</ele>
        <time>2019-03-10T08:45:40Z</time>
      </trkpt>
      <trkpt lat="43.43966" lon="5.86029">
        <ele>350.06</ele>
        <time>2019-03-10T08:46:23Z</time>
      </trkpt>
      <trkpt lat="43.43967" lon="5.86031">
        <ele>350.06</ele>
        <time>2019-03-10T08:47:03Z</time>
      </trkpt>
      <trkpt lat="43.43968" lon="5.86032">
        <ele>350.06</ele>
        <time>2019-03-10T08:47:42Z</time>
      </trkpt>
      <trkpt lat="43.43969" lon="5.86033">
        <ele>350.06</ele>
        <time>2019-03-10T08:48:11Z</time>
      </trkpt>
      <trkpt lat="43.43969" lon="5.86029">
        <ele>350.54</ele>
        <time>2019-03-10T08:48:53Z</time>
      </trkpt>
      <trkpt lat="43.43968" lon="5.86027">
        <ele>350.54</ele>
        <time>2019-03-10T08:49:30Z</time>
      </trkpt>
      <trkpt lat="43.43969" lon="5.8603">
        <ele>350.54</ele>
        <time>2019-03-10T08:50:11Z</time>
      </trkpt>
      <trkpt lat="43.4397" lon="5.86031">
        <ele>350.54</ele>
        <time>2019-03-10T08:50:47Z</time>
      </trkpt>
      <trkpt lat="43.43972" lon="5.86032">
        <ele>350.06</ele>
        <time>2019-03-10T08:51:24Z</time>
      </trkpt>
      <trkpt lat="43.43973" lon="5.86032">
        <ele>350.06</ele>
        <time>2019-03-10T08:52:02Z</time>
      </trkpt>
      <trkpt lat="43.43971" lon="5.86033">
        <ele>350.06</ele>
        <time>2019-03-10T08:52:42Z</time>
      </trkpt>
      <trkpt lat="43.43971" lon="5.86034">
        <ele>350.54</ele>
        <time>2019-03-10T08:53:17Z</time>
      </trkpt>
      <trkpt lat="43.43973" lon="5.86034">
        <ele>350.54</ele>
        <time>2019-03-10T08:53:51Z</time>
      </trkpt>
      <trkpt lat="43.43972" lon="5.86036">
        <ele>351.98</ele>
        <time>2019-03-10T08:54:21Z</time>
      </trkpt>
      <trkpt lat="43.43975" lon="5.86034">
        <ele>351.02</ele>
        <time>2019-03-10T08:54:40Z</time>
      </trkpt>
      <trkpt lat="43.43976" lon="5.86034">
        <ele>352.46</ele>
        <time>2019-03-10T08:55:17Z</time>
      </trkpt>
      <trkpt lat="43.43973" lon="5.8603">
        <ele>352.46</ele>
        <time>2019-03-10T08:55:30Z</time>
      </trkpt>
      <trkpt lat="43.43975" lon="5.86028">
        <ele>352.46</ele>
        <time>2019-03-10T08:55:41Z</time>
      </trkpt>
      <trkpt lat="43.43977" lon="5.86025">
        <ele>352.46</ele>
        <time>2019-03-10T08:55:42Z</time>
      </trkpt>
      <trkpt lat="43.43978" lon="5.86022">
        <ele>352.46</ele>
        <time>2019-03-10T08:55:43Z</time>
      </trkpt>
      <trkpt lat="43.43981" lon="5.8602">
        <ele>352.46</ele>
        <time>2019-03-10T08:55:44Z</time>
      </trkpt>
      <trkpt lat="43.43983" lon="5.8602">
        <ele>352.46</ele>
        <time>2019-03-10T08:55:45Z</time>
      </trkpt>
      <trkpt lat="43.43986" lon="5.86022">
        <ele>352.46</ele>
        <time>2019-03-10T08:55:46Z</time>
      </trkpt>
      <trkpt lat="43.4399" lon="5.86027">
        <ele>352.46</ele>
        <time>2019-03-10T08:55:47Z</time>
      </trkpt>
      <trkpt lat="43.43993" lon="5.86032">
        <ele>352.46</ele>
        <time>2019-03-10T08:55:48Z</time>
      </trkpt>
      <trkpt lat="43.44002" lon="5.86043">
        <ele>351.02</ele>
        <time>2019-03-10T08:55:50Z</time>
      </trkpt>
      <trkpt lat="43.44026" lon="5.86072">
        <ele>349.58</ele>
        <time>2019-03-10T08:55:55Z</time>
      </trkpt>
      <trkpt lat="43.4403" lon="5.86079">
        <ele>349.58</ele>
        <time>2019-03-10T08:55:56Z</time>
      </trkpt>
      <trkpt lat="43.44031" lon="5.86087">
        <ele>349.1</ele>
        <time>2019-03-10T08:55:57Z</time>
      </trkpt>
      <trkpt lat="43.44031" lon="5.86095">
        <ele>348.62</ele>
        <time>2019-03-10T08:55:58Z</time>
      </trkpt>
      <trkpt lat="43.4403" lon="5.86103">
        <ele>348.62</ele>
        <time>2019-03-10T08:55:59Z</time>
      </trkpt>
      <trkpt lat="43.44029" lon="5.86111">
        <ele>348.62</ele>
        <time>2019-03-10T08:56:00Z</time>
      </trkpt>
      <trkpt lat="43.44029" lon="5.8612">
        <ele>348.62</ele>
        <time>2019-03-10T08:56:01Z</time>
      </trkpt>
      <trkpt lat="43.44028" lon="5.86194">
        <ele>347.17</ele>
        <time>2019-03-10T08:56:10Z</time>
      </trkpt>
      <trkpt lat="43.44037" lon="5.86259">
        <ele>342.85</ele>
        <time>2019-03-10T08:56:17Z</time>
      </trkpt>
      <trkpt lat="43.44041" lon="5.86286">
        <ele>340.44</ele>
        <time>2019-03-10T08:56:22Z</time>
      </trkpt>
      <trkpt lat="43.44044" lon="5.86289">
        <ele>339.96</ele>
        <time>2019-03-10T08:56:23Z</time>
      </trkpt>
      <trkpt lat="43.44048" lon="5.86291">
        <ele>339.96</ele>
        <time>2019-03-10T08:56:24Z</time>
      </trkpt>
      <trkpt lat="43.4405" lon="5.86291">
        <ele>340.44</ele>
        <time>2019-03-10T08:56:25Z</time>
      </trkpt>
      <trkpt lat="43.44055" lon="5.8629">
        <ele>340.44</ele>
        <time>2019-03-10T08:56:26Z</time>
      </trkpt>
      <trkpt lat="43.44059" lon="5.86289">
        <ele>340.44</ele>
        <time>2019-03-10T08:56:27Z</time>
      </trkpt>
      <trkpt lat="43.44131" lon="5.86262">
        <ele>339.48</ele>
        <time>2019-03-10T08:56:42Z</time>
      </trkpt>
      <trkpt lat="43.44213" lon="5.86233">
        <ele>339.96</ele>
        <time>2019-03-10T08:56:56Z</time>
      </trkpt>
      <trkpt lat="43.44229" lon="5.86228">
        <ele>338.04</ele>
        <time>2019-03-10T08:56:59Z</time>
      </trkpt>
      <trkpt lat="43.44313" lon="5.8619">
        <ele>337.56</ele>
        <time>2019-03-10T08:57:15Z</time>
      </trkpt>
      <trkpt lat="43.44317" lon="5.86187">
        <ele>337.56</ele>
        <time>2019-03-10T08:57:16Z</time>
      </trkpt>
      <trkpt lat="43.44323" lon="5.86183">
        <ele>337.56</ele>
        <time>2019-03-10T08:57:17Z</time>
      </trkpt>
      <trkpt lat="43.44377" lon="5.86109">
        <ele>334.2</ele>
        <time>2019-03-10T08:57:30Z</time>
      </trkpt>
      <trkpt lat="43.44405" lon="5.86015">
        <ele>331.79</ele>
        <time>2019-03-10T08:57:42Z</time>
      </trkpt>
      <trkpt lat="43.44429" lon="5.85957">
        <ele>330.35</ele>
        <time>2019-03-10T08:57:52Z</time>
      </trkpt>
      <trkpt lat="43.44433" lon="5.85956">
        <ele>330.35</ele>
        <time>2019-03-10T08:57:53Z</time>
      </trkpt>
      <trkpt lat="43.44439" lon="5.85957">
        <ele>330.83</ele>
        <time>2019-03-10T08:57:54Z</time>
      </trkpt>
      <trkpt lat="43.4452" lon="5.85986">
        <ele>327.95</ele>
        <time>2019-03-10T08:58:07Z</time>
      </trkpt>
      <trkpt lat="43.44599" lon="5.86013">
        <ele>325.06</ele>
        <time>2019-03-10T08:58:20Z</time>
      </trkpt>
      <trkpt lat="43.44635" lon="5.86027">
        <ele>323.14</ele>
        <time>2019-03-10T08:58:26Z</time>
      </trkpt>
      <trkpt lat="43.44638" lon="5.86031">
        <ele>322.66</ele>
        <time>2019-03-10T08:58:27Z</time>
      </trkpt>
      <trkpt lat="43.4464" lon="5.86035">
        <ele>322.66</ele>
        <time>2019-03-10T08:58:28Z</time>
      </trkpt>
      <trkpt lat="43.44642" lon="5.86037">
        <ele>322.66</ele>
        <time>2019-03-10T08:58:29Z</time>
      </trkpt>
      <trkpt lat="43.44644" lon="5.86038">
        <ele>322.18</ele>
        <time>2019-03-10T08:58:30Z</time>
      </trkpt>
      <trkpt lat="43.44645" lon="5.86037">
        <ele>322.18</ele>
        <time>2019-03-10T08:58:31Z</time>
      </trkpt>
      <trkpt lat="43.44644" lon="5.86035">
        <ele>322.18</ele>
        <time>2019-03-10T08:58:38Z</time>
      </trkpt>
      <trkpt lat="43.44643" lon="5.86032">
        <ele>322.18</ele>
        <time>2019-03-10T08:58:39Z</time>
      </trkpt>
      <trkpt lat="43.44642" lon="5.8603">
        <ele>322.18</ele>
        <time>2019-03-10T08:58:40Z</time>
      </trkpt>
      <trkpt lat="43.44641" lon="5.86028">
        <ele>322.18</ele>
        <time>2019-03-10T08:58:41Z</time>
      </trkpt>
      <trkpt lat="43.4464" lon="5.86026">
        <ele>322.18</ele>
        <time>2019-03-10T08:58:42Z</time>
      </trkpt>
      <trkpt lat="43.44639" lon="5.86025">
        <ele>322.18</ele>
        <time>2019-03-10T08:58:43Z</time>
      </trkpt>
      <trkpt lat="43.44637" lon="5.8602">
        <ele>322.18</ele>
        <time>2019-03-10T08:58:55Z</time>
      </trkpt>
      <trkpt lat="43.44635" lon="5.86019">
        <ele>322.18</ele>
        <time>2019-03-10T08:59:21Z</time>
      </trkpt>
      <trkpt lat="43.44634" lon="5.8602">
        <ele>322.18</ele>
        <time>2019-03-10T08:59:24Z</time>
      </trkpt>
      <trkpt lat="43.44632" lon="5.86021">
        <ele>322.18</ele>
        <time>2019-03-10T08:59:25Z</time>
      </trkpt>
      <trkpt lat="43.4463" lon="5.8602">
        <ele>322.18</ele>
        <time>2019-03-10T08:59:26Z</time>
      </trkpt>
      <trkpt lat="43.44629" lon="5.8602">
        <ele>322.18</ele>
        <time>2019-03-10T08:59:27Z</time>
      </trkpt>
      <trkpt lat="43.44627" lon="5.86019">
        <ele>322.18</ele>
        <time>2019-03-10T08:59:28Z</time>
      </trkpt>
      <trkpt lat="43.44623" lon="5.86017">
        <ele>323.14</ele>
        <time>2019-03-10T08:59:30Z</time>
      </trkpt>
      <trkpt lat="43.44577" lon="5.86002">
        <ele>325.06</ele>
        <time>2019-03-10T08:59:49Z</time>
      </trkpt>
      <trkpt lat="43.44519" lon="5.8598">
        <ele>326.5</ele>
        <time>2019-03-10T09:00:10Z</time>
      </trkpt>
      <trkpt lat="43.44476" lon="5.85962">
        <ele>327.95</ele>
        <time>2019-03-10T09:00:27Z</time>
      </trkpt>
      <trkpt lat="43.44439" lon="5.85945">
        <ele>329.87</ele>
        <time>2019-03-10T09:00:45Z</time>
      </trkpt>
      <trkpt lat="43.44433" lon="5.8594">
        <ele>329.87</ele>
        <time>2019-03-10T09:00:48Z</time>
      </trkpt>
      <trkpt lat="43.44431" lon="5.8594">
        <ele>329.87</ele>
        <time>2019-03-10T09:00:49Z</time>
      </trkpt>
      <trkpt lat="43.44428" lon="5.8594">
        <ele>329.87</ele>
        <time>2019-03-10T09:00:50Z</time>
      </trkpt>
      <trkpt lat="43.44425" lon="5.85941">
        <ele>329.87</ele>
        <time>2019-03-10T09:00:51Z</time>
      </trkpt>
      <trkpt lat="43.44422" lon="5.8594">
        <ele>330.35</ele>
        <time>2019-03-10T09:00:52Z</time>
      </trkpt>
      <trkpt lat="43.44418" lon="5.8594">
        <ele>330.35</ele>
        <time>2019-03-10T09:00:53Z</time>
      </trkpt>
      <trkpt lat="43.44387" lon="5.8593">
        <ele>331.31</ele>
        <time>2019-03-10T09:01:04Z</time>
      </trkpt>
      <trkpt lat="43.44332" lon="5.85908">
        <ele>332.75</ele>
        <time>2019-03-10T09:01:23Z</time>
      </trkpt>
      <trkpt lat="43.44281" lon="5.85889">
        <ele>335.16</ele>
        <time>2019-03-10T09:01:42Z</time>
      </trkpt>
      <trkpt lat="43.44232" lon="5.85872">
        <ele>337.08</ele>
        <time>2019-03-10T09:01:59Z</time>
      </trkpt>
      <trkpt lat="43.44185" lon="5.85854">
        <ele>338.52</ele>
        <time>2019-03-10T09:02:16Z</time>
      </trkpt>
      <trkpt lat="43.44136" lon="5.85834">
        <ele>340.44</ele>
        <time>2019-03-10T09:02:33Z</time>
      </trkpt>
      <trkpt lat="43.44087" lon="5.85815">
        <ele>342.37</ele>
        <time>2019-03-10T09:02:49Z</time>
      </trkpt>
      <trkpt lat="43.44037" lon="5.85796">
        <ele>345.25</ele>
        <time>2019-03-10T09:03:11Z</time>
      </trkpt>
      <trkpt lat="43.43997" lon="5.85779">
        <ele>347.17</ele>
        <time>2019-03-10T09:03:28Z</time>
      </trkpt>
      <trkpt lat="43.43953" lon="5.85757">
        <ele>349.1</ele>
        <time>2019-03-10T09:03:47Z</time>
      </trkpt>
      <trkpt lat="43.43951" lon="5.85743">
        <ele>349.1</ele>
        <time>2019-03-10T09:03:51Z</time>
      </trkpt>
      <trkpt lat="43.43952" lon="5.85738">
        <ele>349.1</ele>
        <time>2019-03-10T09:03:52Z</time>
      </trkpt>
      <trkpt lat="43.43965" lon="5.85674">
        <ele>349.1</ele>
        <time>2019-03-10T09:04:05Z</time>
      </trkpt>
      <trkpt lat="43.43972" lon="5.85588">
        <ele>347.65</ele>
        <time>2019-03-10T09:04:20Z</time>
      </trkpt>
      <trkpt lat="43.43988" lon="5.85514">
        <ele>348.13</ele>
        <time>2019-03-10T09:04:35Z</time>
      </trkpt>
      <trkpt lat="43.4399" lon="5.85458">
        <ele>351.02</ele>
        <time>2019-03-10T09:04:49Z</time>
      </trkpt>
      <trkpt lat="43.44" lon="5.85392">
        <ele>352.94</ele>
        <time>2019-03-10T09:05:04Z</time>
      </trkpt>
      <trkpt lat="43.44001" lon="5.85344">
        <ele>354.86</ele>
        <time>2019-03-10T09:05:18Z</time>
      </trkpt>
      <trkpt lat="43.44008" lon="5.85291">
        <ele>358.23</ele>
        <time>2019-03-10T09:05:35Z</time>
      </trkpt>
      <trkpt lat="43.44021" lon="5.85249">
        <ele>359.67</ele>
        <time>2019-03-10T09:05:49Z</time>
      </trkpt>
      <trkpt lat="43.44024" lon="5.85186">
        <ele>361.59</ele>
        <time>2019-03-10T09:06:05Z</time>
      </trkpt>
      <trkpt lat="43.44038" lon="5.85131">
        <ele>363.52</ele>
        <time>2019-03-10T09:06:21Z</time>
      </trkpt>
      <trkpt lat="43.44057" lon="5.85081">
        <ele>364.96</ele>
        <time>2019-03-10T09:06:34Z</time>
      </trkpt>
      <trkpt lat="43.44064" lon="5.85026">
        <ele>366.88</ele>
        <time>2019-03-10T09:06:48Z</time>
      </trkpt>
      <trkpt lat="43.44065" lon="5.84959">
        <ele>367.84</ele>
        <time>2019-03-10T09:07:03Z</time>
      </trkpt>
      <trkpt lat="43.44065" lon="5.84892">
        <ele>369.76</ele>
        <time>2019-03-10T09:07:21Z</time>
      </trkpt>
      <trkpt lat="43.44062" lon="5.84844">
        <ele>371.69</ele>
        <time>2019-03-10T09:07:34Z</time>
      </trkpt>
      <trkpt lat="43.44062" lon="5.84801">
        <ele>375.05</ele>
        <time>2019-03-10T09:07:47Z</time>
      </trkpt>
      <trkpt lat="43.44067" lon="5.84778">
        <ele>376.49</ele>
        <time>2019-03-10T09:07:53Z</time>
      </trkpt>
      <trkpt lat="43.44067" lon="5.84775">
        <ele>376.97</ele>
        <time>2019-03-10T09:07:54Z</time>
      </trkpt>
      <trkpt lat="43.44067" lon="5.84772">
        <ele>376.97</ele>
        <time>2019-03-10T09:07:55Z</time>
      </trkpt>
      <trkpt lat="43.44067" lon="5.84769">
        <ele>376.97</ele>
        <time>2019-03-10T09:07:56Z</time>
      </trkpt>
      <trkpt lat="43.44067" lon="5.84766">
        <ele>378.42</ele>
        <time>2019-03-10T09:07:57Z</time>
      </trkpt>
      <trkpt lat="43.44067" lon="5.84763">
        <ele>378.42</ele>
        <time>2019-03-10T09:07:58Z</time>
      </trkpt>
      <trkpt lat="43.44067" lon="5.8476">
        <ele>378.42</ele>
        <time>2019-03-10T09:07:59Z</time>
      </trkpt>
      <trkpt lat="43.44067" lon="5.84757">
        <ele>378.9</ele>
        <time>2019-03-10T09:08:00Z</time>
      </trkpt>
      <trkpt lat="43.44071" lon="5.84712">
        <ele>381.78</ele>
        <time>2019-03-10T09:08:17Z</time>
      </trkpt>
      <trkpt lat="43.44075" lon="5.84665">
        <ele>385.15</ele>
        <time>2019-03-10T09:08:34Z</time>
      </trkpt>
      <trkpt lat="43.44076" lon="5.84657">
        <ele>385.63</ele>
        <time>2019-03-10T09:08:37Z</time>
      </trkpt>
      <trkpt lat="43.44076" lon="5.84655">
        <ele>385.63</ele>
        <time>2019-03-10T09:08:38Z</time>
      </trkpt>
      <trkpt lat="43.44076" lon="5.84653">
        <ele>386.11</ele>
        <time>2019-03-10T09:08:39Z</time>
      </trkpt>
      <trkpt lat="43.44078" lon="5.84619">
        <ele>388.99</ele>
        <time>2019-03-10T09:08:54Z</time>
      </trkpt>
      <trkpt lat="43.44075" lon="5.84584">
        <ele>392.36</ele>
        <time>2019-03-10T09:09:08Z</time>
      </trkpt>
      <trkpt lat="43.44069" lon="5.84537">
        <ele>395.24</ele>
        <time>2019-03-10T09:09:25Z</time>
      </trkpt>
      <trkpt lat="43.44063" lon="5.84491">
        <ele>397.16</ele>
        <time>2019-03-10T09:09:43Z</time>
      </trkpt>
      <trkpt lat="43.4406" lon="5.8444">
        <ele>398.6</ele>
        <time>2019-03-10T09:10:01Z</time>
      </trkpt>
      <trkpt lat="43.44057" lon="5.84383">
        <ele>399.57</ele>
        <time>2019-03-10T09:10:20Z</time>
      </trkpt>
      <trkpt lat="43.44061" lon="5.84336">
        <ele>400.53</ele>
        <time>2019-03-10T09:10:36Z</time>
      </trkpt>
      <trkpt lat="43.4406" lon="5.84334">
        <ele>400.53</ele>
        <time>2019-03-10T09:10:37Z</time>
      </trkpt>
      <trkpt lat="43.44046" lon="5.84296">
        <ele>400.53</ele>
        <time>2019-03-10T09:10:51Z</time>
      </trkpt>
      <trkpt lat="43.44041" lon="5.84239">
        <ele>401.97</ele>
        <time>2019-03-10T09:11:07Z</time>
      </trkpt>
      <trkpt lat="43.44039" lon="5.84204">
        <ele>403.89</ele>
        <time>2019-03-10T09:11:19Z</time>
      </trkpt>
      <trkpt lat="43.44034" lon="5.84176">
        <ele>401.97</ele>
        <time>2019-03-10T09:11:26Z</time>
      </trkpt>
      <trkpt lat="43.44034" lon="5.84115">
        <ele>400.05</ele>
        <time>2019-03-10T09:11:39Z</time>
      </trkpt>
      <trkpt lat="43.44034" lon="5.8411">
        <ele>399.57</ele>
        <time>2019-03-10T09:11:40Z</time>
      </trkpt>
      <trkpt lat="43.44035" lon="5.84104">
        <ele>399.08</ele>
        <time>2019-03-10T09:11:41Z</time>
      </trkpt>
      <trkpt lat="43.44048" lon="5.84045">
        <ele>398.12</ele>
        <time>2019-03-10T09:11:54Z</time>
      </trkpt>
      <trkpt lat="43.44049" lon="5.84001">
        <ele>399.57</ele>
        <time>2019-03-10T09:12:05Z</time>
      </trkpt>
      <trkpt lat="43.44056" lon="5.83969">
        <ele>398.12</ele>
        <time>2019-03-10T09:12:14Z</time>
      </trkpt>
      <trkpt lat="43.4407" lon="5.83942">
        <ele>398.12</ele>
        <time>2019-03-10T09:12:24Z</time>
      </trkpt>
      <trkpt lat="43.44072" lon="5.83937">
        <ele>398.12</ele>
        <time>2019-03-10T09:12:26Z</time>
      </trkpt>
      <trkpt lat="43.44072" lon="5.83933">
        <ele>398.12</ele>
        <time>2019-03-10T09:12:27Z</time>
      </trkpt>
      <trkpt lat="43.44071" lon="5.83929">
        <ele>398.12</ele>
        <time>2019-03-10T09:12:28Z</time>
      </trkpt>
      <trkpt lat="43.4407" lon="5.83926">
        <ele>398.12</ele>
        <time>2019-03-10T09:12:29Z</time>
      </trkpt>
      <trkpt lat="43.4407" lon="5.83923">
        <ele>398.12</ele>
        <time>2019-03-10T09:12:30Z</time>
      </trkpt>
      <trkpt lat="43.44069" lon="5.8392">
        <ele>398.12</ele>
        <time>2019-03-10T09:12:31Z</time>
      </trkpt>
      <trkpt lat="43.44068" lon="5.83917">
        <ele>398.12</ele>
        <time>2019-03-10T09:12:32Z</time>
      </trkpt>
      <trkpt lat="43.44067" lon="5.83915">
        <ele>398.12</ele>
        <time>2019-03-10T09:12:33Z</time>
      </trkpt>
      <trkpt lat="43.44067" lon="5.83912">
        <ele>398.12</ele>
        <time>2019-03-10T09:12:34Z</time>
      </trkpt>
      <trkpt lat="43.44067" lon="5.8391">
        <ele>398.12</ele>
        <time>2019-03-10T09:12:35Z</time>
      </trkpt>
      <trkpt lat="43.44068" lon="5.83907">
        <ele>399.57</ele>
        <time>2019-03-10T09:12:36Z</time>
      </trkpt>
      <trkpt lat="43.44069" lon="5.83905">
        <ele>399.57</ele>
        <time>2019-03-10T09:12:37Z</time>
      </trkpt>
      <trkpt lat="43.44074" lon="5.83889">
        <ele>401.49</ele>
        <time>2019-03-10T09:12:46Z</time>
      </trkpt>
      <trkpt lat="43.44078" lon="5.83881">
        <ele>401.97</ele>
        <time>2019-03-10T09:12:50Z</time>
      </trkpt>
      <trkpt lat="43.4408" lon="5.83878">
        <ele>401.97</ele>
        <time>2019-03-10T09:12:51Z</time>
      </trkpt>
      <trkpt lat="43.44081" lon="5.83875">
        <ele>402.45</ele>
        <time>2019-03-10T09:12:52Z</time>
      </trkpt>
      <trkpt lat="43.44106" lon="5.83818">
        <ele>402.93</ele>
        <time>2019-03-10T09:13:09Z</time>
      </trkpt>
      <trkpt lat="43.44119" lon="5.83786">
        <ele>405.33</ele>
        <time>2019-03-10T09:13:21Z</time>
      </trkpt>
      <trkpt lat="43.44126" lon="5.83749">
        <ele>406.77</ele>
        <time>2019-03-10T09:13:34Z</time>
      </trkpt>
      <trkpt lat="43.44132" lon="5.83718">
        <ele>407.74</ele>
        <time>2019-03-10T09:13:46Z</time>
      </trkpt>
      <trkpt lat="43.44133" lon="5.83715">
        <ele>407.74</ele>
        <time>2019-03-10T09:13:47Z</time>
      </trkpt>
      <trkpt lat="43.44144" lon="5.83664">
        <ele>408.22</ele>
        <time>2019-03-10T09:14:02Z</time>
      </trkpt>
      <trkpt lat="43.44134" lon="5.83628">
        <ele>409.66</ele>
        <time>2019-03-10T09:14:16Z</time>
      </trkpt>
      <trkpt lat="43.44122" lon="5.836">
        <ele>410.14</ele>
        <time>2019-03-10T09:14:28Z</time>
      </trkpt>
      <trkpt lat="43.44121" lon="5.83596">
        <ele>410.14</ele>
        <time>2019-03-10T09:14:29Z</time>
      </trkpt>
      <trkpt lat="43.4412" lon="5.83593">
        <ele>410.62</ele>
        <time>2019-03-10T09:14:30Z</time>
      </trkpt>
      <trkpt lat="43.44119" lon="5.8359">
        <ele>410.62</ele>
        <time>2019-03-10T09:14:31Z</time>
      </trkpt>
      <trkpt lat="43.44119" lon="5.83587">
        <ele>410.62</ele>
        <time>2019-03-10T09:14:32Z</time>
      </trkpt>
      <trkpt lat="43.44117" lon="5.83545">
        <ele>411.58</ele>
        <time>2019-03-10T09:14:44Z</time>
      </trkpt>
      <trkpt lat="43.44116" lon="5.83541">
        <ele>411.58</ele>
        <time>2019-03-10T09:14:45Z</time>
      </trkpt>
      <trkpt lat="43.44111" lon="5.83504">
        <ele>412.54</ele>
        <time>2019-03-10T09:14:56Z</time>
      </trkpt>
      <trkpt lat="43.44099" lon="5.83469">
        <ele>413.5</ele>
        <time>2019-03-10T09:15:10Z</time>
      </trkpt>
      <trkpt lat="43.44096" lon="5.83461">
        <ele>413.5</ele>
        <time>2019-03-10T09:15:13Z</time>
      </trkpt>
      <trkpt lat="43.44096" lon="5.83458">
        <ele>414.47</ele>
        <time>2019-03-10T09:15:14Z</time>
      </trkpt>
      <trkpt lat="43.44095" lon="5.83455">
        <ele>414.47</ele>
        <time>2019-03-10T09:15:15Z</time>
      </trkpt>
      <trkpt lat="43.44094" lon="5.83452">
        <ele>414.95</ele>
        <time>2019-03-10T09:15:16Z</time>
      </trkpt>
      <trkpt lat="43.44094" lon="5.83449">
        <ele>414.95</ele>
        <time>2019-03-10T09:15:17Z</time>
      </trkpt>
      <trkpt lat="43.44093" lon="5.83446">
        <ele>414.95</ele>
        <time>2019-03-10T09:15:18Z</time>
      </trkpt>
      <trkpt lat="43.44083" lon="5.83387">
        <ele>416.39</ele>
        <time>2019-03-10T09:15:35Z</time>
      </trkpt>
      <trkpt lat="43.44075" lon="5.83335">
        <ele>418.31</ele>
        <time>2019-03-10T09:15:51Z</time>
      </trkpt>
      <trkpt lat="43.44071" lon="5.83288">
        <ele>418.31</ele>
        <time>2019-03-10T09:16:05Z</time>
      </trkpt>
      <trkpt lat="43.4407" lon="5.83236">
        <ele>420.71</ele>
        <time>2019-03-10T09:16:20Z</time>
      </trkpt>
      <trkpt lat="43.44073" lon="5.83192">
        <ele>422.16</ele>
        <time>2019-03-10T09:16:34Z</time>
      </trkpt>
      <trkpt lat="43.44069" lon="5.8314">
        <ele>423.6</ele>
        <time>2019-03-10T09:16:49Z</time>
      </trkpt>
      <trkpt lat="43.44067" lon="5.83103">
        <ele>424.56</ele>
        <time>2019-03-10T09:17:02Z</time>
      </trkpt>
      <trkpt lat="43.44066" lon="5.83067">
        <ele>426.48</ele>
        <time>2019-03-10T09:17:15Z</time>
      </trkpt>
      <trkpt lat="43.44056" lon="5.83026">
        <ele>427.92</ele>
        <time>2019-03-10T09:17:30Z</time>
      </trkpt>
      <trkpt lat="43.44038" lon="5.82989">
        <ele>429.37</ele>
        <time>2019-03-10T09:17:43Z</time>
      </trkpt>
      <trkpt lat="43.44041" lon="5.82943">
        <ele>430.33</ele>
        <time>2019-03-10T09:17:57Z</time>
      </trkpt>
      <trkpt lat="43.44038" lon="5.829">
        <ele>433.21</ele>
        <time>2019-03-10T09:18:12Z</time>
      </trkpt>
      <trkpt lat="43.44024" lon="5.82881">
        <ele>434.17</ele>
        <time>2019-03-10T09:18:25Z</time>
      </trkpt>
      <trkpt lat="43.44009" lon="5.82879">
        <ele>434.17</ele>
        <time>2019-03-10T09:18:39Z</time>
      </trkpt>
      <trkpt lat="43.44005" lon="5.82877">
        <ele>434.17</ele>
        <time>2019-03-10T09:19:00Z</time>
      </trkpt>
      <trkpt lat="43.4401" lon="5.8288">
        <ele>433.21</ele>
        <time>2019-03-10T09:19:23Z</time>
      </trkpt>
      <trkpt lat="43.44008" lon="5.82879">
        <ele>432.73</ele>
        <time>2019-03-10T09:19:57Z</time>
      </trkpt>
      <trkpt lat="43.44008" lon="5.82876">
        <ele>432.73</ele>
        <time>2019-03-10T09:20:10Z</time>
      </trkpt>
      <trkpt lat="43.44007" lon="5.82874">
        <ele>432.73</ele>
        <time>2019-03-10T09:20:11Z</time>
      </trkpt>
      <trkpt lat="43.44006" lon="5.82872">
        <ele>432.73</ele>
        <time>2019-03-10T09:20:12Z</time>
      </trkpt>
      <trkpt lat="43.44006" lon="5.8287">
        <ele>432.73</ele>
        <time>2019-03-10T09:20:13Z</time>
      </trkpt>
      <trkpt lat="43.44005" lon="5.82868">
        <ele>432.73</ele>
        <time>2019-03-10T09:20:14Z</time>
      </trkpt>
      <trkpt lat="43.44005" lon="5.82865">
        <ele>434.17</ele>
        <time>2019-03-10T09:20:15Z</time>
      </trkpt>
      <trkpt lat="43.44" lon="5.82823">
        <ele>434.65</ele>
        <time>2019-03-10T09:20:30Z</time>
      </trkpt>
      <trkpt lat="43.44004" lon="5.82761">
        <ele>435.61</ele>
        <time>2019-03-10T09:20:50Z</time>
      </trkpt>
      <trkpt lat="43.43999" lon="5.82716">
        <ele>437.54</ele>
        <time>2019-03-10T09:21:04Z</time>
      </trkpt>
      <trkpt lat="43.43986" lon="5.82668">
        <ele>438.98</ele>
        <time>2019-03-10T09:21:20Z</time>
      </trkpt>
      <trkpt lat="43.43989" lon="5.82615">
        <ele>441.38</ele>
        <time>2019-03-10T09:21:37Z</time>
      </trkpt>
      <trkpt lat="43.4399" lon="5.82569">
        <ele>441.86</ele>
        <time>2019-03-10T09:21:52Z</time>
      </trkpt>
      <trkpt lat="43.43992" lon="5.82532">
        <ele>444.27</ele>
        <time>2019-03-10T09:22:06Z</time>
      </trkpt>
      <trkpt lat="43.43994" lon="5.82512">
        <ele>444.75</ele>
        <time>2019-03-10T09:22:13Z</time>
      </trkpt>
      <trkpt lat="43.43994" lon="5.82509">
        <ele>444.75</ele>
        <time>2019-03-10T09:22:14Z</time>
      </trkpt>
      <trkpt lat="43.43992" lon="5.82452">
        <ele>446.67</ele>
        <time>2019-03-10T09:22:33Z</time>
      </trkpt>
      <trkpt lat="43.43992" lon="5.82408">
        <ele>448.11</ele>
        <time>2019-03-10T09:22:50Z</time>
      </trkpt>
      <trkpt lat="43.44014" lon="5.82384">
        <ele>449.55</ele>
        <time>2019-03-10T09:23:05Z</time>
      </trkpt>
      <trkpt lat="43.44035" lon="5.82356">
        <ele>449.55</ele>
        <time>2019-03-10T09:23:19Z</time>
      </trkpt>
      <trkpt lat="43.44058" lon="5.82333">
        <ele>451</ele>
        <time>2019-03-10T09:23:31Z</time>
      </trkpt>
      <trkpt lat="43.44068" lon="5.82285">
        <ele>452.44</ele>
        <time>2019-03-10T09:23:47Z</time>
      </trkpt>
      <trkpt lat="43.44076" lon="5.82247">
        <ele>454.36</ele>
        <time>2019-03-10T09:24:02Z</time>
      </trkpt>
      <trkpt lat="43.44077" lon="5.82246">
        <ele>454.84</ele>
        <time>2019-03-10T09:24:03Z</time>
      </trkpt>
      <trkpt lat="43.44079" lon="5.82237">
        <ele>454.84</ele>
        <time>2019-03-10T09:24:07Z</time>
      </trkpt>
      <trkpt lat="43.44083" lon="5.82203">
        <ele>456.28</ele>
        <time>2019-03-10T09:24:18Z</time>
      </trkpt>
      <trkpt lat="43.44092" lon="5.82156">
        <ele>458.69</ele>
        <time>2019-03-10T09:24:32Z</time>
      </trkpt>
      <trkpt lat="43.44099" lon="5.82111">
        <ele>460.61</ele>
        <time>2019-03-10T09:24:48Z</time>
      </trkpt>
      <trkpt lat="43.44108" lon="5.82073">
        <ele>462.05</ele>
        <time>2019-03-10T09:25:01Z</time>
      </trkpt>
      <trkpt lat="43.44115" lon="5.82036">
        <ele>463.97</ele>
        <time>2019-03-10T09:25:14Z</time>
      </trkpt>
      <trkpt lat="43.44124" lon="5.82">
        <ele>466.86</ele>
        <time>2019-03-10T09:25:27Z</time>
      </trkpt>
      <trkpt lat="43.44133" lon="5.81963">
        <ele>468.3</ele>
        <time>2019-03-10T09:25:40Z</time>
      </trkpt>
      <trkpt lat="43.44133" lon="5.8196">
        <ele>468.78</ele>
        <time>2019-03-10T09:25:41Z</time>
      </trkpt>
      <trkpt lat="43.44134" lon="5.81957">
        <ele>468.78</ele>
        <time>2019-03-10T09:25:42Z</time>
      </trkpt>
      <trkpt lat="43.44134" lon="5.81955">
        <ele>468.78</ele>
        <time>2019-03-10T09:25:43Z</time>
      </trkpt>
      <trkpt lat="43.44134" lon="5.81952">
        <ele>468.78</ele>
        <time>2019-03-10T09:25:44Z</time>
      </trkpt>
      <trkpt lat="43.44134" lon="5.81949">
        <ele>469.26</ele>
        <time>2019-03-10T09:25:45Z</time>
      </trkpt>
      <trkpt lat="43.44134" lon="5.81946">
        <ele>469.26</ele>
        <time>2019-03-10T09:25:46Z</time>
      </trkpt>
      <trkpt lat="43.44135" lon="5.81943">
        <ele>469.26</ele>
        <time>2019-03-10T09:25:47Z</time>
      </trkpt>
      <trkpt lat="43.44135" lon="5.8194">
        <ele>469.26</ele>
        <time>2019-03-10T09:25:48Z</time>
      </trkpt>
      <trkpt lat="43.44135" lon="5.81937">
        <ele>469.26</ele>
        <time>2019-03-10T09:25:49Z</time>
      </trkpt>
      <trkpt lat="43.44135" lon="5.81934">
        <ele>469.26</ele>
        <time>2019-03-10T09:25:50Z</time>
      </trkpt>
      <trkpt lat="43.44135" lon="5.81931">
        <ele>469.74</ele>
        <time>2019-03-10T09:25:51Z</time>
      </trkpt>
      <trkpt lat="43.44136" lon="5.81928">
        <ele>469.74</ele>
        <time>2019-03-10T09:25:52Z</time>
      </trkpt>
      <trkpt lat="43.44136" lon="5.81925">
        <ele>469.74</ele>
        <time>2019-03-10T09:25:53Z</time>
      </trkpt>
      <trkpt lat="43.44136" lon="5.81922">
        <ele>470.22</ele>
        <time>2019-03-10T09:25:54Z</time>
      </trkpt>
      <trkpt lat="43.44136" lon="5.81902">
        <ele>471.18</ele>
        <time>2019-03-10T09:26:02Z</time>
      </trkpt>
      <trkpt lat="43.44135" lon="5.819">
        <ele>471.18</ele>
        <time>2019-03-10T09:26:03Z</time>
      </trkpt>
      <trkpt lat="43.44135" lon="5.81897">
        <ele>471.66</ele>
        <time>2019-03-10T09:26:04Z</time>
      </trkpt>
      <trkpt lat="43.44135" lon="5.81895">
        <ele>471.66</ele>
        <time>2019-03-10T09:26:05Z</time>
      </trkpt>
      <trkpt lat="43.44136" lon="5.81892">
        <ele>471.66</ele>
        <time>2019-03-10T09:26:06Z</time>
      </trkpt>
      <trkpt lat="43.44137" lon="5.8189">
        <ele>471.66</ele>
        <time>2019-03-10T09:26:07Z</time>
      </trkpt>
      <trkpt lat="43.44137" lon="5.81887">
        <ele>471.66</ele>
        <time>2019-03-10T09:26:08Z</time>
      </trkpt>
      <trkpt lat="43.44142" lon="5.81844">
        <ele>473.11</ele>
        <time>2019-03-10T09:26:23Z</time>
      </trkpt>
      <trkpt lat="43.44148" lon="5.81813">
        <ele>475.51</ele>
        <time>2019-03-10T09:26:35Z</time>
      </trkpt>
      <trkpt lat="43.44155" lon="5.81789">
        <ele>476.47</ele>
        <time>2019-03-10T09:26:49Z</time>
      </trkpt>
      <trkpt lat="43.44154" lon="5.81781">
        <ele>476.47</ele>
        <time>2019-03-10T09:27:05Z</time>
      </trkpt>
      <trkpt lat="43.44156" lon="5.81776">
        <ele>476.47</ele>
        <time>2019-03-10T09:27:40Z</time>
      </trkpt>
      <trkpt lat="43.44152" lon="5.81773">
        <ele>476.47</ele>
        <time>2019-03-10T09:28:20Z</time>
      </trkpt>
      <trkpt lat="43.44152" lon="5.81773">
        <ele>476.47</ele>
        <time>2019-03-10T09:28:50Z</time>
      </trkpt>
      <trkpt lat="43.44155" lon="5.81776">
        <ele>476.47</ele>
        <time>2019-03-10T09:29:21Z</time>
      </trkpt>
      <trkpt lat="43.44155" lon="5.81778">
        <ele>476.47</ele>
        <time>2019-03-10T09:29:54Z</time>
      </trkpt>
      <trkpt lat="43.44155" lon="5.8178">
        <ele>475.51</ele>
        <time>2019-03-10T09:30:20Z</time>
      </trkpt>
      <trkpt lat="43.44157" lon="5.81779">
        <ele>476.95</ele>
        <time>2019-03-10T09:30:35Z</time>
      </trkpt>
      <trkpt lat="43.44157" lon="5.81779">
        <ele>476.95</ele>
        <time>2019-03-10T09:31:03Z</time>
      </trkpt>
      <trkpt lat="43.44156" lon="5.81765">
        <ele>477.91</ele>
        <time>2019-03-10T09:31:19Z</time>
      </trkpt>
      <trkpt lat="43.44155" lon="5.81754">
        <ele>478.39</ele>
        <time>2019-03-10T09:31:25Z</time>
      </trkpt>
      <trkpt lat="43.44156" lon="5.81751">
        <ele>478.87</ele>
        <time>2019-03-10T09:31:27Z</time>
      </trkpt>
      <trkpt lat="43.44155" lon="5.8173">
        <ele>479.84</ele>
        <time>2019-03-10T09:31:38Z</time>
      </trkpt>
      <trkpt lat="43.44155" lon="5.81728">
        <ele>479.84</ele>
        <time>2019-03-10T09:31:39Z</time>
      </trkpt>
      <trkpt lat="43.44156" lon="5.81726">
        <ele>479.84</ele>
        <time>2019-03-10T09:31:40Z</time>
      </trkpt>
      <trkpt lat="43.44156" lon="5.81723">
        <ele>479.84</ele>
        <time>2019-03-10T09:31:41Z</time>
      </trkpt>
      <trkpt lat="43.44156" lon="5.81721">
        <ele>480.32</ele>
        <time>2019-03-10T09:31:42Z</time>
      </trkpt>
      <trkpt lat="43.44156" lon="5.81719">
        <ele>480.32</ele>
        <time>2019-03-10T09:31:43Z</time>
      </trkpt>
      <trkpt lat="43.44161" lon="5.81696">
        <ele>482.72</ele>
        <time>2019-03-10T09:31:51Z</time>
      </trkpt>
      <trkpt lat="43.44167" lon="5.81665">
        <ele>484.64</ele>
        <time>2019-03-10T09:32:04Z</time>
      </trkpt>
      <trkpt lat="43.44181" lon="5.81629">
        <ele>485.12</ele>
        <time>2019-03-10T09:32:19Z</time>
      </trkpt>
      <trkpt lat="43.44189" lon="5.81611">
        <ele>486.08</ele>
        <time>2019-03-10T09:32:27Z</time>
      </trkpt>
      <trkpt lat="43.4419" lon="5.81609">
        <ele>486.08</ele>
        <time>2019-03-10T09:32:28Z</time>
      </trkpt>
      <trkpt lat="43.44208" lon="5.81571">
        <ele>488.01</ele>
        <time>2019-03-10T09:32:46Z</time>
      </trkpt>
      <trkpt lat="43.44217" lon="5.81547">
        <ele>490.41</ele>
        <time>2019-03-10T09:32:58Z</time>
      </trkpt>
      <trkpt lat="43.44222" lon="5.81521">
        <ele>492.81</ele>
        <time>2019-03-10T09:33:12Z</time>
      </trkpt>
      <trkpt lat="43.44223" lon="5.81492">
        <ele>495.7</ele>
        <time>2019-03-10T09:33:27Z</time>
      </trkpt>
      <trkpt lat="43.44229" lon="5.81466">
        <ele>499.06</ele>
        <time>2019-03-10T09:33:40Z</time>
      </trkpt>
      <trkpt lat="43.44239" lon="5.81429">
        <ele>500.98</ele>
        <time>2019-03-10T09:33:56Z</time>
      </trkpt>
      <trkpt lat="43.44246" lon="5.81397">
        <ele>502.91</ele>
        <time>2019-03-10T09:34:11Z</time>
      </trkpt>
      <trkpt lat="43.44254" lon="5.81364">
        <ele>505.31</ele>
        <time>2019-03-10T09:34:27Z</time>
      </trkpt>
      <trkpt lat="43.44263" lon="5.81327">
        <ele>507.71</ele>
        <time>2019-03-10T09:34:44Z</time>
      </trkpt>
      <trkpt lat="43.4427" lon="5.81298">
        <ele>511.08</ele>
        <time>2019-03-10T09:34:58Z</time>
      </trkpt>
      <trkpt lat="43.44274" lon="5.81293">
        <ele>511.08</ele>
        <time>2019-03-10T09:35:02Z</time>
      </trkpt>
      <trkpt lat="43.44275" lon="5.81292">
        <ele>511.08</ele>
        <time>2019-03-10T09:35:03Z</time>
      </trkpt>
      <trkpt lat="43.4428" lon="5.81282">
        <ele>512.04</ele>
        <time>2019-03-10T09:35:17Z</time>
      </trkpt>
      <trkpt lat="43.44289" lon="5.8127">
        <ele>513</ele>
        <time>2019-03-10T09:35:29Z</time>
      </trkpt>
      <trkpt lat="43.44305" lon="5.81259">
        <ele>514.92</ele>
        <time>2019-03-10T09:35:46Z</time>
      </trkpt>
      <trkpt lat="43.44314" lon="5.81247">
        <ele>515.88</ele>
        <time>2019-03-10T09:35:59Z</time>
      </trkpt>
      <trkpt lat="43.44314" lon="5.81246">
        <ele>515.88</ele>
        <time>2019-03-10T09:36:00Z</time>
      </trkpt>
      <trkpt lat="43.44315" lon="5.81233">
        <ele>516.37</ele>
        <time>2019-03-10T09:36:14Z</time>
      </trkpt>
      <trkpt lat="43.44314" lon="5.81228">
        <ele>517.81</ele>
        <time>2019-03-10T09:36:31Z</time>
      </trkpt>
      <trkpt lat="43.44314" lon="5.81229">
        <ele>517.81</ele>
        <time>2019-03-10T09:36:54Z</time>
      </trkpt>
      <trkpt lat="43.44314" lon="5.81227">
        <ele>518.29</ele>
        <time>2019-03-10T09:37:11Z</time>
      </trkpt>
      <trkpt lat="43.44314" lon="5.81226">
        <ele>517.81</ele>
        <time>2019-03-10T09:37:33Z</time>
      </trkpt>
      <trkpt lat="43.44315" lon="5.81226">
        <ele>516.85</ele>
        <time>2019-03-10T09:37:57Z</time>
      </trkpt>
      <trkpt lat="43.44314" lon="5.81226">
        <ele>517.81</ele>
        <time>2019-03-10T09:38:16Z</time>
      </trkpt>
      <trkpt lat="43.44316" lon="5.81232">
        <ele>516.85</ele>
        <time>2019-03-10T09:38:29Z</time>
      </trkpt>
      <trkpt lat="43.44313" lon="5.81227">
        <ele>516.85</ele>
        <time>2019-03-10T09:38:46Z</time>
      </trkpt>
      <trkpt lat="43.44306" lon="5.81219">
        <ele>517.81</ele>
        <time>2019-03-10T09:38:59Z</time>
      </trkpt>
      <trkpt lat="43.44299" lon="5.81205">
        <ele>520.69</ele>
        <time>2019-03-10T09:39:16Z</time>
      </trkpt>
      <trkpt lat="43.44291" lon="5.8119">
        <ele>521.17</ele>
        <time>2019-03-10T09:39:31Z</time>
      </trkpt>
      <trkpt lat="43.44287" lon="5.81179">
        <ele>522.13</ele>
        <time>2019-03-10T09:39:40Z</time>
      </trkpt>
      <trkpt lat="43.44277" lon="5.81162">
        <ele>525.02</ele>
        <time>2019-03-10T09:39:57Z</time>
      </trkpt>
      <trkpt lat="43.44265" lon="5.81148">
        <ele>526.46</ele>
        <time>2019-03-10T09:40:13Z</time>
      </trkpt>
      <trkpt lat="43.44266" lon="5.81144">
        <ele>526.46</ele>
        <time>2019-03-10T09:40:16Z</time>
      </trkpt>
      <trkpt lat="43.44267" lon="5.81143">
        <ele>526.46</ele>
        <time>2019-03-10T09:40:17Z</time>
      </trkpt>
      <trkpt lat="43.44268" lon="5.81141">
        <ele>526.46</ele>
        <time>2019-03-10T09:40:18Z</time>
      </trkpt>
      <trkpt lat="43.44275" lon="5.81138">
        <ele>526.94</ele>
        <time>2019-03-10T09:40:26Z</time>
      </trkpt>
      <trkpt lat="43.44293" lon="5.81134">
        <ele>529.82</ele>
        <time>2019-03-10T09:40:44Z</time>
      </trkpt>
      <trkpt lat="43.44296" lon="5.81132">
        <ele>529.82</ele>
        <time>2019-03-10T09:40:48Z</time>
      </trkpt>
      <trkpt lat="43.44303" lon="5.81128">
        <ele>530.3</ele>
        <time>2019-03-10T09:40:55Z</time>
      </trkpt>
      <trkpt lat="43.44316" lon="5.81131">
        <ele>532.71</ele>
        <time>2019-03-10T09:41:09Z</time>
      </trkpt>
      <trkpt lat="43.44332" lon="5.81138">
        <ele>533.67</ele>
        <time>2019-03-10T09:41:23Z</time>
      </trkpt>
      <trkpt lat="43.44342" lon="5.81139">
        <ele>535.11</ele>
        <time>2019-03-10T09:41:33Z</time>
      </trkpt>
      <trkpt lat="43.44355" lon="5.81141">
        <ele>536.07</ele>
        <time>2019-03-10T09:41:47Z</time>
      </trkpt>
      <trkpt lat="43.44369" lon="5.81138">
        <ele>537.51</ele>
        <time>2019-03-10T09:42:02Z</time>
      </trkpt>
      <trkpt lat="43.44372" lon="5.81136">
        <ele>537.99</ele>
        <time>2019-03-10T09:42:05Z</time>
      </trkpt>
      <trkpt lat="43.44387" lon="5.81132">
        <ele>539.44</ele>
        <time>2019-03-10T09:42:19Z</time>
      </trkpt>
      <trkpt lat="43.44398" lon="5.81126">
        <ele>539.92</ele>
        <time>2019-03-10T09:42:33Z</time>
      </trkpt>
      <trkpt lat="43.44405" lon="5.81122">
        <ele>540.88</ele>
        <time>2019-03-10T09:42:41Z</time>
      </trkpt>
      <trkpt lat="43.44414" lon="5.8111">
        <ele>542.32</ele>
        <time>2019-03-10T09:42:54Z</time>
      </trkpt>
      <trkpt lat="43.44416" lon="5.81102">
        <ele>542.32</ele>
        <time>2019-03-10T09:43:01Z</time>
      </trkpt>
      <trkpt lat="43.44417" lon="5.81081">
        <ele>543.76</ele>
        <time>2019-03-10T09:43:18Z</time>
      </trkpt>
      <trkpt lat="43.44419" lon="5.81064">
        <ele>544.72</ele>
        <time>2019-03-10T09:43:29Z</time>
      </trkpt>
      <trkpt lat="43.44427" lon="5.81025">
        <ele>546.65</ele>
        <time>2019-03-10T09:43:44Z</time>
      </trkpt>
      <trkpt lat="43.44439" lon="5.80995">
        <ele>548.57</ele>
        <time>2019-03-10T09:43:59Z</time>
      </trkpt>
      <trkpt lat="43.44447" lon="5.80972">
        <ele>550.97</ele>
        <time>2019-03-10T09:44:13Z</time>
      </trkpt>
      <trkpt lat="43.4445" lon="5.80955">
        <ele>552.9</ele>
        <time>2019-03-10T09:44:23Z</time>
      </trkpt>
      <trkpt lat="43.4445" lon="5.80953">
        <ele>552.9</ele>
        <time>2019-03-10T09:44:24Z</time>
      </trkpt>
      <trkpt lat="43.44456" lon="5.80935">
        <ele>554.34</ele>
        <time>2019-03-10T09:44:33Z</time>
      </trkpt>
      <trkpt lat="43.44458" lon="5.8093">
        <ele>554.34</ele>
        <time>2019-03-10T09:44:36Z</time>
      </trkpt>
      <trkpt lat="43.44459" lon="5.80929">
        <ele>554.82</ele>
        <time>2019-03-10T09:44:37Z</time>
      </trkpt>
      <trkpt lat="43.44471" lon="5.809">
        <ele>557.7</ele>
        <time>2019-03-10T09:44:52Z</time>
      </trkpt>
      <trkpt lat="43.44484" lon="5.80875">
        <ele>560.59</ele>
        <time>2019-03-10T09:45:08Z</time>
      </trkpt>
      <trkpt lat="43.44485" lon="5.80871">
        <ele>561.55</ele>
        <time>2019-03-10T09:45:10Z</time>
      </trkpt>
      <trkpt lat="43.44487" lon="5.8087">
        <ele>562.03</ele>
        <time>2019-03-10T09:45:11Z</time>
      </trkpt>
      <trkpt lat="43.44488" lon="5.80868">
        <ele>562.51</ele>
        <time>2019-03-10T09:45:12Z</time>
      </trkpt>
      <trkpt lat="43.44489" lon="5.80867">
        <ele>562.51</ele>
        <time>2019-03-10T09:45:13Z</time>
      </trkpt>
      <trkpt lat="43.44489" lon="5.80865">
        <ele>562.99</ele>
        <time>2019-03-10T09:45:14Z</time>
      </trkpt>
      <trkpt lat="43.44503" lon="5.80839">
        <ele>565.39</ele>
        <time>2019-03-10T09:45:29Z</time>
      </trkpt>
      <trkpt lat="43.44509" lon="5.8082">
        <ele>566.83</ele>
        <time>2019-03-10T09:45:37Z</time>
      </trkpt>
      <trkpt lat="43.44517" lon="5.80795">
        <ele>567.8</ele>
        <time>2019-03-10T09:45:53Z</time>
      </trkpt>
      <trkpt lat="43.44529" lon="5.80771">
        <ele>567.8</ele>
        <time>2019-03-10T09:46:06Z</time>
      </trkpt>
      <trkpt lat="43.4453" lon="5.80768">
        <ele>566.35</ele>
        <time>2019-03-10T09:46:07Z</time>
      </trkpt>
      <trkpt lat="43.44531" lon="5.80763">
        <ele>566.35</ele>
        <time>2019-03-10T09:46:08Z</time>
      </trkpt>
      <trkpt lat="43.44533" lon="5.80751">
        <ele>565.87</ele>
        <time>2019-03-10T09:46:10Z</time>
      </trkpt>
      <trkpt lat="43.44533" lon="5.80745">
        <ele>565.39</ele>
        <time>2019-03-10T09:46:11Z</time>
      </trkpt>
      <trkpt lat="43.44534" lon="5.80736">
        <ele>565.39</ele>
        <time>2019-03-10T09:46:12Z</time>
      </trkpt>
      <trkpt lat="43.44538" lon="5.80711">
        <ele>563.95</ele>
        <time>2019-03-10T09:46:15Z</time>
      </trkpt>
      <trkpt lat="43.44541" lon="5.80696">
        <ele>564.43</ele>
        <time>2019-03-10T09:46:17Z</time>
      </trkpt>
      <trkpt lat="43.44542" lon="5.80689">
        <ele>564.43</ele>
        <time>2019-03-10T09:46:18Z</time>
      </trkpt>
      <trkpt lat="43.44543" lon="5.80682">
        <ele>564.43</ele>
        <time>2019-03-10T09:46:19Z</time>
      </trkpt>
      <trkpt lat="43.44543" lon="5.80674">
        <ele>564.43</ele>
        <time>2019-03-10T09:46:20Z</time>
      </trkpt>
      <trkpt lat="43.44543" lon="5.80668">
        <ele>564.43</ele>
        <time>2019-03-10T09:46:21Z</time>
      </trkpt>
      <trkpt lat="43.44544" lon="5.80663">
        <ele>564.43</ele>
        <time>2019-03-10T09:46:22Z</time>
      </trkpt>
      <trkpt lat="43.44544" lon="5.80658">
        <ele>564.43</ele>
        <time>2019-03-10T09:46:23Z</time>
      </trkpt>
      <trkpt lat="43.44544" lon="5.80654">
        <ele>564.43</ele>
        <time>2019-03-10T09:46:24Z</time>
      </trkpt>
      <trkpt lat="43.44544" lon="5.80642">
        <ele>565.39</ele>
        <time>2019-03-10T09:46:28Z</time>
      </trkpt>
      <trkpt lat="43.44547" lon="5.80615">
        <ele>568.76</ele>
        <time>2019-03-10T09:46:38Z</time>
      </trkpt>
      <trkpt lat="43.44549" lon="5.80591">
        <ele>570.2</ele>
        <time>2019-03-10T09:46:51Z</time>
      </trkpt>
      <trkpt lat="43.44547" lon="5.80572">
        <ele>571.16</ele>
        <time>2019-03-10T09:47:04Z</time>
      </trkpt>
      <trkpt lat="43.44551" lon="5.8055">
        <ele>572.6</ele>
        <time>2019-03-10T09:47:21Z</time>
      </trkpt>
      <trkpt lat="43.44555" lon="5.80542">
        <ele>573.08</ele>
        <time>2019-03-10T09:47:26Z</time>
      </trkpt>
      <trkpt lat="43.44556" lon="5.80541">
        <ele>573.08</ele>
        <time>2019-03-10T09:47:27Z</time>
      </trkpt>
      <trkpt lat="43.44566" lon="5.80527">
        <ele>575.49</ele>
        <time>2019-03-10T09:47:43Z</time>
      </trkpt>
      <trkpt lat="43.44568" lon="5.80523">
        <ele>575.49</ele>
        <time>2019-03-10T09:47:47Z</time>
      </trkpt>
      <trkpt lat="43.4457" lon="5.80511">
        <ele>576.45</ele>
        <time>2019-03-10T09:47:59Z</time>
      </trkpt>
      <trkpt lat="43.44573" lon="5.80496">
        <ele>576.93</ele>
        <time>2019-03-10T09:48:12Z</time>
      </trkpt>
      <trkpt lat="43.44574" lon="5.8048">
        <ele>578.37</ele>
        <time>2019-03-10T09:48:27Z</time>
      </trkpt>
      <trkpt lat="43.44583" lon="5.80462">
        <ele>579.81</ele>
        <time>2019-03-10T09:48:41Z</time>
      </trkpt>
      <trkpt lat="43.44597" lon="5.80447">
        <ele>580.77</ele>
        <time>2019-03-10T09:48:55Z</time>
      </trkpt>
      <trkpt lat="43.44609" lon="5.80434">
        <ele>582.22</ele>
        <time>2019-03-10T09:49:10Z</time>
      </trkpt>
      <trkpt lat="43.44616" lon="5.80415">
        <ele>582.7</ele>
        <time>2019-03-10T09:49:25Z</time>
      </trkpt>
      <trkpt lat="43.44617" lon="5.80393">
        <ele>583.66</ele>
        <time>2019-03-10T09:49:41Z</time>
      </trkpt>
      <trkpt lat="43.4462" lon="5.80373">
        <ele>584.62</ele>
        <time>2019-03-10T09:49:52Z</time>
      </trkpt>
      <trkpt lat="43.44621" lon="5.80352">
        <ele>586.06</ele>
        <time>2019-03-10T09:50:07Z</time>
      </trkpt>
      <trkpt lat="43.44631" lon="5.80333">
        <ele>586.54</ele>
        <time>2019-03-10T09:50:22Z</time>
      </trkpt>
      <trkpt lat="43.44634" lon="5.80331">
        <ele>587.5</ele>
        <time>2019-03-10T09:50:25Z</time>
      </trkpt>
      <trkpt lat="43.44651" lon="5.80316">
        <ele>589.43</ele>
        <time>2019-03-10T09:50:41Z</time>
      </trkpt>
      <trkpt lat="43.44661" lon="5.8031">
        <ele>590.39</ele>
        <time>2019-03-10T09:50:57Z</time>
      </trkpt>
      <trkpt lat="43.44666" lon="5.80297">
        <ele>590.87</ele>
        <time>2019-03-10T09:51:11Z</time>
      </trkpt>
      <trkpt lat="43.44668" lon="5.8029">
        <ele>591.35</ele>
        <time>2019-03-10T09:51:16Z</time>
      </trkpt>
      <trkpt lat="43.44671" lon="5.80272">
        <ele>594.23</ele>
        <time>2019-03-10T09:51:31Z</time>
      </trkpt>
      <trkpt lat="43.44672" lon="5.80268">
        <ele>594.23</ele>
        <time>2019-03-10T09:51:34Z</time>
      </trkpt>
      <trkpt lat="43.44678" lon="5.80251">
        <ele>595.19</ele>
        <time>2019-03-10T09:51:47Z</time>
      </trkpt>
      <trkpt lat="43.44684" lon="5.80238">
        <ele>596.15</ele>
        <time>2019-03-10T09:51:58Z</time>
      </trkpt>
      <trkpt lat="43.44692" lon="5.80219">
        <ele>599.04</ele>
        <time>2019-03-10T09:52:14Z</time>
      </trkpt>
      <trkpt lat="43.44704" lon="5.80198">
        <ele>601.44</ele>
        <time>2019-03-10T09:52:32Z</time>
      </trkpt>
      <trkpt lat="43.44713" lon="5.80182">
        <ele>603.36</ele>
        <time>2019-03-10T09:52:47Z</time>
      </trkpt>
      <trkpt lat="43.44714" lon="5.80178">
        <ele>605.29</ele>
        <time>2019-03-10T09:52:50Z</time>
      </trkpt>
      <trkpt lat="43.44722" lon="5.80169">
        <ele>605.77</ele>
        <time>2019-03-10T09:53:04Z</time>
      </trkpt>
      <trkpt lat="43.44736" lon="5.80165">
        <ele>605.77</ele>
        <time>2019-03-10T09:53:15Z</time>
      </trkpt>
      <trkpt lat="43.44739" lon="5.80166">
        <ele>606.25</ele>
        <time>2019-03-10T09:53:18Z</time>
      </trkpt>
      <trkpt lat="43.44755" lon="5.80184">
        <ele>609.61</ele>
        <time>2019-03-10T09:53:33Z</time>
      </trkpt>
      <trkpt lat="43.44766" lon="5.80199">
        <ele>612.5</ele>
        <time>2019-03-10T09:53:42Z</time>
      </trkpt>
      <trkpt lat="43.44768" lon="5.80199">
        <ele>612.98</ele>
        <time>2019-03-10T09:53:43Z</time>
      </trkpt>
      <trkpt lat="43.44769" lon="5.80198">
        <ele>612.98</ele>
        <time>2019-03-10T09:53:44Z</time>
      </trkpt>
      <trkpt lat="43.44771" lon="5.80198">
        <ele>613.46</ele>
        <time>2019-03-10T09:53:45Z</time>
      </trkpt>
      <trkpt lat="43.44773" lon="5.80197">
        <ele>613.46</ele>
        <time>2019-03-10T09:53:46Z</time>
      </trkpt>
      <trkpt lat="43.44774" lon="5.80196">
        <ele>613.94</ele>
        <time>2019-03-10T09:53:47Z</time>
      </trkpt>
      <trkpt lat="43.44775" lon="5.80196">
        <ele>614.42</ele>
        <time>2019-03-10T09:53:48Z</time>
      </trkpt>
      <trkpt lat="43.4478" lon="5.80194">
        <ele>613.94</ele>
        <time>2019-03-10T09:53:52Z</time>
      </trkpt>
      <trkpt lat="43.44782" lon="5.80192">
        <ele>613.94</ele>
        <time>2019-03-10T09:53:53Z</time>
      </trkpt>
      <trkpt lat="43.44795" lon="5.80169">
        <ele>616.82</ele>
        <time>2019-03-10T09:54:09Z</time>
      </trkpt>
      <trkpt lat="43.44801" lon="5.80152">
        <ele>618.26</ele>
        <time>2019-03-10T09:54:22Z</time>
      </trkpt>
      <trkpt lat="43.44809" lon="5.80125">
        <ele>620.19</ele>
        <time>2019-03-10T09:54:37Z</time>
      </trkpt>
      <trkpt lat="43.44812" lon="5.80111">
        <ele>621.15</ele>
        <time>2019-03-10T09:54:51Z</time>
      </trkpt>
      <trkpt lat="43.44813" lon="5.80105">
        <ele>622.11</ele>
        <time>2019-03-10T09:55:03Z</time>
      </trkpt>
      <trkpt lat="43.44813" lon="5.80102">
        <ele>621.15</ele>
        <time>2019-03-10T09:55:09Z</time>
      </trkpt>
      <trkpt lat="43.44813" lon="5.80106">
        <ele>621.15</ele>
        <time>2019-03-10T09:55:23Z</time>
      </trkpt>
      <trkpt lat="43.44814" lon="5.80102">
        <ele>620.19</ele>
        <time>2019-03-10T09:56:01Z</time>
      </trkpt>
      <trkpt lat="43.44812" lon="5.80103">
        <ele>619.71</ele>
        <time>2019-03-10T09:56:45Z</time>
      </trkpt>
      <trkpt lat="43.44812" lon="5.80105">
        <ele>621.15</ele>
        <time>2019-03-10T09:57:17Z</time>
      </trkpt>
      <trkpt lat="43.44814" lon="5.80105">
        <ele>619.71</ele>
        <time>2019-03-10T09:57:51Z</time>
      </trkpt>
      <trkpt lat="43.44812" lon="5.80105">
        <ele>620.67</ele>
        <time>2019-03-10T09:58:25Z</time>
      </trkpt>
      <trkpt lat="43.44812" lon="5.80107">
        <ele>619.71</ele>
        <time>2019-03-10T09:58:52Z</time>
      </trkpt>
      <trkpt lat="43.44811" lon="5.80108">
        <ele>619.71</ele>
        <time>2019-03-10T09:59:01Z</time>
      </trkpt>
      <trkpt lat="43.44811" lon="5.80104">
        <ele>619.23</ele>
        <time>2019-03-10T09:59:40Z</time>
      </trkpt>
      <trkpt lat="43.44812" lon="5.80106">
        <ele>619.23</ele>
        <time>2019-03-10T10:00:12Z</time>
      </trkpt>
      <trkpt lat="43.44812" lon="5.80107">
        <ele>620.19</ele>
        <time>2019-03-10T10:00:41Z</time>
      </trkpt>
      <trkpt lat="43.44815" lon="5.80108">
        <ele>619.23</ele>
        <time>2019-03-10T10:00:51Z</time>
      </trkpt>
      <trkpt lat="43.44817" lon="5.80106">
        <ele>619.23</ele>
        <time>2019-03-10T10:01:02Z</time>
      </trkpt>
      <trkpt lat="43.44814" lon="5.80105">
        <ele>619.23</ele>
        <time>2019-03-10T10:01:17Z</time>
      </trkpt>
      <trkpt lat="43.44819" lon="5.80109">
        <ele>618.75</ele>
        <time>2019-03-10T10:01:29Z</time>
      </trkpt>
      <trkpt lat="43.4482" lon="5.8011">
        <ele>618.75</ele>
        <time>2019-03-10T10:01:31Z</time>
      </trkpt>
      <trkpt lat="43.44821" lon="5.80111">
        <ele>618.75</ele>
        <time>2019-03-10T10:01:32Z</time>
      </trkpt>
      <trkpt lat="43.44823" lon="5.80112">
        <ele>620.19</ele>
        <time>2019-03-10T10:01:33Z</time>
      </trkpt>
      <trkpt lat="43.44824" lon="5.80114">
        <ele>621.15</ele>
        <time>2019-03-10T10:01:34Z</time>
      </trkpt>
      <trkpt lat="43.44826" lon="5.80116">
        <ele>621.15</ele>
        <time>2019-03-10T10:01:35Z</time>
      </trkpt>
      <trkpt lat="43.44827" lon="5.80117">
        <ele>620.19</ele>
        <time>2019-03-10T10:01:36Z</time>
      </trkpt>
      <trkpt lat="43.44834" lon="5.80126">
        <ele>617.78</ele>
        <time>2019-03-10T10:01:40Z</time>
      </trkpt>
      <trkpt lat="43.44834" lon="5.80159">
        <ele>617.78</ele>
        <time>2019-03-10T10:01:53Z</time>
      </trkpt>
      <trkpt lat="43.44833" lon="5.80173">
        <ele>620.19</ele>
        <time>2019-03-10T10:01:59Z</time>
      </trkpt>
      <trkpt lat="43.44829" lon="5.80221">
        <ele>620.67</ele>
        <time>2019-03-10T10:02:16Z</time>
      </trkpt>
      <trkpt lat="43.44836" lon="5.80268">
        <ele>623.07</ele>
        <time>2019-03-10T10:02:30Z</time>
      </trkpt>
      <trkpt lat="43.44838" lon="5.80296">
        <ele>621.63</ele>
        <time>2019-03-10T10:02:37Z</time>
      </trkpt>
      <trkpt lat="43.44832" lon="5.80347">
        <ele>617.3</ele>
        <time>2019-03-10T10:02:48Z</time>
      </trkpt>
      <trkpt lat="43.44833" lon="5.80358">
        <ele>616.82</ele>
        <time>2019-03-10T10:02:50Z</time>
      </trkpt>
      <trkpt lat="43.44832" lon="5.80363">
        <ele>616.82</ele>
        <time>2019-03-10T10:02:51Z</time>
      </trkpt>
      <trkpt lat="43.44832" lon="5.80369">
        <ele>616.82</ele>
        <time>2019-03-10T10:02:52Z</time>
      </trkpt>
      <trkpt lat="43.44831" lon="5.80375">
        <ele>616.34</ele>
        <time>2019-03-10T10:02:53Z</time>
      </trkpt>
      <trkpt lat="43.4483" lon="5.80381">
        <ele>615.86</ele>
        <time>2019-03-10T10:02:54Z</time>
      </trkpt>
      <trkpt lat="43.4483" lon="5.80386">
        <ele>615.38</ele>
        <time>2019-03-10T10:02:55Z</time>
      </trkpt>
      <trkpt lat="43.44829" lon="5.80392">
        <ele>615.38</ele>
        <time>2019-03-10T10:02:56Z</time>
      </trkpt>
      <trkpt lat="43.44828" lon="5.80398">
        <ele>614.9</ele>
        <time>2019-03-10T10:02:57Z</time>
      </trkpt>
      <trkpt lat="43.44821" lon="5.8043">
        <ele>612.5</ele>
        <time>2019-03-10T10:03:03Z</time>
      </trkpt>
      <trkpt lat="43.4482" lon="5.80437">
        <ele>612.5</ele>
        <time>2019-03-10T10:03:04Z</time>
      </trkpt>
      <trkpt lat="43.4482" lon="5.80443">
        <ele>612.02</ele>
        <time>2019-03-10T10:03:05Z</time>
      </trkpt>
      <trkpt lat="43.4482" lon="5.80449">
        <ele>612.02</ele>
        <time>2019-03-10T10:03:06Z</time>
      </trkpt>
      <trkpt lat="43.4482" lon="5.80456">
        <ele>611.06</ele>
        <time>2019-03-10T10:03:07Z</time>
      </trkpt>
      <trkpt lat="43.44821" lon="5.8048">
        <ele>610.09</ele>
        <time>2019-03-10T10:03:10Z</time>
      </trkpt>
      <trkpt lat="43.44823" lon="5.80488">
        <ele>610.09</ele>
        <time>2019-03-10T10:03:11Z</time>
      </trkpt>
      <trkpt lat="43.44824" lon="5.80496">
        <ele>610.09</ele>
        <time>2019-03-10T10:03:12Z</time>
      </trkpt>
      <trkpt lat="43.44826" lon="5.80503">
        <ele>609.61</ele>
        <time>2019-03-10T10:03:13Z</time>
      </trkpt>
      <trkpt lat="43.44828" lon="5.8051">
        <ele>609.61</ele>
        <time>2019-03-10T10:03:14Z</time>
      </trkpt>
      <trkpt lat="43.44831" lon="5.80516">
        <ele>609.61</ele>
        <time>2019-03-10T10:03:15Z</time>
      </trkpt>
      <trkpt lat="43.44841" lon="5.80565">
        <ele>609.61</ele>
        <time>2019-03-10T10:03:24Z</time>
      </trkpt>
      <trkpt lat="43.44848" lon="5.80615">
        <ele>610.57</ele>
        <time>2019-03-10T10:03:32Z</time>
      </trkpt>
      <trkpt lat="43.44854" lon="5.80689">
        <ele>611.54</ele>
        <time>2019-03-10T10:03:44Z</time>
      </trkpt>
      <trkpt lat="43.44855" lon="5.80725">
        <ele>611.54</ele>
        <time>2019-03-10T10:03:50Z</time>
      </trkpt>
      <trkpt lat="43.44854" lon="5.80769">
        <ele>609.61</ele>
        <time>2019-03-10T10:04:00Z</time>
      </trkpt>
      <trkpt lat="43.44848" lon="5.80817">
        <ele>608.17</ele>
        <time>2019-03-10T10:04:12Z</time>
      </trkpt>
      <trkpt lat="43.44847" lon="5.80831">
        <ele>606.73</ele>
        <time>2019-03-10T10:04:23Z</time>
      </trkpt>
      <trkpt lat="43.44848" lon="5.8083">
        <ele>607.69</ele>
        <time>2019-03-10T10:04:31Z</time>
      </trkpt>
      <trkpt lat="43.44851" lon="5.8083">
        <ele>607.21</ele>
        <time>2019-03-10T10:04:45Z</time>
      </trkpt>
      <trkpt lat="43.44851" lon="5.80829">
        <ele>607.21</ele>
        <time>2019-03-10T10:04:46Z</time>
      </trkpt>
      <trkpt lat="43.44852" lon="5.80828">
        <ele>607.21</ele>
        <time>2019-03-10T10:04:47Z</time>
      </trkpt>
      <trkpt lat="43.44857" lon="5.80825">
        <ele>607.21</ele>
        <time>2019-03-10T10:04:51Z</time>
      </trkpt>
      <trkpt lat="43.44858" lon="5.80825">
        <ele>607.21</ele>
        <time>2019-03-10T10:04:52Z</time>
      </trkpt>
      <trkpt lat="43.44859" lon="5.80826">
        <ele>607.21</ele>
        <time>2019-03-10T10:04:53Z</time>
      </trkpt>
      <trkpt lat="43.4486" lon="5.80827">
        <ele>607.21</ele>
        <time>2019-03-10T10:04:54Z</time>
      </trkpt>
      <trkpt lat="43.44861" lon="5.80829">
        <ele>607.21</ele>
        <time>2019-03-10T10:04:55Z</time>
      </trkpt>
      <trkpt lat="43.44861" lon="5.80835">
        <ele>607.21</ele>
        <time>2019-03-10T10:05:06Z</time>
      </trkpt>
      <trkpt lat="43.44863" lon="5.80833">
        <ele>607.21</ele>
        <time>2019-03-10T10:05:20Z</time>
      </trkpt>
      <trkpt lat="43.4486" lon="5.80829">
        <ele>607.21</ele>
        <time>2019-03-10T10:05:26Z</time>
      </trkpt>
      <trkpt lat="43.44858" lon="5.80828">
        <ele>606.25</ele>
        <time>2019-03-10T10:05:28Z</time>
      </trkpt>
      <trkpt lat="43.44857" lon="5.80828">
        <ele>605.29</ele>
        <time>2019-03-10T10:05:29Z</time>
      </trkpt>
      <trkpt lat="43.44854" lon="5.80828">
        <ele>606.73</ele>
        <time>2019-03-10T10:05:32Z</time>
      </trkpt>
      <trkpt lat="43.44853" lon="5.80828">
        <ele>606.73</ele>
        <time>2019-03-10T10:05:33Z</time>
      </trkpt>
      <trkpt lat="43.44852" lon="5.80829">
        <ele>606.73</ele>
        <time>2019-03-10T10:05:34Z</time>
      </trkpt>
      <trkpt lat="43.44851" lon="5.8083">
        <ele>606.73</ele>
        <time>2019-03-10T10:05:35Z</time>
      </trkpt>
      <trkpt lat="43.4485" lon="5.80831">
        <ele>606.73</ele>
        <time>2019-03-10T10:05:36Z</time>
      </trkpt>
      <trkpt lat="43.44849" lon="5.80831">
        <ele>607.69</ele>
        <time>2019-03-10T10:05:51Z</time>
      </trkpt>
      <trkpt lat="43.4485" lon="5.80833">
        <ele>606.25</ele>
        <time>2019-03-10T10:06:02Z</time>
      </trkpt>
      <trkpt lat="43.4485" lon="5.80831">
        <ele>605.77</ele>
        <time>2019-03-10T10:06:28Z</time>
      </trkpt>
      <trkpt lat="43.4485" lon="5.80832">
        <ele>607.21</ele>
        <time>2019-03-10T10:06:49Z</time>
      </trkpt>
      <trkpt lat="43.44851" lon="5.80833">
        <ele>608.17</ele>
        <time>2019-03-10T10:07:15Z</time>
      </trkpt>
      <trkpt lat="43.44851" lon="5.80833">
        <ele>606.73</ele>
        <time>2019-03-10T10:07:20Z</time>
      </trkpt>
      <trkpt lat="43.44849" lon="5.80833">
        <ele>606.25</ele>
        <time>2019-03-10T10:07:47Z</time>
      </trkpt>
      <trkpt lat="43.44849" lon="5.80832">
        <ele>606.25</ele>
        <time>2019-03-10T10:07:48Z</time>
      </trkpt>
      <trkpt lat="43.4485" lon="5.80833">
        <ele>606.73</ele>
        <time>2019-03-10T10:08:23Z</time>
      </trkpt>
      <trkpt lat="43.4485" lon="5.80833">
        <ele>605.29</ele>
        <time>2019-03-10T10:08:25Z</time>
      </trkpt>
      <trkpt lat="43.4485" lon="5.80833">
        <ele>606.73</ele>
        <time>2019-03-10T10:08:31Z</time>
      </trkpt>
      <trkpt lat="43.4485" lon="5.80832">
        <ele>605.29</ele>
        <time>2019-03-10T10:08:36Z</time>
      </trkpt>
      <trkpt lat="43.4485" lon="5.8083">
        <ele>606.73</ele>
        <time>2019-03-10T10:08:59Z</time>
      </trkpt>
      <trkpt lat="43.44849" lon="5.80832">
        <ele>606.25</ele>
        <time>2019-03-10T10:09:13Z</time>
      </trkpt>
      <trkpt lat="43.44849" lon="5.80832">
        <ele>604.81</ele>
        <time>2019-03-10T10:09:15Z</time>
      </trkpt>
      <trkpt lat="43.44848" lon="5.80833">
        <ele>603.36</ele>
        <time>2019-03-10T10:09:46Z</time>
      </trkpt>
      <trkpt lat="43.44848" lon="5.80835">
        <ele>603.36</ele>
        <time>2019-03-10T10:10:05Z</time>
      </trkpt>
      <trkpt lat="43.4485" lon="5.80832">
        <ele>604.33</ele>
        <time>2019-03-10T10:10:30Z</time>
      </trkpt>
      <trkpt lat="43.44851" lon="5.80834">
        <ele>604.33</ele>
        <time>2019-03-10T10:10:36Z</time>
      </trkpt>
      <trkpt lat="43.44851" lon="5.80836">
        <ele>604.33</ele>
        <time>2019-03-10T10:10:38Z</time>
      </trkpt>
      <trkpt lat="43.44851" lon="5.80838">
        <ele>604.33</ele>
        <time>2019-03-10T10:10:39Z</time>
      </trkpt>
      <trkpt lat="43.44851" lon="5.8084">
        <ele>604.33</ele>
        <time>2019-03-10T10:10:40Z</time>
      </trkpt>
      <trkpt lat="43.44851" lon="5.80842">
        <ele>603.36</ele>
        <time>2019-03-10T10:10:41Z</time>
      </trkpt>
      <trkpt lat="43.44852" lon="5.80844">
        <ele>603.36</ele>
        <time>2019-03-10T10:10:42Z</time>
      </trkpt>
      <trkpt lat="43.44853" lon="5.80846">
        <ele>602.4</ele>
        <time>2019-03-10T10:10:44Z</time>
      </trkpt>
      <trkpt lat="43.44857" lon="5.80845">
        <ele>601.92</ele>
        <time>2019-03-10T10:10:50Z</time>
      </trkpt>
      <trkpt lat="43.44875" lon="5.80819">
        <ele>599.52</ele>
        <time>2019-03-10T10:11:00Z</time>
      </trkpt>
      <trkpt lat="43.44881" lon="5.80816">
        <ele>598.56</ele>
        <time>2019-03-10T10:11:03Z</time>
      </trkpt>
      <trkpt lat="43.44882" lon="5.80817">
        <ele>598.56</ele>
        <time>2019-03-10T10:11:04Z</time>
      </trkpt>
      <trkpt lat="43.44883" lon="5.80818">
        <ele>598.08</ele>
        <time>2019-03-10T10:11:05Z</time>
      </trkpt>
      <trkpt lat="43.44884" lon="5.80819">
        <ele>597.6</ele>
        <time>2019-03-10T10:11:06Z</time>
      </trkpt>
      <trkpt lat="43.44884" lon="5.80821">
        <ele>597.6</ele>
        <time>2019-03-10T10:11:07Z</time>
      </trkpt>
      <trkpt lat="43.44883" lon="5.80823">
        <ele>597.12</ele>
        <time>2019-03-10T10:11:08Z</time>
      </trkpt>
      <trkpt lat="43.44882" lon="5.80825">
        <ele>597.12</ele>
        <time>2019-03-10T10:11:09Z</time>
      </trkpt>
      <trkpt lat="43.44876" lon="5.80849">
        <ele>594.71</ele>
        <time>2019-03-10T10:11:14Z</time>
      </trkpt>
      <trkpt lat="43.44872" lon="5.80864">
        <ele>593.27</ele>
        <time>2019-03-10T10:11:17Z</time>
      </trkpt>
      <trkpt lat="43.44866" lon="5.80897">
        <ele>590.39</ele>
        <time>2019-03-10T10:11:26Z</time>
      </trkpt>
      <trkpt lat="43.44863" lon="5.80926">
        <ele>587.02</ele>
        <time>2019-03-10T10:11:33Z</time>
      </trkpt>
      <trkpt lat="43.4486" lon="5.80959">
        <ele>583.66</ele>
        <time>2019-03-10T10:11:44Z</time>
      </trkpt>
      <trkpt lat="43.44854" lon="5.80994">
        <ele>580.77</ele>
        <time>2019-03-10T10:11:55Z</time>
      </trkpt>
      <trkpt lat="43.4485" lon="5.81026">
        <ele>577.41</ele>
        <time>2019-03-10T10:12:05Z</time>
      </trkpt>
      <trkpt lat="43.44849" lon="5.81028">
        <ele>577.41</ele>
        <time>2019-03-10T10:12:06Z</time>
      </trkpt>
      <trkpt lat="43.44835" lon="5.81062">
        <ele>575.49</ele>
        <time>2019-03-10T10:12:19Z</time>
      </trkpt>
      <trkpt lat="43.44829" lon="5.81069">
        <ele>575.01</ele>
        <time>2019-03-10T10:12:40Z</time>
      </trkpt>
      <trkpt lat="43.4483" lon="5.81068">
        <ele>574.53</ele>
        <time>2019-03-10T10:12:41Z</time>
      </trkpt>
      <trkpt lat="43.44831" lon="5.81068">
        <ele>574.53</ele>
        <time>2019-03-10T10:12:42Z</time>
      </trkpt>
      <trkpt lat="43.44836" lon="5.81064">
        <ele>572.6</ele>
        <time>2019-03-10T10:12:46Z</time>
      </trkpt>
      <trkpt lat="43.44837" lon="5.81063">
        <ele>573.08</ele>
        <time>2019-03-10T10:12:47Z</time>
      </trkpt>
      <trkpt lat="43.44838" lon="5.81062">
        <ele>573.08</ele>
        <time>2019-03-10T10:12:48Z</time>
      </trkpt>
      <trkpt lat="43.44839" lon="5.8106">
        <ele>572.6</ele>
        <time>2019-03-10T10:12:49Z</time>
      </trkpt>
      <trkpt lat="43.44841" lon="5.81057">
        <ele>572.12</ele>
        <time>2019-03-10T10:12:50Z</time>
      </trkpt>
      <trkpt lat="43.44842" lon="5.81054">
        <ele>572.12</ele>
        <time>2019-03-10T10:12:51Z</time>
      </trkpt>
      <trkpt lat="43.44844" lon="5.81051">
        <ele>571.16</ele>
        <time>2019-03-10T10:12:52Z</time>
      </trkpt>
      <trkpt lat="43.44865" lon="5.81022">
        <ele>567.8</ele>
        <time>2019-03-10T10:13:02Z</time>
      </trkpt>
      <trkpt lat="43.44884" lon="5.81003">
        <ele>564.43</ele>
        <time>2019-03-10T10:13:15Z</time>
      </trkpt>
      <trkpt lat="43.44903" lon="5.80982">
        <ele>561.07</ele>
        <time>2019-03-10T10:13:27Z</time>
      </trkpt>
      <trkpt lat="43.44907" lon="5.80978">
        <ele>560.11</ele>
        <time>2019-03-10T10:13:30Z</time>
      </trkpt>
      <trkpt lat="43.44909" lon="5.80976">
        <ele>560.11</ele>
        <time>2019-03-10T10:13:31Z</time>
      </trkpt>
      <trkpt lat="43.4491" lon="5.80974">
        <ele>560.11</ele>
        <time>2019-03-10T10:13:32Z</time>
      </trkpt>
      <trkpt lat="43.44913" lon="5.80971">
        <ele>559.62</ele>
        <time>2019-03-10T10:13:34Z</time>
      </trkpt>
      <trkpt lat="43.44917" lon="5.80967">
        <ele>559.14</ele>
        <time>2019-03-10T10:13:38Z</time>
      </trkpt>
      <trkpt lat="43.44934" lon="5.80946">
        <ele>555.3</ele>
        <time>2019-03-10T10:13:48Z</time>
      </trkpt>
      <trkpt lat="43.44942" lon="5.80932">
        <ele>553.86</ele>
        <time>2019-03-10T10:13:53Z</time>
      </trkpt>
      <trkpt lat="43.44948" lon="5.80923">
        <ele>552.41</ele>
        <time>2019-03-10T10:13:56Z</time>
      </trkpt>
      <trkpt lat="43.44962" lon="5.80904">
        <ele>549.05</ele>
        <time>2019-03-10T10:14:03Z</time>
      </trkpt>
      <trkpt lat="43.44977" lon="5.80879">
        <ele>545.69</ele>
        <time>2019-03-10T10:14:11Z</time>
      </trkpt>
      <trkpt lat="43.44989" lon="5.80856">
        <ele>542.32</ele>
        <time>2019-03-10T10:14:20Z</time>
      </trkpt>
      <trkpt lat="43.45002" lon="5.80824">
        <ele>539.92</ele>
        <time>2019-03-10T10:14:30Z</time>
      </trkpt>
      <trkpt lat="43.45004" lon="5.80822">
        <ele>538.96</ele>
        <time>2019-03-10T10:14:31Z</time>
      </trkpt>
      <trkpt lat="43.45007" lon="5.80822">
        <ele>538.48</ele>
        <time>2019-03-10T10:14:33Z</time>
      </trkpt>
      <trkpt lat="43.45012" lon="5.80818">
        <ele>537.51</ele>
        <time>2019-03-10T10:14:37Z</time>
      </trkpt>
      <trkpt lat="43.45014" lon="5.80823">
        <ele>536.07</ele>
        <time>2019-03-10T10:14:43Z</time>
      </trkpt>
      <trkpt lat="43.45017" lon="5.80829">
        <ele>535.59</ele>
        <time>2019-03-10T10:14:47Z</time>
      </trkpt>
      <trkpt lat="43.45025" lon="5.80842">
        <ele>531.27</ele>
        <time>2019-03-10T10:14:55Z</time>
      </trkpt>
      <trkpt lat="43.45026" lon="5.80843">
        <ele>530.79</ele>
        <time>2019-03-10T10:14:56Z</time>
      </trkpt>
      <trkpt lat="43.45026" lon="5.80845">
        <ele>530.79</ele>
        <time>2019-03-10T10:15:13Z</time>
      </trkpt>
      <trkpt lat="43.45028" lon="5.80845">
        <ele>529.82</ele>
        <time>2019-03-10T10:15:14Z</time>
      </trkpt>
      <trkpt lat="43.45043" lon="5.80849">
        <ele>526.46</ele>
        <time>2019-03-10T10:15:22Z</time>
      </trkpt>
      <trkpt lat="43.45057" lon="5.80853">
        <ele>525.02</ele>
        <time>2019-03-10T10:15:32Z</time>
      </trkpt>
      <trkpt lat="43.45068" lon="5.80849">
        <ele>523.09</ele>
        <time>2019-03-10T10:15:36Z</time>
      </trkpt>
      <trkpt lat="43.4507" lon="5.80848">
        <ele>523.09</ele>
        <time>2019-03-10T10:15:37Z</time>
      </trkpt>
      <trkpt lat="43.45071" lon="5.80847">
        <ele>522.61</ele>
        <time>2019-03-10T10:15:38Z</time>
      </trkpt>
      <trkpt lat="43.45071" lon="5.80845">
        <ele>522.13</ele>
        <time>2019-03-10T10:15:39Z</time>
      </trkpt>
      <trkpt lat="43.45072" lon="5.80844">
        <ele>522.13</ele>
        <time>2019-03-10T10:15:40Z</time>
      </trkpt>
      <trkpt lat="43.45073" lon="5.80843">
        <ele>522.13</ele>
        <time>2019-03-10T10:15:41Z</time>
      </trkpt>
      <trkpt lat="43.45074" lon="5.80842">
        <ele>521.65</ele>
        <time>2019-03-10T10:15:42Z</time>
      </trkpt>
      <trkpt lat="43.45076" lon="5.8084">
        <ele>521.65</ele>
        <time>2019-03-10T10:15:43Z</time>
      </trkpt>
      <trkpt lat="43.45078" lon="5.80838">
        <ele>520.69</ele>
        <time>2019-03-10T10:15:44Z</time>
      </trkpt>
      <trkpt lat="43.45079" lon="5.80835">
        <ele>520.69</ele>
        <time>2019-03-10T10:15:45Z</time>
      </trkpt>
      <trkpt lat="43.45085" lon="5.80833">
        <ele>520.21</ele>
        <time>2019-03-10T10:15:47Z</time>
      </trkpt>
      <trkpt lat="43.45088" lon="5.80832">
        <ele>519.25</ele>
        <time>2019-03-10T10:15:48Z</time>
      </trkpt>
      <trkpt lat="43.4509" lon="5.80832">
        <ele>518.77</ele>
        <time>2019-03-10T10:15:49Z</time>
      </trkpt>
      <trkpt lat="43.45093" lon="5.80832">
        <ele>518.29</ele>
        <time>2019-03-10T10:15:50Z</time>
      </trkpt>
      <trkpt lat="43.45107" lon="5.80832">
        <ele>517.81</ele>
        <time>2019-03-10T10:15:58Z</time>
      </trkpt>
      <trkpt lat="43.45109" lon="5.80832">
        <ele>517.81</ele>
        <time>2019-03-10T10:15:59Z</time>
      </trkpt>
      <trkpt lat="43.45111" lon="5.80833">
        <ele>517.81</ele>
        <time>2019-03-10T10:16:00Z</time>
      </trkpt>
      <trkpt lat="43.45122" lon="5.8084">
        <ele>514.92</ele>
        <time>2019-03-10T10:16:06Z</time>
      </trkpt>
      <trkpt lat="43.45123" lon="5.80841">
        <ele>513.96</ele>
        <time>2019-03-10T10:16:07Z</time>
      </trkpt>
      <trkpt lat="43.45126" lon="5.80859">
        <ele>510.6</ele>
        <time>2019-03-10T10:16:16Z</time>
      </trkpt>
      <trkpt lat="43.45126" lon="5.80885">
        <ele>507.23</ele>
        <time>2019-03-10T10:16:26Z</time>
      </trkpt>
      <trkpt lat="43.45125" lon="5.80892">
        <ele>505.79</ele>
        <time>2019-03-10T10:16:29Z</time>
      </trkpt>
      <trkpt lat="43.45125" lon="5.80914">
        <ele>503.39</ele>
        <time>2019-03-10T10:16:38Z</time>
      </trkpt>
      <trkpt lat="43.45124" lon="5.80916">
        <ele>503.39</ele>
        <time>2019-03-10T10:16:39Z</time>
      </trkpt>
      <trkpt lat="43.45124" lon="5.80919">
        <ele>503.39</ele>
        <time>2019-03-10T10:16:40Z</time>
      </trkpt>
      <trkpt lat="43.45125" lon="5.80922">
        <ele>503.39</ele>
        <time>2019-03-10T10:16:41Z</time>
      </trkpt>
      <trkpt lat="43.45126" lon="5.80926">
        <ele>502.91</ele>
        <time>2019-03-10T10:16:42Z</time>
      </trkpt>
      <trkpt lat="43.45127" lon="5.80929">
        <ele>502.43</ele>
        <time>2019-03-10T10:16:43Z</time>
      </trkpt>
      <trkpt lat="43.45131" lon="5.8095">
        <ele>501.46</ele>
        <time>2019-03-10T10:16:54Z</time>
      </trkpt>
      <trkpt lat="43.45131" lon="5.80952">
        <ele>501.46</ele>
        <time>2019-03-10T10:17:06Z</time>
      </trkpt>
      <trkpt lat="43.45131" lon="5.80954">
        <ele>501.46</ele>
        <time>2019-03-10T10:17:07Z</time>
      </trkpt>
      <trkpt lat="43.45122" lon="5.80983">
        <ele>501.46</ele>
        <time>2019-03-10T10:17:19Z</time>
      </trkpt>
      <trkpt lat="43.45118" lon="5.81022">
        <ele>503.87</ele>
        <time>2019-03-10T10:17:33Z</time>
      </trkpt>
      <trkpt lat="43.45105" lon="5.81073">
        <ele>505.31</ele>
        <time>2019-03-10T10:17:49Z</time>
      </trkpt>
      <trkpt lat="43.45098" lon="5.81121">
        <ele>505.79</ele>
        <time>2019-03-10T10:18:03Z</time>
      </trkpt>
      <trkpt lat="43.4507" lon="5.81151">
        <ele>506.75</ele>
        <time>2019-03-10T10:18:14Z</time>
      </trkpt>
      <trkpt lat="43.45032" lon="5.81163">
        <ele>507.71</ele>
        <time>2019-03-10T10:18:27Z</time>
      </trkpt>
      <trkpt lat="43.45007" lon="5.8117">
        <ele>509.16</ele>
        <time>2019-03-10T10:18:37Z</time>
      </trkpt>
      <trkpt lat="43.45" lon="5.81183">
        <ele>507.23</ele>
        <time>2019-03-10T10:18:40Z</time>
      </trkpt>
      <trkpt lat="43.44989" lon="5.81212">
        <ele>503.87</ele>
        <time>2019-03-10T10:18:44Z</time>
      </trkpt>
      <trkpt lat="43.44986" lon="5.8122">
        <ele>503.87</ele>
        <time>2019-03-10T10:18:45Z</time>
      </trkpt>
      <trkpt lat="43.44973" lon="5.8126">
        <ele>500.98</ele>
        <time>2019-03-10T10:18:52Z</time>
      </trkpt>
      <trkpt lat="43.44961" lon="5.81294">
        <ele>498.1</ele>
        <time>2019-03-10T10:18:59Z</time>
      </trkpt>
      <trkpt lat="43.44924" lon="5.81355">
        <ele>497.62</ele>
        <time>2019-03-10T10:19:10Z</time>
      </trkpt>
      <trkpt lat="43.44893" lon="5.81416">
        <ele>496.18</ele>
        <time>2019-03-10T10:19:22Z</time>
      </trkpt>
      <trkpt lat="43.44874" lon="5.81456">
        <ele>493.77</ele>
        <time>2019-03-10T10:19:33Z</time>
      </trkpt>
      <trkpt lat="43.44871" lon="5.81465">
        <ele>491.85</ele>
        <time>2019-03-10T10:19:36Z</time>
      </trkpt>
      <trkpt lat="43.44847" lon="5.81494">
        <ele>493.29</ele>
        <time>2019-03-10T10:19:46Z</time>
      </trkpt>
      <trkpt lat="43.44827" lon="5.81526">
        <ele>495.7</ele>
        <time>2019-03-10T10:19:58Z</time>
      </trkpt>
      <trkpt lat="43.44815" lon="5.81567">
        <ele>496.66</ele>
        <time>2019-03-10T10:20:10Z</time>
      </trkpt>
      <trkpt lat="43.44786" lon="5.8162">
        <ele>498.58</ele>
        <time>2019-03-10T10:20:26Z</time>
      </trkpt>
      <trkpt lat="43.44765" lon="5.81663">
        <ele>497.14</ele>
        <time>2019-03-10T10:20:37Z</time>
      </trkpt>
      <trkpt lat="43.44734" lon="5.81706">
        <ele>497.14</ele>
        <time>2019-03-10T10:20:48Z</time>
      </trkpt>
      <trkpt lat="43.44716" lon="5.81719">
        <ele>500.02</ele>
        <time>2019-03-10T10:20:55Z</time>
      </trkpt>
      <trkpt lat="43.44693" lon="5.81746">
        <ele>502.43</ele>
        <time>2019-03-10T10:21:07Z</time>
      </trkpt>
      <trkpt lat="43.44677" lon="5.8176">
        <ele>504.35</ele>
        <time>2019-03-10T10:21:16Z</time>
      </trkpt>
      <trkpt lat="43.44656" lon="5.81788">
        <ele>504.83</ele>
        <time>2019-03-10T10:21:27Z</time>
      </trkpt>
      <trkpt lat="43.44634" lon="5.81816">
        <ele>505.79</ele>
        <time>2019-03-10T10:21:40Z</time>
      </trkpt>
      <trkpt lat="43.44622" lon="5.81834">
        <ele>506.75</ele>
        <time>2019-03-10T10:21:53Z</time>
      </trkpt>
      <trkpt lat="43.44621" lon="5.81841">
        <ele>506.75</ele>
        <time>2019-03-10T10:22:20Z</time>
      </trkpt>
      <trkpt lat="43.44611" lon="5.81848">
        <ele>506.75</ele>
        <time>2019-03-10T10:22:33Z</time>
      </trkpt>
      <trkpt lat="43.4461" lon="5.81849">
        <ele>506.75</ele>
        <time>2019-03-10T10:22:34Z</time>
      </trkpt>
      <trkpt lat="43.44609" lon="5.81851">
        <ele>506.75</ele>
        <time>2019-03-10T10:22:35Z</time>
      </trkpt>
      <trkpt lat="43.44608" lon="5.81853">
        <ele>506.75</ele>
        <time>2019-03-10T10:22:36Z</time>
      </trkpt>
      <trkpt lat="43.44606" lon="5.81855">
        <ele>507.23</ele>
        <time>2019-03-10T10:22:37Z</time>
      </trkpt>
      <trkpt lat="43.44605" lon="5.81857">
        <ele>507.23</ele>
        <time>2019-03-10T10:22:38Z</time>
      </trkpt>
      <trkpt lat="43.44603" lon="5.81861">
        <ele>507.23</ele>
        <time>2019-03-10T10:22:39Z</time>
      </trkpt>
      <trkpt lat="43.44602" lon="5.81866">
        <ele>505.79</ele>
        <time>2019-03-10T10:22:40Z</time>
      </trkpt>
      <trkpt lat="43.446" lon="5.81872">
        <ele>505.79</ele>
        <time>2019-03-10T10:22:41Z</time>
      </trkpt>
      <trkpt lat="43.44594" lon="5.81889">
        <ele>505.79</ele>
        <time>2019-03-10T10:22:44Z</time>
      </trkpt>
      <trkpt lat="43.44591" lon="5.81893">
        <ele>506.75</ele>
        <time>2019-03-10T10:22:45Z</time>
      </trkpt>
      <trkpt lat="43.44587" lon="5.81897">
        <ele>506.75</ele>
        <time>2019-03-10T10:22:46Z</time>
      </trkpt>
      <trkpt lat="43.44584" lon="5.81899">
        <ele>506.75</ele>
        <time>2019-03-10T10:22:47Z</time>
      </trkpt>
      <trkpt lat="43.4458" lon="5.81902">
        <ele>507.23</ele>
        <time>2019-03-10T10:22:48Z</time>
      </trkpt>
      <trkpt lat="43.44576" lon="5.81905">
        <ele>507.23</ele>
        <time>2019-03-10T10:22:49Z</time>
      </trkpt>
      <trkpt lat="43.44573" lon="5.81909">
        <ele>507.71</ele>
        <time>2019-03-10T10:22:50Z</time>
      </trkpt>
      <trkpt lat="43.4457" lon="5.81912">
        <ele>508.19</ele>
        <time>2019-03-10T10:22:51Z</time>
      </trkpt>
      <trkpt lat="43.44553" lon="5.81934">
        <ele>511.08</ele>
        <time>2019-03-10T10:22:59Z</time>
      </trkpt>
      <trkpt lat="43.44552" lon="5.81938">
        <ele>511.56</ele>
        <time>2019-03-10T10:23:00Z</time>
      </trkpt>
      <trkpt lat="43.4455" lon="5.8194">
        <ele>511.56</ele>
        <time>2019-03-10T10:23:01Z</time>
      </trkpt>
      <trkpt lat="43.44548" lon="5.81943">
        <ele>512.04</ele>
        <time>2019-03-10T10:23:02Z</time>
      </trkpt>
      <trkpt lat="43.44546" lon="5.81945">
        <ele>512.04</ele>
        <time>2019-03-10T10:23:03Z</time>
      </trkpt>
      <trkpt lat="43.44544" lon="5.81947">
        <ele>512.52</ele>
        <time>2019-03-10T10:23:04Z</time>
      </trkpt>
      <trkpt lat="43.44523" lon="5.81987">
        <ele>510.6</ele>
        <time>2019-03-10T10:23:17Z</time>
      </trkpt>
      <trkpt lat="43.4452" lon="5.82002">
        <ele>509.64</ele>
        <time>2019-03-10T10:23:19Z</time>
      </trkpt>
      <trkpt lat="43.44509" lon="5.8204">
        <ele>506.27</ele>
        <time>2019-03-10T10:23:24Z</time>
      </trkpt>
      <trkpt lat="43.44503" lon="5.82065">
        <ele>504.83</ele>
        <time>2019-03-10T10:23:27Z</time>
      </trkpt>
      <trkpt lat="43.44502" lon="5.82073">
        <ele>504.35</ele>
        <time>2019-03-10T10:23:28Z</time>
      </trkpt>
      <trkpt lat="43.44501" lon="5.82081">
        <ele>503.87</ele>
        <time>2019-03-10T10:23:29Z</time>
      </trkpt>
      <trkpt lat="43.44495" lon="5.82101">
        <ele>502.91</ele>
        <time>2019-03-10T10:23:34Z</time>
      </trkpt>
      <trkpt lat="43.44485" lon="5.82118">
        <ele>502.91</ele>
        <time>2019-03-10T10:23:38Z</time>
      </trkpt>
      <trkpt lat="43.44478" lon="5.8213">
        <ele>502.91</ele>
        <time>2019-03-10T10:23:40Z</time>
      </trkpt>
      <trkpt lat="43.44474" lon="5.82142">
        <ele>504.35</ele>
        <time>2019-03-10T10:23:42Z</time>
      </trkpt>
      <trkpt lat="43.44471" lon="5.82148">
        <ele>504.35</ele>
        <time>2019-03-10T10:23:43Z</time>
      </trkpt>
      <trkpt lat="43.44469" lon="5.82155">
        <ele>504.35</ele>
        <time>2019-03-10T10:23:44Z</time>
      </trkpt>
      <trkpt lat="43.44467" lon="5.82162">
        <ele>504.35</ele>
        <time>2019-03-10T10:23:45Z</time>
      </trkpt>
      <trkpt lat="43.44464" lon="5.82168">
        <ele>504.35</ele>
        <time>2019-03-10T10:23:46Z</time>
      </trkpt>
      <trkpt lat="43.44462" lon="5.82174">
        <ele>504.35</ele>
        <time>2019-03-10T10:23:47Z</time>
      </trkpt>
      <trkpt lat="43.44445" lon="5.82203">
        <ele>502.43</ele>
        <time>2019-03-10T10:23:52Z</time>
      </trkpt>
      <trkpt lat="43.44435" lon="5.82221">
        <ele>501.95</ele>
        <time>2019-03-10T10:23:55Z</time>
      </trkpt>
      <trkpt lat="43.44431" lon="5.82227">
        <ele>501.46</ele>
        <time>2019-03-10T10:23:56Z</time>
      </trkpt>
      <trkpt lat="43.44424" lon="5.82241">
        <ele>500.5</ele>
        <time>2019-03-10T10:23:58Z</time>
      </trkpt>
      <trkpt lat="43.44421" lon="5.8225">
        <ele>500.5</ele>
        <time>2019-03-10T10:23:59Z</time>
      </trkpt>
      <trkpt lat="43.44408" lon="5.82285">
        <ele>498.58</ele>
        <time>2019-03-10T10:24:03Z</time>
      </trkpt>
      <trkpt lat="43.44405" lon="5.82293">
        <ele>498.58</ele>
        <time>2019-03-10T10:24:04Z</time>
      </trkpt>
      <trkpt lat="43.44402" lon="5.823">
        <ele>498.58</ele>
        <time>2019-03-10T10:24:05Z</time>
      </trkpt>
      <trkpt lat="43.44399" lon="5.82308">
        <ele>498.58</ele>
        <time>2019-03-10T10:24:06Z</time>
      </trkpt>
      <trkpt lat="43.44396" lon="5.82316">
        <ele>498.1</ele>
        <time>2019-03-10T10:24:07Z</time>
      </trkpt>
      <trkpt lat="43.44392" lon="5.82325">
        <ele>498.1</ele>
        <time>2019-03-10T10:24:08Z</time>
      </trkpt>
      <trkpt lat="43.44389" lon="5.82332">
        <ele>498.1</ele>
        <time>2019-03-10T10:24:09Z</time>
      </trkpt>
      <trkpt lat="43.44382" lon="5.82345">
        <ele>496.66</ele>
        <time>2019-03-10T10:24:11Z</time>
      </trkpt>
      <trkpt lat="43.44376" lon="5.82358">
        <ele>495.7</ele>
        <time>2019-03-10T10:24:13Z</time>
      </trkpt>
      <trkpt lat="43.44374" lon="5.82365">
        <ele>495.22</ele>
        <time>2019-03-10T10:24:14Z</time>
      </trkpt>
      <trkpt lat="43.4437" lon="5.82371">
        <ele>494.26</ele>
        <time>2019-03-10T10:24:15Z</time>
      </trkpt>
      <trkpt lat="43.44367" lon="5.82378">
        <ele>494.26</ele>
        <time>2019-03-10T10:24:16Z</time>
      </trkpt>
      <trkpt lat="43.44358" lon="5.82401">
        <ele>494.26</ele>
        <time>2019-03-10T10:24:19Z</time>
      </trkpt>
      <trkpt lat="43.44354" lon="5.82408">
        <ele>493.29</ele>
        <time>2019-03-10T10:24:20Z</time>
      </trkpt>
      <trkpt lat="43.4434" lon="5.82437">
        <ele>492.81</ele>
        <time>2019-03-10T10:24:24Z</time>
      </trkpt>
      <trkpt lat="43.44337" lon="5.82445">
        <ele>493.29</ele>
        <time>2019-03-10T10:24:25Z</time>
      </trkpt>
      <trkpt lat="43.44335" lon="5.82454">
        <ele>492.33</ele>
        <time>2019-03-10T10:24:26Z</time>
      </trkpt>
      <trkpt lat="43.44334" lon="5.82461">
        <ele>492.33</ele>
        <time>2019-03-10T10:24:27Z</time>
      </trkpt>
      <trkpt lat="43.44335" lon="5.82467">
        <ele>491.85</ele>
        <time>2019-03-10T10:24:28Z</time>
      </trkpt>
      <trkpt lat="43.44338" lon="5.82472">
        <ele>491.37</ele>
        <time>2019-03-10T10:24:29Z</time>
      </trkpt>
      <trkpt lat="43.44339" lon="5.82475">
        <ele>491.37</ele>
        <time>2019-03-10T10:24:30Z</time>
      </trkpt>
      <trkpt lat="43.4434" lon="5.8248">
        <ele>491.37</ele>
        <time>2019-03-10T10:24:31Z</time>
      </trkpt>
      <trkpt lat="43.4434" lon="5.82483">
        <ele>491.37</ele>
        <time>2019-03-10T10:24:32Z</time>
      </trkpt>
      <trkpt lat="43.4434" lon="5.82486">
        <ele>491.37</ele>
        <time>2019-03-10T10:24:33Z</time>
      </trkpt>
      <trkpt lat="43.44334" lon="5.82495">
        <ele>491.37</ele>
        <time>2019-03-10T10:24:41Z</time>
      </trkpt>
      <trkpt lat="43.44331" lon="5.82503">
        <ele>491.37</ele>
        <time>2019-03-10T10:24:44Z</time>
      </trkpt>
      <trkpt lat="43.44329" lon="5.82507">
        <ele>491.37</ele>
        <time>2019-03-10T10:24:45Z</time>
      </trkpt>
      <trkpt lat="43.44313" lon="5.8255">
        <ele>490.89</ele>
        <time>2019-03-10T10:24:56Z</time>
      </trkpt>
      <trkpt lat="43.44291" lon="5.82601">
        <ele>490.41</ele>
        <time>2019-03-10T10:25:06Z</time>
      </trkpt>
      <trkpt lat="43.44285" lon="5.82632">
        <ele>490.41</ele>
        <time>2019-03-10T10:25:11Z</time>
      </trkpt>
      <trkpt lat="43.44279" lon="5.82659">
        <ele>490.89</ele>
        <time>2019-03-10T10:25:15Z</time>
      </trkpt>
      <trkpt lat="43.44275" lon="5.82678">
        <ele>490.89</ele>
        <time>2019-03-10T10:25:18Z</time>
      </trkpt>
      <trkpt lat="43.44275" lon="5.82722">
        <ele>490.89</ele>
        <time>2019-03-10T10:25:24Z</time>
      </trkpt>
      <trkpt lat="43.44268" lon="5.82763">
        <ele>489.93</ele>
        <time>2019-03-10T10:25:33Z</time>
      </trkpt>
      <trkpt lat="43.44265" lon="5.82774">
        <ele>489.45</ele>
        <time>2019-03-10T10:25:35Z</time>
      </trkpt>
      <trkpt lat="43.44263" lon="5.82789">
        <ele>488.49</ele>
        <time>2019-03-10T10:25:37Z</time>
      </trkpt>
      <trkpt lat="43.44263" lon="5.82797">
        <ele>488.49</ele>
        <time>2019-03-10T10:25:38Z</time>
      </trkpt>
      <trkpt lat="43.44264" lon="5.82804">
        <ele>488.01</ele>
        <time>2019-03-10T10:25:39Z</time>
      </trkpt>
      <trkpt lat="43.44265" lon="5.82812">
        <ele>487.53</ele>
        <time>2019-03-10T10:25:40Z</time>
      </trkpt>
      <trkpt lat="43.44266" lon="5.82821">
        <ele>487.53</ele>
        <time>2019-03-10T10:25:41Z</time>
      </trkpt>
      <trkpt lat="43.44266" lon="5.82829">
        <ele>485.6</ele>
        <time>2019-03-10T10:25:42Z</time>
      </trkpt>
      <trkpt lat="43.44265" lon="5.82837">
        <ele>485.6</ele>
        <time>2019-03-10T10:25:43Z</time>
      </trkpt>
      <trkpt lat="43.44265" lon="5.82844">
        <ele>485.6</ele>
        <time>2019-03-10T10:25:44Z</time>
      </trkpt>
      <trkpt lat="43.44263" lon="5.8286">
        <ele>482.72</ele>
        <time>2019-03-10T10:25:46Z</time>
      </trkpt>
      <trkpt lat="43.44262" lon="5.82868">
        <ele>482.72</ele>
        <time>2019-03-10T10:25:47Z</time>
      </trkpt>
      <trkpt lat="43.44259" lon="5.82896">
        <ele>481.76</ele>
        <time>2019-03-10T10:25:50Z</time>
      </trkpt>
      <trkpt lat="43.44259" lon="5.82907">
        <ele>480.8</ele>
        <time>2019-03-10T10:25:51Z</time>
      </trkpt>
      <trkpt lat="43.44259" lon="5.82917">
        <ele>480.8</ele>
        <time>2019-03-10T10:25:52Z</time>
      </trkpt>
      <trkpt lat="43.44259" lon="5.82955">
        <ele>479.35</ele>
        <time>2019-03-10T10:25:56Z</time>
      </trkpt>
      <trkpt lat="43.44258" lon="5.82964">
        <ele>479.35</ele>
        <time>2019-03-10T10:25:57Z</time>
      </trkpt>
      <trkpt lat="43.44257" lon="5.82983">
        <ele>478.87</ele>
        <time>2019-03-10T10:25:59Z</time>
      </trkpt>
      <trkpt lat="43.44258" lon="5.83027">
        <ele>478.39</ele>
        <time>2019-03-10T10:26:04Z</time>
      </trkpt>
      <trkpt lat="43.44255" lon="5.83053">
        <ele>476.95</ele>
        <time>2019-03-10T10:26:07Z</time>
      </trkpt>
      <trkpt lat="43.44256" lon="5.8306">
        <ele>476.95</ele>
        <time>2019-03-10T10:26:08Z</time>
      </trkpt>
      <trkpt lat="43.44256" lon="5.83066">
        <ele>476.47</ele>
        <time>2019-03-10T10:26:09Z</time>
      </trkpt>
      <trkpt lat="43.44256" lon="5.83072">
        <ele>476.47</ele>
        <time>2019-03-10T10:26:10Z</time>
      </trkpt>
      <trkpt lat="43.44256" lon="5.83077">
        <ele>476.47</ele>
        <time>2019-03-10T10:26:11Z</time>
      </trkpt>
      <trkpt lat="43.44257" lon="5.83083">
        <ele>475.51</ele>
        <time>2019-03-10T10:26:12Z</time>
      </trkpt>
      <trkpt lat="43.44261" lon="5.83139">
        <ele>474.55</ele>
        <time>2019-03-10T10:26:24Z</time>
      </trkpt>
      <trkpt lat="43.4426" lon="5.83216">
        <ele>473.11</ele>
        <time>2019-03-10T10:26:39Z</time>
      </trkpt>
      <trkpt lat="43.44263" lon="5.83288">
        <ele>471.18</ele>
        <time>2019-03-10T10:26:49Z</time>
      </trkpt>
      <trkpt lat="43.44262" lon="5.83296">
        <ele>470.22</ele>
        <time>2019-03-10T10:26:50Z</time>
      </trkpt>
      <trkpt lat="43.44261" lon="5.83303">
        <ele>470.22</ele>
        <time>2019-03-10T10:26:51Z</time>
      </trkpt>
      <trkpt lat="43.4426" lon="5.8331">
        <ele>470.22</ele>
        <time>2019-03-10T10:26:52Z</time>
      </trkpt>
      <trkpt lat="43.44259" lon="5.83318">
        <ele>470.22</ele>
        <time>2019-03-10T10:26:53Z</time>
      </trkpt>
      <trkpt lat="43.44258" lon="5.83326">
        <ele>470.22</ele>
        <time>2019-03-10T10:26:54Z</time>
      </trkpt>
      <trkpt lat="43.44251" lon="5.83357">
        <ele>468.78</ele>
        <time>2019-03-10T10:26:58Z</time>
      </trkpt>
      <trkpt lat="43.4425" lon="5.83365">
        <ele>468.3</ele>
        <time>2019-03-10T10:26:59Z</time>
      </trkpt>
      <trkpt lat="43.44251" lon="5.83372">
        <ele>467.34</ele>
        <time>2019-03-10T10:27:00Z</time>
      </trkpt>
      <trkpt lat="43.44252" lon="5.8338">
        <ele>467.34</ele>
        <time>2019-03-10T10:27:01Z</time>
      </trkpt>
      <trkpt lat="43.44252" lon="5.83389">
        <ele>466.38</ele>
        <time>2019-03-10T10:27:02Z</time>
      </trkpt>
      <trkpt lat="43.4425" lon="5.83399">
        <ele>464.93</ele>
        <time>2019-03-10T10:27:03Z</time>
      </trkpt>
      <trkpt lat="43.44249" lon="5.83407">
        <ele>465.9</ele>
        <time>2019-03-10T10:27:04Z</time>
      </trkpt>
      <trkpt lat="43.44247" lon="5.83416">
        <ele>465.9</ele>
        <time>2019-03-10T10:27:05Z</time>
      </trkpt>
      <trkpt lat="43.44246" lon="5.83426">
        <ele>464.45</ele>
        <time>2019-03-10T10:27:06Z</time>
      </trkpt>
      <trkpt lat="43.44246" lon="5.83435">
        <ele>463.97</ele>
        <time>2019-03-10T10:27:07Z</time>
      </trkpt>
      <trkpt lat="43.44246" lon="5.83443">
        <ele>463.49</ele>
        <time>2019-03-10T10:27:08Z</time>
      </trkpt>
      <trkpt lat="43.44247" lon="5.8345">
        <ele>463.01</ele>
        <time>2019-03-10T10:27:09Z</time>
      </trkpt>
      <trkpt lat="43.44247" lon="5.83457">
        <ele>462.53</ele>
        <time>2019-03-10T10:27:10Z</time>
      </trkpt>
      <trkpt lat="43.44247" lon="5.83465">
        <ele>461.09</ele>
        <time>2019-03-10T10:27:11Z</time>
      </trkpt>
      <trkpt lat="43.44246" lon="5.83473">
        <ele>461.09</ele>
        <time>2019-03-10T10:27:12Z</time>
      </trkpt>
      <trkpt lat="43.44246" lon="5.83481">
        <ele>460.13</ele>
        <time>2019-03-10T10:27:13Z</time>
      </trkpt>
      <trkpt lat="43.44247" lon="5.83487">
        <ele>459.17</ele>
        <time>2019-03-10T10:27:14Z</time>
      </trkpt>
      <trkpt lat="43.44248" lon="5.83492">
        <ele>458.69</ele>
        <time>2019-03-10T10:27:15Z</time>
      </trkpt>
      <trkpt lat="43.4425" lon="5.83509">
        <ele>455.32</ele>
        <time>2019-03-10T10:27:22Z</time>
      </trkpt>
      <trkpt lat="43.44239" lon="5.83535">
        <ele>455.8</ele>
        <time>2019-03-10T10:27:31Z</time>
      </trkpt>
      <trkpt lat="43.44236" lon="5.83541">
        <ele>455.8</ele>
        <time>2019-03-10T10:27:32Z</time>
      </trkpt>
      <trkpt lat="43.44234" lon="5.83548">
        <ele>455.8</ele>
        <time>2019-03-10T10:27:33Z</time>
      </trkpt>
      <trkpt lat="43.44233" lon="5.83555">
        <ele>455.8</ele>
        <time>2019-03-10T10:27:34Z</time>
      </trkpt>
      <trkpt lat="43.44233" lon="5.83563">
        <ele>455.8</ele>
        <time>2019-03-10T10:27:35Z</time>
      </trkpt>
      <trkpt lat="43.44233" lon="5.83571">
        <ele>455.32</ele>
        <time>2019-03-10T10:27:36Z</time>
      </trkpt>
      <trkpt lat="43.44234" lon="5.83579">
        <ele>455.32</ele>
        <time>2019-03-10T10:27:37Z</time>
      </trkpt>
      <trkpt lat="43.44235" lon="5.83595">
        <ele>454.36</ele>
        <time>2019-03-10T10:27:39Z</time>
      </trkpt>
      <trkpt lat="43.44235" lon="5.83603">
        <ele>453.88</ele>
        <time>2019-03-10T10:27:40Z</time>
      </trkpt>
      <trkpt lat="43.44233" lon="5.8361">
        <ele>453.4</ele>
        <time>2019-03-10T10:27:41Z</time>
      </trkpt>
      <trkpt lat="43.4423" lon="5.83617">
        <ele>453.4</ele>
        <time>2019-03-10T10:27:42Z</time>
      </trkpt>
      <trkpt lat="43.44225" lon="5.83624">
        <ele>452.44</ele>
        <time>2019-03-10T10:27:43Z</time>
      </trkpt>
      <trkpt lat="43.44221" lon="5.8363">
        <ele>452.44</ele>
        <time>2019-03-10T10:27:44Z</time>
      </trkpt>
      <trkpt lat="43.44219" lon="5.83637">
        <ele>452.44</ele>
        <time>2019-03-10T10:27:45Z</time>
      </trkpt>
      <trkpt lat="43.44218" lon="5.83643">
        <ele>451.48</ele>
        <time>2019-03-10T10:27:46Z</time>
      </trkpt>
      <trkpt lat="43.44217" lon="5.8365">
        <ele>451</ele>
        <time>2019-03-10T10:27:47Z</time>
      </trkpt>
      <trkpt lat="43.44217" lon="5.83656">
        <ele>450.52</ele>
        <time>2019-03-10T10:27:48Z</time>
      </trkpt>
      <trkpt lat="43.44213" lon="5.83716">
        <ele>447.63</ele>
        <time>2019-03-10T10:27:59Z</time>
      </trkpt>
      <trkpt lat="43.44213" lon="5.83753">
        <ele>446.19</ele>
        <time>2019-03-10T10:28:04Z</time>
      </trkpt>
      <trkpt lat="43.44212" lon="5.8376">
        <ele>445.23</ele>
        <time>2019-03-10T10:28:05Z</time>
      </trkpt>
      <trkpt lat="43.44212" lon="5.83767">
        <ele>445.23</ele>
        <time>2019-03-10T10:28:06Z</time>
      </trkpt>
      <trkpt lat="43.44211" lon="5.83774">
        <ele>445.23</ele>
        <time>2019-03-10T10:28:07Z</time>
      </trkpt>
      <trkpt lat="43.44209" lon="5.83781">
        <ele>445.23</ele>
        <time>2019-03-10T10:28:08Z</time>
      </trkpt>
      <trkpt lat="43.44197" lon="5.83867">
        <ele>441.86</ele>
        <time>2019-03-10T10:28:19Z</time>
      </trkpt>
      <trkpt lat="43.44195" lon="5.83874">
        <ele>441.86</ele>
        <time>2019-03-10T10:28:20Z</time>
      </trkpt>
      <trkpt lat="43.44194" lon="5.83882">
        <ele>441.86</ele>
        <time>2019-03-10T10:28:21Z</time>
      </trkpt>
      <trkpt lat="43.4418" lon="5.83967">
        <ele>439.46</ele>
        <time>2019-03-10T10:28:31Z</time>
      </trkpt>
      <trkpt lat="43.44171" lon="5.8401">
        <ele>437.06</ele>
        <time>2019-03-10T10:28:36Z</time>
      </trkpt>
      <trkpt lat="43.44166" lon="5.84032">
        <ele>435.13</ele>
        <time>2019-03-10T10:28:39Z</time>
      </trkpt>
      <trkpt lat="43.44164" lon="5.84037">
        <ele>435.13</ele>
        <time>2019-03-10T10:28:40Z</time>
      </trkpt>
      <trkpt lat="43.44161" lon="5.84041">
        <ele>434.17</ele>
        <time>2019-03-10T10:28:41Z</time>
      </trkpt>
      <trkpt lat="43.44152" lon="5.84056">
        <ele>430.81</ele>
        <time>2019-03-10T10:28:45Z</time>
      </trkpt>
      <trkpt lat="43.44147" lon="5.84066">
        <ele>429.85</ele>
        <time>2019-03-10T10:28:47Z</time>
      </trkpt>
      <trkpt lat="43.44131" lon="5.84101">
        <ele>426</ele>
        <time>2019-03-10T10:28:53Z</time>
      </trkpt>
      <trkpt lat="43.44125" lon="5.84111">
        <ele>425.04</ele>
        <time>2019-03-10T10:28:55Z</time>
      </trkpt>
      <trkpt lat="43.44116" lon="5.84133">
        <ele>423.6</ele>
        <time>2019-03-10T10:28:58Z</time>
      </trkpt>
      <trkpt lat="43.44102" lon="5.84169">
        <ele>420.71</ele>
        <time>2019-03-10T10:29:02Z</time>
      </trkpt>
      <trkpt lat="43.44092" lon="5.84203">
        <ele>418.31</ele>
        <time>2019-03-10T10:29:06Z</time>
      </trkpt>
      <trkpt lat="43.44079" lon="5.84248">
        <ele>414.47</ele>
        <time>2019-03-10T10:29:12Z</time>
      </trkpt>
      <trkpt lat="43.44071" lon="5.84274">
        <ele>411.1</ele>
        <time>2019-03-10T10:29:19Z</time>
      </trkpt>
      <trkpt lat="43.44063" lon="5.84322">
        <ele>408.7</ele>
        <time>2019-03-10T10:29:30Z</time>
      </trkpt>
      <trkpt lat="43.44062" lon="5.84393">
        <ele>406.77</ele>
        <time>2019-03-10T10:29:43Z</time>
      </trkpt>
      <trkpt lat="43.44063" lon="5.844">
        <ele>406.77</ele>
        <time>2019-03-10T10:29:44Z</time>
      </trkpt>
      <trkpt lat="43.44064" lon="5.84404">
        <ele>406.77</ele>
        <time>2019-03-10T10:29:45Z</time>
      </trkpt>
      <trkpt lat="43.44064" lon="5.8441">
        <ele>406.77</ele>
        <time>2019-03-10T10:29:46Z</time>
      </trkpt>
      <trkpt lat="43.44067" lon="5.84461">
        <ele>405.81</ele>
        <time>2019-03-10T10:29:55Z</time>
      </trkpt>
      <trkpt lat="43.44067" lon="5.84489">
        <ele>403.89</ele>
        <time>2019-03-10T10:30:00Z</time>
      </trkpt>
      <trkpt lat="43.44066" lon="5.84504">
        <ele>403.41</ele>
        <time>2019-03-10T10:30:02Z</time>
      </trkpt>
      <trkpt lat="43.44067" lon="5.84512">
        <ele>402.93</ele>
        <time>2019-03-10T10:30:03Z</time>
      </trkpt>
      <trkpt lat="43.44068" lon="5.84529">
        <ele>401.49</ele>
        <time>2019-03-10T10:30:06Z</time>
      </trkpt>
      <trkpt lat="43.44073" lon="5.84577">
        <ele>398.12</ele>
        <time>2019-03-10T10:30:13Z</time>
      </trkpt>
      <trkpt lat="43.44078" lon="5.84599">
        <ele>396.2</ele>
        <time>2019-03-10T10:30:18Z</time>
      </trkpt>
      <trkpt lat="43.44079" lon="5.84601">
        <ele>395.72</ele>
        <time>2019-03-10T10:30:19Z</time>
      </trkpt>
      <trkpt lat="43.4408" lon="5.84604">
        <ele>395.24</ele>
        <time>2019-03-10T10:30:20Z</time>
      </trkpt>
      <trkpt lat="43.44081" lon="5.84606">
        <ele>394.76</ele>
        <time>2019-03-10T10:30:21Z</time>
      </trkpt>
      <trkpt lat="43.44094" lon="5.84627">
        <ele>391.87</ele>
        <time>2019-03-10T10:30:32Z</time>
      </trkpt>
      <trkpt lat="43.44097" lon="5.84629">
        <ele>391.39</ele>
        <time>2019-03-10T10:30:33Z</time>
      </trkpt>
      <trkpt lat="43.44101" lon="5.8463">
        <ele>390.91</ele>
        <time>2019-03-10T10:30:34Z</time>
      </trkpt>
      <trkpt lat="43.4411" lon="5.84632">
        <ele>390.43</ele>
        <time>2019-03-10T10:30:36Z</time>
      </trkpt>
      <trkpt lat="43.44114" lon="5.84634">
        <ele>389.95</ele>
        <time>2019-03-10T10:30:37Z</time>
      </trkpt>
      <trkpt lat="43.44116" lon="5.84637">
        <ele>389.95</ele>
        <time>2019-03-10T10:30:38Z</time>
      </trkpt>
      <trkpt lat="43.44118" lon="5.84639">
        <ele>389.95</ele>
        <time>2019-03-10T10:30:39Z</time>
      </trkpt>
      <trkpt lat="43.44125" lon="5.84642">
        <ele>391.39</ele>
        <time>2019-03-10T10:30:46Z</time>
      </trkpt>
      <trkpt lat="43.44139" lon="5.8466">
        <ele>394.28</ele>
        <time>2019-03-10T10:31:02Z</time>
      </trkpt>
      <trkpt lat="43.44141" lon="5.84668">
        <ele>395.72</ele>
        <time>2019-03-10T10:31:08Z</time>
      </trkpt>
      <trkpt lat="43.4415" lon="5.8469">
        <ele>397.64</ele>
        <time>2019-03-10T10:31:24Z</time>
      </trkpt>
      <trkpt lat="43.44158" lon="5.84706">
        <ele>398.12</ele>
        <time>2019-03-10T10:31:39Z</time>
      </trkpt>
      <trkpt lat="43.44172" lon="5.8473">
        <ele>401.01</ele>
        <time>2019-03-10T10:31:52Z</time>
      </trkpt>
      <trkpt lat="43.44192" lon="5.84756">
        <ele>397.16</ele>
        <time>2019-03-10T10:32:04Z</time>
      </trkpt>
      <trkpt lat="43.44208" lon="5.84792">
        <ele>393.8</ele>
        <time>2019-03-10T10:32:10Z</time>
      </trkpt>
      <trkpt lat="43.44212" lon="5.84801">
        <ele>392.84</ele>
        <time>2019-03-10T10:32:11Z</time>
      </trkpt>
      <trkpt lat="43.44214" lon="5.8481">
        <ele>391.87</ele>
        <time>2019-03-10T10:32:12Z</time>
      </trkpt>
      <trkpt lat="43.44223" lon="5.84841">
        <ele>388.99</ele>
        <time>2019-03-10T10:32:17Z</time>
      </trkpt>
      <trkpt lat="43.44224" lon="5.84847">
        <ele>388.99</ele>
        <time>2019-03-10T10:32:18Z</time>
      </trkpt>
      <trkpt lat="43.44226" lon="5.84853">
        <ele>388.03</ele>
        <time>2019-03-10T10:32:19Z</time>
      </trkpt>
      <trkpt lat="43.4423" lon="5.84859">
        <ele>388.03</ele>
        <time>2019-03-10T10:32:20Z</time>
      </trkpt>
      <trkpt lat="43.44234" lon="5.84864">
        <ele>387.55</ele>
        <time>2019-03-10T10:32:21Z</time>
      </trkpt>
      <trkpt lat="43.44238" lon="5.8487">
        <ele>387.07</ele>
        <time>2019-03-10T10:32:22Z</time>
      </trkpt>
      <trkpt lat="43.44243" lon="5.84878">
        <ele>387.55</ele>
        <time>2019-03-10T10:32:23Z</time>
      </trkpt>
      <trkpt lat="43.44247" lon="5.84885">
        <ele>387.55</ele>
        <time>2019-03-10T10:32:24Z</time>
      </trkpt>
      <trkpt lat="43.44251" lon="5.84894">
        <ele>386.11</ele>
        <time>2019-03-10T10:32:25Z</time>
      </trkpt>
      <trkpt lat="43.44255" lon="5.84903">
        <ele>385.63</ele>
        <time>2019-03-10T10:32:26Z</time>
      </trkpt>
      <trkpt lat="43.44257" lon="5.84913">
        <ele>385.15</ele>
        <time>2019-03-10T10:32:27Z</time>
      </trkpt>
      <trkpt lat="43.44258" lon="5.84923">
        <ele>385.15</ele>
        <time>2019-03-10T10:32:28Z</time>
      </trkpt>
      <trkpt lat="43.44264" lon="5.84984">
        <ele>384.66</ele>
        <time>2019-03-10T10:32:34Z</time>
      </trkpt>
      <trkpt lat="43.44266" lon="5.84992">
        <ele>384.66</ele>
        <time>2019-03-10T10:32:35Z</time>
      </trkpt>
      <trkpt lat="43.44269" lon="5.85">
        <ele>384.66</ele>
        <time>2019-03-10T10:32:36Z</time>
      </trkpt>
      <trkpt lat="43.44275" lon="5.85015">
        <ele>384.66</ele>
        <time>2019-03-10T10:32:38Z</time>
      </trkpt>
      <trkpt lat="43.44277" lon="5.85022">
        <ele>384.66</ele>
        <time>2019-03-10T10:32:39Z</time>
      </trkpt>
      <trkpt lat="43.44281" lon="5.85036">
        <ele>384.18</ele>
        <time>2019-03-10T10:32:41Z</time>
      </trkpt>
      <trkpt lat="43.44283" lon="5.85043">
        <ele>383.7</ele>
        <time>2019-03-10T10:32:42Z</time>
      </trkpt>
      <trkpt lat="43.44293" lon="5.85068">
        <ele>381.78</ele>
        <time>2019-03-10T10:32:46Z</time>
      </trkpt>
      <trkpt lat="43.44295" lon="5.85075">
        <ele>381.78</ele>
        <time>2019-03-10T10:32:47Z</time>
      </trkpt>
      <trkpt lat="43.44297" lon="5.85082">
        <ele>381.3</ele>
        <time>2019-03-10T10:32:48Z</time>
      </trkpt>
      <trkpt lat="43.443" lon="5.85104">
        <ele>380.34</ele>
        <time>2019-03-10T10:32:52Z</time>
      </trkpt>
      <trkpt lat="43.443" lon="5.85109">
        <ele>380.34</ele>
        <time>2019-03-10T10:32:53Z</time>
      </trkpt>
      <trkpt lat="43.44301" lon="5.85115">
        <ele>379.86</ele>
        <time>2019-03-10T10:32:54Z</time>
      </trkpt>
      <trkpt lat="43.44303" lon="5.8512">
        <ele>379.38</ele>
        <time>2019-03-10T10:32:55Z</time>
      </trkpt>
      <trkpt lat="43.44304" lon="5.85126">
        <ele>379.38</ele>
        <time>2019-03-10T10:32:56Z</time>
      </trkpt>
      <trkpt lat="43.44309" lon="5.8516">
        <ele>378.9</ele>
        <time>2019-03-10T10:33:01Z</time>
      </trkpt>
      <trkpt lat="43.44311" lon="5.85167">
        <ele>377.94</ele>
        <time>2019-03-10T10:33:02Z</time>
      </trkpt>
      <trkpt lat="43.44314" lon="5.85174">
        <ele>377.94</ele>
        <time>2019-03-10T10:33:03Z</time>
      </trkpt>
      <trkpt lat="43.44319" lon="5.8518">
        <ele>376.97</ele>
        <time>2019-03-10T10:33:04Z</time>
      </trkpt>
      <trkpt lat="43.44323" lon="5.85187">
        <ele>376.97</ele>
        <time>2019-03-10T10:33:05Z</time>
      </trkpt>
      <trkpt lat="43.44338" lon="5.85207">
        <ele>374.09</ele>
        <time>2019-03-10T10:33:09Z</time>
      </trkpt>
      <trkpt lat="43.44344" lon="5.85215">
        <ele>372.65</ele>
        <time>2019-03-10T10:33:11Z</time>
      </trkpt>
      <trkpt lat="43.44352" lon="5.85225">
        <ele>371.69</ele>
        <time>2019-03-10T10:33:13Z</time>
      </trkpt>
      <trkpt lat="43.44355" lon="5.85233">
        <ele>370.73</ele>
        <time>2019-03-10T10:33:14Z</time>
      </trkpt>
      <trkpt lat="43.44384" lon="5.85308">
        <ele>367.36</ele>
        <time>2019-03-10T10:33:23Z</time>
      </trkpt>
      <trkpt lat="43.44386" lon="5.85315">
        <ele>366.88</ele>
        <time>2019-03-10T10:33:24Z</time>
      </trkpt>
      <trkpt lat="43.44396" lon="5.85375">
        <ele>363.52</ele>
        <time>2019-03-10T10:33:32Z</time>
      </trkpt>
      <trkpt lat="43.44405" lon="5.8543">
        <ele>361.11</ele>
        <time>2019-03-10T10:33:38Z</time>
      </trkpt>
      <trkpt lat="43.44406" lon="5.85438">
        <ele>360.15</ele>
        <time>2019-03-10T10:33:39Z</time>
      </trkpt>
      <trkpt lat="43.44407" lon="5.85447">
        <ele>359.67</ele>
        <time>2019-03-10T10:33:40Z</time>
      </trkpt>
      <trkpt lat="43.44419" lon="5.85496">
        <ele>356.31</ele>
        <time>2019-03-10T10:33:46Z</time>
      </trkpt>
      <trkpt lat="43.44437" lon="5.85575">
        <ele>352.94</ele>
        <time>2019-03-10T10:33:53Z</time>
      </trkpt>
      <trkpt lat="43.44446" lon="5.85607">
        <ele>349.1</ele>
        <time>2019-03-10T10:33:56Z</time>
      </trkpt>
      <trkpt lat="43.44462" lon="5.85664">
        <ele>345.25</ele>
        <time>2019-03-10T10:34:02Z</time>
      </trkpt>
      <trkpt lat="43.44474" lon="5.85691">
        <ele>342.85</ele>
        <time>2019-03-10T10:34:07Z</time>
      </trkpt>
      <trkpt lat="43.44476" lon="5.85693">
        <ele>342.85</ele>
        <time>2019-03-10T10:34:08Z</time>
      </trkpt>
      <trkpt lat="43.44479" lon="5.85697">
        <ele>342.37</ele>
        <time>2019-03-10T10:34:09Z</time>
      </trkpt>
      <trkpt lat="43.4448" lon="5.85696">
        <ele>342.85</ele>
        <time>2019-03-10T10:34:10Z</time>
      </trkpt>
      <trkpt lat="43.44481" lon="5.85693">
        <ele>342.85</ele>
        <time>2019-03-10T10:34:11Z</time>
      </trkpt>
      <trkpt lat="43.4449" lon="5.85655">
        <ele>342.37</ele>
        <time>2019-03-10T10:34:21Z</time>
      </trkpt>
      <trkpt lat="43.44492" lon="5.85651">
        <ele>342.37</ele>
        <time>2019-03-10T10:34:22Z</time>
      </trkpt>
      <trkpt lat="43.44494" lon="5.8565">
        <ele>342.37</ele>
        <time>2019-03-10T10:34:23Z</time>
      </trkpt>
      <trkpt lat="43.44508" lon="5.85647">
        <ele>345.25</ele>
        <time>2019-03-10T10:34:27Z</time>
      </trkpt>
      <trkpt lat="43.44509" lon="5.85646">
        <ele>345.73</ele>
        <time>2019-03-10T10:34:28Z</time>
      </trkpt>
      <trkpt lat="43.44512" lon="5.8564">
        <ele>346.21</ele>
        <time>2019-03-10T10:34:39Z</time>
      </trkpt>
      <trkpt lat="43.44519" lon="5.85634">
        <ele>346.21</ele>
        <time>2019-03-10T10:35:19Z</time>
      </trkpt>
      <trkpt lat="43.44521" lon="5.85632">
        <ele>344.29</ele>
        <time>2019-03-10T10:35:51Z</time>
      </trkpt>
      <trkpt lat="43.4452" lon="5.85632">
        <ele>345.73</ele>
        <time>2019-03-10T10:36:01Z</time>
      </trkpt>
      <trkpt lat="43.4452" lon="5.85633">
        <ele>345.25</ele>
        <time>2019-03-10T10:36:33Z</time>
      </trkpt>
      <trkpt lat="43.44521" lon="5.85634">
        <ele>345.25</ele>
        <time>2019-03-10T10:37:08Z</time>
      </trkpt>
      <trkpt lat="43.4452" lon="5.85632">
        <ele>344.77</ele>
        <time>2019-03-10T10:37:36Z</time>
      </trkpt>
      <trkpt lat="43.44519" lon="5.85633">
        <ele>344.77</ele>
        <time>2019-03-10T10:38:06Z</time>
      </trkpt>
      <trkpt lat="43.44517" lon="5.85633">
        <ele>344.29</ele>
        <time>2019-03-10T10:38:37Z</time>
      </trkpt>
      <trkpt lat="43.44517" lon="5.85634">
        <ele>343.81</ele>
        <time>2019-03-10T10:39:03Z</time>
      </trkpt>
      <trkpt lat="43.44518" lon="5.85633">
        <ele>343.81</ele>
        <time>2019-03-10T10:39:39Z</time>
      </trkpt>
      <trkpt lat="43.44517" lon="5.85634">
        <ele>343.81</ele>
        <time>2019-03-10T10:40:09Z</time>
      </trkpt>
      <trkpt lat="43.44516" lon="5.85636">
        <ele>343.81</ele>
        <time>2019-03-10T10:40:40Z</time>
      </trkpt>
      <trkpt lat="43.44515" lon="5.85634">
        <ele>343.33</ele>
        <time>2019-03-10T10:41:20Z</time>
      </trkpt>
      <trkpt lat="43.44517" lon="5.85635">
        <ele>343.33</ele>
        <time>2019-03-10T10:41:57Z</time>
      </trkpt>
      <trkpt lat="43.44517" lon="5.85636">
        <ele>343.81</ele>
        <time>2019-03-10T10:42:26Z</time>
      </trkpt>
      <trkpt lat="43.44517" lon="5.85637">
        <ele>343.33</ele>
        <time>2019-03-10T10:43:00Z</time>
      </trkpt>
      <trkpt lat="43.44517" lon="5.85637">
        <ele>343.33</ele>
        <time>2019-03-10T10:43:28Z</time>
      </trkpt>
      <trkpt lat="43.44517" lon="5.85636">
        <ele>343.33</ele>
        <time>2019-03-10T10:43:49Z</time>
      </trkpt>
      <trkpt lat="43.44517" lon="5.85636">
        <ele>341.89</ele>
        <time>2019-03-10T10:43:55Z</time>
      </trkpt>
      <trkpt lat="43.44516" lon="5.85635">
        <ele>342.85</ele>
        <time>2019-03-10T10:44:05Z</time>
      </trkpt>
      <trkpt lat="43.44515" lon="5.85634">
        <ele>342.85</ele>
        <time>2019-03-10T10:44:30Z</time>
      </trkpt>
      <trkpt lat="43.44515" lon="5.85634">
        <ele>341.41</ele>
        <time>2019-03-10T10:44:59Z</time>
      </trkpt>
      <trkpt lat="43.44515" lon="5.85633">
        <ele>340.92</ele>
        <time>2019-03-10T10:45:31Z</time>
      </trkpt>
      <trkpt lat="43.44515" lon="5.85633">
        <ele>340.44</ele>
        <time>2019-03-10T10:46:07Z</time>
      </trkpt>
      <trkpt lat="43.44515" lon="5.85634">
        <ele>341.41</ele>
        <time>2019-03-10T10:46:20Z</time>
      </trkpt>
      <trkpt lat="43.44515" lon="5.85635">
        <ele>339.96</ele>
        <time>2019-03-10T10:46:38Z</time>
      </trkpt>
      <trkpt lat="43.44515" lon="5.85635">
        <ele>340.92</ele>
        <time>2019-03-10T10:46:41Z</time>
      </trkpt>
      <trkpt lat="43.44516" lon="5.85634">
        <ele>340.92</ele>
        <time>2019-03-10T10:47:16Z</time>
      </trkpt>
      <trkpt lat="43.44516" lon="5.85636">
        <ele>340.44</ele>
        <time>2019-03-10T10:47:57Z</time>
      </trkpt>
      <trkpt lat="43.44516" lon="5.85636">
        <ele>340.44</ele>
        <time>2019-03-10T10:48:37Z</time>
      </trkpt>
      <trkpt lat="43.44517" lon="5.85634">
        <ele>340.44</ele>
        <time>2019-03-10T10:49:23Z</time>
      </trkpt>
      <trkpt lat="43.44516" lon="5.85636">
        <ele>340.44</ele>
        <time>2019-03-10T10:49:59Z</time>
      </trkpt>
      <trkpt lat="43.44516" lon="5.85636">
        <ele>340.44</ele>
        <time>2019-03-10T10:50:18Z</time>
      </trkpt>
      <trkpt lat="43.44516" lon="5.85636">
        <ele>340.44</ele>
        <time>2019-03-10T10:50:48Z</time>
      </trkpt>
      <trkpt lat="43.44517" lon="5.85634">
        <ele>339.96</ele>
        <time>2019-03-10T10:51:28Z</time>
      </trkpt>
      <trkpt lat="43.44517" lon="5.85632">
        <ele>338.52</ele>
        <time>2019-03-10T10:51:46Z</time>
      </trkpt>
      <trkpt lat="43.44515" lon="5.85632">
        <ele>339.48</ele>
        <time>2019-03-10T10:52:16Z</time>
      </trkpt>
      <trkpt lat="43.44511" lon="5.85634">
        <ele>338.04</ele>
        <time>2019-03-10T10:52:19Z</time>
      </trkpt>
      <trkpt lat="43.4451" lon="5.85634">
        <ele>337.56</ele>
        <time>2019-03-10T10:52:20Z</time>
      </trkpt>
      <trkpt lat="43.44508" lon="5.85633">
        <ele>336.6</ele>
        <time>2019-03-10T10:52:21Z</time>
      </trkpt>
      <trkpt lat="43.44505" lon="5.85634">
        <ele>334.68</ele>
        <time>2019-03-10T10:52:24Z</time>
      </trkpt>
      <trkpt lat="43.44504" lon="5.85636">
        <ele>334.68</ele>
        <time>2019-03-10T10:52:25Z</time>
      </trkpt>
      <trkpt lat="43.44502" lon="5.8564">
        <ele>333.71</ele>
        <time>2019-03-10T10:52:26Z</time>
      </trkpt>
      <trkpt lat="43.44501" lon="5.85644">
        <ele>333.71</ele>
        <time>2019-03-10T10:52:27Z</time>
      </trkpt>
      <trkpt lat="43.445" lon="5.85648">
        <ele>333.71</ele>
        <time>2019-03-10T10:52:28Z</time>
      </trkpt>
      <trkpt lat="43.44499" lon="5.85652">
        <ele>333.71</ele>
        <time>2019-03-10T10:52:29Z</time>
      </trkpt>
      <trkpt lat="43.44498" lon="5.85657">
        <ele>333.71</ele>
        <time>2019-03-10T10:52:30Z</time>
      </trkpt>
      <trkpt lat="43.44495" lon="5.85703">
        <ele>333.71</ele>
        <time>2019-03-10T10:52:39Z</time>
      </trkpt>
      <trkpt lat="43.44497" lon="5.8571">
        <ele>333.71</ele>
        <time>2019-03-10T10:52:40Z</time>
      </trkpt>
      <trkpt lat="43.445" lon="5.85718">
        <ele>333.23</ele>
        <time>2019-03-10T10:52:41Z</time>
      </trkpt>
      <trkpt lat="43.44503" lon="5.85725">
        <ele>333.23</ele>
        <time>2019-03-10T10:52:42Z</time>
      </trkpt>
      <trkpt lat="43.44508" lon="5.85731">
        <ele>332.75</ele>
        <time>2019-03-10T10:52:43Z</time>
      </trkpt>
      <trkpt lat="43.44523" lon="5.85752">
        <ele>331.31</ele>
        <time>2019-03-10T10:52:46Z</time>
      </trkpt>
      <trkpt lat="43.44547" lon="5.85786">
        <ele>331.31</ele>
        <time>2019-03-10T10:52:51Z</time>
      </trkpt>
      <trkpt lat="43.44554" lon="5.85794">
        <ele>331.31</ele>
        <time>2019-03-10T10:52:52Z</time>
      </trkpt>
      <trkpt lat="43.44558" lon="5.85803">
        <ele>331.31</ele>
        <time>2019-03-10T10:52:53Z</time>
      </trkpt>
      <trkpt lat="43.44563" lon="5.85813">
        <ele>331.31</ele>
        <time>2019-03-10T10:52:54Z</time>
      </trkpt>
      <trkpt lat="43.44568" lon="5.85824">
        <ele>330.35</ele>
        <time>2019-03-10T10:52:55Z</time>
      </trkpt>
      <trkpt lat="43.44624" lon="5.85933">
        <ele>328.43</ele>
        <time>2019-03-10T10:53:06Z</time>
      </trkpt>
      <trkpt lat="43.44644" lon="5.85963">
        <ele>327.95</ele>
        <time>2019-03-10T10:53:10Z</time>
      </trkpt>
      <trkpt lat="43.44652" lon="5.85972">
        <ele>326.99</ele>
        <time>2019-03-10T10:53:12Z</time>
      </trkpt>
      <trkpt lat="43.44654" lon="5.85978">
        <ele>326.99</ele>
        <time>2019-03-10T10:53:13Z</time>
      </trkpt>
      <trkpt lat="43.44655" lon="5.85987">
        <ele>326.99</ele>
        <time>2019-03-10T10:53:14Z</time>
      </trkpt>
      <trkpt lat="43.44655" lon="5.85991">
        <ele>327.47</ele>
        <time>2019-03-10T10:53:15Z</time>
      </trkpt>
      <trkpt lat="43.44652" lon="5.85998">
        <ele>326.99</ele>
        <time>2019-03-10T10:53:16Z</time>
      </trkpt>
      <trkpt lat="43.44646" lon="5.86013">
        <ele>326.99</ele>
        <time>2019-03-10T10:53:18Z</time>
      </trkpt>
      <trkpt lat="43.4464" lon="5.86019">
        <ele>326.99</ele>
        <time>2019-03-10T10:53:19Z</time>
      </trkpt>
      <trkpt lat="43.44636" lon="5.86021">
        <ele>326.99</ele>
        <time>2019-03-10T10:53:20Z</time>
      </trkpt>
      <trkpt lat="43.4463" lon="5.8602">
        <ele>326.99</ele>
        <time>2019-03-10T10:53:21Z</time>
      </trkpt>
      <trkpt lat="43.44626" lon="5.86019">
        <ele>326.99</ele>
        <time>2019-03-10T10:53:22Z</time>
      </trkpt>
      <trkpt lat="43.4462" lon="5.86017">
        <ele>326.99</ele>
        <time>2019-03-10T10:53:23Z</time>
      </trkpt>
      <trkpt lat="43.44587" lon="5.86007">
        <ele>329.39</ele>
        <time>2019-03-10T10:53:29Z</time>
      </trkpt>
      <trkpt lat="43.44531" lon="5.85986">
        <ele>331.79</ele>
        <time>2019-03-10T10:53:39Z</time>
      </trkpt>
      <trkpt lat="43.44525" lon="5.85984">
        <ele>330.83</ele>
        <time>2019-03-10T10:53:40Z</time>
      </trkpt>
      <trkpt lat="43.44488" lon="5.8597">
        <ele>332.27</ele>
        <time>2019-03-10T10:53:47Z</time>
      </trkpt>
      <trkpt lat="43.44448" lon="5.85956">
        <ele>332.75</ele>
        <time>2019-03-10T10:54:00Z</time>
      </trkpt>
      <trkpt lat="43.44446" lon="5.85956">
        <ele>333.23</ele>
        <time>2019-03-10T10:54:23Z</time>
      </trkpt>
      <trkpt lat="43.44447" lon="5.85957">
        <ele>333.23</ele>
        <time>2019-03-10T10:54:53Z</time>
      </trkpt>
      <trkpt lat="43.44445" lon="5.85956">
        <ele>333.23</ele>
        <time>2019-03-10T10:54:54Z</time>
      </trkpt>
      <trkpt lat="43.44443" lon="5.85956">
        <ele>332.75</ele>
        <time>2019-03-10T10:54:55Z</time>
      </trkpt>
      <trkpt lat="43.44436" lon="5.85953">
        <ele>332.75</ele>
        <time>2019-03-10T10:54:57Z</time>
      </trkpt>
      <trkpt lat="43.44432" lon="5.85953">
        <ele>333.23</ele>
        <time>2019-03-10T10:54:58Z</time>
      </trkpt>
      <trkpt lat="43.44427" lon="5.85955">
        <ele>333.71</ele>
        <time>2019-03-10T10:54:59Z</time>
      </trkpt>
      <trkpt lat="43.44423" lon="5.8596">
        <ele>334.2</ele>
        <time>2019-03-10T10:55:00Z</time>
      </trkpt>
      <trkpt lat="43.44421" lon="5.85966">
        <ele>334.2</ele>
        <time>2019-03-10T10:55:01Z</time>
      </trkpt>
      <trkpt lat="43.44418" lon="5.85973">
        <ele>334.2</ele>
        <time>2019-03-10T10:55:02Z</time>
      </trkpt>
      <trkpt lat="43.44417" lon="5.8598">
        <ele>334.2</ele>
        <time>2019-03-10T10:55:03Z</time>
      </trkpt>
      <trkpt lat="43.44405" lon="5.86026">
        <ele>332.75</ele>
        <time>2019-03-10T10:55:09Z</time>
      </trkpt>
      <trkpt lat="43.44376" lon="5.86115">
        <ele>335.16</ele>
        <time>2019-03-10T10:55:25Z</time>
      </trkpt>
      <trkpt lat="43.44336" lon="5.86171">
        <ele>338.04</ele>
        <time>2019-03-10T10:55:39Z</time>
      </trkpt>
      <trkpt lat="43.4427" lon="5.86208">
        <ele>339.48</ele>
        <time>2019-03-10T10:55:56Z</time>
      </trkpt>
      <trkpt lat="43.44184" lon="5.86241">
        <ele>339.96</ele>
        <time>2019-03-10T10:56:14Z</time>
      </trkpt>
      <trkpt lat="43.44139" lon="5.86257">
        <ele>341.41</ele>
        <time>2019-03-10T10:56:23Z</time>
      </trkpt>
      <trkpt lat="43.4413" lon="5.8626">
        <ele>339.96</ele>
        <time>2019-03-10T10:56:25Z</time>
      </trkpt>
      <trkpt lat="43.4406" lon="5.86287">
        <ele>341.89</ele>
        <time>2019-03-10T10:56:42Z</time>
      </trkpt>
      <trkpt lat="43.44046" lon="5.8629">
        <ele>341.89</ele>
        <time>2019-03-10T10:56:46Z</time>
      </trkpt>
      <trkpt lat="43.44043" lon="5.86288">
        <ele>342.37</ele>
        <time>2019-03-10T10:56:47Z</time>
      </trkpt>
      <trkpt lat="43.4404" lon="5.86283">
        <ele>342.85</ele>
        <time>2019-03-10T10:56:48Z</time>
      </trkpt>
      <trkpt lat="43.4404" lon="5.8628">
        <ele>342.37</ele>
        <time>2019-03-10T10:56:49Z</time>
      </trkpt>
      <trkpt lat="43.4404" lon="5.86277">
        <ele>343.33</ele>
        <time>2019-03-10T10:56:50Z</time>
      </trkpt>
      <trkpt lat="43.44039" lon="5.86273">
        <ele>343.33</ele>
        <time>2019-03-10T10:56:51Z</time>
      </trkpt>
      <trkpt lat="43.44036" lon="5.86233">
        <ele>346.21</ele>
        <time>2019-03-10T10:57:01Z</time>
      </trkpt>
      <trkpt lat="43.4403" lon="5.86188">
        <ele>349.1</ele>
        <time>2019-03-10T10:57:13Z</time>
      </trkpt>
      <trkpt lat="43.44028" lon="5.86169">
        <ele>349.58</ele>
        <time>2019-03-10T10:57:19Z</time>
      </trkpt>
      <trkpt lat="43.44025" lon="5.86166">
        <ele>349.58</ele>
        <time>2019-03-10T10:57:20Z</time>
      </trkpt>
      <trkpt lat="43.44024" lon="5.86166">
        <ele>349.58</ele>
        <time>2019-03-10T10:57:21Z</time>
      </trkpt>
      <trkpt lat="43.44022" lon="5.86165">
        <ele>351.02</ele>
        <time>2019-03-10T10:57:22Z</time>
      </trkpt>
      <trkpt lat="43.4402" lon="5.86165">
        <ele>351.02</ele>
        <time>2019-03-10T10:57:23Z</time>
      </trkpt>
      <trkpt lat="43.43995" lon="5.86155">
        <ele>350.54</ele>
        <time>2019-03-10T10:57:34Z</time>
      </trkpt>
      <trkpt lat="43.43988" lon="5.86131">
        <ele>352.46</ele>
        <time>2019-03-10T10:57:42Z</time>
      </trkpt>
      <trkpt lat="43.43981" lon="5.86117">
        <ele>353.42</ele>
        <time>2019-03-10T10:57:48Z</time>
      </trkpt>
      <trkpt lat="43.43981" lon="5.86116">
        <ele>353.42</ele>
        <time>2019-03-10T10:57:49Z</time>
      </trkpt>
      <trkpt lat="43.4398" lon="5.86115">
        <ele>352.46</ele>
        <time>2019-03-10T10:57:50Z</time>
      </trkpt>
      <trkpt lat="43.43979" lon="5.86113">
        <ele>352.46</ele>
        <time>2019-03-10T10:57:51Z</time>
      </trkpt>
      <trkpt lat="43.43978" lon="5.86111">
        <ele>351.98</ele>
        <time>2019-03-10T10:57:52Z</time>
      </trkpt>
      <trkpt lat="43.43971" lon="5.86098">
        <ele>353.42</ele>
        <time>2019-03-10T10:57:57Z</time>
      </trkpt>
      <trkpt lat="43.43969" lon="5.86091">
        <ele>353.9</ele>
        <time>2019-03-10T10:58:00Z</time>
      </trkpt>
      <trkpt lat="43.4397" lon="5.86089">
        <ele>353.9</ele>
        <time>2019-03-10T10:58:01Z</time>
      </trkpt>
      <trkpt lat="43.43971" lon="5.86088">
        <ele>353.9</ele>
        <time>2019-03-10T10:58:02Z</time>
      </trkpt>
      <trkpt lat="43.43973" lon="5.86085">
        <ele>353.9</ele>
        <time>2019-03-10T10:58:03Z</time>
      </trkpt>
      <trkpt lat="43.43973" lon="5.86084">
        <ele>353.9</ele>
        <time>2019-03-10T10:58:04Z</time>
      </trkpt>
      <trkpt lat="43.43974" lon="5.86081">
        <ele>353.9</ele>
        <time>2019-03-10T10:58:05Z</time>
      </trkpt>
      <trkpt lat="43.43974" lon="5.86078">
        <ele>353.9</ele>
        <time>2019-03-10T10:58:06Z</time>
      </trkpt>
      <trkpt lat="43.43975" lon="5.86068">
        <ele>354.38</ele>
        <time>2019-03-10T10:58:10Z</time>
      </trkpt>
      <trkpt lat="43.43975" lon="5.86037">
        <ele>355.34</ele>
        <time>2019-03-10T10:58:23Z</time>
      </trkpt>
      <trkpt lat="43.43976" lon="5.86026">
        <ele>355.34</ele>
        <time>2019-03-10T10:59:03Z</time>
      </trkpt>
      <trkpt lat="43.43979" lon="5.86024">
        <ele>354.86</ele>
        <time>2019-03-10T10:59:40Z</time>
      </trkpt>
      <trkpt lat="43.43976" lon="5.86024">
        <ele>354.86</ele>
        <time>2019-03-10T11:00:08Z</time>
      </trkpt>
      <trkpt lat="43.43976" lon="5.86024">
        <ele>353.42</ele>
        <time>2019-03-10T11:00:11Z</time>
      </trkpt>
      <trkpt lat="43.43976" lon="5.86029">
        <ele>354.38</ele>
        <time>2019-03-10T11:00:42Z</time>
      </trkpt>
      <trkpt lat="43.43972" lon="5.86029">
        <ele>354.38</ele>
        <time>2019-03-10T11:00:54Z</time>
      </trkpt>
      <trkpt lat="43.43971" lon="5.86031">
        <ele>355.34</ele>
        <time>2019-03-10T11:01:18Z</time>
      </trkpt>
      <trkpt lat="43.43973" lon="5.86035">
        <ele>353.9</ele>
        <time>2019-03-10T11:01:41Z</time>
      </trkpt>
      <trkpt lat="43.43973" lon="5.86035">
        <ele>353.9</ele>
        <time>2019-03-10T11:01:42Z</time>
      </trkpt>
    </trkseg>
  </trk>
  <trk>
    <name><![CDATA[2019-03-19- BRAS - SYLVIE]]></name>
    <trkseg>
      <trkpt lat="43.47178" lon="5.94709">
        <ele>191.92</ele>
        <time>2019-03-19T13:10:47Z</time>
      </trkpt>
      <trkpt lat="43.47176" lon="5.94705">
        <ele>192.4</ele>
        <time>2019-03-19T13:10:54Z</time>
      </trkpt>
      <trkpt lat="43.4717" lon="5.94701">
        <ele>192.88</ele>
        <time>2019-03-19T13:11:03Z</time>
      </trkpt>
      <trkpt lat="43.47158" lon="5.94697">
        <ele>193.36</ele>
        <time>2019-03-19T13:11:17Z</time>
      </trkpt>
      <trkpt lat="43.47155" lon="5.94694">
        <ele>193.36</ele>
        <time>2019-03-19T13:11:21Z</time>
      </trkpt>
      <trkpt lat="43.47144" lon="5.94682">
        <ele>193.36</ele>
        <time>2019-03-19T13:11:35Z</time>
      </trkpt>
      <trkpt lat="43.47142" lon="5.94678">
        <ele>193.36</ele>
        <time>2019-03-19T13:11:38Z</time>
      </trkpt>
      <trkpt lat="43.47138" lon="5.94655">
        <ele>193.84</ele>
        <time>2019-03-19T13:11:53Z</time>
      </trkpt>
      <trkpt lat="43.47136" lon="5.94641">
        <ele>193.84</ele>
        <time>2019-03-19T13:12:05Z</time>
      </trkpt>
      <trkpt lat="43.47126" lon="5.94552">
        <ele>197.21</ele>
        <time>2019-03-19T13:12:12Z</time>
      </trkpt>
      <trkpt lat="43.47126" lon="5.94549">
        <ele>200.09</ele>
        <time>2019-03-19T13:12:13Z</time>
      </trkpt>
      <trkpt lat="43.47125" lon="5.94545">
        <ele>205.86</ele>
        <time>2019-03-19T13:12:15Z</time>
      </trkpt>
      <trkpt lat="43.47124" lon="5.94541">
        <ele>211.63</ele>
        <time>2019-03-19T13:12:17Z</time>
      </trkpt>
      <trkpt lat="43.47124" lon="5.94537">
        <ele>216.43</ele>
        <time>2019-03-19T13:12:19Z</time>
      </trkpt>
      <trkpt lat="43.47123" lon="5.94533">
        <ele>221.24</ele>
        <time>2019-03-19T13:12:21Z</time>
      </trkpt>
      <trkpt lat="43.47123" lon="5.94529">
        <ele>225.57</ele>
        <time>2019-03-19T13:12:23Z</time>
      </trkpt>
      <trkpt lat="43.47122" lon="5.94525">
        <ele>231.33</ele>
        <time>2019-03-19T13:12:25Z</time>
      </trkpt>
      <trkpt lat="43.47121" lon="5.94521">
        <ele>232.78</ele>
        <time>2019-03-19T13:12:27Z</time>
      </trkpt>
      <trkpt lat="43.47121" lon="5.94518">
        <ele>236.62</ele>
        <time>2019-03-19T13:12:29Z</time>
      </trkpt>
      <trkpt lat="43.4712" lon="5.94513">
        <ele>239.51</ele>
        <time>2019-03-19T13:12:31Z</time>
      </trkpt>
      <trkpt lat="43.47119" lon="5.94508">
        <ele>243.83</ele>
        <time>2019-03-19T13:12:34Z</time>
      </trkpt>
      <trkpt lat="43.47118" lon="5.94504">
        <ele>247.68</ele>
        <time>2019-03-19T13:12:37Z</time>
      </trkpt>
      <trkpt lat="43.47117" lon="5.94499">
        <ele>252</ele>
        <time>2019-03-19T13:12:40Z</time>
      </trkpt>
      <trkpt lat="43.47116" lon="5.94493">
        <ele>254.89</ele>
        <time>2019-03-19T13:12:43Z</time>
      </trkpt>
      <trkpt lat="43.47114" lon="5.94488">
        <ele>258.73</ele>
        <time>2019-03-19T13:12:47Z</time>
      </trkpt>
      <trkpt lat="43.47113" lon="5.94482">
        <ele>262.1</ele>
        <time>2019-03-19T13:12:51Z</time>
      </trkpt>
      <trkpt lat="43.47112" lon="5.94476">
        <ele>265.46</ele>
        <time>2019-03-19T13:12:55Z</time>
      </trkpt>
      <trkpt lat="43.4711" lon="5.94466">
        <ele>268.35</ele>
        <time>2019-03-19T13:13:01Z</time>
      </trkpt>
      <trkpt lat="43.47109" lon="5.94455">
        <ele>271.71</ele>
        <time>2019-03-19T13:13:08Z</time>
      </trkpt>
      <trkpt lat="43.47108" lon="5.94446">
        <ele>275.07</ele>
        <time>2019-03-19T13:13:15Z</time>
      </trkpt>
      <trkpt lat="43.47112" lon="5.94433">
        <ele>277.96</ele>
        <time>2019-03-19T13:13:27Z</time>
      </trkpt>
      <trkpt lat="43.47123" lon="5.94397">
        <ele>278.44</ele>
        <time>2019-03-19T13:13:44Z</time>
      </trkpt>
      <trkpt lat="43.47134" lon="5.94398">
        <ele>277.96</ele>
        <time>2019-03-19T13:13:57Z</time>
      </trkpt>
      <trkpt lat="43.47149" lon="5.94388">
        <ele>277.96</ele>
        <time>2019-03-19T13:14:11Z</time>
      </trkpt>
      <trkpt lat="43.47167" lon="5.94373">
        <ele>278.92</ele>
        <time>2019-03-19T13:14:28Z</time>
      </trkpt>
      <trkpt lat="43.47176" lon="5.9437">
        <ele>278.92</ele>
        <time>2019-03-19T13:14:41Z</time>
      </trkpt>
      <trkpt lat="43.47185" lon="5.94364">
        <ele>278.92</ele>
        <time>2019-03-19T13:14:52Z</time>
      </trkpt>
      <trkpt lat="43.47196" lon="5.94351">
        <ele>279.4</ele>
        <time>2019-03-19T13:15:07Z</time>
      </trkpt>
      <trkpt lat="43.4721" lon="5.94332">
        <ele>279.88</ele>
        <time>2019-03-19T13:15:24Z</time>
      </trkpt>
      <trkpt lat="43.47218" lon="5.94315">
        <ele>280.84</ele>
        <time>2019-03-19T13:15:40Z</time>
      </trkpt>
      <trkpt lat="43.47227" lon="5.94296">
        <ele>281.32</ele>
        <time>2019-03-19T13:15:55Z</time>
      </trkpt>
      <trkpt lat="43.47233" lon="5.94278">
        <ele>280.84</ele>
        <time>2019-03-19T13:16:10Z</time>
      </trkpt>
      <trkpt lat="43.47234" lon="5.94268">
        <ele>279.88</ele>
        <time>2019-03-19T13:16:18Z</time>
      </trkpt>
      <trkpt lat="43.47235" lon="5.9424">
        <ele>278.92</ele>
        <time>2019-03-19T13:16:36Z</time>
      </trkpt>
      <trkpt lat="43.47238" lon="5.94236">
        <ele>278.92</ele>
        <time>2019-03-19T13:16:51Z</time>
      </trkpt>
      <trkpt lat="43.4724" lon="5.94233">
        <ele>278.92</ele>
        <time>2019-03-19T13:17:12Z</time>
      </trkpt>
      <trkpt lat="43.4724" lon="5.94231">
        <ele>278.92</ele>
        <time>2019-03-19T13:17:16Z</time>
      </trkpt>
      <trkpt lat="43.47241" lon="5.94231">
        <ele>278.92</ele>
        <time>2019-03-19T13:17:26Z</time>
      </trkpt>
      <trkpt lat="43.47239" lon="5.94228">
        <ele>278.92</ele>
        <time>2019-03-19T13:17:42Z</time>
      </trkpt>
      <trkpt lat="43.47239" lon="5.94226">
        <ele>278.44</ele>
        <time>2019-03-19T13:18:11Z</time>
      </trkpt>
      <trkpt lat="43.47238" lon="5.94226">
        <ele>278.44</ele>
        <time>2019-03-19T13:18:55Z</time>
      </trkpt>
      <trkpt lat="43.47237" lon="5.94229">
        <ele>278.44</ele>
        <time>2019-03-19T13:19:21Z</time>
      </trkpt>
      <trkpt lat="43.47237" lon="5.94231">
        <ele>278.44</ele>
        <time>2019-03-19T13:19:39Z</time>
      </trkpt>
      <trkpt lat="43.47239" lon="5.94233">
        <ele>278.44</ele>
        <time>2019-03-19T13:20:14Z</time>
      </trkpt>
      <trkpt lat="43.4724" lon="5.94229">
        <ele>278.44</ele>
        <time>2019-03-19T13:20:37Z</time>
      </trkpt>
      <trkpt lat="43.47237" lon="5.94229">
        <ele>278.44</ele>
        <time>2019-03-19T13:21:00Z</time>
      </trkpt>
      <trkpt lat="43.47233" lon="5.94226">
        <ele>277.96</ele>
        <time>2019-03-19T13:21:12Z</time>
      </trkpt>
      <trkpt lat="43.47233" lon="5.94222">
        <ele>277.96</ele>
        <time>2019-03-19T13:21:28Z</time>
      </trkpt>
      <trkpt lat="43.47233" lon="5.94223">
        <ele>277.96</ele>
        <time>2019-03-19T13:21:49Z</time>
      </trkpt>
      <trkpt lat="43.47233" lon="5.9422">
        <ele>277.96</ele>
        <time>2019-03-19T13:22:12Z</time>
      </trkpt>
      <trkpt lat="43.47233" lon="5.94212">
        <ele>279.4</ele>
        <time>2019-03-19T13:22:25Z</time>
      </trkpt>
      <trkpt lat="43.47233" lon="5.94211">
        <ele>279.4</ele>
        <time>2019-03-19T13:22:26Z</time>
      </trkpt>
      <trkpt lat="43.47235" lon="5.94204">
        <ele>280.36</ele>
        <time>2019-03-19T13:22:40Z</time>
      </trkpt>
      <trkpt lat="43.47236" lon="5.94194">
        <ele>282.77</ele>
        <time>2019-03-19T13:22:58Z</time>
      </trkpt>
      <trkpt lat="43.47239" lon="5.94183">
        <ele>284.21</ele>
        <time>2019-03-19T13:23:13Z</time>
      </trkpt>
      <trkpt lat="43.4724" lon="5.94173">
        <ele>286.61</ele>
        <time>2019-03-19T13:23:29Z</time>
      </trkpt>
      <trkpt lat="43.47239" lon="5.94162">
        <ele>288.05</ele>
        <time>2019-03-19T13:23:42Z</time>
      </trkpt>
      <trkpt lat="43.47239" lon="5.94155">
        <ele>288.53</ele>
        <time>2019-03-19T13:23:53Z</time>
      </trkpt>
      <trkpt lat="43.47237" lon="5.9414">
        <ele>290.94</ele>
        <time>2019-03-19T13:24:07Z</time>
      </trkpt>
      <trkpt lat="43.47234" lon="5.94126">
        <ele>292.38</ele>
        <time>2019-03-19T13:24:21Z</time>
      </trkpt>
      <trkpt lat="43.47231" lon="5.94119">
        <ele>294.78</ele>
        <time>2019-03-19T13:24:35Z</time>
      </trkpt>
      <trkpt lat="43.47228" lon="5.94126">
        <ele>295.74</ele>
        <time>2019-03-19T13:24:50Z</time>
      </trkpt>
      <trkpt lat="43.47219" lon="5.94136">
        <ele>297.67</ele>
        <time>2019-03-19T13:25:06Z</time>
      </trkpt>
      <trkpt lat="43.47211" lon="5.94141">
        <ele>298.63</ele>
        <time>2019-03-19T13:25:19Z</time>
      </trkpt>
      <trkpt lat="43.47208" lon="5.94143">
        <ele>299.11</ele>
        <time>2019-03-19T13:25:53Z</time>
      </trkpt>
      <trkpt lat="43.472" lon="5.9414">
        <ele>300.55</ele>
        <time>2019-03-19T13:26:04Z</time>
      </trkpt>
      <trkpt lat="43.47193" lon="5.94132">
        <ele>302.95</ele>
        <time>2019-03-19T13:26:18Z</time>
      </trkpt>
      <trkpt lat="43.47186" lon="5.94123">
        <ele>304.39</ele>
        <time>2019-03-19T13:26:32Z</time>
      </trkpt>
      <trkpt lat="43.47181" lon="5.94117">
        <ele>305.36</ele>
        <time>2019-03-19T13:26:50Z</time>
      </trkpt>
      <trkpt lat="43.47173" lon="5.94108">
        <ele>307.76</ele>
        <time>2019-03-19T13:27:05Z</time>
      </trkpt>
      <trkpt lat="43.47165" lon="5.94099">
        <ele>308.72</ele>
        <time>2019-03-19T13:27:17Z</time>
      </trkpt>
      <trkpt lat="43.47156" lon="5.94091">
        <ele>309.68</ele>
        <time>2019-03-19T13:27:30Z</time>
      </trkpt>
      <trkpt lat="43.47144" lon="5.94078">
        <ele>311.6</ele>
        <time>2019-03-19T13:27:46Z</time>
      </trkpt>
      <trkpt lat="43.47133" lon="5.94068">
        <ele>313.53</ele>
        <time>2019-03-19T13:28:02Z</time>
      </trkpt>
      <trkpt lat="43.47123" lon="5.94058">
        <ele>315.93</ele>
        <time>2019-03-19T13:28:18Z</time>
      </trkpt>
      <trkpt lat="43.47121" lon="5.94057">
        <ele>316.41</ele>
        <time>2019-03-19T13:28:36Z</time>
      </trkpt>
      <trkpt lat="43.4712" lon="5.94057">
        <ele>316.41</ele>
        <time>2019-03-19T13:29:11Z</time>
      </trkpt>
      <trkpt lat="43.47117" lon="5.94051">
        <ele>317.37</ele>
        <time>2019-03-19T13:29:31Z</time>
      </trkpt>
      <trkpt lat="43.47109" lon="5.94044">
        <ele>318.33</ele>
        <time>2019-03-19T13:29:44Z</time>
      </trkpt>
      <trkpt lat="43.47105" lon="5.9404">
        <ele>318.81</ele>
        <time>2019-03-19T13:29:59Z</time>
      </trkpt>
      <trkpt lat="43.47099" lon="5.94035">
        <ele>319.78</ele>
        <time>2019-03-19T13:30:12Z</time>
      </trkpt>
      <trkpt lat="43.47097" lon="5.94034">
        <ele>320.26</ele>
        <time>2019-03-19T13:30:16Z</time>
      </trkpt>
      <trkpt lat="43.47093" lon="5.9403">
        <ele>321.22</ele>
        <time>2019-03-19T13:30:21Z</time>
      </trkpt>
      <trkpt lat="43.47087" lon="5.94026">
        <ele>322.18</ele>
        <time>2019-03-19T13:30:34Z</time>
      </trkpt>
      <trkpt lat="43.47078" lon="5.94016">
        <ele>323.62</ele>
        <time>2019-03-19T13:30:50Z</time>
      </trkpt>
      <trkpt lat="43.47071" lon="5.9401">
        <ele>324.58</ele>
        <time>2019-03-19T13:31:04Z</time>
      </trkpt>
      <trkpt lat="43.47062" lon="5.94003">
        <ele>326.02</ele>
        <time>2019-03-19T13:31:18Z</time>
      </trkpt>
      <trkpt lat="43.47049" lon="5.9399">
        <ele>326.99</ele>
        <time>2019-03-19T13:31:34Z</time>
      </trkpt>
      <trkpt lat="43.4704" lon="5.93982">
        <ele>328.91</ele>
        <time>2019-03-19T13:31:48Z</time>
      </trkpt>
      <trkpt lat="43.47034" lon="5.93974">
        <ele>330.35</ele>
        <time>2019-03-19T13:32:00Z</time>
      </trkpt>
      <trkpt lat="43.47029" lon="5.93966">
        <ele>332.27</ele>
        <time>2019-03-19T13:32:13Z</time>
      </trkpt>
      <trkpt lat="43.47023" lon="5.93955">
        <ele>333.71</ele>
        <time>2019-03-19T13:32:29Z</time>
      </trkpt>
      <trkpt lat="43.4702" lon="5.93945">
        <ele>335.64</ele>
        <time>2019-03-19T13:32:44Z</time>
      </trkpt>
      <trkpt lat="43.47016" lon="5.93934">
        <ele>337.56</ele>
        <time>2019-03-19T13:32:59Z</time>
      </trkpt>
      <trkpt lat="43.47011" lon="5.93925">
        <ele>339.48</ele>
        <time>2019-03-19T13:33:14Z</time>
      </trkpt>
      <trkpt lat="43.47006" lon="5.9392">
        <ele>339.48</ele>
        <time>2019-03-19T13:33:35Z</time>
      </trkpt>
      <trkpt lat="43.47007" lon="5.93914">
        <ele>339</ele>
        <time>2019-03-19T13:34:11Z</time>
      </trkpt>
      <trkpt lat="43.47006" lon="5.93917">
        <ele>339.48</ele>
        <time>2019-03-19T13:34:48Z</time>
      </trkpt>
      <trkpt lat="43.47006" lon="5.93917">
        <ele>339.48</ele>
        <time>2019-03-19T13:35:19Z</time>
      </trkpt>
      <trkpt lat="43.47006" lon="5.93916">
        <ele>339.48</ele>
        <time>2019-03-19T13:35:52Z</time>
      </trkpt>
      <trkpt lat="43.47008" lon="5.93908">
        <ele>341.41</ele>
        <time>2019-03-19T13:36:08Z</time>
      </trkpt>
      <trkpt lat="43.47007" lon="5.93901">
        <ele>343.33</ele>
        <time>2019-03-19T13:36:22Z</time>
      </trkpt>
      <trkpt lat="43.47002" lon="5.93892">
        <ele>344.77</ele>
        <time>2019-03-19T13:36:37Z</time>
      </trkpt>
      <trkpt lat="43.46997" lon="5.93887">
        <ele>346.21</ele>
        <time>2019-03-19T13:36:52Z</time>
      </trkpt>
      <trkpt lat="43.46992" lon="5.93877">
        <ele>348.13</ele>
        <time>2019-03-19T13:37:07Z</time>
      </trkpt>
      <trkpt lat="43.46987" lon="5.93868">
        <ele>349.1</ele>
        <time>2019-03-19T13:37:22Z</time>
      </trkpt>
      <trkpt lat="43.46983" lon="5.93858">
        <ele>350.54</ele>
        <time>2019-03-19T13:37:38Z</time>
      </trkpt>
      <trkpt lat="43.4698" lon="5.93853">
        <ele>351.02</ele>
        <time>2019-03-19T13:37:53Z</time>
      </trkpt>
      <trkpt lat="43.46978" lon="5.93847">
        <ele>351.5</ele>
        <time>2019-03-19T13:38:14Z</time>
      </trkpt>
      <trkpt lat="43.46979" lon="5.93845">
        <ele>351.5</ele>
        <time>2019-03-19T13:38:35Z</time>
      </trkpt>
      <trkpt lat="43.46976" lon="5.93836">
        <ele>351.98</ele>
        <time>2019-03-19T13:39:02Z</time>
      </trkpt>
      <trkpt lat="43.46975" lon="5.93829">
        <ele>351.98</ele>
        <time>2019-03-19T13:39:08Z</time>
      </trkpt>
      <trkpt lat="43.46975" lon="5.93823">
        <ele>351.98</ele>
        <time>2019-03-19T13:39:13Z</time>
      </trkpt>
      <trkpt lat="43.46975" lon="5.93808">
        <ele>352.46</ele>
        <time>2019-03-19T13:39:26Z</time>
      </trkpt>
      <trkpt lat="43.46976" lon="5.93796">
        <ele>351.98</ele>
        <time>2019-03-19T13:39:38Z</time>
      </trkpt>
      <trkpt lat="43.46976" lon="5.93793">
        <ele>351.02</ele>
        <time>2019-03-19T13:39:42Z</time>
      </trkpt>
      <trkpt lat="43.46977" lon="5.9378">
        <ele>349.58</ele>
        <time>2019-03-19T13:39:55Z</time>
      </trkpt>
      <trkpt lat="43.4698" lon="5.93764">
        <ele>349.58</ele>
        <time>2019-03-19T13:40:11Z</time>
      </trkpt>
      <trkpt lat="43.46982" lon="5.93747">
        <ele>348.62</ele>
        <time>2019-03-19T13:40:25Z</time>
      </trkpt>
      <trkpt lat="43.46985" lon="5.93733">
        <ele>348.62</ele>
        <time>2019-03-19T13:40:38Z</time>
      </trkpt>
      <trkpt lat="43.46985" lon="5.9372">
        <ele>350.06</ele>
        <time>2019-03-19T13:40:50Z</time>
      </trkpt>
      <trkpt lat="43.46985" lon="5.93713">
        <ele>351.02</ele>
        <time>2019-03-19T13:41:07Z</time>
      </trkpt>
      <trkpt lat="43.46983" lon="5.93706">
        <ele>351.5</ele>
        <time>2019-03-19T13:41:30Z</time>
      </trkpt>
      <trkpt lat="43.46988" lon="5.93693">
        <ele>353.42</ele>
        <time>2019-03-19T13:41:47Z</time>
      </trkpt>
      <trkpt lat="43.46992" lon="5.93682">
        <ele>354.38</ele>
        <time>2019-03-19T13:42:00Z</time>
      </trkpt>
      <trkpt lat="43.46995" lon="5.93672">
        <ele>354.86</ele>
        <time>2019-03-19T13:42:11Z</time>
      </trkpt>
      <trkpt lat="43.47" lon="5.93659">
        <ele>356.31</ele>
        <time>2019-03-19T13:42:24Z</time>
      </trkpt>
      <trkpt lat="43.47003" lon="5.93643">
        <ele>357.27</ele>
        <time>2019-03-19T13:42:39Z</time>
      </trkpt>
      <trkpt lat="43.47006" lon="5.93623">
        <ele>358.23</ele>
        <time>2019-03-19T13:42:53Z</time>
      </trkpt>
      <trkpt lat="43.47007" lon="5.93596">
        <ele>358.71</ele>
        <time>2019-03-19T13:43:10Z</time>
      </trkpt>
      <trkpt lat="43.47009" lon="5.93585">
        <ele>359.19</ele>
        <time>2019-03-19T13:43:16Z</time>
      </trkpt>
      <trkpt lat="43.47002" lon="5.93564">
        <ele>357.75</ele>
        <time>2019-03-19T13:43:35Z</time>
      </trkpt>
      <trkpt lat="43.46992" lon="5.93545">
        <ele>356.31</ele>
        <time>2019-03-19T13:43:52Z</time>
      </trkpt>
      <trkpt lat="43.46987" lon="5.93527">
        <ele>355.34</ele>
        <time>2019-03-19T13:44:07Z</time>
      </trkpt>
      <trkpt lat="43.46985" lon="5.93518">
        <ele>355.34</ele>
        <time>2019-03-19T13:44:14Z</time>
      </trkpt>
      <trkpt lat="43.46983" lon="5.93494">
        <ele>354.86</ele>
        <time>2019-03-19T13:44:29Z</time>
      </trkpt>
      <trkpt lat="43.46983" lon="5.93488">
        <ele>354.38</ele>
        <time>2019-03-19T13:44:42Z</time>
      </trkpt>
      <trkpt lat="43.4698" lon="5.93471">
        <ele>354.38</ele>
        <time>2019-03-19T13:44:54Z</time>
      </trkpt>
      <trkpt lat="43.4698" lon="5.93467">
        <ele>354.38</ele>
        <time>2019-03-19T13:44:57Z</time>
      </trkpt>
      <trkpt lat="43.46977" lon="5.93448">
        <ele>354.38</ele>
        <time>2019-03-19T13:45:12Z</time>
      </trkpt>
      <trkpt lat="43.46974" lon="5.9343">
        <ele>353.9</ele>
        <time>2019-03-19T13:45:29Z</time>
      </trkpt>
      <trkpt lat="43.46969" lon="5.93411">
        <ele>352.46</ele>
        <time>2019-03-19T13:45:44Z</time>
      </trkpt>
      <trkpt lat="43.46959" lon="5.93396">
        <ele>351.5</ele>
        <time>2019-03-19T13:46:01Z</time>
      </trkpt>
      <trkpt lat="43.46945" lon="5.93389">
        <ele>351.5</ele>
        <time>2019-03-19T13:46:16Z</time>
      </trkpt>
      <trkpt lat="43.46928" lon="5.93383">
        <ele>351.5</ele>
        <time>2019-03-19T13:46:34Z</time>
      </trkpt>
      <trkpt lat="43.46914" lon="5.93376">
        <ele>351.5</ele>
        <time>2019-03-19T13:46:50Z</time>
      </trkpt>
      <trkpt lat="43.46908" lon="5.93374">
        <ele>352.46</ele>
        <time>2019-03-19T13:46:57Z</time>
      </trkpt>
      <trkpt lat="43.46897" lon="5.93367">
        <ele>353.42</ele>
        <time>2019-03-19T13:47:11Z</time>
      </trkpt>
      <trkpt lat="43.46888" lon="5.93352">
        <ele>353.9</ele>
        <time>2019-03-19T13:47:26Z</time>
      </trkpt>
      <trkpt lat="43.46881" lon="5.93338">
        <ele>354.86</ele>
        <time>2019-03-19T13:47:40Z</time>
      </trkpt>
      <trkpt lat="43.46875" lon="5.93321">
        <ele>354.86</ele>
        <time>2019-03-19T13:47:57Z</time>
      </trkpt>
      <trkpt lat="43.46868" lon="5.93302">
        <ele>355.34</ele>
        <time>2019-03-19T13:48:12Z</time>
      </trkpt>
      <trkpt lat="43.46864" lon="5.93293">
        <ele>353.9</ele>
        <time>2019-03-19T13:48:19Z</time>
      </trkpt>
      <trkpt lat="43.46858" lon="5.93269">
        <ele>353.42</ele>
        <time>2019-03-19T13:48:37Z</time>
      </trkpt>
      <trkpt lat="43.46856" lon="5.9325">
        <ele>353.42</ele>
        <time>2019-03-19T13:48:49Z</time>
      </trkpt>
      <trkpt lat="43.4686" lon="5.93227">
        <ele>352.94</ele>
        <time>2019-03-19T13:49:06Z</time>
      </trkpt>
      <trkpt lat="43.46863" lon="5.93203">
        <ele>351.98</ele>
        <time>2019-03-19T13:49:23Z</time>
      </trkpt>
      <trkpt lat="43.46864" lon="5.93181">
        <ele>351.02</ele>
        <time>2019-03-19T13:49:38Z</time>
      </trkpt>
      <trkpt lat="43.46863" lon="5.93161">
        <ele>350.06</ele>
        <time>2019-03-19T13:49:54Z</time>
      </trkpt>
      <trkpt lat="43.4686" lon="5.93142">
        <ele>349.58</ele>
        <time>2019-03-19T13:50:10Z</time>
      </trkpt>
      <trkpt lat="43.46858" lon="5.93124">
        <ele>348.62</ele>
        <time>2019-03-19T13:50:25Z</time>
      </trkpt>
      <trkpt lat="43.46855" lon="5.93101">
        <ele>348.13</ele>
        <time>2019-03-19T13:50:42Z</time>
      </trkpt>
      <trkpt lat="43.46851" lon="5.9308">
        <ele>346.69</ele>
        <time>2019-03-19T13:50:58Z</time>
      </trkpt>
      <trkpt lat="43.4685" lon="5.93079">
        <ele>346.69</ele>
        <time>2019-03-19T13:50:59Z</time>
      </trkpt>
      <trkpt lat="43.46847" lon="5.93057">
        <ele>346.21</ele>
        <time>2019-03-19T13:51:17Z</time>
      </trkpt>
      <trkpt lat="43.46841" lon="5.9304">
        <ele>344.77</ele>
        <time>2019-03-19T13:51:34Z</time>
      </trkpt>
      <trkpt lat="43.46835" lon="5.93024">
        <ele>344.29</ele>
        <time>2019-03-19T13:51:48Z</time>
      </trkpt>
      <trkpt lat="43.46831" lon="5.93007">
        <ele>342.85</ele>
        <time>2019-03-19T13:52:02Z</time>
      </trkpt>
      <trkpt lat="43.46829" lon="5.92989">
        <ele>341.89</ele>
        <time>2019-03-19T13:52:17Z</time>
      </trkpt>
      <trkpt lat="43.46826" lon="5.9297">
        <ele>341.41</ele>
        <time>2019-03-19T13:52:31Z</time>
      </trkpt>
      <trkpt lat="43.46825" lon="5.9295">
        <ele>340.44</ele>
        <time>2019-03-19T13:52:47Z</time>
      </trkpt>
      <trkpt lat="43.46823" lon="5.9293">
        <ele>339.48</ele>
        <time>2019-03-19T13:53:02Z</time>
      </trkpt>
      <trkpt lat="43.46821" lon="5.92908">
        <ele>339.96</ele>
        <time>2019-03-19T13:53:19Z</time>
      </trkpt>
      <trkpt lat="43.46821" lon="5.92895">
        <ele>341.41</ele>
        <time>2019-03-19T13:53:31Z</time>
      </trkpt>
      <trkpt lat="43.46819" lon="5.92885">
        <ele>342.37</ele>
        <time>2019-03-19T13:53:47Z</time>
      </trkpt>
      <trkpt lat="43.4682" lon="5.92882">
        <ele>340.92</ele>
        <time>2019-03-19T13:54:07Z</time>
      </trkpt>
      <trkpt lat="43.4682" lon="5.92881">
        <ele>340.92</ele>
        <time>2019-03-19T13:54:08Z</time>
      </trkpt>
      <trkpt lat="43.46819" lon="5.92876">
        <ele>340.92</ele>
        <time>2019-03-19T13:54:48Z</time>
      </trkpt>
      <trkpt lat="43.46819" lon="5.92879">
        <ele>341.89</ele>
        <time>2019-03-19T13:55:09Z</time>
      </trkpt>
      <trkpt lat="43.46818" lon="5.92862">
        <ele>341.89</ele>
        <time>2019-03-19T13:55:25Z</time>
      </trkpt>
      <trkpt lat="43.46818" lon="5.92849">
        <ele>342.37</ele>
        <time>2019-03-19T13:55:37Z</time>
      </trkpt>
      <trkpt lat="43.46818" lon="5.92827">
        <ele>342.37</ele>
        <time>2019-03-19T13:55:55Z</time>
      </trkpt>
      <trkpt lat="43.46817" lon="5.92809">
        <ele>342.37</ele>
        <time>2019-03-19T13:56:11Z</time>
      </trkpt>
      <trkpt lat="43.46817" lon="5.92791">
        <ele>342.85</ele>
        <time>2019-03-19T13:56:25Z</time>
      </trkpt>
      <trkpt lat="43.46817" lon="5.92774">
        <ele>342.85</ele>
        <time>2019-03-19T13:56:39Z</time>
      </trkpt>
      <trkpt lat="43.46817" lon="5.92755">
        <ele>342.85</ele>
        <time>2019-03-19T13:56:54Z</time>
      </trkpt>
      <trkpt lat="43.46818" lon="5.92734">
        <ele>343.81</ele>
        <time>2019-03-19T13:57:10Z</time>
      </trkpt>
      <trkpt lat="43.46817" lon="5.92719">
        <ele>344.29</ele>
        <time>2019-03-19T13:57:22Z</time>
      </trkpt>
      <trkpt lat="43.46815" lon="5.92704">
        <ele>344.77</ele>
        <time>2019-03-19T13:57:36Z</time>
      </trkpt>
      <trkpt lat="43.46803" lon="5.92702">
        <ele>345.73</ele>
        <time>2019-03-19T13:57:51Z</time>
      </trkpt>
      <trkpt lat="43.46791" lon="5.92701">
        <ele>346.69</ele>
        <time>2019-03-19T13:58:06Z</time>
      </trkpt>
      <trkpt lat="43.46783" lon="5.92702">
        <ele>346.69</ele>
        <time>2019-03-19T13:58:15Z</time>
      </trkpt>
      <trkpt lat="43.46767" lon="5.92703">
        <ele>346.69</ele>
        <time>2019-03-19T13:58:30Z</time>
      </trkpt>
      <trkpt lat="43.46765" lon="5.92704">
        <ele>346.69</ele>
        <time>2019-03-19T13:58:58Z</time>
      </trkpt>
      <trkpt lat="43.46766" lon="5.92702">
        <ele>346.69</ele>
        <time>2019-03-19T13:59:15Z</time>
      </trkpt>
      <trkpt lat="43.46777" lon="5.92698">
        <ele>346.69</ele>
        <time>2019-03-19T13:59:29Z</time>
      </trkpt>
      <trkpt lat="43.46793" lon="5.92696">
        <ele>346.69</ele>
        <time>2019-03-19T13:59:45Z</time>
      </trkpt>
      <trkpt lat="43.46803" lon="5.92697">
        <ele>345.73</ele>
        <time>2019-03-19T13:59:55Z</time>
      </trkpt>
      <trkpt lat="43.46815" lon="5.92702">
        <ele>344.29</ele>
        <time>2019-03-19T14:00:10Z</time>
      </trkpt>
      <trkpt lat="43.46817" lon="5.92709">
        <ele>344.29</ele>
        <time>2019-03-19T14:00:26Z</time>
      </trkpt>
      <trkpt lat="43.46817" lon="5.92717">
        <ele>344.29</ele>
        <time>2019-03-19T14:00:45Z</time>
      </trkpt>
      <trkpt lat="43.46818" lon="5.92725">
        <ele>344.29</ele>
        <time>2019-03-19T14:00:53Z</time>
      </trkpt>
      <trkpt lat="43.46818" lon="5.92745">
        <ele>343.33</ele>
        <time>2019-03-19T14:01:08Z</time>
      </trkpt>
      <trkpt lat="43.46818" lon="5.92765">
        <ele>342.85</ele>
        <time>2019-03-19T14:01:23Z</time>
      </trkpt>
      <trkpt lat="43.46819" lon="5.92791">
        <ele>343.33</ele>
        <time>2019-03-19T14:01:40Z</time>
      </trkpt>
      <trkpt lat="43.46819" lon="5.92814">
        <ele>342.37</ele>
        <time>2019-03-19T14:01:55Z</time>
      </trkpt>
      <trkpt lat="43.46819" lon="5.92835">
        <ele>341.89</ele>
        <time>2019-03-19T14:02:10Z</time>
      </trkpt>
      <trkpt lat="43.4682" lon="5.9286">
        <ele>341.41</ele>
        <time>2019-03-19T14:02:28Z</time>
      </trkpt>
      <trkpt lat="43.4682" lon="5.92865">
        <ele>341.41</ele>
        <time>2019-03-19T14:02:32Z</time>
      </trkpt>
      <trkpt lat="43.4682" lon="5.92887">
        <ele>339.96</ele>
        <time>2019-03-19T14:02:48Z</time>
      </trkpt>
      <trkpt lat="43.46821" lon="5.92896">
        <ele>339.48</ele>
        <time>2019-03-19T14:02:55Z</time>
      </trkpt>
      <trkpt lat="43.46823" lon="5.92923">
        <ele>339.48</ele>
        <time>2019-03-19T14:03:14Z</time>
      </trkpt>
      <trkpt lat="43.46827" lon="5.92927">
        <ele>338.04</ele>
        <time>2019-03-19T14:03:28Z</time>
      </trkpt>
      <trkpt lat="43.46835" lon="5.92929">
        <ele>336.6</ele>
        <time>2019-03-19T14:03:45Z</time>
      </trkpt>
      <trkpt lat="43.46842" lon="5.92932">
        <ele>336.12</ele>
        <time>2019-03-19T14:04:00Z</time>
      </trkpt>
      <trkpt lat="43.46856" lon="5.92933">
        <ele>334.2</ele>
        <time>2019-03-19T14:04:18Z</time>
      </trkpt>
      <trkpt lat="43.46866" lon="5.92936">
        <ele>332.75</ele>
        <time>2019-03-19T14:04:33Z</time>
      </trkpt>
      <trkpt lat="43.46872" lon="5.92935">
        <ele>331.31</ele>
        <time>2019-03-19T14:04:47Z</time>
      </trkpt>
      <trkpt lat="43.46881" lon="5.92938">
        <ele>330.35</ele>
        <time>2019-03-19T14:05:01Z</time>
      </trkpt>
      <trkpt lat="43.46892" lon="5.9294">
        <ele>328.43</ele>
        <time>2019-03-19T14:05:15Z</time>
      </trkpt>
      <trkpt lat="43.46903" lon="5.92932">
        <ele>327.95</ele>
        <time>2019-03-19T14:05:28Z</time>
      </trkpt>
      <trkpt lat="43.46905" lon="5.9293">
        <ele>327.95</ele>
        <time>2019-03-19T14:05:30Z</time>
      </trkpt>
      <trkpt lat="43.46915" lon="5.92919">
        <ele>327.95</ele>
        <time>2019-03-19T14:05:46Z</time>
      </trkpt>
      <trkpt lat="43.46922" lon="5.92909">
        <ele>327.47</ele>
        <time>2019-03-19T14:05:59Z</time>
      </trkpt>
      <trkpt lat="43.46927" lon="5.92899">
        <ele>326.02</ele>
        <time>2019-03-19T14:06:11Z</time>
      </trkpt>
      <trkpt lat="43.46933" lon="5.92885">
        <ele>326.02</ele>
        <time>2019-03-19T14:06:25Z</time>
      </trkpt>
      <trkpt lat="43.46938" lon="5.92871">
        <ele>326.02</ele>
        <time>2019-03-19T14:06:39Z</time>
      </trkpt>
      <trkpt lat="43.46947" lon="5.92858">
        <ele>325.06</ele>
        <time>2019-03-19T14:06:53Z</time>
      </trkpt>
      <trkpt lat="43.46954" lon="5.9284">
        <ele>325.06</ele>
        <time>2019-03-19T14:07:08Z</time>
      </trkpt>
      <trkpt lat="43.46961" lon="5.92828">
        <ele>325.06</ele>
        <time>2019-03-19T14:07:21Z</time>
      </trkpt>
      <trkpt lat="43.46971" lon="5.92819">
        <ele>324.58</ele>
        <time>2019-03-19T14:07:35Z</time>
      </trkpt>
      <trkpt lat="43.46977" lon="5.92818">
        <ele>323.62</ele>
        <time>2019-03-19T14:07:41Z</time>
      </trkpt>
      <trkpt lat="43.46991" lon="5.92817">
        <ele>323.14</ele>
        <time>2019-03-19T14:07:56Z</time>
      </trkpt>
      <trkpt lat="43.46994" lon="5.92817">
        <ele>322.66</ele>
        <time>2019-03-19T14:07:59Z</time>
      </trkpt>
      <trkpt lat="43.46996" lon="5.92819">
        <ele>322.66</ele>
        <time>2019-03-19T14:08:01Z</time>
      </trkpt>
      <trkpt lat="43.47008" lon="5.92828">
        <ele>322.18</ele>
        <time>2019-03-19T14:08:16Z</time>
      </trkpt>
      <trkpt lat="43.47012" lon="5.92833">
        <ele>321.7</ele>
        <time>2019-03-19T14:08:22Z</time>
      </trkpt>
      <trkpt lat="43.47014" lon="5.92835">
        <ele>321.22</ele>
        <time>2019-03-19T14:08:38Z</time>
      </trkpt>
      <trkpt lat="43.47016" lon="5.92841">
        <ele>321.22</ele>
        <time>2019-03-19T14:09:01Z</time>
      </trkpt>
      <trkpt lat="43.47024" lon="5.92857">
        <ele>321.22</ele>
        <time>2019-03-19T14:09:17Z</time>
      </trkpt>
      <trkpt lat="43.47032" lon="5.92872">
        <ele>321.22</ele>
        <time>2019-03-19T14:09:31Z</time>
      </trkpt>
      <trkpt lat="43.47038" lon="5.92884">
        <ele>320.74</ele>
        <time>2019-03-19T14:09:43Z</time>
      </trkpt>
      <trkpt lat="43.47044" lon="5.92896">
        <ele>320.74</ele>
        <time>2019-03-19T14:09:55Z</time>
      </trkpt>
      <trkpt lat="43.4705" lon="5.92908">
        <ele>320.26</ele>
        <time>2019-03-19T14:10:09Z</time>
      </trkpt>
      <trkpt lat="43.4705" lon="5.9291">
        <ele>319.78</ele>
        <time>2019-03-19T14:10:44Z</time>
      </trkpt>
      <trkpt lat="43.47051" lon="5.92912">
        <ele>319.78</ele>
        <time>2019-03-19T14:11:00Z</time>
      </trkpt>
      <trkpt lat="43.47051" lon="5.92912">
        <ele>319.78</ele>
        <time>2019-03-19T14:11:26Z</time>
      </trkpt>
      <trkpt lat="43.4705" lon="5.92912">
        <ele>319.78</ele>
        <time>2019-03-19T14:12:02Z</time>
      </trkpt>
      <trkpt lat="43.47054" lon="5.92916">
        <ele>318.81</ele>
        <time>2019-03-19T14:12:23Z</time>
      </trkpt>
      <trkpt lat="43.4706" lon="5.92927">
        <ele>318.33</ele>
        <time>2019-03-19T14:12:36Z</time>
      </trkpt>
      <trkpt lat="43.47066" lon="5.92938">
        <ele>318.33</ele>
        <time>2019-03-19T14:12:49Z</time>
      </trkpt>
      <trkpt lat="43.47073" lon="5.92951">
        <ele>318.33</ele>
        <time>2019-03-19T14:13:03Z</time>
      </trkpt>
      <trkpt lat="43.4708" lon="5.92964">
        <ele>319.3</ele>
        <time>2019-03-19T14:13:16Z</time>
      </trkpt>
      <trkpt lat="43.47086" lon="5.92976">
        <ele>319.3</ele>
        <time>2019-03-19T14:13:29Z</time>
      </trkpt>
      <trkpt lat="43.47088" lon="5.92978">
        <ele>319.3</ele>
        <time>2019-03-19T14:13:33Z</time>
      </trkpt>
      <trkpt lat="43.47094" lon="5.92991">
        <ele>319.3</ele>
        <time>2019-03-19T14:13:47Z</time>
      </trkpt>
      <trkpt lat="43.47103" lon="5.92997">
        <ele>319.3</ele>
        <time>2019-03-19T14:14:00Z</time>
      </trkpt>
      <trkpt lat="43.47111" lon="5.93005">
        <ele>320.26</ele>
        <time>2019-03-19T14:14:15Z</time>
      </trkpt>
      <trkpt lat="43.47113" lon="5.93016">
        <ele>320.74</ele>
        <time>2019-03-19T14:14:27Z</time>
      </trkpt>
      <trkpt lat="43.47112" lon="5.93035">
        <ele>320.74</ele>
        <time>2019-03-19T14:14:42Z</time>
      </trkpt>
      <trkpt lat="43.47112" lon="5.93048">
        <ele>321.22</ele>
        <time>2019-03-19T14:14:55Z</time>
      </trkpt>
      <trkpt lat="43.47111" lon="5.93064">
        <ele>320.74</ele>
        <time>2019-03-19T14:15:10Z</time>
      </trkpt>
      <trkpt lat="43.47111" lon="5.93081">
        <ele>321.22</ele>
        <time>2019-03-19T14:15:24Z</time>
      </trkpt>
      <trkpt lat="43.47114" lon="5.93095">
        <ele>321.22</ele>
        <time>2019-03-19T14:15:36Z</time>
      </trkpt>
      <trkpt lat="43.47122" lon="5.93105">
        <ele>321.22</ele>
        <time>2019-03-19T14:15:51Z</time>
      </trkpt>
      <trkpt lat="43.47131" lon="5.9311">
        <ele>321.22</ele>
        <time>2019-03-19T14:16:04Z</time>
      </trkpt>
      <trkpt lat="43.47142" lon="5.93118">
        <ele>319.78</ele>
        <time>2019-03-19T14:16:18Z</time>
      </trkpt>
      <trkpt lat="43.4715" lon="5.93124">
        <ele>319.78</ele>
        <time>2019-03-19T14:16:27Z</time>
      </trkpt>
      <trkpt lat="43.4716" lon="5.93131">
        <ele>319.78</ele>
        <time>2019-03-19T14:16:40Z</time>
      </trkpt>
      <trkpt lat="43.47169" lon="5.93137">
        <ele>319.78</ele>
        <time>2019-03-19T14:16:52Z</time>
      </trkpt>
      <trkpt lat="43.47183" lon="5.93146">
        <ele>319.78</ele>
        <time>2019-03-19T14:17:09Z</time>
      </trkpt>
      <trkpt lat="43.47192" lon="5.93154">
        <ele>319.78</ele>
        <time>2019-03-19T14:17:22Z</time>
      </trkpt>
      <trkpt lat="43.47203" lon="5.93162">
        <ele>319.78</ele>
        <time>2019-03-19T14:17:35Z</time>
      </trkpt>
      <trkpt lat="43.47213" lon="5.93173">
        <ele>320.26</ele>
        <time>2019-03-19T14:17:48Z</time>
      </trkpt>
      <trkpt lat="43.47214" lon="5.93174">
        <ele>320.26</ele>
        <time>2019-03-19T14:17:49Z</time>
      </trkpt>
      <trkpt lat="43.47226" lon="5.93189">
        <ele>320.26</ele>
        <time>2019-03-19T14:18:04Z</time>
      </trkpt>
      <trkpt lat="43.47237" lon="5.93197">
        <ele>319.78</ele>
        <time>2019-03-19T14:18:19Z</time>
      </trkpt>
      <trkpt lat="43.47252" lon="5.93202">
        <ele>319.78</ele>
        <time>2019-03-19T14:18:36Z</time>
      </trkpt>
      <trkpt lat="43.47263" lon="5.93207">
        <ele>319.78</ele>
        <time>2019-03-19T14:18:50Z</time>
      </trkpt>
      <trkpt lat="43.47274" lon="5.93211">
        <ele>319.78</ele>
        <time>2019-03-19T14:19:04Z</time>
      </trkpt>
      <trkpt lat="43.47285" lon="5.93215">
        <ele>319.78</ele>
        <time>2019-03-19T14:19:17Z</time>
      </trkpt>
      <trkpt lat="43.47301" lon="5.93218">
        <ele>319.78</ele>
        <time>2019-03-19T14:19:34Z</time>
      </trkpt>
      <trkpt lat="43.4731" lon="5.9322">
        <ele>319.78</ele>
        <time>2019-03-19T14:19:47Z</time>
      </trkpt>
      <trkpt lat="43.47311" lon="5.93221">
        <ele>319.78</ele>
        <time>2019-03-19T14:20:13Z</time>
      </trkpt>
      <trkpt lat="43.47314" lon="5.9322">
        <ele>319.78</ele>
        <time>2019-03-19T14:20:29Z</time>
      </trkpt>
      <trkpt lat="43.47316" lon="5.9322">
        <ele>319.78</ele>
        <time>2019-03-19T14:20:31Z</time>
      </trkpt>
      <trkpt lat="43.47329" lon="5.93218">
        <ele>319.78</ele>
        <time>2019-03-19T14:20:46Z</time>
      </trkpt>
      <trkpt lat="43.47342" lon="5.93218">
        <ele>319.3</ele>
        <time>2019-03-19T14:21:01Z</time>
      </trkpt>
      <trkpt lat="43.47355" lon="5.9322">
        <ele>319.3</ele>
        <time>2019-03-19T14:21:16Z</time>
      </trkpt>
      <trkpt lat="43.47366" lon="5.9322">
        <ele>318.33</ele>
        <time>2019-03-19T14:21:30Z</time>
      </trkpt>
      <trkpt lat="43.47379" lon="5.93223">
        <ele>318.33</ele>
        <time>2019-03-19T14:21:45Z</time>
      </trkpt>
      <trkpt lat="43.47389" lon="5.93226">
        <ele>317.85</ele>
        <time>2019-03-19T14:21:59Z</time>
      </trkpt>
      <trkpt lat="43.474" lon="5.93224">
        <ele>317.37</ele>
        <time>2019-03-19T14:22:14Z</time>
      </trkpt>
      <trkpt lat="43.47411" lon="5.93215">
        <ele>316.89</ele>
        <time>2019-03-19T14:22:29Z</time>
      </trkpt>
      <trkpt lat="43.4742" lon="5.93203">
        <ele>316.89</ele>
        <time>2019-03-19T14:22:43Z</time>
      </trkpt>
      <trkpt lat="43.47428" lon="5.93188">
        <ele>316.89</ele>
        <time>2019-03-19T14:22:57Z</time>
      </trkpt>
      <trkpt lat="43.47436" lon="5.93169">
        <ele>316.89</ele>
        <time>2019-03-19T14:23:14Z</time>
      </trkpt>
      <trkpt lat="43.47444" lon="5.93153">
        <ele>318.81</ele>
        <time>2019-03-19T14:23:30Z</time>
      </trkpt>
      <trkpt lat="43.4745" lon="5.93146">
        <ele>320.26</ele>
        <time>2019-03-19T14:23:46Z</time>
      </trkpt>
      <trkpt lat="43.47453" lon="5.93146">
        <ele>320.26</ele>
        <time>2019-03-19T14:24:11Z</time>
      </trkpt>
      <trkpt lat="43.47455" lon="5.93147">
        <ele>320.26</ele>
        <time>2019-03-19T14:24:27Z</time>
      </trkpt>
      <trkpt lat="43.47454" lon="5.93146">
        <ele>320.26</ele>
        <time>2019-03-19T14:24:45Z</time>
      </trkpt>
      <trkpt lat="43.47455" lon="5.9315">
        <ele>320.26</ele>
        <time>2019-03-19T14:25:15Z</time>
      </trkpt>
      <trkpt lat="43.47454" lon="5.93149">
        <ele>319.78</ele>
        <time>2019-03-19T14:25:45Z</time>
      </trkpt>
      <trkpt lat="43.47453" lon="5.93147">
        <ele>319.78</ele>
        <time>2019-03-19T14:26:17Z</time>
      </trkpt>
      <trkpt lat="43.47454" lon="5.93146">
        <ele>319.78</ele>
        <time>2019-03-19T14:26:40Z</time>
      </trkpt>
      <trkpt lat="43.47458" lon="5.93151">
        <ele>319.78</ele>
        <time>2019-03-19T14:26:54Z</time>
      </trkpt>
      <trkpt lat="43.47461" lon="5.93156">
        <ele>319.78</ele>
        <time>2019-03-19T14:27:07Z</time>
      </trkpt>
      <trkpt lat="43.47468" lon="5.93169">
        <ele>319.78</ele>
        <time>2019-03-19T14:27:22Z</time>
      </trkpt>
      <trkpt lat="43.47471" lon="5.93177">
        <ele>319.78</ele>
        <time>2019-03-19T14:27:30Z</time>
      </trkpt>
      <trkpt lat="43.47478" lon="5.9319">
        <ele>319.78</ele>
        <time>2019-03-19T14:27:45Z</time>
      </trkpt>
      <trkpt lat="43.47482" lon="5.93202">
        <ele>318.81</ele>
        <time>2019-03-19T14:27:58Z</time>
      </trkpt>
      <trkpt lat="43.47494" lon="5.9322">
        <ele>317.85</ele>
        <time>2019-03-19T14:28:15Z</time>
      </trkpt>
      <trkpt lat="43.47503" lon="5.93235">
        <ele>316.89</ele>
        <time>2019-03-19T14:28:28Z</time>
      </trkpt>
      <trkpt lat="43.47514" lon="5.93248">
        <ele>315.93</ele>
        <time>2019-03-19T14:28:44Z</time>
      </trkpt>
      <trkpt lat="43.47519" lon="5.93253">
        <ele>316.41</ele>
        <time>2019-03-19T14:29:08Z</time>
      </trkpt>
      <trkpt lat="43.47521" lon="5.93255">
        <ele>316.41</ele>
        <time>2019-03-19T14:29:26Z</time>
      </trkpt>
      <trkpt lat="43.47531" lon="5.93261">
        <ele>315.93</ele>
        <time>2019-03-19T14:29:40Z</time>
      </trkpt>
      <trkpt lat="43.47533" lon="5.93262">
        <ele>315.93</ele>
        <time>2019-03-19T14:29:43Z</time>
      </trkpt>
      <trkpt lat="43.47538" lon="5.93266">
        <ele>315.93</ele>
        <time>2019-03-19T14:29:49Z</time>
      </trkpt>
      <trkpt lat="43.47549" lon="5.93275">
        <ele>315.45</ele>
        <time>2019-03-19T14:30:02Z</time>
      </trkpt>
      <trkpt lat="43.47563" lon="5.93287">
        <ele>315.45</ele>
        <time>2019-03-19T14:30:19Z</time>
      </trkpt>
      <trkpt lat="43.47576" lon="5.93297">
        <ele>316.89</ele>
        <time>2019-03-19T14:30:35Z</time>
      </trkpt>
      <trkpt lat="43.47586" lon="5.93311">
        <ele>316.89</ele>
        <time>2019-03-19T14:30:50Z</time>
      </trkpt>
      <trkpt lat="43.47597" lon="5.9333">
        <ele>317.85</ele>
        <time>2019-03-19T14:31:08Z</time>
      </trkpt>
      <trkpt lat="43.47602" lon="5.93338">
        <ele>318.33</ele>
        <time>2019-03-19T14:31:16Z</time>
      </trkpt>
      <trkpt lat="43.47609" lon="5.93356">
        <ele>318.81</ele>
        <time>2019-03-19T14:31:31Z</time>
      </trkpt>
      <trkpt lat="43.47615" lon="5.93376">
        <ele>318.81</ele>
        <time>2019-03-19T14:31:47Z</time>
      </trkpt>
      <trkpt lat="43.4762" lon="5.93395">
        <ele>318.81</ele>
        <time>2019-03-19T14:32:02Z</time>
      </trkpt>
      <trkpt lat="43.47622" lon="5.93413">
        <ele>318.81</ele>
        <time>2019-03-19T14:32:15Z</time>
      </trkpt>
      <trkpt lat="43.47621" lon="5.93437">
        <ele>318.81</ele>
        <time>2019-03-19T14:32:31Z</time>
      </trkpt>
      <trkpt lat="43.4762" lon="5.93456">
        <ele>318.81</ele>
        <time>2019-03-19T14:32:45Z</time>
      </trkpt>
      <trkpt lat="43.47617" lon="5.93477">
        <ele>317.37</ele>
        <time>2019-03-19T14:33:01Z</time>
      </trkpt>
      <trkpt lat="43.47616" lon="5.93495">
        <ele>316.89</ele>
        <time>2019-03-19T14:33:15Z</time>
      </trkpt>
      <trkpt lat="43.47616" lon="5.93516">
        <ele>316.89</ele>
        <time>2019-03-19T14:33:29Z</time>
      </trkpt>
      <trkpt lat="43.47616" lon="5.93537">
        <ele>318.81</ele>
        <time>2019-03-19T14:33:45Z</time>
      </trkpt>
      <trkpt lat="43.47617" lon="5.93552">
        <ele>320.26</ele>
        <time>2019-03-19T14:33:58Z</time>
      </trkpt>
      <trkpt lat="43.4762" lon="5.93567">
        <ele>320.74</ele>
        <time>2019-03-19T14:34:11Z</time>
      </trkpt>
      <trkpt lat="43.47624" lon="5.93586">
        <ele>321.22</ele>
        <time>2019-03-19T14:34:29Z</time>
      </trkpt>
      <trkpt lat="43.47627" lon="5.93598">
        <ele>319.78</ele>
        <time>2019-03-19T14:34:40Z</time>
      </trkpt>
      <trkpt lat="43.47628" lon="5.93611">
        <ele>319.78</ele>
        <time>2019-03-19T14:34:53Z</time>
      </trkpt>
      <trkpt lat="43.47628" lon="5.93613">
        <ele>319.78</ele>
        <time>2019-03-19T14:34:56Z</time>
      </trkpt>
      <trkpt lat="43.47629" lon="5.93631">
        <ele>318.81</ele>
        <time>2019-03-19T14:35:11Z</time>
      </trkpt>
      <trkpt lat="43.47629" lon="5.93637">
        <ele>318.33</ele>
        <time>2019-03-19T14:35:15Z</time>
      </trkpt>
      <trkpt lat="43.47628" lon="5.93645">
        <ele>318.33</ele>
        <time>2019-03-19T14:35:19Z</time>
      </trkpt>
      <trkpt lat="43.47628" lon="5.93648">
        <ele>318.33</ele>
        <time>2019-03-19T14:35:21Z</time>
      </trkpt>
      <trkpt lat="43.47621" lon="5.93666">
        <ele>316.41</ele>
        <time>2019-03-19T14:35:37Z</time>
      </trkpt>
      <trkpt lat="43.47615" lon="5.9368">
        <ele>316.41</ele>
        <time>2019-03-19T14:35:52Z</time>
      </trkpt>
      <trkpt lat="43.47613" lon="5.93682">
        <ele>315.93</ele>
        <time>2019-03-19T14:36:12Z</time>
      </trkpt>
      <trkpt lat="43.47612" lon="5.93702">
        <ele>316.89</ele>
        <time>2019-03-19T14:36:28Z</time>
      </trkpt>
      <trkpt lat="43.47609" lon="5.93719">
        <ele>318.33</ele>
        <time>2019-03-19T14:36:42Z</time>
      </trkpt>
      <trkpt lat="43.47604" lon="5.93735">
        <ele>319.3</ele>
        <time>2019-03-19T14:36:58Z</time>
      </trkpt>
      <trkpt lat="43.47598" lon="5.93752">
        <ele>321.22</ele>
        <time>2019-03-19T14:37:14Z</time>
      </trkpt>
      <trkpt lat="43.47593" lon="5.93768">
        <ele>321.7</ele>
        <time>2019-03-19T14:37:29Z</time>
      </trkpt>
      <trkpt lat="43.47589" lon="5.93783">
        <ele>322.66</ele>
        <time>2019-03-19T14:37:43Z</time>
      </trkpt>
      <trkpt lat="43.47585" lon="5.93795">
        <ele>323.14</ele>
        <time>2019-03-19T14:37:56Z</time>
      </trkpt>
      <trkpt lat="43.47583" lon="5.93801">
        <ele>323.62</ele>
        <time>2019-03-19T14:38:01Z</time>
      </trkpt>
      <trkpt lat="43.47583" lon="5.93805">
        <ele>324.1</ele>
        <time>2019-03-19T14:38:04Z</time>
      </trkpt>
      <trkpt lat="43.47583" lon="5.93823">
        <ele>325.54</ele>
        <time>2019-03-19T14:38:21Z</time>
      </trkpt>
      <trkpt lat="43.47584" lon="5.93833">
        <ele>326.02</ele>
        <time>2019-03-19T14:38:42Z</time>
      </trkpt>
      <trkpt lat="43.47585" lon="5.93841">
        <ele>326.5</ele>
        <time>2019-03-19T14:38:49Z</time>
      </trkpt>
      <trkpt lat="43.47591" lon="5.93861">
        <ele>327.47</ele>
        <time>2019-03-19T14:39:05Z</time>
      </trkpt>
      <trkpt lat="43.47592" lon="5.93873">
        <ele>327.95</ele>
        <time>2019-03-19T14:39:14Z</time>
      </trkpt>
      <trkpt lat="43.47592" lon="5.93878">
        <ele>327.95</ele>
        <time>2019-03-19T14:39:18Z</time>
      </trkpt>
      <trkpt lat="43.47591" lon="5.93891">
        <ele>328.43</ele>
        <time>2019-03-19T14:39:32Z</time>
      </trkpt>
      <trkpt lat="43.4759" lon="5.93892">
        <ele>328.43</ele>
        <time>2019-03-19T14:39:50Z</time>
      </trkpt>
      <trkpt lat="43.47592" lon="5.9389">
        <ele>328.43</ele>
        <time>2019-03-19T14:40:23Z</time>
      </trkpt>
      <trkpt lat="43.47593" lon="5.9389">
        <ele>328.43</ele>
        <time>2019-03-19T14:40:50Z</time>
      </trkpt>
      <trkpt lat="43.47591" lon="5.93891">
        <ele>327.95</ele>
        <time>2019-03-19T14:41:05Z</time>
      </trkpt>
      <trkpt lat="43.47588" lon="5.93888">
        <ele>327.95</ele>
        <time>2019-03-19T14:41:35Z</time>
      </trkpt>
      <trkpt lat="43.47589" lon="5.93889">
        <ele>327.95</ele>
        <time>2019-03-19T14:42:04Z</time>
      </trkpt>
      <trkpt lat="43.47591" lon="5.93893">
        <ele>327.95</ele>
        <time>2019-03-19T14:42:19Z</time>
      </trkpt>
      <trkpt lat="43.4759" lon="5.93908">
        <ele>327.95</ele>
        <time>2019-03-19T14:42:34Z</time>
      </trkpt>
      <trkpt lat="43.4759" lon="5.93927">
        <ele>328.43</ele>
        <time>2019-03-19T14:42:49Z</time>
      </trkpt>
      <trkpt lat="43.4759" lon="5.93943">
        <ele>328.43</ele>
        <time>2019-03-19T14:43:01Z</time>
      </trkpt>
      <trkpt lat="43.47591" lon="5.93966">
        <ele>328.43</ele>
        <time>2019-03-19T14:43:18Z</time>
      </trkpt>
      <trkpt lat="43.47592" lon="5.93991">
        <ele>326.99</ele>
        <time>2019-03-19T14:43:35Z</time>
      </trkpt>
      <trkpt lat="43.47592" lon="5.93993">
        <ele>326.99</ele>
        <time>2019-03-19T14:43:36Z</time>
      </trkpt>
      <trkpt lat="43.47591" lon="5.94017">
        <ele>326.99</ele>
        <time>2019-03-19T14:43:53Z</time>
      </trkpt>
      <trkpt lat="43.4759" lon="5.94032">
        <ele>326.99</ele>
        <time>2019-03-19T14:44:09Z</time>
      </trkpt>
      <trkpt lat="43.47586" lon="5.94049">
        <ele>326.99</ele>
        <time>2019-03-19T14:44:25Z</time>
      </trkpt>
      <trkpt lat="43.47584" lon="5.94058">
        <ele>326.99</ele>
        <time>2019-03-19T14:44:38Z</time>
      </trkpt>
      <trkpt lat="43.47581" lon="5.94072">
        <ele>326.99</ele>
        <time>2019-03-19T14:44:51Z</time>
      </trkpt>
      <trkpt lat="43.47581" lon="5.94073">
        <ele>326.99</ele>
        <time>2019-03-19T14:44:52Z</time>
      </trkpt>
      <trkpt lat="43.47579" lon="5.94071">
        <ele>326.99</ele>
        <time>2019-03-19T14:44:55Z</time>
      </trkpt>
      <trkpt lat="43.47576" lon="5.94066">
        <ele>326.99</ele>
        <time>2019-03-19T14:45:03Z</time>
      </trkpt>
      <trkpt lat="43.47569" lon="5.9406">
        <ele>326.5</ele>
        <time>2019-03-19T14:45:17Z</time>
      </trkpt>
      <trkpt lat="43.47568" lon="5.94059">
        <ele>326.5</ele>
        <time>2019-03-19T14:45:46Z</time>
      </trkpt>
      <trkpt lat="43.47574" lon="5.94063">
        <ele>326.5</ele>
        <time>2019-03-19T14:45:58Z</time>
      </trkpt>
      <trkpt lat="43.47579" lon="5.94074">
        <ele>326.5</ele>
        <time>2019-03-19T14:46:11Z</time>
      </trkpt>
      <trkpt lat="43.47578" lon="5.94092">
        <ele>326.5</ele>
        <time>2019-03-19T14:46:27Z</time>
      </trkpt>
      <trkpt lat="43.47577" lon="5.94107">
        <ele>326.5</ele>
        <time>2019-03-19T14:46:41Z</time>
      </trkpt>
      <trkpt lat="43.47577" lon="5.94128">
        <ele>326.02</ele>
        <time>2019-03-19T14:46:57Z</time>
      </trkpt>
      <trkpt lat="43.47579" lon="5.94149">
        <ele>326.02</ele>
        <time>2019-03-19T14:47:12Z</time>
      </trkpt>
      <trkpt lat="43.47581" lon="5.94157">
        <ele>325.06</ele>
        <time>2019-03-19T14:47:26Z</time>
      </trkpt>
      <trkpt lat="43.47583" lon="5.94171">
        <ele>324.58</ele>
        <time>2019-03-19T14:47:42Z</time>
      </trkpt>
      <trkpt lat="43.47583" lon="5.94185">
        <ele>323.14</ele>
        <time>2019-03-19T14:47:55Z</time>
      </trkpt>
      <trkpt lat="43.47582" lon="5.94189">
        <ele>322.66</ele>
        <time>2019-03-19T14:48:15Z</time>
      </trkpt>
      <trkpt lat="43.47577" lon="5.94197">
        <ele>320.74</ele>
        <time>2019-03-19T14:48:28Z</time>
      </trkpt>
      <trkpt lat="43.47572" lon="5.94207">
        <ele>319.3</ele>
        <time>2019-03-19T14:48:42Z</time>
      </trkpt>
      <trkpt lat="43.4757" lon="5.94215">
        <ele>318.33</ele>
        <time>2019-03-19T14:48:55Z</time>
      </trkpt>
      <trkpt lat="43.47565" lon="5.94224">
        <ele>317.37</ele>
        <time>2019-03-19T14:49:09Z</time>
      </trkpt>
      <trkpt lat="43.47562" lon="5.94228">
        <ele>316.89</ele>
        <time>2019-03-19T14:49:23Z</time>
      </trkpt>
      <trkpt lat="43.47554" lon="5.94241">
        <ele>314.97</ele>
        <time>2019-03-19T14:49:39Z</time>
      </trkpt>
      <trkpt lat="43.47545" lon="5.94255">
        <ele>313.53</ele>
        <time>2019-03-19T14:49:55Z</time>
      </trkpt>
      <trkpt lat="43.47544" lon="5.94259">
        <ele>313.05</ele>
        <time>2019-03-19T14:49:58Z</time>
      </trkpt>
      <trkpt lat="43.47542" lon="5.94281">
        <ele>310.16</ele>
        <time>2019-03-19T14:50:15Z</time>
      </trkpt>
      <trkpt lat="43.47539" lon="5.94295">
        <ele>308.72</ele>
        <time>2019-03-19T14:50:29Z</time>
      </trkpt>
      <trkpt lat="43.47542" lon="5.9431">
        <ele>306.8</ele>
        <time>2019-03-19T14:50:44Z</time>
      </trkpt>
      <trkpt lat="43.47544" lon="5.9432">
        <ele>306.32</ele>
        <time>2019-03-19T14:51:00Z</time>
      </trkpt>
      <trkpt lat="43.47544" lon="5.94327">
        <ele>305.84</ele>
        <time>2019-03-19T14:51:18Z</time>
      </trkpt>
      <trkpt lat="43.47544" lon="5.9434">
        <ele>304.39</ele>
        <time>2019-03-19T14:51:32Z</time>
      </trkpt>
      <trkpt lat="43.4754" lon="5.94353">
        <ele>302.95</ele>
        <time>2019-03-19T14:51:47Z</time>
      </trkpt>
      <trkpt lat="43.47534" lon="5.94366">
        <ele>301.51</ele>
        <time>2019-03-19T14:52:01Z</time>
      </trkpt>
      <trkpt lat="43.47528" lon="5.94376">
        <ele>300.07</ele>
        <time>2019-03-19T14:52:15Z</time>
      </trkpt>
      <trkpt lat="43.47523" lon="5.94385">
        <ele>299.59</ele>
        <time>2019-03-19T14:52:32Z</time>
      </trkpt>
      <trkpt lat="43.47519" lon="5.94392">
        <ele>298.63</ele>
        <time>2019-03-19T14:52:48Z</time>
      </trkpt>
      <trkpt lat="43.47514" lon="5.94403">
        <ele>297.18</ele>
        <time>2019-03-19T14:53:03Z</time>
      </trkpt>
      <trkpt lat="43.47506" lon="5.94416">
        <ele>296.22</ele>
        <time>2019-03-19T14:53:21Z</time>
      </trkpt>
      <trkpt lat="43.47498" lon="5.94433">
        <ele>294.3</ele>
        <time>2019-03-19T14:53:38Z</time>
      </trkpt>
      <trkpt lat="43.4749" lon="5.94446">
        <ele>292.86</ele>
        <time>2019-03-19T14:53:53Z</time>
      </trkpt>
      <trkpt lat="43.47484" lon="5.94462">
        <ele>291.42</ele>
        <time>2019-03-19T14:54:08Z</time>
      </trkpt>
      <trkpt lat="43.47481" lon="5.94466">
        <ele>290.94</ele>
        <time>2019-03-19T14:54:15Z</time>
      </trkpt>
      <trkpt lat="43.47474" lon="5.94464">
        <ele>290.94</ele>
        <time>2019-03-19T14:54:25Z</time>
      </trkpt>
      <trkpt lat="43.47479" lon="5.94466">
        <ele>290.94</ele>
        <time>2019-03-19T14:54:51Z</time>
      </trkpt>
      <trkpt lat="43.47477" lon="5.94476">
        <ele>290.94</ele>
        <time>2019-03-19T14:55:03Z</time>
      </trkpt>
      <trkpt lat="43.47473" lon="5.94486">
        <ele>289.49</ele>
        <time>2019-03-19T14:55:16Z</time>
      </trkpt>
      <trkpt lat="43.47467" lon="5.94497">
        <ele>288.05</ele>
        <time>2019-03-19T14:55:29Z</time>
      </trkpt>
      <trkpt lat="43.47462" lon="5.94505">
        <ele>287.57</ele>
        <time>2019-03-19T14:55:42Z</time>
      </trkpt>
      <trkpt lat="43.47457" lon="5.94516">
        <ele>286.61</ele>
        <time>2019-03-19T14:55:56Z</time>
      </trkpt>
      <trkpt lat="43.47452" lon="5.94527">
        <ele>285.65</ele>
        <time>2019-03-19T14:56:10Z</time>
      </trkpt>
      <trkpt lat="43.47449" lon="5.9453">
        <ele>285.17</ele>
        <time>2019-03-19T14:56:14Z</time>
      </trkpt>
      <trkpt lat="43.4744" lon="5.94544">
        <ele>283.73</ele>
        <time>2019-03-19T14:56:28Z</time>
      </trkpt>
      <trkpt lat="43.4743" lon="5.94553">
        <ele>281.8</ele>
        <time>2019-03-19T14:56:44Z</time>
      </trkpt>
      <trkpt lat="43.47422" lon="5.94569">
        <ele>280.84</ele>
        <time>2019-03-19T14:57:00Z</time>
      </trkpt>
      <trkpt lat="43.47419" lon="5.94573">
        <ele>280.84</ele>
        <time>2019-03-19T14:57:13Z</time>
      </trkpt>
      <trkpt lat="43.47413" lon="5.9458">
        <ele>279.88</ele>
        <time>2019-03-19T14:57:26Z</time>
      </trkpt>
      <trkpt lat="43.47405" lon="5.9459">
        <ele>277.96</ele>
        <time>2019-03-19T14:57:43Z</time>
      </trkpt>
      <trkpt lat="43.47396" lon="5.94602">
        <ele>277</ele>
        <time>2019-03-19T14:57:58Z</time>
      </trkpt>
      <trkpt lat="43.47386" lon="5.9462">
        <ele>275.07</ele>
        <time>2019-03-19T14:58:14Z</time>
      </trkpt>
      <trkpt lat="43.47378" lon="5.94631">
        <ele>273.15</ele>
        <time>2019-03-19T14:58:31Z</time>
      </trkpt>
      <trkpt lat="43.47368" lon="5.94645">
        <ele>270.75</ele>
        <time>2019-03-19T14:58:46Z</time>
      </trkpt>
      <trkpt lat="43.47358" lon="5.94655">
        <ele>269.31</ele>
        <time>2019-03-19T14:59:00Z</time>
      </trkpt>
      <trkpt lat="43.4735" lon="5.94669">
        <ele>267.86</ele>
        <time>2019-03-19T14:59:14Z</time>
      </trkpt>
      <trkpt lat="43.47342" lon="5.94685">
        <ele>266.42</ele>
        <time>2019-03-19T14:59:30Z</time>
      </trkpt>
      <trkpt lat="43.47335" lon="5.94696">
        <ele>265.94</ele>
        <time>2019-03-19T14:59:44Z</time>
      </trkpt>
      <trkpt lat="43.47327" lon="5.94706">
        <ele>264.5</ele>
        <time>2019-03-19T14:59:59Z</time>
      </trkpt>
      <trkpt lat="43.47328" lon="5.94706">
        <ele>264.5</ele>
        <time>2019-03-19T15:00:25Z</time>
      </trkpt>
      <trkpt lat="43.47321" lon="5.94715">
        <ele>263.54</ele>
        <time>2019-03-19T15:00:45Z</time>
      </trkpt>
      <trkpt lat="43.47313" lon="5.94731">
        <ele>261.62</ele>
        <time>2019-03-19T15:01:02Z</time>
      </trkpt>
      <trkpt lat="43.47307" lon="5.94755">
        <ele>260.65</ele>
        <time>2019-03-19T15:01:21Z</time>
      </trkpt>
      <trkpt lat="43.47304" lon="5.94776">
        <ele>260.17</ele>
        <time>2019-03-19T15:01:37Z</time>
      </trkpt>
      <trkpt lat="43.47302" lon="5.94783">
        <ele>260.17</ele>
        <time>2019-03-19T15:01:43Z</time>
      </trkpt>
      <trkpt lat="43.47301" lon="5.94802">
        <ele>260.17</ele>
        <time>2019-03-19T15:01:58Z</time>
      </trkpt>
      <trkpt lat="43.47299" lon="5.94822">
        <ele>259.69</ele>
        <time>2019-03-19T15:02:14Z</time>
      </trkpt>
      <trkpt lat="43.47298" lon="5.94843">
        <ele>259.21</ele>
        <time>2019-03-19T15:02:31Z</time>
      </trkpt>
      <trkpt lat="43.47291" lon="5.94863">
        <ele>259.21</ele>
        <time>2019-03-19T15:02:49Z</time>
      </trkpt>
      <trkpt lat="43.47288" lon="5.94867">
        <ele>259.21</ele>
        <time>2019-03-19T15:03:05Z</time>
      </trkpt>
      <trkpt lat="43.47287" lon="5.94869">
        <ele>259.21</ele>
        <time>2019-03-19T15:03:25Z</time>
      </trkpt>
      <trkpt lat="43.47286" lon="5.9487">
        <ele>257.77</ele>
        <time>2019-03-19T15:03:59Z</time>
      </trkpt>
      <trkpt lat="43.47289" lon="5.94863">
        <ele>257.29</ele>
        <time>2019-03-19T15:04:34Z</time>
      </trkpt>
      <trkpt lat="43.47291" lon="5.94866">
        <ele>258.73</ele>
        <time>2019-03-19T15:05:02Z</time>
      </trkpt>
      <trkpt lat="43.47292" lon="5.94869">
        <ele>258.73</ele>
        <time>2019-03-19T15:05:31Z</time>
      </trkpt>
      <trkpt lat="43.4729" lon="5.94871">
        <ele>259.21</ele>
        <time>2019-03-19T15:05:51Z</time>
      </trkpt>
      <trkpt lat="43.47289" lon="5.9487">
        <ele>259.69</ele>
        <time>2019-03-19T15:06:15Z</time>
      </trkpt>
      <trkpt lat="43.47287" lon="5.94871">
        <ele>259.69</ele>
        <time>2019-03-19T15:06:50Z</time>
      </trkpt>
      <trkpt lat="43.47286" lon="5.94872">
        <ele>259.69</ele>
        <time>2019-03-19T15:07:18Z</time>
      </trkpt>
      <trkpt lat="43.47283" lon="5.94886">
        <ele>259.69</ele>
        <time>2019-03-19T15:07:32Z</time>
      </trkpt>
      <trkpt lat="43.4728" lon="5.949">
        <ele>260.17</ele>
        <time>2019-03-19T15:07:46Z</time>
      </trkpt>
      <trkpt lat="43.47275" lon="5.94916">
        <ele>260.65</ele>
        <time>2019-03-19T15:08:01Z</time>
      </trkpt>
      <trkpt lat="43.4727" lon="5.94935">
        <ele>260.65</ele>
        <time>2019-03-19T15:08:17Z</time>
      </trkpt>
      <trkpt lat="43.47266" lon="5.94953">
        <ele>260.65</ele>
        <time>2019-03-19T15:08:33Z</time>
      </trkpt>
      <trkpt lat="43.47261" lon="5.94971">
        <ele>260.65</ele>
        <time>2019-03-19T15:08:49Z</time>
      </trkpt>
      <trkpt lat="43.47257" lon="5.94989">
        <ele>259.69</ele>
        <time>2019-03-19T15:09:05Z</time>
      </trkpt>
      <trkpt lat="43.47252" lon="5.95003">
        <ele>259.69</ele>
        <time>2019-03-19T15:09:19Z</time>
      </trkpt>
      <trkpt lat="43.47255" lon="5.95017">
        <ele>259.69</ele>
        <time>2019-03-19T15:09:34Z</time>
      </trkpt>
      <trkpt lat="43.47252" lon="5.95028">
        <ele>259.69</ele>
        <time>2019-03-19T15:09:45Z</time>
      </trkpt>
      <trkpt lat="43.47247" lon="5.95035">
        <ele>259.69</ele>
        <time>2019-03-19T15:09:59Z</time>
      </trkpt>
      <trkpt lat="43.47244" lon="5.95039">
        <ele>259.69</ele>
        <time>2019-03-19T15:10:33Z</time>
      </trkpt>
      <trkpt lat="43.47245" lon="5.95037">
        <ele>260.17</ele>
        <time>2019-03-19T15:10:53Z</time>
      </trkpt>
      <trkpt lat="43.47248" lon="5.95035">
        <ele>260.17</ele>
        <time>2019-03-19T15:11:09Z</time>
      </trkpt>
      <trkpt lat="43.47252" lon="5.95043">
        <ele>260.17</ele>
        <time>2019-03-19T15:11:25Z</time>
      </trkpt>
      <trkpt lat="43.47245" lon="5.9506">
        <ele>260.17</ele>
        <time>2019-03-19T15:11:39Z</time>
      </trkpt>
      <trkpt lat="43.47235" lon="5.95077">
        <ele>260.17</ele>
        <time>2019-03-19T15:11:55Z</time>
      </trkpt>
      <trkpt lat="43.47227" lon="5.95088">
        <ele>259.69</ele>
        <time>2019-03-19T15:12:11Z</time>
      </trkpt>
      <trkpt lat="43.47225" lon="5.95089">
        <ele>259.69</ele>
        <time>2019-03-19T15:12:16Z</time>
      </trkpt>
      <trkpt lat="43.47226" lon="5.95089">
        <ele>259.69</ele>
        <time>2019-03-19T15:12:27Z</time>
      </trkpt>
      <trkpt lat="43.4722" lon="5.95089">
        <ele>258.73</ele>
        <time>2019-03-19T15:12:54Z</time>
      </trkpt>
      <trkpt lat="43.4722" lon="5.95089">
        <ele>258.73</ele>
        <time>2019-03-19T15:13:32Z</time>
      </trkpt>
      <trkpt lat="43.47222" lon="5.95092">
        <ele>258.73</ele>
        <time>2019-03-19T15:14:07Z</time>
      </trkpt>
      <trkpt lat="43.47222" lon="5.95092">
        <ele>259.69</ele>
        <time>2019-03-19T15:14:27Z</time>
      </trkpt>
      <trkpt lat="43.47223" lon="5.9509">
        <ele>259.69</ele>
        <time>2019-03-19T15:14:45Z</time>
      </trkpt>
      <trkpt lat="43.47222" lon="5.95096">
        <ele>259.69</ele>
        <time>2019-03-19T15:14:57Z</time>
      </trkpt>
      <trkpt lat="43.4722" lon="5.95108">
        <ele>259.69</ele>
        <time>2019-03-19T15:15:14Z</time>
      </trkpt>
      <trkpt lat="43.47218" lon="5.95122">
        <ele>260.17</ele>
        <time>2019-03-19T15:15:30Z</time>
      </trkpt>
      <trkpt lat="43.47214" lon="5.95141">
        <ele>260.65</ele>
        <time>2019-03-19T15:15:48Z</time>
      </trkpt>
      <trkpt lat="43.47206" lon="5.95158">
        <ele>260.65</ele>
        <time>2019-03-19T15:16:05Z</time>
      </trkpt>
      <trkpt lat="43.472" lon="5.95182">
        <ele>261.14</ele>
        <time>2019-03-19T15:16:21Z</time>
      </trkpt>
      <trkpt lat="43.47197" lon="5.95202">
        <ele>261.14</ele>
        <time>2019-03-19T15:16:36Z</time>
      </trkpt>
      <trkpt lat="43.47195" lon="5.95219">
        <ele>262.1</ele>
        <time>2019-03-19T15:16:51Z</time>
      </trkpt>
      <trkpt lat="43.47193" lon="5.95235">
        <ele>263.54</ele>
        <time>2019-03-19T15:17:06Z</time>
      </trkpt>
      <trkpt lat="43.47191" lon="5.95245">
        <ele>264.02</ele>
        <time>2019-03-19T15:17:19Z</time>
      </trkpt>
      <trkpt lat="43.47181" lon="5.95252">
        <ele>264.98</ele>
        <time>2019-03-19T15:17:32Z</time>
      </trkpt>
      <trkpt lat="43.47166" lon="5.95254">
        <ele>265.46</ele>
        <time>2019-03-19T15:17:49Z</time>
      </trkpt>
      <trkpt lat="43.47164" lon="5.95254">
        <ele>265.46</ele>
        <time>2019-03-19T15:17:52Z</time>
      </trkpt>
      <trkpt lat="43.47153" lon="5.95252">
        <ele>265.46</ele>
        <time>2019-03-19T15:18:06Z</time>
      </trkpt>
      <trkpt lat="43.47145" lon="5.95253">
        <ele>264.5</ele>
        <time>2019-03-19T15:18:18Z</time>
      </trkpt>
      <trkpt lat="43.47131" lon="5.95252">
        <ele>264.5</ele>
        <time>2019-03-19T15:18:33Z</time>
      </trkpt>
      <trkpt lat="43.4712" lon="5.95251">
        <ele>264.98</ele>
        <time>2019-03-19T15:18:46Z</time>
      </trkpt>
      <trkpt lat="43.47103" lon="5.95239">
        <ele>264.98</ele>
        <time>2019-03-19T15:19:02Z</time>
      </trkpt>
      <trkpt lat="43.47097" lon="5.95233">
        <ele>265.46</ele>
        <time>2019-03-19T15:19:15Z</time>
      </trkpt>
      <trkpt lat="43.4709" lon="5.95229">
        <ele>265.46</ele>
        <time>2019-03-19T15:19:27Z</time>
      </trkpt>
      <trkpt lat="43.47084" lon="5.95222">
        <ele>265.94</ele>
        <time>2019-03-19T15:19:42Z</time>
      </trkpt>
      <trkpt lat="43.47069" lon="5.95213">
        <ele>265.94</ele>
        <time>2019-03-19T15:19:57Z</time>
      </trkpt>
      <trkpt lat="43.4706" lon="5.95207">
        <ele>267.38</ele>
        <time>2019-03-19T15:20:07Z</time>
      </trkpt>
      <trkpt lat="43.47051" lon="5.95206">
        <ele>267.38</ele>
        <time>2019-03-19T15:20:19Z</time>
      </trkpt>
      <trkpt lat="43.47032" lon="5.95204">
        <ele>267.86</ele>
        <time>2019-03-19T15:20:34Z</time>
      </trkpt>
      <trkpt lat="43.47016" lon="5.95207">
        <ele>267.86</ele>
        <time>2019-03-19T15:20:51Z</time>
      </trkpt>
      <trkpt lat="43.47015" lon="5.95205">
        <ele>268.35</ele>
        <time>2019-03-19T15:20:53Z</time>
      </trkpt>
      <trkpt lat="43.47003" lon="5.95193">
        <ele>268.35</ele>
        <time>2019-03-19T15:21:09Z</time>
      </trkpt>
      <trkpt lat="43.47002" lon="5.9519">
        <ele>268.35</ele>
        <time>2019-03-19T15:21:11Z</time>
      </trkpt>
      <trkpt lat="43.46989" lon="5.95172">
        <ele>268.83</ele>
        <time>2019-03-19T15:21:29Z</time>
      </trkpt>
      <trkpt lat="43.46977" lon="5.95153">
        <ele>269.79</ele>
        <time>2019-03-19T15:21:45Z</time>
      </trkpt>
      <trkpt lat="43.4697" lon="5.95143">
        <ele>269.79</ele>
        <time>2019-03-19T15:21:56Z</time>
      </trkpt>
      <trkpt lat="43.46969" lon="5.95127">
        <ele>269.79</ele>
        <time>2019-03-19T15:22:11Z</time>
      </trkpt>
      <trkpt lat="43.4697" lon="5.95124">
        <ele>269.79</ele>
        <time>2019-03-19T15:22:14Z</time>
      </trkpt>
      <trkpt lat="43.46982" lon="5.95111">
        <ele>270.27</ele>
        <time>2019-03-19T15:22:31Z</time>
      </trkpt>
      <trkpt lat="43.46991" lon="5.95097">
        <ele>270.27</ele>
        <time>2019-03-19T15:22:46Z</time>
      </trkpt>
      <trkpt lat="43.46999" lon="5.95093">
        <ele>270.75</ele>
        <time>2019-03-19T15:23:00Z</time>
      </trkpt>
      <trkpt lat="43.47012" lon="5.95094">
        <ele>271.71</ele>
        <time>2019-03-19T15:23:16Z</time>
      </trkpt>
      <trkpt lat="43.47014" lon="5.95095">
        <ele>272.19</ele>
        <time>2019-03-19T15:23:18Z</time>
      </trkpt>
      <trkpt lat="43.47019" lon="5.95098">
        <ele>272.67</ele>
        <time>2019-03-19T15:23:32Z</time>
      </trkpt>
      <trkpt lat="43.47026" lon="5.95087">
        <ele>273.63</ele>
        <time>2019-03-19T15:23:50Z</time>
      </trkpt>
      <trkpt lat="43.47028" lon="5.95084">
        <ele>273.63</ele>
        <time>2019-03-19T15:23:53Z</time>
      </trkpt>
      <trkpt lat="43.47031" lon="5.95068">
        <ele>274.59</ele>
        <time>2019-03-19T15:24:08Z</time>
      </trkpt>
      <trkpt lat="43.47031" lon="5.95067">
        <ele>274.59</ele>
        <time>2019-03-19T15:24:12Z</time>
      </trkpt>
      <trkpt lat="43.47028" lon="5.95066">
        <ele>275.07</ele>
        <time>2019-03-19T15:24:24Z</time>
      </trkpt>
      <trkpt lat="43.47027" lon="5.95065">
        <ele>275.56</ele>
        <time>2019-03-19T15:24:46Z</time>
      </trkpt>
      <trkpt lat="43.47026" lon="5.95063">
        <ele>275.56</ele>
        <time>2019-03-19T15:25:07Z</time>
      </trkpt>
      <trkpt lat="43.47039" lon="5.95042">
        <ele>276.04</ele>
        <time>2019-03-19T15:25:19Z</time>
      </trkpt>
      <trkpt lat="43.47038" lon="5.95038">
        <ele>277</ele>
        <time>2019-03-19T15:25:35Z</time>
      </trkpt>
      <trkpt lat="43.47036" lon="5.95036">
        <ele>277</ele>
        <time>2019-03-19T15:25:56Z</time>
      </trkpt>
      <trkpt lat="43.47036" lon="5.95034">
        <ele>277</ele>
        <time>2019-03-19T15:26:15Z</time>
      </trkpt>
      <trkpt lat="43.47036" lon="5.95035">
        <ele>277</ele>
        <time>2019-03-19T15:26:40Z</time>
      </trkpt>
      <trkpt lat="43.47032" lon="5.95032">
        <ele>277.48</ele>
        <time>2019-03-19T15:26:53Z</time>
      </trkpt>
      <trkpt lat="43.47032" lon="5.95024">
        <ele>278.44</ele>
        <time>2019-03-19T15:27:06Z</time>
      </trkpt>
      <trkpt lat="43.47039" lon="5.95014">
        <ele>277.48</ele>
        <time>2019-03-19T15:27:21Z</time>
      </trkpt>
      <trkpt lat="43.47039" lon="5.95015">
        <ele>277</ele>
        <time>2019-03-19T15:27:48Z</time>
      </trkpt>
      <trkpt lat="43.47043" lon="5.95012">
        <ele>277</ele>
        <time>2019-03-19T15:28:14Z</time>
      </trkpt>
      <trkpt lat="43.47046" lon="5.95011">
        <ele>276.52</ele>
        <time>2019-03-19T15:28:39Z</time>
      </trkpt>
      <trkpt lat="43.47045" lon="5.95012">
        <ele>276.52</ele>
        <time>2019-03-19T15:29:03Z</time>
      </trkpt>
      <trkpt lat="43.47043" lon="5.9501">
        <ele>276.52</ele>
        <time>2019-03-19T15:29:27Z</time>
      </trkpt>
      <trkpt lat="43.47045" lon="5.9501">
        <ele>276.52</ele>
        <time>2019-03-19T15:29:56Z</time>
      </trkpt>
      <trkpt lat="43.47044" lon="5.95011">
        <ele>276.52</ele>
        <time>2019-03-19T15:30:27Z</time>
      </trkpt>
      <trkpt lat="43.47043" lon="5.95011">
        <ele>276.52</ele>
        <time>2019-03-19T15:30:53Z</time>
      </trkpt>
      <trkpt lat="43.47045" lon="5.95013">
        <ele>276.04</ele>
        <time>2019-03-19T15:31:09Z</time>
      </trkpt>
      <trkpt lat="43.47046" lon="5.95016">
        <ele>275.56</ele>
        <time>2019-03-19T15:31:34Z</time>
      </trkpt>
      <trkpt lat="43.47046" lon="5.95017">
        <ele>275.07</ele>
        <time>2019-03-19T15:32:02Z</time>
      </trkpt>
      <trkpt lat="43.47052" lon="5.95016">
        <ele>273.63</ele>
        <time>2019-03-19T15:32:22Z</time>
      </trkpt>
      <trkpt lat="43.4706" lon="5.95016">
        <ele>271.23</ele>
        <time>2019-03-19T15:32:37Z</time>
      </trkpt>
      <trkpt lat="43.47068" lon="5.95018">
        <ele>269.79</ele>
        <time>2019-03-19T15:32:53Z</time>
      </trkpt>
      <trkpt lat="43.47073" lon="5.95024">
        <ele>268.83</ele>
        <time>2019-03-19T15:33:07Z</time>
      </trkpt>
      <trkpt lat="43.47077" lon="5.95024">
        <ele>267.86</ele>
        <time>2019-03-19T15:33:27Z</time>
      </trkpt>
      <trkpt lat="43.47079" lon="5.95026">
        <ele>268.35</ele>
        <time>2019-03-19T15:34:02Z</time>
      </trkpt>
      <trkpt lat="43.4708" lon="5.95025">
        <ele>268.35</ele>
        <time>2019-03-19T15:34:42Z</time>
      </trkpt>
      <trkpt lat="43.47082" lon="5.95025">
        <ele>267.86</ele>
        <time>2019-03-19T15:35:08Z</time>
      </trkpt>
      <trkpt lat="43.4709" lon="5.95025">
        <ele>267.38</ele>
        <time>2019-03-19T15:35:21Z</time>
      </trkpt>
      <trkpt lat="43.471" lon="5.95024">
        <ele>266.9</ele>
        <time>2019-03-19T15:35:37Z</time>
      </trkpt>
      <trkpt lat="43.47105" lon="5.95023">
        <ele>266.9</ele>
        <time>2019-03-19T15:35:53Z</time>
      </trkpt>
      <trkpt lat="43.4712" lon="5.95014">
        <ele>267.38</ele>
        <time>2019-03-19T15:36:10Z</time>
      </trkpt>
      <trkpt lat="43.47121" lon="5.95013">
        <ele>267.38</ele>
        <time>2019-03-19T15:36:11Z</time>
      </trkpt>
      <trkpt lat="43.47127" lon="5.95005">
        <ele>267.38</ele>
        <time>2019-03-19T15:36:20Z</time>
      </trkpt>
      <trkpt lat="43.47127" lon="5.94988">
        <ele>267.38</ele>
        <time>2019-03-19T15:36:35Z</time>
      </trkpt>
      <trkpt lat="43.47125" lon="5.94978">
        <ele>267.38</ele>
        <time>2019-03-19T15:36:45Z</time>
      </trkpt>
      <trkpt lat="43.47123" lon="5.94976">
        <ele>267.38</ele>
        <time>2019-03-19T15:36:48Z</time>
      </trkpt>
      <trkpt lat="43.47117" lon="5.9495">
        <ele>267.38</ele>
        <time>2019-03-19T15:37:07Z</time>
      </trkpt>
      <trkpt lat="43.47117" lon="5.94945">
        <ele>267.38</ele>
        <time>2019-03-19T15:37:11Z</time>
      </trkpt>
      <trkpt lat="43.47123" lon="5.94934">
        <ele>266.9</ele>
        <time>2019-03-19T15:37:25Z</time>
      </trkpt>
      <trkpt lat="43.4713" lon="5.94945">
        <ele>266.9</ele>
        <time>2019-03-19T15:37:43Z</time>
      </trkpt>
      <trkpt lat="43.47135" lon="5.94963">
        <ele>266.9</ele>
        <time>2019-03-19T15:38:00Z</time>
      </trkpt>
      <trkpt lat="43.47145" lon="5.94982">
        <ele>266.9</ele>
        <time>2019-03-19T15:38:17Z</time>
      </trkpt>
      <trkpt lat="43.47156" lon="5.94986">
        <ele>266.9</ele>
        <time>2019-03-19T15:38:30Z</time>
      </trkpt>
      <trkpt lat="43.47157" lon="5.94984">
        <ele>266.9</ele>
        <time>2019-03-19T15:38:45Z</time>
      </trkpt>
      <trkpt lat="43.47159" lon="5.94985">
        <ele>266.9</ele>
        <time>2019-03-19T15:38:59Z</time>
      </trkpt>
      <trkpt lat="43.47162" lon="5.94984">
        <ele>266.9</ele>
        <time>2019-03-19T15:39:12Z</time>
      </trkpt>
      <trkpt lat="43.47168" lon="5.94985">
        <ele>266.42</ele>
        <time>2019-03-19T15:39:29Z</time>
      </trkpt>
      <trkpt lat="43.47183" lon="5.94986">
        <ele>266.42</ele>
        <time>2019-03-19T15:39:45Z</time>
      </trkpt>
      <trkpt lat="43.47196" lon="5.94984">
        <ele>266.42</ele>
        <time>2019-03-19T15:40:02Z</time>
      </trkpt>
      <trkpt lat="43.47208" lon="5.94982">
        <ele>265.94</ele>
        <time>2019-03-19T15:40:17Z</time>
      </trkpt>
      <trkpt lat="43.47211" lon="5.94978">
        <ele>265.94</ele>
        <time>2019-03-19T15:40:29Z</time>
      </trkpt>
      <trkpt lat="43.47215" lon="5.94983">
        <ele>266.42</ele>
        <time>2019-03-19T15:40:45Z</time>
      </trkpt>
      <trkpt lat="43.47219" lon="5.94992">
        <ele>266.42</ele>
        <time>2019-03-19T15:40:59Z</time>
      </trkpt>
      <trkpt lat="43.47223" lon="5.94987">
        <ele>266.42</ele>
        <time>2019-03-19T15:41:31Z</time>
      </trkpt>
      <trkpt lat="43.47221" lon="5.95003">
        <ele>266.42</ele>
        <time>2019-03-19T15:41:45Z</time>
      </trkpt>
      <trkpt lat="43.47221" lon="5.95005">
        <ele>266.42</ele>
        <time>2019-03-19T15:41:46Z</time>
      </trkpt>
      <trkpt lat="43.47223" lon="5.95025">
        <ele>266.42</ele>
        <time>2019-03-19T15:42:01Z</time>
      </trkpt>
      <trkpt lat="43.47223" lon="5.95042">
        <ele>266.9</ele>
        <time>2019-03-19T15:42:14Z</time>
      </trkpt>
      <trkpt lat="43.47222" lon="5.95056">
        <ele>266.9</ele>
        <time>2019-03-19T15:42:28Z</time>
      </trkpt>
      <trkpt lat="43.47222" lon="5.95061">
        <ele>268.35</ele>
        <time>2019-03-19T15:42:44Z</time>
      </trkpt>
      <trkpt lat="43.47222" lon="5.95066">
        <ele>268.35</ele>
        <time>2019-03-19T15:43:13Z</time>
      </trkpt>
      <trkpt lat="43.47223" lon="5.95069">
        <ele>268.83</ele>
        <time>2019-03-19T15:43:43Z</time>
      </trkpt>
      <trkpt lat="43.47227" lon="5.95083">
        <ele>268.83</ele>
        <time>2019-03-19T15:43:58Z</time>
      </trkpt>
      <trkpt lat="43.47231" lon="5.95093">
        <ele>268.83</ele>
        <time>2019-03-19T15:44:11Z</time>
      </trkpt>
      <trkpt lat="43.47235" lon="5.95094">
        <ele>269.31</ele>
        <time>2019-03-19T15:44:25Z</time>
      </trkpt>
    </trkseg>
  </trk>
  <trk>
    <name><![CDATA[2019-05-01 16:22:14]]></name>
    <trkseg>
      <trkpt lat="43.43956" lon="5.86022">
        <ele>348.62</ele>
        <time>2019-03-24T10:00:55Z</time>
      </trkpt>
      <trkpt lat="43.43955" lon="5.86022">
        <ele>348.62</ele>
        <time>2019-03-24T10:00:56Z</time>
      </trkpt>
      <trkpt lat="43.43955" lon="5.86021">
        <ele>351.02</ele>
        <time>2019-03-24T10:01:00Z</time>
      </trkpt>
      <trkpt lat="43.43959" lon="5.86022">
        <ele>351.02</ele>
        <time>2019-03-24T10:01:35Z</time>
      </trkpt>
      <trkpt lat="43.43958" lon="5.86022">
        <ele>351.5</ele>
        <time>2019-03-24T10:02:13Z</time>
      </trkpt>
      <trkpt lat="43.43958" lon="5.86025">
        <ele>351.5</ele>
        <time>2019-03-24T10:02:43Z</time>
      </trkpt>
      <trkpt lat="43.4396" lon="5.86027">
        <ele>351.5</ele>
        <time>2019-03-24T10:03:18Z</time>
      </trkpt>
      <trkpt lat="43.43959" lon="5.86025">
        <ele>351.5</ele>
        <time>2019-03-24T10:03:53Z</time>
      </trkpt>
      <trkpt lat="43.43959" lon="5.86028">
        <ele>351.98</ele>
        <time>2019-03-24T10:04:35Z</time>
      </trkpt>
      <trkpt lat="43.43962" lon="5.86026">
        <ele>351.98</ele>
        <time>2019-03-24T10:05:07Z</time>
      </trkpt>
      <trkpt lat="43.43963" lon="5.86026">
        <ele>351.98</ele>
        <time>2019-03-24T10:05:27Z</time>
      </trkpt>
      <trkpt lat="43.4396" lon="5.86025">
        <ele>352.46</ele>
        <time>2019-03-24T10:05:49Z</time>
      </trkpt>
      <trkpt lat="43.43959" lon="5.86023">
        <ele>352.46</ele>
        <time>2019-03-24T10:06:07Z</time>
      </trkpt>
      <trkpt lat="43.43959" lon="5.86022">
        <ele>352.46</ele>
        <time>2019-03-24T10:06:39Z</time>
      </trkpt>
      <trkpt lat="43.43954" lon="5.8602">
        <ele>352.46</ele>
        <time>2019-03-24T10:07:06Z</time>
      </trkpt>
      <trkpt lat="43.43953" lon="5.86019">
        <ele>352.94</ele>
        <time>2019-03-24T10:07:30Z</time>
      </trkpt>
      <trkpt lat="43.43953" lon="5.86018">
        <ele>352.94</ele>
        <time>2019-03-24T10:08:00Z</time>
      </trkpt>
      <trkpt lat="43.43953" lon="5.86019">
        <ele>352.94</ele>
        <time>2019-03-24T10:08:30Z</time>
      </trkpt>
      <trkpt lat="43.43953" lon="5.86022">
        <ele>352.94</ele>
        <time>2019-03-24T10:09:02Z</time>
      </trkpt>
      <trkpt lat="43.4395" lon="5.86021">
        <ele>353.42</ele>
        <time>2019-03-24T10:09:35Z</time>
      </trkpt>
      <trkpt lat="43.4395" lon="5.86025">
        <ele>353.42</ele>
        <time>2019-03-24T10:10:15Z</time>
      </trkpt>
      <trkpt lat="43.43952" lon="5.86022">
        <ele>353.9</ele>
        <time>2019-03-24T10:10:54Z</time>
      </trkpt>
      <trkpt lat="43.43951" lon="5.86022">
        <ele>355.34</ele>
        <time>2019-03-24T10:11:28Z</time>
      </trkpt>
      <trkpt lat="43.43954" lon="5.86023">
        <ele>355.34</ele>
        <time>2019-03-24T10:12:10Z</time>
      </trkpt>
      <trkpt lat="43.43955" lon="5.86022">
        <ele>355.34</ele>
        <time>2019-03-24T10:12:50Z</time>
      </trkpt>
      <trkpt lat="43.43956" lon="5.86024">
        <ele>355.34</ele>
        <time>2019-03-24T10:13:20Z</time>
      </trkpt>
      <trkpt lat="43.43959" lon="5.86024">
        <ele>355.34</ele>
        <time>2019-03-24T10:13:58Z</time>
      </trkpt>
      <trkpt lat="43.43961" lon="5.86024">
        <ele>355.83</ele>
        <time>2019-03-24T10:14:39Z</time>
      </trkpt>
      <trkpt lat="43.4396" lon="5.86023">
        <ele>355.83</ele>
        <time>2019-03-24T10:15:22Z</time>
      </trkpt>
      <trkpt lat="43.43958" lon="5.86023">
        <ele>355.83</ele>
        <time>2019-03-24T10:16:00Z</time>
      </trkpt>
      <trkpt lat="43.43959" lon="5.86023">
        <ele>355.83</ele>
        <time>2019-03-24T10:16:39Z</time>
      </trkpt>
      <trkpt lat="43.43961" lon="5.86024">
        <ele>355.83</ele>
        <time>2019-03-24T10:17:14Z</time>
      </trkpt>
      <trkpt lat="43.43958" lon="5.86023">
        <ele>356.31</ele>
        <time>2019-03-24T10:17:57Z</time>
      </trkpt>
      <trkpt lat="43.43955" lon="5.8602">
        <ele>356.31</ele>
        <time>2019-03-24T10:18:35Z</time>
      </trkpt>
      <trkpt lat="43.43959" lon="5.86023">
        <ele>356.31</ele>
        <time>2019-03-24T10:19:16Z</time>
      </trkpt>
      <trkpt lat="43.43958" lon="5.86023">
        <ele>356.79</ele>
        <time>2019-03-24T10:19:55Z</time>
      </trkpt>
      <trkpt lat="43.43956" lon="5.86023">
        <ele>357.75</ele>
        <time>2019-03-24T10:20:18Z</time>
      </trkpt>
      <trkpt lat="43.43966" lon="5.86012">
        <ele>321.22</ele>
        <time>2019-04-30T19:41:21Z</time>
      </trkpt>
      <trkpt lat="43.43959" lon="5.8602">
        <ele>324.58</ele>
        <time>2019-04-30T19:41:36Z</time>
      </trkpt>
      <trkpt lat="43.4396" lon="5.86021">
        <ele>326.5</ele>
        <time>2019-04-30T19:41:38Z</time>
      </trkpt>
      <trkpt lat="43.43961" lon="5.86022">
        <ele>329.87</ele>
        <time>2019-04-30T19:41:42Z</time>
      </trkpt>
      <trkpt lat="43.43961" lon="5.86022">
        <ele>333.23</ele>
        <time>2019-04-30T19:41:47Z</time>
      </trkpt>
      <trkpt lat="43.43961" lon="5.86022">
        <ele>337.08</ele>
        <time>2019-04-30T19:41:52Z</time>
      </trkpt>
      <trkpt lat="43.43961" lon="5.86022">
        <ele>337.08</ele>
        <time>2019-04-30T19:41:53Z</time>
      </trkpt>
      <trkpt lat="43.43962" lon="5.86023">
        <ele>339.96</ele>
        <time>2019-04-30T19:41:59Z</time>
      </trkpt>
      <trkpt lat="43.43962" lon="5.86022">
        <ele>343.33</ele>
        <time>2019-04-30T19:42:06Z</time>
      </trkpt>
      <trkpt lat="43.43961" lon="5.86023">
        <ele>346.21</ele>
        <time>2019-04-30T19:42:14Z</time>
      </trkpt>
      <trkpt lat="43.43962" lon="5.86026">
        <ele>349.58</ele>
        <time>2019-04-30T19:42:28Z</time>
      </trkpt>
      <trkpt lat="43.43964" lon="5.86028">
        <ele>352.46</ele>
        <time>2019-04-30T19:42:40Z</time>
      </trkpt>
      <trkpt lat="43.43964" lon="5.86028">
        <ele>355.34</ele>
        <time>2019-04-30T19:43:01Z</time>
      </trkpt>
      <trkpt lat="43.43961" lon="5.86027">
        <ele>357.75</ele>
        <time>2019-04-30T19:43:27Z</time>
      </trkpt>
      <trkpt lat="43.43962" lon="5.86027">
        <ele>358.23</ele>
        <time>2019-04-30T19:43:41Z</time>
      </trkpt>
      <trkpt lat="43.43961" lon="5.86029">
        <ele>358.23</ele>
        <time>2019-04-30T19:43:46Z</time>
      </trkpt>
      <trkpt lat="43.43961" lon="5.86026">
        <ele>355.83</ele>
        <time>2019-04-30T20:02:01Z</time>
      </trkpt>
      <trkpt lat="43.43961" lon="5.86026">
        <ele>355.83</ele>
        <time>2019-04-30T20:02:02Z</time>
      </trkpt>
      <trkpt lat="43.4396" lon="5.86026">
        <ele>355.83</ele>
        <time>2019-04-30T20:02:25Z</time>
      </trkpt>
      <trkpt lat="43.43963" lon="5.86026">
        <ele>355.83</ele>
        <time>2019-04-30T20:02:49Z</time>
      </trkpt>
      <trkpt lat="43.43962" lon="5.86027">
        <ele>355.83</ele>
        <time>2019-04-30T20:03:16Z</time>
      </trkpt>
      <trkpt lat="43.43961" lon="5.86026">
        <ele>355.83</ele>
        <time>2019-04-30T20:03:43Z</time>
      </trkpt>
      <trkpt lat="43.43962" lon="5.86024">
        <ele>355.83</ele>
        <time>2019-04-30T20:04:10Z</time>
      </trkpt>
      <trkpt lat="43.43965" lon="5.86023">
        <ele>355.83</ele>
        <time>2019-04-30T20:04:46Z</time>
      </trkpt>
      <trkpt lat="43.43964" lon="5.86023">
        <ele>355.83</ele>
        <time>2019-04-30T20:05:14Z</time>
      </trkpt>
      <trkpt lat="43.43962" lon="5.86027">
        <ele>355.83</ele>
        <time>2019-04-30T20:05:49Z</time>
      </trkpt>
      <trkpt lat="43.43963" lon="5.86028">
        <ele>355.83</ele>
        <time>2019-04-30T20:06:23Z</time>
      </trkpt>
      <trkpt lat="43.43964" lon="5.86026">
        <ele>355.83</ele>
        <time>2019-04-30T20:06:59Z</time>
      </trkpt>
      <trkpt lat="43.43965" lon="5.86023">
        <ele>355.83</ele>
        <time>2019-04-30T20:07:32Z</time>
      </trkpt>
      <trkpt lat="43.43966" lon="5.86021">
        <ele>355.83</ele>
        <time>2019-04-30T20:08:03Z</time>
      </trkpt>
      <trkpt lat="43.43966" lon="5.8602">
        <ele>355.83</ele>
        <time>2019-04-30T20:08:33Z</time>
      </trkpt>
      <trkpt lat="43.43966" lon="5.86023">
        <ele>355.83</ele>
        <time>2019-04-30T20:09:03Z</time>
      </trkpt>
      <trkpt lat="43.43967" lon="5.86024">
        <ele>355.83</ele>
        <time>2019-04-30T20:09:33Z</time>
      </trkpt>
      <trkpt lat="43.43966" lon="5.86025">
        <ele>355.83</ele>
        <time>2019-04-30T20:10:00Z</time>
      </trkpt>
      <trkpt lat="43.43964" lon="5.86023">
        <ele>355.83</ele>
        <time>2019-04-30T20:10:21Z</time>
      </trkpt>
      <trkpt lat="43.43966" lon="5.86023">
        <ele>355.34</ele>
        <time>2019-04-30T20:31:32Z</time>
      </trkpt>
      <trkpt lat="43.43966" lon="5.86023">
        <ele>355.34</ele>
        <time>2019-04-30T20:31:33Z</time>
      </trkpt>
      <trkpt lat="43.43964" lon="5.86021">
        <ele>354.38</ele>
        <time>2019-04-30T20:32:12Z</time>
      </trkpt>
      <trkpt lat="43.43965" lon="5.86022">
        <ele>354.38</ele>
        <time>2019-04-30T20:32:48Z</time>
      </trkpt>
      <trkpt lat="43.43965" lon="5.86023">
        <ele>354.38</ele>
        <time>2019-04-30T20:33:18Z</time>
      </trkpt>
      <trkpt lat="43.43963" lon="5.86025">
        <ele>354.38</ele>
        <time>2019-04-30T20:33:41Z</time>
      </trkpt>
      <trkpt lat="43.4396" lon="5.86022">
        <ele>354.38</ele>
        <time>2019-04-30T20:49:33Z</time>
      </trkpt>
      <trkpt lat="43.4396" lon="5.86022">
        <ele>354.38</ele>
        <time>2019-04-30T20:49:34Z</time>
      </trkpt>
      <trkpt lat="43.43971" lon="5.86029">
        <ele>354.38</ele>
        <time>2019-04-30T20:51:58Z</time>
      </trkpt>
      <trkpt lat="43.43967" lon="5.86027">
        <ele>354.86</ele>
        <time>2019-04-30T20:52:29Z</time>
      </trkpt>
      <trkpt lat="43.43965" lon="5.86026">
        <ele>354.86</ele>
        <time>2019-04-30T20:53:00Z</time>
      </trkpt>
      <trkpt lat="43.43965" lon="5.86026">
        <ele>355.34</ele>
        <time>2019-04-30T20:53:37Z</time>
      </trkpt>
      <trkpt lat="43.43964" lon="5.86026">
        <ele>355.34</ele>
        <time>2019-04-30T20:54:02Z</time>
      </trkpt>
      <trkpt lat="43.43964" lon="5.86026">
        <ele>355.34</ele>
        <time>2019-04-30T20:54:07Z</time>
      </trkpt>
      <trkpt lat="43.48328" lon="5.74642">
        <ele>270.27</ele>
        <time>2019-05-01T10:39:33Z</time>
      </trkpt>
      <trkpt lat="43.48335" lon="5.74631">
        <ele>269.79</ele>
        <time>2019-05-01T10:39:34Z</time>
      </trkpt>
      <trkpt lat="43.48341" lon="5.74626">
        <ele>269.79</ele>
        <time>2019-05-01T10:39:35Z</time>
      </trkpt>
      <trkpt lat="43.48347" lon="5.7462">
        <ele>269.79</ele>
        <time>2019-05-01T10:39:36Z</time>
      </trkpt>
      <trkpt lat="43.48357" lon="5.74606">
        <ele>269.31</ele>
        <time>2019-05-01T10:39:38Z</time>
      </trkpt>
      <trkpt lat="43.48357" lon="5.74598">
        <ele>269.31</ele>
        <time>2019-05-01T10:39:39Z</time>
      </trkpt>
      <trkpt lat="43.48356" lon="5.7459">
        <ele>269.31</ele>
        <time>2019-05-01T10:39:40Z</time>
      </trkpt>
      <trkpt lat="43.48346" lon="5.74558">
        <ele>269.31</ele>
        <time>2019-05-01T10:39:42Z</time>
      </trkpt>
      <trkpt lat="43.48346" lon="5.74544">
        <ele>270.75</ele>
        <time>2019-05-01T10:39:43Z</time>
      </trkpt>
      <trkpt lat="43.48348" lon="5.74525">
        <ele>270.75</ele>
        <time>2019-05-01T10:39:44Z</time>
      </trkpt>
      <trkpt lat="43.48377" lon="5.74359">
        <ele>272.67</ele>
        <time>2019-05-01T10:39:51Z</time>
      </trkpt>
      <trkpt lat="43.48431" lon="5.74072">
        <ele>276.04</ele>
        <time>2019-05-01T10:40:01Z</time>
      </trkpt>
      <trkpt lat="43.4846" lon="5.73791">
        <ele>277.96</ele>
        <time>2019-05-01T10:40:11Z</time>
      </trkpt>
      <trkpt lat="43.48469" lon="5.7362">
        <ele>274.59</ele>
        <time>2019-05-01T10:40:17Z</time>
      </trkpt>
      <trkpt lat="43.48475" lon="5.73488">
        <ele>271.23</ele>
        <time>2019-05-01T10:40:22Z</time>
      </trkpt>
      <trkpt lat="43.48482" lon="5.73352">
        <ele>267.86</ele>
        <time>2019-05-01T10:40:27Z</time>
      </trkpt>
      <trkpt lat="43.48485" lon="5.73297">
        <ele>267.38</ele>
        <time>2019-05-01T10:40:29Z</time>
      </trkpt>
      <trkpt lat="43.48495" lon="5.73107">
        <ele>264.02</ele>
        <time>2019-05-01T10:40:36Z</time>
      </trkpt>
      <trkpt lat="43.48508" lon="5.72856">
        <ele>260.65</ele>
        <time>2019-05-01T10:40:46Z</time>
      </trkpt>
      <trkpt lat="43.48513" lon="5.7277">
        <ele>258.73</ele>
        <time>2019-05-01T10:40:49Z</time>
      </trkpt>
      <trkpt lat="43.48527" lon="5.72532">
        <ele>255.85</ele>
        <time>2019-05-01T10:40:58Z</time>
      </trkpt>
      <trkpt lat="43.48538" lon="5.72329">
        <ele>252.48</ele>
        <time>2019-05-01T10:41:06Z</time>
      </trkpt>
      <trkpt lat="43.48552" lon="5.721">
        <ele>249.12</ele>
        <time>2019-05-01T10:41:16Z</time>
      </trkpt>
      <trkpt lat="43.48553" lon="5.72081">
        <ele>249.12</ele>
        <time>2019-05-01T10:41:17Z</time>
      </trkpt>
      <trkpt lat="43.4856" lon="5.71991">
        <ele>246.72</ele>
        <time>2019-05-01T10:41:23Z</time>
      </trkpt>
      <trkpt lat="43.48562" lon="5.71981">
        <ele>246.23</ele>
        <time>2019-05-01T10:41:24Z</time>
      </trkpt>
      <trkpt lat="43.48566" lon="5.71972">
        <ele>246.23</ele>
        <time>2019-05-01T10:41:25Z</time>
      </trkpt>
      <trkpt lat="43.48569" lon="5.71963">
        <ele>246.23</ele>
        <time>2019-05-01T10:41:26Z</time>
      </trkpt>
      <trkpt lat="43.48571" lon="5.71953">
        <ele>246.23</ele>
        <time>2019-05-01T10:41:27Z</time>
      </trkpt>
      <trkpt lat="43.48571" lon="5.71943">
        <ele>245.75</ele>
        <time>2019-05-01T10:41:28Z</time>
      </trkpt>
      <trkpt lat="43.48569" lon="5.71931">
        <ele>245.75</ele>
        <time>2019-05-01T10:41:29Z</time>
      </trkpt>
      <trkpt lat="43.48566" lon="5.71918">
        <ele>245.75</ele>
        <time>2019-05-01T10:41:30Z</time>
      </trkpt>
      <trkpt lat="43.48565" lon="5.71904">
        <ele>245.75</ele>
        <time>2019-05-01T10:41:31Z</time>
      </trkpt>
      <trkpt lat="43.48564" lon="5.71889">
        <ele>245.75</ele>
        <time>2019-05-01T10:41:32Z</time>
      </trkpt>
      <trkpt lat="43.48574" lon="5.71725">
        <ele>246.72</ele>
        <time>2019-05-01T10:41:40Z</time>
      </trkpt>
      <trkpt lat="43.48558" lon="5.71513">
        <ele>247.2</ele>
        <time>2019-05-01T10:41:49Z</time>
      </trkpt>
      <trkpt lat="43.48459" lon="5.71181">
        <ele>247.2</ele>
        <time>2019-05-01T10:42:03Z</time>
      </trkpt>
      <trkpt lat="43.48434" lon="5.71083">
        <ele>246.23</ele>
        <time>2019-05-01T10:42:07Z</time>
      </trkpt>
      <trkpt lat="43.48393" lon="5.7092">
        <ele>244.31</ele>
        <time>2019-05-01T10:42:14Z</time>
      </trkpt>
      <trkpt lat="43.48299" lon="5.70555">
        <ele>241.43</ele>
        <time>2019-05-01T10:42:30Z</time>
      </trkpt>
      <trkpt lat="43.48249" lon="5.70268">
        <ele>240.95</ele>
        <time>2019-05-01T10:42:42Z</time>
      </trkpt>
      <trkpt lat="43.48218" lon="5.69984">
        <ele>237.58</ele>
        <time>2019-05-01T10:42:54Z</time>
      </trkpt>
      <trkpt lat="43.48216" lon="5.69947">
        <ele>237.1</ele>
        <time>2019-05-01T10:42:56Z</time>
      </trkpt>
      <trkpt lat="43.48223" lon="5.69874">
        <ele>237.1</ele>
        <time>2019-05-01T10:43:00Z</time>
      </trkpt>
      <trkpt lat="43.48228" lon="5.69855">
        <ele>238.54</ele>
        <time>2019-05-01T10:43:01Z</time>
      </trkpt>
      <trkpt lat="43.48234" lon="5.69836">
        <ele>238.54</ele>
        <time>2019-05-01T10:43:02Z</time>
      </trkpt>
      <trkpt lat="43.48292" lon="5.69668">
        <ele>241.91</ele>
        <time>2019-05-01T10:43:10Z</time>
      </trkpt>
      <trkpt lat="43.48324" lon="5.69552">
        <ele>243.83</ele>
        <time>2019-05-01T10:43:15Z</time>
      </trkpt>
      <trkpt lat="43.48326" lon="5.6953">
        <ele>244.31</ele>
        <time>2019-05-01T10:43:16Z</time>
      </trkpt>
      <trkpt lat="43.48328" lon="5.69506">
        <ele>244.79</ele>
        <time>2019-05-01T10:43:17Z</time>
      </trkpt>
      <trkpt lat="43.48328" lon="5.69482">
        <ele>245.75</ele>
        <time>2019-05-01T10:43:18Z</time>
      </trkpt>
      <trkpt lat="43.48327" lon="5.69455">
        <ele>246.23</ele>
        <time>2019-05-01T10:43:19Z</time>
      </trkpt>
      <trkpt lat="43.48324" lon="5.69432">
        <ele>246.23</ele>
        <time>2019-05-01T10:43:20Z</time>
      </trkpt>
      <trkpt lat="43.48311" lon="5.69165">
        <ele>246.23</ele>
        <time>2019-05-01T10:43:30Z</time>
      </trkpt>
      <trkpt lat="43.48319" lon="5.68813">
        <ele>248.64</ele>
        <time>2019-05-01T10:43:44Z</time>
      </trkpt>
      <trkpt lat="43.48359" lon="5.68542">
        <ele>248.16</ele>
        <time>2019-05-01T10:43:56Z</time>
      </trkpt>
      <trkpt lat="43.48392" lon="5.68398">
        <ele>244.79</ele>
        <time>2019-05-01T10:44:02Z</time>
      </trkpt>
      <trkpt lat="43.48489" lon="5.67993">
        <ele>243.83</ele>
        <time>2019-05-01T10:44:18Z</time>
      </trkpt>
      <trkpt lat="43.48512" lon="5.67914">
        <ele>245.27</ele>
        <time>2019-05-01T10:44:21Z</time>
      </trkpt>
      <trkpt lat="43.48593" lon="5.67634">
        <ele>248.64</ele>
        <time>2019-05-01T10:44:32Z</time>
      </trkpt>
      <trkpt lat="43.48651" lon="5.6744">
        <ele>251.52</ele>
        <time>2019-05-01T10:44:39Z</time>
      </trkpt>
      <trkpt lat="43.48704" lon="5.67285">
        <ele>255.85</ele>
        <time>2019-05-01T10:44:45Z</time>
      </trkpt>
      <trkpt lat="43.48714" lon="5.67259">
        <ele>255.85</ele>
        <time>2019-05-01T10:44:46Z</time>
      </trkpt>
      <trkpt lat="43.48756" lon="5.67164">
        <ele>260.17</ele>
        <time>2019-05-01T10:44:50Z</time>
      </trkpt>
      <trkpt lat="43.48804" lon="5.67079">
        <ele>263.54</ele>
        <time>2019-05-01T10:44:54Z</time>
      </trkpt>
      <trkpt lat="43.48815" lon="5.67055">
        <ele>263.54</ele>
        <time>2019-05-01T10:44:55Z</time>
      </trkpt>
      <trkpt lat="43.48845" lon="5.66983">
        <ele>265.46</ele>
        <time>2019-05-01T10:44:58Z</time>
      </trkpt>
      <trkpt lat="43.48882" lon="5.66874">
        <ele>269.79</ele>
        <time>2019-05-01T10:45:02Z</time>
      </trkpt>
      <trkpt lat="43.48921" lon="5.6674">
        <ele>273.15</ele>
        <time>2019-05-01T10:45:07Z</time>
      </trkpt>
      <trkpt lat="43.48942" lon="5.6667">
        <ele>273.63</ele>
        <time>2019-05-01T10:45:10Z</time>
      </trkpt>
      <trkpt lat="43.49016" lon="5.66414">
        <ele>275.07</ele>
        <time>2019-05-01T10:45:20Z</time>
      </trkpt>
      <trkpt lat="43.49107" lon="5.66092">
        <ele>277</ele>
        <time>2019-05-01T10:45:33Z</time>
      </trkpt>
      <trkpt lat="43.49126" lon="5.65894">
        <ele>279.4</ele>
        <time>2019-05-01T10:45:40Z</time>
      </trkpt>
      <trkpt lat="43.49105" lon="5.65711">
        <ele>280.84</ele>
        <time>2019-05-01T10:45:46Z</time>
      </trkpt>
      <trkpt lat="43.49074" lon="5.65465">
        <ele>278.92</ele>
        <time>2019-05-01T10:45:54Z</time>
      </trkpt>
      <trkpt lat="43.49039" lon="5.65186">
        <ele>281.8</ele>
        <time>2019-05-01T10:46:03Z</time>
      </trkpt>
      <trkpt lat="43.49021" lon="5.65047">
        <ele>284.69</ele>
        <time>2019-05-01T10:46:08Z</time>
      </trkpt>
      <trkpt lat="43.48995" lon="5.64811">
        <ele>289.01</ele>
        <time>2019-05-01T10:46:15Z</time>
      </trkpt>
      <trkpt lat="43.48991" lon="5.64782">
        <ele>289.01</ele>
        <time>2019-05-01T10:46:16Z</time>
      </trkpt>
      <trkpt lat="43.48978" lon="5.64643">
        <ele>285.65</ele>
        <time>2019-05-01T10:46:20Z</time>
      </trkpt>
      <trkpt lat="43.48976" lon="5.64593">
        <ele>284.21</ele>
        <time>2019-05-01T10:46:22Z</time>
      </trkpt>
      <trkpt lat="43.48973" lon="5.64527">
        <ele>279.4</ele>
        <time>2019-05-01T10:46:24Z</time>
      </trkpt>
      <trkpt lat="43.48967" lon="5.64428">
        <ele>276.04</ele>
        <time>2019-05-01T10:46:27Z</time>
      </trkpt>
      <trkpt lat="43.48956" lon="5.64234">
        <ele>272.19</ele>
        <time>2019-05-01T10:46:33Z</time>
      </trkpt>
      <trkpt lat="43.48949" lon="5.64114">
        <ele>269.79</ele>
        <time>2019-05-01T10:46:37Z</time>
      </trkpt>
      <trkpt lat="43.4893" lon="5.63747">
        <ele>271.71</ele>
        <time>2019-05-01T10:46:51Z</time>
      </trkpt>
      <trkpt lat="43.48925" lon="5.63585">
        <ele>266.9</ele>
        <time>2019-05-01T10:46:59Z</time>
      </trkpt>
      <trkpt lat="43.48924" lon="5.63484">
        <ele>263.54</ele>
        <time>2019-05-01T10:47:03Z</time>
      </trkpt>
      <trkpt lat="43.48923" lon="5.63461">
        <ele>263.54</ele>
        <time>2019-05-01T10:47:04Z</time>
      </trkpt>
      <trkpt lat="43.48922" lon="5.63357">
        <ele>259.69</ele>
        <time>2019-05-01T10:47:09Z</time>
      </trkpt>
      <trkpt lat="43.4892" lon="5.63279">
        <ele>257.77</ele>
        <time>2019-05-01T10:47:12Z</time>
      </trkpt>
      <trkpt lat="43.48916" lon="5.63166">
        <ele>254.41</ele>
        <time>2019-05-01T10:47:17Z</time>
      </trkpt>
      <trkpt lat="43.48915" lon="5.63105">
        <ele>251.52</ele>
        <time>2019-05-01T10:47:20Z</time>
      </trkpt>
      <trkpt lat="43.4892" lon="5.63031">
        <ele>248.16</ele>
        <time>2019-05-01T10:47:24Z</time>
      </trkpt>
      <trkpt lat="43.48925" lon="5.63005">
        <ele>246.23</ele>
        <time>2019-05-01T10:47:26Z</time>
      </trkpt>
      <trkpt lat="43.48929" lon="5.62997">
        <ele>245.27</ele>
        <time>2019-05-01T10:47:27Z</time>
      </trkpt>
      <trkpt lat="43.48936" lon="5.62991">
        <ele>245.27</ele>
        <time>2019-05-01T10:47:28Z</time>
      </trkpt>
      <trkpt lat="43.48946" lon="5.62989">
        <ele>245.75</ele>
        <time>2019-05-01T10:47:30Z</time>
      </trkpt>
      <trkpt lat="43.48958" lon="5.62988">
        <ele>245.27</ele>
        <time>2019-05-01T10:47:31Z</time>
      </trkpt>
      <trkpt lat="43.4904" lon="5.62967">
        <ele>245.75</ele>
        <time>2019-05-01T10:47:38Z</time>
      </trkpt>
      <trkpt lat="43.49088" lon="5.62951">
        <ele>248.16</ele>
        <time>2019-05-01T10:47:41Z</time>
      </trkpt>
      <trkpt lat="43.49189" lon="5.62918">
        <ele>251.52</ele>
        <time>2019-05-01T10:47:47Z</time>
      </trkpt>
      <trkpt lat="43.49291" lon="5.6289">
        <ele>254.89</ele>
        <time>2019-05-01T10:47:53Z</time>
      </trkpt>
      <trkpt lat="43.49386" lon="5.62868">
        <ele>258.73</ele>
        <time>2019-05-01T10:47:58Z</time>
      </trkpt>
      <trkpt lat="43.49479" lon="5.62848">
        <ele>262.1</ele>
        <time>2019-05-01T10:48:03Z</time>
      </trkpt>
      <trkpt lat="43.49549" lon="5.62836">
        <ele>265.46</ele>
        <time>2019-05-01T10:48:07Z</time>
      </trkpt>
      <trkpt lat="43.49618" lon="5.62836">
        <ele>269.79</ele>
        <time>2019-05-01T10:48:11Z</time>
      </trkpt>
      <trkpt lat="43.49649" lon="5.62834">
        <ele>271.71</ele>
        <time>2019-05-01T10:48:13Z</time>
      </trkpt>
      <trkpt lat="43.49665" lon="5.62829">
        <ele>273.15</ele>
        <time>2019-05-01T10:48:14Z</time>
      </trkpt>
      <trkpt lat="43.49679" lon="5.62821">
        <ele>274.11</ele>
        <time>2019-05-01T10:48:15Z</time>
      </trkpt>
      <trkpt lat="43.49721" lon="5.62794">
        <ele>277.48</ele>
        <time>2019-05-01T10:48:18Z</time>
      </trkpt>
      <trkpt lat="43.49764" lon="5.62767">
        <ele>280.36</ele>
        <time>2019-05-01T10:48:21Z</time>
      </trkpt>
      <trkpt lat="43.49792" lon="5.62752">
        <ele>282.28</ele>
        <time>2019-05-01T10:48:23Z</time>
      </trkpt>
      <trkpt lat="43.498" lon="5.62751">
        <ele>282.77</ele>
        <time>2019-05-01T10:48:24Z</time>
      </trkpt>
      <trkpt lat="43.49813" lon="5.62752">
        <ele>283.73</ele>
        <time>2019-05-01T10:48:25Z</time>
      </trkpt>
      <trkpt lat="43.49821" lon="5.62756">
        <ele>284.21</ele>
        <time>2019-05-01T10:48:26Z</time>
      </trkpt>
      <trkpt lat="43.4983" lon="5.62766">
        <ele>284.69</ele>
        <time>2019-05-01T10:48:27Z</time>
      </trkpt>
      <trkpt lat="43.49838" lon="5.62781">
        <ele>285.65</ele>
        <time>2019-05-01T10:48:28Z</time>
      </trkpt>
      <trkpt lat="43.49845" lon="5.62798">
        <ele>286.13</ele>
        <time>2019-05-01T10:48:29Z</time>
      </trkpt>
      <trkpt lat="43.49909" lon="5.62954">
        <ele>284.21</ele>
        <time>2019-05-01T10:48:38Z</time>
      </trkpt>
      <trkpt lat="43.49918" lon="5.62964">
        <ele>284.21</ele>
        <time>2019-05-01T10:48:39Z</time>
      </trkpt>
      <trkpt lat="43.49929" lon="5.62971">
        <ele>284.21</ele>
        <time>2019-05-01T10:48:40Z</time>
      </trkpt>
      <trkpt lat="43.49942" lon="5.62975">
        <ele>284.21</ele>
        <time>2019-05-01T10:48:41Z</time>
      </trkpt>
      <trkpt lat="43.49957" lon="5.62978">
        <ele>284.21</ele>
        <time>2019-05-01T10:48:42Z</time>
      </trkpt>
      <trkpt lat="43.50055" lon="5.62996">
        <ele>282.77</ele>
        <time>2019-05-01T10:48:50Z</time>
      </trkpt>
      <trkpt lat="43.50061" lon="5.62998">
        <ele>282.77</ele>
        <time>2019-05-01T10:48:51Z</time>
      </trkpt>
      <trkpt lat="43.50071" lon="5.63004">
        <ele>283.25</ele>
        <time>2019-05-01T10:48:57Z</time>
      </trkpt>
      <trkpt lat="43.50068" lon="5.63004">
        <ele>283.25</ele>
        <time>2019-05-01T10:49:06Z</time>
      </trkpt>
      <trkpt lat="43.50071" lon="5.63004">
        <ele>284.21</ele>
        <time>2019-05-01T10:49:07Z</time>
      </trkpt>
      <trkpt lat="43.50085" lon="5.63002">
        <ele>284.21</ele>
        <time>2019-05-01T10:49:10Z</time>
      </trkpt>
      <trkpt lat="43.50094" lon="5.63003">
        <ele>284.69</ele>
        <time>2019-05-01T10:49:11Z</time>
      </trkpt>
      <trkpt lat="43.50175" lon="5.63018">
        <ele>286.61</ele>
        <time>2019-05-01T10:49:22Z</time>
      </trkpt>
      <trkpt lat="43.50179" lon="5.63018">
        <ele>286.61</ele>
        <time>2019-05-01T10:49:30Z</time>
      </trkpt>
      <trkpt lat="43.5018" lon="5.63018">
        <ele>286.61</ele>
        <time>2019-05-01T10:49:31Z</time>
      </trkpt>
      <trkpt lat="43.50182" lon="5.63018">
        <ele>286.61</ele>
        <time>2019-05-01T10:49:32Z</time>
      </trkpt>
      <trkpt lat="43.50186" lon="5.63018">
        <ele>287.09</ele>
        <time>2019-05-01T10:49:33Z</time>
      </trkpt>
      <trkpt lat="43.5025" lon="5.6302">
        <ele>290.46</ele>
        <time>2019-05-01T10:49:42Z</time>
      </trkpt>
      <trkpt lat="43.50295" lon="5.63023">
        <ele>293.82</ele>
        <time>2019-05-01T10:49:47Z</time>
      </trkpt>
      <trkpt lat="43.5034" lon="5.63026">
        <ele>297.18</ele>
        <time>2019-05-01T10:49:51Z</time>
      </trkpt>
      <trkpt lat="43.50386" lon="5.63029">
        <ele>301.03</ele>
        <time>2019-05-01T10:49:55Z</time>
      </trkpt>
      <trkpt lat="43.50424" lon="5.6303">
        <ele>304.88</ele>
        <time>2019-05-01T10:49:58Z</time>
      </trkpt>
      <trkpt lat="43.5046" lon="5.63032">
        <ele>309.2</ele>
        <time>2019-05-01T10:50:01Z</time>
      </trkpt>
      <trkpt lat="43.50482" lon="5.63037">
        <ele>312.57</ele>
        <time>2019-05-01T10:50:03Z</time>
      </trkpt>
      <trkpt lat="43.50514" lon="5.63049">
        <ele>315.45</ele>
        <time>2019-05-01T10:50:06Z</time>
      </trkpt>
      <trkpt lat="43.50532" lon="5.63054">
        <ele>316.89</ele>
        <time>2019-05-01T10:50:08Z</time>
      </trkpt>
      <trkpt lat="43.50539" lon="5.63053">
        <ele>317.85</ele>
        <time>2019-05-01T10:50:09Z</time>
      </trkpt>
      <trkpt lat="43.50546" lon="5.63047">
        <ele>319.3</ele>
        <time>2019-05-01T10:50:10Z</time>
      </trkpt>
      <trkpt lat="43.50549" lon="5.63037">
        <ele>320.26</ele>
        <time>2019-05-01T10:50:11Z</time>
      </trkpt>
      <trkpt lat="43.5055" lon="5.63026">
        <ele>321.22</ele>
        <time>2019-05-01T10:50:12Z</time>
      </trkpt>
      <trkpt lat="43.50548" lon="5.63017">
        <ele>325.54</ele>
        <time>2019-05-01T10:50:13Z</time>
      </trkpt>
      <trkpt lat="43.50542" lon="5.63008">
        <ele>326.99</ele>
        <time>2019-05-01T10:50:14Z</time>
      </trkpt>
      <trkpt lat="43.50534" lon="5.63001">
        <ele>326.99</ele>
        <time>2019-05-01T10:50:15Z</time>
      </trkpt>
      <trkpt lat="43.50526" lon="5.62994">
        <ele>327.47</ele>
        <time>2019-05-01T10:50:16Z</time>
      </trkpt>
      <trkpt lat="43.50509" lon="5.6298">
        <ele>328.91</ele>
        <time>2019-05-01T10:50:18Z</time>
      </trkpt>
      <trkpt lat="43.50502" lon="5.62971">
        <ele>329.39</ele>
        <time>2019-05-01T10:50:19Z</time>
      </trkpt>
      <trkpt lat="43.50496" lon="5.62961">
        <ele>330.35</ele>
        <time>2019-05-01T10:50:20Z</time>
      </trkpt>
      <trkpt lat="43.50491" lon="5.62949">
        <ele>330.83</ele>
        <time>2019-05-01T10:50:21Z</time>
      </trkpt>
      <trkpt lat="43.50487" lon="5.62937">
        <ele>331.79</ele>
        <time>2019-05-01T10:50:22Z</time>
      </trkpt>
      <trkpt lat="43.50485" lon="5.62922">
        <ele>333.23</ele>
        <time>2019-05-01T10:50:23Z</time>
      </trkpt>
      <trkpt lat="43.50484" lon="5.62907">
        <ele>334.68</ele>
        <time>2019-05-01T10:50:24Z</time>
      </trkpt>
      <trkpt lat="43.50483" lon="5.62891">
        <ele>335.64</ele>
        <time>2019-05-01T10:50:25Z</time>
      </trkpt>
      <trkpt lat="43.50471" lon="5.62821">
        <ele>339</ele>
        <time>2019-05-01T10:50:29Z</time>
      </trkpt>
      <trkpt lat="43.50461" lon="5.62754">
        <ele>342.37</ele>
        <time>2019-05-01T10:50:33Z</time>
      </trkpt>
      <trkpt lat="43.5046" lon="5.62703">
        <ele>344.77</ele>
        <time>2019-05-01T10:50:36Z</time>
      </trkpt>
      <trkpt lat="43.50463" lon="5.62653">
        <ele>348.13</ele>
        <time>2019-05-01T10:50:39Z</time>
      </trkpt>
      <trkpt lat="43.50467" lon="5.62637">
        <ele>349.1</ele>
        <time>2019-05-01T10:50:40Z</time>
      </trkpt>
      <trkpt lat="43.50472" lon="5.62622">
        <ele>349.58</ele>
        <time>2019-05-01T10:50:41Z</time>
      </trkpt>
      <trkpt lat="43.50476" lon="5.62608">
        <ele>350.06</ele>
        <time>2019-05-01T10:50:42Z</time>
      </trkpt>
      <trkpt lat="43.50479" lon="5.62592">
        <ele>351.02</ele>
        <time>2019-05-01T10:50:43Z</time>
      </trkpt>
      <trkpt lat="43.50481" lon="5.62576">
        <ele>352.46</ele>
        <time>2019-05-01T10:50:44Z</time>
      </trkpt>
      <trkpt lat="43.50481" lon="5.62559">
        <ele>353.9</ele>
        <time>2019-05-01T10:50:45Z</time>
      </trkpt>
      <trkpt lat="43.50479" lon="5.62542">
        <ele>354.86</ele>
        <time>2019-05-01T10:50:46Z</time>
      </trkpt>
      <trkpt lat="43.50476" lon="5.62526">
        <ele>355.83</ele>
        <time>2019-05-01T10:50:47Z</time>
      </trkpt>
      <trkpt lat="43.50473" lon="5.62512">
        <ele>356.31</ele>
        <time>2019-05-01T10:50:48Z</time>
      </trkpt>
      <trkpt lat="43.50467" lon="5.62487">
        <ele>355.83</ele>
        <time>2019-05-01T10:50:50Z</time>
      </trkpt>
      <trkpt lat="43.50466" lon="5.62474">
        <ele>356.31</ele>
        <time>2019-05-01T10:50:51Z</time>
      </trkpt>
      <trkpt lat="43.50467" lon="5.62462">
        <ele>357.27</ele>
        <time>2019-05-01T10:50:52Z</time>
      </trkpt>
      <trkpt lat="43.50471" lon="5.62449">
        <ele>358.23</ele>
        <time>2019-05-01T10:50:53Z</time>
      </trkpt>
      <trkpt lat="43.50475" lon="5.62435">
        <ele>359.67</ele>
        <time>2019-05-01T10:50:54Z</time>
      </trkpt>
      <trkpt lat="43.50478" lon="5.6242">
        <ele>361.11</ele>
        <time>2019-05-01T10:50:55Z</time>
      </trkpt>
      <trkpt lat="43.50481" lon="5.62405">
        <ele>364</ele>
        <time>2019-05-01T10:50:56Z</time>
      </trkpt>
      <trkpt lat="43.50486" lon="5.62352">
        <ele>367.84</ele>
        <time>2019-05-01T10:50:59Z</time>
      </trkpt>
      <trkpt lat="43.50487" lon="5.62333">
        <ele>367.84</ele>
        <time>2019-05-01T10:51:00Z</time>
      </trkpt>
      <trkpt lat="43.5049" lon="5.62296">
        <ele>372.17</ele>
        <time>2019-05-01T10:51:02Z</time>
      </trkpt>
      <trkpt lat="43.50491" lon="5.62261">
        <ele>372.65</ele>
        <time>2019-05-01T10:51:04Z</time>
      </trkpt>
      <trkpt lat="43.5049" lon="5.62245">
        <ele>374.09</ele>
        <time>2019-05-01T10:51:05Z</time>
      </trkpt>
      <trkpt lat="43.50488" lon="5.62229">
        <ele>374.57</ele>
        <time>2019-05-01T10:51:06Z</time>
      </trkpt>
      <trkpt lat="43.50483" lon="5.62215">
        <ele>375.53</ele>
        <time>2019-05-01T10:51:07Z</time>
      </trkpt>
      <trkpt lat="43.50476" lon="5.622">
        <ele>376.01</ele>
        <time>2019-05-01T10:51:08Z</time>
      </trkpt>
      <trkpt lat="43.50469" lon="5.62186">
        <ele>377.45</ele>
        <time>2019-05-01T10:51:09Z</time>
      </trkpt>
      <trkpt lat="43.50462" lon="5.62173">
        <ele>378.9</ele>
        <time>2019-05-01T10:51:10Z</time>
      </trkpt>
      <trkpt lat="43.50457" lon="5.62159">
        <ele>378.9</ele>
        <time>2019-05-01T10:51:11Z</time>
      </trkpt>
      <trkpt lat="43.50453" lon="5.62145">
        <ele>378.9</ele>
        <time>2019-05-01T10:51:12Z</time>
      </trkpt>
      <trkpt lat="43.50446" lon="5.62114">
        <ele>380.82</ele>
        <time>2019-05-01T10:51:14Z</time>
      </trkpt>
      <trkpt lat="43.50431" lon="5.6207">
        <ele>381.78</ele>
        <time>2019-05-01T10:51:17Z</time>
      </trkpt>
      <trkpt lat="43.50425" lon="5.62058">
        <ele>383.7</ele>
        <time>2019-05-01T10:51:18Z</time>
      </trkpt>
      <trkpt lat="43.5042" lon="5.62047">
        <ele>383.7</ele>
        <time>2019-05-01T10:51:19Z</time>
      </trkpt>
      <trkpt lat="43.50417" lon="5.62035">
        <ele>383.7</ele>
        <time>2019-05-01T10:51:20Z</time>
      </trkpt>
      <trkpt lat="43.50416" lon="5.62021">
        <ele>383.7</ele>
        <time>2019-05-01T10:51:21Z</time>
      </trkpt>
      <trkpt lat="43.50415" lon="5.62008">
        <ele>384.66</ele>
        <time>2019-05-01T10:51:22Z</time>
      </trkpt>
      <trkpt lat="43.50414" lon="5.61994">
        <ele>386.59</ele>
        <time>2019-05-01T10:51:23Z</time>
      </trkpt>
      <trkpt lat="43.50411" lon="5.61978">
        <ele>388.03</ele>
        <time>2019-05-01T10:51:24Z</time>
      </trkpt>
      <trkpt lat="43.50403" lon="5.61931">
        <ele>390.43</ele>
        <time>2019-05-01T10:51:27Z</time>
      </trkpt>
      <trkpt lat="43.50403" lon="5.61913">
        <ele>391.39</ele>
        <time>2019-05-01T10:51:28Z</time>
      </trkpt>
      <trkpt lat="43.50401" lon="5.61878">
        <ele>394.76</ele>
        <time>2019-05-01T10:51:30Z</time>
      </trkpt>
      <trkpt lat="43.50398" lon="5.61841">
        <ele>396.68</ele>
        <time>2019-05-01T10:51:32Z</time>
      </trkpt>
      <trkpt lat="43.50398" lon="5.61823">
        <ele>397.64</ele>
        <time>2019-05-01T10:51:33Z</time>
      </trkpt>
      <trkpt lat="43.50398" lon="5.61805">
        <ele>398.12</ele>
        <time>2019-05-01T10:51:34Z</time>
      </trkpt>
      <trkpt lat="43.504" lon="5.6177">
        <ele>401.49</ele>
        <time>2019-05-01T10:51:36Z</time>
      </trkpt>
      <trkpt lat="43.50399" lon="5.61752">
        <ele>401.97</ele>
        <time>2019-05-01T10:51:37Z</time>
      </trkpt>
      <trkpt lat="43.50398" lon="5.61737">
        <ele>401.97</ele>
        <time>2019-05-01T10:51:38Z</time>
      </trkpt>
      <trkpt lat="43.50395" lon="5.61722">
        <ele>401.97</ele>
        <time>2019-05-01T10:51:39Z</time>
      </trkpt>
      <trkpt lat="43.50392" lon="5.61707">
        <ele>402.45</ele>
        <time>2019-05-01T10:51:40Z</time>
      </trkpt>
      <trkpt lat="43.50391" lon="5.61693">
        <ele>403.89</ele>
        <time>2019-05-01T10:51:41Z</time>
      </trkpt>
      <trkpt lat="43.50393" lon="5.61679">
        <ele>403.89</ele>
        <time>2019-05-01T10:51:42Z</time>
      </trkpt>
      <trkpt lat="43.50395" lon="5.61664">
        <ele>404.37</ele>
        <time>2019-05-01T10:51:43Z</time>
      </trkpt>
      <trkpt lat="43.50397" lon="5.6165">
        <ele>406.29</ele>
        <time>2019-05-01T10:51:44Z</time>
      </trkpt>
      <trkpt lat="43.50398" lon="5.61635">
        <ele>407.26</ele>
        <time>2019-05-01T10:51:45Z</time>
      </trkpt>
      <trkpt lat="43.50398" lon="5.61622">
        <ele>407.26</ele>
        <time>2019-05-01T10:51:46Z</time>
      </trkpt>
      <trkpt lat="43.50396" lon="5.61608">
        <ele>407.26</ele>
        <time>2019-05-01T10:51:47Z</time>
      </trkpt>
      <trkpt lat="43.50394" lon="5.61595">
        <ele>408.22</ele>
        <time>2019-05-01T10:51:48Z</time>
      </trkpt>
      <trkpt lat="43.50389" lon="5.61549">
        <ele>412.06</ele>
        <time>2019-05-01T10:51:51Z</time>
      </trkpt>
      <trkpt lat="43.50379" lon="5.61501">
        <ele>416.39</ele>
        <time>2019-05-01T10:51:54Z</time>
      </trkpt>
      <trkpt lat="43.50368" lon="5.61453">
        <ele>418.79</ele>
        <time>2019-05-01T10:51:57Z</time>
      </trkpt>
      <trkpt lat="43.50358" lon="5.61397">
        <ele>419.27</ele>
        <time>2019-05-01T10:52:01Z</time>
      </trkpt>
      <trkpt lat="43.50359" lon="5.61386">
        <ele>419.27</ele>
        <time>2019-05-01T10:52:02Z</time>
      </trkpt>
      <trkpt lat="43.50362" lon="5.61379">
        <ele>419.27</ele>
        <time>2019-05-01T10:52:03Z</time>
      </trkpt>
      <trkpt lat="43.50367" lon="5.61376">
        <ele>419.27</ele>
        <time>2019-05-01T10:52:04Z</time>
      </trkpt>
      <trkpt lat="43.50373" lon="5.61377">
        <ele>419.27</ele>
        <time>2019-05-01T10:52:05Z</time>
      </trkpt>
      <trkpt lat="43.50377" lon="5.61383">
        <ele>420.71</ele>
        <time>2019-05-01T10:52:06Z</time>
      </trkpt>
      <trkpt lat="43.50381" lon="5.61391">
        <ele>421.68</ele>
        <time>2019-05-01T10:52:07Z</time>
      </trkpt>
      <trkpt lat="43.50385" lon="5.61401">
        <ele>422.64</ele>
        <time>2019-05-01T10:52:08Z</time>
      </trkpt>
      <trkpt lat="43.50402" lon="5.61431">
        <ele>426.48</ele>
        <time>2019-05-01T10:52:11Z</time>
      </trkpt>
      <trkpt lat="43.50409" lon="5.61441">
        <ele>427.92</ele>
        <time>2019-05-01T10:52:12Z</time>
      </trkpt>
      <trkpt lat="43.50437" lon="5.61481">
        <ele>432.25</ele>
        <time>2019-05-01T10:52:16Z</time>
      </trkpt>
      <trkpt lat="43.50444" lon="5.61493">
        <ele>433.69</ele>
        <time>2019-05-01T10:52:17Z</time>
      </trkpt>
      <trkpt lat="43.50449" lon="5.61506">
        <ele>435.13</ele>
        <time>2019-05-01T10:52:18Z</time>
      </trkpt>
      <trkpt lat="43.50453" lon="5.6152">
        <ele>436.58</ele>
        <time>2019-05-01T10:52:19Z</time>
      </trkpt>
      <trkpt lat="43.50465" lon="5.61564">
        <ele>440.9</ele>
        <time>2019-05-01T10:52:22Z</time>
      </trkpt>
      <trkpt lat="43.50478" lon="5.61625">
        <ele>444.75</ele>
        <time>2019-05-01T10:52:26Z</time>
      </trkpt>
      <trkpt lat="43.50483" lon="5.61641">
        <ele>445.23</ele>
        <time>2019-05-01T10:52:27Z</time>
      </trkpt>
      <trkpt lat="43.50489" lon="5.61656">
        <ele>446.19</ele>
        <time>2019-05-01T10:52:28Z</time>
      </trkpt>
      <trkpt lat="43.50502" lon="5.61686">
        <ele>447.63</ele>
        <time>2019-05-01T10:52:30Z</time>
      </trkpt>
      <trkpt lat="43.50506" lon="5.61701">
        <ele>449.07</ele>
        <time>2019-05-01T10:52:31Z</time>
      </trkpt>
      <trkpt lat="43.5051" lon="5.61717">
        <ele>449.07</ele>
        <time>2019-05-01T10:52:32Z</time>
      </trkpt>
      <trkpt lat="43.50517" lon="5.61763">
        <ele>451.48</ele>
        <time>2019-05-01T10:52:35Z</time>
      </trkpt>
      <trkpt lat="43.50522" lon="5.61779">
        <ele>453.4</ele>
        <time>2019-05-01T10:52:36Z</time>
      </trkpt>
      <trkpt lat="43.50527" lon="5.61792">
        <ele>453.88</ele>
        <time>2019-05-01T10:52:37Z</time>
      </trkpt>
      <trkpt lat="43.50533" lon="5.61805">
        <ele>454.36</ele>
        <time>2019-05-01T10:52:38Z</time>
      </trkpt>
      <trkpt lat="43.5054" lon="5.61815">
        <ele>455.32</ele>
        <time>2019-05-01T10:52:39Z</time>
      </trkpt>
      <trkpt lat="43.50546" lon="5.61824">
        <ele>455.32</ele>
        <time>2019-05-01T10:52:40Z</time>
      </trkpt>
      <trkpt lat="43.50554" lon="5.61831">
        <ele>456.28</ele>
        <time>2019-05-01T10:52:41Z</time>
      </trkpt>
      <trkpt lat="43.50562" lon="5.61835">
        <ele>457.24</ele>
        <time>2019-05-01T10:52:42Z</time>
      </trkpt>
      <trkpt lat="43.50571" lon="5.61838">
        <ele>457.72</ele>
        <time>2019-05-01T10:52:43Z</time>
      </trkpt>
      <trkpt lat="43.50581" lon="5.61839">
        <ele>458.21</ele>
        <time>2019-05-01T10:52:44Z</time>
      </trkpt>
      <trkpt lat="43.5059" lon="5.61838">
        <ele>458.69</ele>
        <time>2019-05-01T10:52:45Z</time>
      </trkpt>
      <trkpt lat="43.506" lon="5.61836">
        <ele>458.69</ele>
        <time>2019-05-01T10:52:46Z</time>
      </trkpt>
      <trkpt lat="43.50656" lon="5.61824">
        <ele>456.28</ele>
        <time>2019-05-01T10:52:51Z</time>
      </trkpt>
      <trkpt lat="43.50715" lon="5.61811">
        <ele>454.84</ele>
        <time>2019-05-01T10:52:56Z</time>
      </trkpt>
      <trkpt lat="43.50834" lon="5.61762">
        <ele>452.44</ele>
        <time>2019-05-01T10:53:05Z</time>
      </trkpt>
      <trkpt lat="43.50876" lon="5.61733">
        <ele>453.88</ele>
        <time>2019-05-01T10:53:08Z</time>
      </trkpt>
      <trkpt lat="43.50989" lon="5.61673">
        <ele>452.44</ele>
        <time>2019-05-01T10:53:16Z</time>
      </trkpt>
      <trkpt lat="43.51084" lon="5.6167">
        <ele>451</ele>
        <time>2019-05-01T10:53:24Z</time>
      </trkpt>
      <trkpt lat="43.51094" lon="5.61674">
        <ele>451</ele>
        <time>2019-05-01T10:53:25Z</time>
      </trkpt>
      <trkpt lat="43.51104" lon="5.61679">
        <ele>451</ele>
        <time>2019-05-01T10:53:26Z</time>
      </trkpt>
      <trkpt lat="43.51114" lon="5.61687">
        <ele>451</ele>
        <time>2019-05-01T10:53:27Z</time>
      </trkpt>
      <trkpt lat="43.51123" lon="5.61697">
        <ele>453.88</ele>
        <time>2019-05-01T10:53:28Z</time>
      </trkpt>
      <trkpt lat="43.51131" lon="5.61705">
        <ele>453.88</ele>
        <time>2019-05-01T10:53:29Z</time>
      </trkpt>
      <trkpt lat="43.51155" lon="5.61724">
        <ele>454.84</ele>
        <time>2019-05-01T10:53:32Z</time>
      </trkpt>
      <trkpt lat="43.51164" lon="5.61726">
        <ele>455.32</ele>
        <time>2019-05-01T10:53:33Z</time>
      </trkpt>
      <trkpt lat="43.51172" lon="5.61724">
        <ele>456.28</ele>
        <time>2019-05-01T10:53:34Z</time>
      </trkpt>
      <trkpt lat="43.51178" lon="5.61719">
        <ele>456.76</ele>
        <time>2019-05-01T10:53:35Z</time>
      </trkpt>
      <trkpt lat="43.51184" lon="5.61711">
        <ele>458.21</ele>
        <time>2019-05-01T10:53:36Z</time>
      </trkpt>
      <trkpt lat="43.51189" lon="5.61702">
        <ele>459.65</ele>
        <time>2019-05-01T10:53:37Z</time>
      </trkpt>
      <trkpt lat="43.51191" lon="5.61691">
        <ele>460.61</ele>
        <time>2019-05-01T10:53:38Z</time>
      </trkpt>
      <trkpt lat="43.51192" lon="5.61677">
        <ele>462.05</ele>
        <time>2019-05-01T10:53:39Z</time>
      </trkpt>
      <trkpt lat="43.512" lon="5.61608">
        <ele>465.42</ele>
        <time>2019-05-01T10:53:44Z</time>
      </trkpt>
      <trkpt lat="43.51201" lon="5.61593">
        <ele>465.42</ele>
        <time>2019-05-01T10:53:45Z</time>
      </trkpt>
      <trkpt lat="43.512" lon="5.61562">
        <ele>468.78</ele>
        <time>2019-05-01T10:53:47Z</time>
      </trkpt>
      <trkpt lat="43.51195" lon="5.61514">
        <ele>471.66</ele>
        <time>2019-05-01T10:53:50Z</time>
      </trkpt>
      <trkpt lat="43.51184" lon="5.61466">
        <ele>475.99</ele>
        <time>2019-05-01T10:53:53Z</time>
      </trkpt>
      <trkpt lat="43.5117" lon="5.61418">
        <ele>479.84</ele>
        <time>2019-05-01T10:53:56Z</time>
      </trkpt>
      <trkpt lat="43.5116" lon="5.61386">
        <ele>480.8</ele>
        <time>2019-05-01T10:53:58Z</time>
      </trkpt>
      <trkpt lat="43.51134" lon="5.61299">
        <ele>484.16</ele>
        <time>2019-05-01T10:54:05Z</time>
      </trkpt>
      <trkpt lat="43.51124" lon="5.61247">
        <ele>487.05</ele>
        <time>2019-05-01T10:54:09Z</time>
      </trkpt>
      <trkpt lat="43.51117" lon="5.61213">
        <ele>488.01</ele>
        <time>2019-05-01T10:54:12Z</time>
      </trkpt>
      <trkpt lat="43.51099" lon="5.61169">
        <ele>491.37</ele>
        <time>2019-05-01T10:54:16Z</time>
      </trkpt>
      <trkpt lat="43.51073" lon="5.61127">
        <ele>494.26</ele>
        <time>2019-05-01T10:54:20Z</time>
      </trkpt>
      <trkpt lat="43.51068" lon="5.61116">
        <ele>495.22</ele>
        <time>2019-05-01T10:54:21Z</time>
      </trkpt>
      <trkpt lat="43.51065" lon="5.61106">
        <ele>495.7</ele>
        <time>2019-05-01T10:54:22Z</time>
      </trkpt>
      <trkpt lat="43.51065" lon="5.61096">
        <ele>495.7</ele>
        <time>2019-05-01T10:54:23Z</time>
      </trkpt>
      <trkpt lat="43.51068" lon="5.61086">
        <ele>496.18</ele>
        <time>2019-05-01T10:54:24Z</time>
      </trkpt>
      <trkpt lat="43.51073" lon="5.61079">
        <ele>497.14</ele>
        <time>2019-05-01T10:54:25Z</time>
      </trkpt>
      <trkpt lat="43.51079" lon="5.61074">
        <ele>496.66</ele>
        <time>2019-05-01T10:54:26Z</time>
      </trkpt>
      <trkpt lat="43.51087" lon="5.61071">
        <ele>497.14</ele>
        <time>2019-05-01T10:54:27Z</time>
      </trkpt>
      <trkpt lat="43.51094" lon="5.61071">
        <ele>497.62</ele>
        <time>2019-05-01T10:54:28Z</time>
      </trkpt>
      <trkpt lat="43.51103" lon="5.61074">
        <ele>498.1</ele>
        <time>2019-05-01T10:54:29Z</time>
      </trkpt>
      <trkpt lat="43.51111" lon="5.61077">
        <ele>498.58</ele>
        <time>2019-05-01T10:54:30Z</time>
      </trkpt>
      <trkpt lat="43.51144" lon="5.6109">
        <ele>500.98</ele>
        <time>2019-05-01T10:54:34Z</time>
      </trkpt>
      <trkpt lat="43.51151" lon="5.6109">
        <ele>501.46</ele>
        <time>2019-05-01T10:54:35Z</time>
      </trkpt>
      <trkpt lat="43.51157" lon="5.61087">
        <ele>501.46</ele>
        <time>2019-05-01T10:54:36Z</time>
      </trkpt>
      <trkpt lat="43.51163" lon="5.61083">
        <ele>501.95</ele>
        <time>2019-05-01T10:54:37Z</time>
      </trkpt>
      <trkpt lat="43.5117" lon="5.61077">
        <ele>501.95</ele>
        <time>2019-05-01T10:54:38Z</time>
      </trkpt>
      <trkpt lat="43.51177" lon="5.61071">
        <ele>502.91</ele>
        <time>2019-05-01T10:54:39Z</time>
      </trkpt>
      <trkpt lat="43.51236" lon="5.60971">
        <ele>503.39</ele>
        <time>2019-05-01T10:54:48Z</time>
      </trkpt>
      <trkpt lat="43.51269" lon="5.60894">
        <ele>500.02</ele>
        <time>2019-05-01T10:54:53Z</time>
      </trkpt>
      <trkpt lat="43.51277" lon="5.60878">
        <ele>500.02</ele>
        <time>2019-05-01T10:54:54Z</time>
      </trkpt>
      <trkpt lat="43.51304" lon="5.60817">
        <ele>496.18</ele>
        <time>2019-05-01T10:54:58Z</time>
      </trkpt>
      <trkpt lat="43.51312" lon="5.60804">
        <ele>494.74</ele>
        <time>2019-05-01T10:54:59Z</time>
      </trkpt>
      <trkpt lat="43.51319" lon="5.60794">
        <ele>494.26</ele>
        <time>2019-05-01T10:55:00Z</time>
      </trkpt>
      <trkpt lat="43.51345" lon="5.60766">
        <ele>493.77</ele>
        <time>2019-05-01T10:55:03Z</time>
      </trkpt>
      <trkpt lat="43.51356" lon="5.60758">
        <ele>493.77</ele>
        <time>2019-05-01T10:55:04Z</time>
      </trkpt>
      <trkpt lat="43.51379" lon="5.60742">
        <ele>492.33</ele>
        <time>2019-05-01T10:55:06Z</time>
      </trkpt>
      <trkpt lat="43.51403" lon="5.60727">
        <ele>490.89</ele>
        <time>2019-05-01T10:55:08Z</time>
      </trkpt>
      <trkpt lat="43.51414" lon="5.60722">
        <ele>491.37</ele>
        <time>2019-05-01T10:55:09Z</time>
      </trkpt>
      <trkpt lat="43.5145" lon="5.60712">
        <ele>489.93</ele>
        <time>2019-05-01T10:55:12Z</time>
      </trkpt>
      <trkpt lat="43.51499" lon="5.60685">
        <ele>487.53</ele>
        <time>2019-05-01T10:55:16Z</time>
      </trkpt>
      <trkpt lat="43.51567" lon="5.60636">
        <ele>483.68</ele>
        <time>2019-05-01T10:55:22Z</time>
      </trkpt>
      <trkpt lat="43.51578" lon="5.60629">
        <ele>483.68</ele>
        <time>2019-05-01T10:55:23Z</time>
      </trkpt>
      <trkpt lat="43.51609" lon="5.60605">
        <ele>483.2</ele>
        <time>2019-05-01T10:55:26Z</time>
      </trkpt>
      <trkpt lat="43.51616" lon="5.60594">
        <ele>483.2</ele>
        <time>2019-05-01T10:55:27Z</time>
      </trkpt>
      <trkpt lat="43.51647" lon="5.60551">
        <ele>480.32</ele>
        <time>2019-05-01T10:55:31Z</time>
      </trkpt>
      <trkpt lat="43.51655" lon="5.60543">
        <ele>480.32</ele>
        <time>2019-05-01T10:55:32Z</time>
      </trkpt>
      <trkpt lat="43.51664" lon="5.60539">
        <ele>479.84</ele>
        <time>2019-05-01T10:55:33Z</time>
      </trkpt>
      <trkpt lat="43.51673" lon="5.60536">
        <ele>479.84</ele>
        <time>2019-05-01T10:55:34Z</time>
      </trkpt>
      <trkpt lat="43.51683" lon="5.60535">
        <ele>479.35</ele>
        <time>2019-05-01T10:55:35Z</time>
      </trkpt>
      <trkpt lat="43.51704" lon="5.6053">
        <ele>477.91</ele>
        <time>2019-05-01T10:55:37Z</time>
      </trkpt>
      <trkpt lat="43.51713" lon="5.60526">
        <ele>477.91</ele>
        <time>2019-05-01T10:55:38Z</time>
      </trkpt>
      <trkpt lat="43.51722" lon="5.60518">
        <ele>477.91</ele>
        <time>2019-05-01T10:55:39Z</time>
      </trkpt>
      <trkpt lat="43.51728" lon="5.60506">
        <ele>477.91</ele>
        <time>2019-05-01T10:55:40Z</time>
      </trkpt>
      <trkpt lat="43.51732" lon="5.60494">
        <ele>477.43</ele>
        <time>2019-05-01T10:55:41Z</time>
      </trkpt>
      <trkpt lat="43.51735" lon="5.6048">
        <ele>475.99</ele>
        <time>2019-05-01T10:55:42Z</time>
      </trkpt>
      <trkpt lat="43.51746" lon="5.60441">
        <ele>472.14</ele>
        <time>2019-05-01T10:55:45Z</time>
      </trkpt>
      <trkpt lat="43.51751" lon="5.60432">
        <ele>471.66</ele>
        <time>2019-05-01T10:55:46Z</time>
      </trkpt>
      <trkpt lat="43.51758" lon="5.60423">
        <ele>471.18</ele>
        <time>2019-05-01T10:55:47Z</time>
      </trkpt>
      <trkpt lat="43.51765" lon="5.60417">
        <ele>470.22</ele>
        <time>2019-05-01T10:55:48Z</time>
      </trkpt>
      <trkpt lat="43.51773" lon="5.6041">
        <ele>470.22</ele>
        <time>2019-05-01T10:55:49Z</time>
      </trkpt>
      <trkpt lat="43.51791" lon="5.60398">
        <ele>466.86</ele>
        <time>2019-05-01T10:55:51Z</time>
      </trkpt>
      <trkpt lat="43.518" lon="5.60392">
        <ele>467.34</ele>
        <time>2019-05-01T10:55:52Z</time>
      </trkpt>
      <trkpt lat="43.51821" lon="5.60379">
        <ele>465.42</ele>
        <time>2019-05-01T10:55:55Z</time>
      </trkpt>
      <trkpt lat="43.51832" lon="5.60368">
        <ele>463.97</ele>
        <time>2019-05-01T10:55:58Z</time>
      </trkpt>
      <trkpt lat="43.51833" lon="5.60362">
        <ele>466.38</ele>
        <time>2019-05-01T10:55:59Z</time>
      </trkpt>
      <trkpt lat="43.51833" lon="5.60355">
        <ele>465.9</ele>
        <time>2019-05-01T10:56:00Z</time>
      </trkpt>
      <trkpt lat="43.51832" lon="5.60345">
        <ele>465.9</ele>
        <time>2019-05-01T10:56:01Z</time>
      </trkpt>
      <trkpt lat="43.5183" lon="5.60333">
        <ele>466.86</ele>
        <time>2019-05-01T10:56:02Z</time>
      </trkpt>
      <trkpt lat="43.51828" lon="5.60319">
        <ele>466.86</ele>
        <time>2019-05-01T10:56:03Z</time>
      </trkpt>
      <trkpt lat="43.51805" lon="5.6017">
        <ele>464.93</ele>
        <time>2019-05-01T10:56:12Z</time>
      </trkpt>
      <trkpt lat="43.5181" lon="5.60117">
        <ele>462.53</ele>
        <time>2019-05-01T10:56:15Z</time>
      </trkpt>
      <trkpt lat="43.51823" lon="5.60043">
        <ele>461.09</ele>
        <time>2019-05-01T10:56:19Z</time>
      </trkpt>
      <trkpt lat="43.51869" lon="5.59804">
        <ele>458.21</ele>
        <time>2019-05-01T10:56:32Z</time>
      </trkpt>
      <trkpt lat="43.51886" lon="5.59755">
        <ele>461.57</ele>
        <time>2019-05-01T10:56:35Z</time>
      </trkpt>
      <trkpt lat="43.51892" lon="5.59739">
        <ele>461.57</ele>
        <time>2019-05-01T10:56:36Z</time>
      </trkpt>
      <trkpt lat="43.51913" lon="5.59666">
        <ele>463.97</ele>
        <time>2019-05-01T10:56:41Z</time>
      </trkpt>
      <trkpt lat="43.51938" lon="5.59541">
        <ele>463.49</ele>
        <time>2019-05-01T10:56:49Z</time>
      </trkpt>
      <trkpt lat="43.51954" lon="5.59456">
        <ele>460.13</ele>
        <time>2019-05-01T10:56:54Z</time>
      </trkpt>
      <trkpt lat="43.5196" lon="5.59423">
        <ele>457.72</ele>
        <time>2019-05-01T10:56:56Z</time>
      </trkpt>
      <trkpt lat="43.51973" lon="5.59369">
        <ele>454.36</ele>
        <time>2019-05-01T10:56:59Z</time>
      </trkpt>
      <trkpt lat="43.51979" lon="5.59349">
        <ele>454.36</ele>
        <time>2019-05-01T10:57:00Z</time>
      </trkpt>
      <trkpt lat="43.51998" lon="5.59288">
        <ele>451.48</ele>
        <time>2019-05-01T10:57:03Z</time>
      </trkpt>
      <trkpt lat="43.52008" lon="5.59258">
        <ele>448.59</ele>
        <time>2019-05-01T10:57:05Z</time>
      </trkpt>
      <trkpt lat="43.52022" lon="5.59224">
        <ele>446.19</ele>
        <time>2019-05-01T10:57:07Z</time>
      </trkpt>
      <trkpt lat="43.52031" lon="5.59207">
        <ele>445.23</ele>
        <time>2019-05-01T10:57:08Z</time>
      </trkpt>
      <trkpt lat="43.52048" lon="5.5918">
        <ele>444.27</ele>
        <time>2019-05-01T10:57:10Z</time>
      </trkpt>
      <trkpt lat="43.52097" lon="5.59068">
        <ele>443.79</ele>
        <time>2019-05-01T10:57:17Z</time>
      </trkpt>
      <trkpt lat="43.52107" lon="5.59018">
        <ele>443.79</ele>
        <time>2019-05-01T10:57:20Z</time>
      </trkpt>
      <trkpt lat="43.52108" lon="5.58996">
        <ele>442.82</ele>
        <time>2019-05-01T10:57:21Z</time>
      </trkpt>
      <trkpt lat="43.52108" lon="5.58977">
        <ele>442.34</ele>
        <time>2019-05-01T10:57:22Z</time>
      </trkpt>
      <trkpt lat="43.52107" lon="5.58958">
        <ele>442.34</ele>
        <time>2019-05-01T10:57:23Z</time>
      </trkpt>
      <trkpt lat="43.52103" lon="5.5894">
        <ele>441.38</ele>
        <time>2019-05-01T10:57:24Z</time>
      </trkpt>
      <trkpt lat="43.52099" lon="5.58921">
        <ele>441.38</ele>
        <time>2019-05-01T10:57:25Z</time>
      </trkpt>
      <trkpt lat="43.52093" lon="5.58904">
        <ele>441.38</ele>
        <time>2019-05-01T10:57:26Z</time>
      </trkpt>
      <trkpt lat="43.52082" lon="5.58878">
        <ele>441.38</ele>
        <time>2019-05-01T10:57:27Z</time>
      </trkpt>
      <trkpt lat="43.52077" lon="5.58869">
        <ele>441.38</ele>
        <time>2019-05-01T10:57:28Z</time>
      </trkpt>
      <trkpt lat="43.52021" lon="5.58715">
        <ele>441.38</ele>
        <time>2019-05-01T10:57:37Z</time>
      </trkpt>
      <trkpt lat="43.51984" lon="5.58569">
        <ele>440.42</ele>
        <time>2019-05-01T10:57:45Z</time>
      </trkpt>
      <trkpt lat="43.51965" lon="5.58468">
        <ele>438.5</ele>
        <time>2019-05-01T10:57:51Z</time>
      </trkpt>
      <trkpt lat="43.51957" lon="5.5838">
        <ele>434.65</ele>
        <time>2019-05-01T10:57:56Z</time>
      </trkpt>
      <trkpt lat="43.51954" lon="5.58332">
        <ele>431.29</ele>
        <time>2019-05-01T10:57:59Z</time>
      </trkpt>
      <trkpt lat="43.51955" lon="5.58317">
        <ele>429.37</ele>
        <time>2019-05-01T10:58:00Z</time>
      </trkpt>
      <trkpt lat="43.51958" lon="5.58305">
        <ele>427.92</ele>
        <time>2019-05-01T10:58:01Z</time>
      </trkpt>
      <trkpt lat="43.51965" lon="5.58291">
        <ele>426.96</ele>
        <time>2019-05-01T10:58:02Z</time>
      </trkpt>
      <trkpt lat="43.5197" lon="5.58281">
        <ele>426.48</ele>
        <time>2019-05-01T10:58:03Z</time>
      </trkpt>
      <trkpt lat="43.51995" lon="5.58243">
        <ele>424.08</ele>
        <time>2019-05-01T10:58:07Z</time>
      </trkpt>
      <trkpt lat="43.52009" lon="5.58217">
        <ele>421.68</ele>
        <time>2019-05-01T10:58:10Z</time>
      </trkpt>
      <trkpt lat="43.52012" lon="5.58208">
        <ele>421.19</ele>
        <time>2019-05-01T10:58:11Z</time>
      </trkpt>
      <trkpt lat="43.52014" lon="5.58197">
        <ele>421.68</ele>
        <time>2019-05-01T10:58:12Z</time>
      </trkpt>
      <trkpt lat="43.52015" lon="5.58184">
        <ele>420.71</ele>
        <time>2019-05-01T10:58:13Z</time>
      </trkpt>
      <trkpt lat="43.52016" lon="5.58171">
        <ele>420.71</ele>
        <time>2019-05-01T10:58:14Z</time>
      </trkpt>
      <trkpt lat="43.52016" lon="5.58156">
        <ele>420.71</ele>
        <time>2019-05-01T10:58:15Z</time>
      </trkpt>
      <trkpt lat="43.52015" lon="5.5814">
        <ele>420.71</ele>
        <time>2019-05-01T10:58:16Z</time>
      </trkpt>
      <trkpt lat="43.52007" lon="5.57998">
        <ele>416.87</ele>
        <time>2019-05-01T10:58:24Z</time>
      </trkpt>
      <trkpt lat="43.52004" lon="5.57957">
        <ele>413.98</ele>
        <time>2019-05-01T10:58:27Z</time>
      </trkpt>
      <trkpt lat="43.52004" lon="5.5788">
        <ele>412.06</ele>
        <time>2019-05-01T10:58:32Z</time>
      </trkpt>
      <trkpt lat="43.52007" lon="5.57864">
        <ele>412.06</ele>
        <time>2019-05-01T10:58:33Z</time>
      </trkpt>
      <trkpt lat="43.52011" lon="5.57848">
        <ele>412.06</ele>
        <time>2019-05-01T10:58:34Z</time>
      </trkpt>
      <trkpt lat="43.52029" lon="5.57781">
        <ele>407.74</ele>
        <time>2019-05-01T10:58:38Z</time>
      </trkpt>
      <trkpt lat="43.52033" lon="5.57765">
        <ele>406.77</ele>
        <time>2019-05-01T10:58:39Z</time>
      </trkpt>
      <trkpt lat="43.52034" lon="5.57749">
        <ele>405.33</ele>
        <time>2019-05-01T10:58:40Z</time>
      </trkpt>
      <trkpt lat="43.52034" lon="5.57733">
        <ele>403.89</ele>
        <time>2019-05-01T10:58:41Z</time>
      </trkpt>
      <trkpt lat="43.52032" lon="5.57718">
        <ele>402.93</ele>
        <time>2019-05-01T10:58:42Z</time>
      </trkpt>
      <trkpt lat="43.52026" lon="5.57703">
        <ele>401.97</ele>
        <time>2019-05-01T10:58:43Z</time>
      </trkpt>
      <trkpt lat="43.52018" lon="5.5769">
        <ele>401.97</ele>
        <time>2019-05-01T10:58:44Z</time>
      </trkpt>
      <trkpt lat="43.5201" lon="5.57676">
        <ele>401.49</ele>
        <time>2019-05-01T10:58:45Z</time>
      </trkpt>
      <trkpt lat="43.51985" lon="5.57635">
        <ele>399.57</ele>
        <time>2019-05-01T10:58:48Z</time>
      </trkpt>
      <trkpt lat="43.51978" lon="5.57622">
        <ele>397.64</ele>
        <time>2019-05-01T10:58:49Z</time>
      </trkpt>
      <trkpt lat="43.51973" lon="5.57607">
        <ele>396.2</ele>
        <time>2019-05-01T10:58:50Z</time>
      </trkpt>
      <trkpt lat="43.51969" lon="5.57592">
        <ele>395.72</ele>
        <time>2019-05-01T10:58:51Z</time>
      </trkpt>
      <trkpt lat="43.51968" lon="5.57577">
        <ele>394.76</ele>
        <time>2019-05-01T10:58:52Z</time>
      </trkpt>
      <trkpt lat="43.51968" lon="5.5756">
        <ele>394.28</ele>
        <time>2019-05-01T10:58:53Z</time>
      </trkpt>
      <trkpt lat="43.51969" lon="5.57544">
        <ele>394.28</ele>
        <time>2019-05-01T10:58:54Z</time>
      </trkpt>
      <trkpt lat="43.51977" lon="5.5747">
        <ele>390.43</ele>
        <time>2019-05-01T10:58:59Z</time>
      </trkpt>
      <trkpt lat="43.51982" lon="5.57458">
        <ele>388.99</ele>
        <time>2019-05-01T10:59:00Z</time>
      </trkpt>
      <trkpt lat="43.51988" lon="5.57447">
        <ele>388.03</ele>
        <time>2019-05-01T10:59:01Z</time>
      </trkpt>
      <trkpt lat="43.51995" lon="5.57438">
        <ele>388.03</ele>
        <time>2019-05-01T10:59:02Z</time>
      </trkpt>
      <trkpt lat="43.52004" lon="5.5743">
        <ele>387.07</ele>
        <time>2019-05-01T10:59:03Z</time>
      </trkpt>
      <trkpt lat="43.52013" lon="5.57423">
        <ele>385.63</ele>
        <time>2019-05-01T10:59:04Z</time>
      </trkpt>
      <trkpt lat="43.52023" lon="5.57418">
        <ele>384.66</ele>
        <time>2019-05-01T10:59:05Z</time>
      </trkpt>
      <trkpt lat="43.52035" lon="5.57413">
        <ele>384.18</ele>
        <time>2019-05-01T10:59:06Z</time>
      </trkpt>
      <trkpt lat="43.52043" lon="5.57408">
        <ele>383.22</ele>
        <time>2019-05-01T10:59:07Z</time>
      </trkpt>
      <trkpt lat="43.52053" lon="5.57401">
        <ele>383.22</ele>
        <time>2019-05-01T10:59:08Z</time>
      </trkpt>
      <trkpt lat="43.52061" lon="5.57394">
        <ele>381.78</ele>
        <time>2019-05-01T10:59:09Z</time>
      </trkpt>
      <trkpt lat="43.52067" lon="5.57388">
        <ele>379.86</ele>
        <time>2019-05-01T10:59:10Z</time>
      </trkpt>
      <trkpt lat="43.5207" lon="5.57383">
        <ele>378.9</ele>
        <time>2019-05-01T10:59:11Z</time>
      </trkpt>
      <trkpt lat="43.52073" lon="5.57378">
        <ele>377.45</ele>
        <time>2019-05-01T10:59:12Z</time>
      </trkpt>
      <trkpt lat="43.52076" lon="5.57374">
        <ele>376.97</ele>
        <time>2019-05-01T10:59:13Z</time>
      </trkpt>
      <trkpt lat="43.52078" lon="5.57368">
        <ele>376.97</ele>
        <time>2019-05-01T10:59:14Z</time>
      </trkpt>
      <trkpt lat="43.52085" lon="5.57357">
        <ele>376.49</ele>
        <time>2019-05-01T10:59:16Z</time>
      </trkpt>
      <trkpt lat="43.5209" lon="5.57352">
        <ele>376.49</ele>
        <time>2019-05-01T10:59:17Z</time>
      </trkpt>
      <trkpt lat="43.52095" lon="5.57347">
        <ele>376.49</ele>
        <time>2019-05-01T10:59:18Z</time>
      </trkpt>
      <trkpt lat="43.52102" lon="5.57343">
        <ele>375.53</ele>
        <time>2019-05-01T10:59:19Z</time>
      </trkpt>
      <trkpt lat="43.52108" lon="5.57339">
        <ele>375.53</ele>
        <time>2019-05-01T10:59:20Z</time>
      </trkpt>
      <trkpt lat="43.52113" lon="5.57335">
        <ele>375.05</ele>
        <time>2019-05-01T10:59:21Z</time>
      </trkpt>
      <trkpt lat="43.52117" lon="5.5733">
        <ele>374.09</ele>
        <time>2019-05-01T10:59:22Z</time>
      </trkpt>
      <trkpt lat="43.52118" lon="5.57326">
        <ele>374.09</ele>
        <time>2019-05-01T10:59:23Z</time>
      </trkpt>
      <trkpt lat="43.52115" lon="5.57323">
        <ele>373.61</ele>
        <time>2019-05-01T10:59:24Z</time>
      </trkpt>
      <trkpt lat="43.5211" lon="5.57322">
        <ele>373.13</ele>
        <time>2019-05-01T10:59:25Z</time>
      </trkpt>
      <trkpt lat="43.52102" lon="5.57325">
        <ele>372.17</ele>
        <time>2019-05-01T10:59:26Z</time>
      </trkpt>
      <trkpt lat="43.52096" lon="5.57329">
        <ele>371.69</ele>
        <time>2019-05-01T10:59:27Z</time>
      </trkpt>
      <trkpt lat="43.52086" lon="5.57335">
        <ele>371.69</ele>
        <time>2019-05-01T10:59:29Z</time>
      </trkpt>
      <trkpt lat="43.52056" lon="5.57358">
        <ele>370.24</ele>
        <time>2019-05-01T10:59:32Z</time>
      </trkpt>
      <trkpt lat="43.52025" lon="5.57354">
        <ele>364</ele>
        <time>2019-05-01T10:59:40Z</time>
      </trkpt>
      <trkpt lat="43.52031" lon="5.57348">
        <ele>364</ele>
        <time>2019-05-01T10:59:41Z</time>
      </trkpt>
      <trkpt lat="43.52037" lon="5.57344">
        <ele>363.52</ele>
        <time>2019-05-01T10:59:42Z</time>
      </trkpt>
      <trkpt lat="43.52077" lon="5.5731">
        <ele>359.19</ele>
        <time>2019-05-01T10:59:48Z</time>
      </trkpt>
      <trkpt lat="43.52079" lon="5.57305">
        <ele>359.19</ele>
        <time>2019-05-01T10:59:49Z</time>
      </trkpt>
      <trkpt lat="43.52078" lon="5.57296">
        <ele>358.23</ele>
        <time>2019-05-01T10:59:50Z</time>
      </trkpt>
      <trkpt lat="43.52077" lon="5.57286">
        <ele>356.79</ele>
        <time>2019-05-01T10:59:51Z</time>
      </trkpt>
      <trkpt lat="43.52077" lon="5.57277">
        <ele>355.34</ele>
        <time>2019-05-01T10:59:52Z</time>
      </trkpt>
      <trkpt lat="43.52079" lon="5.5727">
        <ele>354.38</ele>
        <time>2019-05-01T10:59:53Z</time>
      </trkpt>
      <trkpt lat="43.52082" lon="5.57265">
        <ele>354.38</ele>
        <time>2019-05-01T10:59:54Z</time>
      </trkpt>
      <trkpt lat="43.52087" lon="5.57262">
        <ele>354.38</ele>
        <time>2019-05-01T10:59:55Z</time>
      </trkpt>
      <trkpt lat="43.52094" lon="5.57261">
        <ele>354.38</ele>
        <time>2019-05-01T10:59:56Z</time>
      </trkpt>
      <trkpt lat="43.52103" lon="5.57259">
        <ele>353.9</ele>
        <time>2019-05-01T10:59:57Z</time>
      </trkpt>
      <trkpt lat="43.52111" lon="5.57255">
        <ele>353.9</ele>
        <time>2019-05-01T10:59:58Z</time>
      </trkpt>
      <trkpt lat="43.52118" lon="5.5725">
        <ele>353.42</ele>
        <time>2019-05-01T10:59:59Z</time>
      </trkpt>
      <trkpt lat="43.52126" lon="5.57242">
        <ele>352.94</ele>
        <time>2019-05-01T11:00:00Z</time>
      </trkpt>
      <trkpt lat="43.52133" lon="5.57231">
        <ele>352.46</ele>
        <time>2019-05-01T11:00:01Z</time>
      </trkpt>
      <trkpt lat="43.52141" lon="5.5722">
        <ele>351.02</ele>
        <time>2019-05-01T11:00:02Z</time>
      </trkpt>
      <trkpt lat="43.52159" lon="5.57198">
        <ele>349.1</ele>
        <time>2019-05-01T11:00:04Z</time>
      </trkpt>
      <trkpt lat="43.52169" lon="5.5719">
        <ele>348.62</ele>
        <time>2019-05-01T11:00:05Z</time>
      </trkpt>
      <trkpt lat="43.52181" lon="5.57183">
        <ele>347.17</ele>
        <time>2019-05-01T11:00:06Z</time>
      </trkpt>
      <trkpt lat="43.52206" lon="5.57171">
        <ele>345.73</ele>
        <time>2019-05-01T11:00:08Z</time>
      </trkpt>
      <trkpt lat="43.52217" lon="5.57165">
        <ele>344.29</ele>
        <time>2019-05-01T11:00:09Z</time>
      </trkpt>
      <trkpt lat="43.52226" lon="5.57158">
        <ele>341.41</ele>
        <time>2019-05-01T11:00:10Z</time>
      </trkpt>
      <trkpt lat="43.52244" lon="5.57144">
        <ele>337.56</ele>
        <time>2019-05-01T11:00:12Z</time>
      </trkpt>
      <trkpt lat="43.52254" lon="5.57135">
        <ele>338.04</ele>
        <time>2019-05-01T11:00:13Z</time>
      </trkpt>
      <trkpt lat="43.52294" lon="5.57098">
        <ele>334.68</ele>
        <time>2019-05-01T11:00:17Z</time>
      </trkpt>
      <trkpt lat="43.52323" lon="5.57073">
        <ele>328.91</ele>
        <time>2019-05-01T11:00:20Z</time>
      </trkpt>
      <trkpt lat="43.52331" lon="5.57068">
        <ele>327.47</ele>
        <time>2019-05-01T11:00:21Z</time>
      </trkpt>
      <trkpt lat="43.52352" lon="5.57067">
        <ele>324.58</ele>
        <time>2019-05-01T11:00:24Z</time>
      </trkpt>
      <trkpt lat="43.52371" lon="5.57076">
        <ele>321.7</ele>
        <time>2019-05-01T11:00:30Z</time>
      </trkpt>
      <trkpt lat="43.52372" lon="5.57069">
        <ele>321.22</ele>
        <time>2019-05-01T11:00:31Z</time>
      </trkpt>
      <trkpt lat="43.5237" lon="5.5706">
        <ele>319.78</ele>
        <time>2019-05-01T11:00:32Z</time>
      </trkpt>
      <trkpt lat="43.52367" lon="5.57047">
        <ele>319.78</ele>
        <time>2019-05-01T11:00:33Z</time>
      </trkpt>
      <trkpt lat="43.5236" lon="5.57024">
        <ele>318.81</ele>
        <time>2019-05-01T11:00:35Z</time>
      </trkpt>
      <trkpt lat="43.52358" lon="5.57011">
        <ele>317.85</ele>
        <time>2019-05-01T11:00:36Z</time>
      </trkpt>
      <trkpt lat="43.52357" lon="5.56998">
        <ele>316.89</ele>
        <time>2019-05-01T11:00:37Z</time>
      </trkpt>
      <trkpt lat="43.52356" lon="5.56986">
        <ele>316.41</ele>
        <time>2019-05-01T11:00:38Z</time>
      </trkpt>
      <trkpt lat="43.52356" lon="5.56975">
        <ele>315.45</ele>
        <time>2019-05-01T11:00:39Z</time>
      </trkpt>
      <trkpt lat="43.52357" lon="5.56867">
        <ele>313.05</ele>
        <time>2019-05-01T11:00:49Z</time>
      </trkpt>
      <trkpt lat="43.52355" lon="5.56857">
        <ele>313.05</ele>
        <time>2019-05-01T11:00:50Z</time>
      </trkpt>
      <trkpt lat="43.52351" lon="5.5685">
        <ele>312.09</ele>
        <time>2019-05-01T11:00:51Z</time>
      </trkpt>
      <trkpt lat="43.52346" lon="5.56846">
        <ele>312.09</ele>
        <time>2019-05-01T11:00:52Z</time>
      </trkpt>
      <trkpt lat="43.52341" lon="5.56843">
        <ele>311.6</ele>
        <time>2019-05-01T11:00:53Z</time>
      </trkpt>
      <trkpt lat="43.52335" lon="5.5684">
        <ele>310.64</ele>
        <time>2019-05-01T11:00:54Z</time>
      </trkpt>
      <trkpt lat="43.52329" lon="5.56837">
        <ele>310.64</ele>
        <time>2019-05-01T11:00:55Z</time>
      </trkpt>
      <trkpt lat="43.52314" lon="5.56828">
        <ele>309.68</ele>
        <time>2019-05-01T11:00:58Z</time>
      </trkpt>
      <trkpt lat="43.52311" lon="5.56824">
        <ele>309.2</ele>
        <time>2019-05-01T11:00:59Z</time>
      </trkpt>
      <trkpt lat="43.52309" lon="5.5682">
        <ele>309.2</ele>
        <time>2019-05-01T11:01:00Z</time>
      </trkpt>
      <trkpt lat="43.523" lon="5.56803">
        <ele>307.28</ele>
        <time>2019-05-01T11:01:11Z</time>
      </trkpt>
      <trkpt lat="43.52299" lon="5.56801">
        <ele>307.28</ele>
        <time>2019-05-01T11:01:15Z</time>
      </trkpt>
      <trkpt lat="43.52299" lon="5.56798">
        <ele>306.8</ele>
        <time>2019-05-01T11:01:16Z</time>
      </trkpt>
      <trkpt lat="43.52297" lon="5.56789">
        <ele>306.8</ele>
        <time>2019-05-01T11:01:18Z</time>
      </trkpt>
      <trkpt lat="43.52297" lon="5.56781">
        <ele>306.32</ele>
        <time>2019-05-01T11:01:19Z</time>
      </trkpt>
      <trkpt lat="43.52298" lon="5.56773">
        <ele>306.32</ele>
        <time>2019-05-01T11:01:20Z</time>
      </trkpt>
      <trkpt lat="43.52305" lon="5.56736">
        <ele>304.39</ele>
        <time>2019-05-01T11:01:24Z</time>
      </trkpt>
      <trkpt lat="43.52311" lon="5.56719">
        <ele>303.91</ele>
        <time>2019-05-01T11:01:26Z</time>
      </trkpt>
      <trkpt lat="43.52321" lon="5.56687">
        <ele>302.47</ele>
        <time>2019-05-01T11:01:29Z</time>
      </trkpt>
      <trkpt lat="43.52323" lon="5.56675">
        <ele>302.47</ele>
        <time>2019-05-01T11:01:30Z</time>
      </trkpt>
      <trkpt lat="43.52327" lon="5.56647">
        <ele>303.91</ele>
        <time>2019-05-01T11:01:32Z</time>
      </trkpt>
      <trkpt lat="43.52342" lon="5.56541">
        <ele>301.99</ele>
        <time>2019-05-01T11:01:39Z</time>
      </trkpt>
      <trkpt lat="43.52346" lon="5.56528">
        <ele>301.51</ele>
        <time>2019-05-01T11:01:40Z</time>
      </trkpt>
      <trkpt lat="43.52352" lon="5.56517">
        <ele>300.55</ele>
        <time>2019-05-01T11:01:41Z</time>
      </trkpt>
      <trkpt lat="43.52358" lon="5.5651">
        <ele>300.55</ele>
        <time>2019-05-01T11:01:42Z</time>
      </trkpt>
      <trkpt lat="43.52364" lon="5.56504">
        <ele>300.55</ele>
        <time>2019-05-01T11:01:43Z</time>
      </trkpt>
      <trkpt lat="43.52368" lon="5.565">
        <ele>299.59</ele>
        <time>2019-05-01T11:01:44Z</time>
      </trkpt>
      <trkpt lat="43.52371" lon="5.56496">
        <ele>299.11</ele>
        <time>2019-05-01T11:01:45Z</time>
      </trkpt>
      <trkpt lat="43.52373" lon="5.56493">
        <ele>298.63</ele>
        <time>2019-05-01T11:01:46Z</time>
      </trkpt>
      <trkpt lat="43.52375" lon="5.5649">
        <ele>298.63</ele>
        <time>2019-05-01T11:01:47Z</time>
      </trkpt>
      <trkpt lat="43.52376" lon="5.56488">
        <ele>298.63</ele>
        <time>2019-05-01T11:01:48Z</time>
      </trkpt>
      <trkpt lat="43.52376" lon="5.56486">
        <ele>298.63</ele>
        <time>2019-05-01T11:01:49Z</time>
      </trkpt>
      <trkpt lat="43.52377" lon="5.56484">
        <ele>298.15</ele>
        <time>2019-05-01T11:01:50Z</time>
      </trkpt>
      <trkpt lat="43.52379" lon="5.56478">
        <ele>298.15</ele>
        <time>2019-05-01T11:01:52Z</time>
      </trkpt>
      <trkpt lat="43.52379" lon="5.56473">
        <ele>298.15</ele>
        <time>2019-05-01T11:01:53Z</time>
      </trkpt>
      <trkpt lat="43.52378" lon="5.56464">
        <ele>298.15</ele>
        <time>2019-05-01T11:01:54Z</time>
      </trkpt>
      <trkpt lat="43.52377" lon="5.56397">
        <ele>298.15</ele>
        <time>2019-05-01T11:02:01Z</time>
      </trkpt>
      <trkpt lat="43.5238" lon="5.56384">
        <ele>298.15</ele>
        <time>2019-05-01T11:02:02Z</time>
      </trkpt>
      <trkpt lat="43.52393" lon="5.56345">
        <ele>300.07</ele>
        <time>2019-05-01T11:02:05Z</time>
      </trkpt>
      <trkpt lat="43.52396" lon="5.56331">
        <ele>300.07</ele>
        <time>2019-05-01T11:02:06Z</time>
      </trkpt>
      <trkpt lat="43.52398" lon="5.56316">
        <ele>300.07</ele>
        <time>2019-05-01T11:02:07Z</time>
      </trkpt>
      <trkpt lat="43.52397" lon="5.56301">
        <ele>300.07</ele>
        <time>2019-05-01T11:02:08Z</time>
      </trkpt>
      <trkpt lat="43.52386" lon="5.56177">
        <ele>297.18</ele>
        <time>2019-05-01T11:02:15Z</time>
      </trkpt>
      <trkpt lat="43.52383" lon="5.56159">
        <ele>297.18</ele>
        <time>2019-05-01T11:02:16Z</time>
      </trkpt>
      <trkpt lat="43.52364" lon="5.56046">
        <ele>293.34</ele>
        <time>2019-05-01T11:02:22Z</time>
      </trkpt>
      <trkpt lat="43.52365" lon="5.56027">
        <ele>293.34</ele>
        <time>2019-05-01T11:02:23Z</time>
      </trkpt>
      <trkpt lat="43.52365" lon="5.5586">
        <ele>289.97</ele>
        <time>2019-05-01T11:02:32Z</time>
      </trkpt>
      <trkpt lat="43.52367" lon="5.55841">
        <ele>288.53</ele>
        <time>2019-05-01T11:02:33Z</time>
      </trkpt>
      <trkpt lat="43.5237" lon="5.55825">
        <ele>288.53</ele>
        <time>2019-05-01T11:02:34Z</time>
      </trkpt>
      <trkpt lat="43.52381" lon="5.55772">
        <ele>285.65</ele>
        <time>2019-05-01T11:02:37Z</time>
      </trkpt>
      <trkpt lat="43.52382" lon="5.55753">
        <ele>285.17</ele>
        <time>2019-05-01T11:02:38Z</time>
      </trkpt>
      <trkpt lat="43.52382" lon="5.55739">
        <ele>283.25</ele>
        <time>2019-05-01T11:02:39Z</time>
      </trkpt>
      <trkpt lat="43.5238" lon="5.55709">
        <ele>281.32</ele>
        <time>2019-05-01T11:02:41Z</time>
      </trkpt>
      <trkpt lat="43.5237" lon="5.55645">
        <ele>279.4</ele>
        <time>2019-05-01T11:02:45Z</time>
      </trkpt>
      <trkpt lat="43.52365" lon="5.5563">
        <ele>279.4</ele>
        <time>2019-05-01T11:02:46Z</time>
      </trkpt>
      <trkpt lat="43.52339" lon="5.55569">
        <ele>277</ele>
        <time>2019-05-01T11:02:50Z</time>
      </trkpt>
      <trkpt lat="43.5233" lon="5.55555">
        <ele>277</ele>
        <time>2019-05-01T11:02:51Z</time>
      </trkpt>
      <trkpt lat="43.52301" lon="5.55516">
        <ele>277</ele>
        <time>2019-05-01T11:02:54Z</time>
      </trkpt>
      <trkpt lat="43.52293" lon="5.55501">
        <ele>277</ele>
        <time>2019-05-01T11:02:55Z</time>
      </trkpt>
      <trkpt lat="43.52286" lon="5.55486">
        <ele>276.52</ele>
        <time>2019-05-01T11:02:56Z</time>
      </trkpt>
      <trkpt lat="43.52279" lon="5.55468">
        <ele>277</ele>
        <time>2019-05-01T11:02:57Z</time>
      </trkpt>
      <trkpt lat="43.52274" lon="5.55451">
        <ele>277</ele>
        <time>2019-05-01T11:02:58Z</time>
      </trkpt>
      <trkpt lat="43.5227" lon="5.55431">
        <ele>276.04</ele>
        <time>2019-05-01T11:02:59Z</time>
      </trkpt>
      <trkpt lat="43.52243" lon="5.55322">
        <ele>271.23</ele>
        <time>2019-05-01T11:03:05Z</time>
      </trkpt>
      <trkpt lat="43.52236" lon="5.55292">
        <ele>270.27</ele>
        <time>2019-05-01T11:03:07Z</time>
      </trkpt>
      <trkpt lat="43.52216" lon="5.5518">
        <ele>266.42</ele>
        <time>2019-05-01T11:03:14Z</time>
      </trkpt>
      <trkpt lat="43.52212" lon="5.55157">
        <ele>265.94</ele>
        <time>2019-05-01T11:03:16Z</time>
      </trkpt>
      <trkpt lat="43.52203" lon="5.55121">
        <ele>262.1</ele>
        <time>2019-05-01T11:03:20Z</time>
      </trkpt>
      <trkpt lat="43.52202" lon="5.55116">
        <ele>262.1</ele>
        <time>2019-05-01T11:03:21Z</time>
      </trkpt>
      <trkpt lat="43.52178" lon="5.55032">
        <ele>261.62</ele>
        <time>2019-05-01T11:03:28Z</time>
      </trkpt>
      <trkpt lat="43.52169" lon="5.55">
        <ele>260.65</ele>
        <time>2019-05-01T11:03:30Z</time>
      </trkpt>
      <trkpt lat="43.52157" lon="5.54953">
        <ele>256.33</ele>
        <time>2019-05-01T11:03:33Z</time>
      </trkpt>
      <trkpt lat="43.52147" lon="5.54915">
        <ele>252.96</ele>
        <time>2019-05-01T11:03:36Z</time>
      </trkpt>
      <trkpt lat="43.52134" lon="5.5487">
        <ele>249.6</ele>
        <time>2019-05-01T11:03:41Z</time>
      </trkpt>
      <trkpt lat="43.52123" lon="5.54837">
        <ele>249.6</ele>
        <time>2019-05-01T11:03:45Z</time>
      </trkpt>
      <trkpt lat="43.52093" lon="5.54775">
        <ele>248.16</ele>
        <time>2019-05-01T11:03:52Z</time>
      </trkpt>
      <trkpt lat="43.52073" lon="5.54675">
        <ele>244.31</ele>
        <time>2019-05-01T11:04:00Z</time>
      </trkpt>
      <trkpt lat="43.52072" lon="5.54652">
        <ele>242.87</ele>
        <time>2019-05-01T11:04:02Z</time>
      </trkpt>
      <trkpt lat="43.52072" lon="5.54584">
        <ele>242.87</ele>
        <time>2019-05-01T11:04:07Z</time>
      </trkpt>
      <trkpt lat="43.52069" lon="5.54571">
        <ele>242.87</ele>
        <time>2019-05-01T11:04:08Z</time>
      </trkpt>
      <trkpt lat="43.52064" lon="5.54557">
        <ele>242.39</ele>
        <time>2019-05-01T11:04:09Z</time>
      </trkpt>
      <trkpt lat="43.52046" lon="5.54514">
        <ele>240.47</ele>
        <time>2019-05-01T11:04:13Z</time>
      </trkpt>
      <trkpt lat="43.52004" lon="5.54411">
        <ele>242.39</ele>
        <time>2019-05-01T11:04:22Z</time>
      </trkpt>
      <trkpt lat="43.51955" lon="5.54252">
        <ele>242.87</ele>
        <time>2019-05-01T11:04:33Z</time>
      </trkpt>
      <trkpt lat="43.5194" lon="5.54146">
        <ele>244.79</ele>
        <time>2019-05-01T11:04:41Z</time>
      </trkpt>
      <trkpt lat="43.51936" lon="5.5409">
        <ele>245.75</ele>
        <time>2019-05-01T11:04:45Z</time>
      </trkpt>
      <trkpt lat="43.51936" lon="5.54076">
        <ele>246.72</ele>
        <time>2019-05-01T11:04:46Z</time>
      </trkpt>
      <trkpt lat="43.51939" lon="5.54062">
        <ele>246.72</ele>
        <time>2019-05-01T11:04:47Z</time>
      </trkpt>
      <trkpt lat="43.51942" lon="5.54049">
        <ele>247.2</ele>
        <time>2019-05-01T11:04:48Z</time>
      </trkpt>
      <trkpt lat="43.51946" lon="5.54035">
        <ele>248.16</ele>
        <time>2019-05-01T11:04:49Z</time>
      </trkpt>
      <trkpt lat="43.51952" lon="5.54015">
        <ele>248.16</ele>
        <time>2019-05-01T11:04:50Z</time>
      </trkpt>
      <trkpt lat="43.51975" lon="5.53915">
        <ele>250.56</ele>
        <time>2019-05-01T11:04:56Z</time>
      </trkpt>
      <trkpt lat="43.51977" lon="5.53901">
        <ele>251.04</ele>
        <time>2019-05-01T11:04:57Z</time>
      </trkpt>
      <trkpt lat="43.51981" lon="5.5381">
        <ele>248.16</ele>
        <time>2019-05-01T11:05:04Z</time>
      </trkpt>
      <trkpt lat="43.51991" lon="5.53733">
        <ele>251.52</ele>
        <time>2019-05-01T11:05:09Z</time>
      </trkpt>
      <trkpt lat="43.5201" lon="5.536">
        <ele>251.04</ele>
        <time>2019-05-01T11:05:17Z</time>
      </trkpt>
      <trkpt lat="43.5201" lon="5.53574">
        <ele>250.56</ele>
        <time>2019-05-01T11:05:20Z</time>
      </trkpt>
      <trkpt lat="43.52007" lon="5.53525">
        <ele>248.16</ele>
        <time>2019-05-01T11:05:24Z</time>
      </trkpt>
      <trkpt lat="43.52008" lon="5.5351">
        <ele>248.16</ele>
        <time>2019-05-01T11:05:25Z</time>
      </trkpt>
      <trkpt lat="43.5201" lon="5.53495">
        <ele>248.16</ele>
        <time>2019-05-01T11:05:26Z</time>
      </trkpt>
      <trkpt lat="43.52038" lon="5.53378">
        <ele>246.23</ele>
        <time>2019-05-01T11:05:33Z</time>
      </trkpt>
      <trkpt lat="43.52049" lon="5.53342">
        <ele>244.31</ele>
        <time>2019-05-01T11:05:35Z</time>
      </trkpt>
      <trkpt lat="43.5207" lon="5.53292">
        <ele>239.51</ele>
        <time>2019-05-01T11:05:39Z</time>
      </trkpt>
      <trkpt lat="43.52072" lon="5.53289">
        <ele>239.02</ele>
        <time>2019-05-01T11:05:40Z</time>
      </trkpt>
      <trkpt lat="43.52078" lon="5.53286">
        <ele>238.06</ele>
        <time>2019-05-01T11:05:42Z</time>
      </trkpt>
      <trkpt lat="43.52081" lon="5.53286">
        <ele>238.54</ele>
        <time>2019-05-01T11:05:43Z</time>
      </trkpt>
      <trkpt lat="43.52092" lon="5.53283">
        <ele>238.54</ele>
        <time>2019-05-01T11:05:47Z</time>
      </trkpt>
      <trkpt lat="43.52093" lon="5.53282">
        <ele>238.54</ele>
        <time>2019-05-01T11:05:48Z</time>
      </trkpt>
      <trkpt lat="43.52094" lon="5.5328">
        <ele>238.54</ele>
        <time>2019-05-01T11:05:49Z</time>
      </trkpt>
      <trkpt lat="43.52095" lon="5.53279">
        <ele>238.54</ele>
        <time>2019-05-01T11:05:50Z</time>
      </trkpt>
      <trkpt lat="43.52096" lon="5.53278">
        <ele>238.54</ele>
        <time>2019-05-01T11:05:51Z</time>
      </trkpt>
      <trkpt lat="43.52097" lon="5.53278">
        <ele>238.54</ele>
        <time>2019-05-01T11:05:52Z</time>
      </trkpt>
      <trkpt lat="43.52097" lon="5.53277">
        <ele>238.54</ele>
        <time>2019-05-01T11:06:07Z</time>
      </trkpt>
      <trkpt lat="43.52095" lon="5.53276">
        <ele>238.54</ele>
        <time>2019-05-01T11:06:25Z</time>
      </trkpt>
      <trkpt lat="43.52095" lon="5.53277">
        <ele>238.54</ele>
        <time>2019-05-01T11:06:42Z</time>
      </trkpt>
      <trkpt lat="43.52093" lon="5.53276">
        <ele>238.54</ele>
        <time>2019-05-01T11:06:53Z</time>
      </trkpt>
      <trkpt lat="43.52093" lon="5.53276">
        <ele>238.54</ele>
        <time>2019-05-01T11:07:13Z</time>
      </trkpt>
      <trkpt lat="43.52092" lon="5.53273">
        <ele>238.54</ele>
        <time>2019-05-01T11:07:35Z</time>
      </trkpt>
      <trkpt lat="43.52095" lon="5.53274">
        <ele>238.54</ele>
        <time>2019-05-01T11:07:59Z</time>
      </trkpt>
      <trkpt lat="43.52094" lon="5.53282">
        <ele>238.54</ele>
        <time>2019-05-01T11:08:27Z</time>
      </trkpt>
      <trkpt lat="43.5209" lon="5.53281">
        <ele>238.54</ele>
        <time>2019-05-01T11:08:44Z</time>
      </trkpt>
      <trkpt lat="43.5209" lon="5.53279">
        <ele>239.99</ele>
        <time>2019-05-01T11:08:48Z</time>
      </trkpt>
      <trkpt lat="43.52089" lon="5.53283">
        <ele>238.54</ele>
        <time>2019-05-01T11:09:07Z</time>
      </trkpt>
      <trkpt lat="43.52088" lon="5.53283">
        <ele>238.54</ele>
        <time>2019-05-01T11:09:08Z</time>
      </trkpt>
      <trkpt lat="43.52079" lon="5.5329">
        <ele>238.54</ele>
        <time>2019-05-01T11:09:25Z</time>
      </trkpt>
      <trkpt lat="43.52077" lon="5.53287">
        <ele>238.54</ele>
        <time>2019-05-01T11:09:43Z</time>
      </trkpt>
      <trkpt lat="43.52077" lon="5.53287">
        <ele>238.54</ele>
        <time>2019-05-01T11:10:02Z</time>
      </trkpt>
      <trkpt lat="43.52079" lon="5.53287">
        <ele>238.54</ele>
        <time>2019-05-01T11:10:26Z</time>
      </trkpt>
      <trkpt lat="43.52078" lon="5.53289">
        <ele>238.54</ele>
        <time>2019-05-01T11:10:50Z</time>
      </trkpt>
      <trkpt lat="43.52079" lon="5.53288">
        <ele>238.54</ele>
        <time>2019-05-01T11:11:09Z</time>
      </trkpt>
      <trkpt lat="43.52074" lon="5.53293">
        <ele>238.54</ele>
        <time>2019-05-01T11:11:21Z</time>
      </trkpt>
      <trkpt lat="43.52073" lon="5.53294">
        <ele>238.06</ele>
        <time>2019-05-01T11:11:22Z</time>
      </trkpt>
      <trkpt lat="43.52073" lon="5.53293">
        <ele>238.54</ele>
        <time>2019-05-01T11:11:32Z</time>
      </trkpt>
      <trkpt lat="43.52075" lon="5.53292">
        <ele>238.54</ele>
        <time>2019-05-01T11:11:39Z</time>
      </trkpt>
      <trkpt lat="43.52081" lon="5.53289">
        <ele>238.54</ele>
        <time>2019-05-01T11:11:48Z</time>
      </trkpt>
      <trkpt lat="43.52082" lon="5.53289">
        <ele>238.54</ele>
        <time>2019-05-01T11:11:49Z</time>
      </trkpt>
      <trkpt lat="43.52084" lon="5.53289">
        <ele>238.54</ele>
        <time>2019-05-01T11:11:52Z</time>
      </trkpt>
      <trkpt lat="43.52088" lon="5.53289">
        <ele>239.99</ele>
        <time>2019-05-01T11:12:02Z</time>
      </trkpt>
      <trkpt lat="43.5209" lon="5.53292">
        <ele>239.99</ele>
        <time>2019-05-01T11:12:07Z</time>
      </trkpt>
      <trkpt lat="43.52091" lon="5.53292">
        <ele>239.99</ele>
        <time>2019-05-01T11:12:08Z</time>
      </trkpt>
      <trkpt lat="43.52097" lon="5.53298">
        <ele>240.95</ele>
        <time>2019-05-01T11:12:18Z</time>
      </trkpt>
      <trkpt lat="43.52098" lon="5.53298">
        <ele>243.83</ele>
        <time>2019-05-01T11:12:20Z</time>
      </trkpt>
      <trkpt lat="43.52098" lon="5.53299">
        <ele>243.83</ele>
        <time>2019-05-01T11:12:21Z</time>
      </trkpt>
      <trkpt lat="43.52098" lon="5.53302">
        <ele>241.91</ele>
        <time>2019-05-01T11:12:23Z</time>
      </trkpt>
      <trkpt lat="43.52099" lon="5.53312">
        <ele>241.91</ele>
        <time>2019-05-01T11:12:33Z</time>
      </trkpt>
      <trkpt lat="43.52098" lon="5.53315">
        <ele>241.91</ele>
        <time>2019-05-01T11:12:34Z</time>
      </trkpt>
      <trkpt lat="43.52103" lon="5.53325">
        <ele>243.35</ele>
        <time>2019-05-01T11:12:42Z</time>
      </trkpt>
      <trkpt lat="43.52113" lon="5.53332">
        <ele>244.31</ele>
        <time>2019-05-01T11:12:54Z</time>
      </trkpt>
      <trkpt lat="43.52117" lon="5.53336">
        <ele>245.27</ele>
        <time>2019-05-01T11:12:58Z</time>
      </trkpt>
      <trkpt lat="43.52118" lon="5.53337">
        <ele>245.27</ele>
        <time>2019-05-01T11:12:59Z</time>
      </trkpt>
      <trkpt lat="43.52119" lon="5.53339">
        <ele>244.79</ele>
        <time>2019-05-01T11:13:09Z</time>
      </trkpt>
      <trkpt lat="43.52121" lon="5.5334">
        <ele>245.75</ele>
        <time>2019-05-01T11:13:26Z</time>
      </trkpt>
      <trkpt lat="43.52124" lon="5.53345">
        <ele>246.23</ele>
        <time>2019-05-01T11:13:46Z</time>
      </trkpt>
      <trkpt lat="43.52125" lon="5.53346">
        <ele>246.23</ele>
        <time>2019-05-01T11:13:47Z</time>
      </trkpt>
      <trkpt lat="43.52126" lon="5.53347">
        <ele>246.23</ele>
        <time>2019-05-01T11:13:48Z</time>
      </trkpt>
      <trkpt lat="43.52127" lon="5.53348">
        <ele>246.23</ele>
        <time>2019-05-01T11:13:49Z</time>
      </trkpt>
      <trkpt lat="43.52133" lon="5.5335">
        <ele>246.23</ele>
        <time>2019-05-01T11:13:57Z</time>
      </trkpt>
      <trkpt lat="43.52139" lon="5.53349">
        <ele>246.72</ele>
        <time>2019-05-01T11:14:06Z</time>
      </trkpt>
      <trkpt lat="43.5214" lon="5.53349">
        <ele>246.72</ele>
        <time>2019-05-01T11:14:07Z</time>
      </trkpt>
      <trkpt lat="43.52141" lon="5.5335">
        <ele>246.72</ele>
        <time>2019-05-01T11:14:08Z</time>
      </trkpt>
      <trkpt lat="43.52143" lon="5.5335">
        <ele>246.72</ele>
        <time>2019-05-01T11:14:09Z</time>
      </trkpt>
      <trkpt lat="43.52146" lon="5.53351">
        <ele>246.72</ele>
        <time>2019-05-01T11:14:13Z</time>
      </trkpt>
      <trkpt lat="43.52149" lon="5.5335">
        <ele>247.2</ele>
        <time>2019-05-01T11:14:25Z</time>
      </trkpt>
      <trkpt lat="43.52146" lon="5.5335">
        <ele>247.2</ele>
        <time>2019-05-01T11:14:29Z</time>
      </trkpt>
      <trkpt lat="43.52142" lon="5.53348">
        <ele>247.2</ele>
        <time>2019-05-01T11:14:34Z</time>
      </trkpt>
      <trkpt lat="43.52137" lon="5.53351">
        <ele>247.2</ele>
        <time>2019-05-01T11:14:40Z</time>
      </trkpt>
      <trkpt lat="43.52136" lon="5.53353">
        <ele>247.2</ele>
        <time>2019-05-01T11:14:41Z</time>
      </trkpt>
      <trkpt lat="43.52135" lon="5.53354">
        <ele>247.2</ele>
        <time>2019-05-01T11:14:42Z</time>
      </trkpt>
      <trkpt lat="43.5214" lon="5.53366">
        <ele>247.2</ele>
        <time>2019-05-01T11:14:52Z</time>
      </trkpt>
      <trkpt lat="43.52148" lon="5.53381">
        <ele>247.2</ele>
        <time>2019-05-01T11:15:03Z</time>
      </trkpt>
      <trkpt lat="43.52154" lon="5.53389">
        <ele>247.2</ele>
        <time>2019-05-01T11:15:11Z</time>
      </trkpt>
      <trkpt lat="43.5216" lon="5.53402">
        <ele>248.16</ele>
        <time>2019-05-01T11:15:21Z</time>
      </trkpt>
      <trkpt lat="43.52161" lon="5.53403">
        <ele>248.16</ele>
        <time>2019-05-01T11:15:22Z</time>
      </trkpt>
      <trkpt lat="43.52162" lon="5.53405">
        <ele>248.16</ele>
        <time>2019-05-01T11:15:23Z</time>
      </trkpt>
      <trkpt lat="43.52165" lon="5.53417">
        <ele>248.64</ele>
        <time>2019-05-01T11:15:32Z</time>
      </trkpt>
      <trkpt lat="43.52166" lon="5.53424">
        <ele>249.6</ele>
        <time>2019-05-01T11:15:37Z</time>
      </trkpt>
      <trkpt lat="43.52165" lon="5.53434">
        <ele>250.08</ele>
        <time>2019-05-01T11:15:43Z</time>
      </trkpt>
      <trkpt lat="43.52164" lon="5.53441">
        <ele>250.08</ele>
        <time>2019-05-01T11:15:51Z</time>
      </trkpt>
      <trkpt lat="43.52165" lon="5.53437">
        <ele>250.08</ele>
        <time>2019-05-01T11:16:04Z</time>
      </trkpt>
      <trkpt lat="43.52165" lon="5.53441">
        <ele>250.08</ele>
        <time>2019-05-01T11:16:18Z</time>
      </trkpt>
      <trkpt lat="43.52165" lon="5.5344">
        <ele>250.08</ele>
        <time>2019-05-01T11:16:19Z</time>
      </trkpt>
      <trkpt lat="43.52165" lon="5.53436">
        <ele>250.08</ele>
        <time>2019-05-01T11:16:23Z</time>
      </trkpt>
      <trkpt lat="43.52168" lon="5.53427">
        <ele>250.08</ele>
        <time>2019-05-01T11:16:29Z</time>
      </trkpt>
      <trkpt lat="43.52169" lon="5.53418">
        <ele>250.08</ele>
        <time>2019-05-01T11:16:37Z</time>
      </trkpt>
      <trkpt lat="43.52167" lon="5.53417">
        <ele>249.12</ele>
        <time>2019-05-01T11:16:46Z</time>
      </trkpt>
      <trkpt lat="43.52165" lon="5.53409">
        <ele>249.12</ele>
        <time>2019-05-01T11:16:51Z</time>
      </trkpt>
      <trkpt lat="43.52162" lon="5.53401">
        <ele>249.12</ele>
        <time>2019-05-01T11:17:02Z</time>
      </trkpt>
      <trkpt lat="43.52149" lon="5.53382">
        <ele>247.2</ele>
        <time>2019-05-01T11:17:21Z</time>
      </trkpt>
      <trkpt lat="43.52136" lon="5.53356">
        <ele>246.72</ele>
        <time>2019-05-01T11:17:44Z</time>
      </trkpt>
      <trkpt lat="43.5212" lon="5.53337">
        <ele>245.27</ele>
        <time>2019-05-01T11:18:07Z</time>
      </trkpt>
      <trkpt lat="43.52105" lon="5.53317">
        <ele>242.87</ele>
        <time>2019-05-01T11:18:31Z</time>
      </trkpt>
      <trkpt lat="43.52094" lon="5.53297">
        <ele>239.51</ele>
        <time>2019-05-01T11:18:47Z</time>
      </trkpt>
      <trkpt lat="43.52091" lon="5.53295">
        <ele>239.51</ele>
        <time>2019-05-01T11:18:49Z</time>
      </trkpt>
      <trkpt lat="43.52079" lon="5.53289">
        <ele>238.54</ele>
        <time>2019-05-01T11:19:05Z</time>
      </trkpt>
      <trkpt lat="43.52076" lon="5.5329">
        <ele>238.06</ele>
        <time>2019-05-01T11:19:26Z</time>
      </trkpt>
      <trkpt lat="43.52074" lon="5.53288">
        <ele>238.06</ele>
        <time>2019-05-01T11:19:56Z</time>
      </trkpt>
      <trkpt lat="43.52076" lon="5.5329">
        <ele>237.58</ele>
        <time>2019-05-01T11:20:19Z</time>
      </trkpt>
      <trkpt lat="43.52075" lon="5.53295">
        <ele>237.58</ele>
        <time>2019-05-01T11:20:43Z</time>
      </trkpt>
      <trkpt lat="43.52078" lon="5.53291">
        <ele>237.1</ele>
        <time>2019-05-01T11:21:11Z</time>
      </trkpt>
      <trkpt lat="43.52088" lon="5.53278">
        <ele>238.54</ele>
        <time>2019-05-01T11:21:32Z</time>
      </trkpt>
      <trkpt lat="43.52094" lon="5.53277">
        <ele>239.02</ele>
        <time>2019-05-01T11:21:52Z</time>
      </trkpt>
      <trkpt lat="43.52095" lon="5.53275">
        <ele>239.02</ele>
        <time>2019-05-01T11:22:14Z</time>
      </trkpt>
      <trkpt lat="43.52095" lon="5.53281">
        <ele>239.02</ele>
        <time>2019-05-01T11:22:47Z</time>
      </trkpt>
      <trkpt lat="43.52098" lon="5.53283">
        <ele>239.51</ele>
        <time>2019-05-01T11:22:57Z</time>
      </trkpt>
      <trkpt lat="43.52093" lon="5.53286">
        <ele>239.51</ele>
        <time>2019-05-01T11:23:00Z</time>
      </trkpt>
      <trkpt lat="43.52065" lon="5.53301">
        <ele>239.51</ele>
        <time>2019-05-01T11:23:11Z</time>
      </trkpt>
      <trkpt lat="43.52059" lon="5.53311">
        <ele>240.47</ele>
        <time>2019-05-01T11:23:12Z</time>
      </trkpt>
      <trkpt lat="43.52054" lon="5.53322">
        <ele>240.47</ele>
        <time>2019-05-01T11:23:13Z</time>
      </trkpt>
      <trkpt lat="43.5205" lon="5.53335">
        <ele>241.43</ele>
        <time>2019-05-01T11:23:14Z</time>
      </trkpt>
      <trkpt lat="43.52046" lon="5.53348">
        <ele>242.39</ele>
        <time>2019-05-01T11:23:15Z</time>
      </trkpt>
      <trkpt lat="43.52026" lon="5.53433">
        <ele>247.2</ele>
        <time>2019-05-01T11:23:20Z</time>
      </trkpt>
      <trkpt lat="43.52013" lon="5.53492">
        <ele>250.08</ele>
        <time>2019-05-01T11:23:23Z</time>
      </trkpt>
      <trkpt lat="43.5201" lon="5.53515">
        <ele>251.04</ele>
        <time>2019-05-01T11:23:24Z</time>
      </trkpt>
      <trkpt lat="43.52009" lon="5.53526">
        <ele>251.52</ele>
        <time>2019-05-01T11:23:25Z</time>
      </trkpt>
      <trkpt lat="43.52009" lon="5.53608">
        <ele>253.93</ele>
        <time>2019-05-01T11:23:30Z</time>
      </trkpt>
      <trkpt lat="43.52007" lon="5.53634">
        <ele>253.93</ele>
        <time>2019-05-01T11:23:31Z</time>
      </trkpt>
      <trkpt lat="43.52005" lon="5.53645">
        <ele>254.41</ele>
        <time>2019-05-01T11:23:32Z</time>
      </trkpt>
      <trkpt lat="43.51983" lon="5.53784">
        <ele>252</ele>
        <time>2019-05-01T11:23:39Z</time>
      </trkpt>
      <trkpt lat="43.5197" lon="5.53958">
        <ele>252.48</ele>
        <time>2019-05-01T11:23:48Z</time>
      </trkpt>
      <trkpt lat="43.51965" lon="5.53979">
        <ele>252</ele>
        <time>2019-05-01T11:23:49Z</time>
      </trkpt>
      <trkpt lat="43.51951" lon="5.54029">
        <ele>249.12</ele>
        <time>2019-05-01T11:23:52Z</time>
      </trkpt>
      <trkpt lat="43.51943" lon="5.54055">
        <ele>247.2</ele>
        <time>2019-05-01T11:23:54Z</time>
      </trkpt>
      <trkpt lat="43.51928" lon="5.54134">
        <ele>246.23</ele>
        <time>2019-05-01T11:24:00Z</time>
      </trkpt>
      <trkpt lat="43.51929" lon="5.54148">
        <ele>246.23</ele>
        <time>2019-05-01T11:24:01Z</time>
      </trkpt>
      <trkpt lat="43.5193" lon="5.54164">
        <ele>246.23</ele>
        <time>2019-05-01T11:24:02Z</time>
      </trkpt>
      <trkpt lat="43.51953" lon="5.54294">
        <ele>243.35</ele>
        <time>2019-05-01T11:24:10Z</time>
      </trkpt>
      <trkpt lat="43.51994" lon="5.54406">
        <ele>244.79</ele>
        <time>2019-05-01T11:24:16Z</time>
      </trkpt>
      <trkpt lat="43.52032" lon="5.5449">
        <ele>240.95</ele>
        <time>2019-05-01T11:24:21Z</time>
      </trkpt>
      <trkpt lat="43.52073" lon="5.54588">
        <ele>239.02</ele>
        <time>2019-05-01T11:24:31Z</time>
      </trkpt>
      <trkpt lat="43.52075" lon="5.54598">
        <ele>240.47</ele>
        <time>2019-05-01T11:24:32Z</time>
      </trkpt>
      <trkpt lat="43.52076" lon="5.54609">
        <ele>240.47</ele>
        <time>2019-05-01T11:24:33Z</time>
      </trkpt>
      <trkpt lat="43.52077" lon="5.5462">
        <ele>240.47</ele>
        <time>2019-05-01T11:24:34Z</time>
      </trkpt>
      <trkpt lat="43.52078" lon="5.54633">
        <ele>241.43</ele>
        <time>2019-05-01T11:24:35Z</time>
      </trkpt>
      <trkpt lat="43.52078" lon="5.54646">
        <ele>241.91</ele>
        <time>2019-05-01T11:24:36Z</time>
      </trkpt>
      <trkpt lat="43.52078" lon="5.54676">
        <ele>242.87</ele>
        <time>2019-05-01T11:24:38Z</time>
      </trkpt>
      <trkpt lat="43.52079" lon="5.54697">
        <ele>244.31</ele>
        <time>2019-05-01T11:24:39Z</time>
      </trkpt>
      <trkpt lat="43.52089" lon="5.54755">
        <ele>248.16</ele>
        <time>2019-05-01T11:24:43Z</time>
      </trkpt>
      <trkpt lat="43.52101" lon="5.54801">
        <ele>250.08</ele>
        <time>2019-05-01T11:24:46Z</time>
      </trkpt>
      <trkpt lat="43.52112" lon="5.54825">
        <ele>251.04</ele>
        <time>2019-05-01T11:24:48Z</time>
      </trkpt>
      <trkpt lat="43.52125" lon="5.5485">
        <ele>252</ele>
        <time>2019-05-01T11:24:50Z</time>
      </trkpt>
      <trkpt lat="43.52136" lon="5.54875">
        <ele>254.41</ele>
        <time>2019-05-01T11:24:52Z</time>
      </trkpt>
      <trkpt lat="43.52154" lon="5.54944">
        <ele>256.33</ele>
        <time>2019-05-01T11:24:56Z</time>
      </trkpt>
      <trkpt lat="43.52169" lon="5.55">
        <ele>260.17</ele>
        <time>2019-05-01T11:24:59Z</time>
      </trkpt>
      <trkpt lat="43.52184" lon="5.55059">
        <ele>264.02</ele>
        <time>2019-05-01T11:25:02Z</time>
      </trkpt>
      <trkpt lat="43.52194" lon="5.55099">
        <ele>264.98</ele>
        <time>2019-05-01T11:25:04Z</time>
      </trkpt>
      <trkpt lat="43.52207" lon="5.55157">
        <ele>266.9</ele>
        <time>2019-05-01T11:25:07Z</time>
      </trkpt>
      <trkpt lat="43.52258" lon="5.55401">
        <ele>270.27</ele>
        <time>2019-05-01T11:25:20Z</time>
      </trkpt>
      <trkpt lat="43.52298" lon="5.55532">
        <ele>270.75</ele>
        <time>2019-05-01T11:25:29Z</time>
      </trkpt>
      <trkpt lat="43.52305" lon="5.55544">
        <ele>271.71</ele>
        <time>2019-05-01T11:25:30Z</time>
      </trkpt>
      <trkpt lat="43.52313" lon="5.55555">
        <ele>271.71</ele>
        <time>2019-05-01T11:25:31Z</time>
      </trkpt>
      <trkpt lat="43.52342" lon="5.55592">
        <ele>272.67</ele>
        <time>2019-05-01T11:25:34Z</time>
      </trkpt>
      <trkpt lat="43.52379" lon="5.55665">
        <ele>276.52</ele>
        <time>2019-05-01T11:25:39Z</time>
      </trkpt>
      <trkpt lat="43.52401" lon="5.55729">
        <ele>279.88</ele>
        <time>2019-05-01T11:25:43Z</time>
      </trkpt>
      <trkpt lat="43.52403" lon="5.55747">
        <ele>281.32</ele>
        <time>2019-05-01T11:25:44Z</time>
      </trkpt>
      <trkpt lat="43.52405" lon="5.55765">
        <ele>282.77</ele>
        <time>2019-05-01T11:25:45Z</time>
      </trkpt>
      <trkpt lat="43.52405" lon="5.55784">
        <ele>282.77</ele>
        <time>2019-05-01T11:25:46Z</time>
      </trkpt>
      <trkpt lat="43.52396" lon="5.5582">
        <ele>283.25</ele>
        <time>2019-05-01T11:25:48Z</time>
      </trkpt>
      <trkpt lat="43.52385" lon="5.55852">
        <ele>283.25</ele>
        <time>2019-05-01T11:25:50Z</time>
      </trkpt>
      <trkpt lat="43.52382" lon="5.55869">
        <ele>285.17</ele>
        <time>2019-05-01T11:25:51Z</time>
      </trkpt>
      <trkpt lat="43.52378" lon="5.55941">
        <ele>288.53</ele>
        <time>2019-05-01T11:25:55Z</time>
      </trkpt>
      <trkpt lat="43.52374" lon="5.56">
        <ele>289.97</ele>
        <time>2019-05-01T11:25:58Z</time>
      </trkpt>
      <trkpt lat="43.52372" lon="5.56086">
        <ele>291.9</ele>
        <time>2019-05-01T11:26:03Z</time>
      </trkpt>
      <trkpt lat="43.52373" lon="5.56103">
        <ele>292.38</ele>
        <time>2019-05-01T11:26:04Z</time>
      </trkpt>
      <trkpt lat="43.52389" lon="5.56191">
        <ele>296.7</ele>
        <time>2019-05-01T11:26:09Z</time>
      </trkpt>
      <trkpt lat="43.52394" lon="5.56229">
        <ele>297.67</ele>
        <time>2019-05-01T11:26:11Z</time>
      </trkpt>
      <trkpt lat="43.52399" lon="5.56317">
        <ele>295.26</ele>
        <time>2019-05-01T11:26:16Z</time>
      </trkpt>
      <trkpt lat="43.52397" lon="5.56344">
        <ele>297.18</ele>
        <time>2019-05-01T11:26:18Z</time>
      </trkpt>
      <trkpt lat="43.52395" lon="5.56356">
        <ele>297.18</ele>
        <time>2019-05-01T11:26:19Z</time>
      </trkpt>
      <trkpt lat="43.52392" lon="5.56368">
        <ele>297.18</ele>
        <time>2019-05-01T11:26:20Z</time>
      </trkpt>
      <trkpt lat="43.5238" lon="5.56404">
        <ele>297.67</ele>
        <time>2019-05-01T11:26:23Z</time>
      </trkpt>
      <trkpt lat="43.52378" lon="5.56419">
        <ele>297.18</ele>
        <time>2019-05-01T11:26:24Z</time>
      </trkpt>
      <trkpt lat="43.52377" lon="5.56434">
        <ele>297.67</ele>
        <time>2019-05-01T11:26:25Z</time>
      </trkpt>
      <trkpt lat="43.52377" lon="5.5652">
        <ele>298.15</ele>
        <time>2019-05-01T11:26:32Z</time>
      </trkpt>
      <trkpt lat="43.52376" lon="5.56531">
        <ele>299.11</ele>
        <time>2019-05-01T11:26:33Z</time>
      </trkpt>
      <trkpt lat="43.52372" lon="5.56541">
        <ele>298.63</ele>
        <time>2019-05-01T11:26:34Z</time>
      </trkpt>
      <trkpt lat="43.52368" lon="5.5655">
        <ele>299.59</ele>
        <time>2019-05-01T11:26:35Z</time>
      </trkpt>
      <trkpt lat="43.52364" lon="5.5656">
        <ele>300.07</ele>
        <time>2019-05-01T11:26:36Z</time>
      </trkpt>
      <trkpt lat="43.52349" lon="5.56598">
        <ele>302.47</ele>
        <time>2019-05-01T11:26:40Z</time>
      </trkpt>
      <trkpt lat="43.52331" lon="5.56682">
        <ele>301.03</ele>
        <time>2019-05-01T11:26:46Z</time>
      </trkpt>
      <trkpt lat="43.52326" lon="5.56697">
        <ele>301.03</ele>
        <time>2019-05-01T11:26:47Z</time>
      </trkpt>
      <trkpt lat="43.52312" lon="5.56734">
        <ele>301.03</ele>
        <time>2019-05-01T11:26:50Z</time>
      </trkpt>
      <trkpt lat="43.52302" lon="5.56777">
        <ele>304.39</ele>
        <time>2019-05-01T11:26:55Z</time>
      </trkpt>
      <trkpt lat="43.523" lon="5.56785">
        <ele>304.39</ele>
        <time>2019-05-01T11:26:56Z</time>
      </trkpt>
      <trkpt lat="43.52297" lon="5.56807">
        <ele>305.36</ele>
        <time>2019-05-01T11:26:59Z</time>
      </trkpt>
      <trkpt lat="43.52297" lon="5.56814">
        <ele>305.36</ele>
        <time>2019-05-01T11:27:00Z</time>
      </trkpt>
      <trkpt lat="43.52298" lon="5.56821">
        <ele>306.8</ele>
        <time>2019-05-01T11:27:01Z</time>
      </trkpt>
      <trkpt lat="43.52299" lon="5.56827">
        <ele>307.28</ele>
        <time>2019-05-01T11:27:02Z</time>
      </trkpt>
      <trkpt lat="43.523" lon="5.56834">
        <ele>307.28</ele>
        <time>2019-05-01T11:27:03Z</time>
      </trkpt>
      <trkpt lat="43.52301" lon="5.56837">
        <ele>307.28</ele>
        <time>2019-05-01T11:27:04Z</time>
      </trkpt>
      <trkpt lat="43.52303" lon="5.56841">
        <ele>307.28</ele>
        <time>2019-05-01T11:27:05Z</time>
      </trkpt>
      <trkpt lat="43.52305" lon="5.56845">
        <ele>307.76</ele>
        <time>2019-05-01T11:27:06Z</time>
      </trkpt>
      <trkpt lat="43.52307" lon="5.56848">
        <ele>307.76</ele>
        <time>2019-05-01T11:27:07Z</time>
      </trkpt>
      <trkpt lat="43.52309" lon="5.56851">
        <ele>308.24</ele>
        <time>2019-05-01T11:27:08Z</time>
      </trkpt>
      <trkpt lat="43.52312" lon="5.56854">
        <ele>308.24</ele>
        <time>2019-05-01T11:27:09Z</time>
      </trkpt>
      <trkpt lat="43.52314" lon="5.56855">
        <ele>308.72</ele>
        <time>2019-05-01T11:27:10Z</time>
      </trkpt>
      <trkpt lat="43.52327" lon="5.56866">
        <ele>311.12</ele>
        <time>2019-05-01T11:27:14Z</time>
      </trkpt>
      <trkpt lat="43.52339" lon="5.56876">
        <ele>312.57</ele>
        <time>2019-05-01T11:27:16Z</time>
      </trkpt>
      <trkpt lat="43.52342" lon="5.56882">
        <ele>313.53</ele>
        <time>2019-05-01T11:27:17Z</time>
      </trkpt>
      <trkpt lat="43.52343" lon="5.56887">
        <ele>314.01</ele>
        <time>2019-05-01T11:27:18Z</time>
      </trkpt>
      <trkpt lat="43.5235" lon="5.56925">
        <ele>316.89</ele>
        <time>2019-05-01T11:27:23Z</time>
      </trkpt>
      <trkpt lat="43.52352" lon="5.56933">
        <ele>317.85</ele>
        <time>2019-05-01T11:27:24Z</time>
      </trkpt>
      <trkpt lat="43.52355" lon="5.56946">
        <ele>317.85</ele>
        <time>2019-05-01T11:27:25Z</time>
      </trkpt>
      <trkpt lat="43.52366" lon="5.57013">
        <ele>318.33</ele>
        <time>2019-05-01T11:27:29Z</time>
      </trkpt>
      <trkpt lat="43.52366" lon="5.57023">
        <ele>318.81</ele>
        <time>2019-05-01T11:27:30Z</time>
      </trkpt>
      <trkpt lat="43.52366" lon="5.57031">
        <ele>319.3</ele>
        <time>2019-05-01T11:27:31Z</time>
      </trkpt>
      <trkpt lat="43.52364" lon="5.57037">
        <ele>320.26</ele>
        <time>2019-05-01T11:27:32Z</time>
      </trkpt>
      <trkpt lat="43.52363" lon="5.57043">
        <ele>320.74</ele>
        <time>2019-05-01T11:27:33Z</time>
      </trkpt>
      <trkpt lat="43.52362" lon="5.57049">
        <ele>321.7</ele>
        <time>2019-05-01T11:27:34Z</time>
      </trkpt>
      <trkpt lat="43.5236" lon="5.57052">
        <ele>322.66</ele>
        <time>2019-05-01T11:27:35Z</time>
      </trkpt>
      <trkpt lat="43.52357" lon="5.57055">
        <ele>323.14</ele>
        <time>2019-05-01T11:27:36Z</time>
      </trkpt>
      <trkpt lat="43.52355" lon="5.57056">
        <ele>323.14</ele>
        <time>2019-05-01T11:27:37Z</time>
      </trkpt>
      <trkpt lat="43.52353" lon="5.57058">
        <ele>324.58</ele>
        <time>2019-05-01T11:27:38Z</time>
      </trkpt>
      <trkpt lat="43.52351" lon="5.57061">
        <ele>325.54</ele>
        <time>2019-05-01T11:27:39Z</time>
      </trkpt>
      <trkpt lat="43.52349" lon="5.57067">
        <ele>327.47</ele>
        <time>2019-05-01T11:27:40Z</time>
      </trkpt>
      <trkpt lat="43.52346" lon="5.57074">
        <ele>328.43</ele>
        <time>2019-05-01T11:27:41Z</time>
      </trkpt>
      <trkpt lat="43.52338" lon="5.57084">
        <ele>328.91</ele>
        <time>2019-05-01T11:27:43Z</time>
      </trkpt>
      <trkpt lat="43.52326" lon="5.57093">
        <ele>329.87</ele>
        <time>2019-05-01T11:27:44Z</time>
      </trkpt>
      <trkpt lat="43.52282" lon="5.57124">
        <ele>333.71</ele>
        <time>2019-05-01T11:27:48Z</time>
      </trkpt>
      <trkpt lat="43.52251" lon="5.57149">
        <ele>337.56</ele>
        <time>2019-05-01T11:27:51Z</time>
      </trkpt>
      <trkpt lat="43.52228" lon="5.57166">
        <ele>339</ele>
        <time>2019-05-01T11:27:53Z</time>
      </trkpt>
      <trkpt lat="43.52187" lon="5.57184">
        <ele>341.89</ele>
        <time>2019-05-01T11:27:56Z</time>
      </trkpt>
      <trkpt lat="43.52164" lon="5.57199">
        <ele>345.73</ele>
        <time>2019-05-01T11:27:58Z</time>
      </trkpt>
      <trkpt lat="43.52155" lon="5.57208">
        <ele>347.65</ele>
        <time>2019-05-01T11:27:59Z</time>
      </trkpt>
      <trkpt lat="43.52133" lon="5.57232">
        <ele>348.62</ele>
        <time>2019-05-01T11:28:01Z</time>
      </trkpt>
      <trkpt lat="43.52094" lon="5.57275">
        <ele>351.02</ele>
        <time>2019-05-01T11:28:05Z</time>
      </trkpt>
      <trkpt lat="43.52086" lon="5.5728">
        <ele>350.54</ele>
        <time>2019-05-01T11:28:06Z</time>
      </trkpt>
      <trkpt lat="43.52078" lon="5.57283">
        <ele>351.02</ele>
        <time>2019-05-01T11:28:07Z</time>
      </trkpt>
      <trkpt lat="43.52071" lon="5.57284">
        <ele>351.5</ele>
        <time>2019-05-01T11:28:08Z</time>
      </trkpt>
      <trkpt lat="43.52066" lon="5.57287">
        <ele>351.98</ele>
        <time>2019-05-01T11:28:09Z</time>
      </trkpt>
      <trkpt lat="43.52062" lon="5.57292">
        <ele>352.94</ele>
        <time>2019-05-01T11:28:10Z</time>
      </trkpt>
      <trkpt lat="43.5206" lon="5.57299">
        <ele>353.42</ele>
        <time>2019-05-01T11:28:11Z</time>
      </trkpt>
      <trkpt lat="43.52059" lon="5.57305">
        <ele>354.38</ele>
        <time>2019-05-01T11:28:12Z</time>
      </trkpt>
      <trkpt lat="43.52059" lon="5.57313">
        <ele>354.86</ele>
        <time>2019-05-01T11:28:13Z</time>
      </trkpt>
      <trkpt lat="43.52057" lon="5.57323">
        <ele>355.83</ele>
        <time>2019-05-01T11:28:14Z</time>
      </trkpt>
      <trkpt lat="43.52055" lon="5.57333">
        <ele>357.27</ele>
        <time>2019-05-01T11:28:15Z</time>
      </trkpt>
      <trkpt lat="43.52051" lon="5.57341">
        <ele>357.75</ele>
        <time>2019-05-01T11:28:16Z</time>
      </trkpt>
      <trkpt lat="43.52048" lon="5.57348">
        <ele>359.19</ele>
        <time>2019-05-01T11:28:17Z</time>
      </trkpt>
      <trkpt lat="43.52044" lon="5.57354">
        <ele>359.19</ele>
        <time>2019-05-01T11:28:18Z</time>
      </trkpt>
      <trkpt lat="43.5203" lon="5.57376">
        <ele>360.63</ele>
        <time>2019-05-01T11:28:21Z</time>
      </trkpt>
      <trkpt lat="43.52026" lon="5.57384">
        <ele>361.11</ele>
        <time>2019-05-01T11:28:22Z</time>
      </trkpt>
      <trkpt lat="43.52019" lon="5.57402">
        <ele>364.48</ele>
        <time>2019-05-01T11:28:25Z</time>
      </trkpt>
      <trkpt lat="43.52015" lon="5.57404">
        <ele>365.92</ele>
        <time>2019-05-01T11:28:27Z</time>
      </trkpt>
      <trkpt lat="43.52013" lon="5.57402">
        <ele>366.88</ele>
        <time>2019-05-01T11:28:28Z</time>
      </trkpt>
      <trkpt lat="43.52012" lon="5.57398">
        <ele>367.36</ele>
        <time>2019-05-01T11:28:29Z</time>
      </trkpt>
      <trkpt lat="43.52011" lon="5.57394">
        <ele>368.32</ele>
        <time>2019-05-01T11:28:30Z</time>
      </trkpt>
      <trkpt lat="43.5201" lon="5.5739">
        <ele>368.32</ele>
        <time>2019-05-01T11:28:31Z</time>
      </trkpt>
      <trkpt lat="43.52009" lon="5.57384">
        <ele>368.32</ele>
        <time>2019-05-01T11:28:32Z</time>
      </trkpt>
      <trkpt lat="43.52021" lon="5.57361">
        <ele>369.76</ele>
        <time>2019-05-01T11:28:37Z</time>
      </trkpt>
      <trkpt lat="43.5204" lon="5.57366">
        <ele>373.13</ele>
        <time>2019-05-01T11:28:42Z</time>
      </trkpt>
      <trkpt lat="43.5204" lon="5.57369">
        <ele>373.13</ele>
        <time>2019-05-01T11:28:43Z</time>
      </trkpt>
      <trkpt lat="43.52039" lon="5.57375">
        <ele>374.09</ele>
        <time>2019-05-01T11:28:44Z</time>
      </trkpt>
      <trkpt lat="43.52036" lon="5.57383">
        <ele>376.01</ele>
        <time>2019-05-01T11:28:45Z</time>
      </trkpt>
      <trkpt lat="43.52033" lon="5.57386">
        <ele>376.49</ele>
        <time>2019-05-01T11:28:46Z</time>
      </trkpt>
      <trkpt lat="43.52002" lon="5.57422">
        <ele>380.34</ele>
        <time>2019-05-01T11:28:50Z</time>
      </trkpt>
      <trkpt lat="43.51995" lon="5.57428">
        <ele>380.34</ele>
        <time>2019-05-01T11:28:51Z</time>
      </trkpt>
      <trkpt lat="43.51976" lon="5.57446">
        <ele>384.18</ele>
        <time>2019-05-01T11:28:54Z</time>
      </trkpt>
      <trkpt lat="43.51948" lon="5.57483">
        <ele>387.07</ele>
        <time>2019-05-01T11:28:58Z</time>
      </trkpt>
      <trkpt lat="43.51943" lon="5.57495">
        <ele>387.07</ele>
        <time>2019-05-01T11:28:59Z</time>
      </trkpt>
      <trkpt lat="43.51936" lon="5.57524">
        <ele>387.07</ele>
        <time>2019-05-01T11:29:01Z</time>
      </trkpt>
      <trkpt lat="43.51934" lon="5.5754">
        <ele>387.55</ele>
        <time>2019-05-01T11:29:02Z</time>
      </trkpt>
      <trkpt lat="43.51935" lon="5.57555">
        <ele>388.03</ele>
        <time>2019-05-01T11:29:03Z</time>
      </trkpt>
      <trkpt lat="43.5194" lon="5.57569">
        <ele>388.03</ele>
        <time>2019-05-01T11:29:04Z</time>
      </trkpt>
      <trkpt lat="43.51948" lon="5.57581">
        <ele>388.03</ele>
        <time>2019-05-01T11:29:05Z</time>
      </trkpt>
      <trkpt lat="43.51953" lon="5.57597">
        <ele>389.47</ele>
        <time>2019-05-01T11:29:06Z</time>
      </trkpt>
      <trkpt lat="43.51969" lon="5.57655">
        <ele>393.32</ele>
        <time>2019-05-01T11:29:11Z</time>
      </trkpt>
      <trkpt lat="43.51981" lon="5.57693">
        <ele>395.24</ele>
        <time>2019-05-01T11:29:14Z</time>
      </trkpt>
      <trkpt lat="43.52008" lon="5.57743">
        <ele>398.12</ele>
        <time>2019-05-01T11:29:18Z</time>
      </trkpt>
      <trkpt lat="43.52011" lon="5.5776">
        <ele>398.12</ele>
        <time>2019-05-01T11:29:19Z</time>
      </trkpt>
      <trkpt lat="43.52013" lon="5.57774">
        <ele>398.12</ele>
        <time>2019-05-01T11:29:20Z</time>
      </trkpt>
      <trkpt lat="43.52013" lon="5.57789">
        <ele>399.08</ele>
        <time>2019-05-01T11:29:21Z</time>
      </trkpt>
      <trkpt lat="43.52014" lon="5.57804">
        <ele>400.53</ele>
        <time>2019-05-01T11:29:22Z</time>
      </trkpt>
      <trkpt lat="43.52013" lon="5.57819">
        <ele>402.45</ele>
        <time>2019-05-01T11:29:23Z</time>
      </trkpt>
      <trkpt lat="43.52006" lon="5.5785">
        <ele>403.41</ele>
        <time>2019-05-01T11:29:25Z</time>
      </trkpt>
      <trkpt lat="43.52" lon="5.57881">
        <ele>405.33</ele>
        <time>2019-05-01T11:29:27Z</time>
      </trkpt>
      <trkpt lat="43.51998" lon="5.57897">
        <ele>405.33</ele>
        <time>2019-05-01T11:29:28Z</time>
      </trkpt>
      <trkpt lat="43.51998" lon="5.57914">
        <ele>406.29</ele>
        <time>2019-05-01T11:29:29Z</time>
      </trkpt>
      <trkpt lat="43.51998" lon="5.5793">
        <ele>408.22</ele>
        <time>2019-05-01T11:29:30Z</time>
      </trkpt>
      <trkpt lat="43.51999" lon="5.57949">
        <ele>408.22</ele>
        <time>2019-05-01T11:29:31Z</time>
      </trkpt>
      <trkpt lat="43.52004" lon="5.58029">
        <ele>411.58</ele>
        <time>2019-05-01T11:29:35Z</time>
      </trkpt>
      <trkpt lat="43.52006" lon="5.58069">
        <ele>412.54</ele>
        <time>2019-05-01T11:29:37Z</time>
      </trkpt>
      <trkpt lat="43.52011" lon="5.58208">
        <ele>414.95</ele>
        <time>2019-05-01T11:29:45Z</time>
      </trkpt>
      <trkpt lat="43.52009" lon="5.58222">
        <ele>415.43</ele>
        <time>2019-05-01T11:29:46Z</time>
      </trkpt>
      <trkpt lat="43.52005" lon="5.58237">
        <ele>415.91</ele>
        <time>2019-05-01T11:29:47Z</time>
      </trkpt>
      <trkpt lat="43.51999" lon="5.58249">
        <ele>417.83</ele>
        <time>2019-05-01T11:29:48Z</time>
      </trkpt>
      <trkpt lat="43.51991" lon="5.5826">
        <ele>419.27</ele>
        <time>2019-05-01T11:29:49Z</time>
      </trkpt>
      <trkpt lat="43.51974" lon="5.58284">
        <ele>420.71</ele>
        <time>2019-05-01T11:29:51Z</time>
      </trkpt>
      <trkpt lat="43.5196" lon="5.58309">
        <ele>421.68</ele>
        <time>2019-05-01T11:29:53Z</time>
      </trkpt>
      <trkpt lat="43.51955" lon="5.58322">
        <ele>422.16</ele>
        <time>2019-05-01T11:29:54Z</time>
      </trkpt>
      <trkpt lat="43.51951" lon="5.58338">
        <ele>424.08</ele>
        <time>2019-05-01T11:29:55Z</time>
      </trkpt>
      <trkpt lat="43.51949" lon="5.58353">
        <ele>425.04</ele>
        <time>2019-05-01T11:29:56Z</time>
      </trkpt>
      <trkpt lat="43.5195" lon="5.5837">
        <ele>426.96</ele>
        <time>2019-05-01T11:29:57Z</time>
      </trkpt>
      <trkpt lat="43.51952" lon="5.58387">
        <ele>428.4</ele>
        <time>2019-05-01T11:29:58Z</time>
      </trkpt>
      <trkpt lat="43.51956" lon="5.58441">
        <ele>432.25</ele>
        <time>2019-05-01T11:30:01Z</time>
      </trkpt>
      <trkpt lat="43.51964" lon="5.58498">
        <ele>433.21</ele>
        <time>2019-05-01T11:30:04Z</time>
      </trkpt>
      <trkpt lat="43.51991" lon="5.58601">
        <ele>436.1</ele>
        <time>2019-05-01T11:30:09Z</time>
      </trkpt>
      <trkpt lat="43.5202" lon="5.58702">
        <ele>434.17</ele>
        <time>2019-05-01T11:30:14Z</time>
      </trkpt>
      <trkpt lat="43.52098" lon="5.58917">
        <ele>432.73</ele>
        <time>2019-05-01T11:30:26Z</time>
      </trkpt>
      <trkpt lat="43.52115" lon="5.58971">
        <ele>434.17</ele>
        <time>2019-05-01T11:30:29Z</time>
      </trkpt>
      <trkpt lat="43.52117" lon="5.58989">
        <ele>435.13</ele>
        <time>2019-05-01T11:30:30Z</time>
      </trkpt>
      <trkpt lat="43.52119" lon="5.59009">
        <ele>436.58</ele>
        <time>2019-05-01T11:30:31Z</time>
      </trkpt>
      <trkpt lat="43.52118" lon="5.59028">
        <ele>436.58</ele>
        <time>2019-05-01T11:30:32Z</time>
      </trkpt>
      <trkpt lat="43.52116" lon="5.5905">
        <ele>436.58</ele>
        <time>2019-05-01T11:30:33Z</time>
      </trkpt>
      <trkpt lat="43.52112" lon="5.59069">
        <ele>436.58</ele>
        <time>2019-05-01T11:30:34Z</time>
      </trkpt>
      <trkpt lat="43.52105" lon="5.59087">
        <ele>437.54</ele>
        <time>2019-05-01T11:30:35Z</time>
      </trkpt>
      <trkpt lat="43.52096" lon="5.59104">
        <ele>437.54</ele>
        <time>2019-05-01T11:30:36Z</time>
      </trkpt>
      <trkpt lat="43.52067" lon="5.59159">
        <ele>438.02</ele>
        <time>2019-05-01T11:30:39Z</time>
      </trkpt>
      <trkpt lat="43.52011" lon="5.59249">
        <ele>439.46</ele>
        <time>2019-05-01T11:30:45Z</time>
      </trkpt>
      <trkpt lat="43.52004" lon="5.59267">
        <ele>439.94</ele>
        <time>2019-05-01T11:30:46Z</time>
      </trkpt>
      <trkpt lat="43.51998" lon="5.59282">
        <ele>439.94</ele>
        <time>2019-05-01T11:30:47Z</time>
      </trkpt>
      <trkpt lat="43.51986" lon="5.59318">
        <ele>441.86</ele>
        <time>2019-05-01T11:30:49Z</time>
      </trkpt>
      <trkpt lat="43.5197" lon="5.59374">
        <ele>445.23</ele>
        <time>2019-05-01T11:30:52Z</time>
      </trkpt>
      <trkpt lat="43.51953" lon="5.59445">
        <ele>448.11</ele>
        <time>2019-05-01T11:30:56Z</time>
      </trkpt>
      <trkpt lat="43.51945" lon="5.59494">
        <ele>446.67</ele>
        <time>2019-05-01T11:31:02Z</time>
      </trkpt>
      <trkpt lat="43.51942" lon="5.59516">
        <ele>450.03</ele>
        <time>2019-05-01T11:31:09Z</time>
      </trkpt>
      <trkpt lat="43.51941" lon="5.59524">
        <ele>450.03</ele>
        <time>2019-05-01T11:31:10Z</time>
      </trkpt>
      <trkpt lat="43.51932" lon="5.59571">
        <ele>453.88</ele>
        <time>2019-05-01T11:31:14Z</time>
      </trkpt>
      <trkpt lat="43.5193" lon="5.59585">
        <ele>453.88</ele>
        <time>2019-05-01T11:31:15Z</time>
      </trkpt>
      <trkpt lat="43.51921" lon="5.59626">
        <ele>457.24</ele>
        <time>2019-05-01T11:31:18Z</time>
      </trkpt>
      <trkpt lat="43.51916" lon="5.59653">
        <ele>458.21</ele>
        <time>2019-05-01T11:31:20Z</time>
      </trkpt>
      <trkpt lat="43.51879" lon="5.59775">
        <ele>455.32</ele>
        <time>2019-05-01T11:31:28Z</time>
      </trkpt>
      <trkpt lat="43.51853" lon="5.59866">
        <ele>451.96</ele>
        <time>2019-05-01T11:31:33Z</time>
      </trkpt>
      <trkpt lat="43.51849" lon="5.59886">
        <ele>451.96</ele>
        <time>2019-05-01T11:31:34Z</time>
      </trkpt>
      <trkpt lat="43.5182" lon="5.60062">
        <ele>455.32</ele>
        <time>2019-05-01T11:31:43Z</time>
      </trkpt>
      <trkpt lat="43.51817" lon="5.6008">
        <ele>455.32</ele>
        <time>2019-05-01T11:31:44Z</time>
      </trkpt>
      <trkpt lat="43.51804" lon="5.60175">
        <ele>458.69</ele>
        <time>2019-05-01T11:31:49Z</time>
      </trkpt>
      <trkpt lat="43.51803" lon="5.60195">
        <ele>458.69</ele>
        <time>2019-05-01T11:31:50Z</time>
      </trkpt>
      <trkpt lat="43.51804" lon="5.60216">
        <ele>458.69</ele>
        <time>2019-05-01T11:31:51Z</time>
      </trkpt>
      <trkpt lat="43.51807" lon="5.60236">
        <ele>460.61</ele>
        <time>2019-05-01T11:31:52Z</time>
      </trkpt>
      <trkpt lat="43.5181" lon="5.60256">
        <ele>460.61</ele>
        <time>2019-05-01T11:31:53Z</time>
      </trkpt>
      <trkpt lat="43.5184" lon="5.60407">
        <ele>461.09</ele>
        <time>2019-05-01T11:32:00Z</time>
      </trkpt>
      <trkpt lat="43.51865" lon="5.60512">
        <ele>464.45</ele>
        <time>2019-05-01T11:32:05Z</time>
      </trkpt>
      <trkpt lat="43.51891" lon="5.60649">
        <ele>468.3</ele>
        <time>2019-05-01T11:32:11Z</time>
      </trkpt>
      <trkpt lat="43.51908" lon="5.60743">
        <ele>470.7</ele>
        <time>2019-05-01T11:32:15Z</time>
      </trkpt>
      <trkpt lat="43.51943" lon="5.60892">
        <ele>470.22</ele>
        <time>2019-05-01T11:32:23Z</time>
      </trkpt>
      <trkpt lat="43.51946" lon="5.60905">
        <ele>471.18</ele>
        <time>2019-05-01T11:32:24Z</time>
      </trkpt>
      <trkpt lat="43.51954" lon="5.60952">
        <ele>474.07</ele>
        <time>2019-05-01T11:32:27Z</time>
      </trkpt>
      <trkpt lat="43.51961" lon="5.60989">
        <ele>477.43</ele>
        <time>2019-05-01T11:32:29Z</time>
      </trkpt>
      <trkpt lat="43.51968" lon="5.61029">
        <ele>481.28</ele>
        <time>2019-05-01T11:32:31Z</time>
      </trkpt>
      <trkpt lat="43.5199" lon="5.61156">
        <ele>485.12</ele>
        <time>2019-05-01T11:32:37Z</time>
      </trkpt>
      <trkpt lat="43.51998" lon="5.61198">
        <ele>487.05</ele>
        <time>2019-05-01T11:32:39Z</time>
      </trkpt>
      <trkpt lat="43.52025" lon="5.61348">
        <ele>490.41</ele>
        <time>2019-05-01T11:32:46Z</time>
      </trkpt>
      <trkpt lat="43.52033" lon="5.61392">
        <ele>491.37</ele>
        <time>2019-05-01T11:32:48Z</time>
      </trkpt>
      <trkpt lat="43.52045" lon="5.6146">
        <ele>494.26</ele>
        <time>2019-05-01T11:32:51Z</time>
      </trkpt>
      <trkpt lat="43.52049" lon="5.61481">
        <ele>494.26</ele>
        <time>2019-05-01T11:32:52Z</time>
      </trkpt>
      <trkpt lat="43.52066" lon="5.61577">
        <ele>496.66</ele>
        <time>2019-05-01T11:32:57Z</time>
      </trkpt>
      <trkpt lat="43.52071" lon="5.61633">
        <ele>500.98</ele>
        <time>2019-05-01T11:33:00Z</time>
      </trkpt>
      <trkpt lat="43.52072" lon="5.61687">
        <ele>504.83</ele>
        <time>2019-05-01T11:33:03Z</time>
      </trkpt>
      <trkpt lat="43.52074" lon="5.61727">
        <ele>505.79</ele>
        <time>2019-05-01T11:33:05Z</time>
      </trkpt>
      <trkpt lat="43.52075" lon="5.61768">
        <ele>501.95</ele>
        <time>2019-05-01T11:33:07Z</time>
      </trkpt>
      <trkpt lat="43.52077" lon="5.61834">
        <ele>498.1</ele>
        <time>2019-05-01T11:33:10Z</time>
      </trkpt>
      <trkpt lat="43.52079" lon="5.61877">
        <ele>493.77</ele>
        <time>2019-05-01T11:33:12Z</time>
      </trkpt>
      <trkpt lat="43.5208" lon="5.61916">
        <ele>490.89</ele>
        <time>2019-05-01T11:33:14Z</time>
      </trkpt>
      <trkpt lat="43.52085" lon="5.6203">
        <ele>486.56</ele>
        <time>2019-05-01T11:33:20Z</time>
      </trkpt>
      <trkpt lat="43.52086" lon="5.62092">
        <ele>483.2</ele>
        <time>2019-05-01T11:33:23Z</time>
      </trkpt>
      <trkpt lat="43.52088" lon="5.62155">
        <ele>480.8</ele>
        <time>2019-05-01T11:33:26Z</time>
      </trkpt>
      <trkpt lat="43.52093" lon="5.62334">
        <ele>477.43</ele>
        <time>2019-05-01T11:33:35Z</time>
      </trkpt>
      <trkpt lat="43.52096" lon="5.62386">
        <ele>475.03</ele>
        <time>2019-05-01T11:33:38Z</time>
      </trkpt>
      <trkpt lat="43.521" lon="5.62402">
        <ele>474.07</ele>
        <time>2019-05-01T11:33:39Z</time>
      </trkpt>
      <trkpt lat="43.52131" lon="5.62503">
        <ele>472.14</ele>
        <time>2019-05-01T11:33:45Z</time>
      </trkpt>
      <trkpt lat="43.52172" lon="5.62616">
        <ele>467.82</ele>
        <time>2019-05-01T11:33:52Z</time>
      </trkpt>
      <trkpt lat="43.52187" lon="5.6266">
        <ele>465.9</ele>
        <time>2019-05-01T11:33:55Z</time>
      </trkpt>
      <trkpt lat="43.52222" lon="5.62757">
        <ele>462.53</ele>
        <time>2019-05-01T11:34:01Z</time>
      </trkpt>
      <trkpt lat="43.52239" lon="5.62807">
        <ele>459.17</ele>
        <time>2019-05-01T11:34:04Z</time>
      </trkpt>
      <trkpt lat="43.52248" lon="5.6283">
        <ele>454.84</ele>
        <time>2019-05-01T11:34:06Z</time>
      </trkpt>
      <trkpt lat="43.5225" lon="5.62837">
        <ele>452.44</ele>
        <time>2019-05-01T11:34:07Z</time>
      </trkpt>
      <trkpt lat="43.52251" lon="5.62842">
        <ele>451.96</ele>
        <time>2019-05-01T11:34:08Z</time>
      </trkpt>
      <trkpt lat="43.52251" lon="5.62846">
        <ele>451.48</ele>
        <time>2019-05-01T11:34:09Z</time>
      </trkpt>
      <trkpt lat="43.52258" lon="5.6286">
        <ele>450.52</ele>
        <time>2019-05-01T11:34:14Z</time>
      </trkpt>
      <trkpt lat="43.52279" lon="5.62933">
        <ele>448.11</ele>
        <time>2019-05-01T11:34:20Z</time>
      </trkpt>
      <trkpt lat="43.52296" lon="5.62981">
        <ele>444.75</ele>
        <time>2019-05-01T11:34:23Z</time>
      </trkpt>
      <trkpt lat="43.52314" lon="5.63028">
        <ele>440.9</ele>
        <time>2019-05-01T11:34:26Z</time>
      </trkpt>
      <trkpt lat="43.5232" lon="5.63043">
        <ele>439.94</ele>
        <time>2019-05-01T11:34:27Z</time>
      </trkpt>
      <trkpt lat="43.52328" lon="5.63057">
        <ele>438.98</ele>
        <time>2019-05-01T11:34:28Z</time>
      </trkpt>
      <trkpt lat="43.52336" lon="5.63069">
        <ele>438.02</ele>
        <time>2019-05-01T11:34:29Z</time>
      </trkpt>
      <trkpt lat="43.52346" lon="5.6308">
        <ele>437.54</ele>
        <time>2019-05-01T11:34:30Z</time>
      </trkpt>
      <trkpt lat="43.52356" lon="5.6309">
        <ele>436.1</ele>
        <time>2019-05-01T11:34:31Z</time>
      </trkpt>
      <trkpt lat="43.52367" lon="5.63099">
        <ele>435.13</ele>
        <time>2019-05-01T11:34:32Z</time>
      </trkpt>
      <trkpt lat="43.52399" lon="5.63125">
        <ele>431.77</ele>
        <time>2019-05-01T11:34:35Z</time>
      </trkpt>
      <trkpt lat="43.5242" lon="5.63143">
        <ele>430.33</ele>
        <time>2019-05-01T11:34:37Z</time>
      </trkpt>
      <trkpt lat="43.52452" lon="5.63174">
        <ele>426.96</ele>
        <time>2019-05-01T11:34:40Z</time>
      </trkpt>
      <trkpt lat="43.52461" lon="5.63185">
        <ele>426</ele>
        <time>2019-05-01T11:34:41Z</time>
      </trkpt>
      <trkpt lat="43.52469" lon="5.63197">
        <ele>425.04</ele>
        <time>2019-05-01T11:34:42Z</time>
      </trkpt>
      <trkpt lat="43.52476" lon="5.63211">
        <ele>424.08</ele>
        <time>2019-05-01T11:34:43Z</time>
      </trkpt>
      <trkpt lat="43.52503" lon="5.6327">
        <ele>420.23</ele>
        <time>2019-05-01T11:34:48Z</time>
      </trkpt>
      <trkpt lat="43.52506" lon="5.63277">
        <ele>420.71</ele>
        <time>2019-05-01T11:34:49Z</time>
      </trkpt>
      <trkpt lat="43.52516" lon="5.63295">
        <ele>419.75</ele>
        <time>2019-05-01T11:34:57Z</time>
      </trkpt>
      <trkpt lat="43.52521" lon="5.63287">
        <ele>420.71</ele>
        <time>2019-05-01T11:35:15Z</time>
      </trkpt>
      <trkpt lat="43.52517" lon="5.63287">
        <ele>421.19</ele>
        <time>2019-05-01T11:35:29Z</time>
      </trkpt>
      <trkpt lat="43.52517" lon="5.63288">
        <ele>421.19</ele>
        <time>2019-05-01T11:35:45Z</time>
      </trkpt>
      <trkpt lat="43.52512" lon="5.6328">
        <ele>421.19</ele>
        <time>2019-05-01T11:36:01Z</time>
      </trkpt>
      <trkpt lat="43.52513" lon="5.63259">
        <ele>421.19</ele>
        <time>2019-05-01T11:36:21Z</time>
      </trkpt>
      <trkpt lat="43.52521" lon="5.63238">
        <ele>424.08</ele>
        <time>2019-05-01T11:36:41Z</time>
      </trkpt>
      <trkpt lat="43.52535" lon="5.63227">
        <ele>427.44</ele>
        <time>2019-05-01T11:37:01Z</time>
      </trkpt>
      <trkpt lat="43.52546" lon="5.63212">
        <ele>429.37</ele>
        <time>2019-05-01T11:37:21Z</time>
      </trkpt>
      <trkpt lat="43.52558" lon="5.63202">
        <ele>431.29</ele>
        <time>2019-05-01T11:37:43Z</time>
      </trkpt>
      <trkpt lat="43.52564" lon="5.63196">
        <ele>431.77</ele>
        <time>2019-05-01T11:38:02Z</time>
      </trkpt>
      <trkpt lat="43.52568" lon="5.63191">
        <ele>433.21</ele>
        <time>2019-05-01T11:38:17Z</time>
      </trkpt>
      <trkpt lat="43.52579" lon="5.63176">
        <ele>435.13</ele>
        <time>2019-05-01T11:38:40Z</time>
      </trkpt>
      <trkpt lat="43.52592" lon="5.63167">
        <ele>438.5</ele>
        <time>2019-05-01T11:38:59Z</time>
      </trkpt>
      <trkpt lat="43.526" lon="5.63152">
        <ele>439.46</ele>
        <time>2019-05-01T11:39:20Z</time>
      </trkpt>
      <trkpt lat="43.52605" lon="5.63134">
        <ele>441.38</ele>
        <time>2019-05-01T11:39:40Z</time>
      </trkpt>
      <trkpt lat="43.5261" lon="5.63115">
        <ele>444.75</ele>
        <time>2019-05-01T11:39:55Z</time>
      </trkpt>
      <trkpt lat="43.52617" lon="5.63095">
        <ele>447.15</ele>
        <time>2019-05-01T11:40:13Z</time>
      </trkpt>
      <trkpt lat="43.52624" lon="5.63083">
        <ele>449.07</ele>
        <time>2019-05-01T11:40:32Z</time>
      </trkpt>
      <trkpt lat="43.52629" lon="5.63068">
        <ele>451.48</ele>
        <time>2019-05-01T11:40:50Z</time>
      </trkpt>
      <trkpt lat="43.52634" lon="5.63065">
        <ele>452.44</ele>
        <time>2019-05-01T11:40:59Z</time>
      </trkpt>
      <trkpt lat="43.52637" lon="5.63063">
        <ele>452.92</ele>
        <time>2019-05-01T11:41:01Z</time>
      </trkpt>
      <trkpt lat="43.5265" lon="5.63065">
        <ele>457.72</ele>
        <time>2019-05-01T11:41:13Z</time>
      </trkpt>
      <trkpt lat="43.52651" lon="5.63065">
        <ele>457.72</ele>
        <time>2019-05-01T11:41:14Z</time>
      </trkpt>
      <trkpt lat="43.52663" lon="5.63071">
        <ele>462.05</ele>
        <time>2019-05-01T11:41:27Z</time>
      </trkpt>
      <trkpt lat="43.52664" lon="5.63072">
        <ele>462.05</ele>
        <time>2019-05-01T11:41:28Z</time>
      </trkpt>
      <trkpt lat="43.5267" lon="5.63076">
        <ele>464.93</ele>
        <time>2019-05-01T11:41:43Z</time>
      </trkpt>
      <trkpt lat="43.52668" lon="5.63076">
        <ele>464.93</ele>
        <time>2019-05-01T11:42:04Z</time>
      </trkpt>
      <trkpt lat="43.52662" lon="5.63071">
        <ele>461.57</ele>
        <time>2019-05-01T11:42:12Z</time>
      </trkpt>
      <trkpt lat="43.52654" lon="5.63061">
        <ele>459.17</ele>
        <time>2019-05-01T11:42:26Z</time>
      </trkpt>
      <trkpt lat="43.52645" lon="5.63048">
        <ele>455.8</ele>
        <time>2019-05-01T11:42:40Z</time>
      </trkpt>
      <trkpt lat="43.52642" lon="5.63047">
        <ele>454.84</ele>
        <time>2019-05-01T11:42:43Z</time>
      </trkpt>
      <trkpt lat="43.52642" lon="5.63031">
        <ele>456.28</ele>
        <time>2019-05-01T11:42:53Z</time>
      </trkpt>
      <trkpt lat="43.52647" lon="5.63018">
        <ele>457.72</ele>
        <time>2019-05-01T11:43:11Z</time>
      </trkpt>
      <trkpt lat="43.52655" lon="5.62999">
        <ele>459.65</ele>
        <time>2019-05-01T11:43:29Z</time>
      </trkpt>
      <trkpt lat="43.52649" lon="5.62986">
        <ele>461.57</ele>
        <time>2019-05-01T11:43:45Z</time>
      </trkpt>
      <trkpt lat="43.52649" lon="5.62967">
        <ele>464.45</ele>
        <time>2019-05-01T11:44:03Z</time>
      </trkpt>
      <trkpt lat="43.52655" lon="5.62947">
        <ele>467.82</ele>
        <time>2019-05-01T11:44:18Z</time>
      </trkpt>
      <trkpt lat="43.52655" lon="5.62941">
        <ele>469.26</ele>
        <time>2019-05-01T11:44:33Z</time>
      </trkpt>
      <trkpt lat="43.5266" lon="5.62942">
        <ele>469.26</ele>
        <time>2019-05-01T11:44:50Z</time>
      </trkpt>
      <trkpt lat="43.52653" lon="5.62931">
        <ele>470.22</ele>
        <time>2019-05-01T11:45:04Z</time>
      </trkpt>
      <trkpt lat="43.52652" lon="5.62915">
        <ele>472.63</ele>
        <time>2019-05-01T11:45:18Z</time>
      </trkpt>
      <trkpt lat="43.52653" lon="5.62891">
        <ele>474.55</ele>
        <time>2019-05-01T11:45:36Z</time>
      </trkpt>
      <trkpt lat="43.52658" lon="5.62876">
        <ele>476.47</ele>
        <time>2019-05-01T11:45:52Z</time>
      </trkpt>
      <trkpt lat="43.52655" lon="5.62864">
        <ele>478.39</ele>
        <time>2019-05-01T11:46:11Z</time>
      </trkpt>
      <trkpt lat="43.52654" lon="5.62843">
        <ele>480.32</ele>
        <time>2019-05-01T11:46:28Z</time>
      </trkpt>
      <trkpt lat="43.52656" lon="5.62827">
        <ele>483.2</ele>
        <time>2019-05-01T11:46:43Z</time>
      </trkpt>
      <trkpt lat="43.52662" lon="5.62823">
        <ele>484.16</ele>
        <time>2019-05-01T11:47:09Z</time>
      </trkpt>
      <trkpt lat="43.52671" lon="5.62802">
        <ele>486.56</ele>
        <time>2019-05-01T11:47:28Z</time>
      </trkpt>
      <trkpt lat="43.52682" lon="5.62792">
        <ele>489.45</ele>
        <time>2019-05-01T11:47:45Z</time>
      </trkpt>
      <trkpt lat="43.52687" lon="5.62781">
        <ele>491.37</ele>
        <time>2019-05-01T11:48:10Z</time>
      </trkpt>
      <trkpt lat="43.52691" lon="5.62777">
        <ele>492.81</ele>
        <time>2019-05-01T11:48:33Z</time>
      </trkpt>
      <trkpt lat="43.52697" lon="5.62764">
        <ele>494.26</ele>
        <time>2019-05-01T11:48:54Z</time>
      </trkpt>
      <trkpt lat="43.52707" lon="5.62751">
        <ele>497.62</ele>
        <time>2019-05-01T11:49:10Z</time>
      </trkpt>
      <trkpt lat="43.5271" lon="5.62735">
        <ele>499.54</ele>
        <time>2019-05-01T11:49:28Z</time>
      </trkpt>
      <trkpt lat="43.52709" lon="5.62725">
        <ele>500.02</ele>
        <time>2019-05-01T11:49:48Z</time>
      </trkpt>
      <trkpt lat="43.52709" lon="5.62708">
        <ele>502.43</ele>
        <time>2019-05-01T11:50:03Z</time>
      </trkpt>
      <trkpt lat="43.5271" lon="5.62697">
        <ele>503.87</ele>
        <time>2019-05-01T11:50:18Z</time>
      </trkpt>
      <trkpt lat="43.52724" lon="5.62706">
        <ele>503.39</ele>
        <time>2019-05-01T11:50:39Z</time>
      </trkpt>
      <trkpt lat="43.52723" lon="5.62701">
        <ele>503.39</ele>
        <time>2019-05-01T11:51:04Z</time>
      </trkpt>
      <trkpt lat="43.52723" lon="5.62701">
        <ele>503.39</ele>
        <time>2019-05-01T11:51:24Z</time>
      </trkpt>
      <trkpt lat="43.5271" lon="5.62697">
        <ele>501.95</ele>
        <time>2019-05-01T11:51:46Z</time>
      </trkpt>
      <trkpt lat="43.52714" lon="5.62692">
        <ele>503.87</ele>
        <time>2019-05-01T11:52:09Z</time>
      </trkpt>
      <trkpt lat="43.52719" lon="5.62679">
        <ele>505.31</ele>
        <time>2019-05-01T11:52:28Z</time>
      </trkpt>
      <trkpt lat="43.52717" lon="5.62679">
        <ele>505.31</ele>
        <time>2019-05-01T11:52:51Z</time>
      </trkpt>
      <trkpt lat="43.52716" lon="5.62682">
        <ele>504.83</ele>
        <time>2019-05-01T11:53:16Z</time>
      </trkpt>
      <trkpt lat="43.52716" lon="5.62672">
        <ele>506.75</ele>
        <time>2019-05-01T11:53:25Z</time>
      </trkpt>
      <trkpt lat="43.52725" lon="5.6266">
        <ele>509.16</ele>
        <time>2019-05-01T11:53:49Z</time>
      </trkpt>
      <trkpt lat="43.52735" lon="5.62661">
        <ele>509.16</ele>
        <time>2019-05-01T11:54:08Z</time>
      </trkpt>
      <trkpt lat="43.52746" lon="5.62667">
        <ele>509.16</ele>
        <time>2019-05-01T11:54:27Z</time>
      </trkpt>
      <trkpt lat="43.52747" lon="5.62678">
        <ele>507.71</ele>
        <time>2019-05-01T11:54:39Z</time>
      </trkpt>
      <trkpt lat="43.52751" lon="5.6268">
        <ele>506.75</ele>
        <time>2019-05-01T11:55:01Z</time>
      </trkpt>
      <trkpt lat="43.52747" lon="5.62679">
        <ele>507.71</ele>
        <time>2019-05-01T11:55:20Z</time>
      </trkpt>
      <trkpt lat="43.52747" lon="5.62689">
        <ele>507.71</ele>
        <time>2019-05-01T11:55:42Z</time>
      </trkpt>
      <trkpt lat="43.52755" lon="5.62681">
        <ele>508.19</ele>
        <time>2019-05-01T11:56:01Z</time>
      </trkpt>
      <trkpt lat="43.52754" lon="5.62689">
        <ele>505.31</ele>
        <time>2019-05-01T11:56:19Z</time>
      </trkpt>
      <trkpt lat="43.52758" lon="5.6269">
        <ele>504.83</ele>
        <time>2019-05-01T11:56:37Z</time>
      </trkpt>
      <trkpt lat="43.52755" lon="5.6269">
        <ele>505.79</ele>
        <time>2019-05-01T11:56:47Z</time>
      </trkpt>
      <trkpt lat="43.52754" lon="5.62691">
        <ele>504.83</ele>
        <time>2019-05-01T11:57:09Z</time>
      </trkpt>
      <trkpt lat="43.52753" lon="5.62684">
        <ele>506.75</ele>
        <time>2019-05-01T11:57:20Z</time>
      </trkpt>
      <trkpt lat="43.52749" lon="5.62679">
        <ele>508.19</ele>
        <time>2019-05-01T11:57:37Z</time>
      </trkpt>
      <trkpt lat="43.52744" lon="5.62678">
        <ele>508.19</ele>
        <time>2019-05-01T11:57:53Z</time>
      </trkpt>
      <trkpt lat="43.5274" lon="5.62673">
        <ele>508.67</ele>
        <time>2019-05-01T11:58:11Z</time>
      </trkpt>
      <trkpt lat="43.52737" lon="5.62672">
        <ele>508.19</ele>
        <time>2019-05-01T11:58:29Z</time>
      </trkpt>
      <trkpt lat="43.52737" lon="5.62674">
        <ele>509.64</ele>
        <time>2019-05-01T11:58:37Z</time>
      </trkpt>
      <trkpt lat="43.52737" lon="5.62676">
        <ele>508.19</ele>
        <time>2019-05-01T11:58:42Z</time>
      </trkpt>
      <trkpt lat="43.52736" lon="5.62676">
        <ele>508.67</ele>
        <time>2019-05-01T11:59:11Z</time>
      </trkpt>
      <trkpt lat="43.52741" lon="5.6267">
        <ele>505.31</ele>
        <time>2019-05-01T11:59:26Z</time>
      </trkpt>
      <trkpt lat="43.52741" lon="5.6267">
        <ele>509.16</ele>
        <time>2019-05-01T11:59:27Z</time>
      </trkpt>
      <trkpt lat="43.52736" lon="5.62667">
        <ele>509.64</ele>
        <time>2019-05-01T11:59:54Z</time>
      </trkpt>
      <trkpt lat="43.52742" lon="5.62679">
        <ele>508.67</ele>
        <time>2019-05-01T12:00:13Z</time>
      </trkpt>
      <trkpt lat="43.52748" lon="5.62681">
        <ele>508.19</ele>
        <time>2019-05-01T12:00:36Z</time>
      </trkpt>
      <trkpt lat="43.52746" lon="5.62679">
        <ele>507.71</ele>
        <time>2019-05-01T12:01:02Z</time>
      </trkpt>
      <trkpt lat="43.52744" lon="5.62675">
        <ele>507.23</ele>
        <time>2019-05-01T12:01:12Z</time>
      </trkpt>
      <trkpt lat="43.52743" lon="5.62676">
        <ele>508.67</ele>
        <time>2019-05-01T12:01:17Z</time>
      </trkpt>
      <trkpt lat="43.52747" lon="5.62682">
        <ele>509.16</ele>
        <time>2019-05-01T12:01:38Z</time>
      </trkpt>
      <trkpt lat="43.52747" lon="5.62684">
        <ele>501.46</ele>
        <time>2019-05-01T12:01:42Z</time>
      </trkpt>
      <trkpt lat="43.52747" lon="5.62684">
        <ele>512.52</ele>
        <time>2019-05-01T12:01:43Z</time>
      </trkpt>
      <trkpt lat="43.52747" lon="5.62684">
        <ele>506.27</ele>
        <time>2019-05-01T12:01:44Z</time>
      </trkpt>
      <trkpt lat="43.52747" lon="5.62684">
        <ele>510.6</ele>
        <time>2019-05-01T12:01:45Z</time>
      </trkpt>
      <trkpt lat="43.52745" lon="5.62679">
        <ele>507.23</ele>
        <time>2019-05-01T12:02:06Z</time>
      </trkpt>
      <trkpt lat="43.52746" lon="5.62681">
        <ele>509.16</ele>
        <time>2019-05-01T12:02:10Z</time>
      </trkpt>
      <trkpt lat="43.52745" lon="5.62683">
        <ele>504.35</ele>
        <time>2019-05-01T12:02:27Z</time>
      </trkpt>
      <trkpt lat="43.52745" lon="5.62684">
        <ele>509.64</ele>
        <time>2019-05-01T12:02:28Z</time>
      </trkpt>
      <trkpt lat="43.52746" lon="5.62685">
        <ele>507.71</ele>
        <time>2019-05-01T12:02:31Z</time>
      </trkpt>
      <trkpt lat="43.52748" lon="5.62685">
        <ele>507.71</ele>
        <time>2019-05-01T12:02:58Z</time>
      </trkpt>
      <trkpt lat="43.52749" lon="5.62685">
        <ele>507.71</ele>
        <time>2019-05-01T12:03:18Z</time>
      </trkpt>
      <trkpt lat="43.5275" lon="5.62685">
        <ele>509.16</ele>
        <time>2019-05-01T12:03:35Z</time>
      </trkpt>
      <trkpt lat="43.52746" lon="5.62682">
        <ele>508.19</ele>
        <time>2019-05-01T12:03:51Z</time>
      </trkpt>
      <trkpt lat="43.52746" lon="5.62685">
        <ele>508.67</ele>
        <time>2019-05-01T12:04:13Z</time>
      </trkpt>
      <trkpt lat="43.52746" lon="5.62684">
        <ele>509.16</ele>
        <time>2019-05-01T12:04:39Z</time>
      </trkpt>
      <trkpt lat="43.52747" lon="5.62686">
        <ele>510.12</ele>
        <time>2019-05-01T12:04:57Z</time>
      </trkpt>
      <trkpt lat="43.52748" lon="5.6268">
        <ele>508.67</ele>
        <time>2019-05-01T12:05:26Z</time>
      </trkpt>
      <trkpt lat="43.52748" lon="5.6268">
        <ele>508.67</ele>
        <time>2019-05-01T12:06:02Z</time>
      </trkpt>
      <trkpt lat="43.52749" lon="5.62677">
        <ele>509.16</ele>
        <time>2019-05-01T12:06:27Z</time>
      </trkpt>
      <trkpt lat="43.52748" lon="5.6268">
        <ele>509.16</ele>
        <time>2019-05-01T12:07:02Z</time>
      </trkpt>
      <trkpt lat="43.52748" lon="5.6268">
        <ele>509.16</ele>
        <time>2019-05-01T12:07:40Z</time>
      </trkpt>
      <trkpt lat="43.52747" lon="5.6268">
        <ele>509.64</ele>
        <time>2019-05-01T12:08:12Z</time>
      </trkpt>
      <trkpt lat="43.52745" lon="5.6268">
        <ele>509.64</ele>
        <time>2019-05-01T12:08:54Z</time>
      </trkpt>
      <trkpt lat="43.52746" lon="5.62681">
        <ele>509.64</ele>
        <time>2019-05-01T12:09:29Z</time>
      </trkpt>
      <trkpt lat="43.5275" lon="5.62681">
        <ele>509.64</ele>
        <time>2019-05-01T12:10:05Z</time>
      </trkpt>
      <trkpt lat="43.52747" lon="5.62679">
        <ele>509.64</ele>
        <time>2019-05-01T12:10:32Z</time>
      </trkpt>
      <trkpt lat="43.52749" lon="5.62679">
        <ele>509.64</ele>
        <time>2019-05-01T12:11:06Z</time>
      </trkpt>
      <trkpt lat="43.52747" lon="5.62681">
        <ele>511.08</ele>
        <time>2019-05-01T12:11:38Z</time>
      </trkpt>
      <trkpt lat="43.52747" lon="5.62681">
        <ele>510.12</ele>
        <time>2019-05-01T12:11:40Z</time>
      </trkpt>
      <trkpt lat="43.52748" lon="5.62684">
        <ele>509.64</ele>
        <time>2019-05-01T12:12:14Z</time>
      </trkpt>
      <trkpt lat="43.52747" lon="5.62682">
        <ele>509.64</ele>
        <time>2019-05-01T12:12:46Z</time>
      </trkpt>
      <trkpt lat="43.52746" lon="5.62681">
        <ele>509.64</ele>
        <time>2019-05-01T12:13:23Z</time>
      </trkpt>
      <trkpt lat="43.52745" lon="5.6268">
        <ele>509.64</ele>
        <time>2019-05-01T12:14:01Z</time>
      </trkpt>
      <trkpt lat="43.52747" lon="5.62683">
        <ele>509.64</ele>
        <time>2019-05-01T12:14:37Z</time>
      </trkpt>
      <trkpt lat="43.52746" lon="5.62683">
        <ele>513.48</ele>
        <time>2019-05-01T12:14:40Z</time>
      </trkpt>
      <trkpt lat="43.52747" lon="5.62683">
        <ele>509.16</ele>
        <time>2019-05-01T12:14:41Z</time>
      </trkpt>
      <trkpt lat="43.52746" lon="5.62683">
        <ele>509.64</ele>
        <time>2019-05-01T12:14:45Z</time>
      </trkpt>
      <trkpt lat="43.52746" lon="5.62682">
        <ele>510.6</ele>
        <time>2019-05-01T12:15:33Z</time>
      </trkpt>
      <trkpt lat="43.52747" lon="5.62681">
        <ele>510.12</ele>
        <time>2019-05-01T12:16:14Z</time>
      </trkpt>
      <trkpt lat="43.52748" lon="5.62678">
        <ele>510.12</ele>
        <time>2019-05-01T12:16:57Z</time>
      </trkpt>
      <trkpt lat="43.52747" lon="5.62678">
        <ele>510.12</ele>
        <time>2019-05-01T12:17:29Z</time>
      </trkpt>
      <trkpt lat="43.52746" lon="5.6268">
        <ele>510.12</ele>
        <time>2019-05-01T12:17:54Z</time>
      </trkpt>
      <trkpt lat="43.52746" lon="5.62682">
        <ele>510.12</ele>
        <time>2019-05-01T12:18:27Z</time>
      </trkpt>
      <trkpt lat="43.52745" lon="5.62679">
        <ele>510.12</ele>
        <time>2019-05-01T12:19:07Z</time>
      </trkpt>
      <trkpt lat="43.52746" lon="5.62683">
        <ele>510.12</ele>
        <time>2019-05-01T12:19:39Z</time>
      </trkpt>
      <trkpt lat="43.52746" lon="5.62683">
        <ele>510.12</ele>
        <time>2019-05-01T12:20:14Z</time>
      </trkpt>
      <trkpt lat="43.52745" lon="5.62681">
        <ele>510.6</ele>
        <time>2019-05-01T12:20:47Z</time>
      </trkpt>
      <trkpt lat="43.52747" lon="5.62681">
        <ele>510.6</ele>
        <time>2019-05-01T12:21:26Z</time>
      </trkpt>
      <trkpt lat="43.52747" lon="5.62683">
        <ele>510.6</ele>
        <time>2019-05-01T12:22:01Z</time>
      </trkpt>
      <trkpt lat="43.52747" lon="5.62683">
        <ele>510.6</ele>
        <time>2019-05-01T12:22:32Z</time>
      </trkpt>
      <trkpt lat="43.52747" lon="5.62682">
        <ele>512.04</ele>
        <time>2019-05-01T12:23:10Z</time>
      </trkpt>
      <trkpt lat="43.52746" lon="5.62682">
        <ele>512.04</ele>
        <time>2019-05-01T12:23:43Z</time>
      </trkpt>
      <trkpt lat="43.52747" lon="5.6268">
        <ele>512.04</ele>
        <time>2019-05-01T12:24:25Z</time>
      </trkpt>
      <trkpt lat="43.52745" lon="5.62681">
        <ele>512.04</ele>
        <time>2019-05-01T12:24:56Z</time>
      </trkpt>
      <trkpt lat="43.52746" lon="5.62679">
        <ele>511.56</ele>
        <time>2019-05-01T12:25:33Z</time>
      </trkpt>
      <trkpt lat="43.52747" lon="5.6268">
        <ele>511.56</ele>
        <time>2019-05-01T12:26:09Z</time>
      </trkpt>
      <trkpt lat="43.52746" lon="5.62682">
        <ele>511.56</ele>
        <time>2019-05-01T12:26:40Z</time>
      </trkpt>
      <trkpt lat="43.52744" lon="5.62682">
        <ele>511.56</ele>
        <time>2019-05-01T12:27:13Z</time>
      </trkpt>
      <trkpt lat="43.52746" lon="5.62683">
        <ele>512.04</ele>
        <time>2019-05-01T12:27:46Z</time>
      </trkpt>
      <trkpt lat="43.52746" lon="5.62683">
        <ele>512.04</ele>
        <time>2019-05-01T12:28:28Z</time>
      </trkpt>
      <trkpt lat="43.52745" lon="5.6268">
        <ele>512.04</ele>
        <time>2019-05-01T12:29:21Z</time>
      </trkpt>
      <trkpt lat="43.52749" lon="5.62681">
        <ele>512.04</ele>
        <time>2019-05-01T12:30:11Z</time>
      </trkpt>
      <trkpt lat="43.52748" lon="5.62683">
        <ele>511.56</ele>
        <time>2019-05-01T12:31:03Z</time>
      </trkpt>
      <trkpt lat="43.52748" lon="5.6268">
        <ele>507.71</ele>
        <time>2019-05-01T12:31:37Z</time>
      </trkpt>
      <trkpt lat="43.52748" lon="5.62681">
        <ele>513.96</ele>
        <time>2019-05-01T12:31:38Z</time>
      </trkpt>
      <trkpt lat="43.52747" lon="5.62681">
        <ele>513.96</ele>
        <time>2019-05-01T12:31:39Z</time>
      </trkpt>
      <trkpt lat="43.52747" lon="5.62682">
        <ele>512.04</ele>
        <time>2019-05-01T12:31:41Z</time>
      </trkpt>
      <trkpt lat="43.52746" lon="5.62682">
        <ele>512.04</ele>
        <time>2019-05-01T12:32:07Z</time>
      </trkpt>
      <trkpt lat="43.52746" lon="5.62685">
        <ele>512.04</ele>
        <time>2019-05-01T12:32:36Z</time>
      </trkpt>
      <trkpt lat="43.52747" lon="5.62684">
        <ele>511.56</ele>
        <time>2019-05-01T12:33:07Z</time>
      </trkpt>
      <trkpt lat="43.52746" lon="5.6269">
        <ele>511.56</ele>
        <time>2019-05-01T12:33:39Z</time>
      </trkpt>
      <trkpt lat="43.52748" lon="5.62689">
        <ele>513</ele>
        <time>2019-05-01T12:34:17Z</time>
      </trkpt>
      <trkpt lat="43.52746" lon="5.62684">
        <ele>513</ele>
        <time>2019-05-01T12:34:54Z</time>
      </trkpt>
      <trkpt lat="43.52742" lon="5.62685">
        <ele>513</ele>
        <time>2019-05-01T12:35:29Z</time>
      </trkpt>
      <trkpt lat="43.52743" lon="5.62686">
        <ele>513</ele>
        <time>2019-05-01T12:36:06Z</time>
      </trkpt>
      <trkpt lat="43.52747" lon="5.62682">
        <ele>513.96</ele>
        <time>2019-05-01T12:36:36Z</time>
      </trkpt>
      <trkpt lat="43.52747" lon="5.62679">
        <ele>514.92</ele>
        <time>2019-05-01T12:36:48Z</time>
      </trkpt>
      <trkpt lat="43.52747" lon="5.62678">
        <ele>514.92</ele>
        <time>2019-05-01T12:37:06Z</time>
      </trkpt>
      <trkpt lat="43.52749" lon="5.62682">
        <ele>514.92</ele>
        <time>2019-05-01T12:37:22Z</time>
      </trkpt>
      <trkpt lat="43.52748" lon="5.62683">
        <ele>513.96</ele>
        <time>2019-05-01T12:37:40Z</time>
      </trkpt>
      <trkpt lat="43.52747" lon="5.62678">
        <ele>513.96</ele>
        <time>2019-05-01T12:38:02Z</time>
      </trkpt>
      <trkpt lat="43.52747" lon="5.62679">
        <ele>515.4</ele>
        <time>2019-05-01T12:38:04Z</time>
      </trkpt>
      <trkpt lat="43.52747" lon="5.62677">
        <ele>515.4</ele>
        <time>2019-05-01T12:38:21Z</time>
      </trkpt>
      <trkpt lat="43.52746" lon="5.62677">
        <ele>515.4</ele>
        <time>2019-05-01T12:38:38Z</time>
      </trkpt>
      <trkpt lat="43.52744" lon="5.62675">
        <ele>515.4</ele>
        <time>2019-05-01T12:38:51Z</time>
      </trkpt>
      <trkpt lat="43.52741" lon="5.62676">
        <ele>515.4</ele>
        <time>2019-05-01T12:39:14Z</time>
      </trkpt>
      <trkpt lat="43.5274" lon="5.62672">
        <ele>515.88</ele>
        <time>2019-05-01T12:39:22Z</time>
      </trkpt>
      <trkpt lat="43.52736" lon="5.62666">
        <ele>516.85</ele>
        <time>2019-05-01T12:39:34Z</time>
      </trkpt>
      <trkpt lat="43.5273" lon="5.62658">
        <ele>517.33</ele>
        <time>2019-05-01T12:39:46Z</time>
      </trkpt>
      <trkpt lat="43.52726" lon="5.62651">
        <ele>519.25</ele>
        <time>2019-05-01T12:39:57Z</time>
      </trkpt>
      <trkpt lat="43.52728" lon="5.62646">
        <ele>519.25</ele>
        <time>2019-05-01T12:40:16Z</time>
      </trkpt>
      <trkpt lat="43.52728" lon="5.62646">
        <ele>519.25</ele>
        <time>2019-05-01T12:40:35Z</time>
      </trkpt>
      <trkpt lat="43.5273" lon="5.62644">
        <ele>519.73</ele>
        <time>2019-05-01T12:40:51Z</time>
      </trkpt>
      <trkpt lat="43.52732" lon="5.62641">
        <ele>520.69</ele>
        <time>2019-05-01T12:41:04Z</time>
      </trkpt>
      <trkpt lat="43.52735" lon="5.62639">
        <ele>521.65</ele>
        <time>2019-05-01T12:41:28Z</time>
      </trkpt>
      <trkpt lat="43.52745" lon="5.62636">
        <ele>523.58</ele>
        <time>2019-05-01T12:41:43Z</time>
      </trkpt>
      <trkpt lat="43.52758" lon="5.62639">
        <ele>525.98</ele>
        <time>2019-05-01T12:41:59Z</time>
      </trkpt>
      <trkpt lat="43.52765" lon="5.62639">
        <ele>526.46</ele>
        <time>2019-05-01T12:42:13Z</time>
      </trkpt>
      <trkpt lat="43.52776" lon="5.6264">
        <ele>528.38</ele>
        <time>2019-05-01T12:42:27Z</time>
      </trkpt>
      <trkpt lat="43.52784" lon="5.62637">
        <ele>530.3</ele>
        <time>2019-05-01T12:42:41Z</time>
      </trkpt>
      <trkpt lat="43.52789" lon="5.62632">
        <ele>532.23</ele>
        <time>2019-05-01T12:42:57Z</time>
      </trkpt>
      <trkpt lat="43.52794" lon="5.62627">
        <ele>534.15</ele>
        <time>2019-05-01T12:43:10Z</time>
      </trkpt>
      <trkpt lat="43.52801" lon="5.62623">
        <ele>534.63</ele>
        <time>2019-05-01T12:43:27Z</time>
      </trkpt>
      <trkpt lat="43.52801" lon="5.62622">
        <ele>534.63</ele>
        <time>2019-05-01T12:43:28Z</time>
      </trkpt>
      <trkpt lat="43.52811" lon="5.62621">
        <ele>536.55</ele>
        <time>2019-05-01T12:43:42Z</time>
      </trkpt>
      <trkpt lat="43.52818" lon="5.62621">
        <ele>537.51</ele>
        <time>2019-05-01T12:43:55Z</time>
      </trkpt>
      <trkpt lat="43.52827" lon="5.62615">
        <ele>538.48</ele>
        <time>2019-05-01T12:44:09Z</time>
      </trkpt>
      <trkpt lat="43.52835" lon="5.62609">
        <ele>539.92</ele>
        <time>2019-05-01T12:44:24Z</time>
      </trkpt>
      <trkpt lat="43.52846" lon="5.62608">
        <ele>541.36</ele>
        <time>2019-05-01T12:44:37Z</time>
      </trkpt>
      <trkpt lat="43.52856" lon="5.62606">
        <ele>544.24</ele>
        <time>2019-05-01T12:44:51Z</time>
      </trkpt>
      <trkpt lat="43.5286" lon="5.62606">
        <ele>544.72</ele>
        <time>2019-05-01T12:45:06Z</time>
      </trkpt>
      <trkpt lat="43.52869" lon="5.62599">
        <ele>547.13</ele>
        <time>2019-05-01T12:45:20Z</time>
      </trkpt>
      <trkpt lat="43.52878" lon="5.62594">
        <ele>548.57</ele>
        <time>2019-05-01T12:45:33Z</time>
      </trkpt>
      <trkpt lat="43.52883" lon="5.62589">
        <ele>549.53</ele>
        <time>2019-05-01T12:45:50Z</time>
      </trkpt>
      <trkpt lat="43.52889" lon="5.62589">
        <ele>550.01</ele>
        <time>2019-05-01T12:46:05Z</time>
      </trkpt>
      <trkpt lat="43.52895" lon="5.62587">
        <ele>550.97</ele>
        <time>2019-05-01T12:46:18Z</time>
      </trkpt>
      <trkpt lat="43.52898" lon="5.62595">
        <ele>551.45</ele>
        <time>2019-05-01T12:46:33Z</time>
      </trkpt>
      <trkpt lat="43.52901" lon="5.62597">
        <ele>551.93</ele>
        <time>2019-05-01T12:46:49Z</time>
      </trkpt>
      <trkpt lat="43.52907" lon="5.62601">
        <ele>552.41</ele>
        <time>2019-05-01T12:47:02Z</time>
      </trkpt>
      <trkpt lat="43.52909" lon="5.62605">
        <ele>553.38</ele>
        <time>2019-05-01T12:47:23Z</time>
      </trkpt>
      <trkpt lat="43.52912" lon="5.62613">
        <ele>554.82</ele>
        <time>2019-05-01T12:47:34Z</time>
      </trkpt>
      <trkpt lat="43.52913" lon="5.62617">
        <ele>555.78</ele>
        <time>2019-05-01T12:47:37Z</time>
      </trkpt>
      <trkpt lat="43.52913" lon="5.62622">
        <ele>557.22</ele>
        <time>2019-05-01T12:47:41Z</time>
      </trkpt>
      <trkpt lat="43.52913" lon="5.62624">
        <ele>557.22</ele>
        <time>2019-05-01T12:47:43Z</time>
      </trkpt>
      <trkpt lat="43.52915" lon="5.62635">
        <ele>558.66</ele>
        <time>2019-05-01T12:47:56Z</time>
      </trkpt>
      <trkpt lat="43.52917" lon="5.62635">
        <ele>559.14</ele>
        <time>2019-05-01T12:48:13Z</time>
      </trkpt>
      <trkpt lat="43.52917" lon="5.62639">
        <ele>559.14</ele>
        <time>2019-05-01T12:48:31Z</time>
      </trkpt>
      <trkpt lat="43.52918" lon="5.62637">
        <ele>558.66</ele>
        <time>2019-05-01T12:48:37Z</time>
      </trkpt>
      <trkpt lat="43.52916" lon="5.62634">
        <ele>558.66</ele>
        <time>2019-05-01T12:48:49Z</time>
      </trkpt>
      <trkpt lat="43.52912" lon="5.62637">
        <ele>557.22</ele>
        <time>2019-05-01T12:49:02Z</time>
      </trkpt>
      <trkpt lat="43.52911" lon="5.62638">
        <ele>557.22</ele>
        <time>2019-05-01T12:49:34Z</time>
      </trkpt>
      <trkpt lat="43.52912" lon="5.62638">
        <ele>557.22</ele>
        <time>2019-05-01T12:50:10Z</time>
      </trkpt>
      <trkpt lat="43.5291" lon="5.62639">
        <ele>557.22</ele>
        <time>2019-05-01T12:50:49Z</time>
      </trkpt>
      <trkpt lat="43.52912" lon="5.62637">
        <ele>556.74</ele>
        <time>2019-05-01T12:51:30Z</time>
      </trkpt>
      <trkpt lat="43.52913" lon="5.62635">
        <ele>556.74</ele>
        <time>2019-05-01T12:52:15Z</time>
      </trkpt>
      <trkpt lat="43.52912" lon="5.62637">
        <ele>556.74</ele>
        <time>2019-05-01T12:52:50Z</time>
      </trkpt>
      <trkpt lat="43.52912" lon="5.62637">
        <ele>556.74</ele>
        <time>2019-05-01T12:53:28Z</time>
      </trkpt>
      <trkpt lat="43.52911" lon="5.62637">
        <ele>556.74</ele>
        <time>2019-05-01T12:54:12Z</time>
      </trkpt>
      <trkpt lat="43.52911" lon="5.62637">
        <ele>557.22</ele>
        <time>2019-05-01T12:54:47Z</time>
      </trkpt>
      <trkpt lat="43.52911" lon="5.62638">
        <ele>557.22</ele>
        <time>2019-05-01T12:55:26Z</time>
      </trkpt>
      <trkpt lat="43.52911" lon="5.62639">
        <ele>557.22</ele>
        <time>2019-05-01T12:56:05Z</time>
      </trkpt>
      <trkpt lat="43.52911" lon="5.62638">
        <ele>557.22</ele>
        <time>2019-05-01T12:56:37Z</time>
      </trkpt>
      <trkpt lat="43.5291" lon="5.62638">
        <ele>557.22</ele>
        <time>2019-05-01T12:57:12Z</time>
      </trkpt>
      <trkpt lat="43.52908" lon="5.62641">
        <ele>557.22</ele>
        <time>2019-05-01T12:57:42Z</time>
      </trkpt>
      <trkpt lat="43.52907" lon="5.62641">
        <ele>557.22</ele>
        <time>2019-05-01T12:58:36Z</time>
      </trkpt>
      <trkpt lat="43.52909" lon="5.62639">
        <ele>557.7</ele>
        <time>2019-05-01T12:59:31Z</time>
      </trkpt>
      <trkpt lat="43.52907" lon="5.62642">
        <ele>557.7</ele>
        <time>2019-05-01T13:00:25Z</time>
      </trkpt>
      <trkpt lat="43.52909" lon="5.62637">
        <ele>557.7</ele>
        <time>2019-05-01T13:01:10Z</time>
      </trkpt>
      <trkpt lat="43.52909" lon="5.62641">
        <ele>558.18</ele>
        <time>2019-05-01T13:01:53Z</time>
      </trkpt>
      <trkpt lat="43.52908" lon="5.62641">
        <ele>558.18</ele>
        <time>2019-05-01T13:02:33Z</time>
      </trkpt>
      <trkpt lat="43.52907" lon="5.62645">
        <ele>558.18</ele>
        <time>2019-05-01T13:03:18Z</time>
      </trkpt>
      <trkpt lat="43.52908" lon="5.62644">
        <ele>558.18</ele>
        <time>2019-05-01T13:03:57Z</time>
      </trkpt>
      <trkpt lat="43.5291" lon="5.62643">
        <ele>558.18</ele>
        <time>2019-05-01T13:04:24Z</time>
      </trkpt>
      <trkpt lat="43.5291" lon="5.62642">
        <ele>558.18</ele>
        <time>2019-05-01T13:05:07Z</time>
      </trkpt>
      <trkpt lat="43.5291" lon="5.62644">
        <ele>558.66</ele>
        <time>2019-05-01T13:05:56Z</time>
      </trkpt>
      <trkpt lat="43.5291" lon="5.62644">
        <ele>558.66</ele>
        <time>2019-05-01T13:06:36Z</time>
      </trkpt>
      <trkpt lat="43.52909" lon="5.62646">
        <ele>558.66</ele>
        <time>2019-05-01T13:07:27Z</time>
      </trkpt>
      <trkpt lat="43.52909" lon="5.62644">
        <ele>558.66</ele>
        <time>2019-05-01T13:08:12Z</time>
      </trkpt>
      <trkpt lat="43.52909" lon="5.62644">
        <ele>558.66</ele>
        <time>2019-05-01T13:09:06Z</time>
      </trkpt>
      <trkpt lat="43.52909" lon="5.62644">
        <ele>558.66</ele>
        <time>2019-05-01T13:09:54Z</time>
      </trkpt>
      <trkpt lat="43.5291" lon="5.62643">
        <ele>559.14</ele>
        <time>2019-05-01T13:10:44Z</time>
      </trkpt>
      <trkpt lat="43.52909" lon="5.62642">
        <ele>560.59</ele>
        <time>2019-05-01T13:11:33Z</time>
      </trkpt>
      <trkpt lat="43.52908" lon="5.62642">
        <ele>560.59</ele>
        <time>2019-05-01T13:11:34Z</time>
      </trkpt>
      <trkpt lat="43.52906" lon="5.62643">
        <ele>558.66</ele>
        <time>2019-05-01T13:11:42Z</time>
      </trkpt>
      <trkpt lat="43.52906" lon="5.62642">
        <ele>559.62</ele>
        <time>2019-05-01T13:11:50Z</time>
      </trkpt>
      <trkpt lat="43.52906" lon="5.62643">
        <ele>559.62</ele>
        <time>2019-05-01T13:12:05Z</time>
      </trkpt>
      <trkpt lat="43.52906" lon="5.62645">
        <ele>556.26</ele>
        <time>2019-05-01T13:12:07Z</time>
      </trkpt>
      <trkpt lat="43.52906" lon="5.62644">
        <ele>561.07</ele>
        <time>2019-05-01T13:12:08Z</time>
      </trkpt>
      <trkpt lat="43.52907" lon="5.62643">
        <ele>561.07</ele>
        <time>2019-05-01T13:12:12Z</time>
      </trkpt>
      <trkpt lat="43.52907" lon="5.62642">
        <ele>560.59</ele>
        <time>2019-05-01T13:12:14Z</time>
      </trkpt>
      <trkpt lat="43.5291" lon="5.62639">
        <ele>562.03</ele>
        <time>2019-05-01T13:12:18Z</time>
      </trkpt>
      <trkpt lat="43.52914" lon="5.62638">
        <ele>562.51</ele>
        <time>2019-05-01T13:12:22Z</time>
      </trkpt>
      <trkpt lat="43.52916" lon="5.62636">
        <ele>563.47</ele>
        <time>2019-05-01T13:12:39Z</time>
      </trkpt>
      <trkpt lat="43.52921" lon="5.62632">
        <ele>563.95</ele>
        <time>2019-05-01T13:12:56Z</time>
      </trkpt>
      <trkpt lat="43.5292" lon="5.6263">
        <ele>564.43</ele>
        <time>2019-05-01T13:13:09Z</time>
      </trkpt>
      <trkpt lat="43.52923" lon="5.62628">
        <ele>564.43</ele>
        <time>2019-05-01T13:13:16Z</time>
      </trkpt>
      <trkpt lat="43.52924" lon="5.62626">
        <ele>565.87</ele>
        <time>2019-05-01T13:13:19Z</time>
      </trkpt>
      <trkpt lat="43.52925" lon="5.62625">
        <ele>564.43</ele>
        <time>2019-05-01T13:13:24Z</time>
      </trkpt>
      <trkpt lat="43.52927" lon="5.62625">
        <ele>566.35</ele>
        <time>2019-05-01T13:13:27Z</time>
      </trkpt>
      <trkpt lat="43.52935" lon="5.62619">
        <ele>566.83</ele>
        <time>2019-05-01T13:13:40Z</time>
      </trkpt>
      <trkpt lat="43.52936" lon="5.62619">
        <ele>568.28</ele>
        <time>2019-05-01T13:13:42Z</time>
      </trkpt>
      <trkpt lat="43.5294" lon="5.62616">
        <ele>569.72</ele>
        <time>2019-05-01T13:13:49Z</time>
      </trkpt>
      <trkpt lat="43.52946" lon="5.6261">
        <ele>571.64</ele>
        <time>2019-05-01T13:14:01Z</time>
      </trkpt>
      <trkpt lat="43.52952" lon="5.62605">
        <ele>573.56</ele>
        <time>2019-05-01T13:14:12Z</time>
      </trkpt>
      <trkpt lat="43.52957" lon="5.626">
        <ele>575.97</ele>
        <time>2019-05-01T13:14:20Z</time>
      </trkpt>
      <trkpt lat="43.52959" lon="5.62598">
        <ele>576.93</ele>
        <time>2019-05-01T13:14:24Z</time>
      </trkpt>
      <trkpt lat="43.5296" lon="5.62597">
        <ele>575.49</ele>
        <time>2019-05-01T13:14:27Z</time>
      </trkpt>
      <trkpt lat="43.52958" lon="5.62598">
        <ele>575.49</ele>
        <time>2019-05-01T13:14:48Z</time>
      </trkpt>
      <trkpt lat="43.52958" lon="5.62598">
        <ele>576.45</ele>
        <time>2019-05-01T13:15:08Z</time>
      </trkpt>
      <trkpt lat="43.52959" lon="5.62596">
        <ele>576.93</ele>
        <time>2019-05-01T13:15:34Z</time>
      </trkpt>
      <trkpt lat="43.52958" lon="5.62593">
        <ele>576.93</ele>
        <time>2019-05-01T13:15:55Z</time>
      </trkpt>
      <trkpt lat="43.52959" lon="5.62591">
        <ele>575.97</ele>
        <time>2019-05-01T13:16:16Z</time>
      </trkpt>
      <trkpt lat="43.5296" lon="5.6259">
        <ele>577.41</ele>
        <time>2019-05-01T13:16:23Z</time>
      </trkpt>
      <trkpt lat="43.5296" lon="5.6259">
        <ele>576.93</ele>
        <time>2019-05-01T13:16:28Z</time>
      </trkpt>
      <trkpt lat="43.52961" lon="5.62588">
        <ele>577.89</ele>
        <time>2019-05-01T13:16:32Z</time>
      </trkpt>
      <trkpt lat="43.52964" lon="5.6259">
        <ele>580.29</ele>
        <time>2019-05-01T13:16:44Z</time>
      </trkpt>
      <trkpt lat="43.52963" lon="5.62587">
        <ele>580.29</ele>
        <time>2019-05-01T13:17:00Z</time>
      </trkpt>
      <trkpt lat="43.52966" lon="5.6258">
        <ele>582.22</ele>
        <time>2019-05-01T13:17:08Z</time>
      </trkpt>
      <trkpt lat="43.52968" lon="5.62576">
        <ele>582.7</ele>
        <time>2019-05-01T13:17:13Z</time>
      </trkpt>
      <trkpt lat="43.52969" lon="5.62571">
        <ele>583.18</ele>
        <time>2019-05-01T13:17:18Z</time>
      </trkpt>
      <trkpt lat="43.52972" lon="5.62567">
        <ele>586.06</ele>
        <time>2019-05-01T13:17:23Z</time>
      </trkpt>
      <trkpt lat="43.52976" lon="5.6256">
        <ele>587.02</ele>
        <time>2019-05-01T13:17:30Z</time>
      </trkpt>
      <trkpt lat="43.52979" lon="5.62558">
        <ele>588.46</ele>
        <time>2019-05-01T13:17:34Z</time>
      </trkpt>
      <trkpt lat="43.5298" lon="5.62553">
        <ele>589.91</ele>
        <time>2019-05-01T13:17:38Z</time>
      </trkpt>
      <trkpt lat="43.52979" lon="5.62547">
        <ele>586.06</ele>
        <time>2019-05-01T13:17:46Z</time>
      </trkpt>
      <trkpt lat="43.52979" lon="5.62547">
        <ele>589.91</ele>
        <time>2019-05-01T13:17:47Z</time>
      </trkpt>
      <trkpt lat="43.5298" lon="5.62544">
        <ele>592.79</ele>
        <time>2019-05-01T13:17:56Z</time>
      </trkpt>
      <trkpt lat="43.52979" lon="5.62544">
        <ele>589.43</ele>
        <time>2019-05-01T13:17:57Z</time>
      </trkpt>
      <trkpt lat="43.52979" lon="5.62544">
        <ele>590.39</ele>
        <time>2019-05-01T13:18:02Z</time>
      </trkpt>
      <trkpt lat="43.52978" lon="5.62545">
        <ele>589.91</ele>
        <time>2019-05-01T13:18:18Z</time>
      </trkpt>
      <trkpt lat="43.5298" lon="5.62542">
        <ele>590.87</ele>
        <time>2019-05-01T13:18:24Z</time>
      </trkpt>
      <trkpt lat="43.52984" lon="5.62529">
        <ele>592.79</ele>
        <time>2019-05-01T13:18:37Z</time>
      </trkpt>
      <trkpt lat="43.52987" lon="5.6252">
        <ele>594.23</ele>
        <time>2019-05-01T13:18:46Z</time>
      </trkpt>
      <trkpt lat="43.52991" lon="5.62508">
        <ele>595.67</ele>
        <time>2019-05-01T13:19:00Z</time>
      </trkpt>
      <trkpt lat="43.52992" lon="5.62506">
        <ele>595.19</ele>
        <time>2019-05-01T13:19:15Z</time>
      </trkpt>
      <trkpt lat="43.52996" lon="5.62503">
        <ele>596.15</ele>
        <time>2019-05-01T13:19:25Z</time>
      </trkpt>
      <trkpt lat="43.52995" lon="5.62501">
        <ele>595.67</ele>
        <time>2019-05-01T13:19:37Z</time>
      </trkpt>
      <trkpt lat="43.52992" lon="5.625">
        <ele>597.12</ele>
        <time>2019-05-01T13:19:49Z</time>
      </trkpt>
      <trkpt lat="43.52988" lon="5.62501">
        <ele>595.19</ele>
        <time>2019-05-01T13:20:03Z</time>
      </trkpt>
      <trkpt lat="43.52985" lon="5.6251">
        <ele>594.23</ele>
        <time>2019-05-01T13:20:19Z</time>
      </trkpt>
      <trkpt lat="43.52983" lon="5.6251">
        <ele>593.75</ele>
        <time>2019-05-01T13:20:35Z</time>
      </trkpt>
      <trkpt lat="43.5298" lon="5.62519">
        <ele>593.27</ele>
        <time>2019-05-01T13:20:45Z</time>
      </trkpt>
      <trkpt lat="43.52978" lon="5.62536">
        <ele>591.83</ele>
        <time>2019-05-01T13:21:01Z</time>
      </trkpt>
      <trkpt lat="43.52975" lon="5.62547">
        <ele>589.43</ele>
        <time>2019-05-01T13:21:14Z</time>
      </trkpt>
      <trkpt lat="43.52968" lon="5.62556">
        <ele>586.54</ele>
        <time>2019-05-01T13:21:30Z</time>
      </trkpt>
      <trkpt lat="43.52964" lon="5.62561">
        <ele>586.06</ele>
        <time>2019-05-01T13:21:44Z</time>
      </trkpt>
      <trkpt lat="43.52963" lon="5.62562">
        <ele>584.62</ele>
        <time>2019-05-01T13:21:49Z</time>
      </trkpt>
      <trkpt lat="43.52964" lon="5.62564">
        <ele>586.06</ele>
        <time>2019-05-01T13:21:53Z</time>
      </trkpt>
      <trkpt lat="43.52963" lon="5.62568">
        <ele>584.14</ele>
        <time>2019-05-01T13:21:59Z</time>
      </trkpt>
      <trkpt lat="43.5296" lon="5.62577">
        <ele>581.73</ele>
        <time>2019-05-01T13:22:13Z</time>
      </trkpt>
      <trkpt lat="43.52957" lon="5.6258">
        <ele>582.22</ele>
        <time>2019-05-01T13:22:28Z</time>
      </trkpt>
      <trkpt lat="43.52958" lon="5.6258">
        <ele>581.73</ele>
        <time>2019-05-01T13:22:29Z</time>
      </trkpt>
      <trkpt lat="43.52956" lon="5.62579">
        <ele>582.22</ele>
        <time>2019-05-01T13:22:42Z</time>
      </trkpt>
      <trkpt lat="43.52955" lon="5.6258">
        <ele>580.77</ele>
        <time>2019-05-01T13:22:50Z</time>
      </trkpt>
      <trkpt lat="43.52951" lon="5.62588">
        <ele>578.37</ele>
        <time>2019-05-01T13:23:03Z</time>
      </trkpt>
      <trkpt lat="43.52949" lon="5.62593">
        <ele>578.85</ele>
        <time>2019-05-01T13:23:17Z</time>
      </trkpt>
      <trkpt lat="43.52949" lon="5.62599">
        <ele>576.93</ele>
        <time>2019-05-01T13:23:31Z</time>
      </trkpt>
      <trkpt lat="43.52941" lon="5.62605">
        <ele>574.53</ele>
        <time>2019-05-01T13:23:45Z</time>
      </trkpt>
      <trkpt lat="43.52935" lon="5.62609">
        <ele>572.6</ele>
        <time>2019-05-01T13:24:00Z</time>
      </trkpt>
      <trkpt lat="43.5293" lon="5.62616">
        <ele>571.64</ele>
        <time>2019-05-01T13:24:08Z</time>
      </trkpt>
      <trkpt lat="43.52921" lon="5.62626">
        <ele>568.28</ele>
        <time>2019-05-01T13:24:23Z</time>
      </trkpt>
      <trkpt lat="43.52911" lon="5.62632">
        <ele>566.35</ele>
        <time>2019-05-01T13:24:38Z</time>
      </trkpt>
      <trkpt lat="43.52911" lon="5.62633">
        <ele>566.83</ele>
        <time>2019-05-01T13:24:40Z</time>
      </trkpt>
      <trkpt lat="43.52907" lon="5.6264">
        <ele>566.83</ele>
        <time>2019-05-01T13:24:52Z</time>
      </trkpt>
      <trkpt lat="43.52907" lon="5.62637">
        <ele>565.39</ele>
        <time>2019-05-01T13:24:54Z</time>
      </trkpt>
      <trkpt lat="43.52909" lon="5.62626">
        <ele>562.99</ele>
        <time>2019-05-01T13:25:07Z</time>
      </trkpt>
      <trkpt lat="43.52908" lon="5.62617">
        <ele>561.07</ele>
        <time>2019-05-01T13:25:19Z</time>
      </trkpt>
      <trkpt lat="43.52902" lon="5.62609">
        <ele>559.62</ele>
        <time>2019-05-01T13:25:34Z</time>
      </trkpt>
      <trkpt lat="43.52899" lon="5.62607">
        <ele>556.26</ele>
        <time>2019-05-01T13:25:40Z</time>
      </trkpt>
      <trkpt lat="43.52898" lon="5.62605">
        <ele>560.11</ele>
        <time>2019-05-01T13:25:41Z</time>
      </trkpt>
      <trkpt lat="43.52898" lon="5.62605">
        <ele>560.11</ele>
        <time>2019-05-01T13:25:42Z</time>
      </trkpt>
      <trkpt lat="43.52897" lon="5.62603">
        <ele>561.55</ele>
        <time>2019-05-01T13:25:46Z</time>
      </trkpt>
      <trkpt lat="43.52895" lon="5.62601">
        <ele>559.14</ele>
        <time>2019-05-01T13:25:49Z</time>
      </trkpt>
      <trkpt lat="43.52891" lon="5.62594">
        <ele>558.66</ele>
        <time>2019-05-01T13:26:02Z</time>
      </trkpt>
      <trkpt lat="43.52889" lon="5.62591">
        <ele>558.18</ele>
        <time>2019-05-01T13:26:10Z</time>
      </trkpt>
      <trkpt lat="43.52888" lon="5.62594">
        <ele>557.7</ele>
        <time>2019-05-01T13:26:25Z</time>
      </trkpt>
      <trkpt lat="43.52886" lon="5.62592">
        <ele>557.7</ele>
        <time>2019-05-01T13:26:42Z</time>
      </trkpt>
      <trkpt lat="43.52884" lon="5.62593">
        <ele>557.22</ele>
        <time>2019-05-01T13:26:43Z</time>
      </trkpt>
      <trkpt lat="43.52871" lon="5.62598">
        <ele>555.3</ele>
        <time>2019-05-01T13:27:00Z</time>
      </trkpt>
      <trkpt lat="43.5287" lon="5.62598">
        <ele>555.78</ele>
        <time>2019-05-01T13:27:01Z</time>
      </trkpt>
      <trkpt lat="43.52858" lon="5.62604">
        <ele>552.9</ele>
        <time>2019-05-01T13:27:16Z</time>
      </trkpt>
      <trkpt lat="43.52845" lon="5.62606">
        <ele>550.49</ele>
        <time>2019-05-01T13:27:31Z</time>
      </trkpt>
      <trkpt lat="43.52837" lon="5.62605">
        <ele>549.05</ele>
        <time>2019-05-01T13:27:39Z</time>
      </trkpt>
      <trkpt lat="43.52827" lon="5.62609">
        <ele>547.61</ele>
        <time>2019-05-01T13:27:53Z</time>
      </trkpt>
      <trkpt lat="43.52827" lon="5.62609">
        <ele>547.61</ele>
        <time>2019-05-01T13:27:54Z</time>
      </trkpt>
      <trkpt lat="43.52824" lon="5.6261">
        <ele>547.61</ele>
        <time>2019-05-01T13:27:57Z</time>
      </trkpt>
      <trkpt lat="43.52813" lon="5.62617">
        <ele>546.65</ele>
        <time>2019-05-01T13:28:10Z</time>
      </trkpt>
      <trkpt lat="43.52808" lon="5.62619">
        <ele>546.65</ele>
        <time>2019-05-01T13:28:16Z</time>
      </trkpt>
      <trkpt lat="43.52802" lon="5.62619">
        <ele>545.2</ele>
        <time>2019-05-01T13:28:20Z</time>
      </trkpt>
      <trkpt lat="43.52792" lon="5.6262">
        <ele>543.28</ele>
        <time>2019-05-01T13:28:33Z</time>
      </trkpt>
      <trkpt lat="43.52791" lon="5.6262">
        <ele>544.24</ele>
        <time>2019-05-01T13:28:35Z</time>
      </trkpt>
      <trkpt lat="43.52788" lon="5.62621">
        <ele>542.8</ele>
        <time>2019-05-01T13:28:39Z</time>
      </trkpt>
      <trkpt lat="43.5278" lon="5.62628">
        <ele>540.88</ele>
        <time>2019-05-01T13:28:54Z</time>
      </trkpt>
      <trkpt lat="43.52779" lon="5.6263">
        <ele>539.44</ele>
        <time>2019-05-01T13:28:56Z</time>
      </trkpt>
      <trkpt lat="43.52772" lon="5.62637">
        <ele>538.48</ele>
        <time>2019-05-01T13:29:10Z</time>
      </trkpt>
      <trkpt lat="43.52771" lon="5.62637">
        <ele>538.48</ele>
        <time>2019-05-01T13:29:11Z</time>
      </trkpt>
      <trkpt lat="43.52762" lon="5.62637">
        <ele>537.03</ele>
        <time>2019-05-01T13:29:25Z</time>
      </trkpt>
      <trkpt lat="43.52749" lon="5.62635">
        <ele>536.55</ele>
        <time>2019-05-01T13:29:40Z</time>
      </trkpt>
      <trkpt lat="43.52735" lon="5.62633">
        <ele>535.11</ele>
        <time>2019-05-01T13:29:53Z</time>
      </trkpt>
      <trkpt lat="43.52731" lon="5.62635">
        <ele>533.67</ele>
        <time>2019-05-01T13:29:58Z</time>
      </trkpt>
      <trkpt lat="43.5272" lon="5.62642">
        <ele>531.27</ele>
        <time>2019-05-01T13:30:12Z</time>
      </trkpt>
      <trkpt lat="43.52714" lon="5.62655">
        <ele>528.86</ele>
        <time>2019-05-01T13:30:26Z</time>
      </trkpt>
      <trkpt lat="43.52708" lon="5.62665">
        <ele>527.42</ele>
        <time>2019-05-01T13:30:40Z</time>
      </trkpt>
      <trkpt lat="43.52705" lon="5.62675">
        <ele>525.5</ele>
        <time>2019-05-01T13:30:55Z</time>
      </trkpt>
      <trkpt lat="43.52697" lon="5.62688">
        <ele>524.54</ele>
        <time>2019-05-01T13:31:08Z</time>
      </trkpt>
      <trkpt lat="43.52694" lon="5.62705">
        <ele>522.13</ele>
        <time>2019-05-01T13:31:23Z</time>
      </trkpt>
      <trkpt lat="43.52694" lon="5.6272">
        <ele>521.65</ele>
        <time>2019-05-01T13:31:35Z</time>
      </trkpt>
      <trkpt lat="43.52696" lon="5.62733">
        <ele>520.69</ele>
        <time>2019-05-01T13:31:48Z</time>
      </trkpt>
      <trkpt lat="43.52696" lon="5.62735">
        <ele>519.25</ele>
        <time>2019-05-01T13:31:51Z</time>
      </trkpt>
      <trkpt lat="43.52694" lon="5.62749">
        <ele>517.81</ele>
        <time>2019-05-01T13:32:05Z</time>
      </trkpt>
      <trkpt lat="43.52689" lon="5.62759">
        <ele>515.88</ele>
        <time>2019-05-01T13:32:14Z</time>
      </trkpt>
      <trkpt lat="43.52684" lon="5.62768">
        <ele>514.92</ele>
        <time>2019-05-01T13:32:25Z</time>
      </trkpt>
      <trkpt lat="43.52678" lon="5.6278">
        <ele>512.52</ele>
        <time>2019-05-01T13:32:37Z</time>
      </trkpt>
      <trkpt lat="43.52667" lon="5.62794">
        <ele>510.6</ele>
        <time>2019-05-01T13:32:53Z</time>
      </trkpt>
      <trkpt lat="43.52659" lon="5.62808">
        <ele>508.19</ele>
        <time>2019-05-01T13:33:08Z</time>
      </trkpt>
      <trkpt lat="43.52656" lon="5.62817">
        <ele>507.23</ele>
        <time>2019-05-01T13:33:24Z</time>
      </trkpt>
      <trkpt lat="43.52647" lon="5.62826">
        <ele>507.23</ele>
        <time>2019-05-01T13:33:41Z</time>
      </trkpt>
      <trkpt lat="43.52641" lon="5.62834">
        <ele>504.83</ele>
        <time>2019-05-01T13:33:52Z</time>
      </trkpt>
      <trkpt lat="43.52641" lon="5.62848">
        <ele>502.43</ele>
        <time>2019-05-01T13:34:06Z</time>
      </trkpt>
      <trkpt lat="43.52641" lon="5.62849">
        <ele>504.35</ele>
        <time>2019-05-01T13:34:07Z</time>
      </trkpt>
      <trkpt lat="43.52641" lon="5.62864">
        <ele>500.5</ele>
        <time>2019-05-01T13:34:19Z</time>
      </trkpt>
      <trkpt lat="43.52641" lon="5.62868">
        <ele>500.5</ele>
        <time>2019-05-01T13:34:22Z</time>
      </trkpt>
      <trkpt lat="43.52642" lon="5.62881">
        <ele>500.5</ele>
        <time>2019-05-01T13:34:38Z</time>
      </trkpt>
      <trkpt lat="43.52644" lon="5.62892">
        <ele>499.06</ele>
        <time>2019-05-01T13:34:49Z</time>
      </trkpt>
      <trkpt lat="43.5265" lon="5.62906">
        <ele>498.1</ele>
        <time>2019-05-01T13:35:02Z</time>
      </trkpt>
      <trkpt lat="43.52653" lon="5.62903">
        <ele>497.62</ele>
        <time>2019-05-01T13:35:24Z</time>
      </trkpt>
      <trkpt lat="43.52653" lon="5.62902">
        <ele>496.18</ele>
        <time>2019-05-01T13:35:50Z</time>
      </trkpt>
      <trkpt lat="43.52653" lon="5.62902">
        <ele>498.1</ele>
        <time>2019-05-01T13:35:51Z</time>
      </trkpt>
      <trkpt lat="43.52653" lon="5.62903">
        <ele>500.02</ele>
        <time>2019-05-01T13:35:53Z</time>
      </trkpt>
      <trkpt lat="43.52654" lon="5.62903">
        <ele>498.58</ele>
        <time>2019-05-01T13:35:55Z</time>
      </trkpt>
      <trkpt lat="43.52653" lon="5.6291">
        <ele>497.62</ele>
        <time>2019-05-01T13:36:04Z</time>
      </trkpt>
      <trkpt lat="43.52651" lon="5.62914">
        <ele>496.66</ele>
        <time>2019-05-01T13:36:15Z</time>
      </trkpt>
      <trkpt lat="43.52652" lon="5.62934">
        <ele>492.81</ele>
        <time>2019-05-01T13:36:29Z</time>
      </trkpt>
      <trkpt lat="43.52653" lon="5.62941">
        <ele>491.85</ele>
        <time>2019-05-01T13:36:35Z</time>
      </trkpt>
      <trkpt lat="43.52649" lon="5.62957">
        <ele>488.49</ele>
        <time>2019-05-01T13:36:49Z</time>
      </trkpt>
      <trkpt lat="43.52649" lon="5.6296">
        <ele>488.01</ele>
        <time>2019-05-01T13:36:52Z</time>
      </trkpt>
      <trkpt lat="43.52646" lon="5.62973">
        <ele>485.6</ele>
        <time>2019-05-01T13:37:06Z</time>
      </trkpt>
      <trkpt lat="43.5265" lon="5.62987">
        <ele>484.64</ele>
        <time>2019-05-01T13:37:20Z</time>
      </trkpt>
      <trkpt lat="43.52645" lon="5.63001">
        <ele>482.72</ele>
        <time>2019-05-01T13:37:35Z</time>
      </trkpt>
      <trkpt lat="43.5264" lon="5.63019">
        <ele>481.76</ele>
        <time>2019-05-01T13:37:49Z</time>
      </trkpt>
      <trkpt lat="43.52638" lon="5.63025">
        <ele>481.76</ele>
        <time>2019-05-01T13:38:16Z</time>
      </trkpt>
      <trkpt lat="43.52637" lon="5.6303">
        <ele>480.32</ele>
        <time>2019-05-01T13:38:31Z</time>
      </trkpt>
      <trkpt lat="43.52635" lon="5.63035">
        <ele>479.35</ele>
        <time>2019-05-01T13:38:37Z</time>
      </trkpt>
      <trkpt lat="43.52629" lon="5.63059">
        <ele>475.99</ele>
        <time>2019-05-01T13:38:53Z</time>
      </trkpt>
      <trkpt lat="43.52622" lon="5.63071">
        <ele>474.55</ele>
        <time>2019-05-01T13:39:04Z</time>
      </trkpt>
      <trkpt lat="43.52614" lon="5.63087">
        <ele>471.66</ele>
        <time>2019-05-01T13:39:19Z</time>
      </trkpt>
      <trkpt lat="43.5261" lon="5.63098">
        <ele>469.26</ele>
        <time>2019-05-01T13:39:32Z</time>
      </trkpt>
      <trkpt lat="43.52609" lon="5.63104">
        <ele>471.18</ele>
        <time>2019-05-01T13:39:41Z</time>
      </trkpt>
      <trkpt lat="43.52605" lon="5.63118">
        <ele>468.3</ele>
        <time>2019-05-01T13:39:53Z</time>
      </trkpt>
      <trkpt lat="43.52608" lon="5.63127">
        <ele>467.82</ele>
        <time>2019-05-01T13:39:57Z</time>
      </trkpt>
      <trkpt lat="43.52604" lon="5.63123">
        <ele>467.82</ele>
        <time>2019-05-01T13:40:14Z</time>
      </trkpt>
      <trkpt lat="43.52601" lon="5.63123">
        <ele>467.82</ele>
        <time>2019-05-01T13:40:36Z</time>
      </trkpt>
      <trkpt lat="43.52602" lon="5.63123">
        <ele>469.26</ele>
        <time>2019-05-01T13:40:43Z</time>
      </trkpt>
      <trkpt lat="43.52604" lon="5.63122">
        <ele>468.78</ele>
        <time>2019-05-01T13:41:05Z</time>
      </trkpt>
      <trkpt lat="43.52604" lon="5.63124">
        <ele>468.78</ele>
        <time>2019-05-01T13:41:26Z</time>
      </trkpt>
      <trkpt lat="43.52606" lon="5.63128">
        <ele>468.3</ele>
        <time>2019-05-01T13:41:45Z</time>
      </trkpt>
      <trkpt lat="43.52604" lon="5.63131">
        <ele>468.3</ele>
        <time>2019-05-01T13:42:02Z</time>
      </trkpt>
      <trkpt lat="43.52604" lon="5.6313">
        <ele>465.9</ele>
        <time>2019-05-01T13:42:05Z</time>
      </trkpt>
      <trkpt lat="43.52604" lon="5.63131">
        <ele>467.34</ele>
        <time>2019-05-01T13:42:07Z</time>
      </trkpt>
      <trkpt lat="43.52604" lon="5.63132">
        <ele>466.86</ele>
        <time>2019-05-01T13:42:20Z</time>
      </trkpt>
      <trkpt lat="43.52604" lon="5.63133">
        <ele>465.9</ele>
        <time>2019-05-01T13:42:35Z</time>
      </trkpt>
      <trkpt lat="43.52602" lon="5.63136">
        <ele>467.34</ele>
        <time>2019-05-01T13:42:53Z</time>
      </trkpt>
      <trkpt lat="43.52602" lon="5.63137">
        <ele>465.9</ele>
        <time>2019-05-01T13:42:55Z</time>
      </trkpt>
      <trkpt lat="43.52603" lon="5.63138">
        <ele>465.42</ele>
        <time>2019-05-01T13:43:07Z</time>
      </trkpt>
      <trkpt lat="43.52602" lon="5.63145">
        <ele>463.97</ele>
        <time>2019-05-01T13:43:21Z</time>
      </trkpt>
      <trkpt lat="43.52603" lon="5.63145">
        <ele>465.42</ele>
        <time>2019-05-01T13:43:33Z</time>
      </trkpt>
      <trkpt lat="43.526" lon="5.63152">
        <ele>463.97</ele>
        <time>2019-05-01T13:43:44Z</time>
      </trkpt>
      <trkpt lat="43.52594" lon="5.63163">
        <ele>462.05</ele>
        <time>2019-05-01T13:43:57Z</time>
      </trkpt>
      <trkpt lat="43.52589" lon="5.63172">
        <ele>460.61</ele>
        <time>2019-05-01T13:44:11Z</time>
      </trkpt>
      <trkpt lat="43.5258" lon="5.63177">
        <ele>459.65</ele>
        <time>2019-05-01T13:44:27Z</time>
      </trkpt>
      <trkpt lat="43.52574" lon="5.63181">
        <ele>459.17</ele>
        <time>2019-05-01T13:44:44Z</time>
      </trkpt>
      <trkpt lat="43.52567" lon="5.63188">
        <ele>457.24</ele>
        <time>2019-05-01T13:44:57Z</time>
      </trkpt>
      <trkpt lat="43.52559" lon="5.63195">
        <ele>456.28</ele>
        <time>2019-05-01T13:45:09Z</time>
      </trkpt>
      <trkpt lat="43.52557" lon="5.63201">
        <ele>455.8</ele>
        <time>2019-05-01T13:45:17Z</time>
      </trkpt>
      <trkpt lat="43.52552" lon="5.63205">
        <ele>454.36</ele>
        <time>2019-05-01T13:45:26Z</time>
      </trkpt>
      <trkpt lat="43.52541" lon="5.6321">
        <ele>452.44</ele>
        <time>2019-05-01T13:45:39Z</time>
      </trkpt>
      <trkpt lat="43.52535" lon="5.63218">
        <ele>451.48</ele>
        <time>2019-05-01T13:45:51Z</time>
      </trkpt>
      <trkpt lat="43.52528" lon="5.63225">
        <ele>450.03</ele>
        <time>2019-05-01T13:46:04Z</time>
      </trkpt>
      <trkpt lat="43.52526" lon="5.63228">
        <ele>450.03</ele>
        <time>2019-05-01T13:46:08Z</time>
      </trkpt>
      <trkpt lat="43.52525" lon="5.63229">
        <ele>450.03</ele>
        <time>2019-05-01T13:46:11Z</time>
      </trkpt>
      <trkpt lat="43.52515" lon="5.63237">
        <ele>447.63</ele>
        <time>2019-05-01T13:46:27Z</time>
      </trkpt>
      <trkpt lat="43.5251" lon="5.63247">
        <ele>446.19</ele>
        <time>2019-05-01T13:46:40Z</time>
      </trkpt>
      <trkpt lat="43.52504" lon="5.63258">
        <ele>445.71</ele>
        <time>2019-05-01T13:46:55Z</time>
      </trkpt>
      <trkpt lat="43.52504" lon="5.63262">
        <ele>445.71</ele>
        <time>2019-05-01T13:47:01Z</time>
      </trkpt>
      <trkpt lat="43.52512" lon="5.63288">
        <ele>444.75</ele>
        <time>2019-05-01T13:47:13Z</time>
      </trkpt>
      <trkpt lat="43.52513" lon="5.63294">
        <ele>444.75</ele>
        <time>2019-05-01T13:47:35Z</time>
      </trkpt>
      <trkpt lat="43.52513" lon="5.63295">
        <ele>445.23</ele>
        <time>2019-05-01T13:47:52Z</time>
      </trkpt>
      <trkpt lat="43.52515" lon="5.63289">
        <ele>444.75</ele>
        <time>2019-05-01T13:48:23Z</time>
      </trkpt>
      <trkpt lat="43.52513" lon="5.63288">
        <ele>444.75</ele>
        <time>2019-05-01T13:48:57Z</time>
      </trkpt>
      <trkpt lat="43.5251" lon="5.63288">
        <ele>444.27</ele>
        <time>2019-05-01T13:49:13Z</time>
      </trkpt>
      <trkpt lat="43.52511" lon="5.63288">
        <ele>444.27</ele>
        <time>2019-05-01T13:49:48Z</time>
      </trkpt>
      <trkpt lat="43.52514" lon="5.63305">
        <ele>444.27</ele>
        <time>2019-05-01T13:49:54Z</time>
      </trkpt>
      <trkpt lat="43.52516" lon="5.63311">
        <ele>444.75</ele>
        <time>2019-05-01T13:49:55Z</time>
      </trkpt>
      <trkpt lat="43.52519" lon="5.63317">
        <ele>445.71</ele>
        <time>2019-05-01T13:49:56Z</time>
      </trkpt>
      <trkpt lat="43.52522" lon="5.63323">
        <ele>445.71</ele>
        <time>2019-05-01T13:49:57Z</time>
      </trkpt>
      <trkpt lat="43.52578" lon="5.63405">
        <ele>445.71</ele>
        <time>2019-05-01T13:50:07Z</time>
      </trkpt>
      <trkpt lat="43.52593" lon="5.63421">
        <ele>444.27</ele>
        <time>2019-05-01T13:50:09Z</time>
      </trkpt>
      <trkpt lat="43.52618" lon="5.63447">
        <ele>442.82</ele>
        <time>2019-05-01T13:50:12Z</time>
      </trkpt>
      <trkpt lat="43.52636" lon="5.63466">
        <ele>440.9</ele>
        <time>2019-05-01T13:50:14Z</time>
      </trkpt>
      <trkpt lat="43.52655" lon="5.63485">
        <ele>438.98</ele>
        <time>2019-05-01T13:50:16Z</time>
      </trkpt>
      <trkpt lat="43.52678" lon="5.63509">
        <ele>434.65</ele>
        <time>2019-05-01T13:50:19Z</time>
      </trkpt>
      <trkpt lat="43.52688" lon="5.6352">
        <ele>433.21</ele>
        <time>2019-05-01T13:50:21Z</time>
      </trkpt>
      <trkpt lat="43.527" lon="5.63532">
        <ele>434.17</ele>
        <time>2019-05-01T13:50:23Z</time>
      </trkpt>
      <trkpt lat="43.52706" lon="5.6354">
        <ele>432.73</ele>
        <time>2019-05-01T13:50:24Z</time>
      </trkpt>
      <trkpt lat="43.52713" lon="5.6355">
        <ele>432.73</ele>
        <time>2019-05-01T13:50:25Z</time>
      </trkpt>
      <trkpt lat="43.52719" lon="5.63561">
        <ele>434.17</ele>
        <time>2019-05-01T13:50:26Z</time>
      </trkpt>
      <trkpt lat="43.52724" lon="5.63572">
        <ele>434.17</ele>
        <time>2019-05-01T13:50:27Z</time>
      </trkpt>
      <trkpt lat="43.52729" lon="5.63584">
        <ele>434.17</ele>
        <time>2019-05-01T13:50:28Z</time>
      </trkpt>
      <trkpt lat="43.52734" lon="5.63597">
        <ele>434.17</ele>
        <time>2019-05-01T13:50:29Z</time>
      </trkpt>
      <trkpt lat="43.52737" lon="5.63611">
        <ele>434.17</ele>
        <time>2019-05-01T13:50:30Z</time>
      </trkpt>
      <trkpt lat="43.5274" lon="5.63625">
        <ele>434.17</ele>
        <time>2019-05-01T13:50:31Z</time>
      </trkpt>
      <trkpt lat="43.52742" lon="5.63639">
        <ele>432.25</ele>
        <time>2019-05-01T13:50:32Z</time>
      </trkpt>
      <trkpt lat="43.52747" lon="5.63686">
        <ele>436.1</ele>
        <time>2019-05-01T13:50:35Z</time>
      </trkpt>
      <trkpt lat="43.52749" lon="5.63702">
        <ele>436.1</ele>
        <time>2019-05-01T13:50:36Z</time>
      </trkpt>
      <trkpt lat="43.52761" lon="5.63815">
        <ele>436.1</ele>
        <time>2019-05-01T13:50:43Z</time>
      </trkpt>
      <trkpt lat="43.52761" lon="5.63832">
        <ele>436.1</ele>
        <time>2019-05-01T13:50:44Z</time>
      </trkpt>
      <trkpt lat="43.52759" lon="5.63848">
        <ele>438.02</ele>
        <time>2019-05-01T13:50:45Z</time>
      </trkpt>
      <trkpt lat="43.52753" lon="5.63915">
        <ele>437.54</ele>
        <time>2019-05-01T13:50:49Z</time>
      </trkpt>
      <trkpt lat="43.52752" lon="5.63983">
        <ele>435.61</ele>
        <time>2019-05-01T13:50:53Z</time>
      </trkpt>
      <trkpt lat="43.52763" lon="5.6409">
        <ele>432.73</ele>
        <time>2019-05-01T13:50:59Z</time>
      </trkpt>
      <trkpt lat="43.52768" lon="5.64131">
        <ele>429.37</ele>
        <time>2019-05-01T13:51:01Z</time>
      </trkpt>
      <trkpt lat="43.52771" lon="5.64151">
        <ele>429.37</ele>
        <time>2019-05-01T13:51:02Z</time>
      </trkpt>
      <trkpt lat="43.52776" lon="5.64189">
        <ele>426.48</ele>
        <time>2019-05-01T13:51:04Z</time>
      </trkpt>
      <trkpt lat="43.5278" lon="5.6422">
        <ele>423.12</ele>
        <time>2019-05-01T13:51:06Z</time>
      </trkpt>
      <trkpt lat="43.52784" lon="5.64253">
        <ele>421.68</ele>
        <time>2019-05-01T13:51:08Z</time>
      </trkpt>
      <trkpt lat="43.52785" lon="5.64286">
        <ele>420.23</ele>
        <time>2019-05-01T13:51:10Z</time>
      </trkpt>
      <trkpt lat="43.52784" lon="5.64302">
        <ele>420.23</ele>
        <time>2019-05-01T13:51:11Z</time>
      </trkpt>
      <trkpt lat="43.52757" lon="5.64506">
        <ele>421.68</ele>
        <time>2019-05-01T13:51:22Z</time>
      </trkpt>
      <trkpt lat="43.52723" lon="5.64647">
        <ele>425.52</ele>
        <time>2019-05-01T13:51:29Z</time>
      </trkpt>
      <trkpt lat="43.52717" lon="5.64667">
        <ele>425.52</ele>
        <time>2019-05-01T13:51:30Z</time>
      </trkpt>
      <trkpt lat="43.52704" lon="5.64704">
        <ele>424.08</ele>
        <time>2019-05-01T13:51:32Z</time>
      </trkpt>
      <trkpt lat="43.5269" lon="5.64741">
        <ele>426</ele>
        <time>2019-05-01T13:51:34Z</time>
      </trkpt>
      <trkpt lat="43.52674" lon="5.64773">
        <ele>427.44</ele>
        <time>2019-05-01T13:51:36Z</time>
      </trkpt>
      <trkpt lat="43.52635" lon="5.64853">
        <ele>425.04</ele>
        <time>2019-05-01T13:51:41Z</time>
      </trkpt>
      <trkpt lat="43.52609" lon="5.64926">
        <ele>421.68</ele>
        <time>2019-05-01T13:51:45Z</time>
      </trkpt>
      <trkpt lat="43.52603" lon="5.64945">
        <ele>421.68</ele>
        <time>2019-05-01T13:51:46Z</time>
      </trkpt>
      <trkpt lat="43.52589" lon="5.64983">
        <ele>420.23</ele>
        <time>2019-05-01T13:51:48Z</time>
      </trkpt>
      <trkpt lat="43.5257" lon="5.65036">
        <ele>416.39</ele>
        <time>2019-05-01T13:51:51Z</time>
      </trkpt>
      <trkpt lat="43.52559" lon="5.6507">
        <ele>412.54</ele>
        <time>2019-05-01T13:51:53Z</time>
      </trkpt>
      <trkpt lat="43.52549" lon="5.6514">
        <ele>410.14</ele>
        <time>2019-05-01T13:51:57Z</time>
      </trkpt>
      <trkpt lat="43.52546" lon="5.65199">
        <ele>407.74</ele>
        <time>2019-05-01T13:52:00Z</time>
      </trkpt>
      <trkpt lat="43.52544" lon="5.65241">
        <ele>406.29</ele>
        <time>2019-05-01T13:52:02Z</time>
      </trkpt>
      <trkpt lat="43.52542" lon="5.65323">
        <ele>403.89</ele>
        <time>2019-05-01T13:52:06Z</time>
      </trkpt>
      <trkpt lat="43.52535" lon="5.65405">
        <ele>399.57</ele>
        <time>2019-05-01T13:52:10Z</time>
      </trkpt>
      <trkpt lat="43.52531" lon="5.65423">
        <ele>401.01</ele>
        <time>2019-05-01T13:52:11Z</time>
      </trkpt>
      <trkpt lat="43.52525" lon="5.65441">
        <ele>401.01</ele>
        <time>2019-05-01T13:52:12Z</time>
      </trkpt>
      <trkpt lat="43.52511" lon="5.65476">
        <ele>399.08</ele>
        <time>2019-05-01T13:52:14Z</time>
      </trkpt>
      <trkpt lat="43.52486" lon="5.65547">
        <ele>397.16</ele>
        <time>2019-05-01T13:52:18Z</time>
      </trkpt>
      <trkpt lat="43.52482" lon="5.65567">
        <ele>394.76</ele>
        <time>2019-05-01T13:52:19Z</time>
      </trkpt>
      <trkpt lat="43.5248" lon="5.65587">
        <ele>394.76</ele>
        <time>2019-05-01T13:52:20Z</time>
      </trkpt>
      <trkpt lat="43.52472" lon="5.65714">
        <ele>391.39</ele>
        <time>2019-05-01T13:52:26Z</time>
      </trkpt>
      <trkpt lat="43.52471" lon="5.65736">
        <ele>391.39</ele>
        <time>2019-05-01T13:52:27Z</time>
      </trkpt>
      <trkpt lat="43.52465" lon="5.65805">
        <ele>389.47</ele>
        <time>2019-05-01T13:52:30Z</time>
      </trkpt>
      <trkpt lat="43.5246" lon="5.65828">
        <ele>388.51</ele>
        <time>2019-05-01T13:52:31Z</time>
      </trkpt>
      <trkpt lat="43.52454" lon="5.65849">
        <ele>388.51</ele>
        <time>2019-05-01T13:52:32Z</time>
      </trkpt>
      <trkpt lat="43.5244" lon="5.65889">
        <ele>390.43</ele>
        <time>2019-05-01T13:52:34Z</time>
      </trkpt>
      <trkpt lat="43.52423" lon="5.65925">
        <ele>387.55</ele>
        <time>2019-05-01T13:52:36Z</time>
      </trkpt>
      <trkpt lat="43.52405" lon="5.65959">
        <ele>389.47</ele>
        <time>2019-05-01T13:52:38Z</time>
      </trkpt>
      <trkpt lat="43.52397" lon="5.65976">
        <ele>387.55</ele>
        <time>2019-05-01T13:52:39Z</time>
      </trkpt>
      <trkpt lat="43.5239" lon="5.65994">
        <ele>388.03</ele>
        <time>2019-05-01T13:52:40Z</time>
      </trkpt>
      <trkpt lat="43.52385" lon="5.66018">
        <ele>387.07</ele>
        <time>2019-05-01T13:52:41Z</time>
      </trkpt>
      <trkpt lat="43.52384" lon="5.66037">
        <ele>385.63</ele>
        <time>2019-05-01T13:52:42Z</time>
      </trkpt>
      <trkpt lat="43.52384" lon="5.6606">
        <ele>387.55</ele>
        <time>2019-05-01T13:52:43Z</time>
      </trkpt>
      <trkpt lat="43.52385" lon="5.66079">
        <ele>387.07</ele>
        <time>2019-05-01T13:52:44Z</time>
      </trkpt>
      <trkpt lat="43.52391" lon="5.66168">
        <ele>382.74</ele>
        <time>2019-05-01T13:52:48Z</time>
      </trkpt>
      <trkpt lat="43.52398" lon="5.66248">
        <ele>379.86</ele>
        <time>2019-05-01T13:52:52Z</time>
      </trkpt>
      <trkpt lat="43.52417" lon="5.6636">
        <ele>377.45</ele>
        <time>2019-05-01T13:53:00Z</time>
      </trkpt>
      <trkpt lat="43.52418" lon="5.66374">
        <ele>373.61</ele>
        <time>2019-05-01T13:53:02Z</time>
      </trkpt>
      <trkpt lat="43.52419" lon="5.66381">
        <ele>373.61</ele>
        <time>2019-05-01T13:53:03Z</time>
      </trkpt>
      <trkpt lat="43.5242" lon="5.66399">
        <ele>373.61</ele>
        <time>2019-05-01T13:53:05Z</time>
      </trkpt>
      <trkpt lat="43.52419" lon="5.6641">
        <ele>373.61</ele>
        <time>2019-05-01T13:53:06Z</time>
      </trkpt>
      <trkpt lat="43.52412" lon="5.66514">
        <ele>370.73</ele>
        <time>2019-05-01T13:53:13Z</time>
      </trkpt>
      <trkpt lat="43.52408" lon="5.66569">
        <ele>368.32</ele>
        <time>2019-05-01T13:53:16Z</time>
      </trkpt>
      <trkpt lat="43.52403" lon="5.66677">
        <ele>366.4</ele>
        <time>2019-05-01T13:53:23Z</time>
      </trkpt>
      <trkpt lat="43.52401" lon="5.66779">
        <ele>362.55</ele>
        <time>2019-05-01T13:53:30Z</time>
      </trkpt>
      <trkpt lat="43.52398" lon="5.66865">
        <ele>359.19</ele>
        <time>2019-05-01T13:53:37Z</time>
      </trkpt>
      <trkpt lat="43.52407" lon="5.6697">
        <ele>359.19</ele>
        <time>2019-05-01T13:53:46Z</time>
      </trkpt>
      <trkpt lat="43.52415" lon="5.66997">
        <ele>356.79</ele>
        <time>2019-05-01T13:53:48Z</time>
      </trkpt>
      <trkpt lat="43.52437" lon="5.67058">
        <ele>353.9</ele>
        <time>2019-05-01T13:53:53Z</time>
      </trkpt>
      <trkpt lat="43.52439" lon="5.67066">
        <ele>353.9</ele>
        <time>2019-05-01T13:53:54Z</time>
      </trkpt>
      <trkpt lat="43.52441" lon="5.67071">
        <ele>352.46</ele>
        <time>2019-05-01T13:53:55Z</time>
      </trkpt>
      <trkpt lat="43.52442" lon="5.67076">
        <ele>351.5</ele>
        <time>2019-05-01T13:53:56Z</time>
      </trkpt>
      <trkpt lat="43.52442" lon="5.67079">
        <ele>350.54</ele>
        <time>2019-05-01T13:53:57Z</time>
      </trkpt>
      <trkpt lat="43.52441" lon="5.67082">
        <ele>350.06</ele>
        <time>2019-05-01T13:54:00Z</time>
      </trkpt>
      <trkpt lat="43.52439" lon="5.67083">
        <ele>350.06</ele>
        <time>2019-05-01T13:54:01Z</time>
      </trkpt>
      <trkpt lat="43.52435" lon="5.67081">
        <ele>350.06</ele>
        <time>2019-05-01T13:54:02Z</time>
      </trkpt>
      <trkpt lat="43.52431" lon="5.67076">
        <ele>350.06</ele>
        <time>2019-05-01T13:54:03Z</time>
      </trkpt>
      <trkpt lat="43.52427" lon="5.67071">
        <ele>351.5</ele>
        <time>2019-05-01T13:54:04Z</time>
      </trkpt>
      <trkpt lat="43.52375" lon="5.67002">
        <ele>350.06</ele>
        <time>2019-05-01T13:54:12Z</time>
      </trkpt>
      <trkpt lat="43.52348" lon="5.66966">
        <ele>346.69</ele>
        <time>2019-05-01T13:54:16Z</time>
      </trkpt>
      <trkpt lat="43.52338" lon="5.66953">
        <ele>345.73</ele>
        <time>2019-05-01T13:54:18Z</time>
      </trkpt>
      <trkpt lat="43.52277" lon="5.66875">
        <ele>344.29</ele>
        <time>2019-05-01T13:54:26Z</time>
      </trkpt>
      <trkpt lat="43.52225" lon="5.66825">
        <ele>346.69</ele>
        <time>2019-05-01T13:54:31Z</time>
      </trkpt>
      <trkpt lat="43.52106" lon="5.66722">
        <ele>349.1</ele>
        <time>2019-05-01T13:54:41Z</time>
      </trkpt>
      <trkpt lat="43.52031" lon="5.66655">
        <ele>351.02</ele>
        <time>2019-05-01T13:54:47Z</time>
      </trkpt>
      <trkpt lat="43.52009" lon="5.66632">
        <ele>351.02</ele>
        <time>2019-05-01T13:54:49Z</time>
      </trkpt>
      <trkpt lat="43.51999" lon="5.66617">
        <ele>349.58</ele>
        <time>2019-05-01T13:54:50Z</time>
      </trkpt>
      <trkpt lat="43.5199" lon="5.66602">
        <ele>351.02</ele>
        <time>2019-05-01T13:54:51Z</time>
      </trkpt>
      <trkpt lat="43.51983" lon="5.66586">
        <ele>351.5</ele>
        <time>2019-05-01T13:54:52Z</time>
      </trkpt>
      <trkpt lat="43.51975" lon="5.66567">
        <ele>351.5</ele>
        <time>2019-05-01T13:54:53Z</time>
      </trkpt>
      <trkpt lat="43.51936" lon="5.66477">
        <ele>352.46</ele>
        <time>2019-05-01T13:54:58Z</time>
      </trkpt>
      <trkpt lat="43.51925" lon="5.6646">
        <ele>352.46</ele>
        <time>2019-05-01T13:54:59Z</time>
      </trkpt>
      <trkpt lat="43.51914" lon="5.66445">
        <ele>352.46</ele>
        <time>2019-05-01T13:55:00Z</time>
      </trkpt>
      <trkpt lat="43.51901" lon="5.66432">
        <ele>352.46</ele>
        <time>2019-05-01T13:55:01Z</time>
      </trkpt>
      <trkpt lat="43.51889" lon="5.66419">
        <ele>352.46</ele>
        <time>2019-05-01T13:55:02Z</time>
      </trkpt>
      <trkpt lat="43.51857" lon="5.66387">
        <ele>348.62</ele>
        <time>2019-05-01T13:55:05Z</time>
      </trkpt>
      <trkpt lat="43.51849" lon="5.66378">
        <ele>345.25</ele>
        <time>2019-05-01T13:55:06Z</time>
      </trkpt>
      <trkpt lat="43.51842" lon="5.6637">
        <ele>346.69</ele>
        <time>2019-05-01T13:55:07Z</time>
      </trkpt>
      <trkpt lat="43.5183" lon="5.66357">
        <ele>344.29</ele>
        <time>2019-05-01T13:55:09Z</time>
      </trkpt>
      <trkpt lat="43.51825" lon="5.66354">
        <ele>343.81</ele>
        <time>2019-05-01T13:55:10Z</time>
      </trkpt>
      <trkpt lat="43.5182" lon="5.66354">
        <ele>343.33</ele>
        <time>2019-05-01T13:55:11Z</time>
      </trkpt>
      <trkpt lat="43.51814" lon="5.66358">
        <ele>343.33</ele>
        <time>2019-05-01T13:55:12Z</time>
      </trkpt>
      <trkpt lat="43.5181" lon="5.66362">
        <ele>343.33</ele>
        <time>2019-05-01T13:55:13Z</time>
      </trkpt>
      <trkpt lat="43.51804" lon="5.66368">
        <ele>343.33</ele>
        <time>2019-05-01T13:55:14Z</time>
      </trkpt>
      <trkpt lat="43.5176" lon="5.66399">
        <ele>341.89</ele>
        <time>2019-05-01T13:55:20Z</time>
      </trkpt>
      <trkpt lat="43.51712" lon="5.66424">
        <ele>340.92</ele>
        <time>2019-05-01T13:55:26Z</time>
      </trkpt>
      <trkpt lat="43.51652" lon="5.66489">
        <ele>337.56</ele>
        <time>2019-05-01T13:55:34Z</time>
      </trkpt>
      <trkpt lat="43.51645" lon="5.66498">
        <ele>337.56</ele>
        <time>2019-05-01T13:55:35Z</time>
      </trkpt>
      <trkpt lat="43.51599" lon="5.6656">
        <ele>334.68</ele>
        <time>2019-05-01T13:55:42Z</time>
      </trkpt>
      <trkpt lat="43.51587" lon="5.66577">
        <ele>336.6</ele>
        <time>2019-05-01T13:55:44Z</time>
      </trkpt>
      <trkpt lat="43.51567" lon="5.66603">
        <ele>334.68</ele>
        <time>2019-05-01T13:55:47Z</time>
      </trkpt>
      <trkpt lat="43.51504" lon="5.66686">
        <ele>331.31</ele>
        <time>2019-05-01T13:55:56Z</time>
      </trkpt>
      <trkpt lat="43.51476" lon="5.66723">
        <ele>330.35</ele>
        <time>2019-05-01T13:56:00Z</time>
      </trkpt>
      <trkpt lat="43.51441" lon="5.66767">
        <ele>330.83</ele>
        <time>2019-05-01T13:56:05Z</time>
      </trkpt>
      <trkpt lat="43.5142" lon="5.66794">
        <ele>326.99</ele>
        <time>2019-05-01T13:56:08Z</time>
      </trkpt>
      <trkpt lat="43.51393" lon="5.66829">
        <ele>326.5</ele>
        <time>2019-05-01T13:56:12Z</time>
      </trkpt>
      <trkpt lat="43.51353" lon="5.66882">
        <ele>325.06</ele>
        <time>2019-05-01T13:56:18Z</time>
      </trkpt>
      <trkpt lat="43.51324" lon="5.6692">
        <ele>321.7</ele>
        <time>2019-05-01T13:56:22Z</time>
      </trkpt>
      <trkpt lat="43.51279" lon="5.6698">
        <ele>320.26</ele>
        <time>2019-05-01T13:56:28Z</time>
      </trkpt>
      <trkpt lat="43.51256" lon="5.6701">
        <ele>318.81</ele>
        <time>2019-05-01T13:56:31Z</time>
      </trkpt>
      <trkpt lat="43.51243" lon="5.67028">
        <ele>318.81</ele>
        <time>2019-05-01T13:56:33Z</time>
      </trkpt>
      <trkpt lat="43.51236" lon="5.67034">
        <ele>315.93</ele>
        <time>2019-05-01T13:56:34Z</time>
      </trkpt>
      <trkpt lat="43.51228" lon="5.67037">
        <ele>314.49</ele>
        <time>2019-05-01T13:56:35Z</time>
      </trkpt>
      <trkpt lat="43.51219" lon="5.67039">
        <ele>316.89</ele>
        <time>2019-05-01T13:56:36Z</time>
      </trkpt>
      <trkpt lat="43.51207" lon="5.67038">
        <ele>314.97</ele>
        <time>2019-05-01T13:56:37Z</time>
      </trkpt>
      <trkpt lat="43.51198" lon="5.67037">
        <ele>314.97</ele>
        <time>2019-05-01T13:56:38Z</time>
      </trkpt>
      <trkpt lat="43.51153" lon="5.67027">
        <ele>313.53</ele>
        <time>2019-05-01T13:56:42Z</time>
      </trkpt>
      <trkpt lat="43.51141" lon="5.67024">
        <ele>317.37</ele>
        <time>2019-05-01T13:56:43Z</time>
      </trkpt>
      <trkpt lat="43.51129" lon="5.67022">
        <ele>314.97</ele>
        <time>2019-05-01T13:56:44Z</time>
      </trkpt>
      <trkpt lat="43.51082" lon="5.67012">
        <ele>315.93</ele>
        <time>2019-05-01T13:56:48Z</time>
      </trkpt>
      <trkpt lat="43.51058" lon="5.67008">
        <ele>314.49</ele>
        <time>2019-05-01T13:56:50Z</time>
      </trkpt>
      <trkpt lat="43.51023" lon="5.67004">
        <ele>313.05</ele>
        <time>2019-05-01T13:56:53Z</time>
      </trkpt>
      <trkpt lat="43.50915" lon="5.66971">
        <ele>309.68</ele>
        <time>2019-05-01T13:57:03Z</time>
      </trkpt>
      <trkpt lat="43.50875" lon="5.66956">
        <ele>310.16</ele>
        <time>2019-05-01T13:57:07Z</time>
      </trkpt>
      <trkpt lat="43.50807" lon="5.66949">
        <ele>310.16</ele>
        <time>2019-05-01T13:57:13Z</time>
      </trkpt>
      <trkpt lat="43.50776" lon="5.66953">
        <ele>309.68</ele>
        <time>2019-05-01T13:57:16Z</time>
      </trkpt>
      <trkpt lat="43.50766" lon="5.66952">
        <ele>309.68</ele>
        <time>2019-05-01T13:57:17Z</time>
      </trkpt>
      <trkpt lat="43.50746" lon="5.6695">
        <ele>310.64</ele>
        <time>2019-05-01T13:57:19Z</time>
      </trkpt>
      <trkpt lat="43.50736" lon="5.66951">
        <ele>307.76</ele>
        <time>2019-05-01T13:57:20Z</time>
      </trkpt>
      <trkpt lat="43.50725" lon="5.66953">
        <ele>310.16</ele>
        <time>2019-05-01T13:57:21Z</time>
      </trkpt>
      <trkpt lat="43.50714" lon="5.66956">
        <ele>306.8</ele>
        <time>2019-05-01T13:57:22Z</time>
      </trkpt>
      <trkpt lat="43.50623" lon="5.66982">
        <ele>308.24</ele>
        <time>2019-05-01T13:57:30Z</time>
      </trkpt>
      <trkpt lat="43.50612" lon="5.66982">
        <ele>308.24</ele>
        <time>2019-05-01T13:57:31Z</time>
      </trkpt>
      <trkpt lat="43.50601" lon="5.6698">
        <ele>306.32</ele>
        <time>2019-05-01T13:57:32Z</time>
      </trkpt>
      <trkpt lat="43.50589" lon="5.66975">
        <ele>306.32</ele>
        <time>2019-05-01T13:57:33Z</time>
      </trkpt>
      <trkpt lat="43.50578" lon="5.6697">
        <ele>305.36</ele>
        <time>2019-05-01T13:57:34Z</time>
      </trkpt>
      <trkpt lat="43.50487" lon="5.66962">
        <ele>305.36</ele>
        <time>2019-05-01T13:57:41Z</time>
      </trkpt>
      <trkpt lat="43.50474" lon="5.66962">
        <ele>307.76</ele>
        <time>2019-05-01T13:57:42Z</time>
      </trkpt>
      <trkpt lat="43.50396" lon="5.66954">
        <ele>306.32</ele>
        <time>2019-05-01T13:57:48Z</time>
      </trkpt>
      <trkpt lat="43.50344" lon="5.66957">
        <ele>309.68</ele>
        <time>2019-05-01T13:57:52Z</time>
      </trkpt>
      <trkpt lat="43.50332" lon="5.66957">
        <ele>309.68</ele>
        <time>2019-05-01T13:57:53Z</time>
      </trkpt>
      <trkpt lat="43.50321" lon="5.66955">
        <ele>311.6</ele>
        <time>2019-05-01T13:57:54Z</time>
      </trkpt>
      <trkpt lat="43.50311" lon="5.66952">
        <ele>311.6</ele>
        <time>2019-05-01T13:57:55Z</time>
      </trkpt>
      <trkpt lat="43.503" lon="5.66948">
        <ele>310.16</ele>
        <time>2019-05-01T13:57:56Z</time>
      </trkpt>
      <trkpt lat="43.50289" lon="5.66941">
        <ele>314.49</ele>
        <time>2019-05-01T13:57:57Z</time>
      </trkpt>
      <trkpt lat="43.50279" lon="5.66934">
        <ele>311.6</ele>
        <time>2019-05-01T13:57:58Z</time>
      </trkpt>
      <trkpt lat="43.50268" lon="5.66924">
        <ele>311.6</ele>
        <time>2019-05-01T13:57:59Z</time>
      </trkpt>
      <trkpt lat="43.50259" lon="5.66914">
        <ele>311.6</ele>
        <time>2019-05-01T13:58:00Z</time>
      </trkpt>
      <trkpt lat="43.5025" lon="5.66903">
        <ele>311.12</ele>
        <time>2019-05-01T13:58:01Z</time>
      </trkpt>
      <trkpt lat="43.50223" lon="5.66876">
        <ele>310.64</ele>
        <time>2019-05-01T13:58:04Z</time>
      </trkpt>
      <trkpt lat="43.50213" lon="5.6687">
        <ele>310.64</ele>
        <time>2019-05-01T13:58:05Z</time>
      </trkpt>
      <trkpt lat="43.50203" lon="5.66867">
        <ele>308.72</ele>
        <time>2019-05-01T13:58:06Z</time>
      </trkpt>
      <trkpt lat="43.50192" lon="5.66868">
        <ele>307.28</ele>
        <time>2019-05-01T13:58:07Z</time>
      </trkpt>
      <trkpt lat="43.50181" lon="5.6687">
        <ele>306.8</ele>
        <time>2019-05-01T13:58:08Z</time>
      </trkpt>
      <trkpt lat="43.5017" lon="5.66875">
        <ele>310.16</ele>
        <time>2019-05-01T13:58:09Z</time>
      </trkpt>
      <trkpt lat="43.5016" lon="5.66879">
        <ele>310.16</ele>
        <time>2019-05-01T13:58:10Z</time>
      </trkpt>
      <trkpt lat="43.50148" lon="5.66883">
        <ele>306.32</ele>
        <time>2019-05-01T13:58:11Z</time>
      </trkpt>
      <trkpt lat="43.50138" lon="5.66887">
        <ele>308.24</ele>
        <time>2019-05-01T13:58:12Z</time>
      </trkpt>
      <trkpt lat="43.50106" lon="5.66895">
        <ele>306.8</ele>
        <time>2019-05-01T13:58:15Z</time>
      </trkpt>
      <trkpt lat="43.50094" lon="5.66896">
        <ele>308.72</ele>
        <time>2019-05-01T13:58:16Z</time>
      </trkpt>
      <trkpt lat="43.49976" lon="5.66884">
        <ele>306.32</ele>
        <time>2019-05-01T13:58:25Z</time>
      </trkpt>
      <trkpt lat="43.49964" lon="5.6688">
        <ele>306.32</ele>
        <time>2019-05-01T13:58:26Z</time>
      </trkpt>
      <trkpt lat="43.49952" lon="5.66874">
        <ele>306.32</ele>
        <time>2019-05-01T13:58:27Z</time>
      </trkpt>
      <trkpt lat="43.4994" lon="5.66866">
        <ele>307.76</ele>
        <time>2019-05-01T13:58:28Z</time>
      </trkpt>
      <trkpt lat="43.49928" lon="5.66855">
        <ele>306.32</ele>
        <time>2019-05-01T13:58:29Z</time>
      </trkpt>
      <trkpt lat="43.49917" lon="5.66844">
        <ele>306.32</ele>
        <time>2019-05-01T13:58:30Z</time>
      </trkpt>
      <trkpt lat="43.49769" lon="5.66696">
        <ele>301.99</ele>
        <time>2019-05-01T13:58:43Z</time>
      </trkpt>
      <trkpt lat="43.49758" lon="5.66687">
        <ele>301.99</ele>
        <time>2019-05-01T13:58:44Z</time>
      </trkpt>
      <trkpt lat="43.49727" lon="5.66656">
        <ele>300.55</ele>
        <time>2019-05-01T13:58:47Z</time>
      </trkpt>
      <trkpt lat="43.49719" lon="5.66644">
        <ele>298.63</ele>
        <time>2019-05-01T13:58:48Z</time>
      </trkpt>
      <trkpt lat="43.49702" lon="5.66619">
        <ele>297.18</ele>
        <time>2019-05-01T13:58:50Z</time>
      </trkpt>
      <trkpt lat="43.49683" lon="5.66595">
        <ele>298.63</ele>
        <time>2019-05-01T13:58:52Z</time>
      </trkpt>
      <trkpt lat="43.4964" lon="5.66547">
        <ele>296.22</ele>
        <time>2019-05-01T13:58:56Z</time>
      </trkpt>
      <trkpt lat="43.49608" lon="5.66511">
        <ele>292.38</ele>
        <time>2019-05-01T13:58:59Z</time>
      </trkpt>
      <trkpt lat="43.49566" lon="5.66466">
        <ele>289.01</ele>
        <time>2019-05-01T13:59:03Z</time>
      </trkpt>
      <trkpt lat="43.49555" lon="5.66457">
        <ele>289.01</ele>
        <time>2019-05-01T13:59:04Z</time>
      </trkpt>
      <trkpt lat="43.49542" lon="5.6645">
        <ele>289.01</ele>
        <time>2019-05-01T13:59:05Z</time>
      </trkpt>
      <trkpt lat="43.49489" lon="5.66427">
        <ele>291.9</ele>
        <time>2019-05-01T13:59:09Z</time>
      </trkpt>
      <trkpt lat="43.49463" lon="5.6642">
        <ele>292.86</ele>
        <time>2019-05-01T13:59:11Z</time>
      </trkpt>
      <trkpt lat="43.49439" lon="5.66412">
        <ele>294.3</ele>
        <time>2019-05-01T13:59:13Z</time>
      </trkpt>
      <trkpt lat="43.49428" lon="5.66405">
        <ele>291.9</ele>
        <time>2019-05-01T13:59:14Z</time>
      </trkpt>
      <trkpt lat="43.49419" lon="5.66394">
        <ele>294.3</ele>
        <time>2019-05-01T13:59:15Z</time>
      </trkpt>
      <trkpt lat="43.49411" lon="5.66381">
        <ele>295.26</ele>
        <time>2019-05-01T13:59:16Z</time>
      </trkpt>
      <trkpt lat="43.49404" lon="5.66366">
        <ele>295.26</ele>
        <time>2019-05-01T13:59:17Z</time>
      </trkpt>
      <trkpt lat="43.49398" lon="5.6635">
        <ele>295.26</ele>
        <time>2019-05-01T13:59:18Z</time>
      </trkpt>
      <trkpt lat="43.49363" lon="5.66267">
        <ele>297.67</ele>
        <time>2019-05-01T13:59:23Z</time>
      </trkpt>
      <trkpt lat="43.49354" lon="5.66252">
        <ele>299.11</ele>
        <time>2019-05-01T13:59:24Z</time>
      </trkpt>
      <trkpt lat="43.49345" lon="5.66239">
        <ele>297.67</ele>
        <time>2019-05-01T13:59:25Z</time>
      </trkpt>
      <trkpt lat="43.49335" lon="5.66227">
        <ele>302.47</ele>
        <time>2019-05-01T13:59:26Z</time>
      </trkpt>
      <trkpt lat="43.49325" lon="5.66215">
        <ele>301.51</ele>
        <time>2019-05-01T13:59:27Z</time>
      </trkpt>
      <trkpt lat="43.49314" lon="5.66206">
        <ele>301.51</ele>
        <time>2019-05-01T13:59:28Z</time>
      </trkpt>
      <trkpt lat="43.49302" lon="5.66199">
        <ele>303.91</ele>
        <time>2019-05-01T13:59:29Z</time>
      </trkpt>
      <trkpt lat="43.4929" lon="5.66195">
        <ele>307.28</ele>
        <time>2019-05-01T13:59:30Z</time>
      </trkpt>
      <trkpt lat="43.49277" lon="5.66192">
        <ele>305.36</ele>
        <time>2019-05-01T13:59:31Z</time>
      </trkpt>
      <trkpt lat="43.49266" lon="5.66188">
        <ele>303.91</ele>
        <time>2019-05-01T13:59:32Z</time>
      </trkpt>
      <trkpt lat="43.49254" lon="5.66179">
        <ele>301.99</ele>
        <time>2019-05-01T13:59:33Z</time>
      </trkpt>
      <trkpt lat="43.49245" lon="5.66169">
        <ele>303.91</ele>
        <time>2019-05-01T13:59:34Z</time>
      </trkpt>
      <trkpt lat="43.49236" lon="5.66156">
        <ele>301.99</ele>
        <time>2019-05-01T13:59:35Z</time>
      </trkpt>
      <trkpt lat="43.49227" lon="5.66141">
        <ele>301.99</ele>
        <time>2019-05-01T13:59:36Z</time>
      </trkpt>
      <trkpt lat="43.4921" lon="5.66112">
        <ele>302.95</ele>
        <time>2019-05-01T13:59:38Z</time>
      </trkpt>
      <trkpt lat="43.49176" lon="5.66053">
        <ele>299.59</ele>
        <time>2019-05-01T13:59:42Z</time>
      </trkpt>
      <trkpt lat="43.49168" lon="5.66038">
        <ele>299.59</ele>
        <time>2019-05-01T13:59:43Z</time>
      </trkpt>
      <trkpt lat="43.49155" lon="5.66012">
        <ele>294.3</ele>
        <time>2019-05-01T13:59:45Z</time>
      </trkpt>
      <trkpt lat="43.49149" lon="5.66002">
        <ele>294.78</ele>
        <time>2019-05-01T13:59:46Z</time>
      </trkpt>
      <trkpt lat="43.4914" lon="5.65984">
        <ele>291.9</ele>
        <time>2019-05-01T13:59:48Z</time>
      </trkpt>
      <trkpt lat="43.49137" lon="5.65978">
        <ele>290.46</ele>
        <time>2019-05-01T13:59:49Z</time>
      </trkpt>
      <trkpt lat="43.49134" lon="5.65975">
        <ele>290.46</ele>
        <time>2019-05-01T13:59:50Z</time>
      </trkpt>
      <trkpt lat="43.49132" lon="5.65974">
        <ele>290.46</ele>
        <time>2019-05-01T13:59:51Z</time>
      </trkpt>
      <trkpt lat="43.49129" lon="5.65973">
        <ele>289.49</ele>
        <time>2019-05-01T13:59:54Z</time>
      </trkpt>
      <trkpt lat="43.49126" lon="5.65975">
        <ele>288.53</ele>
        <time>2019-05-01T13:59:55Z</time>
      </trkpt>
      <trkpt lat="43.49122" lon="5.65981">
        <ele>288.53</ele>
        <time>2019-05-01T13:59:56Z</time>
      </trkpt>
      <trkpt lat="43.49119" lon="5.65991">
        <ele>288.53</ele>
        <time>2019-05-01T13:59:57Z</time>
      </trkpt>
      <trkpt lat="43.49117" lon="5.66004">
        <ele>289.49</ele>
        <time>2019-05-01T13:59:58Z</time>
      </trkpt>
      <trkpt lat="43.49114" lon="5.66022">
        <ele>289.97</ele>
        <time>2019-05-01T13:59:59Z</time>
      </trkpt>
      <trkpt lat="43.49106" lon="5.66068">
        <ele>293.82</ele>
        <time>2019-05-01T14:00:01Z</time>
      </trkpt>
      <trkpt lat="43.49094" lon="5.66122">
        <ele>297.18</ele>
        <time>2019-05-01T14:00:03Z</time>
      </trkpt>
      <trkpt lat="43.49078" lon="5.66181">
        <ele>298.63</ele>
        <time>2019-05-01T14:00:05Z</time>
      </trkpt>
      <trkpt lat="43.49046" lon="5.66292">
        <ele>296.7</ele>
        <time>2019-05-01T14:00:09Z</time>
      </trkpt>
      <trkpt lat="43.49004" lon="5.66435">
        <ele>294.78</ele>
        <time>2019-05-01T14:00:15Z</time>
      </trkpt>
      <trkpt lat="43.4897" lon="5.66553">
        <ele>295.74</ele>
        <time>2019-05-01T14:00:20Z</time>
      </trkpt>
      <trkpt lat="43.48949" lon="5.66624">
        <ele>292.38</ele>
        <time>2019-05-01T14:00:23Z</time>
      </trkpt>
      <trkpt lat="43.48943" lon="5.66647">
        <ele>292.38</ele>
        <time>2019-05-01T14:00:24Z</time>
      </trkpt>
      <trkpt lat="43.48895" lon="5.66811">
        <ele>289.49</ele>
        <time>2019-05-01T14:00:31Z</time>
      </trkpt>
      <trkpt lat="43.48826" lon="5.67019">
        <ele>285.65</ele>
        <time>2019-05-01T14:00:40Z</time>
      </trkpt>
      <trkpt lat="43.48761" lon="5.67149">
        <ele>290.46</ele>
        <time>2019-05-01T14:00:46Z</time>
      </trkpt>
      <trkpt lat="43.48749" lon="5.67169">
        <ele>285.17</ele>
        <time>2019-05-01T14:00:47Z</time>
      </trkpt>
      <trkpt lat="43.48727" lon="5.67213">
        <ele>283.25</ele>
        <time>2019-05-01T14:00:49Z</time>
      </trkpt>
      <trkpt lat="43.48717" lon="5.67236">
        <ele>279.88</ele>
        <time>2019-05-01T14:00:50Z</time>
      </trkpt>
      <trkpt lat="43.48708" lon="5.6726">
        <ele>281.8</ele>
        <time>2019-05-01T14:00:51Z</time>
      </trkpt>
      <trkpt lat="43.48679" lon="5.67337">
        <ele>277.48</ele>
        <time>2019-05-01T14:00:54Z</time>
      </trkpt>
      <trkpt lat="43.48662" lon="5.67388">
        <ele>277</ele>
        <time>2019-05-01T14:00:56Z</time>
      </trkpt>
      <trkpt lat="43.48636" lon="5.67468">
        <ele>280.36</ele>
        <time>2019-05-01T14:00:59Z</time>
      </trkpt>
      <trkpt lat="43.48628" lon="5.67494">
        <ele>279.88</ele>
        <time>2019-05-01T14:01:00Z</time>
      </trkpt>
      <trkpt lat="43.48612" lon="5.67549">
        <ele>278.92</ele>
        <time>2019-05-01T14:01:02Z</time>
      </trkpt>
      <trkpt lat="43.48578" lon="5.67662">
        <ele>275.07</ele>
        <time>2019-05-01T14:01:06Z</time>
      </trkpt>
      <trkpt lat="43.48553" lon="5.67749">
        <ele>271.23</ele>
        <time>2019-05-01T14:01:09Z</time>
      </trkpt>
      <trkpt lat="43.48545" lon="5.67777">
        <ele>271.71</ele>
        <time>2019-05-01T14:01:10Z</time>
      </trkpt>
      <trkpt lat="43.48529" lon="5.67835">
        <ele>277</ele>
        <time>2019-05-01T14:01:12Z</time>
      </trkpt>
      <trkpt lat="43.4852" lon="5.67863">
        <ele>275.56</ele>
        <time>2019-05-01T14:01:13Z</time>
      </trkpt>
      <trkpt lat="43.4848" lon="5.68008">
        <ele>271.71</ele>
        <time>2019-05-01T14:01:18Z</time>
      </trkpt>
      <trkpt lat="43.48464" lon="5.68065">
        <ele>268.35</ele>
        <time>2019-05-01T14:01:20Z</time>
      </trkpt>
      <trkpt lat="43.48456" lon="5.68094">
        <ele>268.35</ele>
        <time>2019-05-01T14:01:21Z</time>
      </trkpt>
      <trkpt lat="43.48434" lon="5.68182">
        <ele>272.67</ele>
        <time>2019-05-01T14:01:24Z</time>
      </trkpt>
      <trkpt lat="43.48422" lon="5.6824">
        <ele>275.07</ele>
        <time>2019-05-01T14:01:26Z</time>
      </trkpt>
      <trkpt lat="43.48409" lon="5.68298">
        <ele>272.67</ele>
        <time>2019-05-01T14:01:28Z</time>
      </trkpt>
      <trkpt lat="43.48375" lon="5.6846">
        <ele>268.83</ele>
        <time>2019-05-01T14:01:34Z</time>
      </trkpt>
      <trkpt lat="43.48335" lon="5.6865">
        <ele>273.15</ele>
        <time>2019-05-01T14:01:42Z</time>
      </trkpt>
      <trkpt lat="43.48331" lon="5.68676">
        <ele>272.67</ele>
        <time>2019-05-01T14:01:43Z</time>
      </trkpt>
      <trkpt lat="43.48323" lon="5.68753">
        <ele>270.27</ele>
        <time>2019-05-01T14:01:46Z</time>
      </trkpt>
      <trkpt lat="43.48309" lon="5.6907">
        <ele>270.75</ele>
        <time>2019-05-01T14:01:57Z</time>
      </trkpt>
      <trkpt lat="43.4831" lon="5.69268">
        <ele>270.27</ele>
        <time>2019-05-01T14:02:04Z</time>
      </trkpt>
      <trkpt lat="43.4831" lon="5.69295">
        <ele>266.42</ele>
        <time>2019-05-01T14:02:05Z</time>
      </trkpt>
      <trkpt lat="43.48311" lon="5.69322">
        <ele>266.42</ele>
        <time>2019-05-01T14:02:06Z</time>
      </trkpt>
      <trkpt lat="43.48315" lon="5.69403">
        <ele>263.54</ele>
        <time>2019-05-01T14:02:09Z</time>
      </trkpt>
      <trkpt lat="43.4832" lon="5.69556">
        <ele>261.62</ele>
        <time>2019-05-01T14:02:15Z</time>
      </trkpt>
      <trkpt lat="43.48316" lon="5.69581">
        <ele>261.62</ele>
        <time>2019-05-01T14:02:16Z</time>
      </trkpt>
      <trkpt lat="43.48311" lon="5.69606">
        <ele>264.5</ele>
        <time>2019-05-01T14:02:17Z</time>
      </trkpt>
      <trkpt lat="43.48303" lon="5.6963">
        <ele>263.06</ele>
        <time>2019-05-01T14:02:18Z</time>
      </trkpt>
      <trkpt lat="43.48232" lon="5.6984">
        <ele>260.17</ele>
        <time>2019-05-01T14:02:27Z</time>
      </trkpt>
      <trkpt lat="43.48221" lon="5.69883">
        <ele>256.81</ele>
        <time>2019-05-01T14:02:29Z</time>
      </trkpt>
      <trkpt lat="43.48216" lon="5.69906">
        <ele>256.81</ele>
        <time>2019-05-01T14:02:30Z</time>
      </trkpt>
      <trkpt lat="43.48214" lon="5.69932">
        <ele>257.77</ele>
        <time>2019-05-01T14:02:31Z</time>
      </trkpt>
      <trkpt lat="43.48214" lon="5.69955">
        <ele>258.73</ele>
        <time>2019-05-01T14:02:32Z</time>
      </trkpt>
      <trkpt lat="43.48214" lon="5.69978">
        <ele>259.21</ele>
        <time>2019-05-01T14:02:33Z</time>
      </trkpt>
      <trkpt lat="43.48216" lon="5.70005">
        <ele>259.21</ele>
        <time>2019-05-01T14:02:34Z</time>
      </trkpt>
      <trkpt lat="43.48221" lon="5.70053">
        <ele>263.06</ele>
        <time>2019-05-01T14:02:36Z</time>
      </trkpt>
      <trkpt lat="43.48223" lon="5.70078">
        <ele>263.06</ele>
        <time>2019-05-01T14:02:37Z</time>
      </trkpt>
      <trkpt lat="43.48258" lon="5.70387">
        <ele>262.58</ele>
        <time>2019-05-01T14:02:48Z</time>
      </trkpt>
      <trkpt lat="43.48266" lon="5.70441">
        <ele>262.1</ele>
        <time>2019-05-01T14:02:50Z</time>
      </trkpt>
      <trkpt lat="43.48293" lon="5.70549">
        <ele>266.9</ele>
        <time>2019-05-01T14:02:54Z</time>
      </trkpt>
      <trkpt lat="43.483" lon="5.70576">
        <ele>264.5</ele>
        <time>2019-05-01T14:02:55Z</time>
      </trkpt>
      <trkpt lat="43.48368" lon="5.7084">
        <ele>269.31</ele>
        <time>2019-05-01T14:03:05Z</time>
      </trkpt>
      <trkpt lat="43.48374" lon="5.70865">
        <ele>269.31</ele>
        <time>2019-05-01T14:03:06Z</time>
      </trkpt>
      <trkpt lat="43.48401" lon="5.7097">
        <ele>266.42</ele>
        <time>2019-05-01T14:03:10Z</time>
      </trkpt>
      <trkpt lat="43.48455" lon="5.7118">
        <ele>268.83</ele>
        <time>2019-05-01T14:03:18Z</time>
      </trkpt>
      <trkpt lat="43.4849" lon="5.71305">
        <ele>266.9</ele>
        <time>2019-05-01T14:03:23Z</time>
      </trkpt>
      <trkpt lat="43.48513" lon="5.71378">
        <ele>268.83</ele>
        <time>2019-05-01T14:03:26Z</time>
      </trkpt>
      <trkpt lat="43.48527" lon="5.71425">
        <ele>267.38</ele>
        <time>2019-05-01T14:03:28Z</time>
      </trkpt>
      <trkpt lat="43.48561" lon="5.71545">
        <ele>267.86</ele>
        <time>2019-05-01T14:03:33Z</time>
      </trkpt>
      <trkpt lat="43.48573" lon="5.71702">
        <ele>268.35</ele>
        <time>2019-05-01T14:03:39Z</time>
      </trkpt>
      <trkpt lat="43.48566" lon="5.71825">
        <ele>265.94</ele>
        <time>2019-05-01T14:03:44Z</time>
      </trkpt>
      <trkpt lat="43.48564" lon="5.71882">
        <ele>263.06</ele>
        <time>2019-05-01T14:03:47Z</time>
      </trkpt>
      <trkpt lat="43.4856" lon="5.71918">
        <ele>260.17</ele>
        <time>2019-05-01T14:03:50Z</time>
      </trkpt>
      <trkpt lat="43.48557" lon="5.71927">
        <ele>259.69</ele>
        <time>2019-05-01T14:03:51Z</time>
      </trkpt>
      <trkpt lat="43.48549" lon="5.71949">
        <ele>259.21</ele>
        <time>2019-05-01T14:03:53Z</time>
      </trkpt>
      <trkpt lat="43.48548" lon="5.71961">
        <ele>261.62</ele>
        <time>2019-05-01T14:03:54Z</time>
      </trkpt>
      <trkpt lat="43.48551" lon="5.71975">
        <ele>263.06</ele>
        <time>2019-05-01T14:03:55Z</time>
      </trkpt>
      <trkpt lat="43.48554" lon="5.71991">
        <ele>264.5</ele>
        <time>2019-05-01T14:03:56Z</time>
      </trkpt>
      <trkpt lat="43.48555" lon="5.72005">
        <ele>264.5</ele>
        <time>2019-05-01T14:03:57Z</time>
      </trkpt>
      <trkpt lat="43.48555" lon="5.72022">
        <ele>264.98</ele>
        <time>2019-05-01T14:03:58Z</time>
      </trkpt>
      <trkpt lat="43.48554" lon="5.72041">
        <ele>264.98</ele>
        <time>2019-05-01T14:03:59Z</time>
      </trkpt>
      <trkpt lat="43.48552" lon="5.7208">
        <ele>266.42</ele>
        <time>2019-05-01T14:04:01Z</time>
      </trkpt>
      <trkpt lat="43.48549" lon="5.72142">
        <ele>269.79</ele>
        <time>2019-05-01T14:04:04Z</time>
      </trkpt>
      <trkpt lat="43.48548" lon="5.72162">
        <ele>269.79</ele>
        <time>2019-05-01T14:04:05Z</time>
      </trkpt>
      <trkpt lat="43.48545" lon="5.72209">
        <ele>268.35</ele>
        <time>2019-05-01T14:04:07Z</time>
      </trkpt>
      <trkpt lat="43.48541" lon="5.7228">
        <ele>273.15</ele>
        <time>2019-05-01T14:04:10Z</time>
      </trkpt>
      <trkpt lat="43.48539" lon="5.72331">
        <ele>274.59</ele>
        <time>2019-05-01T14:04:12Z</time>
      </trkpt>
      <trkpt lat="43.48536" lon="5.72381">
        <ele>273.15</ele>
        <time>2019-05-01T14:04:14Z</time>
      </trkpt>
      <trkpt lat="43.48528" lon="5.72518">
        <ele>277</ele>
        <time>2019-05-01T14:04:19Z</time>
      </trkpt>
      <trkpt lat="43.48527" lon="5.72548">
        <ele>276.52</ele>
        <time>2019-05-01T14:04:20Z</time>
      </trkpt>
      <trkpt lat="43.4852" lon="5.72687">
        <ele>280.36</ele>
        <time>2019-05-01T14:04:25Z</time>
      </trkpt>
      <trkpt lat="43.48515" lon="5.72774">
        <ele>281.8</ele>
        <time>2019-05-01T14:04:28Z</time>
      </trkpt>
      <trkpt lat="43.48499" lon="5.73087">
        <ele>282.77</ele>
        <time>2019-05-01T14:04:39Z</time>
      </trkpt>
      <trkpt lat="43.48495" lon="5.73143">
        <ele>285.17</ele>
        <time>2019-05-01T14:04:41Z</time>
      </trkpt>
      <trkpt lat="43.48481" lon="5.73394">
        <ele>288.53</ele>
        <time>2019-05-01T14:04:50Z</time>
      </trkpt>
      <trkpt lat="43.4848" lon="5.73422">
        <ele>288.53</ele>
        <time>2019-05-01T14:04:51Z</time>
      </trkpt>
      <trkpt lat="43.48474" lon="5.73534">
        <ele>292.38</ele>
        <time>2019-05-01T14:04:55Z</time>
      </trkpt>
      <trkpt lat="43.48472" lon="5.73561">
        <ele>292.38</ele>
        <time>2019-05-01T14:04:56Z</time>
      </trkpt>
      <trkpt lat="43.48466" lon="5.73671">
        <ele>294.78</ele>
        <time>2019-05-01T14:05:00Z</time>
      </trkpt>
      <trkpt lat="43.48455" lon="5.73884">
        <ele>296.22</ele>
        <time>2019-05-01T14:05:08Z</time>
      </trkpt>
      <trkpt lat="43.48451" lon="5.73937">
        <ele>297.67</ele>
        <time>2019-05-01T14:05:10Z</time>
      </trkpt>
      <trkpt lat="43.48422" lon="5.74123">
        <ele>295.74</ele>
        <time>2019-05-01T14:05:17Z</time>
      </trkpt>
      <trkpt lat="43.48407" lon="5.74201">
        <ele>292.86</ele>
        <time>2019-05-01T14:05:20Z</time>
      </trkpt>
      <trkpt lat="43.48398" lon="5.74251">
        <ele>292.38</ele>
        <time>2019-05-01T14:05:22Z</time>
      </trkpt>
      <trkpt lat="43.48366" lon="5.74415">
        <ele>288.53</ele>
        <time>2019-05-01T14:05:29Z</time>
      </trkpt>
      <trkpt lat="43.48338" lon="5.74574">
        <ele>284.69</ele>
        <time>2019-05-01T14:05:37Z</time>
      </trkpt>
      <trkpt lat="43.48336" lon="5.74589">
        <ele>284.69</ele>
        <time>2019-05-01T14:05:38Z</time>
      </trkpt>
      <trkpt lat="43.4833" lon="5.74618">
        <ele>286.13</ele>
        <time>2019-05-01T14:05:40Z</time>
      </trkpt>
      <trkpt lat="43.48324" lon="5.74651">
        <ele>288.05</ele>
        <time>2019-05-01T14:05:42Z</time>
      </trkpt>
      <trkpt lat="43.48298" lon="5.74734">
        <ele>293.34</ele>
        <time>2019-05-01T14:05:46Z</time>
      </trkpt>
      <trkpt lat="43.48285" lon="5.7478">
        <ele>295.26</ele>
        <time>2019-05-01T14:05:48Z</time>
      </trkpt>
      <trkpt lat="43.48241" lon="5.74929">
        <ele>298.15</ele>
        <time>2019-05-01T14:05:54Z</time>
      </trkpt>
      <trkpt lat="43.48183" lon="5.75127">
        <ele>301.99</ele>
        <time>2019-05-01T14:06:02Z</time>
      </trkpt>
      <trkpt lat="43.48168" lon="5.75177">
        <ele>305.36</ele>
        <time>2019-05-01T14:06:04Z</time>
      </trkpt>
      <trkpt lat="43.48161" lon="5.75202">
        <ele>305.36</ele>
        <time>2019-05-01T14:06:05Z</time>
      </trkpt>
      <trkpt lat="43.48137" lon="5.75278">
        <ele>308.72</ele>
        <time>2019-05-01T14:06:08Z</time>
      </trkpt>
      <trkpt lat="43.48108" lon="5.75348">
        <ele>311.12</ele>
        <time>2019-05-01T14:06:11Z</time>
      </trkpt>
      <trkpt lat="43.48075" lon="5.75409">
        <ele>312.57</ele>
        <time>2019-05-01T14:06:14Z</time>
      </trkpt>
      <trkpt lat="43.4803" lon="5.75479">
        <ele>315.93</ele>
        <time>2019-05-01T14:06:18Z</time>
      </trkpt>
      <trkpt lat="43.47996" lon="5.75525">
        <ele>314.01</ele>
        <time>2019-05-01T14:06:21Z</time>
      </trkpt>
      <trkpt lat="43.47945" lon="5.75582">
        <ele>317.37</ele>
        <time>2019-05-01T14:06:25Z</time>
      </trkpt>
      <trkpt lat="43.47932" lon="5.75595">
        <ele>317.37</ele>
        <time>2019-05-01T14:06:26Z</time>
      </trkpt>
      <trkpt lat="43.47824" lon="5.75692">
        <ele>320.74</ele>
        <time>2019-05-01T14:06:33Z</time>
      </trkpt>
      <trkpt lat="43.47808" lon="5.7571">
        <ele>320.74</ele>
        <time>2019-05-01T14:06:34Z</time>
      </trkpt>
      <trkpt lat="43.47708" lon="5.7588">
        <ele>322.18</ele>
        <time>2019-05-01T14:06:42Z</time>
      </trkpt>
      <trkpt lat="43.47552" lon="5.76205">
        <ele>322.18</ele>
        <time>2019-05-01T14:06:57Z</time>
      </trkpt>
      <trkpt lat="43.47459" lon="5.76398">
        <ele>326.02</ele>
        <time>2019-05-01T14:07:07Z</time>
      </trkpt>
      <trkpt lat="43.47449" lon="5.76418">
        <ele>326.02</ele>
        <time>2019-05-01T14:07:08Z</time>
      </trkpt>
      <trkpt lat="43.47408" lon="5.76506">
        <ele>329.39</ele>
        <time>2019-05-01T14:07:12Z</time>
      </trkpt>
      <trkpt lat="43.47399" lon="5.76528">
        <ele>329.39</ele>
        <time>2019-05-01T14:07:13Z</time>
      </trkpt>
      <trkpt lat="43.47352" lon="5.76644">
        <ele>332.27</ele>
        <time>2019-05-01T14:07:18Z</time>
      </trkpt>
      <trkpt lat="43.47342" lon="5.76668">
        <ele>332.75</ele>
        <time>2019-05-01T14:07:19Z</time>
      </trkpt>
      <trkpt lat="43.47305" lon="5.76761">
        <ele>336.6</ele>
        <time>2019-05-01T14:07:23Z</time>
      </trkpt>
      <trkpt lat="43.47296" lon="5.76784">
        <ele>336.6</ele>
        <time>2019-05-01T14:07:24Z</time>
      </trkpt>
      <trkpt lat="43.47257" lon="5.7688">
        <ele>339.96</ele>
        <time>2019-05-01T14:07:28Z</time>
      </trkpt>
      <trkpt lat="43.47227" lon="5.76954">
        <ele>343.81</ele>
        <time>2019-05-01T14:07:31Z</time>
      </trkpt>
      <trkpt lat="43.47218" lon="5.76978">
        <ele>343.33</ele>
        <time>2019-05-01T14:07:32Z</time>
      </trkpt>
      <trkpt lat="43.47198" lon="5.77026">
        <ele>347.17</ele>
        <time>2019-05-01T14:07:34Z</time>
      </trkpt>
      <trkpt lat="43.47159" lon="5.77123">
        <ele>353.42</ele>
        <time>2019-05-01T14:07:38Z</time>
      </trkpt>
      <trkpt lat="43.47149" lon="5.77146">
        <ele>351.5</ele>
        <time>2019-05-01T14:07:39Z</time>
      </trkpt>
      <trkpt lat="43.4712" lon="5.77224">
        <ele>354.86</ele>
        <time>2019-05-01T14:07:42Z</time>
      </trkpt>
      <trkpt lat="43.47112" lon="5.77249">
        <ele>354.86</ele>
        <time>2019-05-01T14:07:43Z</time>
      </trkpt>
      <trkpt lat="43.47095" lon="5.77304">
        <ele>357.75</ele>
        <time>2019-05-01T14:07:45Z</time>
      </trkpt>
      <trkpt lat="43.47087" lon="5.77331">
        <ele>357.75</ele>
        <time>2019-05-01T14:07:46Z</time>
      </trkpt>
      <trkpt lat="43.47079" lon="5.7736">
        <ele>361.11</ele>
        <time>2019-05-01T14:07:47Z</time>
      </trkpt>
      <trkpt lat="43.47056" lon="5.77448">
        <ele>364</ele>
        <time>2019-05-01T14:07:50Z</time>
      </trkpt>
      <trkpt lat="43.47034" lon="5.77536">
        <ele>367.36</ele>
        <time>2019-05-01T14:07:53Z</time>
      </trkpt>
      <trkpt lat="43.47012" lon="5.77622">
        <ele>368.32</ele>
        <time>2019-05-01T14:07:56Z</time>
      </trkpt>
      <trkpt lat="43.46979" lon="5.77755">
        <ele>372.17</ele>
        <time>2019-05-01T14:08:01Z</time>
      </trkpt>
      <trkpt lat="43.4696" lon="5.77831">
        <ele>377.94</ele>
        <time>2019-05-01T14:08:04Z</time>
      </trkpt>
      <trkpt lat="43.46954" lon="5.77856">
        <ele>375.53</ele>
        <time>2019-05-01T14:08:05Z</time>
      </trkpt>
      <trkpt lat="43.46934" lon="5.77936">
        <ele>377.45</ele>
        <time>2019-05-01T14:08:08Z</time>
      </trkpt>
      <trkpt lat="43.46889" lon="5.78117">
        <ele>369.76</ele>
        <time>2019-05-01T14:08:15Z</time>
      </trkpt>
      <trkpt lat="43.46882" lon="5.78144">
        <ele>369.76</ele>
        <time>2019-05-01T14:08:16Z</time>
      </trkpt>
      <trkpt lat="43.46869" lon="5.78198">
        <ele>371.69</ele>
        <time>2019-05-01T14:08:18Z</time>
      </trkpt>
      <trkpt lat="43.46829" lon="5.78356">
        <ele>370.73</ele>
        <time>2019-05-01T14:08:24Z</time>
      </trkpt>
      <trkpt lat="43.46796" lon="5.78489">
        <ele>369.28</ele>
        <time>2019-05-01T14:08:29Z</time>
      </trkpt>
      <trkpt lat="43.46782" lon="5.78542">
        <ele>367.36</ele>
        <time>2019-05-01T14:08:31Z</time>
      </trkpt>
      <trkpt lat="43.46764" lon="5.78626">
        <ele>369.76</ele>
        <time>2019-05-01T14:08:34Z</time>
      </trkpt>
      <trkpt lat="43.46745" lon="5.78738">
        <ele>373.13</ele>
        <time>2019-05-01T14:08:38Z</time>
      </trkpt>
      <trkpt lat="43.46718" lon="5.78905">
        <ele>375.05</ele>
        <time>2019-05-01T14:08:44Z</time>
      </trkpt>
      <trkpt lat="43.46704" lon="5.78988">
        <ele>376.49</ele>
        <time>2019-05-01T14:08:47Z</time>
      </trkpt>
      <trkpt lat="43.46673" lon="5.79175">
        <ele>379.86</ele>
        <time>2019-05-01T14:08:54Z</time>
      </trkpt>
      <trkpt lat="43.46669" lon="5.79197">
        <ele>379.86</ele>
        <time>2019-05-01T14:08:55Z</time>
      </trkpt>
      <trkpt lat="43.4664" lon="5.79366">
        <ele>378.42</ele>
        <time>2019-05-01T14:09:03Z</time>
      </trkpt>
      <trkpt lat="43.46623" lon="5.79461">
        <ele>376.49</ele>
        <time>2019-05-01T14:09:10Z</time>
      </trkpt>
      <trkpt lat="43.46618" lon="5.79478">
        <ele>376.01</ele>
        <time>2019-05-01T14:09:12Z</time>
      </trkpt>
      <trkpt lat="43.46609" lon="5.79499">
        <ele>375.53</ele>
        <time>2019-05-01T14:09:15Z</time>
      </trkpt>
      <trkpt lat="43.46607" lon="5.79509">
        <ele>375.53</ele>
        <time>2019-05-01T14:09:16Z</time>
      </trkpt>
      <trkpt lat="43.46574" lon="5.79623">
        <ele>372.17</ele>
        <time>2019-05-01T14:09:24Z</time>
      </trkpt>
      <trkpt lat="43.46569" lon="5.79637">
        <ele>372.17</ele>
        <time>2019-05-01T14:09:25Z</time>
      </trkpt>
      <trkpt lat="43.46502" lon="5.79821">
        <ele>372.17</ele>
        <time>2019-05-01T14:09:34Z</time>
      </trkpt>
      <trkpt lat="43.46477" lon="5.79891">
        <ele>369.28</ele>
        <time>2019-05-01T14:09:37Z</time>
      </trkpt>
      <trkpt lat="43.46425" lon="5.80032">
        <ele>370.24</ele>
        <time>2019-05-01T14:09:43Z</time>
      </trkpt>
      <trkpt lat="43.46407" lon="5.80079">
        <ele>374.09</ele>
        <time>2019-05-01T14:09:45Z</time>
      </trkpt>
      <trkpt lat="43.4639" lon="5.80127">
        <ele>376.97</ele>
        <time>2019-05-01T14:09:47Z</time>
      </trkpt>
      <trkpt lat="43.46363" lon="5.80199">
        <ele>379.86</ele>
        <time>2019-05-01T14:09:50Z</time>
      </trkpt>
      <trkpt lat="43.46346" lon="5.80248">
        <ele>381.78</ele>
        <time>2019-05-01T14:09:52Z</time>
      </trkpt>
      <trkpt lat="43.46328" lon="5.80298">
        <ele>383.7</ele>
        <time>2019-05-01T14:09:54Z</time>
      </trkpt>
      <trkpt lat="43.463" lon="5.80373">
        <ele>387.55</ele>
        <time>2019-05-01T14:09:57Z</time>
      </trkpt>
      <trkpt lat="43.46291" lon="5.804">
        <ele>387.55</ele>
        <time>2019-05-01T14:09:58Z</time>
      </trkpt>
      <trkpt lat="43.4626" lon="5.80507">
        <ele>390.43</ele>
        <time>2019-05-01T14:10:02Z</time>
      </trkpt>
      <trkpt lat="43.46256" lon="5.80536">
        <ele>391.87</ele>
        <time>2019-05-01T14:10:03Z</time>
      </trkpt>
      <trkpt lat="43.46254" lon="5.80564">
        <ele>391.87</ele>
        <time>2019-05-01T14:10:04Z</time>
      </trkpt>
      <trkpt lat="43.46253" lon="5.80593">
        <ele>392.36</ele>
        <time>2019-05-01T14:10:05Z</time>
      </trkpt>
      <trkpt lat="43.46253" lon="5.80623">
        <ele>392.84</ele>
        <time>2019-05-01T14:10:06Z</time>
      </trkpt>
      <trkpt lat="43.46255" lon="5.8065">
        <ele>392.84</ele>
        <time>2019-05-01T14:10:07Z</time>
      </trkpt>
      <trkpt lat="43.46259" lon="5.80678">
        <ele>392.84</ele>
        <time>2019-05-01T14:10:08Z</time>
      </trkpt>
      <trkpt lat="43.46264" lon="5.80705">
        <ele>392.84</ele>
        <time>2019-05-01T14:10:09Z</time>
      </trkpt>
      <trkpt lat="43.46271" lon="5.80732">
        <ele>392.84</ele>
        <time>2019-05-01T14:10:10Z</time>
      </trkpt>
      <trkpt lat="43.46326" lon="5.809">
        <ele>390.91</ele>
        <time>2019-05-01T14:10:17Z</time>
      </trkpt>
      <trkpt lat="43.46373" lon="5.81042">
        <ele>392.84</ele>
        <time>2019-05-01T14:10:23Z</time>
      </trkpt>
      <trkpt lat="43.46409" lon="5.81136">
        <ele>396.2</ele>
        <time>2019-05-01T14:10:27Z</time>
      </trkpt>
      <trkpt lat="43.4643" lon="5.81179">
        <ele>398.12</ele>
        <time>2019-05-01T14:10:29Z</time>
      </trkpt>
      <trkpt lat="43.46454" lon="5.81222">
        <ele>401.49</ele>
        <time>2019-05-01T14:10:31Z</time>
      </trkpt>
      <trkpt lat="43.4649" lon="5.81282">
        <ele>404.85</ele>
        <time>2019-05-01T14:10:34Z</time>
      </trkpt>
      <trkpt lat="43.46503" lon="5.81303">
        <ele>404.85</ele>
        <time>2019-05-01T14:10:35Z</time>
      </trkpt>
      <trkpt lat="43.4655" lon="5.81384">
        <ele>407.26</ele>
        <time>2019-05-01T14:10:39Z</time>
      </trkpt>
      <trkpt lat="43.46627" lon="5.81531">
        <ele>407.26</ele>
        <time>2019-05-01T14:10:46Z</time>
      </trkpt>
      <trkpt lat="43.46677" lon="5.81675">
        <ele>402.93</ele>
        <time>2019-05-01T14:10:52Z</time>
      </trkpt>
      <trkpt lat="43.46693" lon="5.81752">
        <ele>401.01</ele>
        <time>2019-05-01T14:10:55Z</time>
      </trkpt>
      <trkpt lat="43.467" lon="5.81806">
        <ele>398.12</ele>
        <time>2019-05-01T14:10:57Z</time>
      </trkpt>
      <trkpt lat="43.46702" lon="5.81862">
        <ele>395.24</ele>
        <time>2019-05-01T14:10:59Z</time>
      </trkpt>
      <trkpt lat="43.46698" lon="5.81948">
        <ele>392.36</ele>
        <time>2019-05-01T14:11:02Z</time>
      </trkpt>
      <trkpt lat="43.46689" lon="5.82005">
        <ele>389.95</ele>
        <time>2019-05-01T14:11:04Z</time>
      </trkpt>
      <trkpt lat="43.46674" lon="5.82064">
        <ele>384.66</ele>
        <time>2019-05-01T14:11:06Z</time>
      </trkpt>
      <trkpt lat="43.46666" lon="5.82089">
        <ele>384.66</ele>
        <time>2019-05-01T14:11:07Z</time>
      </trkpt>
      <trkpt lat="43.46633" lon="5.82169">
        <ele>380.82</ele>
        <time>2019-05-01T14:11:10Z</time>
      </trkpt>
      <trkpt lat="43.46606" lon="5.82219">
        <ele>378.42</ele>
        <time>2019-05-01T14:11:12Z</time>
      </trkpt>
      <trkpt lat="43.46592" lon="5.82244">
        <ele>375.05</ele>
        <time>2019-05-01T14:11:13Z</time>
      </trkpt>
      <trkpt lat="43.46528" lon="5.82333">
        <ele>369.76</ele>
        <time>2019-05-01T14:11:17Z</time>
      </trkpt>
      <trkpt lat="43.46495" lon="5.82374">
        <ele>368.8</ele>
        <time>2019-05-01T14:11:19Z</time>
      </trkpt>
      <trkpt lat="43.4646" lon="5.82414">
        <ele>364</ele>
        <time>2019-05-01T14:11:21Z</time>
      </trkpt>
      <trkpt lat="43.46442" lon="5.82433">
        <ele>364.48</ele>
        <time>2019-05-01T14:11:22Z</time>
      </trkpt>
      <trkpt lat="43.46406" lon="5.82473">
        <ele>361.59</ele>
        <time>2019-05-01T14:11:24Z</time>
      </trkpt>
      <trkpt lat="43.4637" lon="5.82513">
        <ele>359.67</ele>
        <time>2019-05-01T14:11:26Z</time>
      </trkpt>
      <trkpt lat="43.46333" lon="5.82552">
        <ele>356.31</ele>
        <time>2019-05-01T14:11:28Z</time>
      </trkpt>
      <trkpt lat="43.46283" lon="5.82605">
        <ele>351.5</ele>
        <time>2019-05-01T14:11:31Z</time>
      </trkpt>
      <trkpt lat="43.46253" lon="5.82639">
        <ele>347.65</ele>
        <time>2019-05-01T14:11:33Z</time>
      </trkpt>
      <trkpt lat="43.46238" lon="5.82657">
        <ele>347.65</ele>
        <time>2019-05-01T14:11:34Z</time>
      </trkpt>
      <trkpt lat="43.46205" lon="5.82697">
        <ele>346.21</ele>
        <time>2019-05-01T14:11:36Z</time>
      </trkpt>
      <trkpt lat="43.46177" lon="5.8273">
        <ele>342.37</ele>
        <time>2019-05-01T14:11:38Z</time>
      </trkpt>
      <trkpt lat="43.46132" lon="5.82786">
        <ele>340.92</ele>
        <time>2019-05-01T14:11:41Z</time>
      </trkpt>
      <trkpt lat="43.46088" lon="5.82846">
        <ele>338.04</ele>
        <time>2019-05-01T14:11:44Z</time>
      </trkpt>
      <trkpt lat="43.4606" lon="5.82887">
        <ele>334.2</ele>
        <time>2019-05-01T14:11:46Z</time>
      </trkpt>
      <trkpt lat="43.46046" lon="5.8291">
        <ele>334.2</ele>
        <time>2019-05-01T14:11:47Z</time>
      </trkpt>
      <trkpt lat="43.45975" lon="5.83048">
        <ele>329.87</ele>
        <time>2019-05-01T14:11:53Z</time>
      </trkpt>
      <trkpt lat="43.45929" lon="5.83219">
        <ele>326.99</ele>
        <time>2019-05-01T14:12:00Z</time>
      </trkpt>
      <trkpt lat="43.45913" lon="5.83295">
        <ele>324.58</ele>
        <time>2019-05-01T14:12:03Z</time>
      </trkpt>
      <trkpt lat="43.45902" lon="5.83348">
        <ele>322.66</ele>
        <time>2019-05-01T14:12:05Z</time>
      </trkpt>
      <trkpt lat="43.45891" lon="5.83402">
        <ele>320.74</ele>
        <time>2019-05-01T14:12:07Z</time>
      </trkpt>
      <trkpt lat="43.4588" lon="5.83457">
        <ele>316.89</ele>
        <time>2019-05-01T14:12:09Z</time>
      </trkpt>
      <trkpt lat="43.45868" lon="5.83513">
        <ele>313.05</ele>
        <time>2019-05-01T14:12:11Z</time>
      </trkpt>
      <trkpt lat="43.45837" lon="5.83655">
        <ele>309.2</ele>
        <time>2019-05-01T14:12:16Z</time>
      </trkpt>
      <trkpt lat="43.45825" lon="5.83711">
        <ele>307.28</ele>
        <time>2019-05-01T14:12:18Z</time>
      </trkpt>
      <trkpt lat="43.45807" lon="5.83791">
        <ele>303.91</ele>
        <time>2019-05-01T14:12:21Z</time>
      </trkpt>
      <trkpt lat="43.45802" lon="5.83817">
        <ele>308.24</ele>
        <time>2019-05-01T14:12:22Z</time>
      </trkpt>
      <trkpt lat="43.45796" lon="5.83843">
        <ele>312.09</ele>
        <time>2019-05-01T14:12:23Z</time>
      </trkpt>
      <trkpt lat="43.45791" lon="5.83868">
        <ele>310.64</ele>
        <time>2019-05-01T14:12:24Z</time>
      </trkpt>
      <trkpt lat="43.45769" lon="5.83968">
        <ele>307.76</ele>
        <time>2019-05-01T14:12:28Z</time>
      </trkpt>
      <trkpt lat="43.45747" lon="5.84063">
        <ele>307.28</ele>
        <time>2019-05-01T14:12:32Z</time>
      </trkpt>
      <trkpt lat="43.45737" lon="5.8411">
        <ele>308.72</ele>
        <time>2019-05-01T14:12:34Z</time>
      </trkpt>
      <trkpt lat="43.45713" lon="5.84219">
        <ele>305.84</ele>
        <time>2019-05-01T14:12:39Z</time>
      </trkpt>
      <trkpt lat="43.45617" lon="5.8465">
        <ele>303.91</ele>
        <time>2019-05-01T14:12:59Z</time>
      </trkpt>
      <trkpt lat="43.45604" lon="5.84714">
        <ele>305.36</ele>
        <time>2019-05-01T14:13:02Z</time>
      </trkpt>
      <trkpt lat="43.4558" lon="5.84814">
        <ele>300.55</ele>
        <time>2019-05-01T14:13:07Z</time>
      </trkpt>
      <trkpt lat="43.45576" lon="5.84832">
        <ele>300.55</ele>
        <time>2019-05-01T14:13:08Z</time>
      </trkpt>
      <trkpt lat="43.45562" lon="5.84879">
        <ele>299.11</ele>
        <time>2019-05-01T14:13:11Z</time>
      </trkpt>
      <trkpt lat="43.45556" lon="5.8489">
        <ele>297.67</ele>
        <time>2019-05-01T14:13:12Z</time>
      </trkpt>
      <trkpt lat="43.4555" lon="5.849">
        <ele>297.67</ele>
        <time>2019-05-01T14:13:13Z</time>
      </trkpt>
      <trkpt lat="43.45544" lon="5.84909">
        <ele>296.22</ele>
        <time>2019-05-01T14:13:14Z</time>
      </trkpt>
      <trkpt lat="43.4554" lon="5.84919">
        <ele>296.22</ele>
        <time>2019-05-01T14:13:15Z</time>
      </trkpt>
      <trkpt lat="43.45538" lon="5.84931">
        <ele>295.26</ele>
        <time>2019-05-01T14:13:16Z</time>
      </trkpt>
      <trkpt lat="43.4554" lon="5.84942">
        <ele>295.26</ele>
        <time>2019-05-01T14:13:17Z</time>
      </trkpt>
      <trkpt lat="43.45543" lon="5.84954">
        <ele>297.67</ele>
        <time>2019-05-01T14:13:18Z</time>
      </trkpt>
      <trkpt lat="43.45545" lon="5.84965">
        <ele>297.67</ele>
        <time>2019-05-01T14:13:19Z</time>
      </trkpt>
      <trkpt lat="43.45545" lon="5.84974">
        <ele>297.67</ele>
        <time>2019-05-01T14:13:20Z</time>
      </trkpt>
      <trkpt lat="43.45544" lon="5.84983">
        <ele>295.74</ele>
        <time>2019-05-01T14:13:21Z</time>
      </trkpt>
      <trkpt lat="43.45543" lon="5.84991">
        <ele>295.26</ele>
        <time>2019-05-01T14:13:22Z</time>
      </trkpt>
      <trkpt lat="43.45541" lon="5.84999">
        <ele>295.26</ele>
        <time>2019-05-01T14:13:23Z</time>
      </trkpt>
      <trkpt lat="43.45519" lon="5.851">
        <ele>294.78</ele>
        <time>2019-05-01T14:13:35Z</time>
      </trkpt>
      <trkpt lat="43.4551" lon="5.85144">
        <ele>296.7</ele>
        <time>2019-05-01T14:13:39Z</time>
      </trkpt>
      <trkpt lat="43.45491" lon="5.8523">
        <ele>295.26</ele>
        <time>2019-05-01T14:13:47Z</time>
      </trkpt>
      <trkpt lat="43.45488" lon="5.85247">
        <ele>294.78</ele>
        <time>2019-05-01T14:13:54Z</time>
      </trkpt>
      <trkpt lat="43.45488" lon="5.85249">
        <ele>294.3</ele>
        <time>2019-05-01T14:14:00Z</time>
      </trkpt>
      <trkpt lat="43.45488" lon="5.85252">
        <ele>294.3</ele>
        <time>2019-05-01T14:14:01Z</time>
      </trkpt>
      <trkpt lat="43.45487" lon="5.85256">
        <ele>294.3</ele>
        <time>2019-05-01T14:14:02Z</time>
      </trkpt>
      <trkpt lat="43.45473" lon="5.85319">
        <ele>296.22</ele>
        <time>2019-05-01T14:14:09Z</time>
      </trkpt>
      <trkpt lat="43.45463" lon="5.85365">
        <ele>297.67</ele>
        <time>2019-05-01T14:14:13Z</time>
      </trkpt>
      <trkpt lat="43.45445" lon="5.85449">
        <ele>296.22</ele>
        <time>2019-05-01T14:14:22Z</time>
      </trkpt>
      <trkpt lat="43.45441" lon="5.85473">
        <ele>297.67</ele>
        <time>2019-05-01T14:14:26Z</time>
      </trkpt>
      <trkpt lat="43.45437" lon="5.85488">
        <ele>296.22</ele>
        <time>2019-05-01T14:14:28Z</time>
      </trkpt>
      <trkpt lat="43.45433" lon="5.85506">
        <ele>297.18</ele>
        <time>2019-05-01T14:14:30Z</time>
      </trkpt>
      <trkpt lat="43.45428" lon="5.85529">
        <ele>298.63</ele>
        <time>2019-05-01T14:14:32Z</time>
      </trkpt>
      <trkpt lat="43.45417" lon="5.85576">
        <ele>300.55</ele>
        <time>2019-05-01T14:14:36Z</time>
      </trkpt>
      <trkpt lat="43.45362" lon="5.85811">
        <ele>303.91</ele>
        <time>2019-05-01T14:14:55Z</time>
      </trkpt>
      <trkpt lat="43.45359" lon="5.85822">
        <ele>303.91</ele>
        <time>2019-05-01T14:14:56Z</time>
      </trkpt>
      <trkpt lat="43.45334" lon="5.85934">
        <ele>304.88</ele>
        <time>2019-05-01T14:15:06Z</time>
      </trkpt>
      <trkpt lat="43.45315" lon="5.86008">
        <ele>308.72</ele>
        <time>2019-05-01T14:15:13Z</time>
      </trkpt>
      <trkpt lat="43.4531" lon="5.86015">
        <ele>304.88</ele>
        <time>2019-05-01T14:15:14Z</time>
      </trkpt>
      <trkpt lat="43.45304" lon="5.86019">
        <ele>303.91</ele>
        <time>2019-05-01T14:15:15Z</time>
      </trkpt>
      <trkpt lat="43.45298" lon="5.86021">
        <ele>303.43</ele>
        <time>2019-05-01T14:15:16Z</time>
      </trkpt>
      <trkpt lat="43.45293" lon="5.86022">
        <ele>303.43</ele>
        <time>2019-05-01T14:15:17Z</time>
      </trkpt>
      <trkpt lat="43.45287" lon="5.86021">
        <ele>303.43</ele>
        <time>2019-05-01T14:15:18Z</time>
      </trkpt>
      <trkpt lat="43.45256" lon="5.86019">
        <ele>304.88</ele>
        <time>2019-05-01T14:15:23Z</time>
      </trkpt>
      <trkpt lat="43.452" lon="5.86018">
        <ele>303.43</ele>
        <time>2019-05-01T14:15:32Z</time>
      </trkpt>
      <trkpt lat="43.45195" lon="5.86023">
        <ele>305.36</ele>
        <time>2019-05-01T14:15:33Z</time>
      </trkpt>
      <trkpt lat="43.45192" lon="5.86029">
        <ele>306.32</ele>
        <time>2019-05-01T14:15:34Z</time>
      </trkpt>
      <trkpt lat="43.45189" lon="5.86035">
        <ele>306.32</ele>
        <time>2019-05-01T14:15:35Z</time>
      </trkpt>
      <trkpt lat="43.45187" lon="5.86043">
        <ele>306.32</ele>
        <time>2019-05-01T14:15:36Z</time>
      </trkpt>
      <trkpt lat="43.45176" lon="5.86077">
        <ele>307.28</ele>
        <time>2019-05-01T14:15:40Z</time>
      </trkpt>
      <trkpt lat="43.45169" lon="5.86105">
        <ele>308.24</ele>
        <time>2019-05-01T14:15:43Z</time>
      </trkpt>
      <trkpt lat="43.45144" lon="5.86182">
        <ele>309.68</ele>
        <time>2019-05-01T14:15:52Z</time>
      </trkpt>
      <trkpt lat="43.45135" lon="5.862">
        <ele>309.68</ele>
        <time>2019-05-01T14:15:54Z</time>
      </trkpt>
      <trkpt lat="43.45129" lon="5.86205">
        <ele>310.16</ele>
        <time>2019-05-01T14:15:55Z</time>
      </trkpt>
      <trkpt lat="43.45121" lon="5.86206">
        <ele>310.16</ele>
        <time>2019-05-01T14:15:56Z</time>
      </trkpt>
      <trkpt lat="43.45112" lon="5.86203">
        <ele>310.64</ele>
        <time>2019-05-01T14:15:57Z</time>
      </trkpt>
      <trkpt lat="43.45106" lon="5.862">
        <ele>310.16</ele>
        <time>2019-05-01T14:15:58Z</time>
      </trkpt>
      <trkpt lat="43.45098" lon="5.86196">
        <ele>310.16</ele>
        <time>2019-05-01T14:15:59Z</time>
      </trkpt>
      <trkpt lat="43.45071" lon="5.86185">
        <ele>308.72</ele>
        <time>2019-05-01T14:16:03Z</time>
      </trkpt>
      <trkpt lat="43.45047" lon="5.86178">
        <ele>310.16</ele>
        <time>2019-05-01T14:16:08Z</time>
      </trkpt>
      <trkpt lat="43.45032" lon="5.86172">
        <ele>311.6</ele>
        <time>2019-05-01T14:16:10Z</time>
      </trkpt>
      <trkpt lat="43.45015" lon="5.86164">
        <ele>313.05</ele>
        <time>2019-05-01T14:16:12Z</time>
      </trkpt>
      <trkpt lat="43.44972" lon="5.86148">
        <ele>315.45</ele>
        <time>2019-05-01T14:16:16Z</time>
      </trkpt>
      <trkpt lat="43.44869" lon="5.8611">
        <ele>315.93</ele>
        <time>2019-05-01T14:16:26Z</time>
      </trkpt>
      <trkpt lat="43.44864" lon="5.86105">
        <ele>314.97</ele>
        <time>2019-05-01T14:16:27Z</time>
      </trkpt>
      <trkpt lat="43.44858" lon="5.86098">
        <ele>312.57</ele>
        <time>2019-05-01T14:16:28Z</time>
      </trkpt>
      <trkpt lat="43.44852" lon="5.8609">
        <ele>312.57</ele>
        <time>2019-05-01T14:16:29Z</time>
      </trkpt>
      <trkpt lat="43.44843" lon="5.86084">
        <ele>314.49</ele>
        <time>2019-05-01T14:16:30Z</time>
      </trkpt>
      <trkpt lat="43.44832" lon="5.86079">
        <ele>316.89</ele>
        <time>2019-05-01T14:16:31Z</time>
      </trkpt>
      <trkpt lat="43.44824" lon="5.86076">
        <ele>315.45</ele>
        <time>2019-05-01T14:16:32Z</time>
      </trkpt>
      <trkpt lat="43.44812" lon="5.86074">
        <ele>315.45</ele>
        <time>2019-05-01T14:16:33Z</time>
      </trkpt>
      <trkpt lat="43.44801" lon="5.86074">
        <ele>317.37</ele>
        <time>2019-05-01T14:16:34Z</time>
      </trkpt>
      <trkpt lat="43.44778" lon="5.86075">
        <ele>318.33</ele>
        <time>2019-05-01T14:16:36Z</time>
      </trkpt>
      <trkpt lat="43.44767" lon="5.86073">
        <ele>318.33</ele>
        <time>2019-05-01T14:16:37Z</time>
      </trkpt>
      <trkpt lat="43.44755" lon="5.86069">
        <ele>319.3</ele>
        <time>2019-05-01T14:16:38Z</time>
      </trkpt>
      <trkpt lat="43.44731" lon="5.86061">
        <ele>320.26</ele>
        <time>2019-05-01T14:16:40Z</time>
      </trkpt>
      <trkpt lat="43.44675" lon="5.8604">
        <ele>324.1</ele>
        <time>2019-05-01T14:16:45Z</time>
      </trkpt>
      <trkpt lat="43.44664" lon="5.86036">
        <ele>322.66</ele>
        <time>2019-05-01T14:16:46Z</time>
      </trkpt>
      <trkpt lat="43.44583" lon="5.86007">
        <ele>325.54</ele>
        <time>2019-05-01T14:16:53Z</time>
      </trkpt>
      <trkpt lat="43.44498" lon="5.85975">
        <ele>328.91</ele>
        <time>2019-05-01T14:17:00Z</time>
      </trkpt>
      <trkpt lat="43.44448" lon="5.85958">
        <ele>328.43</ele>
        <time>2019-05-01T14:17:05Z</time>
      </trkpt>
      <trkpt lat="43.44431" lon="5.85952">
        <ele>327.47</ele>
        <time>2019-05-01T14:17:07Z</time>
      </trkpt>
      <trkpt lat="43.44424" lon="5.85951">
        <ele>327.47</ele>
        <time>2019-05-01T14:17:08Z</time>
      </trkpt>
      <trkpt lat="43.44418" lon="5.85954">
        <ele>326.99</ele>
        <time>2019-05-01T14:17:09Z</time>
      </trkpt>
      <trkpt lat="43.44414" lon="5.85963">
        <ele>326.99</ele>
        <time>2019-05-01T14:17:10Z</time>
      </trkpt>
      <trkpt lat="43.44412" lon="5.85971">
        <ele>328.43</ele>
        <time>2019-05-01T14:17:11Z</time>
      </trkpt>
      <trkpt lat="43.44409" lon="5.85983">
        <ele>329.39</ele>
        <time>2019-05-01T14:17:12Z</time>
      </trkpt>
      <trkpt lat="43.44381" lon="5.86094">
        <ele>333.71</ele>
        <time>2019-05-01T14:17:19Z</time>
      </trkpt>
      <trkpt lat="43.44367" lon="5.86129">
        <ele>336.6</ele>
        <time>2019-05-01T14:17:21Z</time>
      </trkpt>
      <trkpt lat="43.44359" lon="5.86144">
        <ele>337.08</ele>
        <time>2019-05-01T14:17:22Z</time>
      </trkpt>
      <trkpt lat="43.44348" lon="5.86158">
        <ele>338.52</ele>
        <time>2019-05-01T14:17:23Z</time>
      </trkpt>
      <trkpt lat="43.44334" lon="5.86174">
        <ele>339</ele>
        <time>2019-05-01T14:17:24Z</time>
      </trkpt>
      <trkpt lat="43.44325" lon="5.86182">
        <ele>339</ele>
        <time>2019-05-01T14:17:25Z</time>
      </trkpt>
      <trkpt lat="43.44311" lon="5.86192">
        <ele>339</ele>
        <time>2019-05-01T14:17:26Z</time>
      </trkpt>
      <trkpt lat="43.44299" lon="5.86199">
        <ele>339.96</ele>
        <time>2019-05-01T14:17:27Z</time>
      </trkpt>
      <trkpt lat="43.44287" lon="5.86204">
        <ele>339.96</ele>
        <time>2019-05-01T14:17:28Z</time>
      </trkpt>
      <trkpt lat="43.44175" lon="5.86245">
        <ele>340.92</ele>
        <time>2019-05-01T14:17:36Z</time>
      </trkpt>
      <trkpt lat="43.4415" lon="5.86253">
        <ele>339.48</ele>
        <time>2019-05-01T14:17:38Z</time>
      </trkpt>
      <trkpt lat="43.44088" lon="5.86276">
        <ele>339</ele>
        <time>2019-05-01T14:17:43Z</time>
      </trkpt>
      <trkpt lat="43.44047" lon="5.86291">
        <ele>336.6</ele>
        <time>2019-05-01T14:17:49Z</time>
      </trkpt>
      <trkpt lat="43.44043" lon="5.8629">
        <ele>336.6</ele>
        <time>2019-05-01T14:17:50Z</time>
      </trkpt>
      <trkpt lat="43.44039" lon="5.86286">
        <ele>336.6</ele>
        <time>2019-05-01T14:17:51Z</time>
      </trkpt>
      <trkpt lat="43.44036" lon="5.86278">
        <ele>336.6</ele>
        <time>2019-05-01T14:17:52Z</time>
      </trkpt>
      <trkpt lat="43.44035" lon="5.86271">
        <ele>336.6</ele>
        <time>2019-05-01T14:17:53Z</time>
      </trkpt>
      <trkpt lat="43.44034" lon="5.86262">
        <ele>337.56</ele>
        <time>2019-05-01T14:17:54Z</time>
      </trkpt>
      <trkpt lat="43.44034" lon="5.86252">
        <ele>339.48</ele>
        <time>2019-05-01T14:17:55Z</time>
      </trkpt>
      <trkpt lat="43.44028" lon="5.86199">
        <ele>343.33</ele>
        <time>2019-05-01T14:18:00Z</time>
      </trkpt>
      <trkpt lat="43.44027" lon="5.8619">
        <ele>340.44</ele>
        <time>2019-05-01T14:18:01Z</time>
      </trkpt>
      <trkpt lat="43.44026" lon="5.86182">
        <ele>344.29</ele>
        <time>2019-05-01T14:18:02Z</time>
      </trkpt>
      <trkpt lat="43.44032" lon="5.86111">
        <ele>345.25</ele>
        <time>2019-05-01T14:18:12Z</time>
      </trkpt>
      <trkpt lat="43.44036" lon="5.86084">
        <ele>344.77</ele>
        <time>2019-05-01T14:18:16Z</time>
      </trkpt>
      <trkpt lat="43.44034" lon="5.86078">
        <ele>344.77</ele>
        <time>2019-05-01T14:18:17Z</time>
      </trkpt>
      <trkpt lat="43.4403" lon="5.86073">
        <ele>344.77</ele>
        <time>2019-05-01T14:18:18Z</time>
      </trkpt>
      <trkpt lat="43.4401" lon="5.86051">
        <ele>346.69</ele>
        <time>2019-05-01T14:18:22Z</time>
      </trkpt>
      <trkpt lat="43.43982" lon="5.86019">
        <ele>348.13</ele>
        <time>2019-05-01T14:18:30Z</time>
      </trkpt>
      <trkpt lat="43.4398" lon="5.86021">
        <ele>349.1</ele>
        <time>2019-05-01T14:18:31Z</time>
      </trkpt>
      <trkpt lat="43.43978" lon="5.86023">
        <ele>349.1</ele>
        <time>2019-05-01T14:18:32Z</time>
      </trkpt>
      <trkpt lat="43.43977" lon="5.86026">
        <ele>349.1</ele>
        <time>2019-05-01T14:18:33Z</time>
      </trkpt>
      <trkpt lat="43.43975" lon="5.8603">
        <ele>349.1</ele>
        <time>2019-05-01T14:18:34Z</time>
      </trkpt>
      <trkpt lat="43.43969" lon="5.86052">
        <ele>347.65</ele>
        <time>2019-05-01T14:18:39Z</time>
      </trkpt>
      <trkpt lat="43.43971" lon="5.86055">
        <ele>349.1</ele>
        <time>2019-05-01T14:18:40Z</time>
      </trkpt>
      <trkpt lat="43.43976" lon="5.86065">
        <ele>346.69</ele>
        <time>2019-05-01T14:18:44Z</time>
      </trkpt>
      <trkpt lat="43.43976" lon="5.86067">
        <ele>346.69</ele>
        <time>2019-05-01T14:18:45Z</time>
      </trkpt>
      <trkpt lat="43.43975" lon="5.86069">
        <ele>346.69</ele>
        <time>2019-05-01T14:18:46Z</time>
      </trkpt>
      <trkpt lat="43.43978" lon="5.86067">
        <ele>346.69</ele>
        <time>2019-05-01T14:19:00Z</time>
      </trkpt>
      <trkpt lat="43.43978" lon="5.86064">
        <ele>347.17</ele>
        <time>2019-05-01T14:19:18Z</time>
      </trkpt>
      <trkpt lat="43.43978" lon="5.86064">
        <ele>348.13</ele>
        <time>2019-05-01T14:19:41Z</time>
      </trkpt>
      <trkpt lat="43.4398" lon="5.86065">
        <ele>346.69</ele>
        <time>2019-05-01T14:19:45Z</time>
      </trkpt>
      <trkpt lat="43.4398" lon="5.86067">
        <ele>346.69</ele>
        <time>2019-05-01T14:19:57Z</time>
      </trkpt>
      <trkpt lat="43.43979" lon="5.86069">
        <ele>346.69</ele>
        <time>2019-05-01T14:20:09Z</time>
      </trkpt>
      <trkpt lat="43.43976" lon="5.86063">
        <ele>347.65</ele>
        <time>2019-05-01T14:20:29Z</time>
      </trkpt>
      <trkpt lat="43.43971" lon="5.86055">
        <ele>348.13</ele>
        <time>2019-05-01T14:20:41Z</time>
      </trkpt>
      <trkpt lat="43.4397" lon="5.86045">
        <ele>348.62</ele>
        <time>2019-05-01T14:20:54Z</time>
      </trkpt>
      <trkpt lat="43.4397" lon="5.86033">
        <ele>349.1</ele>
        <time>2019-05-01T14:21:08Z</time>
      </trkpt>
      <trkpt lat="43.43972" lon="5.86025">
        <ele>349.58</ele>
        <time>2019-05-01T14:21:21Z</time>
      </trkpt>
      <trkpt lat="43.43974" lon="5.86023">
        <ele>350.06</ele>
        <time>2019-05-01T14:21:40Z</time>
      </trkpt>
      <trkpt lat="43.43963" lon="5.86021">
        <ele>350.06</ele>
        <time>2019-05-01T14:21:57Z</time>
      </trkpt>
      <trkpt lat="43.43961" lon="5.8602">
        <ele>348.13</ele>
        <time>2019-05-01T14:22:03Z</time>
      </trkpt>
    </trkseg>
  </trk>
  <trk>
    <name><![CDATA[2019-05-05 10:52:16]]></name>
    <trkseg>
      <trkpt lat="43.43954" lon="5.86022">
        <ele>336.6</ele>
        <time>2019-05-01T14:22:26Z</time>
      </trkpt>
      <trkpt lat="43.43954" lon="5.86022">
        <ele>336.6</ele>
        <time>2019-05-01T14:22:27Z</time>
      </trkpt>
      <trkpt lat="43.43954" lon="5.86022">
        <ele>336.6</ele>
        <time>2019-05-01T14:22:29Z</time>
      </trkpt>
      <trkpt lat="43.43973" lon="5.86034">
        <ele>424.56</ele>
        <time>2019-05-05T07:23:33Z</time>
      </trkpt>
      <trkpt lat="43.43968" lon="5.8603">
        <ele>421.19</ele>
        <time>2019-05-05T07:23:53Z</time>
      </trkpt>
      <trkpt lat="43.43968" lon="5.8603">
        <ele>416.87</ele>
        <time>2019-05-05T07:23:55Z</time>
      </trkpt>
      <trkpt lat="43.43969" lon="5.86029">
        <ele>413.02</ele>
        <time>2019-05-05T07:23:57Z</time>
      </trkpt>
      <trkpt lat="43.43969" lon="5.86029">
        <ele>409.18</ele>
        <time>2019-05-05T07:23:59Z</time>
      </trkpt>
      <trkpt lat="43.43969" lon="5.86029">
        <ele>405.81</ele>
        <time>2019-05-05T07:24:01Z</time>
      </trkpt>
      <trkpt lat="43.4397" lon="5.8603">
        <ele>402.93</ele>
        <time>2019-05-05T07:24:03Z</time>
      </trkpt>
      <trkpt lat="43.4397" lon="5.86029">
        <ele>398.12</ele>
        <time>2019-05-05T07:24:06Z</time>
      </trkpt>
      <trkpt lat="43.4397" lon="5.86029">
        <ele>394.28</ele>
        <time>2019-05-05T07:24:09Z</time>
      </trkpt>
      <trkpt lat="43.43971" lon="5.86029">
        <ele>390.91</ele>
        <time>2019-05-05T07:24:11Z</time>
      </trkpt>
      <trkpt lat="43.43971" lon="5.86029">
        <ele>386.11</ele>
        <time>2019-05-05T07:24:14Z</time>
      </trkpt>
      <trkpt lat="43.43971" lon="5.86029">
        <ele>386.11</ele>
        <time>2019-05-05T07:24:15Z</time>
      </trkpt>
      <trkpt lat="43.43971" lon="5.86029">
        <ele>383.22</ele>
        <time>2019-05-05T07:24:18Z</time>
      </trkpt>
      <trkpt lat="43.43971" lon="5.86029">
        <ele>379.38</ele>
        <time>2019-05-05T07:24:22Z</time>
      </trkpt>
      <trkpt lat="43.43971" lon="5.86029">
        <ele>376.49</ele>
        <time>2019-05-05T07:24:26Z</time>
      </trkpt>
      <trkpt lat="43.43971" lon="5.86029">
        <ele>372.65</ele>
        <time>2019-05-05T07:24:31Z</time>
      </trkpt>
      <trkpt lat="43.43971" lon="5.86029">
        <ele>369.76</ele>
        <time>2019-05-05T07:24:36Z</time>
      </trkpt>
      <trkpt lat="43.43971" lon="5.86028">
        <ele>367.36</ele>
        <time>2019-05-05T07:24:40Z</time>
      </trkpt>
      <trkpt lat="43.43971" lon="5.86028">
        <ele>364</ele>
        <time>2019-05-05T07:24:50Z</time>
      </trkpt>
      <trkpt lat="43.43971" lon="5.86028">
        <ele>361.11</ele>
        <time>2019-05-05T07:24:59Z</time>
      </trkpt>
      <trkpt lat="43.43971" lon="5.86027">
        <ele>358.23</ele>
        <time>2019-05-05T07:25:04Z</time>
      </trkpt>
      <trkpt lat="43.4397" lon="5.86027">
        <ele>355.34</ele>
        <time>2019-05-05T07:25:09Z</time>
      </trkpt>
      <trkpt lat="43.43969" lon="5.86028">
        <ele>351.98</ele>
        <time>2019-05-05T07:25:29Z</time>
      </trkpt>
      <trkpt lat="43.43968" lon="5.86028">
        <ele>350.54</ele>
        <time>2019-05-05T07:25:41Z</time>
      </trkpt>
      <trkpt lat="43.43967" lon="5.86029">
        <ele>348.13</ele>
        <time>2019-05-05T07:25:58Z</time>
      </trkpt>
      <trkpt lat="43.43967" lon="5.86029">
        <ele>350.54</ele>
        <time>2019-05-05T07:26:00Z</time>
      </trkpt>
      <trkpt lat="43.43969" lon="5.86028">
        <ele>350.06</ele>
        <time>2019-05-05T07:26:30Z</time>
      </trkpt>
      <trkpt lat="43.43969" lon="5.86027">
        <ele>348.62</ele>
        <time>2019-05-05T07:26:36Z</time>
      </trkpt>
      <trkpt lat="43.4397" lon="5.86027">
        <ele>349.58</ele>
        <time>2019-05-05T07:26:42Z</time>
      </trkpt>
      <trkpt lat="43.4397" lon="5.86027">
        <ele>349.58</ele>
        <time>2019-05-05T07:26:53Z</time>
      </trkpt>
      <trkpt lat="43.43974" lon="5.86024">
        <ele>349.58</ele>
        <time>2019-05-05T07:26:56Z</time>
      </trkpt>
      <trkpt lat="43.43975" lon="5.86022">
        <ele>350.06</ele>
        <time>2019-05-05T07:26:57Z</time>
      </trkpt>
      <trkpt lat="43.43977" lon="5.86021">
        <ele>350.06</ele>
        <time>2019-05-05T07:26:58Z</time>
      </trkpt>
      <trkpt lat="43.4398" lon="5.86023">
        <ele>350.06</ele>
        <time>2019-05-05T07:26:59Z</time>
      </trkpt>
      <trkpt lat="43.43983" lon="5.86026">
        <ele>350.06</ele>
        <time>2019-05-05T07:27:00Z</time>
      </trkpt>
      <trkpt lat="43.43986" lon="5.86029">
        <ele>350.06</ele>
        <time>2019-05-05T07:27:01Z</time>
      </trkpt>
      <trkpt lat="43.43993" lon="5.86038">
        <ele>347.65</ele>
        <time>2019-05-05T07:27:03Z</time>
      </trkpt>
      <trkpt lat="43.44018" lon="5.86071">
        <ele>345.25</ele>
        <time>2019-05-05T07:27:10Z</time>
      </trkpt>
      <trkpt lat="43.44021" lon="5.86076">
        <ele>344.29</ele>
        <time>2019-05-05T07:27:11Z</time>
      </trkpt>
      <trkpt lat="43.44023" lon="5.86082">
        <ele>344.29</ele>
        <time>2019-05-05T07:27:12Z</time>
      </trkpt>
      <trkpt lat="43.44024" lon="5.86088">
        <ele>344.29</ele>
        <time>2019-05-05T07:27:13Z</time>
      </trkpt>
      <trkpt lat="43.44025" lon="5.86095">
        <ele>344.29</ele>
        <time>2019-05-05T07:27:14Z</time>
      </trkpt>
      <trkpt lat="43.44025" lon="5.86102">
        <ele>344.29</ele>
        <time>2019-05-05T07:27:15Z</time>
      </trkpt>
      <trkpt lat="43.44025" lon="5.86109">
        <ele>344.29</ele>
        <time>2019-05-05T07:27:16Z</time>
      </trkpt>
      <trkpt lat="43.44027" lon="5.86178">
        <ele>343.33</ele>
        <time>2019-05-05T07:27:26Z</time>
      </trkpt>
      <trkpt lat="43.44028" lon="5.86184">
        <ele>342.85</ele>
        <time>2019-05-05T07:27:27Z</time>
      </trkpt>
      <trkpt lat="43.44038" lon="5.86248">
        <ele>340.44</ele>
        <time>2019-05-05T07:27:34Z</time>
      </trkpt>
      <trkpt lat="43.44043" lon="5.86276">
        <ele>337.56</ele>
        <time>2019-05-05T07:27:38Z</time>
      </trkpt>
      <trkpt lat="43.44046" lon="5.8629">
        <ele>336.6</ele>
        <time>2019-05-05T07:27:42Z</time>
      </trkpt>
      <trkpt lat="43.4405" lon="5.86293">
        <ele>336.12</ele>
        <time>2019-05-05T07:27:43Z</time>
      </trkpt>
      <trkpt lat="43.44054" lon="5.86292">
        <ele>336.12</ele>
        <time>2019-05-05T07:27:44Z</time>
      </trkpt>
      <trkpt lat="43.44056" lon="5.86293">
        <ele>337.56</ele>
        <time>2019-05-05T07:27:45Z</time>
      </trkpt>
      <trkpt lat="43.4406" lon="5.86291">
        <ele>337.56</ele>
        <time>2019-05-05T07:27:46Z</time>
      </trkpt>
      <trkpt lat="43.44063" lon="5.8629">
        <ele>337.56</ele>
        <time>2019-05-05T07:27:47Z</time>
      </trkpt>
      <trkpt lat="43.44067" lon="5.86288">
        <ele>337.56</ele>
        <time>2019-05-05T07:27:48Z</time>
      </trkpt>
      <trkpt lat="43.44137" lon="5.86261">
        <ele>334.68</ele>
        <time>2019-05-05T07:28:02Z</time>
      </trkpt>
      <trkpt lat="43.44232" lon="5.86226">
        <ele>336.6</ele>
        <time>2019-05-05T07:28:18Z</time>
      </trkpt>
      <trkpt lat="43.44242" lon="5.86223">
        <ele>335.16</ele>
        <time>2019-05-05T07:28:20Z</time>
      </trkpt>
      <trkpt lat="43.44304" lon="5.86198">
        <ele>336.6</ele>
        <time>2019-05-05T07:28:32Z</time>
      </trkpt>
      <trkpt lat="43.44328" lon="5.86183">
        <ele>335.16</ele>
        <time>2019-05-05T07:28:37Z</time>
      </trkpt>
      <trkpt lat="43.44341" lon="5.8617">
        <ele>335.16</ele>
        <time>2019-05-05T07:28:40Z</time>
      </trkpt>
      <trkpt lat="43.44363" lon="5.86144">
        <ele>333.71</ele>
        <time>2019-05-05T07:28:45Z</time>
      </trkpt>
      <trkpt lat="43.44381" lon="5.86107">
        <ele>330.83</ele>
        <time>2019-05-05T07:28:51Z</time>
      </trkpt>
      <trkpt lat="43.44408" lon="5.86009">
        <ele>327.47</ele>
        <time>2019-05-05T07:29:03Z</time>
      </trkpt>
      <trkpt lat="43.4442" lon="5.85972">
        <ele>328.43</ele>
        <time>2019-05-05T07:29:08Z</time>
      </trkpt>
      <trkpt lat="43.44423" lon="5.85966">
        <ele>326.99</ele>
        <time>2019-05-05T07:29:09Z</time>
      </trkpt>
      <trkpt lat="43.44427" lon="5.8596">
        <ele>326.99</ele>
        <time>2019-05-05T07:29:10Z</time>
      </trkpt>
      <trkpt lat="43.44432" lon="5.85957">
        <ele>326.99</ele>
        <time>2019-05-05T07:29:11Z</time>
      </trkpt>
      <trkpt lat="43.44437" lon="5.85956">
        <ele>327.47</ele>
        <time>2019-05-05T07:29:12Z</time>
      </trkpt>
      <trkpt lat="43.44443" lon="5.85958">
        <ele>326.5</ele>
        <time>2019-05-05T07:29:13Z</time>
      </trkpt>
      <trkpt lat="43.44448" lon="5.8596">
        <ele>326.02</ele>
        <time>2019-05-05T07:29:14Z</time>
      </trkpt>
      <trkpt lat="43.44454" lon="5.85962">
        <ele>326.02</ele>
        <time>2019-05-05T07:29:15Z</time>
      </trkpt>
      <trkpt lat="43.44542" lon="5.85994">
        <ele>323.14</ele>
        <time>2019-05-05T07:29:29Z</time>
      </trkpt>
      <trkpt lat="43.44612" lon="5.86018">
        <ele>319.78</ele>
        <time>2019-05-05T07:29:40Z</time>
      </trkpt>
      <trkpt lat="43.44618" lon="5.8602">
        <ele>319.78</ele>
        <time>2019-05-05T07:29:41Z</time>
      </trkpt>
      <trkpt lat="43.44641" lon="5.86025">
        <ele>319.78</ele>
        <time>2019-05-05T07:29:45Z</time>
      </trkpt>
      <trkpt lat="43.44646" lon="5.86022">
        <ele>319.78</ele>
        <time>2019-05-05T07:29:46Z</time>
      </trkpt>
      <trkpt lat="43.44651" lon="5.86017">
        <ele>319.78</ele>
        <time>2019-05-05T07:29:47Z</time>
      </trkpt>
      <trkpt lat="43.44654" lon="5.86014">
        <ele>319.78</ele>
        <time>2019-05-05T07:29:48Z</time>
      </trkpt>
      <trkpt lat="43.44656" lon="5.86009">
        <ele>319.78</ele>
        <time>2019-05-05T07:29:49Z</time>
      </trkpt>
      <trkpt lat="43.44658" lon="5.86004">
        <ele>319.78</ele>
        <time>2019-05-05T07:29:50Z</time>
      </trkpt>
      <trkpt lat="43.4466" lon="5.86">
        <ele>319.78</ele>
        <time>2019-05-05T07:29:51Z</time>
      </trkpt>
      <trkpt lat="43.44667" lon="5.8597">
        <ele>319.78</ele>
        <time>2019-05-05T07:30:03Z</time>
      </trkpt>
      <trkpt lat="43.44664" lon="5.8597">
        <ele>320.74</ele>
        <time>2019-05-05T07:30:08Z</time>
      </trkpt>
      <trkpt lat="43.44663" lon="5.85972">
        <ele>320.74</ele>
        <time>2019-05-05T07:30:10Z</time>
      </trkpt>
      <trkpt lat="43.44661" lon="5.85976">
        <ele>319.78</ele>
        <time>2019-05-05T07:30:12Z</time>
      </trkpt>
      <trkpt lat="43.44659" lon="5.85982">
        <ele>319.78</ele>
        <time>2019-05-05T07:30:28Z</time>
      </trkpt>
      <trkpt lat="43.44656" lon="5.85979">
        <ele>319.78</ele>
        <time>2019-05-05T07:30:59Z</time>
      </trkpt>
      <trkpt lat="43.44657" lon="5.85984">
        <ele>318.81</ele>
        <time>2019-05-05T07:31:32Z</time>
      </trkpt>
      <trkpt lat="43.44653" lon="5.85991">
        <ele>318.33</ele>
        <time>2019-05-05T07:31:55Z</time>
      </trkpt>
      <trkpt lat="43.44653" lon="5.85996">
        <ele>319.3</ele>
        <time>2019-05-05T07:32:01Z</time>
      </trkpt>
      <trkpt lat="43.44653" lon="5.85995">
        <ele>319.3</ele>
        <time>2019-05-05T07:32:02Z</time>
      </trkpt>
      <trkpt lat="43.44658" lon="5.85983">
        <ele>319.3</ele>
        <time>2019-05-05T07:32:16Z</time>
      </trkpt>
      <trkpt lat="43.44658" lon="5.85982">
        <ele>319.3</ele>
        <time>2019-05-05T07:32:17Z</time>
      </trkpt>
      <trkpt lat="43.44657" lon="5.85979">
        <ele>319.3</ele>
        <time>2019-05-05T07:32:18Z</time>
      </trkpt>
      <trkpt lat="43.44644" lon="5.85957">
        <ele>319.3</ele>
        <time>2019-05-05T07:32:28Z</time>
      </trkpt>
      <trkpt lat="43.44632" lon="5.85941">
        <ele>319.3</ele>
        <time>2019-05-05T07:32:41Z</time>
      </trkpt>
      <trkpt lat="43.44626" lon="5.85935">
        <ele>318.81</ele>
        <time>2019-05-05T07:32:54Z</time>
      </trkpt>
      <trkpt lat="43.44626" lon="5.85938">
        <ele>319.78</ele>
        <time>2019-05-05T07:33:07Z</time>
      </trkpt>
      <trkpt lat="43.44626" lon="5.85939">
        <ele>319.78</ele>
        <time>2019-05-05T07:33:08Z</time>
      </trkpt>
      <trkpt lat="43.44627" lon="5.85941">
        <ele>318.81</ele>
        <time>2019-05-05T07:33:37Z</time>
      </trkpt>
      <trkpt lat="43.44627" lon="5.8594">
        <ele>320.26</ele>
        <time>2019-05-05T07:33:41Z</time>
      </trkpt>
      <trkpt lat="43.44628" lon="5.85939">
        <ele>317.85</ele>
        <time>2019-05-05T07:33:53Z</time>
      </trkpt>
      <trkpt lat="43.44628" lon="5.85939">
        <ele>321.22</ele>
        <time>2019-05-05T07:33:54Z</time>
      </trkpt>
      <trkpt lat="43.44628" lon="5.85938">
        <ele>320.74</ele>
        <time>2019-05-05T07:33:59Z</time>
      </trkpt>
      <trkpt lat="43.44629" lon="5.85939">
        <ele>319.3</ele>
        <time>2019-05-05T07:34:03Z</time>
      </trkpt>
      <trkpt lat="43.44628" lon="5.85938">
        <ele>318.81</ele>
        <time>2019-05-05T07:34:37Z</time>
      </trkpt>
      <trkpt lat="43.44627" lon="5.85937">
        <ele>316.89</ele>
        <time>2019-05-05T07:34:47Z</time>
      </trkpt>
      <trkpt lat="43.44627" lon="5.85937">
        <ele>321.22</ele>
        <time>2019-05-05T07:34:51Z</time>
      </trkpt>
      <trkpt lat="43.44629" lon="5.85941">
        <ele>318.33</ele>
        <time>2019-05-05T07:35:04Z</time>
      </trkpt>
      <trkpt lat="43.4463" lon="5.85943">
        <ele>320.74</ele>
        <time>2019-05-05T07:35:19Z</time>
      </trkpt>
      <trkpt lat="43.44631" lon="5.85945">
        <ele>319.3</ele>
        <time>2019-05-05T07:35:21Z</time>
      </trkpt>
      <trkpt lat="43.44633" lon="5.85946">
        <ele>319.3</ele>
        <time>2019-05-05T07:35:22Z</time>
      </trkpt>
      <trkpt lat="43.4465" lon="5.85966">
        <ele>319.78</ele>
        <time>2019-05-05T07:35:33Z</time>
      </trkpt>
      <trkpt lat="43.44666" lon="5.85972">
        <ele>321.22</ele>
        <time>2019-05-05T07:35:42Z</time>
      </trkpt>
      <trkpt lat="43.44668" lon="5.85969">
        <ele>322.18</ele>
        <time>2019-05-05T07:35:44Z</time>
      </trkpt>
      <trkpt lat="43.4467" lon="5.85967">
        <ele>322.18</ele>
        <time>2019-05-05T07:35:45Z</time>
      </trkpt>
      <trkpt lat="43.44672" lon="5.85965">
        <ele>320.74</ele>
        <time>2019-05-05T07:35:46Z</time>
      </trkpt>
      <trkpt lat="43.44674" lon="5.85962">
        <ele>320.74</ele>
        <time>2019-05-05T07:35:47Z</time>
      </trkpt>
      <trkpt lat="43.44697" lon="5.85921">
        <ele>323.14</ele>
        <time>2019-05-05T07:36:01Z</time>
      </trkpt>
      <trkpt lat="43.44708" lon="5.85902">
        <ele>325.54</ele>
        <time>2019-05-05T07:36:07Z</time>
      </trkpt>
      <trkpt lat="43.44735" lon="5.8585">
        <ele>326.99</ele>
        <time>2019-05-05T07:36:22Z</time>
      </trkpt>
      <trkpt lat="43.44767" lon="5.85782">
        <ele>327.95</ele>
        <time>2019-05-05T07:36:40Z</time>
      </trkpt>
      <trkpt lat="43.44803" lon="5.85707">
        <ele>329.39</ele>
        <time>2019-05-05T07:37:00Z</time>
      </trkpt>
      <trkpt lat="43.44812" lon="5.8569">
        <ele>330.83</ele>
        <time>2019-05-05T07:37:05Z</time>
      </trkpt>
      <trkpt lat="43.44845" lon="5.85626">
        <ele>330.83</ele>
        <time>2019-05-05T07:37:23Z</time>
      </trkpt>
      <trkpt lat="43.44866" lon="5.85577">
        <ele>331.31</ele>
        <time>2019-05-05T07:37:36Z</time>
      </trkpt>
      <trkpt lat="43.44879" lon="5.85549">
        <ele>334.2</ele>
        <time>2019-05-05T07:37:44Z</time>
      </trkpt>
      <trkpt lat="43.449" lon="5.85507">
        <ele>333.23</ele>
        <time>2019-05-05T07:37:56Z</time>
      </trkpt>
      <trkpt lat="43.44927" lon="5.85455">
        <ele>333.23</ele>
        <time>2019-05-05T07:38:10Z</time>
      </trkpt>
      <trkpt lat="43.44959" lon="5.8539">
        <ele>332.75</ele>
        <time>2019-05-05T07:38:27Z</time>
      </trkpt>
      <trkpt lat="43.44976" lon="5.85341">
        <ele>331.79</ele>
        <time>2019-05-05T07:38:39Z</time>
      </trkpt>
      <trkpt lat="43.4498" lon="5.85325">
        <ele>333.23</ele>
        <time>2019-05-05T07:38:42Z</time>
      </trkpt>
      <trkpt lat="43.44985" lon="5.85313">
        <ele>329.87</ele>
        <time>2019-05-05T07:38:44Z</time>
      </trkpt>
      <trkpt lat="43.44989" lon="5.85295">
        <ele>331.79</ele>
        <time>2019-05-05T07:38:47Z</time>
      </trkpt>
      <trkpt lat="43.44991" lon="5.85289">
        <ele>331.79</ele>
        <time>2019-05-05T07:38:48Z</time>
      </trkpt>
      <trkpt lat="43.45004" lon="5.8525">
        <ele>331.79</ele>
        <time>2019-05-05T07:38:59Z</time>
      </trkpt>
      <trkpt lat="43.45006" lon="5.85249">
        <ele>333.23</ele>
        <time>2019-05-05T07:39:14Z</time>
      </trkpt>
      <trkpt lat="43.45005" lon="5.8525">
        <ele>331.79</ele>
        <time>2019-05-05T07:39:18Z</time>
      </trkpt>
      <trkpt lat="43.45006" lon="5.85249">
        <ele>333.23</ele>
        <time>2019-05-05T07:39:27Z</time>
      </trkpt>
      <trkpt lat="43.45007" lon="5.85248">
        <ele>333.23</ele>
        <time>2019-05-05T07:39:28Z</time>
      </trkpt>
      <trkpt lat="43.45007" lon="5.85246">
        <ele>333.23</ele>
        <time>2019-05-05T07:39:29Z</time>
      </trkpt>
      <trkpt lat="43.45022" lon="5.85195">
        <ele>335.64</ele>
        <time>2019-05-05T07:39:44Z</time>
      </trkpt>
      <trkpt lat="43.45029" lon="5.85156">
        <ele>338.04</ele>
        <time>2019-05-05T07:39:54Z</time>
      </trkpt>
      <trkpt lat="43.45029" lon="5.85138">
        <ele>338.04</ele>
        <time>2019-05-05T07:39:59Z</time>
      </trkpt>
      <trkpt lat="43.45023" lon="5.85085">
        <ele>341.41</ele>
        <time>2019-05-05T07:40:18Z</time>
      </trkpt>
      <trkpt lat="43.45022" lon="5.8508">
        <ele>342.37</ele>
        <time>2019-05-05T07:40:20Z</time>
      </trkpt>
      <trkpt lat="43.45022" lon="5.85063">
        <ele>344.29</ele>
        <time>2019-05-05T07:40:27Z</time>
      </trkpt>
      <trkpt lat="43.45022" lon="5.85051">
        <ele>345.73</ele>
        <time>2019-05-05T07:40:32Z</time>
      </trkpt>
      <trkpt lat="43.45021" lon="5.85018">
        <ele>349.1</ele>
        <time>2019-05-05T07:40:46Z</time>
      </trkpt>
      <trkpt lat="43.45021" lon="5.84983">
        <ele>351.98</ele>
        <time>2019-05-05T07:41:02Z</time>
      </trkpt>
      <trkpt lat="43.45022" lon="5.84972">
        <ele>352.94</ele>
        <time>2019-05-05T07:41:21Z</time>
      </trkpt>
      <trkpt lat="43.45024" lon="5.84957">
        <ele>355.83</ele>
        <time>2019-05-05T07:41:31Z</time>
      </trkpt>
      <trkpt lat="43.45027" lon="5.84947">
        <ele>356.79</ele>
        <time>2019-05-05T07:41:39Z</time>
      </trkpt>
      <trkpt lat="43.45028" lon="5.84941">
        <ele>358.23</ele>
        <time>2019-05-05T07:41:44Z</time>
      </trkpt>
      <trkpt lat="43.45031" lon="5.84926">
        <ele>360.15</ele>
        <time>2019-05-05T07:41:56Z</time>
      </trkpt>
      <trkpt lat="43.45034" lon="5.84901">
        <ele>362.07</ele>
        <time>2019-05-05T07:42:15Z</time>
      </trkpt>
      <trkpt lat="43.45037" lon="5.84889">
        <ele>363.52</ele>
        <time>2019-05-05T07:42:31Z</time>
      </trkpt>
      <trkpt lat="43.4504" lon="5.84863">
        <ele>366.88</ele>
        <time>2019-05-05T07:42:50Z</time>
      </trkpt>
      <trkpt lat="43.45041" lon="5.84837">
        <ele>368.8</ele>
        <time>2019-05-05T07:43:10Z</time>
      </trkpt>
      <trkpt lat="43.4504" lon="5.84814">
        <ele>371.21</ele>
        <time>2019-05-05T07:43:28Z</time>
      </trkpt>
      <trkpt lat="43.4504" lon="5.84792">
        <ele>374.57</ele>
        <time>2019-05-05T07:43:46Z</time>
      </trkpt>
      <trkpt lat="43.4504" lon="5.84788">
        <ele>376.01</ele>
        <time>2019-05-05T07:43:49Z</time>
      </trkpt>
      <trkpt lat="43.45041" lon="5.84781">
        <ele>377.45</ele>
        <time>2019-05-05T07:43:55Z</time>
      </trkpt>
      <trkpt lat="43.45042" lon="5.84771">
        <ele>377.94</ele>
        <time>2019-05-05T07:44:03Z</time>
      </trkpt>
      <trkpt lat="43.45045" lon="5.84754">
        <ele>378.9</ele>
        <time>2019-05-05T07:44:19Z</time>
      </trkpt>
      <trkpt lat="43.45048" lon="5.84731">
        <ele>379.86</ele>
        <time>2019-05-05T07:44:33Z</time>
      </trkpt>
      <trkpt lat="43.45049" lon="5.84699">
        <ele>384.66</ele>
        <time>2019-05-05T07:44:47Z</time>
      </trkpt>
      <trkpt lat="43.45049" lon="5.8466">
        <ele>384.66</ele>
        <time>2019-05-05T07:45:05Z</time>
      </trkpt>
      <trkpt lat="43.45048" lon="5.84618">
        <ele>387.55</ele>
        <time>2019-05-05T07:45:23Z</time>
      </trkpt>
      <trkpt lat="43.45049" lon="5.846">
        <ele>388.51</ele>
        <time>2019-05-05T07:45:36Z</time>
      </trkpt>
      <trkpt lat="43.45049" lon="5.84594">
        <ele>389.47</ele>
        <time>2019-05-05T07:45:51Z</time>
      </trkpt>
      <trkpt lat="43.45048" lon="5.84595">
        <ele>389.47</ele>
        <time>2019-05-05T07:46:10Z</time>
      </trkpt>
      <trkpt lat="43.45047" lon="5.84592">
        <ele>387.07</ele>
        <time>2019-05-05T07:46:25Z</time>
      </trkpt>
      <trkpt lat="43.45048" lon="5.84592">
        <ele>388.03</ele>
        <time>2019-05-05T07:46:39Z</time>
      </trkpt>
      <trkpt lat="43.45047" lon="5.8459">
        <ele>388.03</ele>
        <time>2019-05-05T07:46:47Z</time>
      </trkpt>
      <trkpt lat="43.45047" lon="5.84589">
        <ele>388.51</ele>
        <time>2019-05-05T07:46:48Z</time>
      </trkpt>
      <trkpt lat="43.45047" lon="5.84588">
        <ele>388.51</ele>
        <time>2019-05-05T07:46:49Z</time>
      </trkpt>
      <trkpt lat="43.45048" lon="5.84586">
        <ele>388.51</ele>
        <time>2019-05-05T07:46:50Z</time>
      </trkpt>
      <trkpt lat="43.45047" lon="5.84585">
        <ele>388.51</ele>
        <time>2019-05-05T07:46:51Z</time>
      </trkpt>
      <trkpt lat="43.45046" lon="5.84554">
        <ele>391.39</ele>
        <time>2019-05-05T07:47:05Z</time>
      </trkpt>
      <trkpt lat="43.45044" lon="5.84514">
        <ele>394.28</ele>
        <time>2019-05-05T07:47:22Z</time>
      </trkpt>
      <trkpt lat="43.45048" lon="5.84492">
        <ele>398.12</ele>
        <time>2019-05-05T07:47:31Z</time>
      </trkpt>
      <trkpt lat="43.45051" lon="5.84484">
        <ele>401.49</ele>
        <time>2019-05-05T07:47:35Z</time>
      </trkpt>
      <trkpt lat="43.45064" lon="5.84439">
        <ele>401.97</ele>
        <time>2019-05-05T07:47:52Z</time>
      </trkpt>
      <trkpt lat="43.45073" lon="5.84408">
        <ele>403.41</ele>
        <time>2019-05-05T07:48:03Z</time>
      </trkpt>
      <trkpt lat="43.45077" lon="5.84396">
        <ele>401.49</ele>
        <time>2019-05-05T07:48:07Z</time>
      </trkpt>
      <trkpt lat="43.45097" lon="5.84334">
        <ele>402.45</ele>
        <time>2019-05-05T07:48:27Z</time>
      </trkpt>
      <trkpt lat="43.45096" lon="5.84284">
        <ele>403.89</ele>
        <time>2019-05-05T07:48:42Z</time>
      </trkpt>
      <trkpt lat="43.45093" lon="5.84258">
        <ele>402.45</ele>
        <time>2019-05-05T07:48:51Z</time>
      </trkpt>
      <trkpt lat="43.45086" lon="5.84205">
        <ele>400.53</ele>
        <time>2019-05-05T07:49:03Z</time>
      </trkpt>
      <trkpt lat="43.45089" lon="5.84172">
        <ele>400.05</ele>
        <time>2019-05-05T07:49:09Z</time>
      </trkpt>
      <trkpt lat="43.45098" lon="5.84131">
        <ele>400.05</ele>
        <time>2019-05-05T07:49:18Z</time>
      </trkpt>
      <trkpt lat="43.45109" lon="5.84093">
        <ele>396.68</ele>
        <time>2019-05-05T07:49:27Z</time>
      </trkpt>
      <trkpt lat="43.45113" lon="5.84076">
        <ele>395.72</ele>
        <time>2019-05-05T07:49:31Z</time>
      </trkpt>
      <trkpt lat="43.45112" lon="5.84072">
        <ele>395.72</ele>
        <time>2019-05-05T07:49:32Z</time>
      </trkpt>
      <trkpt lat="43.4511" lon="5.84068">
        <ele>395.72</ele>
        <time>2019-05-05T07:49:33Z</time>
      </trkpt>
      <trkpt lat="43.45109" lon="5.84065">
        <ele>396.2</ele>
        <time>2019-05-05T07:49:34Z</time>
      </trkpt>
      <trkpt lat="43.45108" lon="5.84061">
        <ele>396.2</ele>
        <time>2019-05-05T07:49:35Z</time>
      </trkpt>
      <trkpt lat="43.45108" lon="5.84057">
        <ele>395.72</ele>
        <time>2019-05-05T07:49:36Z</time>
      </trkpt>
      <trkpt lat="43.45109" lon="5.84054">
        <ele>395.72</ele>
        <time>2019-05-05T07:49:37Z</time>
      </trkpt>
      <trkpt lat="43.4511" lon="5.8405">
        <ele>397.64</ele>
        <time>2019-05-05T07:49:38Z</time>
      </trkpt>
      <trkpt lat="43.45111" lon="5.84047">
        <ele>397.64</ele>
        <time>2019-05-05T07:49:39Z</time>
      </trkpt>
      <trkpt lat="43.45122" lon="5.84003">
        <ele>399.57</ele>
        <time>2019-05-05T07:49:54Z</time>
      </trkpt>
      <trkpt lat="43.45128" lon="5.83983">
        <ele>400.05</ele>
        <time>2019-05-05T07:50:06Z</time>
      </trkpt>
      <trkpt lat="43.45135" lon="5.83966">
        <ele>398.6</ele>
        <time>2019-05-05T07:50:19Z</time>
      </trkpt>
      <trkpt lat="43.45138" lon="5.83962">
        <ele>399.57</ele>
        <time>2019-05-05T07:50:25Z</time>
      </trkpt>
      <trkpt lat="43.45138" lon="5.83955">
        <ele>400.05</ele>
        <time>2019-05-05T07:50:34Z</time>
      </trkpt>
      <trkpt lat="43.4514" lon="5.83951">
        <ele>399.08</ele>
        <time>2019-05-05T07:50:42Z</time>
      </trkpt>
      <trkpt lat="43.4514" lon="5.83949">
        <ele>400.05</ele>
        <time>2019-05-05T07:50:49Z</time>
      </trkpt>
      <trkpt lat="43.45139" lon="5.83949">
        <ele>400.53</ele>
        <time>2019-05-05T07:51:04Z</time>
      </trkpt>
      <trkpt lat="43.45134" lon="5.83958">
        <ele>400.53</ele>
        <time>2019-05-05T07:51:19Z</time>
      </trkpt>
      <trkpt lat="43.4513" lon="5.83962">
        <ele>400.53</ele>
        <time>2019-05-05T07:51:23Z</time>
      </trkpt>
      <trkpt lat="43.4512" lon="5.83986">
        <ele>399.57</ele>
        <time>2019-05-05T07:51:36Z</time>
      </trkpt>
      <trkpt lat="43.45112" lon="5.83997">
        <ele>400.05</ele>
        <time>2019-05-05T07:51:47Z</time>
      </trkpt>
      <trkpt lat="43.45108" lon="5.84001">
        <ele>400.05</ele>
        <time>2019-05-05T07:51:50Z</time>
      </trkpt>
      <trkpt lat="43.45105" lon="5.84002">
        <ele>398.6</ele>
        <time>2019-05-05T07:51:53Z</time>
      </trkpt>
      <trkpt lat="43.45103" lon="5.84001">
        <ele>398.6</ele>
        <time>2019-05-05T07:51:55Z</time>
      </trkpt>
      <trkpt lat="43.45099" lon="5.84">
        <ele>400.05</ele>
        <time>2019-05-05T07:51:58Z</time>
      </trkpt>
      <trkpt lat="43.45097" lon="5.84">
        <ele>401.49</ele>
        <time>2019-05-05T07:52:00Z</time>
      </trkpt>
      <trkpt lat="43.45093" lon="5.83997">
        <ele>402.93</ele>
        <time>2019-05-05T07:52:04Z</time>
      </trkpt>
      <trkpt lat="43.4509" lon="5.83991">
        <ele>403.89</ele>
        <time>2019-05-05T07:52:08Z</time>
      </trkpt>
      <trkpt lat="43.45088" lon="5.83979">
        <ele>402.45</ele>
        <time>2019-05-05T07:52:14Z</time>
      </trkpt>
      <trkpt lat="43.45087" lon="5.83964">
        <ele>406.29</ele>
        <time>2019-05-05T07:52:21Z</time>
      </trkpt>
      <trkpt lat="43.45088" lon="5.83946">
        <ele>404.37</ele>
        <time>2019-05-05T07:52:30Z</time>
      </trkpt>
      <trkpt lat="43.45088" lon="5.83936">
        <ele>407.26</ele>
        <time>2019-05-05T07:52:35Z</time>
      </trkpt>
      <trkpt lat="43.45087" lon="5.83934">
        <ele>405.33</ele>
        <time>2019-05-05T07:52:39Z</time>
      </trkpt>
      <trkpt lat="43.45087" lon="5.83934">
        <ele>408.7</ele>
        <time>2019-05-05T07:52:41Z</time>
      </trkpt>
      <trkpt lat="43.45087" lon="5.83933">
        <ele>408.7</ele>
        <time>2019-05-05T07:52:42Z</time>
      </trkpt>
      <trkpt lat="43.45087" lon="5.8393">
        <ele>408.7</ele>
        <time>2019-05-05T07:52:45Z</time>
      </trkpt>
      <trkpt lat="43.45088" lon="5.83916">
        <ele>409.18</ele>
        <time>2019-05-05T07:52:52Z</time>
      </trkpt>
      <trkpt lat="43.45088" lon="5.83872">
        <ele>410.62</ele>
        <time>2019-05-05T07:53:09Z</time>
      </trkpt>
      <trkpt lat="43.45086" lon="5.83847">
        <ele>410.62</ele>
        <time>2019-05-05T07:53:17Z</time>
      </trkpt>
      <trkpt lat="43.45084" lon="5.83841">
        <ele>409.66</ele>
        <time>2019-05-05T07:53:24Z</time>
      </trkpt>
      <trkpt lat="43.4508" lon="5.83829">
        <ele>411.1</ele>
        <time>2019-05-05T07:53:32Z</time>
      </trkpt>
      <trkpt lat="43.45076" lon="5.83816">
        <ele>413.02</ele>
        <time>2019-05-05T07:53:43Z</time>
      </trkpt>
      <trkpt lat="43.45073" lon="5.83817">
        <ele>410.14</ele>
        <time>2019-05-05T07:53:53Z</time>
      </trkpt>
      <trkpt lat="43.45072" lon="5.83817">
        <ele>411.58</ele>
        <time>2019-05-05T07:53:57Z</time>
      </trkpt>
      <trkpt lat="43.45075" lon="5.83814">
        <ele>412.06</ele>
        <time>2019-05-05T07:54:09Z</time>
      </trkpt>
      <trkpt lat="43.45082" lon="5.83821">
        <ele>409.18</ele>
        <time>2019-05-05T07:54:19Z</time>
      </trkpt>
      <trkpt lat="43.45084" lon="5.83824">
        <ele>409.18</ele>
        <time>2019-05-05T07:54:22Z</time>
      </trkpt>
      <trkpt lat="43.45087" lon="5.83831">
        <ele>409.18</ele>
        <time>2019-05-05T07:54:26Z</time>
      </trkpt>
      <trkpt lat="43.45084" lon="5.83875">
        <ele>410.62</ele>
        <time>2019-05-05T07:54:42Z</time>
      </trkpt>
      <trkpt lat="43.45084" lon="5.8388">
        <ele>410.62</ele>
        <time>2019-05-05T07:54:43Z</time>
      </trkpt>
      <trkpt lat="43.45083" lon="5.8389">
        <ele>409.66</ele>
        <time>2019-05-05T07:54:46Z</time>
      </trkpt>
      <trkpt lat="43.45081" lon="5.83897">
        <ele>409.66</ele>
        <time>2019-05-05T07:54:49Z</time>
      </trkpt>
      <trkpt lat="43.45069" lon="5.8391">
        <ele>409.18</ele>
        <time>2019-05-05T07:55:05Z</time>
      </trkpt>
      <trkpt lat="43.45063" lon="5.8391">
        <ele>409.18</ele>
        <time>2019-05-05T07:55:19Z</time>
      </trkpt>
      <trkpt lat="43.45057" lon="5.8391">
        <ele>412.54</ele>
        <time>2019-05-05T07:55:22Z</time>
      </trkpt>
      <trkpt lat="43.45047" lon="5.83911">
        <ele>409.66</ele>
        <time>2019-05-05T07:55:25Z</time>
      </trkpt>
      <trkpt lat="43.4504" lon="5.83911">
        <ele>408.7</ele>
        <time>2019-05-05T07:55:27Z</time>
      </trkpt>
      <trkpt lat="43.45" lon="5.83917">
        <ele>408.7</ele>
        <time>2019-05-05T07:55:43Z</time>
      </trkpt>
      <trkpt lat="43.44973" lon="5.83934">
        <ele>410.14</ele>
        <time>2019-05-05T07:55:55Z</time>
      </trkpt>
      <trkpt lat="43.44972" lon="5.83936">
        <ele>410.14</ele>
        <time>2019-05-05T07:55:56Z</time>
      </trkpt>
      <trkpt lat="43.44968" lon="5.83951">
        <ele>410.14</ele>
        <time>2019-05-05T07:56:01Z</time>
      </trkpt>
      <trkpt lat="43.44956" lon="5.83952">
        <ele>408.22</ele>
        <time>2019-05-05T07:56:06Z</time>
      </trkpt>
      <trkpt lat="43.44955" lon="5.83952">
        <ele>408.22</ele>
        <time>2019-05-05T07:56:07Z</time>
      </trkpt>
      <trkpt lat="43.44945" lon="5.83945">
        <ele>409.66</ele>
        <time>2019-05-05T07:56:19Z</time>
      </trkpt>
      <trkpt lat="43.44945" lon="5.83945">
        <ele>408.22</ele>
        <time>2019-05-05T07:56:25Z</time>
      </trkpt>
      <trkpt lat="43.44944" lon="5.83943">
        <ele>407.74</ele>
        <time>2019-05-05T07:56:27Z</time>
      </trkpt>
      <trkpt lat="43.44944" lon="5.83942">
        <ele>407.74</ele>
        <time>2019-05-05T07:56:28Z</time>
      </trkpt>
      <trkpt lat="43.44946" lon="5.83927">
        <ele>407.74</ele>
        <time>2019-05-05T07:56:41Z</time>
      </trkpt>
      <trkpt lat="43.44947" lon="5.83925">
        <ele>407.74</ele>
        <time>2019-05-05T07:56:42Z</time>
      </trkpt>
      <trkpt lat="43.44947" lon="5.83923">
        <ele>407.74</ele>
        <time>2019-05-05T07:56:43Z</time>
      </trkpt>
      <trkpt lat="43.44947" lon="5.83921">
        <ele>407.74</ele>
        <time>2019-05-05T07:56:44Z</time>
      </trkpt>
      <trkpt lat="43.44948" lon="5.83918">
        <ele>407.74</ele>
        <time>2019-05-05T07:56:45Z</time>
      </trkpt>
      <trkpt lat="43.44948" lon="5.8391">
        <ele>409.18</ele>
        <time>2019-05-05T07:56:48Z</time>
      </trkpt>
      <trkpt lat="43.4495" lon="5.83897">
        <ele>410.62</ele>
        <time>2019-05-05T07:56:53Z</time>
      </trkpt>
      <trkpt lat="43.44959" lon="5.83844">
        <ele>411.58</ele>
        <time>2019-05-05T07:57:10Z</time>
      </trkpt>
      <trkpt lat="43.44964" lon="5.83817">
        <ele>414.47</ele>
        <time>2019-05-05T07:57:19Z</time>
      </trkpt>
      <trkpt lat="43.44965" lon="5.83814">
        <ele>414.47</ele>
        <time>2019-05-05T07:57:20Z</time>
      </trkpt>
      <trkpt lat="43.44974" lon="5.83768">
        <ele>417.83</ele>
        <time>2019-05-05T07:57:36Z</time>
      </trkpt>
      <trkpt lat="43.44975" lon="5.83765">
        <ele>417.83</ele>
        <time>2019-05-05T07:57:37Z</time>
      </trkpt>
      <trkpt lat="43.44975" lon="5.83763">
        <ele>415.43</ele>
        <time>2019-05-05T07:57:38Z</time>
      </trkpt>
      <trkpt lat="43.44976" lon="5.83759">
        <ele>415.91</ele>
        <time>2019-05-05T07:57:39Z</time>
      </trkpt>
      <trkpt lat="43.44978" lon="5.8375">
        <ele>416.87</ele>
        <time>2019-05-05T07:57:42Z</time>
      </trkpt>
      <trkpt lat="43.44984" lon="5.83714">
        <ele>420.23</ele>
        <time>2019-05-05T07:57:54Z</time>
      </trkpt>
      <trkpt lat="43.44994" lon="5.83671">
        <ele>423.12</ele>
        <time>2019-05-05T07:58:10Z</time>
      </trkpt>
      <trkpt lat="43.44994" lon="5.83669">
        <ele>423.6</ele>
        <time>2019-05-05T07:58:11Z</time>
      </trkpt>
      <trkpt lat="43.44995" lon="5.83667">
        <ele>423.6</ele>
        <time>2019-05-05T07:58:12Z</time>
      </trkpt>
      <trkpt lat="43.44996" lon="5.83665">
        <ele>425.04</ele>
        <time>2019-05-05T07:58:13Z</time>
      </trkpt>
      <trkpt lat="43.44997" lon="5.83662">
        <ele>425.04</ele>
        <time>2019-05-05T07:58:14Z</time>
      </trkpt>
      <trkpt lat="43.44997" lon="5.8366">
        <ele>425.04</ele>
        <time>2019-05-05T07:58:15Z</time>
      </trkpt>
      <trkpt lat="43.44997" lon="5.83657">
        <ele>425.04</ele>
        <time>2019-05-05T07:58:16Z</time>
      </trkpt>
      <trkpt lat="43.44999" lon="5.83646">
        <ele>427.92</ele>
        <time>2019-05-05T07:58:27Z</time>
      </trkpt>
      <trkpt lat="43.44999" lon="5.83643">
        <ele>431.29</ele>
        <time>2019-05-05T07:58:29Z</time>
      </trkpt>
      <trkpt lat="43.44999" lon="5.83642">
        <ele>431.29</ele>
        <time>2019-05-05T07:58:30Z</time>
      </trkpt>
      <trkpt lat="43.44999" lon="5.8364">
        <ele>429.85</ele>
        <time>2019-05-05T07:58:32Z</time>
      </trkpt>
      <trkpt lat="43.45002" lon="5.83625">
        <ele>430.33</ele>
        <time>2019-05-05T07:58:45Z</time>
      </trkpt>
      <trkpt lat="43.45006" lon="5.83613">
        <ele>431.77</ele>
        <time>2019-05-05T07:58:56Z</time>
      </trkpt>
      <trkpt lat="43.45005" lon="5.83595">
        <ele>434.65</ele>
        <time>2019-05-05T07:59:13Z</time>
      </trkpt>
      <trkpt lat="43.45005" lon="5.83578">
        <ele>437.06</ele>
        <time>2019-05-05T07:59:29Z</time>
      </trkpt>
      <trkpt lat="43.45008" lon="5.83561">
        <ele>439.46</ele>
        <time>2019-05-05T07:59:46Z</time>
      </trkpt>
      <trkpt lat="43.45009" lon="5.83546">
        <ele>440.9</ele>
        <time>2019-05-05T08:00:00Z</time>
      </trkpt>
      <trkpt lat="43.45011" lon="5.83531">
        <ele>443.79</ele>
        <time>2019-05-05T08:00:15Z</time>
      </trkpt>
      <trkpt lat="43.4502" lon="5.83525">
        <ele>446.19</ele>
        <time>2019-05-05T08:00:28Z</time>
      </trkpt>
      <trkpt lat="43.45033" lon="5.8352">
        <ele>447.15</ele>
        <time>2019-05-05T08:00:45Z</time>
      </trkpt>
      <trkpt lat="43.45045" lon="5.83515">
        <ele>447.63</ele>
        <time>2019-05-05T08:00:57Z</time>
      </trkpt>
      <trkpt lat="43.45054" lon="5.83508">
        <ele>451</ele>
        <time>2019-05-05T08:01:08Z</time>
      </trkpt>
      <trkpt lat="43.45066" lon="5.83496">
        <ele>451.96</ele>
        <time>2019-05-05T08:01:26Z</time>
      </trkpt>
      <trkpt lat="43.45079" lon="5.83491">
        <ele>453.88</ele>
        <time>2019-05-05T08:01:40Z</time>
      </trkpt>
      <trkpt lat="43.45093" lon="5.8349">
        <ele>455.32</ele>
        <time>2019-05-05T08:01:56Z</time>
      </trkpt>
      <trkpt lat="43.451" lon="5.8349">
        <ele>458.21</ele>
        <time>2019-05-05T08:02:04Z</time>
      </trkpt>
      <trkpt lat="43.45115" lon="5.83495">
        <ele>457.72</ele>
        <time>2019-05-05T08:02:21Z</time>
      </trkpt>
      <trkpt lat="43.45116" lon="5.83495">
        <ele>457.72</ele>
        <time>2019-05-05T08:02:22Z</time>
      </trkpt>
      <trkpt lat="43.45127" lon="5.83497">
        <ele>461.57</ele>
        <time>2019-05-05T08:02:34Z</time>
      </trkpt>
      <trkpt lat="43.4513" lon="5.83494">
        <ele>463.49</ele>
        <time>2019-05-05T08:02:38Z</time>
      </trkpt>
      <trkpt lat="43.45126" lon="5.83479">
        <ele>463.97</ele>
        <time>2019-05-05T08:02:54Z</time>
      </trkpt>
      <trkpt lat="43.45121" lon="5.83467">
        <ele>467.34</ele>
        <time>2019-05-05T08:03:08Z</time>
      </trkpt>
      <trkpt lat="43.45111" lon="5.83456">
        <ele>467.82</ele>
        <time>2019-05-05T08:03:21Z</time>
      </trkpt>
      <trkpt lat="43.45102" lon="5.83446">
        <ele>467.82</ele>
        <time>2019-05-05T08:03:36Z</time>
      </trkpt>
      <trkpt lat="43.45099" lon="5.83444">
        <ele>467.82</ele>
        <time>2019-05-05T08:03:42Z</time>
      </trkpt>
      <trkpt lat="43.45098" lon="5.83444">
        <ele>467.82</ele>
        <time>2019-05-05T08:03:43Z</time>
      </trkpt>
      <trkpt lat="43.45087" lon="5.83435">
        <ele>469.74</ele>
        <time>2019-05-05T08:03:51Z</time>
      </trkpt>
      <trkpt lat="43.45086" lon="5.83433">
        <ele>469.74</ele>
        <time>2019-05-05T08:03:52Z</time>
      </trkpt>
      <trkpt lat="43.45085" lon="5.83432">
        <ele>470.22</ele>
        <time>2019-05-05T08:03:53Z</time>
      </trkpt>
      <trkpt lat="43.45084" lon="5.8343">
        <ele>470.22</ele>
        <time>2019-05-05T08:03:54Z</time>
      </trkpt>
      <trkpt lat="43.45083" lon="5.83429">
        <ele>471.18</ele>
        <time>2019-05-05T08:03:55Z</time>
      </trkpt>
      <trkpt lat="43.45082" lon="5.83427">
        <ele>471.18</ele>
        <time>2019-05-05T08:03:56Z</time>
      </trkpt>
      <trkpt lat="43.45078" lon="5.83421">
        <ele>472.63</ele>
        <time>2019-05-05T08:04:06Z</time>
      </trkpt>
      <trkpt lat="43.45079" lon="5.8342">
        <ele>472.63</ele>
        <time>2019-05-05T08:04:07Z</time>
      </trkpt>
      <trkpt lat="43.45089" lon="5.83416">
        <ele>474.07</ele>
        <time>2019-05-05T08:04:21Z</time>
      </trkpt>
      <trkpt lat="43.45093" lon="5.83415">
        <ele>475.51</ele>
        <time>2019-05-05T08:04:27Z</time>
      </trkpt>
      <trkpt lat="43.45105" lon="5.83412">
        <ele>477.91</ele>
        <time>2019-05-05T08:04:43Z</time>
      </trkpt>
      <trkpt lat="43.4512" lon="5.83398">
        <ele>480.8</ele>
        <time>2019-05-05T08:05:02Z</time>
      </trkpt>
      <trkpt lat="43.45122" lon="5.83396">
        <ele>481.28</ele>
        <time>2019-05-05T08:05:05Z</time>
      </trkpt>
      <trkpt lat="43.45132" lon="5.83383">
        <ele>482.72</ele>
        <time>2019-05-05T08:05:19Z</time>
      </trkpt>
      <trkpt lat="43.45141" lon="5.83368">
        <ele>484.64</ele>
        <time>2019-05-05T08:05:37Z</time>
      </trkpt>
      <trkpt lat="43.45143" lon="5.83364">
        <ele>483.2</ele>
        <time>2019-05-05T08:05:43Z</time>
      </trkpt>
      <trkpt lat="43.45154" lon="5.83334">
        <ele>483.68</ele>
        <time>2019-05-05T08:05:59Z</time>
      </trkpt>
      <trkpt lat="43.45153" lon="5.83302">
        <ele>487.05</ele>
        <time>2019-05-05T08:06:12Z</time>
      </trkpt>
      <trkpt lat="43.45157" lon="5.83266">
        <ele>488.01</ele>
        <time>2019-05-05T08:06:28Z</time>
      </trkpt>
      <trkpt lat="43.45164" lon="5.83237">
        <ele>488.01</ele>
        <time>2019-05-05T08:06:38Z</time>
      </trkpt>
      <trkpt lat="43.45182" lon="5.83232">
        <ele>490.89</ele>
        <time>2019-05-05T08:06:49Z</time>
      </trkpt>
      <trkpt lat="43.45203" lon="5.83229">
        <ele>492.81</ele>
        <time>2019-05-05T08:07:01Z</time>
      </trkpt>
      <trkpt lat="43.45225" lon="5.83217">
        <ele>495.7</ele>
        <time>2019-05-05T08:07:12Z</time>
      </trkpt>
      <trkpt lat="43.45249" lon="5.83185">
        <ele>498.58</ele>
        <time>2019-05-05T08:07:28Z</time>
      </trkpt>
      <trkpt lat="43.45259" lon="5.83164">
        <ele>501.46</ele>
        <time>2019-05-05T08:07:39Z</time>
      </trkpt>
      <trkpt lat="43.45267" lon="5.83129">
        <ele>504.35</ele>
        <time>2019-05-05T08:07:55Z</time>
      </trkpt>
      <trkpt lat="43.4527" lon="5.83103">
        <ele>506.27</ele>
        <time>2019-05-05T08:08:11Z</time>
      </trkpt>
      <trkpt lat="43.45274" lon="5.83083">
        <ele>508.19</ele>
        <time>2019-05-05T08:08:29Z</time>
      </trkpt>
      <trkpt lat="43.45281" lon="5.83059">
        <ele>509.16</ele>
        <time>2019-05-05T08:08:49Z</time>
      </trkpt>
      <trkpt lat="43.45287" lon="5.83038">
        <ele>511.56</ele>
        <time>2019-05-05T08:09:06Z</time>
      </trkpt>
      <trkpt lat="43.45296" lon="5.83028">
        <ele>513.96</ele>
        <time>2019-05-05T08:09:21Z</time>
      </trkpt>
      <trkpt lat="43.45307" lon="5.83025">
        <ele>515.4</ele>
        <time>2019-05-05T08:09:34Z</time>
      </trkpt>
      <trkpt lat="43.45308" lon="5.83025">
        <ele>515.4</ele>
        <time>2019-05-05T08:09:35Z</time>
      </trkpt>
      <trkpt lat="43.45328" lon="5.8303">
        <ele>516.85</ele>
        <time>2019-05-05T08:09:54Z</time>
      </trkpt>
      <trkpt lat="43.45346" lon="5.83033">
        <ele>518.77</ele>
        <time>2019-05-05T08:10:12Z</time>
      </trkpt>
      <trkpt lat="43.45362" lon="5.83033">
        <ele>521.65</ele>
        <time>2019-05-05T08:10:27Z</time>
      </trkpt>
      <trkpt lat="43.45377" lon="5.83035">
        <ele>524.54</ele>
        <time>2019-05-05T08:10:43Z</time>
      </trkpt>
      <trkpt lat="43.45377" lon="5.83039">
        <ele>525.02</ele>
        <time>2019-05-05T08:10:54Z</time>
      </trkpt>
      <trkpt lat="43.45377" lon="5.83041">
        <ele>524.06</ele>
        <time>2019-05-05T08:11:01Z</time>
      </trkpt>
      <trkpt lat="43.45377" lon="5.83041">
        <ele>525.98</ele>
        <time>2019-05-05T08:11:03Z</time>
      </trkpt>
      <trkpt lat="43.45379" lon="5.83042">
        <ele>525.5</ele>
        <time>2019-05-05T08:11:11Z</time>
      </trkpt>
      <trkpt lat="43.4538" lon="5.83045">
        <ele>527.42</ele>
        <time>2019-05-05T08:11:16Z</time>
      </trkpt>
      <trkpt lat="43.45382" lon="5.83049">
        <ele>526.46</ele>
        <time>2019-05-05T08:11:27Z</time>
      </trkpt>
      <trkpt lat="43.45383" lon="5.83049">
        <ele>528.38</ele>
        <time>2019-05-05T08:11:29Z</time>
      </trkpt>
      <trkpt lat="43.45382" lon="5.8305">
        <ele>525.5</ele>
        <time>2019-05-05T08:11:40Z</time>
      </trkpt>
      <trkpt lat="43.45382" lon="5.8305">
        <ele>527.42</ele>
        <time>2019-05-05T08:11:42Z</time>
      </trkpt>
      <trkpt lat="43.45382" lon="5.8305">
        <ele>526.94</ele>
        <time>2019-05-05T08:11:51Z</time>
      </trkpt>
      <trkpt lat="43.45382" lon="5.8305">
        <ele>529.82</ele>
        <time>2019-05-05T08:11:59Z</time>
      </trkpt>
      <trkpt lat="43.45382" lon="5.83049">
        <ele>528.38</ele>
        <time>2019-05-05T08:12:01Z</time>
      </trkpt>
      <trkpt lat="43.45382" lon="5.8305">
        <ele>526.94</ele>
        <time>2019-05-05T08:12:08Z</time>
      </trkpt>
      <trkpt lat="43.45382" lon="5.83049">
        <ele>529.34</ele>
        <time>2019-05-05T08:12:10Z</time>
      </trkpt>
      <trkpt lat="43.45382" lon="5.83049">
        <ele>527.42</ele>
        <time>2019-05-05T08:12:12Z</time>
      </trkpt>
      <trkpt lat="43.45382" lon="5.83049">
        <ele>528.38</ele>
        <time>2019-05-05T08:12:16Z</time>
      </trkpt>
      <trkpt lat="43.45382" lon="5.83049">
        <ele>525.5</ele>
        <time>2019-05-05T08:12:22Z</time>
      </trkpt>
      <trkpt lat="43.45382" lon="5.83049">
        <ele>526.46</ele>
        <time>2019-05-05T08:12:30Z</time>
      </trkpt>
      <trkpt lat="43.45383" lon="5.8305">
        <ele>527.42</ele>
        <time>2019-05-05T08:12:55Z</time>
      </trkpt>
      <trkpt lat="43.45383" lon="5.83049">
        <ele>526.46</ele>
        <time>2019-05-05T08:13:00Z</time>
      </trkpt>
      <trkpt lat="43.45383" lon="5.83049">
        <ele>524.54</ele>
        <time>2019-05-05T08:13:24Z</time>
      </trkpt>
      <trkpt lat="43.45383" lon="5.83049">
        <ele>526.46</ele>
        <time>2019-05-05T08:13:26Z</time>
      </trkpt>
      <trkpt lat="43.45383" lon="5.83049">
        <ele>525.5</ele>
        <time>2019-05-05T08:13:28Z</time>
      </trkpt>
      <trkpt lat="43.45383" lon="5.83049">
        <ele>525.5</ele>
        <time>2019-05-05T08:13:42Z</time>
      </trkpt>
      <trkpt lat="43.45382" lon="5.83049">
        <ele>526.94</ele>
        <time>2019-05-05T08:14:08Z</time>
      </trkpt>
      <trkpt lat="43.45383" lon="5.83049">
        <ele>525.5</ele>
        <time>2019-05-05T08:14:14Z</time>
      </trkpt>
      <trkpt lat="43.45383" lon="5.83049">
        <ele>526.94</ele>
        <time>2019-05-05T08:14:16Z</time>
      </trkpt>
      <trkpt lat="43.45382" lon="5.83049">
        <ele>525.5</ele>
        <time>2019-05-05T08:14:22Z</time>
      </trkpt>
      <trkpt lat="43.45382" lon="5.8305">
        <ele>527.9</ele>
        <time>2019-05-05T08:14:31Z</time>
      </trkpt>
      <trkpt lat="43.45383" lon="5.83049">
        <ele>527.9</ele>
        <time>2019-05-05T08:14:44Z</time>
      </trkpt>
      <trkpt lat="43.45383" lon="5.8305">
        <ele>525.5</ele>
        <time>2019-05-05T08:15:05Z</time>
      </trkpt>
      <trkpt lat="43.45383" lon="5.8305">
        <ele>526.94</ele>
        <time>2019-05-05T08:15:34Z</time>
      </trkpt>
      <trkpt lat="43.45383" lon="5.8305">
        <ele>526.46</ele>
        <time>2019-05-05T08:15:48Z</time>
      </trkpt>
      <trkpt lat="43.45383" lon="5.8305">
        <ele>525.5</ele>
        <time>2019-05-05T08:16:10Z</time>
      </trkpt>
      <trkpt lat="43.45383" lon="5.83052">
        <ele>525.98</ele>
        <time>2019-05-05T08:16:25Z</time>
      </trkpt>
      <trkpt lat="43.45385" lon="5.83055">
        <ele>525.02</ele>
        <time>2019-05-05T08:16:29Z</time>
      </trkpt>
      <trkpt lat="43.45385" lon="5.83055">
        <ele>526.94</ele>
        <time>2019-05-05T08:16:31Z</time>
      </trkpt>
      <trkpt lat="43.45386" lon="5.83056">
        <ele>525.98</ele>
        <time>2019-05-05T08:16:35Z</time>
      </trkpt>
      <trkpt lat="43.45386" lon="5.83055">
        <ele>527.42</ele>
        <time>2019-05-05T08:16:38Z</time>
      </trkpt>
      <trkpt lat="43.45385" lon="5.83054">
        <ele>527.42</ele>
        <time>2019-05-05T08:16:41Z</time>
      </trkpt>
      <trkpt lat="43.45383" lon="5.83052">
        <ele>525.98</ele>
        <time>2019-05-05T08:16:44Z</time>
      </trkpt>
      <trkpt lat="43.45382" lon="5.8305">
        <ele>527.9</ele>
        <time>2019-05-05T08:16:48Z</time>
      </trkpt>
      <trkpt lat="43.45382" lon="5.8305">
        <ele>524.54</ele>
        <time>2019-05-05T08:16:59Z</time>
      </trkpt>
      <trkpt lat="43.45382" lon="5.8305">
        <ele>525.98</ele>
        <time>2019-05-05T08:17:02Z</time>
      </trkpt>
      <trkpt lat="43.45382" lon="5.8305">
        <ele>524.06</ele>
        <time>2019-05-05T08:17:09Z</time>
      </trkpt>
      <trkpt lat="43.45382" lon="5.8305">
        <ele>527.42</ele>
        <time>2019-05-05T08:17:24Z</time>
      </trkpt>
      <trkpt lat="43.45382" lon="5.8305">
        <ele>526.94</ele>
        <time>2019-05-05T08:17:28Z</time>
      </trkpt>
      <trkpt lat="43.45382" lon="5.8305">
        <ele>524.54</ele>
        <time>2019-05-05T08:17:32Z</time>
      </trkpt>
      <trkpt lat="43.45382" lon="5.8305">
        <ele>525.98</ele>
        <time>2019-05-05T08:17:40Z</time>
      </trkpt>
      <trkpt lat="43.45382" lon="5.8305">
        <ele>525.98</ele>
        <time>2019-05-05T08:18:04Z</time>
      </trkpt>
      <trkpt lat="43.45381" lon="5.8305">
        <ele>524.54</ele>
        <time>2019-05-05T08:18:10Z</time>
      </trkpt>
      <trkpt lat="43.45381" lon="5.8305">
        <ele>525.02</ele>
        <time>2019-05-05T08:18:16Z</time>
      </trkpt>
      <trkpt lat="43.45381" lon="5.8305">
        <ele>525.02</ele>
        <time>2019-05-05T08:18:30Z</time>
      </trkpt>
      <trkpt lat="43.45382" lon="5.8305">
        <ele>525.02</ele>
        <time>2019-05-05T08:19:12Z</time>
      </trkpt>
      <trkpt lat="43.45382" lon="5.83049">
        <ele>523.58</ele>
        <time>2019-05-05T08:19:21Z</time>
      </trkpt>
      <trkpt lat="43.45382" lon="5.8305">
        <ele>525.98</ele>
        <time>2019-05-05T08:19:35Z</time>
      </trkpt>
      <trkpt lat="43.45382" lon="5.8305">
        <ele>524.54</ele>
        <time>2019-05-05T08:19:37Z</time>
      </trkpt>
      <trkpt lat="43.4538" lon="5.83046">
        <ele>521.65</ele>
        <time>2019-05-05T08:19:52Z</time>
      </trkpt>
      <trkpt lat="43.4538" lon="5.83044">
        <ele>522.13</ele>
        <time>2019-05-05T08:19:58Z</time>
      </trkpt>
      <trkpt lat="43.45379" lon="5.83042">
        <ele>521.17</ele>
        <time>2019-05-05T08:20:08Z</time>
      </trkpt>
      <trkpt lat="43.45378" lon="5.83037">
        <ele>519.73</ele>
        <time>2019-05-05T08:20:13Z</time>
      </trkpt>
      <trkpt lat="43.45377" lon="5.83037">
        <ele>520.21</ele>
        <time>2019-05-05T08:20:18Z</time>
      </trkpt>
      <trkpt lat="43.4538" lon="5.83023">
        <ele>518.77</ele>
        <time>2019-05-05T08:20:37Z</time>
      </trkpt>
      <trkpt lat="43.4538" lon="5.83021">
        <ele>518.77</ele>
        <time>2019-05-05T08:20:38Z</time>
      </trkpt>
      <trkpt lat="43.45379" lon="5.8301">
        <ele>517.33</ele>
        <time>2019-05-05T08:20:43Z</time>
      </trkpt>
      <trkpt lat="43.45378" lon="5.82998">
        <ele>516.85</ele>
        <time>2019-05-05T08:20:49Z</time>
      </trkpt>
      <trkpt lat="43.45373" lon="5.82962">
        <ele>514.44</ele>
        <time>2019-05-05T08:21:05Z</time>
      </trkpt>
      <trkpt lat="43.45371" lon="5.82922">
        <ele>511.08</ele>
        <time>2019-05-05T08:21:14Z</time>
      </trkpt>
      <trkpt lat="43.45372" lon="5.82897">
        <ele>511.08</ele>
        <time>2019-05-05T08:21:18Z</time>
      </trkpt>
      <trkpt lat="43.45373" lon="5.8289">
        <ele>510.6</ele>
        <time>2019-05-05T08:21:19Z</time>
      </trkpt>
      <trkpt lat="43.45382" lon="5.82817">
        <ele>507.23</ele>
        <time>2019-05-05T08:21:31Z</time>
      </trkpt>
      <trkpt lat="43.45382" lon="5.8281">
        <ele>507.23</ele>
        <time>2019-05-05T08:21:32Z</time>
      </trkpt>
      <trkpt lat="43.45383" lon="5.82804">
        <ele>506.75</ele>
        <time>2019-05-05T08:21:33Z</time>
      </trkpt>
      <trkpt lat="43.45382" lon="5.82799">
        <ele>506.75</ele>
        <time>2019-05-05T08:21:34Z</time>
      </trkpt>
      <trkpt lat="43.45381" lon="5.82793">
        <ele>506.27</ele>
        <time>2019-05-05T08:21:35Z</time>
      </trkpt>
      <trkpt lat="43.45376" lon="5.82775">
        <ele>505.79</ele>
        <time>2019-05-05T08:21:38Z</time>
      </trkpt>
      <trkpt lat="43.45372" lon="5.82734">
        <ele>503.39</ele>
        <time>2019-05-05T08:21:45Z</time>
      </trkpt>
      <trkpt lat="43.4537" lon="5.82727">
        <ele>502.91</ele>
        <time>2019-05-05T08:21:46Z</time>
      </trkpt>
      <trkpt lat="43.45363" lon="5.827">
        <ele>499.54</ele>
        <time>2019-05-05T08:21:50Z</time>
      </trkpt>
      <trkpt lat="43.45362" lon="5.82694">
        <ele>499.06</ele>
        <time>2019-05-05T08:21:51Z</time>
      </trkpt>
      <trkpt lat="43.45361" lon="5.82689">
        <ele>499.06</ele>
        <time>2019-05-05T08:21:52Z</time>
      </trkpt>
      <trkpt lat="43.45359" lon="5.82682">
        <ele>499.06</ele>
        <time>2019-05-05T08:21:53Z</time>
      </trkpt>
      <trkpt lat="43.45359" lon="5.82676">
        <ele>497.14</ele>
        <time>2019-05-05T08:21:54Z</time>
      </trkpt>
      <trkpt lat="43.45358" lon="5.82669">
        <ele>497.14</ele>
        <time>2019-05-05T08:21:55Z</time>
      </trkpt>
      <trkpt lat="43.45357" lon="5.82662">
        <ele>495.7</ele>
        <time>2019-05-05T08:21:56Z</time>
      </trkpt>
      <trkpt lat="43.45354" lon="5.82641">
        <ele>494.26</ele>
        <time>2019-05-05T08:21:59Z</time>
      </trkpt>
      <trkpt lat="43.45351" lon="5.82621">
        <ele>492.81</ele>
        <time>2019-05-05T08:22:02Z</time>
      </trkpt>
      <trkpt lat="43.45351" lon="5.82614">
        <ele>492.81</ele>
        <time>2019-05-05T08:22:03Z</time>
      </trkpt>
      <trkpt lat="43.45351" lon="5.82607">
        <ele>492.81</ele>
        <time>2019-05-05T08:22:04Z</time>
      </trkpt>
      <trkpt lat="43.45352" lon="5.82601">
        <ele>492.81</ele>
        <time>2019-05-05T08:22:05Z</time>
      </trkpt>
      <trkpt lat="43.45352" lon="5.82596">
        <ele>492.81</ele>
        <time>2019-05-05T08:22:06Z</time>
      </trkpt>
      <trkpt lat="43.45352" lon="5.82591">
        <ele>492.33</ele>
        <time>2019-05-05T08:22:07Z</time>
      </trkpt>
      <trkpt lat="43.45352" lon="5.82586">
        <ele>492.33</ele>
        <time>2019-05-05T08:22:08Z</time>
      </trkpt>
      <trkpt lat="43.45351" lon="5.82581">
        <ele>492.33</ele>
        <time>2019-05-05T08:22:09Z</time>
      </trkpt>
      <trkpt lat="43.4535" lon="5.82577">
        <ele>490.89</ele>
        <time>2019-05-05T08:22:10Z</time>
      </trkpt>
      <trkpt lat="43.45349" lon="5.82572">
        <ele>489.93</ele>
        <time>2019-05-05T08:22:11Z</time>
      </trkpt>
      <trkpt lat="43.45347" lon="5.82568">
        <ele>489.93</ele>
        <time>2019-05-05T08:22:12Z</time>
      </trkpt>
      <trkpt lat="43.45346" lon="5.82563">
        <ele>489.93</ele>
        <time>2019-05-05T08:22:13Z</time>
      </trkpt>
      <trkpt lat="43.45342" lon="5.82552">
        <ele>489.45</ele>
        <time>2019-05-05T08:22:15Z</time>
      </trkpt>
      <trkpt lat="43.45341" lon="5.82546">
        <ele>489.45</ele>
        <time>2019-05-05T08:22:16Z</time>
      </trkpt>
      <trkpt lat="43.45328" lon="5.82491">
        <ele>486.56</ele>
        <time>2019-05-05T08:22:26Z</time>
      </trkpt>
      <trkpt lat="43.45324" lon="5.82486">
        <ele>486.08</ele>
        <time>2019-05-05T08:22:28Z</time>
      </trkpt>
      <trkpt lat="43.45318" lon="5.8248">
        <ele>487.53</ele>
        <time>2019-05-05T08:22:33Z</time>
      </trkpt>
      <trkpt lat="43.45298" lon="5.82471">
        <ele>485.6</ele>
        <time>2019-05-05T08:22:41Z</time>
      </trkpt>
      <trkpt lat="43.45263" lon="5.82469">
        <ele>484.64</ele>
        <time>2019-05-05T08:22:53Z</time>
      </trkpt>
      <trkpt lat="43.45262" lon="5.82466">
        <ele>484.64</ele>
        <time>2019-05-05T08:22:54Z</time>
      </trkpt>
      <trkpt lat="43.45262" lon="5.82462">
        <ele>484.64</ele>
        <time>2019-05-05T08:22:55Z</time>
      </trkpt>
      <trkpt lat="43.45262" lon="5.82459">
        <ele>484.64</ele>
        <time>2019-05-05T08:22:56Z</time>
      </trkpt>
      <trkpt lat="43.45263" lon="5.82455">
        <ele>484.64</ele>
        <time>2019-05-05T08:22:57Z</time>
      </trkpt>
      <trkpt lat="43.45264" lon="5.82451">
        <ele>484.16</ele>
        <time>2019-05-05T08:22:58Z</time>
      </trkpt>
      <trkpt lat="43.45272" lon="5.82424">
        <ele>482.72</ele>
        <time>2019-05-05T08:23:05Z</time>
      </trkpt>
      <trkpt lat="43.45275" lon="5.82413">
        <ele>481.28</ele>
        <time>2019-05-05T08:23:07Z</time>
      </trkpt>
      <trkpt lat="43.45284" lon="5.82398">
        <ele>480.8</ele>
        <time>2019-05-05T08:23:10Z</time>
      </trkpt>
      <trkpt lat="43.45297" lon="5.8238">
        <ele>479.84</ele>
        <time>2019-05-05T08:23:14Z</time>
      </trkpt>
      <trkpt lat="43.45299" lon="5.82374">
        <ele>479.84</ele>
        <time>2019-05-05T08:23:15Z</time>
      </trkpt>
      <trkpt lat="43.453" lon="5.82369">
        <ele>479.84</ele>
        <time>2019-05-05T08:23:16Z</time>
      </trkpt>
      <trkpt lat="43.45301" lon="5.82364">
        <ele>479.35</ele>
        <time>2019-05-05T08:23:17Z</time>
      </trkpt>
      <trkpt lat="43.45301" lon="5.82359">
        <ele>479.84</ele>
        <time>2019-05-05T08:23:18Z</time>
      </trkpt>
      <trkpt lat="43.45301" lon="5.82352">
        <ele>478.87</ele>
        <time>2019-05-05T08:23:19Z</time>
      </trkpt>
      <trkpt lat="43.45301" lon="5.82344">
        <ele>478.39</ele>
        <time>2019-05-05T08:23:20Z</time>
      </trkpt>
      <trkpt lat="43.45301" lon="5.82337">
        <ele>478.39</ele>
        <time>2019-05-05T08:23:21Z</time>
      </trkpt>
      <trkpt lat="43.45299" lon="5.82302">
        <ele>475.03</ele>
        <time>2019-05-05T08:23:26Z</time>
      </trkpt>
      <trkpt lat="43.45298" lon="5.82267">
        <ele>473.59</ele>
        <time>2019-05-05T08:23:31Z</time>
      </trkpt>
      <trkpt lat="43.45297" lon="5.82241">
        <ele>471.66</ele>
        <time>2019-05-05T08:23:35Z</time>
      </trkpt>
      <trkpt lat="43.45296" lon="5.82228">
        <ele>470.7</ele>
        <time>2019-05-05T08:23:37Z</time>
      </trkpt>
      <trkpt lat="43.45294" lon="5.82205">
        <ele>468.78</ele>
        <time>2019-05-05T08:23:41Z</time>
      </trkpt>
      <trkpt lat="43.45292" lon="5.82186">
        <ele>467.82</ele>
        <time>2019-05-05T08:23:44Z</time>
      </trkpt>
      <trkpt lat="43.45291" lon="5.8218">
        <ele>467.34</ele>
        <time>2019-05-05T08:23:45Z</time>
      </trkpt>
      <trkpt lat="43.45288" lon="5.82167">
        <ele>466.38</ele>
        <time>2019-05-05T08:23:47Z</time>
      </trkpt>
      <trkpt lat="43.45287" lon="5.82161">
        <ele>466.38</ele>
        <time>2019-05-05T08:23:48Z</time>
      </trkpt>
      <trkpt lat="43.45287" lon="5.82155">
        <ele>465.42</ele>
        <time>2019-05-05T08:23:49Z</time>
      </trkpt>
      <trkpt lat="43.45286" lon="5.82142">
        <ele>464.45</ele>
        <time>2019-05-05T08:23:51Z</time>
      </trkpt>
      <trkpt lat="43.45285" lon="5.82121">
        <ele>462.53</ele>
        <time>2019-05-05T08:23:54Z</time>
      </trkpt>
      <trkpt lat="43.45273" lon="5.8207">
        <ele>461.09</ele>
        <time>2019-05-05T08:24:04Z</time>
      </trkpt>
      <trkpt lat="43.45267" lon="5.82059">
        <ele>460.61</ele>
        <time>2019-05-05T08:24:06Z</time>
      </trkpt>
      <trkpt lat="43.45257" lon="5.82043">
        <ele>458.69</ele>
        <time>2019-05-05T08:24:09Z</time>
      </trkpt>
      <trkpt lat="43.45253" lon="5.82036">
        <ele>458.69</ele>
        <time>2019-05-05T08:24:10Z</time>
      </trkpt>
      <trkpt lat="43.45233" lon="5.82004">
        <ele>455.32</ele>
        <time>2019-05-05T08:24:16Z</time>
      </trkpt>
      <trkpt lat="43.45231" lon="5.81999">
        <ele>455.32</ele>
        <time>2019-05-05T08:24:17Z</time>
      </trkpt>
      <trkpt lat="43.45229" lon="5.81993">
        <ele>456.76</ele>
        <time>2019-05-05T08:24:18Z</time>
      </trkpt>
      <trkpt lat="43.45227" lon="5.81988">
        <ele>456.76</ele>
        <time>2019-05-05T08:24:19Z</time>
      </trkpt>
      <trkpt lat="43.45219" lon="5.81972">
        <ele>453.4</ele>
        <time>2019-05-05T08:24:22Z</time>
      </trkpt>
      <trkpt lat="43.45216" lon="5.81966">
        <ele>453.4</ele>
        <time>2019-05-05T08:24:23Z</time>
      </trkpt>
      <trkpt lat="43.45213" lon="5.81961">
        <ele>452.92</ele>
        <time>2019-05-05T08:24:24Z</time>
      </trkpt>
      <trkpt lat="43.4521" lon="5.81957">
        <ele>452.44</ele>
        <time>2019-05-05T08:24:25Z</time>
      </trkpt>
      <trkpt lat="43.45189" lon="5.81929">
        <ele>451.48</ele>
        <time>2019-05-05T08:24:32Z</time>
      </trkpt>
      <trkpt lat="43.45167" lon="5.8191">
        <ele>451</ele>
        <time>2019-05-05T08:24:37Z</time>
      </trkpt>
      <trkpt lat="43.45164" lon="5.81905">
        <ele>450.52</ele>
        <time>2019-05-05T08:24:38Z</time>
      </trkpt>
      <trkpt lat="43.4516" lon="5.81901">
        <ele>449.07</ele>
        <time>2019-05-05T08:24:39Z</time>
      </trkpt>
      <trkpt lat="43.45157" lon="5.81897">
        <ele>449.07</ele>
        <time>2019-05-05T08:24:40Z</time>
      </trkpt>
      <trkpt lat="43.45142" lon="5.81881">
        <ele>446.19</ele>
        <time>2019-05-05T08:24:45Z</time>
      </trkpt>
      <trkpt lat="43.45139" lon="5.81877">
        <ele>446.19</ele>
        <time>2019-05-05T08:24:46Z</time>
      </trkpt>
      <trkpt lat="43.45116" lon="5.81855">
        <ele>444.27</ele>
        <time>2019-05-05T08:24:53Z</time>
      </trkpt>
      <trkpt lat="43.45111" lon="5.81852">
        <ele>443.79</ele>
        <time>2019-05-05T08:24:54Z</time>
      </trkpt>
      <trkpt lat="43.45099" lon="5.81846">
        <ele>441.86</ele>
        <time>2019-05-05T08:24:57Z</time>
      </trkpt>
      <trkpt lat="43.45084" lon="5.81836">
        <ele>438.98</ele>
        <time>2019-05-05T08:25:02Z</time>
      </trkpt>
      <trkpt lat="43.45081" lon="5.81833">
        <ele>438.98</ele>
        <time>2019-05-05T08:25:03Z</time>
      </trkpt>
      <trkpt lat="43.45048" lon="5.81799">
        <ele>436.1</ele>
        <time>2019-05-05T08:25:14Z</time>
      </trkpt>
      <trkpt lat="43.4504" lon="5.81787">
        <ele>434.65</ele>
        <time>2019-05-05T08:25:17Z</time>
      </trkpt>
      <trkpt lat="43.45037" lon="5.81781">
        <ele>434.65</ele>
        <time>2019-05-05T08:25:18Z</time>
      </trkpt>
      <trkpt lat="43.45035" lon="5.81776">
        <ele>434.65</ele>
        <time>2019-05-05T08:25:19Z</time>
      </trkpt>
      <trkpt lat="43.45033" lon="5.81772">
        <ele>434.65</ele>
        <time>2019-05-05T08:25:20Z</time>
      </trkpt>
      <trkpt lat="43.45032" lon="5.81769">
        <ele>434.65</ele>
        <time>2019-05-05T08:25:21Z</time>
      </trkpt>
      <trkpt lat="43.45032" lon="5.81767">
        <ele>434.65</ele>
        <time>2019-05-05T08:25:22Z</time>
      </trkpt>
      <trkpt lat="43.45032" lon="5.81765">
        <ele>434.65</ele>
        <time>2019-05-05T08:25:23Z</time>
      </trkpt>
      <trkpt lat="43.45033" lon="5.81763">
        <ele>434.65</ele>
        <time>2019-05-05T08:25:24Z</time>
      </trkpt>
      <trkpt lat="43.45033" lon="5.8176">
        <ele>435.61</ele>
        <time>2019-05-05T08:25:25Z</time>
      </trkpt>
      <trkpt lat="43.45035" lon="5.8174">
        <ele>437.06</ele>
        <time>2019-05-05T08:25:36Z</time>
      </trkpt>
      <trkpt lat="43.45036" lon="5.81739">
        <ele>435.61</ele>
        <time>2019-05-05T08:25:53Z</time>
      </trkpt>
      <trkpt lat="43.45035" lon="5.81735">
        <ele>437.54</ele>
        <time>2019-05-05T08:26:06Z</time>
      </trkpt>
      <trkpt lat="43.45035" lon="5.81733">
        <ele>437.54</ele>
        <time>2019-05-05T08:26:07Z</time>
      </trkpt>
      <trkpt lat="43.45035" lon="5.81731">
        <ele>438.02</ele>
        <time>2019-05-05T08:26:08Z</time>
      </trkpt>
      <trkpt lat="43.45034" lon="5.81728">
        <ele>438.02</ele>
        <time>2019-05-05T08:26:11Z</time>
      </trkpt>
      <trkpt lat="43.45032" lon="5.81727">
        <ele>438.02</ele>
        <time>2019-05-05T08:26:12Z</time>
      </trkpt>
      <trkpt lat="43.45031" lon="5.81726">
        <ele>438.02</ele>
        <time>2019-05-05T08:26:13Z</time>
      </trkpt>
      <trkpt lat="43.45025" lon="5.81725">
        <ele>438.02</ele>
        <time>2019-05-05T08:26:19Z</time>
      </trkpt>
      <trkpt lat="43.45024" lon="5.81724">
        <ele>438.02</ele>
        <time>2019-05-05T08:26:20Z</time>
      </trkpt>
      <trkpt lat="43.45022" lon="5.81724">
        <ele>438.02</ele>
        <time>2019-05-05T08:26:21Z</time>
      </trkpt>
      <trkpt lat="43.45021" lon="5.81723">
        <ele>438.5</ele>
        <time>2019-05-05T08:26:22Z</time>
      </trkpt>
      <trkpt lat="43.45019" lon="5.81723">
        <ele>438.5</ele>
        <time>2019-05-05T08:26:23Z</time>
      </trkpt>
      <trkpt lat="43.45003" lon="5.8172">
        <ele>440.9</ele>
        <time>2019-05-05T08:26:34Z</time>
      </trkpt>
      <trkpt lat="43.4498" lon="5.81726">
        <ele>441.38</ele>
        <time>2019-05-05T08:26:47Z</time>
      </trkpt>
      <trkpt lat="43.44953" lon="5.81742">
        <ele>443.31</ele>
        <time>2019-05-05T08:27:00Z</time>
      </trkpt>
      <trkpt lat="43.44926" lon="5.8175">
        <ele>446.19</ele>
        <time>2019-05-05T08:27:13Z</time>
      </trkpt>
      <trkpt lat="43.44911" lon="5.81761">
        <ele>448.11</ele>
        <time>2019-05-05T08:27:24Z</time>
      </trkpt>
      <trkpt lat="43.44899" lon="5.81771">
        <ele>449.55</ele>
        <time>2019-05-05T08:27:31Z</time>
      </trkpt>
      <trkpt lat="43.44876" lon="5.81772">
        <ele>452.92</ele>
        <time>2019-05-05T08:27:45Z</time>
      </trkpt>
      <trkpt lat="43.44851" lon="5.81777">
        <ele>455.32</ele>
        <time>2019-05-05T08:27:57Z</time>
      </trkpt>
      <trkpt lat="43.44832" lon="5.81787">
        <ele>457.24</ele>
        <time>2019-05-05T08:28:10Z</time>
      </trkpt>
      <trkpt lat="43.44821" lon="5.81794">
        <ele>459.17</ele>
        <time>2019-05-05T08:28:19Z</time>
      </trkpt>
      <trkpt lat="43.44801" lon="5.81798">
        <ele>462.05</ele>
        <time>2019-05-05T08:28:31Z</time>
      </trkpt>
      <trkpt lat="43.44798" lon="5.81799">
        <ele>462.53</ele>
        <time>2019-05-05T08:28:33Z</time>
      </trkpt>
      <trkpt lat="43.44797" lon="5.818">
        <ele>462.53</ele>
        <time>2019-05-05T08:28:34Z</time>
      </trkpt>
      <trkpt lat="43.44795" lon="5.81801">
        <ele>462.53</ele>
        <time>2019-05-05T08:28:35Z</time>
      </trkpt>
      <trkpt lat="43.44793" lon="5.81801">
        <ele>462.53</ele>
        <time>2019-05-05T08:28:36Z</time>
      </trkpt>
      <trkpt lat="43.44792" lon="5.81802">
        <ele>462.53</ele>
        <time>2019-05-05T08:28:37Z</time>
      </trkpt>
      <trkpt lat="43.4479" lon="5.81803">
        <ele>463.01</ele>
        <time>2019-05-05T08:28:38Z</time>
      </trkpt>
      <trkpt lat="43.4478" lon="5.81807">
        <ele>464.45</ele>
        <time>2019-05-05T08:28:44Z</time>
      </trkpt>
      <trkpt lat="43.44773" lon="5.81816">
        <ele>465.9</ele>
        <time>2019-05-05T08:28:49Z</time>
      </trkpt>
      <trkpt lat="43.4476" lon="5.8185">
        <ele>465.9</ele>
        <time>2019-05-05T08:29:03Z</time>
      </trkpt>
      <trkpt lat="43.44746" lon="5.81868">
        <ele>466.86</ele>
        <time>2019-05-05T08:29:18Z</time>
      </trkpt>
      <trkpt lat="43.44737" lon="5.81891">
        <ele>468.78</ele>
        <time>2019-05-05T08:29:34Z</time>
      </trkpt>
      <trkpt lat="43.44729" lon="5.8191">
        <ele>470.7</ele>
        <time>2019-05-05T08:29:52Z</time>
      </trkpt>
      <trkpt lat="43.44718" lon="5.81927">
        <ele>473.11</ele>
        <time>2019-05-05T08:30:10Z</time>
      </trkpt>
      <trkpt lat="43.44708" lon="5.81942">
        <ele>475.03</ele>
        <time>2019-05-05T08:30:24Z</time>
      </trkpt>
      <trkpt lat="43.44701" lon="5.81947">
        <ele>476.95</ele>
        <time>2019-05-05T08:30:32Z</time>
      </trkpt>
      <trkpt lat="43.44691" lon="5.8195">
        <ele>475.51</ele>
        <time>2019-05-05T08:30:40Z</time>
      </trkpt>
      <trkpt lat="43.44689" lon="5.81951">
        <ele>475.51</ele>
        <time>2019-05-05T08:30:42Z</time>
      </trkpt>
      <trkpt lat="43.44688" lon="5.81951">
        <ele>475.51</ele>
        <time>2019-05-05T08:30:43Z</time>
      </trkpt>
      <trkpt lat="43.44671" lon="5.81962">
        <ele>476.47</ele>
        <time>2019-05-05T08:31:00Z</time>
      </trkpt>
      <trkpt lat="43.44662" lon="5.81969">
        <ele>477.43</ele>
        <time>2019-05-05T08:31:13Z</time>
      </trkpt>
      <trkpt lat="43.44649" lon="5.81988">
        <ele>479.35</ele>
        <time>2019-05-05T08:31:29Z</time>
      </trkpt>
      <trkpt lat="43.44636" lon="5.82">
        <ele>480.32</ele>
        <time>2019-05-05T08:31:45Z</time>
      </trkpt>
      <trkpt lat="43.44633" lon="5.82002">
        <ele>481.28</ele>
        <time>2019-05-05T08:31:49Z</time>
      </trkpt>
      <trkpt lat="43.44623" lon="5.82011">
        <ele>483.2</ele>
        <time>2019-05-05T08:31:59Z</time>
      </trkpt>
      <trkpt lat="43.44613" lon="5.82023">
        <ele>484.64</ele>
        <time>2019-05-05T08:32:14Z</time>
      </trkpt>
      <trkpt lat="43.446" lon="5.82038">
        <ele>485.12</ele>
        <time>2019-05-05T08:32:31Z</time>
      </trkpt>
      <trkpt lat="43.44592" lon="5.82047">
        <ele>487.53</ele>
        <time>2019-05-05T08:32:40Z</time>
      </trkpt>
      <trkpt lat="43.44579" lon="5.82059">
        <ele>488.49</ele>
        <time>2019-05-05T08:32:55Z</time>
      </trkpt>
      <trkpt lat="43.44578" lon="5.82059">
        <ele>488.49</ele>
        <time>2019-05-05T08:32:56Z</time>
      </trkpt>
      <trkpt lat="43.4456" lon="5.82067">
        <ele>490.41</ele>
        <time>2019-05-05T08:33:12Z</time>
      </trkpt>
      <trkpt lat="43.44546" lon="5.82071">
        <ele>491.37</ele>
        <time>2019-05-05T08:33:25Z</time>
      </trkpt>
      <trkpt lat="43.44539" lon="5.82075">
        <ele>492.33</ele>
        <time>2019-05-05T08:33:33Z</time>
      </trkpt>
      <trkpt lat="43.44527" lon="5.82083">
        <ele>493.77</ele>
        <time>2019-05-05T08:33:47Z</time>
      </trkpt>
      <trkpt lat="43.44515" lon="5.82096">
        <ele>494.26</ele>
        <time>2019-05-05T08:34:03Z</time>
      </trkpt>
      <trkpt lat="43.44506" lon="5.82108">
        <ele>497.62</ele>
        <time>2019-05-05T08:34:16Z</time>
      </trkpt>
      <trkpt lat="43.44495" lon="5.82127">
        <ele>500.98</ele>
        <time>2019-05-05T08:34:34Z</time>
      </trkpt>
      <trkpt lat="43.44494" lon="5.82129">
        <ele>501.95</ele>
        <time>2019-05-05T08:34:49Z</time>
      </trkpt>
      <trkpt lat="43.44494" lon="5.82131">
        <ele>500.5</ele>
        <time>2019-05-05T08:34:54Z</time>
      </trkpt>
      <trkpt lat="43.44492" lon="5.8213">
        <ele>501.95</ele>
        <time>2019-05-05T08:34:57Z</time>
      </trkpt>
      <trkpt lat="43.44491" lon="5.8213">
        <ele>501.95</ele>
        <time>2019-05-05T08:34:58Z</time>
      </trkpt>
      <trkpt lat="43.44489" lon="5.82129">
        <ele>501.95</ele>
        <time>2019-05-05T08:34:59Z</time>
      </trkpt>
      <trkpt lat="43.44488" lon="5.82129">
        <ele>501.95</ele>
        <time>2019-05-05T08:35:00Z</time>
      </trkpt>
      <trkpt lat="43.44486" lon="5.82129">
        <ele>501.95</ele>
        <time>2019-05-05T08:35:01Z</time>
      </trkpt>
      <trkpt lat="43.44484" lon="5.8213">
        <ele>501.95</ele>
        <time>2019-05-05T08:35:02Z</time>
      </trkpt>
      <trkpt lat="43.44482" lon="5.82131">
        <ele>501.95</ele>
        <time>2019-05-05T08:35:03Z</time>
      </trkpt>
      <trkpt lat="43.44482" lon="5.82132">
        <ele>501.95</ele>
        <time>2019-05-05T08:35:04Z</time>
      </trkpt>
      <trkpt lat="43.44481" lon="5.82134">
        <ele>501.95</ele>
        <time>2019-05-05T08:35:05Z</time>
      </trkpt>
      <trkpt lat="43.4448" lon="5.82135">
        <ele>501.95</ele>
        <time>2019-05-05T08:35:06Z</time>
      </trkpt>
      <trkpt lat="43.44463" lon="5.82157">
        <ele>500.98</ele>
        <time>2019-05-05T08:35:18Z</time>
      </trkpt>
      <trkpt lat="43.44462" lon="5.82159">
        <ele>500.5</ele>
        <time>2019-05-05T08:35:19Z</time>
      </trkpt>
      <trkpt lat="43.44439" lon="5.82198">
        <ele>499.06</ele>
        <time>2019-05-05T08:35:32Z</time>
      </trkpt>
      <trkpt lat="43.44423" lon="5.82236">
        <ele>498.1</ele>
        <time>2019-05-05T08:35:41Z</time>
      </trkpt>
      <trkpt lat="43.44421" lon="5.82242">
        <ele>498.1</ele>
        <time>2019-05-05T08:35:42Z</time>
      </trkpt>
      <trkpt lat="43.4442" lon="5.82247">
        <ele>498.1</ele>
        <time>2019-05-05T08:35:43Z</time>
      </trkpt>
      <trkpt lat="43.44413" lon="5.82273">
        <ele>497.14</ele>
        <time>2019-05-05T08:35:47Z</time>
      </trkpt>
      <trkpt lat="43.44412" lon="5.82278">
        <ele>497.14</ele>
        <time>2019-05-05T08:35:48Z</time>
      </trkpt>
      <trkpt lat="43.4441" lon="5.82284">
        <ele>497.14</ele>
        <time>2019-05-05T08:35:49Z</time>
      </trkpt>
      <trkpt lat="43.44407" lon="5.82289">
        <ele>496.66</ele>
        <time>2019-05-05T08:35:50Z</time>
      </trkpt>
      <trkpt lat="43.44405" lon="5.82294">
        <ele>496.66</ele>
        <time>2019-05-05T08:35:51Z</time>
      </trkpt>
      <trkpt lat="43.44399" lon="5.82307">
        <ele>495.22</ele>
        <time>2019-05-05T08:35:53Z</time>
      </trkpt>
      <trkpt lat="43.44397" lon="5.82314">
        <ele>495.22</ele>
        <time>2019-05-05T08:35:54Z</time>
      </trkpt>
      <trkpt lat="43.44395" lon="5.82321">
        <ele>494.26</ele>
        <time>2019-05-05T08:35:55Z</time>
      </trkpt>
      <trkpt lat="43.44392" lon="5.82327">
        <ele>494.26</ele>
        <time>2019-05-05T08:35:56Z</time>
      </trkpt>
      <trkpt lat="43.44389" lon="5.82332">
        <ele>493.77</ele>
        <time>2019-05-05T08:35:57Z</time>
      </trkpt>
      <trkpt lat="43.44368" lon="5.82371">
        <ele>491.85</ele>
        <time>2019-05-05T08:36:05Z</time>
      </trkpt>
      <trkpt lat="43.4436" lon="5.82391">
        <ele>491.85</ele>
        <time>2019-05-05T08:36:08Z</time>
      </trkpt>
      <trkpt lat="43.44336" lon="5.82442">
        <ele>489.45</ele>
        <time>2019-05-05T08:36:16Z</time>
      </trkpt>
      <trkpt lat="43.44335" lon="5.82448">
        <ele>488.97</ele>
        <time>2019-05-05T08:36:17Z</time>
      </trkpt>
      <trkpt lat="43.44335" lon="5.82452">
        <ele>488.01</ele>
        <time>2019-05-05T08:36:18Z</time>
      </trkpt>
      <trkpt lat="43.44335" lon="5.82455">
        <ele>487.53</ele>
        <time>2019-05-05T08:36:19Z</time>
      </trkpt>
      <trkpt lat="43.44335" lon="5.8246">
        <ele>487.05</ele>
        <time>2019-05-05T08:36:25Z</time>
      </trkpt>
      <trkpt lat="43.44341" lon="5.82477">
        <ele>487.05</ele>
        <time>2019-05-05T08:36:33Z</time>
      </trkpt>
      <trkpt lat="43.44338" lon="5.82491">
        <ele>488.01</ele>
        <time>2019-05-05T08:36:39Z</time>
      </trkpt>
      <trkpt lat="43.44334" lon="5.825">
        <ele>488.01</ele>
        <time>2019-05-05T08:36:44Z</time>
      </trkpt>
      <trkpt lat="43.44331" lon="5.82509">
        <ele>487.05</ele>
        <time>2019-05-05T08:36:48Z</time>
      </trkpt>
      <trkpt lat="43.44325" lon="5.82519">
        <ele>486.08</ele>
        <time>2019-05-05T08:36:54Z</time>
      </trkpt>
      <trkpt lat="43.44309" lon="5.82559">
        <ele>485.6</ele>
        <time>2019-05-05T08:37:08Z</time>
      </trkpt>
      <trkpt lat="43.44298" lon="5.82595">
        <ele>485.6</ele>
        <time>2019-05-05T08:37:19Z</time>
      </trkpt>
      <trkpt lat="43.44292" lon="5.8263">
        <ele>485.12</ele>
        <time>2019-05-05T08:37:28Z</time>
      </trkpt>
      <trkpt lat="43.4429" lon="5.82634">
        <ele>485.12</ele>
        <time>2019-05-05T08:37:29Z</time>
      </trkpt>
      <trkpt lat="43.44289" lon="5.82638">
        <ele>485.12</ele>
        <time>2019-05-05T08:37:30Z</time>
      </trkpt>
      <trkpt lat="43.44281" lon="5.82685">
        <ele>484.64</ele>
        <time>2019-05-05T08:37:40Z</time>
      </trkpt>
      <trkpt lat="43.44283" lon="5.82722">
        <ele>486.56</ele>
        <time>2019-05-05T08:37:47Z</time>
      </trkpt>
      <trkpt lat="43.44282" lon="5.82726">
        <ele>486.56</ele>
        <time>2019-05-05T08:37:48Z</time>
      </trkpt>
      <trkpt lat="43.4428" lon="5.82731">
        <ele>486.56</ele>
        <time>2019-05-05T08:37:49Z</time>
      </trkpt>
      <trkpt lat="43.44279" lon="5.82735">
        <ele>486.56</ele>
        <time>2019-05-05T08:37:50Z</time>
      </trkpt>
      <trkpt lat="43.44277" lon="5.82739">
        <ele>486.56</ele>
        <time>2019-05-05T08:37:51Z</time>
      </trkpt>
      <trkpt lat="43.44276" lon="5.82744">
        <ele>485.12</ele>
        <time>2019-05-05T08:37:52Z</time>
      </trkpt>
      <trkpt lat="43.44275" lon="5.82749">
        <ele>484.64</ele>
        <time>2019-05-05T08:37:53Z</time>
      </trkpt>
      <trkpt lat="43.44274" lon="5.82753">
        <ele>484.64</ele>
        <time>2019-05-05T08:37:54Z</time>
      </trkpt>
      <trkpt lat="43.44273" lon="5.82758">
        <ele>484.64</ele>
        <time>2019-05-05T08:37:55Z</time>
      </trkpt>
      <trkpt lat="43.44273" lon="5.82763">
        <ele>483.68</ele>
        <time>2019-05-05T08:37:56Z</time>
      </trkpt>
      <trkpt lat="43.44271" lon="5.82769">
        <ele>482.72</ele>
        <time>2019-05-05T08:37:57Z</time>
      </trkpt>
      <trkpt lat="43.4427" lon="5.82774">
        <ele>482.72</ele>
        <time>2019-05-05T08:37:58Z</time>
      </trkpt>
      <trkpt lat="43.44272" lon="5.82826">
        <ele>479.35</ele>
        <time>2019-05-05T08:38:08Z</time>
      </trkpt>
      <trkpt lat="43.44272" lon="5.82843">
        <ele>477.91</ele>
        <time>2019-05-05T08:38:19Z</time>
      </trkpt>
      <trkpt lat="43.44271" lon="5.82851">
        <ele>477.43</ele>
        <time>2019-05-05T08:38:39Z</time>
      </trkpt>
      <trkpt lat="43.44273" lon="5.82855">
        <ele>478.87</ele>
        <time>2019-05-05T08:39:08Z</time>
      </trkpt>
      <trkpt lat="43.44272" lon="5.82861">
        <ele>476.95</ele>
        <time>2019-05-05T08:39:28Z</time>
      </trkpt>
      <trkpt lat="43.44271" lon="5.82863">
        <ele>476.95</ele>
        <time>2019-05-05T08:39:44Z</time>
      </trkpt>
      <trkpt lat="43.44271" lon="5.82869">
        <ele>476.95</ele>
        <time>2019-05-05T08:39:47Z</time>
      </trkpt>
      <trkpt lat="43.4427" lon="5.82871">
        <ele>476.95</ele>
        <time>2019-05-05T08:39:48Z</time>
      </trkpt>
      <trkpt lat="43.4427" lon="5.82874">
        <ele>476.47</ele>
        <time>2019-05-05T08:39:49Z</time>
      </trkpt>
      <trkpt lat="43.44269" lon="5.82877">
        <ele>475.99</ele>
        <time>2019-05-05T08:39:50Z</time>
      </trkpt>
      <trkpt lat="43.44268" lon="5.8288">
        <ele>475.99</ele>
        <time>2019-05-05T08:39:51Z</time>
      </trkpt>
      <trkpt lat="43.44267" lon="5.82884">
        <ele>475.51</ele>
        <time>2019-05-05T08:39:52Z</time>
      </trkpt>
      <trkpt lat="43.44266" lon="5.82887">
        <ele>475.51</ele>
        <time>2019-05-05T08:39:53Z</time>
      </trkpt>
      <trkpt lat="43.44266" lon="5.82891">
        <ele>475.51</ele>
        <time>2019-05-05T08:39:54Z</time>
      </trkpt>
      <trkpt lat="43.44266" lon="5.82896">
        <ele>475.51</ele>
        <time>2019-05-05T08:39:55Z</time>
      </trkpt>
      <trkpt lat="43.44265" lon="5.8295">
        <ele>472.63</ele>
        <time>2019-05-05T08:40:08Z</time>
      </trkpt>
      <trkpt lat="43.44263" lon="5.83008">
        <ele>472.14</ele>
        <time>2019-05-05T08:40:21Z</time>
      </trkpt>
      <trkpt lat="43.44261" lon="5.83086">
        <ele>469.74</ele>
        <time>2019-05-05T08:40:34Z</time>
      </trkpt>
      <trkpt lat="43.44259" lon="5.83159">
        <ele>468.3</ele>
        <time>2019-05-05T08:40:46Z</time>
      </trkpt>
      <trkpt lat="43.44259" lon="5.83169">
        <ele>468.3</ele>
        <time>2019-05-05T08:40:48Z</time>
      </trkpt>
      <trkpt lat="43.44258" lon="5.83187">
        <ele>467.34</ele>
        <time>2019-05-05T08:40:51Z</time>
      </trkpt>
      <trkpt lat="43.44259" lon="5.83213">
        <ele>465.9</ele>
        <time>2019-05-05T08:40:55Z</time>
      </trkpt>
      <trkpt lat="43.44262" lon="5.83259">
        <ele>465.9</ele>
        <time>2019-05-05T08:41:03Z</time>
      </trkpt>
      <trkpt lat="43.44263" lon="5.83296">
        <ele>464.93</ele>
        <time>2019-05-05T08:41:09Z</time>
      </trkpt>
      <trkpt lat="43.44263" lon="5.83303">
        <ele>464.45</ele>
        <time>2019-05-05T08:41:10Z</time>
      </trkpt>
      <trkpt lat="43.44261" lon="5.83318">
        <ele>464.45</ele>
        <time>2019-05-05T08:41:12Z</time>
      </trkpt>
      <trkpt lat="43.44259" lon="5.83324">
        <ele>463.97</ele>
        <time>2019-05-05T08:41:13Z</time>
      </trkpt>
      <trkpt lat="43.44253" lon="5.83351">
        <ele>463.01</ele>
        <time>2019-05-05T08:41:17Z</time>
      </trkpt>
      <trkpt lat="43.44252" lon="5.83357">
        <ele>462.05</ele>
        <time>2019-05-05T08:41:18Z</time>
      </trkpt>
      <trkpt lat="43.44252" lon="5.83364">
        <ele>462.05</ele>
        <time>2019-05-05T08:41:19Z</time>
      </trkpt>
      <trkpt lat="43.44253" lon="5.8337">
        <ele>461.09</ele>
        <time>2019-05-05T08:41:20Z</time>
      </trkpt>
      <trkpt lat="43.44253" lon="5.83377">
        <ele>460.13</ele>
        <time>2019-05-05T08:41:21Z</time>
      </trkpt>
      <trkpt lat="43.44254" lon="5.83383">
        <ele>460.13</ele>
        <time>2019-05-05T08:41:22Z</time>
      </trkpt>
      <trkpt lat="43.44253" lon="5.83391">
        <ele>458.69</ele>
        <time>2019-05-05T08:41:23Z</time>
      </trkpt>
      <trkpt lat="43.44252" lon="5.83397">
        <ele>458.69</ele>
        <time>2019-05-05T08:41:24Z</time>
      </trkpt>
      <trkpt lat="43.44249" lon="5.83411">
        <ele>458.21</ele>
        <time>2019-05-05T08:41:26Z</time>
      </trkpt>
      <trkpt lat="43.44248" lon="5.83418">
        <ele>458.21</ele>
        <time>2019-05-05T08:41:27Z</time>
      </trkpt>
      <trkpt lat="43.44247" lon="5.83425">
        <ele>458.21</ele>
        <time>2019-05-05T08:41:28Z</time>
      </trkpt>
      <trkpt lat="43.44248" lon="5.83433">
        <ele>458.21</ele>
        <time>2019-05-05T08:41:29Z</time>
      </trkpt>
      <trkpt lat="43.44248" lon="5.83439">
        <ele>457.72</ele>
        <time>2019-05-05T08:41:30Z</time>
      </trkpt>
      <trkpt lat="43.44249" lon="5.83445">
        <ele>456.76</ele>
        <time>2019-05-05T08:41:31Z</time>
      </trkpt>
      <trkpt lat="43.44249" lon="5.83452">
        <ele>456.76</ele>
        <time>2019-05-05T08:41:32Z</time>
      </trkpt>
      <trkpt lat="43.44248" lon="5.83476">
        <ele>455.32</ele>
        <time>2019-05-05T08:41:35Z</time>
      </trkpt>
      <trkpt lat="43.44249" lon="5.83484">
        <ele>454.36</ele>
        <time>2019-05-05T08:41:36Z</time>
      </trkpt>
      <trkpt lat="43.44252" lon="5.83506">
        <ele>450.52</ele>
        <time>2019-05-05T08:41:39Z</time>
      </trkpt>
      <trkpt lat="43.44251" lon="5.83513">
        <ele>450.52</ele>
        <time>2019-05-05T08:41:40Z</time>
      </trkpt>
      <trkpt lat="43.44249" lon="5.83519">
        <ele>450.52</ele>
        <time>2019-05-05T08:41:41Z</time>
      </trkpt>
      <trkpt lat="43.44247" lon="5.83524">
        <ele>450.52</ele>
        <time>2019-05-05T08:41:42Z</time>
      </trkpt>
      <trkpt lat="43.44244" lon="5.83528">
        <ele>450.52</ele>
        <time>2019-05-05T08:41:43Z</time>
      </trkpt>
      <trkpt lat="43.44241" lon="5.83532">
        <ele>450.52</ele>
        <time>2019-05-05T08:41:44Z</time>
      </trkpt>
      <trkpt lat="43.44239" lon="5.83536">
        <ele>450.03</ele>
        <time>2019-05-05T08:41:45Z</time>
      </trkpt>
      <trkpt lat="43.44237" lon="5.83539">
        <ele>450.03</ele>
        <time>2019-05-05T08:41:46Z</time>
      </trkpt>
      <trkpt lat="43.44236" lon="5.83543">
        <ele>450.03</ele>
        <time>2019-05-05T08:41:47Z</time>
      </trkpt>
      <trkpt lat="43.44235" lon="5.83546">
        <ele>449.07</ele>
        <time>2019-05-05T08:41:48Z</time>
      </trkpt>
      <trkpt lat="43.44234" lon="5.8355">
        <ele>448.59</ele>
        <time>2019-05-05T08:41:49Z</time>
      </trkpt>
      <trkpt lat="43.44233" lon="5.83553">
        <ele>448.11</ele>
        <time>2019-05-05T08:41:50Z</time>
      </trkpt>
      <trkpt lat="43.44232" lon="5.83562">
        <ele>446.67</ele>
        <time>2019-05-05T08:41:53Z</time>
      </trkpt>
      <trkpt lat="43.4423" lon="5.83608">
        <ele>445.71</ele>
        <time>2019-05-05T08:42:06Z</time>
      </trkpt>
      <trkpt lat="43.44222" lon="5.83624">
        <ele>445.23</ele>
        <time>2019-05-05T08:42:10Z</time>
      </trkpt>
      <trkpt lat="43.4422" lon="5.8363">
        <ele>445.23</ele>
        <time>2019-05-05T08:42:11Z</time>
      </trkpt>
      <trkpt lat="43.44219" lon="5.83637">
        <ele>444.75</ele>
        <time>2019-05-05T08:42:12Z</time>
      </trkpt>
      <trkpt lat="43.44219" lon="5.83643">
        <ele>444.75</ele>
        <time>2019-05-05T08:42:13Z</time>
      </trkpt>
      <trkpt lat="43.44219" lon="5.8365">
        <ele>444.27</ele>
        <time>2019-05-05T08:42:14Z</time>
      </trkpt>
      <trkpt lat="43.44218" lon="5.83684">
        <ele>444.27</ele>
        <time>2019-05-05T08:42:20Z</time>
      </trkpt>
      <trkpt lat="43.44217" lon="5.8369">
        <ele>443.79</ele>
        <time>2019-05-05T08:42:21Z</time>
      </trkpt>
      <trkpt lat="43.44215" lon="5.8371">
        <ele>441.86</ele>
        <time>2019-05-05T08:42:24Z</time>
      </trkpt>
      <trkpt lat="43.44214" lon="5.83717">
        <ele>441.38</ele>
        <time>2019-05-05T08:42:25Z</time>
      </trkpt>
      <trkpt lat="43.44214" lon="5.83724">
        <ele>440.9</ele>
        <time>2019-05-05T08:42:26Z</time>
      </trkpt>
      <trkpt lat="43.44214" lon="5.8373">
        <ele>440.9</ele>
        <time>2019-05-05T08:42:27Z</time>
      </trkpt>
      <trkpt lat="43.44213" lon="5.83736">
        <ele>439.94</ele>
        <time>2019-05-05T08:42:28Z</time>
      </trkpt>
      <trkpt lat="43.44213" lon="5.83741">
        <ele>439.94</ele>
        <time>2019-05-05T08:42:29Z</time>
      </trkpt>
      <trkpt lat="43.44213" lon="5.83747">
        <ele>439.94</ele>
        <time>2019-05-05T08:42:30Z</time>
      </trkpt>
      <trkpt lat="43.44213" lon="5.83753">
        <ele>439.46</ele>
        <time>2019-05-05T08:42:31Z</time>
      </trkpt>
      <trkpt lat="43.44208" lon="5.83793">
        <ele>438.02</ele>
        <time>2019-05-05T08:42:37Z</time>
      </trkpt>
      <trkpt lat="43.44195" lon="5.83877">
        <ele>434.17</ele>
        <time>2019-05-05T08:42:48Z</time>
      </trkpt>
      <trkpt lat="43.44184" lon="5.83947">
        <ele>432.73</ele>
        <time>2019-05-05T08:42:58Z</time>
      </trkpt>
      <trkpt lat="43.44181" lon="5.83958">
        <ele>434.17</ele>
        <time>2019-05-05T08:43:00Z</time>
      </trkpt>
      <trkpt lat="43.44174" lon="5.83983">
        <ele>432.25</ele>
        <time>2019-05-05T08:43:05Z</time>
      </trkpt>
      <trkpt lat="43.44169" lon="5.84011">
        <ele>430.81</ele>
        <time>2019-05-05T08:43:10Z</time>
      </trkpt>
      <trkpt lat="43.44166" lon="5.84016">
        <ele>430.81</ele>
        <time>2019-05-05T08:43:11Z</time>
      </trkpt>
      <trkpt lat="43.44154" lon="5.84038">
        <ele>427.44</ele>
        <time>2019-05-05T08:43:16Z</time>
      </trkpt>
      <trkpt lat="43.44149" lon="5.84049">
        <ele>425.52</ele>
        <time>2019-05-05T08:43:18Z</time>
      </trkpt>
      <trkpt lat="43.44146" lon="5.84056">
        <ele>425.04</ele>
        <time>2019-05-05T08:43:19Z</time>
      </trkpt>
      <trkpt lat="43.44135" lon="5.84083">
        <ele>421.68</ele>
        <time>2019-05-05T08:43:23Z</time>
      </trkpt>
      <trkpt lat="43.44132" lon="5.8409">
        <ele>421.68</ele>
        <time>2019-05-05T08:43:24Z</time>
      </trkpt>
      <trkpt lat="43.44126" lon="5.84102">
        <ele>420.23</ele>
        <time>2019-05-05T08:43:26Z</time>
      </trkpt>
      <trkpt lat="43.44117" lon="5.84122">
        <ele>418.31</ele>
        <time>2019-05-05T08:43:29Z</time>
      </trkpt>
      <trkpt lat="43.4411" lon="5.84135">
        <ele>417.35</ele>
        <time>2019-05-05T08:43:31Z</time>
      </trkpt>
      <trkpt lat="43.44104" lon="5.84151">
        <ele>416.39</ele>
        <time>2019-05-05T08:43:33Z</time>
      </trkpt>
      <trkpt lat="43.44102" lon="5.84161">
        <ele>414.95</ele>
        <time>2019-05-05T08:43:34Z</time>
      </trkpt>
      <trkpt lat="43.44099" lon="5.8417">
        <ele>413.98</ele>
        <time>2019-05-05T08:43:35Z</time>
      </trkpt>
      <trkpt lat="43.44097" lon="5.84179">
        <ele>413.98</ele>
        <time>2019-05-05T08:43:36Z</time>
      </trkpt>
      <trkpt lat="43.44089" lon="5.84203">
        <ele>411.58</ele>
        <time>2019-05-05T08:43:39Z</time>
      </trkpt>
      <trkpt lat="43.4408" lon="5.84238">
        <ele>408.22</ele>
        <time>2019-05-05T08:43:47Z</time>
      </trkpt>
      <trkpt lat="43.44073" lon="5.8427">
        <ele>405.33</ele>
        <time>2019-05-05T08:43:55Z</time>
      </trkpt>
      <trkpt lat="43.44064" lon="5.84331">
        <ele>402.45</ele>
        <time>2019-05-05T08:44:06Z</time>
      </trkpt>
      <trkpt lat="43.44064" lon="5.84338">
        <ele>402.45</ele>
        <time>2019-05-05T08:44:07Z</time>
      </trkpt>
      <trkpt lat="43.44064" lon="5.84347">
        <ele>402.45</ele>
        <time>2019-05-05T08:44:08Z</time>
      </trkpt>
      <trkpt lat="43.44069" lon="5.84446">
        <ele>400.05</ele>
        <time>2019-05-05T08:44:22Z</time>
      </trkpt>
      <trkpt lat="43.4407" lon="5.84502">
        <ele>396.68</ele>
        <time>2019-05-05T08:44:32Z</time>
      </trkpt>
      <trkpt lat="43.44072" lon="5.84536">
        <ele>393.32</ele>
        <time>2019-05-05T08:44:38Z</time>
      </trkpt>
      <trkpt lat="43.44079" lon="5.84574">
        <ele>389.95</ele>
        <time>2019-05-05T08:44:43Z</time>
      </trkpt>
      <trkpt lat="43.44079" lon="5.84599">
        <ele>388.51</ele>
        <time>2019-05-05T08:44:46Z</time>
      </trkpt>
      <trkpt lat="43.44079" lon="5.84607">
        <ele>387.55</ele>
        <time>2019-05-05T08:44:47Z</time>
      </trkpt>
      <trkpt lat="43.44076" lon="5.84631">
        <ele>386.11</ele>
        <time>2019-05-05T08:44:50Z</time>
      </trkpt>
      <trkpt lat="43.44069" lon="5.84721">
        <ele>383.22</ele>
        <time>2019-05-05T08:44:59Z</time>
      </trkpt>
      <trkpt lat="43.44067" lon="5.84743">
        <ele>381.78</ele>
        <time>2019-05-05T08:45:01Z</time>
      </trkpt>
      <trkpt lat="43.44066" lon="5.84768">
        <ele>377.45</ele>
        <time>2019-05-05T08:45:03Z</time>
      </trkpt>
      <trkpt lat="43.44066" lon="5.84809">
        <ele>374.09</ele>
        <time>2019-05-05T08:45:06Z</time>
      </trkpt>
      <trkpt lat="43.44067" lon="5.84826">
        <ele>374.09</ele>
        <time>2019-05-05T08:45:07Z</time>
      </trkpt>
      <trkpt lat="43.44069" lon="5.8496">
        <ele>370.24</ele>
        <time>2019-05-05T08:45:17Z</time>
      </trkpt>
      <trkpt lat="43.4407" lon="5.8502">
        <ele>367.36</ele>
        <time>2019-05-05T08:45:22Z</time>
      </trkpt>
      <trkpt lat="43.44066" lon="5.85058">
        <ele>367.36</ele>
        <time>2019-05-05T08:45:25Z</time>
      </trkpt>
      <trkpt lat="43.44034" lon="5.85181">
        <ele>364</ele>
        <time>2019-05-05T08:45:35Z</time>
      </trkpt>
      <trkpt lat="43.44031" lon="5.85208">
        <ele>362.55</ele>
        <time>2019-05-05T08:45:37Z</time>
      </trkpt>
      <trkpt lat="43.44023" lon="5.85258">
        <ele>360.63</ele>
        <time>2019-05-05T08:45:42Z</time>
      </trkpt>
      <trkpt lat="43.4402" lon="5.85267">
        <ele>360.63</ele>
        <time>2019-05-05T08:45:43Z</time>
      </trkpt>
      <trkpt lat="43.44016" lon="5.85275">
        <ele>360.63</ele>
        <time>2019-05-05T08:45:44Z</time>
      </trkpt>
      <trkpt lat="43.44013" lon="5.85284">
        <ele>359.67</ele>
        <time>2019-05-05T08:45:45Z</time>
      </trkpt>
      <trkpt lat="43.44011" lon="5.85293">
        <ele>359.19</ele>
        <time>2019-05-05T08:45:46Z</time>
      </trkpt>
      <trkpt lat="43.4401" lon="5.85302">
        <ele>359.19</ele>
        <time>2019-05-05T08:45:47Z</time>
      </trkpt>
      <trkpt lat="43.44009" lon="5.85312">
        <ele>358.23</ele>
        <time>2019-05-05T08:45:48Z</time>
      </trkpt>
      <trkpt lat="43.44008" lon="5.85323">
        <ele>356.79</ele>
        <time>2019-05-05T08:45:49Z</time>
      </trkpt>
      <trkpt lat="43.44008" lon="5.85332">
        <ele>357.27</ele>
        <time>2019-05-05T08:45:50Z</time>
      </trkpt>
      <trkpt lat="43.44005" lon="5.85373">
        <ele>354.38</ele>
        <time>2019-05-05T08:45:54Z</time>
      </trkpt>
      <trkpt lat="43.44002" lon="5.85395">
        <ele>352.94</ele>
        <time>2019-05-05T08:45:56Z</time>
      </trkpt>
      <trkpt lat="43.44" lon="5.85403">
        <ele>352.94</ele>
        <time>2019-05-05T08:45:57Z</time>
      </trkpt>
      <trkpt lat="43.43995" lon="5.8543">
        <ele>351.5</ele>
        <time>2019-05-05T08:46:00Z</time>
      </trkpt>
      <trkpt lat="43.43994" lon="5.85438">
        <ele>351.02</ele>
        <time>2019-05-05T08:46:01Z</time>
      </trkpt>
      <trkpt lat="43.43991" lon="5.85493">
        <ele>349.1</ele>
        <time>2019-05-05T08:46:08Z</time>
      </trkpt>
      <trkpt lat="43.4399" lon="5.85502">
        <ele>349.1</ele>
        <time>2019-05-05T08:46:09Z</time>
      </trkpt>
      <trkpt lat="43.4398" lon="5.85541">
        <ele>347.17</ele>
        <time>2019-05-05T08:46:13Z</time>
      </trkpt>
      <trkpt lat="43.43967" lon="5.85632">
        <ele>346.69</ele>
        <time>2019-05-05T08:46:24Z</time>
      </trkpt>
      <trkpt lat="43.4396" lon="5.857">
        <ele>348.13</ele>
        <time>2019-05-05T08:46:37Z</time>
      </trkpt>
      <trkpt lat="43.43949" lon="5.85734">
        <ele>349.58</ele>
        <time>2019-05-05T08:46:49Z</time>
      </trkpt>
      <trkpt lat="43.43947" lon="5.85737">
        <ele>350.06</ele>
        <time>2019-05-05T08:46:50Z</time>
      </trkpt>
      <trkpt lat="43.43947" lon="5.85739">
        <ele>350.54</ele>
        <time>2019-05-05T08:46:51Z</time>
      </trkpt>
      <trkpt lat="43.43945" lon="5.85749">
        <ele>351.02</ele>
        <time>2019-05-05T08:46:56Z</time>
      </trkpt>
      <trkpt lat="43.43943" lon="5.85751">
        <ele>351.02</ele>
        <time>2019-05-05T08:46:57Z</time>
      </trkpt>
      <trkpt lat="43.43941" lon="5.85754">
        <ele>351.98</ele>
        <time>2019-05-05T08:46:58Z</time>
      </trkpt>
      <trkpt lat="43.43921" lon="5.85805">
        <ele>353.9</ele>
        <time>2019-05-05T08:47:10Z</time>
      </trkpt>
      <trkpt lat="43.43904" lon="5.85849">
        <ele>353.9</ele>
        <time>2019-05-05T08:47:25Z</time>
      </trkpt>
      <trkpt lat="43.43887" lon="5.85882">
        <ele>353.42</ele>
        <time>2019-05-05T08:47:35Z</time>
      </trkpt>
      <trkpt lat="43.43886" lon="5.85884">
        <ele>353.42</ele>
        <time>2019-05-05T08:47:36Z</time>
      </trkpt>
      <trkpt lat="43.43862" lon="5.85915">
        <ele>353.42</ele>
        <time>2019-05-05T08:47:48Z</time>
      </trkpt>
      <trkpt lat="43.43859" lon="5.85918">
        <ele>353.42</ele>
        <time>2019-05-05T08:47:49Z</time>
      </trkpt>
      <trkpt lat="43.43857" lon="5.85923">
        <ele>353.42</ele>
        <time>2019-05-05T08:47:50Z</time>
      </trkpt>
      <trkpt lat="43.43857" lon="5.85928">
        <ele>353.42</ele>
        <time>2019-05-05T08:47:51Z</time>
      </trkpt>
      <trkpt lat="43.43856" lon="5.8594">
        <ele>353.42</ele>
        <time>2019-05-05T08:47:53Z</time>
      </trkpt>
      <trkpt lat="43.43858" lon="5.85947">
        <ele>353.42</ele>
        <time>2019-05-05T08:47:54Z</time>
      </trkpt>
      <trkpt lat="43.43859" lon="5.85952">
        <ele>353.42</ele>
        <time>2019-05-05T08:47:55Z</time>
      </trkpt>
      <trkpt lat="43.4387" lon="5.85978">
        <ele>353.42</ele>
        <time>2019-05-05T08:47:59Z</time>
      </trkpt>
      <trkpt lat="43.43874" lon="5.85984">
        <ele>353.42</ele>
        <time>2019-05-05T08:48:00Z</time>
      </trkpt>
      <trkpt lat="43.43879" lon="5.85989">
        <ele>352.94</ele>
        <time>2019-05-05T08:48:01Z</time>
      </trkpt>
      <trkpt lat="43.43883" lon="5.85995">
        <ele>352.94</ele>
        <time>2019-05-05T08:48:02Z</time>
      </trkpt>
      <trkpt lat="43.43887" lon="5.86002">
        <ele>352.94</ele>
        <time>2019-05-05T08:48:03Z</time>
      </trkpt>
      <trkpt lat="43.43891" lon="5.86008">
        <ele>352.94</ele>
        <time>2019-05-05T08:48:04Z</time>
      </trkpt>
      <trkpt lat="43.43895" lon="5.86016">
        <ele>351.98</ele>
        <time>2019-05-05T08:48:05Z</time>
      </trkpt>
      <trkpt lat="43.43943" lon="5.86127">
        <ele>349.1</ele>
        <time>2019-05-05T08:48:19Z</time>
      </trkpt>
      <trkpt lat="43.43964" lon="5.8619">
        <ele>345.25</ele>
        <time>2019-05-05T08:48:26Z</time>
      </trkpt>
      <trkpt lat="43.43994" lon="5.86285">
        <ele>343.33</ele>
        <time>2019-05-05T08:48:39Z</time>
      </trkpt>
      <trkpt lat="43.43998" lon="5.86289">
        <ele>343.33</ele>
        <time>2019-05-05T08:48:40Z</time>
      </trkpt>
      <trkpt lat="43.44003" lon="5.86292">
        <ele>343.33</ele>
        <time>2019-05-05T08:48:41Z</time>
      </trkpt>
      <trkpt lat="43.44006" lon="5.86293">
        <ele>343.33</ele>
        <time>2019-05-05T08:48:42Z</time>
      </trkpt>
      <trkpt lat="43.44011" lon="5.86295">
        <ele>345.25</ele>
        <time>2019-05-05T08:48:43Z</time>
      </trkpt>
      <trkpt lat="43.44015" lon="5.86296">
        <ele>345.73</ele>
        <time>2019-05-05T08:48:44Z</time>
      </trkpt>
      <trkpt lat="43.44019" lon="5.86296">
        <ele>345.73</ele>
        <time>2019-05-05T08:48:45Z</time>
      </trkpt>
      <trkpt lat="43.44027" lon="5.86296">
        <ele>343.81</ele>
        <time>2019-05-05T08:48:47Z</time>
      </trkpt>
      <trkpt lat="43.44037" lon="5.86292">
        <ele>341.41</ele>
        <time>2019-05-05T08:48:50Z</time>
      </trkpt>
      <trkpt lat="43.44039" lon="5.86287">
        <ele>340.44</ele>
        <time>2019-05-05T08:48:51Z</time>
      </trkpt>
      <trkpt lat="43.44039" lon="5.86281">
        <ele>340.44</ele>
        <time>2019-05-05T08:48:52Z</time>
      </trkpt>
      <trkpt lat="43.44039" lon="5.86277">
        <ele>340.44</ele>
        <time>2019-05-05T08:48:53Z</time>
      </trkpt>
      <trkpt lat="43.44037" lon="5.86273">
        <ele>341.89</ele>
        <time>2019-05-05T08:48:54Z</time>
      </trkpt>
      <trkpt lat="43.44036" lon="5.86268">
        <ele>341.89</ele>
        <time>2019-05-05T08:48:55Z</time>
      </trkpt>
      <trkpt lat="43.44034" lon="5.86247">
        <ele>344.29</ele>
        <time>2019-05-05T08:48:59Z</time>
      </trkpt>
      <trkpt lat="43.44033" lon="5.86213">
        <ele>346.21</ele>
        <time>2019-05-05T08:49:06Z</time>
      </trkpt>
      <trkpt lat="43.44028" lon="5.86164">
        <ele>348.13</ele>
        <time>2019-05-05T08:49:19Z</time>
      </trkpt>
      <trkpt lat="43.44026" lon="5.8616">
        <ele>348.13</ele>
        <time>2019-05-05T08:49:20Z</time>
      </trkpt>
      <trkpt lat="43.44025" lon="5.86159">
        <ele>348.13</ele>
        <time>2019-05-05T08:49:21Z</time>
      </trkpt>
      <trkpt lat="43.44022" lon="5.86159">
        <ele>349.1</ele>
        <time>2019-05-05T08:49:22Z</time>
      </trkpt>
      <trkpt lat="43.43997" lon="5.86154">
        <ele>350.06</ele>
        <time>2019-05-05T08:49:33Z</time>
      </trkpt>
      <trkpt lat="43.43996" lon="5.86151">
        <ele>350.06</ele>
        <time>2019-05-05T08:49:34Z</time>
      </trkpt>
      <trkpt lat="43.43995" lon="5.86148">
        <ele>350.06</ele>
        <time>2019-05-05T08:49:35Z</time>
      </trkpt>
      <trkpt lat="43.43994" lon="5.86145">
        <ele>350.06</ele>
        <time>2019-05-05T08:49:36Z</time>
      </trkpt>
      <trkpt lat="43.43993" lon="5.86141">
        <ele>350.06</ele>
        <time>2019-05-05T08:49:37Z</time>
      </trkpt>
      <trkpt lat="43.43992" lon="5.86138">
        <ele>350.06</ele>
        <time>2019-05-05T08:49:38Z</time>
      </trkpt>
      <trkpt lat="43.43978" lon="5.86099">
        <ele>351.98</ele>
        <time>2019-05-05T08:49:50Z</time>
      </trkpt>
      <trkpt lat="43.43965" lon="5.86076">
        <ele>351.98</ele>
        <time>2019-05-05T08:49:58Z</time>
      </trkpt>
      <trkpt lat="43.43969" lon="5.86066">
        <ele>351.98</ele>
        <time>2019-05-05T08:50:02Z</time>
      </trkpt>
      <trkpt lat="43.43969" lon="5.86063">
        <ele>351.98</ele>
        <time>2019-05-05T08:50:03Z</time>
      </trkpt>
      <trkpt lat="43.4397" lon="5.8606">
        <ele>351.98</ele>
        <time>2019-05-05T08:50:04Z</time>
      </trkpt>
      <trkpt lat="43.43971" lon="5.86048">
        <ele>352.46</ele>
        <time>2019-05-05T08:50:08Z</time>
      </trkpt>
      <trkpt lat="43.43972" lon="5.86043">
        <ele>351.02</ele>
        <time>2019-05-05T08:50:11Z</time>
      </trkpt>
      <trkpt lat="43.43972" lon="5.86041">
        <ele>352.46</ele>
        <time>2019-05-05T08:50:14Z</time>
      </trkpt>
      <trkpt lat="43.43971" lon="5.86025">
        <ele>352.46</ele>
        <time>2019-05-05T08:50:37Z</time>
      </trkpt>
      <trkpt lat="43.43972" lon="5.86025">
        <ele>352.46</ele>
        <time>2019-05-05T08:50:57Z</time>
      </trkpt>
      <trkpt lat="43.43974" lon="5.86024">
        <ele>351.5</ele>
        <time>2019-05-05T08:51:10Z</time>
      </trkpt>
      <trkpt lat="43.43974" lon="5.86024">
        <ele>353.42</ele>
        <time>2019-05-05T08:51:14Z</time>
      </trkpt>
      <trkpt lat="43.43973" lon="5.86024">
        <ele>352.94</ele>
        <time>2019-05-05T08:51:41Z</time>
      </trkpt>
      <trkpt lat="43.43973" lon="5.86025">
        <ele>351.02</ele>
        <time>2019-05-05T08:51:54Z</time>
      </trkpt>
      <trkpt lat="43.43973" lon="5.86025">
        <ele>353.42</ele>
        <time>2019-05-05T08:51:57Z</time>
      </trkpt>
      <trkpt lat="43.43974" lon="5.86026">
        <ele>352.46</ele>
        <time>2019-05-05T08:52:10Z</time>
      </trkpt>
      <trkpt lat="43.43974" lon="5.86025">
        <ele>353.42</ele>
        <time>2019-05-05T08:52:14Z</time>
      </trkpt>
    </trkseg>
  </trk>
  <trk>
    <name><![CDATA[2019-05-12 11:39:10]]></name>
    <trkseg>
      <trkpt lat="43.4405" lon="5.86298">
        <ele>347.65</ele>
        <time>2019-05-12T07:26:19Z</time>
      </trkpt>
      <trkpt lat="43.44053" lon="5.86298">
        <ele>348.13</ele>
        <time>2019-05-12T07:26:20Z</time>
      </trkpt>
      <trkpt lat="43.44055" lon="5.86297">
        <ele>348.13</ele>
        <time>2019-05-12T07:26:21Z</time>
      </trkpt>
      <trkpt lat="43.44058" lon="5.86295">
        <ele>348.13</ele>
        <time>2019-05-12T07:26:22Z</time>
      </trkpt>
      <trkpt lat="43.44141" lon="5.86263">
        <ele>347.17</ele>
        <time>2019-05-12T07:26:40Z</time>
      </trkpt>
      <trkpt lat="43.44235" lon="5.86227">
        <ele>345.73</ele>
        <time>2019-05-12T07:26:59Z</time>
      </trkpt>
      <trkpt lat="43.44318" lon="5.86191">
        <ele>345.73</ele>
        <time>2019-05-12T07:27:16Z</time>
      </trkpt>
      <trkpt lat="43.44367" lon="5.86139">
        <ele>343.33</ele>
        <time>2019-05-12T07:27:27Z</time>
      </trkpt>
      <trkpt lat="43.44371" lon="5.86133">
        <ele>343.33</ele>
        <time>2019-05-12T07:27:28Z</time>
      </trkpt>
      <trkpt lat="43.44399" lon="5.86053">
        <ele>339.96</ele>
        <time>2019-05-12T07:27:38Z</time>
      </trkpt>
      <trkpt lat="43.44425" lon="5.85966">
        <ele>337.56</ele>
        <time>2019-05-12T07:27:52Z</time>
      </trkpt>
      <trkpt lat="43.44434" lon="5.85961">
        <ele>337.56</ele>
        <time>2019-05-12T07:27:55Z</time>
      </trkpt>
      <trkpt lat="43.44439" lon="5.85962">
        <ele>337.08</ele>
        <time>2019-05-12T07:27:56Z</time>
      </trkpt>
      <trkpt lat="43.44512" lon="5.8599">
        <ele>334.68</ele>
        <time>2019-05-12T07:28:12Z</time>
      </trkpt>
      <trkpt lat="43.44563" lon="5.86008">
        <ele>333.23</ele>
        <time>2019-05-12T07:28:23Z</time>
      </trkpt>
      <trkpt lat="43.44568" lon="5.8601">
        <ele>333.23</ele>
        <time>2019-05-12T07:28:24Z</time>
      </trkpt>
      <trkpt lat="43.44607" lon="5.86022">
        <ele>332.27</ele>
        <time>2019-05-12T07:28:36Z</time>
      </trkpt>
      <trkpt lat="43.44625" lon="5.86028">
        <ele>330.83</ele>
        <time>2019-05-12T07:28:46Z</time>
      </trkpt>
      <trkpt lat="43.44637" lon="5.8604">
        <ele>329.87</ele>
        <time>2019-05-12T07:28:52Z</time>
      </trkpt>
      <trkpt lat="43.44639" lon="5.86041">
        <ele>329.87</ele>
        <time>2019-05-12T07:28:53Z</time>
      </trkpt>
      <trkpt lat="43.4464" lon="5.86041">
        <ele>329.39</ele>
        <time>2019-05-12T07:28:54Z</time>
      </trkpt>
      <trkpt lat="43.44644" lon="5.86037">
        <ele>329.39</ele>
        <time>2019-05-12T07:29:08Z</time>
      </trkpt>
      <trkpt lat="43.44646" lon="5.86036">
        <ele>329.39</ele>
        <time>2019-05-12T07:29:30Z</time>
      </trkpt>
      <trkpt lat="43.44646" lon="5.86035">
        <ele>329.39</ele>
        <time>2019-05-12T07:29:32Z</time>
      </trkpt>
      <trkpt lat="43.44647" lon="5.86032">
        <ele>329.39</ele>
        <time>2019-05-12T07:29:33Z</time>
      </trkpt>
      <trkpt lat="43.44647" lon="5.86028">
        <ele>329.39</ele>
        <time>2019-05-12T07:29:34Z</time>
      </trkpt>
      <trkpt lat="43.44652" lon="5.86003">
        <ele>330.83</ele>
        <time>2019-05-12T07:29:41Z</time>
      </trkpt>
      <trkpt lat="43.44651" lon="5.86">
        <ele>330.83</ele>
        <time>2019-05-12T07:29:42Z</time>
      </trkpt>
      <trkpt lat="43.44651" lon="5.85997">
        <ele>330.83</ele>
        <time>2019-05-12T07:29:43Z</time>
      </trkpt>
      <trkpt lat="43.44651" lon="5.85995">
        <ele>330.35</ele>
        <time>2019-05-12T07:29:44Z</time>
      </trkpt>
      <trkpt lat="43.44664" lon="5.85974">
        <ele>330.35</ele>
        <time>2019-05-12T07:29:59Z</time>
      </trkpt>
      <trkpt lat="43.44667" lon="5.85971">
        <ele>330.35</ele>
        <time>2019-05-12T07:30:01Z</time>
      </trkpt>
      <trkpt lat="43.44669" lon="5.85969">
        <ele>330.83</ele>
        <time>2019-05-12T07:30:03Z</time>
      </trkpt>
      <trkpt lat="43.4467" lon="5.85967">
        <ele>330.83</ele>
        <time>2019-05-12T07:30:04Z</time>
      </trkpt>
      <trkpt lat="43.4467" lon="5.85966">
        <ele>330.83</ele>
        <time>2019-05-12T07:30:05Z</time>
      </trkpt>
      <trkpt lat="43.44671" lon="5.85966">
        <ele>331.31</ele>
        <time>2019-05-12T07:30:16Z</time>
      </trkpt>
      <trkpt lat="43.4467" lon="5.8597">
        <ele>330.83</ele>
        <time>2019-05-12T07:30:38Z</time>
      </trkpt>
      <trkpt lat="43.44669" lon="5.85973">
        <ele>330.83</ele>
        <time>2019-05-12T07:30:40Z</time>
      </trkpt>
      <trkpt lat="43.44666" lon="5.85973">
        <ele>329.87</ele>
        <time>2019-05-12T07:30:44Z</time>
      </trkpt>
      <trkpt lat="43.4466" lon="5.85975">
        <ele>329.87</ele>
        <time>2019-05-12T07:30:55Z</time>
      </trkpt>
      <trkpt lat="43.44659" lon="5.85979">
        <ele>329.87</ele>
        <time>2019-05-12T07:31:11Z</time>
      </trkpt>
      <trkpt lat="43.44659" lon="5.85985">
        <ele>329.39</ele>
        <time>2019-05-12T07:31:26Z</time>
      </trkpt>
      <trkpt lat="43.44659" lon="5.85986">
        <ele>329.39</ele>
        <time>2019-05-12T07:31:27Z</time>
      </trkpt>
      <trkpt lat="43.44655" lon="5.85997">
        <ele>329.39</ele>
        <time>2019-05-12T07:31:33Z</time>
      </trkpt>
      <trkpt lat="43.44655" lon="5.85999">
        <ele>329.39</ele>
        <time>2019-05-12T07:31:34Z</time>
      </trkpt>
      <trkpt lat="43.44655" lon="5.86001">
        <ele>329.39</ele>
        <time>2019-05-12T07:31:35Z</time>
      </trkpt>
      <trkpt lat="43.44653" lon="5.86008">
        <ele>329.39</ele>
        <time>2019-05-12T07:31:46Z</time>
      </trkpt>
      <trkpt lat="43.44651" lon="5.86024">
        <ele>329.39</ele>
        <time>2019-05-12T07:31:50Z</time>
      </trkpt>
      <trkpt lat="43.44653" lon="5.86028">
        <ele>329.39</ele>
        <time>2019-05-12T07:31:51Z</time>
      </trkpt>
      <trkpt lat="43.44657" lon="5.86031">
        <ele>329.39</ele>
        <time>2019-05-12T07:31:52Z</time>
      </trkpt>
      <trkpt lat="43.44664" lon="5.86037">
        <ele>329.39</ele>
        <time>2019-05-12T07:31:54Z</time>
      </trkpt>
      <trkpt lat="43.44735" lon="5.8606">
        <ele>326.5</ele>
        <time>2019-05-12T07:32:10Z</time>
      </trkpt>
      <trkpt lat="43.44806" lon="5.86076">
        <ele>325.06</ele>
        <time>2019-05-12T07:32:24Z</time>
      </trkpt>
      <trkpt lat="43.44812" lon="5.86077">
        <ele>324.58</ele>
        <time>2019-05-12T07:32:25Z</time>
      </trkpt>
      <trkpt lat="43.44817" lon="5.86078">
        <ele>324.58</ele>
        <time>2019-05-12T07:32:26Z</time>
      </trkpt>
      <trkpt lat="43.44821" lon="5.86083">
        <ele>324.58</ele>
        <time>2019-05-12T07:32:27Z</time>
      </trkpt>
      <trkpt lat="43.44824" lon="5.86089">
        <ele>324.58</ele>
        <time>2019-05-12T07:32:28Z</time>
      </trkpt>
      <trkpt lat="43.44826" lon="5.86097">
        <ele>324.58</ele>
        <time>2019-05-12T07:32:29Z</time>
      </trkpt>
      <trkpt lat="43.44827" lon="5.86104">
        <ele>324.58</ele>
        <time>2019-05-12T07:32:30Z</time>
      </trkpt>
      <trkpt lat="43.4483" lon="5.86117">
        <ele>324.58</ele>
        <time>2019-05-12T07:32:32Z</time>
      </trkpt>
      <trkpt lat="43.44833" lon="5.86122">
        <ele>324.58</ele>
        <time>2019-05-12T07:32:33Z</time>
      </trkpt>
      <trkpt lat="43.44837" lon="5.86127">
        <ele>324.58</ele>
        <time>2019-05-12T07:32:34Z</time>
      </trkpt>
      <trkpt lat="43.44842" lon="5.86129">
        <ele>324.58</ele>
        <time>2019-05-12T07:32:35Z</time>
      </trkpt>
      <trkpt lat="43.44847" lon="5.8613">
        <ele>325.54</ele>
        <time>2019-05-12T07:32:36Z</time>
      </trkpt>
      <trkpt lat="43.44853" lon="5.86129">
        <ele>325.54</ele>
        <time>2019-05-12T07:32:37Z</time>
      </trkpt>
      <trkpt lat="43.44858" lon="5.86127">
        <ele>325.54</ele>
        <time>2019-05-12T07:32:38Z</time>
      </trkpt>
      <trkpt lat="43.44863" lon="5.86125">
        <ele>325.54</ele>
        <time>2019-05-12T07:32:39Z</time>
      </trkpt>
      <trkpt lat="43.44868" lon="5.86124">
        <ele>325.54</ele>
        <time>2019-05-12T07:32:40Z</time>
      </trkpt>
      <trkpt lat="43.44874" lon="5.86124">
        <ele>324.1</ele>
        <time>2019-05-12T07:32:41Z</time>
      </trkpt>
      <trkpt lat="43.4488" lon="5.86124">
        <ele>324.1</ele>
        <time>2019-05-12T07:32:42Z</time>
      </trkpt>
      <trkpt lat="43.44949" lon="5.86143">
        <ele>321.7</ele>
        <time>2019-05-12T07:32:54Z</time>
      </trkpt>
      <trkpt lat="43.45009" lon="5.86165">
        <ele>319.78</ele>
        <time>2019-05-12T07:33:07Z</time>
      </trkpt>
      <trkpt lat="43.45084" lon="5.86192">
        <ele>318.81</ele>
        <time>2019-05-12T07:33:21Z</time>
      </trkpt>
      <trkpt lat="43.45118" lon="5.86207">
        <ele>317.85</ele>
        <time>2019-05-12T07:33:29Z</time>
      </trkpt>
      <trkpt lat="43.45124" lon="5.86208">
        <ele>317.85</ele>
        <time>2019-05-12T07:33:30Z</time>
      </trkpt>
      <trkpt lat="43.4513" lon="5.86208">
        <ele>317.85</ele>
        <time>2019-05-12T07:33:31Z</time>
      </trkpt>
      <trkpt lat="43.45134" lon="5.86206">
        <ele>317.85</ele>
        <time>2019-05-12T07:33:32Z</time>
      </trkpt>
      <trkpt lat="43.45138" lon="5.86201">
        <ele>317.85</ele>
        <time>2019-05-12T07:33:33Z</time>
      </trkpt>
      <trkpt lat="43.45141" lon="5.86195">
        <ele>317.85</ele>
        <time>2019-05-12T07:33:34Z</time>
      </trkpt>
      <trkpt lat="43.45144" lon="5.86188">
        <ele>317.85</ele>
        <time>2019-05-12T07:33:35Z</time>
      </trkpt>
      <trkpt lat="43.45146" lon="5.86181">
        <ele>317.85</ele>
        <time>2019-05-12T07:33:36Z</time>
      </trkpt>
      <trkpt lat="43.45148" lon="5.86175">
        <ele>317.85</ele>
        <time>2019-05-12T07:33:37Z</time>
      </trkpt>
      <trkpt lat="43.45151" lon="5.86168">
        <ele>317.85</ele>
        <time>2019-05-12T07:33:38Z</time>
      </trkpt>
      <trkpt lat="43.45154" lon="5.86161">
        <ele>317.37</ele>
        <time>2019-05-12T07:33:39Z</time>
      </trkpt>
      <trkpt lat="43.45177" lon="5.86094">
        <ele>317.85</ele>
        <time>2019-05-12T07:33:48Z</time>
      </trkpt>
      <trkpt lat="43.45182" lon="5.86079">
        <ele>316.89</ele>
        <time>2019-05-12T07:33:50Z</time>
      </trkpt>
      <trkpt lat="43.45197" lon="5.86037">
        <ele>315.45</ele>
        <time>2019-05-12T07:33:55Z</time>
      </trkpt>
      <trkpt lat="43.45202" lon="5.86031">
        <ele>314.97</ele>
        <time>2019-05-12T07:33:56Z</time>
      </trkpt>
      <trkpt lat="43.45207" lon="5.86027">
        <ele>315.45</ele>
        <time>2019-05-12T07:33:57Z</time>
      </trkpt>
      <trkpt lat="43.45212" lon="5.86025">
        <ele>314.49</ele>
        <time>2019-05-12T07:33:58Z</time>
      </trkpt>
      <trkpt lat="43.45217" lon="5.86024">
        <ele>314.49</ele>
        <time>2019-05-12T07:33:59Z</time>
      </trkpt>
      <trkpt lat="43.45223" lon="5.86024">
        <ele>314.49</ele>
        <time>2019-05-12T07:34:00Z</time>
      </trkpt>
      <trkpt lat="43.45259" lon="5.86027">
        <ele>313.53</ele>
        <time>2019-05-12T07:34:06Z</time>
      </trkpt>
      <trkpt lat="43.45277" lon="5.86028">
        <ele>313.53</ele>
        <time>2019-05-12T07:34:09Z</time>
      </trkpt>
      <trkpt lat="43.45314" lon="5.86017">
        <ele>312.09</ele>
        <time>2019-05-12T07:34:19Z</time>
      </trkpt>
      <trkpt lat="43.45318" lon="5.86014">
        <ele>312.09</ele>
        <time>2019-05-12T07:34:21Z</time>
      </trkpt>
      <trkpt lat="43.4532" lon="5.86013">
        <ele>312.57</ele>
        <time>2019-05-12T07:34:22Z</time>
      </trkpt>
      <trkpt lat="43.45322" lon="5.86013">
        <ele>312.57</ele>
        <time>2019-05-12T07:34:23Z</time>
      </trkpt>
      <trkpt lat="43.45324" lon="5.86014">
        <ele>312.57</ele>
        <time>2019-05-12T07:34:24Z</time>
      </trkpt>
      <trkpt lat="43.45325" lon="5.86015">
        <ele>312.57</ele>
        <time>2019-05-12T07:34:25Z</time>
      </trkpt>
      <trkpt lat="43.45345" lon="5.86027">
        <ele>312.09</ele>
        <time>2019-05-12T07:34:37Z</time>
      </trkpt>
      <trkpt lat="43.45347" lon="5.86028">
        <ele>312.09</ele>
        <time>2019-05-12T07:34:38Z</time>
      </trkpt>
      <trkpt lat="43.45349" lon="5.86031">
        <ele>312.09</ele>
        <time>2019-05-12T07:34:41Z</time>
      </trkpt>
      <trkpt lat="43.45356" lon="5.86032">
        <ele>311.6</ele>
        <time>2019-05-12T07:34:45Z</time>
      </trkpt>
      <trkpt lat="43.45374" lon="5.86037">
        <ele>312.09</ele>
        <time>2019-05-12T07:34:54Z</time>
      </trkpt>
      <trkpt lat="43.45375" lon="5.86038">
        <ele>312.09</ele>
        <time>2019-05-12T07:34:55Z</time>
      </trkpt>
      <trkpt lat="43.45375" lon="5.8604">
        <ele>312.09</ele>
        <time>2019-05-12T07:34:56Z</time>
      </trkpt>
      <trkpt lat="43.45378" lon="5.86051">
        <ele>312.09</ele>
        <time>2019-05-12T07:35:01Z</time>
      </trkpt>
      <trkpt lat="43.4538" lon="5.86051">
        <ele>312.09</ele>
        <time>2019-05-12T07:35:02Z</time>
      </trkpt>
      <trkpt lat="43.45381" lon="5.86051">
        <ele>312.09</ele>
        <time>2019-05-12T07:35:03Z</time>
      </trkpt>
      <trkpt lat="43.45383" lon="5.86051">
        <ele>312.09</ele>
        <time>2019-05-12T07:35:04Z</time>
      </trkpt>
      <trkpt lat="43.45384" lon="5.86052">
        <ele>312.09</ele>
        <time>2019-05-12T07:35:05Z</time>
      </trkpt>
      <trkpt lat="43.45386" lon="5.86053">
        <ele>312.09</ele>
        <time>2019-05-12T07:35:06Z</time>
      </trkpt>
      <trkpt lat="43.45388" lon="5.86053">
        <ele>312.09</ele>
        <time>2019-05-12T07:35:07Z</time>
      </trkpt>
      <trkpt lat="43.45391" lon="5.86053">
        <ele>311.6</ele>
        <time>2019-05-12T07:35:08Z</time>
      </trkpt>
      <trkpt lat="43.45432" lon="5.86069">
        <ele>311.6</ele>
        <time>2019-05-12T07:35:19Z</time>
      </trkpt>
      <trkpt lat="43.455" lon="5.86102">
        <ele>308.72</ele>
        <time>2019-05-12T07:35:32Z</time>
      </trkpt>
      <trkpt lat="43.45606" lon="5.86163">
        <ele>306.32</ele>
        <time>2019-05-12T07:35:51Z</time>
      </trkpt>
      <trkpt lat="43.45617" lon="5.86167">
        <ele>306.32</ele>
        <time>2019-05-12T07:35:53Z</time>
      </trkpt>
      <trkpt lat="43.45622" lon="5.86167">
        <ele>306.32</ele>
        <time>2019-05-12T07:35:54Z</time>
      </trkpt>
      <trkpt lat="43.45626" lon="5.86167">
        <ele>305.36</ele>
        <time>2019-05-12T07:35:55Z</time>
      </trkpt>
      <trkpt lat="43.45636" lon="5.86162">
        <ele>305.36</ele>
        <time>2019-05-12T07:35:57Z</time>
      </trkpt>
      <trkpt lat="43.45642" lon="5.86161">
        <ele>305.36</ele>
        <time>2019-05-12T07:35:58Z</time>
      </trkpt>
      <trkpt lat="43.45691" lon="5.86148">
        <ele>305.36</ele>
        <time>2019-05-12T07:36:08Z</time>
      </trkpt>
      <trkpt lat="43.45773" lon="5.86145">
        <ele>303.91</ele>
        <time>2019-05-12T07:36:25Z</time>
      </trkpt>
      <trkpt lat="43.45788" lon="5.86146">
        <ele>306.32</ele>
        <time>2019-05-12T07:36:28Z</time>
      </trkpt>
      <trkpt lat="43.45812" lon="5.86147">
        <ele>304.88</ele>
        <time>2019-05-12T07:36:33Z</time>
      </trkpt>
      <trkpt lat="43.45855" lon="5.86146">
        <ele>303.91</ele>
        <time>2019-05-12T07:36:42Z</time>
      </trkpt>
      <trkpt lat="43.45859" lon="5.86144">
        <ele>303.91</ele>
        <time>2019-05-12T07:36:43Z</time>
      </trkpt>
      <trkpt lat="43.45863" lon="5.86141">
        <ele>303.91</ele>
        <time>2019-05-12T07:36:44Z</time>
      </trkpt>
      <trkpt lat="43.45865" lon="5.86136">
        <ele>304.88</ele>
        <time>2019-05-12T07:36:45Z</time>
      </trkpt>
      <trkpt lat="43.45867" lon="5.8613">
        <ele>305.36</ele>
        <time>2019-05-12T07:36:46Z</time>
      </trkpt>
      <trkpt lat="43.45868" lon="5.86124">
        <ele>305.36</ele>
        <time>2019-05-12T07:36:47Z</time>
      </trkpt>
      <trkpt lat="43.45869" lon="5.86034">
        <ele>305.36</ele>
        <time>2019-05-12T07:37:03Z</time>
      </trkpt>
      <trkpt lat="43.45867" lon="5.86004">
        <ele>305.36</ele>
        <time>2019-05-12T07:37:12Z</time>
      </trkpt>
      <trkpt lat="43.45868" lon="5.86004">
        <ele>305.36</ele>
        <time>2019-05-12T07:37:13Z</time>
      </trkpt>
      <trkpt lat="43.45869" lon="5.86004">
        <ele>305.36</ele>
        <time>2019-05-12T07:37:14Z</time>
      </trkpt>
      <trkpt lat="43.4587" lon="5.86004">
        <ele>305.36</ele>
        <time>2019-05-12T07:37:15Z</time>
      </trkpt>
      <trkpt lat="43.45872" lon="5.86004">
        <ele>305.36</ele>
        <time>2019-05-12T07:37:16Z</time>
      </trkpt>
      <trkpt lat="43.45874" lon="5.86005">
        <ele>305.36</ele>
        <time>2019-05-12T07:37:17Z</time>
      </trkpt>
      <trkpt lat="43.45876" lon="5.86005">
        <ele>305.36</ele>
        <time>2019-05-12T07:37:18Z</time>
      </trkpt>
      <trkpt lat="43.4588" lon="5.86005">
        <ele>305.36</ele>
        <time>2019-05-12T07:37:19Z</time>
      </trkpt>
      <trkpt lat="43.45883" lon="5.86004">
        <ele>305.36</ele>
        <time>2019-05-12T07:37:20Z</time>
      </trkpt>
      <trkpt lat="43.45887" lon="5.86002">
        <ele>305.84</ele>
        <time>2019-05-12T07:37:21Z</time>
      </trkpt>
      <trkpt lat="43.45891" lon="5.86">
        <ele>306.32</ele>
        <time>2019-05-12T07:37:22Z</time>
      </trkpt>
      <trkpt lat="43.45894" lon="5.85996">
        <ele>306.32</ele>
        <time>2019-05-12T07:37:23Z</time>
      </trkpt>
      <trkpt lat="43.45896" lon="5.85991">
        <ele>306.32</ele>
        <time>2019-05-12T07:37:24Z</time>
      </trkpt>
      <trkpt lat="43.45898" lon="5.85986">
        <ele>306.32</ele>
        <time>2019-05-12T07:37:25Z</time>
      </trkpt>
      <trkpt lat="43.45899" lon="5.8598">
        <ele>306.32</ele>
        <time>2019-05-12T07:37:26Z</time>
      </trkpt>
      <trkpt lat="43.45901" lon="5.85974">
        <ele>306.32</ele>
        <time>2019-05-12T07:37:27Z</time>
      </trkpt>
      <trkpt lat="43.45903" lon="5.85968">
        <ele>306.32</ele>
        <time>2019-05-12T07:37:28Z</time>
      </trkpt>
      <trkpt lat="43.45908" lon="5.85955">
        <ele>307.76</ele>
        <time>2019-05-12T07:37:30Z</time>
      </trkpt>
      <trkpt lat="43.45922" lon="5.85923">
        <ele>306.32</ele>
        <time>2019-05-12T07:37:36Z</time>
      </trkpt>
      <trkpt lat="43.45929" lon="5.85911">
        <ele>305.36</ele>
        <time>2019-05-12T07:37:38Z</time>
      </trkpt>
      <trkpt lat="43.45932" lon="5.85908">
        <ele>305.36</ele>
        <time>2019-05-12T07:37:39Z</time>
      </trkpt>
      <trkpt lat="43.45936" lon="5.85905">
        <ele>305.36</ele>
        <time>2019-05-12T07:37:40Z</time>
      </trkpt>
      <trkpt lat="43.45941" lon="5.85903">
        <ele>304.88</ele>
        <time>2019-05-12T07:37:41Z</time>
      </trkpt>
      <trkpt lat="43.45946" lon="5.85902">
        <ele>304.88</ele>
        <time>2019-05-12T07:37:42Z</time>
      </trkpt>
      <trkpt lat="43.4595" lon="5.85902">
        <ele>304.88</ele>
        <time>2019-05-12T07:37:43Z</time>
      </trkpt>
      <trkpt lat="43.45971" lon="5.85901">
        <ele>304.39</ele>
        <time>2019-05-12T07:37:49Z</time>
      </trkpt>
      <trkpt lat="43.45988" lon="5.85883">
        <ele>304.39</ele>
        <time>2019-05-12T07:37:55Z</time>
      </trkpt>
      <trkpt lat="43.4599" lon="5.85877">
        <ele>304.39</ele>
        <time>2019-05-12T07:37:56Z</time>
      </trkpt>
      <trkpt lat="43.46019" lon="5.85787">
        <ele>306.32</ele>
        <time>2019-05-12T07:38:14Z</time>
      </trkpt>
      <trkpt lat="43.46043" lon="5.8571">
        <ele>306.32</ele>
        <time>2019-05-12T07:38:30Z</time>
      </trkpt>
      <trkpt lat="43.46047" lon="5.85708">
        <ele>306.32</ele>
        <time>2019-05-12T07:38:31Z</time>
      </trkpt>
      <trkpt lat="43.46051" lon="5.85707">
        <ele>306.32</ele>
        <time>2019-05-12T07:38:32Z</time>
      </trkpt>
      <trkpt lat="43.46055" lon="5.85708">
        <ele>306.32</ele>
        <time>2019-05-12T07:38:33Z</time>
      </trkpt>
      <trkpt lat="43.46058" lon="5.85709">
        <ele>304.39</ele>
        <time>2019-05-12T07:38:34Z</time>
      </trkpt>
      <trkpt lat="43.46062" lon="5.85711">
        <ele>304.39</ele>
        <time>2019-05-12T07:38:35Z</time>
      </trkpt>
      <trkpt lat="43.46073" lon="5.85716">
        <ele>304.39</ele>
        <time>2019-05-12T07:38:38Z</time>
      </trkpt>
      <trkpt lat="43.46077" lon="5.85717">
        <ele>304.39</ele>
        <time>2019-05-12T07:38:39Z</time>
      </trkpt>
      <trkpt lat="43.46082" lon="5.85717">
        <ele>304.39</ele>
        <time>2019-05-12T07:38:40Z</time>
      </trkpt>
      <trkpt lat="43.46094" lon="5.85717">
        <ele>305.84</ele>
        <time>2019-05-12T07:38:43Z</time>
      </trkpt>
      <trkpt lat="43.4614" lon="5.85688">
        <ele>305.36</ele>
        <time>2019-05-12T07:38:56Z</time>
      </trkpt>
      <trkpt lat="43.46181" lon="5.85667">
        <ele>307.28</ele>
        <time>2019-05-12T07:39:09Z</time>
      </trkpt>
      <trkpt lat="43.46242" lon="5.85649">
        <ele>307.28</ele>
        <time>2019-05-12T07:39:26Z</time>
      </trkpt>
      <trkpt lat="43.46281" lon="5.85616">
        <ele>309.68</ele>
        <time>2019-05-12T07:39:40Z</time>
      </trkpt>
      <trkpt lat="43.46308" lon="5.856">
        <ele>312.57</ele>
        <time>2019-05-12T07:39:50Z</time>
      </trkpt>
      <trkpt lat="43.46355" lon="5.85624">
        <ele>313.05</ele>
        <time>2019-05-12T07:40:05Z</time>
      </trkpt>
      <trkpt lat="43.46382" lon="5.8564">
        <ele>312.57</ele>
        <time>2019-05-12T07:40:12Z</time>
      </trkpt>
      <trkpt lat="43.46386" lon="5.85641">
        <ele>312.57</ele>
        <time>2019-05-12T07:40:13Z</time>
      </trkpt>
      <trkpt lat="43.46391" lon="5.85641">
        <ele>312.57</ele>
        <time>2019-05-12T07:40:14Z</time>
      </trkpt>
      <trkpt lat="43.46395" lon="5.8564">
        <ele>313.53</ele>
        <time>2019-05-12T07:40:15Z</time>
      </trkpt>
      <trkpt lat="43.464" lon="5.85638">
        <ele>313.53</ele>
        <time>2019-05-12T07:40:16Z</time>
      </trkpt>
      <trkpt lat="43.46404" lon="5.85636">
        <ele>313.53</ele>
        <time>2019-05-12T07:40:17Z</time>
      </trkpt>
      <trkpt lat="43.46409" lon="5.85633">
        <ele>313.53</ele>
        <time>2019-05-12T07:40:18Z</time>
      </trkpt>
      <trkpt lat="43.46413" lon="5.85629">
        <ele>312.09</ele>
        <time>2019-05-12T07:40:19Z</time>
      </trkpt>
      <trkpt lat="43.46417" lon="5.85623">
        <ele>312.09</ele>
        <time>2019-05-12T07:40:20Z</time>
      </trkpt>
      <trkpt lat="43.4642" lon="5.85618">
        <ele>311.12</ele>
        <time>2019-05-12T07:40:21Z</time>
      </trkpt>
      <trkpt lat="43.46424" lon="5.85612">
        <ele>310.64</ele>
        <time>2019-05-12T07:40:22Z</time>
      </trkpt>
      <trkpt lat="43.46436" lon="5.85592">
        <ele>309.68</ele>
        <time>2019-05-12T07:40:25Z</time>
      </trkpt>
      <trkpt lat="43.46441" lon="5.85587">
        <ele>309.68</ele>
        <time>2019-05-12T07:40:26Z</time>
      </trkpt>
      <trkpt lat="43.46445" lon="5.85582">
        <ele>308.72</ele>
        <time>2019-05-12T07:40:27Z</time>
      </trkpt>
      <trkpt lat="43.4645" lon="5.85578">
        <ele>307.76</ele>
        <time>2019-05-12T07:40:28Z</time>
      </trkpt>
      <trkpt lat="43.46455" lon="5.85575">
        <ele>306.8</ele>
        <time>2019-05-12T07:40:29Z</time>
      </trkpt>
      <trkpt lat="43.46529" lon="5.85537">
        <ele>306.32</ele>
        <time>2019-05-12T07:40:43Z</time>
      </trkpt>
      <trkpt lat="43.46618" lon="5.85503">
        <ele>305.36</ele>
        <time>2019-05-12T07:41:02Z</time>
      </trkpt>
      <trkpt lat="43.46622" lon="5.85501">
        <ele>305.36</ele>
        <time>2019-05-12T07:41:03Z</time>
      </trkpt>
      <trkpt lat="43.46626" lon="5.85498">
        <ele>304.88</ele>
        <time>2019-05-12T07:41:04Z</time>
      </trkpt>
      <trkpt lat="43.46658" lon="5.85463">
        <ele>304.88</ele>
        <time>2019-05-12T07:41:16Z</time>
      </trkpt>
      <trkpt lat="43.46661" lon="5.85459">
        <ele>306.32</ele>
        <time>2019-05-12T07:41:18Z</time>
      </trkpt>
      <trkpt lat="43.46665" lon="5.85453">
        <ele>304.88</ele>
        <time>2019-05-12T07:41:21Z</time>
      </trkpt>
      <trkpt lat="43.46695" lon="5.85395">
        <ele>306.8</ele>
        <time>2019-05-12T07:41:34Z</time>
      </trkpt>
      <trkpt lat="43.46699" lon="5.85392">
        <ele>306.8</ele>
        <time>2019-05-12T07:41:35Z</time>
      </trkpt>
      <trkpt lat="43.46706" lon="5.85386">
        <ele>306.8</ele>
        <time>2019-05-12T07:41:37Z</time>
      </trkpt>
      <trkpt lat="43.4671" lon="5.85384">
        <ele>306.8</ele>
        <time>2019-05-12T07:41:38Z</time>
      </trkpt>
      <trkpt lat="43.46715" lon="5.85382">
        <ele>306.32</ele>
        <time>2019-05-12T07:41:39Z</time>
      </trkpt>
      <trkpt lat="43.46719" lon="5.8538">
        <ele>306.32</ele>
        <time>2019-05-12T07:41:40Z</time>
      </trkpt>
      <trkpt lat="43.46723" lon="5.85379">
        <ele>306.32</ele>
        <time>2019-05-12T07:41:41Z</time>
      </trkpt>
      <trkpt lat="43.46798" lon="5.8536">
        <ele>306.32</ele>
        <time>2019-05-12T07:41:58Z</time>
      </trkpt>
      <trkpt lat="43.46884" lon="5.85344">
        <ele>306.32</ele>
        <time>2019-05-12T07:42:17Z</time>
      </trkpt>
      <trkpt lat="43.46903" lon="5.85337">
        <ele>306.32</ele>
        <time>2019-05-12T07:42:21Z</time>
      </trkpt>
      <trkpt lat="43.46907" lon="5.85334">
        <ele>306.8</ele>
        <time>2019-05-12T07:42:22Z</time>
      </trkpt>
      <trkpt lat="43.46911" lon="5.85331">
        <ele>306.8</ele>
        <time>2019-05-12T07:42:23Z</time>
      </trkpt>
      <trkpt lat="43.46919" lon="5.85323">
        <ele>306.8</ele>
        <time>2019-05-12T07:42:25Z</time>
      </trkpt>
      <trkpt lat="43.46962" lon="5.85264">
        <ele>306.8</ele>
        <time>2019-05-12T07:42:38Z</time>
      </trkpt>
      <trkpt lat="43.46968" lon="5.85256">
        <ele>308.24</ele>
        <time>2019-05-12T07:42:40Z</time>
      </trkpt>
      <trkpt lat="43.47035" lon="5.85177">
        <ele>307.76</ele>
        <time>2019-05-12T07:43:01Z</time>
      </trkpt>
      <trkpt lat="43.47071" lon="5.85138">
        <ele>307.76</ele>
        <time>2019-05-12T07:43:12Z</time>
      </trkpt>
      <trkpt lat="43.47074" lon="5.85137">
        <ele>307.76</ele>
        <time>2019-05-12T07:43:13Z</time>
      </trkpt>
      <trkpt lat="43.47082" lon="5.85133">
        <ele>307.76</ele>
        <time>2019-05-12T07:43:15Z</time>
      </trkpt>
      <trkpt lat="43.47086" lon="5.85131">
        <ele>307.76</ele>
        <time>2019-05-12T07:43:16Z</time>
      </trkpt>
      <trkpt lat="43.47089" lon="5.85128">
        <ele>307.76</ele>
        <time>2019-05-12T07:43:17Z</time>
      </trkpt>
      <trkpt lat="43.47092" lon="5.85125">
        <ele>307.76</ele>
        <time>2019-05-12T07:43:18Z</time>
      </trkpt>
      <trkpt lat="43.47095" lon="5.85121">
        <ele>307.76</ele>
        <time>2019-05-12T07:43:19Z</time>
      </trkpt>
      <trkpt lat="43.47098" lon="5.85117">
        <ele>307.76</ele>
        <time>2019-05-12T07:43:20Z</time>
      </trkpt>
      <trkpt lat="43.47145" lon="5.85046">
        <ele>309.2</ele>
        <time>2019-05-12T07:43:39Z</time>
      </trkpt>
      <trkpt lat="43.47152" lon="5.85036">
        <ele>307.76</ele>
        <time>2019-05-12T07:43:42Z</time>
      </trkpt>
      <trkpt lat="43.47165" lon="5.85018">
        <ele>308.72</ele>
        <time>2019-05-12T07:43:47Z</time>
      </trkpt>
      <trkpt lat="43.47198" lon="5.84965">
        <ele>309.2</ele>
        <time>2019-05-12T07:44:01Z</time>
      </trkpt>
      <trkpt lat="43.47241" lon="5.84885">
        <ele>307.76</ele>
        <time>2019-05-12T07:44:20Z</time>
      </trkpt>
      <trkpt lat="43.47263" lon="5.84843">
        <ele>310.16</ele>
        <time>2019-05-12T07:44:30Z</time>
      </trkpt>
      <trkpt lat="43.47286" lon="5.84797">
        <ele>310.16</ele>
        <time>2019-05-12T07:44:41Z</time>
      </trkpt>
      <trkpt lat="43.47291" lon="5.84784">
        <ele>311.6</ele>
        <time>2019-05-12T07:44:44Z</time>
      </trkpt>
      <trkpt lat="43.47313" lon="5.8476">
        <ele>308.72</ele>
        <time>2019-05-12T07:44:52Z</time>
      </trkpt>
      <trkpt lat="43.47316" lon="5.84757">
        <ele>308.72</ele>
        <time>2019-05-12T07:44:53Z</time>
      </trkpt>
      <trkpt lat="43.4732" lon="5.84752">
        <ele>308.72</ele>
        <time>2019-05-12T07:44:54Z</time>
      </trkpt>
      <trkpt lat="43.47366" lon="5.84679">
        <ele>308.24</ele>
        <time>2019-05-12T07:45:11Z</time>
      </trkpt>
      <trkpt lat="43.47412" lon="5.84606">
        <ele>307.76</ele>
        <time>2019-05-12T07:45:29Z</time>
      </trkpt>
      <trkpt lat="43.47419" lon="5.84592">
        <ele>309.2</ele>
        <time>2019-05-12T07:45:32Z</time>
      </trkpt>
      <trkpt lat="43.4743" lon="5.8457">
        <ele>308.72</ele>
        <time>2019-05-12T07:45:37Z</time>
      </trkpt>
      <trkpt lat="43.47438" lon="5.84554">
        <ele>307.28</ele>
        <time>2019-05-12T07:45:41Z</time>
      </trkpt>
      <trkpt lat="43.47445" lon="5.84541">
        <ele>308.72</ele>
        <time>2019-05-12T07:45:44Z</time>
      </trkpt>
      <trkpt lat="43.47478" lon="5.84473">
        <ele>308.24</ele>
        <time>2019-05-12T07:46:00Z</time>
      </trkpt>
      <trkpt lat="43.47516" lon="5.84399">
        <ele>309.2</ele>
        <time>2019-05-12T07:46:19Z</time>
      </trkpt>
      <trkpt lat="43.47538" lon="5.84338">
        <ele>307.76</ele>
        <time>2019-05-12T07:46:34Z</time>
      </trkpt>
      <trkpt lat="43.47564" lon="5.84268">
        <ele>310.64</ele>
        <time>2019-05-12T07:46:53Z</time>
      </trkpt>
      <trkpt lat="43.47574" lon="5.84261">
        <ele>313.05</ele>
        <time>2019-05-12T07:46:58Z</time>
      </trkpt>
      <trkpt lat="43.47613" lon="5.84263">
        <ele>313.53</ele>
        <time>2019-05-12T07:47:14Z</time>
      </trkpt>
      <trkpt lat="43.47631" lon="5.84257">
        <ele>315.93</ele>
        <time>2019-05-12T07:47:21Z</time>
      </trkpt>
      <trkpt lat="43.47633" lon="5.84257">
        <ele>315.93</ele>
        <time>2019-05-12T07:47:22Z</time>
      </trkpt>
      <trkpt lat="43.47636" lon="5.84259">
        <ele>315.93</ele>
        <time>2019-05-12T07:47:23Z</time>
      </trkpt>
      <trkpt lat="43.47638" lon="5.84261">
        <ele>315.93</ele>
        <time>2019-05-12T07:47:24Z</time>
      </trkpt>
      <trkpt lat="43.47641" lon="5.84264">
        <ele>315.93</ele>
        <time>2019-05-12T07:47:25Z</time>
      </trkpt>
      <trkpt lat="43.47644" lon="5.84267">
        <ele>314.97</ele>
        <time>2019-05-12T07:47:26Z</time>
      </trkpt>
      <trkpt lat="43.4765" lon="5.84273">
        <ele>313.53</ele>
        <time>2019-05-12T07:47:28Z</time>
      </trkpt>
      <trkpt lat="43.47705" lon="5.84337">
        <ele>313.05</ele>
        <time>2019-05-12T07:47:43Z</time>
      </trkpt>
      <trkpt lat="43.47713" lon="5.84345">
        <ele>313.05</ele>
        <time>2019-05-12T07:47:45Z</time>
      </trkpt>
      <trkpt lat="43.47723" lon="5.84358">
        <ele>313.05</ele>
        <time>2019-05-12T07:47:48Z</time>
      </trkpt>
      <trkpt lat="43.47773" lon="5.84415">
        <ele>311.6</ele>
        <time>2019-05-12T07:48:02Z</time>
      </trkpt>
      <trkpt lat="43.47801" lon="5.84453">
        <ele>312.57</ele>
        <time>2019-05-12T07:48:12Z</time>
      </trkpt>
      <trkpt lat="43.47826" lon="5.84496">
        <ele>312.57</ele>
        <time>2019-05-12T07:48:22Z</time>
      </trkpt>
      <trkpt lat="43.47828" lon="5.84501">
        <ele>312.57</ele>
        <time>2019-05-12T07:48:23Z</time>
      </trkpt>
      <trkpt lat="43.47833" lon="5.84512">
        <ele>312.57</ele>
        <time>2019-05-12T07:48:25Z</time>
      </trkpt>
      <trkpt lat="43.47836" lon="5.84517">
        <ele>312.57</ele>
        <time>2019-05-12T07:48:26Z</time>
      </trkpt>
      <trkpt lat="43.47867" lon="5.84588">
        <ele>313.05</ele>
        <time>2019-05-12T07:48:39Z</time>
      </trkpt>
      <trkpt lat="43.47896" lon="5.84661">
        <ele>310.16</ele>
        <time>2019-05-12T07:48:50Z</time>
      </trkpt>
      <trkpt lat="43.47949" lon="5.84793">
        <ele>308.24</ele>
        <time>2019-05-12T07:49:10Z</time>
      </trkpt>
      <trkpt lat="43.47994" lon="5.8491">
        <ele>307.76</ele>
        <time>2019-05-12T07:49:31Z</time>
      </trkpt>
      <trkpt lat="43.48036" lon="5.85017">
        <ele>307.76</ele>
        <time>2019-05-12T07:49:51Z</time>
      </trkpt>
      <trkpt lat="43.48078" lon="5.8512">
        <ele>306.32</ele>
        <time>2019-05-12T07:50:11Z</time>
      </trkpt>
      <trkpt lat="43.4811" lon="5.85204">
        <ele>307.76</ele>
        <time>2019-05-12T07:50:26Z</time>
      </trkpt>
      <trkpt lat="43.48126" lon="5.85248">
        <ele>308.24</ele>
        <time>2019-05-12T07:50:35Z</time>
      </trkpt>
      <trkpt lat="43.4816" lon="5.85331">
        <ele>310.16</ele>
        <time>2019-05-12T07:50:52Z</time>
      </trkpt>
      <trkpt lat="43.48164" lon="5.85341">
        <ele>308.72</ele>
        <time>2019-05-12T07:50:54Z</time>
      </trkpt>
      <trkpt lat="43.48193" lon="5.85442">
        <ele>306.8</ele>
        <time>2019-05-12T07:51:11Z</time>
      </trkpt>
      <trkpt lat="43.48213" lon="5.85534">
        <ele>305.36</ele>
        <time>2019-05-12T07:51:26Z</time>
      </trkpt>
      <trkpt lat="43.48242" lon="5.85655">
        <ele>303.91</ele>
        <time>2019-05-12T07:51:43Z</time>
      </trkpt>
      <trkpt lat="43.48275" lon="5.85808">
        <ele>302.95</ele>
        <time>2019-05-12T07:52:04Z</time>
      </trkpt>
      <trkpt lat="43.48292" lon="5.85881">
        <ele>301.99</ele>
        <time>2019-05-12T07:52:15Z</time>
      </trkpt>
      <trkpt lat="43.48302" lon="5.85925">
        <ele>300.55</ele>
        <time>2019-05-12T07:52:22Z</time>
      </trkpt>
      <trkpt lat="43.48338" lon="5.86082">
        <ele>298.63</ele>
        <time>2019-05-12T07:52:45Z</time>
      </trkpt>
      <trkpt lat="43.48369" lon="5.8622">
        <ele>297.67</ele>
        <time>2019-05-12T07:53:07Z</time>
      </trkpt>
      <trkpt lat="43.48398" lon="5.8635">
        <ele>298.63</ele>
        <time>2019-05-12T07:53:29Z</time>
      </trkpt>
      <trkpt lat="43.48415" lon="5.8642">
        <ele>298.15</ele>
        <time>2019-05-12T07:53:42Z</time>
      </trkpt>
      <trkpt lat="43.4844" lon="5.86532">
        <ele>296.7</ele>
        <time>2019-05-12T07:54:00Z</time>
      </trkpt>
      <trkpt lat="43.48444" lon="5.86544">
        <ele>295.74</ele>
        <time>2019-05-12T07:54:02Z</time>
      </trkpt>
      <trkpt lat="43.48472" lon="5.86672">
        <ele>294.3</ele>
        <time>2019-05-12T07:54:23Z</time>
      </trkpt>
      <trkpt lat="43.48482" lon="5.86705">
        <ele>295.74</ele>
        <time>2019-05-12T07:54:30Z</time>
      </trkpt>
      <trkpt lat="43.48485" lon="5.86705">
        <ele>295.74</ele>
        <time>2019-05-12T07:54:32Z</time>
      </trkpt>
      <trkpt lat="43.48488" lon="5.86703">
        <ele>295.74</ele>
        <time>2019-05-12T07:54:33Z</time>
      </trkpt>
      <trkpt lat="43.48491" lon="5.86703">
        <ele>295.74</ele>
        <time>2019-05-12T07:54:34Z</time>
      </trkpt>
      <trkpt lat="43.48494" lon="5.86703">
        <ele>295.74</ele>
        <time>2019-05-12T07:54:35Z</time>
      </trkpt>
      <trkpt lat="43.48496" lon="5.86704">
        <ele>296.22</ele>
        <time>2019-05-12T07:54:36Z</time>
      </trkpt>
      <trkpt lat="43.48517" lon="5.86714">
        <ele>296.22</ele>
        <time>2019-05-12T07:54:42Z</time>
      </trkpt>
      <trkpt lat="43.48521" lon="5.86715">
        <ele>296.22</ele>
        <time>2019-05-12T07:54:43Z</time>
      </trkpt>
      <trkpt lat="43.48582" lon="5.86735">
        <ele>295.26</ele>
        <time>2019-05-12T07:54:57Z</time>
      </trkpt>
      <trkpt lat="43.48657" lon="5.8679">
        <ele>293.82</ele>
        <time>2019-05-12T07:55:15Z</time>
      </trkpt>
      <trkpt lat="43.48737" lon="5.86851">
        <ele>292.86</ele>
        <time>2019-05-12T07:55:32Z</time>
      </trkpt>
      <trkpt lat="43.48763" lon="5.86866">
        <ele>294.3</ele>
        <time>2019-05-12T07:55:37Z</time>
      </trkpt>
      <trkpt lat="43.48777" lon="5.86868">
        <ele>297.67</ele>
        <time>2019-05-12T07:55:40Z</time>
      </trkpt>
      <trkpt lat="43.48781" lon="5.86869">
        <ele>297.67</ele>
        <time>2019-05-12T07:55:41Z</time>
      </trkpt>
      <trkpt lat="43.48789" lon="5.86871">
        <ele>294.78</ele>
        <time>2019-05-12T07:55:43Z</time>
      </trkpt>
      <trkpt lat="43.48793" lon="5.86873">
        <ele>294.3</ele>
        <time>2019-05-12T07:55:44Z</time>
      </trkpt>
      <trkpt lat="43.48809" lon="5.86883">
        <ele>294.3</ele>
        <time>2019-05-12T07:55:48Z</time>
      </trkpt>
      <trkpt lat="43.48878" lon="5.8693">
        <ele>296.22</ele>
        <time>2019-05-12T07:56:04Z</time>
      </trkpt>
      <trkpt lat="43.48927" lon="5.86963">
        <ele>298.63</ele>
        <time>2019-05-12T07:56:16Z</time>
      </trkpt>
      <trkpt lat="43.48931" lon="5.86964">
        <ele>298.63</ele>
        <time>2019-05-12T07:56:17Z</time>
      </trkpt>
      <trkpt lat="43.48982" lon="5.86982">
        <ele>301.51</ele>
        <time>2019-05-12T07:56:30Z</time>
      </trkpt>
      <trkpt lat="43.49052" lon="5.87006">
        <ele>301.99</ele>
        <time>2019-05-12T07:56:49Z</time>
      </trkpt>
      <trkpt lat="43.49084" lon="5.87019">
        <ele>304.39</ele>
        <time>2019-05-12T07:56:59Z</time>
      </trkpt>
      <trkpt lat="43.49106" lon="5.87027">
        <ele>302.95</ele>
        <time>2019-05-12T07:57:06Z</time>
      </trkpt>
      <trkpt lat="43.49164" lon="5.87049">
        <ele>306.32</ele>
        <time>2019-05-12T07:57:23Z</time>
      </trkpt>
      <trkpt lat="43.49224" lon="5.87055">
        <ele>309.68</ele>
        <time>2019-05-12T07:57:41Z</time>
      </trkpt>
      <trkpt lat="43.49285" lon="5.87057">
        <ele>307.28</ele>
        <time>2019-05-12T07:57:58Z</time>
      </trkpt>
      <trkpt lat="43.49315" lon="5.87059">
        <ele>308.24</ele>
        <time>2019-05-12T07:58:05Z</time>
      </trkpt>
      <trkpt lat="43.49327" lon="5.87059">
        <ele>306.8</ele>
        <time>2019-05-12T07:58:08Z</time>
      </trkpt>
      <trkpt lat="43.49358" lon="5.87061">
        <ele>307.28</ele>
        <time>2019-05-12T07:58:16Z</time>
      </trkpt>
      <trkpt lat="43.49376" lon="5.87064">
        <ele>305.84</ele>
        <time>2019-05-12T07:58:21Z</time>
      </trkpt>
      <trkpt lat="43.49433" lon="5.87079">
        <ele>307.28</ele>
        <time>2019-05-12T07:58:37Z</time>
      </trkpt>
      <trkpt lat="43.49491" lon="5.87077">
        <ele>308.24</ele>
        <time>2019-05-12T07:58:55Z</time>
      </trkpt>
      <trkpt lat="43.49553" lon="5.87073">
        <ele>309.68</ele>
        <time>2019-05-12T07:59:12Z</time>
      </trkpt>
      <trkpt lat="43.49616" lon="5.87088">
        <ele>313.05</ele>
        <time>2019-05-12T07:59:29Z</time>
      </trkpt>
      <trkpt lat="43.49656" lon="5.87096">
        <ele>314.01</ele>
        <time>2019-05-12T07:59:41Z</time>
      </trkpt>
      <trkpt lat="43.4971" lon="5.87117">
        <ele>313.05</ele>
        <time>2019-05-12T07:59:58Z</time>
      </trkpt>
      <trkpt lat="43.49719" lon="5.87122">
        <ele>314.49</ele>
        <time>2019-05-12T08:00:01Z</time>
      </trkpt>
      <trkpt lat="43.49767" lon="5.87153">
        <ele>317.37</ele>
        <time>2019-05-12T08:00:16Z</time>
      </trkpt>
      <trkpt lat="43.49828" lon="5.87208">
        <ele>314.97</ele>
        <time>2019-05-12T08:00:36Z</time>
      </trkpt>
      <trkpt lat="43.49837" lon="5.87241">
        <ele>316.41</ele>
        <time>2019-05-12T08:00:43Z</time>
      </trkpt>
      <trkpt lat="43.49847" lon="5.87323">
        <ele>319.3</ele>
        <time>2019-05-12T08:01:00Z</time>
      </trkpt>
      <trkpt lat="43.49863" lon="5.87404">
        <ele>321.7</ele>
        <time>2019-05-12T08:01:19Z</time>
      </trkpt>
      <trkpt lat="43.49868" lon="5.87459">
        <ele>325.54</ele>
        <time>2019-05-12T08:01:33Z</time>
      </trkpt>
      <trkpt lat="43.49886" lon="5.87496">
        <ele>327.47</ele>
        <time>2019-05-12T08:01:46Z</time>
      </trkpt>
      <trkpt lat="43.49923" lon="5.87534">
        <ele>329.39</ele>
        <time>2019-05-12T08:02:01Z</time>
      </trkpt>
      <trkpt lat="43.49975" lon="5.87561">
        <ele>330.83</ele>
        <time>2019-05-12T08:02:20Z</time>
      </trkpt>
      <trkpt lat="43.49983" lon="5.87562">
        <ele>332.27</ele>
        <time>2019-05-12T08:02:23Z</time>
      </trkpt>
      <trkpt lat="43.50019" lon="5.87562">
        <ele>333.71</ele>
        <time>2019-05-12T08:02:37Z</time>
      </trkpt>
      <trkpt lat="43.50058" lon="5.87564">
        <ele>335.16</ele>
        <time>2019-05-12T08:02:52Z</time>
      </trkpt>
      <trkpt lat="43.50104" lon="5.87592">
        <ele>337.56</ele>
        <time>2019-05-12T08:03:08Z</time>
      </trkpt>
      <trkpt lat="43.50141" lon="5.87654">
        <ele>337.56</ele>
        <time>2019-05-12T08:03:24Z</time>
      </trkpt>
      <trkpt lat="43.50168" lon="5.87704">
        <ele>340.44</ele>
        <time>2019-05-12T08:03:36Z</time>
      </trkpt>
      <trkpt lat="43.50173" lon="5.87712">
        <ele>341.89</ele>
        <time>2019-05-12T08:03:38Z</time>
      </trkpt>
      <trkpt lat="43.50211" lon="5.87776">
        <ele>342.37</ele>
        <time>2019-05-12T08:03:56Z</time>
      </trkpt>
      <trkpt lat="43.50218" lon="5.87784">
        <ele>343.33</ele>
        <time>2019-05-12T08:04:00Z</time>
      </trkpt>
      <trkpt lat="43.5022" lon="5.87784">
        <ele>343.33</ele>
        <time>2019-05-12T08:04:01Z</time>
      </trkpt>
      <trkpt lat="43.50221" lon="5.87784">
        <ele>343.33</ele>
        <time>2019-05-12T08:04:02Z</time>
      </trkpt>
      <trkpt lat="43.50223" lon="5.87784">
        <ele>343.33</ele>
        <time>2019-05-12T08:04:03Z</time>
      </trkpt>
      <trkpt lat="43.50224" lon="5.87784">
        <ele>343.33</ele>
        <time>2019-05-12T08:04:04Z</time>
      </trkpt>
      <trkpt lat="43.50225" lon="5.87783">
        <ele>343.81</ele>
        <time>2019-05-12T08:04:05Z</time>
      </trkpt>
      <trkpt lat="43.50243" lon="5.87779">
        <ele>343.81</ele>
        <time>2019-05-12T08:04:18Z</time>
      </trkpt>
      <trkpt lat="43.50249" lon="5.87779">
        <ele>344.29</ele>
        <time>2019-05-12T08:04:42Z</time>
      </trkpt>
      <trkpt lat="43.50263" lon="5.87776">
        <ele>344.29</ele>
        <time>2019-05-12T08:04:57Z</time>
      </trkpt>
      <trkpt lat="43.50268" lon="5.87772">
        <ele>345.25</ele>
        <time>2019-05-12T08:05:12Z</time>
      </trkpt>
      <trkpt lat="43.50301" lon="5.87768">
        <ele>345.73</ele>
        <time>2019-05-12T08:05:25Z</time>
      </trkpt>
      <trkpt lat="43.5032" lon="5.87767">
        <ele>348.13</ele>
        <time>2019-05-12T08:05:31Z</time>
      </trkpt>
      <trkpt lat="43.50369" lon="5.87757">
        <ele>349.58</ele>
        <time>2019-05-12T08:05:47Z</time>
      </trkpt>
      <trkpt lat="43.50418" lon="5.87779">
        <ele>351.98</ele>
        <time>2019-05-12T08:06:01Z</time>
      </trkpt>
      <trkpt lat="43.50433" lon="5.87797">
        <ele>350.06</ele>
        <time>2019-05-12T08:06:06Z</time>
      </trkpt>
      <trkpt lat="43.50455" lon="5.87828">
        <ele>351.5</ele>
        <time>2019-05-12T08:06:13Z</time>
      </trkpt>
      <trkpt lat="43.50465" lon="5.87841">
        <ele>350.06</ele>
        <time>2019-05-12T08:06:16Z</time>
      </trkpt>
      <trkpt lat="43.50512" lon="5.87904">
        <ele>350.54</ele>
        <time>2019-05-12T08:06:32Z</time>
      </trkpt>
      <trkpt lat="43.50559" lon="5.8797">
        <ele>352.46</ele>
        <time>2019-05-12T08:06:49Z</time>
      </trkpt>
      <trkpt lat="43.50583" lon="5.88002">
        <ele>354.38</ele>
        <time>2019-05-12T08:06:58Z</time>
      </trkpt>
      <trkpt lat="43.50617" lon="5.88046">
        <ele>356.79</ele>
        <time>2019-05-12T08:07:15Z</time>
      </trkpt>
      <trkpt lat="43.50657" lon="5.88076">
        <ele>358.71</ele>
        <time>2019-05-12T08:07:31Z</time>
      </trkpt>
      <trkpt lat="43.50703" lon="5.88091">
        <ele>359.67</ele>
        <time>2019-05-12T08:07:47Z</time>
      </trkpt>
      <trkpt lat="43.5073" lon="5.88092">
        <ele>361.59</ele>
        <time>2019-05-12T08:07:55Z</time>
      </trkpt>
      <trkpt lat="43.5075" lon="5.88089">
        <ele>363.04</ele>
        <time>2019-05-12T08:08:01Z</time>
      </trkpt>
      <trkpt lat="43.50804" lon="5.88075">
        <ele>365.44</ele>
        <time>2019-05-12T08:08:17Z</time>
      </trkpt>
      <trkpt lat="43.50807" lon="5.88075">
        <ele>364.96</ele>
        <time>2019-05-12T08:08:18Z</time>
      </trkpt>
      <trkpt lat="43.50855" lon="5.88063">
        <ele>366.88</ele>
        <time>2019-05-12T08:08:35Z</time>
      </trkpt>
      <trkpt lat="43.50905" lon="5.88049">
        <ele>369.28</ele>
        <time>2019-05-12T08:08:54Z</time>
      </trkpt>
      <trkpt lat="43.50955" lon="5.88048">
        <ele>372.65</ele>
        <time>2019-05-12T08:09:12Z</time>
      </trkpt>
      <trkpt lat="43.51" lon="5.88048">
        <ele>372.65</ele>
        <time>2019-05-12T08:09:30Z</time>
      </trkpt>
      <trkpt lat="43.51048" lon="5.88049">
        <ele>375.53</ele>
        <time>2019-05-12T08:09:48Z</time>
      </trkpt>
      <trkpt lat="43.51094" lon="5.88048">
        <ele>377.45</ele>
        <time>2019-05-12T08:10:06Z</time>
      </trkpt>
      <trkpt lat="43.51131" lon="5.88047">
        <ele>380.34</ele>
        <time>2019-05-12T08:10:22Z</time>
      </trkpt>
      <trkpt lat="43.51135" lon="5.8805">
        <ele>380.82</ele>
        <time>2019-05-12T08:10:26Z</time>
      </trkpt>
      <trkpt lat="43.51137" lon="5.88052">
        <ele>380.82</ele>
        <time>2019-05-12T08:10:41Z</time>
      </trkpt>
      <trkpt lat="43.51137" lon="5.88054">
        <ele>380.34</ele>
        <time>2019-05-12T08:10:43Z</time>
      </trkpt>
      <trkpt lat="43.51136" lon="5.88064">
        <ele>380.82</ele>
        <time>2019-05-12T08:10:48Z</time>
      </trkpt>
      <trkpt lat="43.51144" lon="5.88073">
        <ele>381.78</ele>
        <time>2019-05-12T08:10:55Z</time>
      </trkpt>
      <trkpt lat="43.51175" lon="5.88078">
        <ele>383.22</ele>
        <time>2019-05-12T08:11:10Z</time>
      </trkpt>
      <trkpt lat="43.51208" lon="5.88075">
        <ele>384.18</ele>
        <time>2019-05-12T08:11:26Z</time>
      </trkpt>
      <trkpt lat="43.51219" lon="5.88076">
        <ele>384.66</ele>
        <time>2019-05-12T08:11:31Z</time>
      </trkpt>
      <trkpt lat="43.51241" lon="5.8807">
        <ele>385.63</ele>
        <time>2019-05-12T08:11:40Z</time>
      </trkpt>
      <trkpt lat="43.51276" lon="5.88073">
        <ele>387.07</ele>
        <time>2019-05-12T08:11:58Z</time>
      </trkpt>
      <trkpt lat="43.51306" lon="5.88072">
        <ele>387.07</ele>
        <time>2019-05-12T08:12:13Z</time>
      </trkpt>
      <trkpt lat="43.51335" lon="5.88103">
        <ele>386.11</ele>
        <time>2019-05-12T08:12:29Z</time>
      </trkpt>
      <trkpt lat="43.51336" lon="5.88105">
        <ele>386.11</ele>
        <time>2019-05-12T08:12:30Z</time>
      </trkpt>
      <trkpt lat="43.51337" lon="5.88106">
        <ele>386.11</ele>
        <time>2019-05-12T08:12:31Z</time>
      </trkpt>
      <trkpt lat="43.51353" lon="5.88116">
        <ele>387.55</ele>
        <time>2019-05-12T08:12:39Z</time>
      </trkpt>
      <trkpt lat="43.51381" lon="5.88122">
        <ele>388.51</ele>
        <time>2019-05-12T08:12:54Z</time>
      </trkpt>
      <trkpt lat="43.51387" lon="5.88126">
        <ele>388.51</ele>
        <time>2019-05-12T08:12:57Z</time>
      </trkpt>
      <trkpt lat="43.51416" lon="5.88142">
        <ele>389.47</ele>
        <time>2019-05-12T08:13:11Z</time>
      </trkpt>
      <trkpt lat="43.51441" lon="5.88145">
        <ele>390.43</ele>
        <time>2019-05-12T08:13:24Z</time>
      </trkpt>
      <trkpt lat="43.51468" lon="5.88145">
        <ele>391.39</ele>
        <time>2019-05-12T08:13:38Z</time>
      </trkpt>
      <trkpt lat="43.51494" lon="5.88145">
        <ele>394.28</ele>
        <time>2019-05-12T08:13:49Z</time>
      </trkpt>
      <trkpt lat="43.51496" lon="5.88144">
        <ele>393.32</ele>
        <time>2019-05-12T08:13:50Z</time>
      </trkpt>
      <trkpt lat="43.51498" lon="5.88143">
        <ele>393.32</ele>
        <time>2019-05-12T08:13:51Z</time>
      </trkpt>
      <trkpt lat="43.515" lon="5.88142">
        <ele>393.32</ele>
        <time>2019-05-12T08:13:52Z</time>
      </trkpt>
      <trkpt lat="43.51502" lon="5.88141">
        <ele>395.24</ele>
        <time>2019-05-12T08:13:53Z</time>
      </trkpt>
      <trkpt lat="43.51504" lon="5.88141">
        <ele>394.76</ele>
        <time>2019-05-12T08:13:54Z</time>
      </trkpt>
      <trkpt lat="43.51506" lon="5.88141">
        <ele>394.76</ele>
        <time>2019-05-12T08:13:55Z</time>
      </trkpt>
      <trkpt lat="43.51509" lon="5.88141">
        <ele>395.24</ele>
        <time>2019-05-12T08:13:56Z</time>
      </trkpt>
      <trkpt lat="43.51511" lon="5.88141">
        <ele>395.24</ele>
        <time>2019-05-12T08:13:57Z</time>
      </trkpt>
      <trkpt lat="43.51552" lon="5.88139">
        <ele>395.72</ele>
        <time>2019-05-12T08:14:13Z</time>
      </trkpt>
      <trkpt lat="43.51569" lon="5.88139">
        <ele>395.24</ele>
        <time>2019-05-12T08:14:21Z</time>
      </trkpt>
      <trkpt lat="43.51589" lon="5.8814">
        <ele>396.68</ele>
        <time>2019-05-12T08:14:29Z</time>
      </trkpt>
      <trkpt lat="43.5163" lon="5.88129">
        <ele>397.64</ele>
        <time>2019-05-12T08:14:46Z</time>
      </trkpt>
      <trkpt lat="43.51658" lon="5.88113">
        <ele>396.68</ele>
        <time>2019-05-12T08:14:58Z</time>
      </trkpt>
      <trkpt lat="43.51699" lon="5.88083">
        <ele>395.72</ele>
        <time>2019-05-12T08:15:17Z</time>
      </trkpt>
      <trkpt lat="43.51721" lon="5.88057">
        <ele>395.24</ele>
        <time>2019-05-12T08:15:26Z</time>
      </trkpt>
      <trkpt lat="43.51735" lon="5.88043">
        <ele>394.28</ele>
        <time>2019-05-12T08:15:33Z</time>
      </trkpt>
      <trkpt lat="43.51749" lon="5.88028">
        <ele>394.76</ele>
        <time>2019-05-12T08:15:40Z</time>
      </trkpt>
      <trkpt lat="43.51754" lon="5.88023">
        <ele>393.8</ele>
        <time>2019-05-12T08:15:43Z</time>
      </trkpt>
      <trkpt lat="43.51757" lon="5.88021">
        <ele>393.32</ele>
        <time>2019-05-12T08:15:44Z</time>
      </trkpt>
      <trkpt lat="43.51773" lon="5.88002">
        <ele>389.95</ele>
        <time>2019-05-12T08:15:55Z</time>
      </trkpt>
      <trkpt lat="43.51777" lon="5.87996">
        <ele>388.51</ele>
        <time>2019-05-12T08:15:58Z</time>
      </trkpt>
      <trkpt lat="43.51789" lon="5.87985">
        <ele>388.03</ele>
        <time>2019-05-12T08:16:09Z</time>
      </trkpt>
      <trkpt lat="43.51793" lon="5.87985">
        <ele>388.03</ele>
        <time>2019-05-12T08:16:13Z</time>
      </trkpt>
      <trkpt lat="43.51794" lon="5.87991">
        <ele>386.11</ele>
        <time>2019-05-12T08:16:17Z</time>
      </trkpt>
      <trkpt lat="43.51793" lon="5.88013">
        <ele>384.18</ele>
        <time>2019-05-12T08:16:24Z</time>
      </trkpt>
      <trkpt lat="43.51785" lon="5.88035">
        <ele>381.78</ele>
        <time>2019-05-12T08:16:29Z</time>
      </trkpt>
      <trkpt lat="43.51771" lon="5.88058">
        <ele>380.34</ele>
        <time>2019-05-12T08:16:35Z</time>
      </trkpt>
      <trkpt lat="43.51759" lon="5.88086">
        <ele>376.49</ele>
        <time>2019-05-12T08:16:42Z</time>
      </trkpt>
      <trkpt lat="43.51758" lon="5.8809">
        <ele>376.49</ele>
        <time>2019-05-12T08:16:43Z</time>
      </trkpt>
      <trkpt lat="43.51739" lon="5.88122">
        <ele>373.13</ele>
        <time>2019-05-12T08:16:52Z</time>
      </trkpt>
      <trkpt lat="43.51723" lon="5.88139">
        <ele>371.69</ele>
        <time>2019-05-12T08:16:57Z</time>
      </trkpt>
      <trkpt lat="43.51719" lon="5.88142">
        <ele>371.69</ele>
        <time>2019-05-12T08:16:58Z</time>
      </trkpt>
      <trkpt lat="43.51716" lon="5.88146">
        <ele>371.69</ele>
        <time>2019-05-12T08:16:59Z</time>
      </trkpt>
      <trkpt lat="43.51709" lon="5.88161">
        <ele>369.28</ele>
        <time>2019-05-12T08:17:05Z</time>
      </trkpt>
      <trkpt lat="43.51706" lon="5.88172">
        <ele>365.44</ele>
        <time>2019-05-12T08:17:11Z</time>
      </trkpt>
      <trkpt lat="43.51705" lon="5.88174">
        <ele>365.92</ele>
        <time>2019-05-12T08:17:12Z</time>
      </trkpt>
      <trkpt lat="43.51701" lon="5.882">
        <ele>363.04</ele>
        <time>2019-05-12T08:17:21Z</time>
      </trkpt>
      <trkpt lat="43.51701" lon="5.8821">
        <ele>362.55</ele>
        <time>2019-05-12T08:17:24Z</time>
      </trkpt>
      <trkpt lat="43.517" lon="5.88213">
        <ele>362.55</ele>
        <time>2019-05-12T08:17:25Z</time>
      </trkpt>
      <trkpt lat="43.517" lon="5.88217">
        <ele>362.55</ele>
        <time>2019-05-12T08:17:26Z</time>
      </trkpt>
      <trkpt lat="43.51699" lon="5.88218">
        <ele>362.07</ele>
        <time>2019-05-12T08:17:27Z</time>
      </trkpt>
      <trkpt lat="43.51697" lon="5.88219">
        <ele>362.07</ele>
        <time>2019-05-12T08:17:28Z</time>
      </trkpt>
      <trkpt lat="43.51695" lon="5.8822">
        <ele>362.07</ele>
        <time>2019-05-12T08:17:29Z</time>
      </trkpt>
      <trkpt lat="43.51668" lon="5.8826">
        <ele>360.15</ele>
        <time>2019-05-12T08:17:41Z</time>
      </trkpt>
      <trkpt lat="43.51662" lon="5.88274">
        <ele>361.59</ele>
        <time>2019-05-12T08:17:44Z</time>
      </trkpt>
      <trkpt lat="43.51652" lon="5.88297">
        <ele>360.63</ele>
        <time>2019-05-12T08:17:51Z</time>
      </trkpt>
      <trkpt lat="43.5165" lon="5.88298">
        <ele>360.63</ele>
        <time>2019-05-12T08:17:52Z</time>
      </trkpt>
      <trkpt lat="43.51647" lon="5.88299">
        <ele>359.67</ele>
        <time>2019-05-12T08:17:53Z</time>
      </trkpt>
      <trkpt lat="43.51643" lon="5.883">
        <ele>359.67</ele>
        <time>2019-05-12T08:17:54Z</time>
      </trkpt>
      <trkpt lat="43.5164" lon="5.88304">
        <ele>359.19</ele>
        <time>2019-05-12T08:17:55Z</time>
      </trkpt>
      <trkpt lat="43.51634" lon="5.88303">
        <ele>358.23</ele>
        <time>2019-05-12T08:17:56Z</time>
      </trkpt>
      <trkpt lat="43.5163" lon="5.88306">
        <ele>358.23</ele>
        <time>2019-05-12T08:17:57Z</time>
      </trkpt>
      <trkpt lat="43.51625" lon="5.88303">
        <ele>357.75</ele>
        <time>2019-05-12T08:17:58Z</time>
      </trkpt>
      <trkpt lat="43.5162" lon="5.88301">
        <ele>357.27</ele>
        <time>2019-05-12T08:17:59Z</time>
      </trkpt>
      <trkpt lat="43.51617" lon="5.88301">
        <ele>357.27</ele>
        <time>2019-05-12T08:18:00Z</time>
      </trkpt>
      <trkpt lat="43.51613" lon="5.883">
        <ele>356.31</ele>
        <time>2019-05-12T08:18:01Z</time>
      </trkpt>
      <trkpt lat="43.51602" lon="5.88288">
        <ele>357.75</ele>
        <time>2019-05-12T08:18:04Z</time>
      </trkpt>
      <trkpt lat="43.51576" lon="5.88277">
        <ele>358.71</ele>
        <time>2019-05-12T08:18:10Z</time>
      </trkpt>
      <trkpt lat="43.5157" lon="5.88275">
        <ele>358.71</ele>
        <time>2019-05-12T08:18:12Z</time>
      </trkpt>
      <trkpt lat="43.51568" lon="5.88276">
        <ele>358.71</ele>
        <time>2019-05-12T08:18:13Z</time>
      </trkpt>
      <trkpt lat="43.51565" lon="5.88276">
        <ele>358.71</ele>
        <time>2019-05-12T08:18:14Z</time>
      </trkpt>
      <trkpt lat="43.51562" lon="5.88276">
        <ele>357.27</ele>
        <time>2019-05-12T08:18:15Z</time>
      </trkpt>
      <trkpt lat="43.51558" lon="5.88276">
        <ele>357.27</ele>
        <time>2019-05-12T08:18:16Z</time>
      </trkpt>
      <trkpt lat="43.51554" lon="5.88276">
        <ele>357.27</ele>
        <time>2019-05-12T08:18:17Z</time>
      </trkpt>
      <trkpt lat="43.51551" lon="5.88277">
        <ele>354.86</ele>
        <time>2019-05-12T08:18:18Z</time>
      </trkpt>
      <trkpt lat="43.51548" lon="5.88278">
        <ele>358.23</ele>
        <time>2019-05-12T08:18:19Z</time>
      </trkpt>
      <trkpt lat="43.51537" lon="5.8828">
        <ele>356.31</ele>
        <time>2019-05-12T08:18:23Z</time>
      </trkpt>
      <trkpt lat="43.51535" lon="5.88283">
        <ele>356.31</ele>
        <time>2019-05-12T08:18:24Z</time>
      </trkpt>
      <trkpt lat="43.51502" lon="5.88328">
        <ele>355.83</ele>
        <time>2019-05-12T08:18:37Z</time>
      </trkpt>
      <trkpt lat="43.51498" lon="5.88332">
        <ele>356.31</ele>
        <time>2019-05-12T08:18:38Z</time>
      </trkpt>
      <trkpt lat="43.5149" lon="5.88339">
        <ele>355.83</ele>
        <time>2019-05-12T08:18:40Z</time>
      </trkpt>
      <trkpt lat="43.5148" lon="5.88344">
        <ele>355.83</ele>
        <time>2019-05-12T08:18:42Z</time>
      </trkpt>
      <trkpt lat="43.5147" lon="5.88349">
        <ele>355.34</ele>
        <time>2019-05-12T08:18:44Z</time>
      </trkpt>
      <trkpt lat="43.51465" lon="5.88351">
        <ele>355.34</ele>
        <time>2019-05-12T08:18:45Z</time>
      </trkpt>
      <trkpt lat="43.5146" lon="5.88353">
        <ele>355.34</ele>
        <time>2019-05-12T08:18:46Z</time>
      </trkpt>
      <trkpt lat="43.51455" lon="5.88354">
        <ele>355.34</ele>
        <time>2019-05-12T08:18:47Z</time>
      </trkpt>
      <trkpt lat="43.51449" lon="5.88355">
        <ele>355.34</ele>
        <time>2019-05-12T08:18:48Z</time>
      </trkpt>
      <trkpt lat="43.51444" lon="5.88355">
        <ele>354.38</ele>
        <time>2019-05-12T08:18:49Z</time>
      </trkpt>
      <trkpt lat="43.5144" lon="5.88355">
        <ele>354.38</ele>
        <time>2019-05-12T08:18:50Z</time>
      </trkpt>
      <trkpt lat="43.51435" lon="5.88354">
        <ele>354.38</ele>
        <time>2019-05-12T08:18:51Z</time>
      </trkpt>
      <trkpt lat="43.51431" lon="5.88353">
        <ele>354.38</ele>
        <time>2019-05-12T08:18:52Z</time>
      </trkpt>
      <trkpt lat="43.51426" lon="5.88352">
        <ele>354.38</ele>
        <time>2019-05-12T08:18:53Z</time>
      </trkpt>
      <trkpt lat="43.51422" lon="5.8835">
        <ele>354.38</ele>
        <time>2019-05-12T08:18:54Z</time>
      </trkpt>
      <trkpt lat="43.51418" lon="5.88346">
        <ele>353.9</ele>
        <time>2019-05-12T08:18:55Z</time>
      </trkpt>
      <trkpt lat="43.5139" lon="5.88325">
        <ele>353.9</ele>
        <time>2019-05-12T08:19:02Z</time>
      </trkpt>
      <trkpt lat="43.51349" lon="5.88306">
        <ele>351.98</ele>
        <time>2019-05-12T08:19:13Z</time>
      </trkpt>
      <trkpt lat="43.51346" lon="5.88305">
        <ele>351.98</ele>
        <time>2019-05-12T08:19:14Z</time>
      </trkpt>
      <trkpt lat="43.51318" lon="5.88322">
        <ele>350.54</ele>
        <time>2019-05-12T08:19:25Z</time>
      </trkpt>
      <trkpt lat="43.51297" lon="5.88358">
        <ele>350.54</ele>
        <time>2019-05-12T08:19:35Z</time>
      </trkpt>
      <trkpt lat="43.51273" lon="5.88416">
        <ele>352.46</ele>
        <time>2019-05-12T08:19:46Z</time>
      </trkpt>
      <trkpt lat="43.51261" lon="5.88428">
        <ele>352.46</ele>
        <time>2019-05-12T08:19:56Z</time>
      </trkpt>
      <trkpt lat="43.51256" lon="5.88432">
        <ele>352.46</ele>
        <time>2019-05-12T08:20:20Z</time>
      </trkpt>
      <trkpt lat="43.51241" lon="5.88439">
        <ele>351.02</ele>
        <time>2019-05-12T08:20:31Z</time>
      </trkpt>
      <trkpt lat="43.51205" lon="5.8844">
        <ele>351.02</ele>
        <time>2019-05-12T08:20:42Z</time>
      </trkpt>
      <trkpt lat="43.51198" lon="5.88439">
        <ele>351.02</ele>
        <time>2019-05-12T08:20:53Z</time>
      </trkpt>
      <trkpt lat="43.51195" lon="5.8844">
        <ele>351.02</ele>
        <time>2019-05-12T08:21:04Z</time>
      </trkpt>
      <trkpt lat="43.51197" lon="5.88438">
        <ele>351.02</ele>
        <time>2019-05-12T08:21:11Z</time>
      </trkpt>
      <trkpt lat="43.51199" lon="5.88438">
        <ele>351.02</ele>
        <time>2019-05-12T08:21:12Z</time>
      </trkpt>
      <trkpt lat="43.512" lon="5.88437">
        <ele>351.02</ele>
        <time>2019-05-12T08:21:13Z</time>
      </trkpt>
      <trkpt lat="43.51228" lon="5.88435">
        <ele>351.02</ele>
        <time>2019-05-12T08:21:26Z</time>
      </trkpt>
      <trkpt lat="43.51238" lon="5.88437">
        <ele>351.5</ele>
        <time>2019-05-12T08:21:34Z</time>
      </trkpt>
      <trkpt lat="43.51239" lon="5.88435">
        <ele>351.5</ele>
        <time>2019-05-12T08:21:35Z</time>
      </trkpt>
      <trkpt lat="43.51239" lon="5.88434">
        <ele>351.5</ele>
        <time>2019-05-12T08:21:36Z</time>
      </trkpt>
      <trkpt lat="43.51239" lon="5.88432">
        <ele>351.5</ele>
        <time>2019-05-12T08:21:37Z</time>
      </trkpt>
      <trkpt lat="43.51239" lon="5.88431">
        <ele>351.5</ele>
        <time>2019-05-12T08:21:38Z</time>
      </trkpt>
      <trkpt lat="43.51238" lon="5.8843">
        <ele>351.5</ele>
        <time>2019-05-12T08:21:39Z</time>
      </trkpt>
      <trkpt lat="43.51237" lon="5.88428">
        <ele>351.5</ele>
        <time>2019-05-12T08:21:40Z</time>
      </trkpt>
      <trkpt lat="43.51235" lon="5.88427">
        <ele>350.06</ele>
        <time>2019-05-12T08:21:41Z</time>
      </trkpt>
      <trkpt lat="43.51234" lon="5.88425">
        <ele>349.58</ele>
        <time>2019-05-12T08:21:42Z</time>
      </trkpt>
      <trkpt lat="43.51231" lon="5.88423">
        <ele>349.58</ele>
        <time>2019-05-12T08:21:43Z</time>
      </trkpt>
      <trkpt lat="43.51222" lon="5.88416">
        <ele>347.65</ele>
        <time>2019-05-12T08:21:47Z</time>
      </trkpt>
      <trkpt lat="43.51205" lon="5.88412">
        <ele>345.73</ele>
        <time>2019-05-12T08:21:52Z</time>
      </trkpt>
      <trkpt lat="43.512" lon="5.88414">
        <ele>345.73</ele>
        <time>2019-05-12T08:21:53Z</time>
      </trkpt>
      <trkpt lat="43.51196" lon="5.88417">
        <ele>345.73</ele>
        <time>2019-05-12T08:21:54Z</time>
      </trkpt>
      <trkpt lat="43.51179" lon="5.88433">
        <ele>344.29</ele>
        <time>2019-05-12T08:22:01Z</time>
      </trkpt>
      <trkpt lat="43.51177" lon="5.88433">
        <ele>344.29</ele>
        <time>2019-05-12T08:22:02Z</time>
      </trkpt>
      <trkpt lat="43.51175" lon="5.88433">
        <ele>344.29</ele>
        <time>2019-05-12T08:22:03Z</time>
      </trkpt>
      <trkpt lat="43.51172" lon="5.88432">
        <ele>344.29</ele>
        <time>2019-05-12T08:22:04Z</time>
      </trkpt>
      <trkpt lat="43.5117" lon="5.88429">
        <ele>342.85</ele>
        <time>2019-05-12T08:22:05Z</time>
      </trkpt>
      <trkpt lat="43.51168" lon="5.88426">
        <ele>342.85</ele>
        <time>2019-05-12T08:22:06Z</time>
      </trkpt>
      <trkpt lat="43.51167" lon="5.88421">
        <ele>343.81</ele>
        <time>2019-05-12T08:22:07Z</time>
      </trkpt>
      <trkpt lat="43.51167" lon="5.88415">
        <ele>343.81</ele>
        <time>2019-05-12T08:22:08Z</time>
      </trkpt>
      <trkpt lat="43.51167" lon="5.8841">
        <ele>343.81</ele>
        <time>2019-05-12T08:22:09Z</time>
      </trkpt>
      <trkpt lat="43.51161" lon="5.88347">
        <ele>342.85</ele>
        <time>2019-05-12T08:22:22Z</time>
      </trkpt>
      <trkpt lat="43.51127" lon="5.88326">
        <ele>340.92</ele>
        <time>2019-05-12T08:22:33Z</time>
      </trkpt>
      <trkpt lat="43.51087" lon="5.88339">
        <ele>339.48</ele>
        <time>2019-05-12T08:22:44Z</time>
      </trkpt>
      <trkpt lat="43.51058" lon="5.88339">
        <ele>339</ele>
        <time>2019-05-12T08:22:56Z</time>
      </trkpt>
      <trkpt lat="43.50997" lon="5.88346">
        <ele>337.08</ele>
        <time>2019-05-12T08:23:09Z</time>
      </trkpt>
      <trkpt lat="43.50943" lon="5.88362">
        <ele>334.68</ele>
        <time>2019-05-12T08:23:22Z</time>
      </trkpt>
      <trkpt lat="43.50898" lon="5.88406">
        <ele>335.64</ele>
        <time>2019-05-12T08:23:35Z</time>
      </trkpt>
      <trkpt lat="43.50874" lon="5.88429">
        <ele>334.68</ele>
        <time>2019-05-12T08:23:42Z</time>
      </trkpt>
      <trkpt lat="43.50869" lon="5.88434">
        <ele>334.68</ele>
        <time>2019-05-12T08:23:43Z</time>
      </trkpt>
      <trkpt lat="43.50865" lon="5.88436">
        <ele>334.68</ele>
        <time>2019-05-12T08:23:44Z</time>
      </trkpt>
      <trkpt lat="43.50861" lon="5.88436">
        <ele>334.68</ele>
        <time>2019-05-12T08:23:45Z</time>
      </trkpt>
      <trkpt lat="43.50855" lon="5.88435">
        <ele>334.68</ele>
        <time>2019-05-12T08:23:46Z</time>
      </trkpt>
      <trkpt lat="43.50851" lon="5.88433">
        <ele>334.68</ele>
        <time>2019-05-12T08:23:47Z</time>
      </trkpt>
      <trkpt lat="43.50846" lon="5.88429">
        <ele>334.68</ele>
        <time>2019-05-12T08:23:48Z</time>
      </trkpt>
      <trkpt lat="43.50841" lon="5.88426">
        <ele>334.2</ele>
        <time>2019-05-12T08:23:49Z</time>
      </trkpt>
      <trkpt lat="43.5084" lon="5.88421">
        <ele>334.2</ele>
        <time>2019-05-12T08:23:50Z</time>
      </trkpt>
      <trkpt lat="43.50839" lon="5.88416">
        <ele>333.71</ele>
        <time>2019-05-12T08:23:51Z</time>
      </trkpt>
      <trkpt lat="43.50838" lon="5.88411">
        <ele>333.23</ele>
        <time>2019-05-12T08:23:52Z</time>
      </trkpt>
      <trkpt lat="43.50838" lon="5.88406">
        <ele>333.23</ele>
        <time>2019-05-12T08:23:53Z</time>
      </trkpt>
      <trkpt lat="43.50836" lon="5.88362">
        <ele>332.75</ele>
        <time>2019-05-12T08:24:00Z</time>
      </trkpt>
      <trkpt lat="43.50836" lon="5.88356">
        <ele>332.75</ele>
        <time>2019-05-12T08:24:01Z</time>
      </trkpt>
      <trkpt lat="43.50834" lon="5.88349">
        <ele>332.75</ele>
        <time>2019-05-12T08:24:02Z</time>
      </trkpt>
      <trkpt lat="43.50832" lon="5.88344">
        <ele>332.75</ele>
        <time>2019-05-12T08:24:03Z</time>
      </trkpt>
      <trkpt lat="43.5083" lon="5.88341">
        <ele>332.75</ele>
        <time>2019-05-12T08:24:04Z</time>
      </trkpt>
      <trkpt lat="43.50827" lon="5.88337">
        <ele>332.27</ele>
        <time>2019-05-12T08:24:05Z</time>
      </trkpt>
      <trkpt lat="43.50824" lon="5.88335">
        <ele>332.27</ele>
        <time>2019-05-12T08:24:06Z</time>
      </trkpt>
      <trkpt lat="43.50821" lon="5.88334">
        <ele>331.79</ele>
        <time>2019-05-12T08:24:07Z</time>
      </trkpt>
      <trkpt lat="43.50792" lon="5.88325">
        <ele>331.79</ele>
        <time>2019-05-12T08:24:15Z</time>
      </trkpt>
      <trkpt lat="43.50787" lon="5.88325">
        <ele>331.31</ele>
        <time>2019-05-12T08:24:16Z</time>
      </trkpt>
      <trkpt lat="43.5075" lon="5.88342">
        <ele>332.75</ele>
        <time>2019-05-12T08:24:25Z</time>
      </trkpt>
      <trkpt lat="43.50748" lon="5.88344">
        <ele>331.31</ele>
        <time>2019-05-12T08:24:26Z</time>
      </trkpt>
      <trkpt lat="43.50743" lon="5.88347">
        <ele>331.31</ele>
        <time>2019-05-12T08:24:27Z</time>
      </trkpt>
      <trkpt lat="43.50739" lon="5.88352">
        <ele>331.31</ele>
        <time>2019-05-12T08:24:28Z</time>
      </trkpt>
      <trkpt lat="43.50721" lon="5.88393">
        <ele>329.87</ele>
        <time>2019-05-12T08:24:35Z</time>
      </trkpt>
      <trkpt lat="43.50717" lon="5.88399">
        <ele>329.87</ele>
        <time>2019-05-12T08:24:36Z</time>
      </trkpt>
      <trkpt lat="43.50712" lon="5.88405">
        <ele>329.39</ele>
        <time>2019-05-12T08:24:37Z</time>
      </trkpt>
      <trkpt lat="43.50709" lon="5.88412">
        <ele>328.43</ele>
        <time>2019-05-12T08:24:38Z</time>
      </trkpt>
      <trkpt lat="43.50705" lon="5.88418">
        <ele>328.43</ele>
        <time>2019-05-12T08:24:39Z</time>
      </trkpt>
      <trkpt lat="43.50701" lon="5.88424">
        <ele>324.58</ele>
        <time>2019-05-12T08:24:40Z</time>
      </trkpt>
      <trkpt lat="43.50694" lon="5.88434">
        <ele>328.91</ele>
        <time>2019-05-12T08:24:42Z</time>
      </trkpt>
      <trkpt lat="43.5069" lon="5.88438">
        <ele>326.99</ele>
        <time>2019-05-12T08:24:43Z</time>
      </trkpt>
      <trkpt lat="43.50684" lon="5.88442">
        <ele>326.99</ele>
        <time>2019-05-12T08:24:44Z</time>
      </trkpt>
      <trkpt lat="43.50679" lon="5.88445">
        <ele>326.5</ele>
        <time>2019-05-12T08:24:45Z</time>
      </trkpt>
      <trkpt lat="43.50672" lon="5.88447">
        <ele>326.5</ele>
        <time>2019-05-12T08:24:46Z</time>
      </trkpt>
      <trkpt lat="43.50667" lon="5.8845">
        <ele>325.54</ele>
        <time>2019-05-12T08:24:47Z</time>
      </trkpt>
      <trkpt lat="43.50661" lon="5.88452">
        <ele>326.99</ele>
        <time>2019-05-12T08:24:48Z</time>
      </trkpt>
      <trkpt lat="43.50656" lon="5.88453">
        <ele>326.99</ele>
        <time>2019-05-12T08:24:49Z</time>
      </trkpt>
      <trkpt lat="43.50651" lon="5.88455">
        <ele>326.99</ele>
        <time>2019-05-12T08:24:50Z</time>
      </trkpt>
      <trkpt lat="43.50648" lon="5.88458">
        <ele>326.99</ele>
        <time>2019-05-12T08:24:51Z</time>
      </trkpt>
      <trkpt lat="43.50636" lon="5.88461">
        <ele>327.47</ele>
        <time>2019-05-12T08:24:59Z</time>
      </trkpt>
      <trkpt lat="43.50636" lon="5.88455">
        <ele>327.47</ele>
        <time>2019-05-12T08:25:08Z</time>
      </trkpt>
      <trkpt lat="43.50633" lon="5.88455">
        <ele>327.47</ele>
        <time>2019-05-12T08:25:11Z</time>
      </trkpt>
      <trkpt lat="43.50631" lon="5.88456">
        <ele>327.47</ele>
        <time>2019-05-12T08:25:12Z</time>
      </trkpt>
      <trkpt lat="43.50628" lon="5.88457">
        <ele>327.47</ele>
        <time>2019-05-12T08:25:13Z</time>
      </trkpt>
      <trkpt lat="43.50607" lon="5.88455">
        <ele>325.54</ele>
        <time>2019-05-12T08:25:24Z</time>
      </trkpt>
      <trkpt lat="43.50604" lon="5.88455">
        <ele>325.54</ele>
        <time>2019-05-12T08:25:33Z</time>
      </trkpt>
      <trkpt lat="43.50603" lon="5.88457">
        <ele>325.54</ele>
        <time>2019-05-12T08:25:34Z</time>
      </trkpt>
      <trkpt lat="43.50601" lon="5.88459">
        <ele>325.06</ele>
        <time>2019-05-12T08:25:35Z</time>
      </trkpt>
      <trkpt lat="43.50598" lon="5.88461">
        <ele>325.06</ele>
        <time>2019-05-12T08:25:36Z</time>
      </trkpt>
      <trkpt lat="43.50595" lon="5.88463">
        <ele>325.06</ele>
        <time>2019-05-12T08:25:37Z</time>
      </trkpt>
      <trkpt lat="43.50592" lon="5.88466">
        <ele>324.58</ele>
        <time>2019-05-12T08:25:38Z</time>
      </trkpt>
      <trkpt lat="43.50588" lon="5.88468">
        <ele>324.58</ele>
        <time>2019-05-12T08:25:39Z</time>
      </trkpt>
      <trkpt lat="43.50584" lon="5.8847">
        <ele>324.58</ele>
        <time>2019-05-12T08:25:40Z</time>
      </trkpt>
      <trkpt lat="43.50581" lon="5.88473">
        <ele>324.58</ele>
        <time>2019-05-12T08:25:41Z</time>
      </trkpt>
      <trkpt lat="43.5054" lon="5.88529">
        <ele>325.54</ele>
        <time>2019-05-12T08:25:54Z</time>
      </trkpt>
      <trkpt lat="43.50532" lon="5.8854">
        <ele>323.62</ele>
        <time>2019-05-12T08:25:56Z</time>
      </trkpt>
      <trkpt lat="43.50528" lon="5.88546">
        <ele>323.62</ele>
        <time>2019-05-12T08:25:57Z</time>
      </trkpt>
      <trkpt lat="43.50514" lon="5.88562">
        <ele>323.62</ele>
        <time>2019-05-12T08:26:00Z</time>
      </trkpt>
      <trkpt lat="43.50508" lon="5.88566">
        <ele>323.62</ele>
        <time>2019-05-12T08:26:01Z</time>
      </trkpt>
      <trkpt lat="43.50486" lon="5.88585">
        <ele>322.66</ele>
        <time>2019-05-12T08:26:05Z</time>
      </trkpt>
      <trkpt lat="43.50468" lon="5.88597">
        <ele>322.66</ele>
        <time>2019-05-12T08:26:08Z</time>
      </trkpt>
      <trkpt lat="43.5041" lon="5.88636">
        <ele>320.26</ele>
        <time>2019-05-12T08:26:19Z</time>
      </trkpt>
      <trkpt lat="43.50376" lon="5.88664">
        <ele>319.78</ele>
        <time>2019-05-12T08:26:27Z</time>
      </trkpt>
      <trkpt lat="43.50353" lon="5.88678">
        <ele>317.85</ele>
        <time>2019-05-12T08:26:37Z</time>
      </trkpt>
      <trkpt lat="43.50363" lon="5.88733">
        <ele>317.85</ele>
        <time>2019-05-12T08:26:48Z</time>
      </trkpt>
      <trkpt lat="43.50364" lon="5.88739">
        <ele>317.85</ele>
        <time>2019-05-12T08:26:49Z</time>
      </trkpt>
      <trkpt lat="43.50367" lon="5.88811">
        <ele>320.26</ele>
        <time>2019-05-12T08:27:04Z</time>
      </trkpt>
      <trkpt lat="43.50368" lon="5.8882">
        <ele>318.33</ele>
        <time>2019-05-12T08:27:06Z</time>
      </trkpt>
      <trkpt lat="43.50369" lon="5.88829">
        <ele>320.26</ele>
        <time>2019-05-12T08:27:08Z</time>
      </trkpt>
      <trkpt lat="43.50376" lon="5.88859">
        <ele>322.66</ele>
        <time>2019-05-12T08:27:14Z</time>
      </trkpt>
      <trkpt lat="43.50391" lon="5.88912">
        <ele>323.14</ele>
        <time>2019-05-12T08:27:28Z</time>
      </trkpt>
      <trkpt lat="43.50401" lon="5.88956">
        <ele>322.18</ele>
        <time>2019-05-12T08:27:36Z</time>
      </trkpt>
      <trkpt lat="43.50415" lon="5.89003">
        <ele>323.62</ele>
        <time>2019-05-12T08:27:44Z</time>
      </trkpt>
      <trkpt lat="43.50433" lon="5.89076">
        <ele>321.7</ele>
        <time>2019-05-12T08:27:59Z</time>
      </trkpt>
      <trkpt lat="43.50443" lon="5.89113">
        <ele>320.74</ele>
        <time>2019-05-12T08:28:09Z</time>
      </trkpt>
      <trkpt lat="43.50463" lon="5.89126">
        <ele>324.1</ele>
        <time>2019-05-12T08:28:20Z</time>
      </trkpt>
      <trkpt lat="43.50479" lon="5.89159">
        <ele>325.06</ele>
        <time>2019-05-12T08:28:32Z</time>
      </trkpt>
      <trkpt lat="43.50476" lon="5.89187">
        <ele>324.1</ele>
        <time>2019-05-12T08:28:38Z</time>
      </trkpt>
      <trkpt lat="43.50476" lon="5.89193">
        <ele>324.1</ele>
        <time>2019-05-12T08:28:39Z</time>
      </trkpt>
      <trkpt lat="43.50477" lon="5.89198">
        <ele>324.1</ele>
        <time>2019-05-12T08:28:40Z</time>
      </trkpt>
      <trkpt lat="43.50479" lon="5.89204">
        <ele>324.1</ele>
        <time>2019-05-12T08:28:41Z</time>
      </trkpt>
      <trkpt lat="43.50481" lon="5.89209">
        <ele>324.1</ele>
        <time>2019-05-12T08:28:42Z</time>
      </trkpt>
      <trkpt lat="43.50491" lon="5.89239">
        <ele>325.54</ele>
        <time>2019-05-12T08:28:48Z</time>
      </trkpt>
      <trkpt lat="43.50482" lon="5.89276">
        <ele>324.58</ele>
        <time>2019-05-12T08:28:57Z</time>
      </trkpt>
      <trkpt lat="43.50454" lon="5.89338">
        <ele>324.1</ele>
        <time>2019-05-12T08:29:10Z</time>
      </trkpt>
      <trkpt lat="43.50455" lon="5.89343">
        <ele>324.1</ele>
        <time>2019-05-12T08:29:11Z</time>
      </trkpt>
      <trkpt lat="43.50456" lon="5.89347">
        <ele>325.54</ele>
        <time>2019-05-12T08:29:12Z</time>
      </trkpt>
      <trkpt lat="43.50458" lon="5.89351">
        <ele>325.54</ele>
        <time>2019-05-12T08:29:13Z</time>
      </trkpt>
      <trkpt lat="43.50459" lon="5.89355">
        <ele>325.54</ele>
        <time>2019-05-12T08:29:14Z</time>
      </trkpt>
      <trkpt lat="43.5046" lon="5.89359">
        <ele>326.02</ele>
        <time>2019-05-12T08:29:15Z</time>
      </trkpt>
      <trkpt lat="43.5046" lon="5.89363">
        <ele>326.02</ele>
        <time>2019-05-12T08:29:16Z</time>
      </trkpt>
      <trkpt lat="43.5046" lon="5.89366">
        <ele>326.5</ele>
        <time>2019-05-12T08:29:17Z</time>
      </trkpt>
      <trkpt lat="43.50459" lon="5.8937">
        <ele>326.5</ele>
        <time>2019-05-12T08:29:18Z</time>
      </trkpt>
      <trkpt lat="43.50458" lon="5.89372">
        <ele>326.5</ele>
        <time>2019-05-12T08:29:19Z</time>
      </trkpt>
      <trkpt lat="43.50456" lon="5.89374">
        <ele>326.5</ele>
        <time>2019-05-12T08:29:20Z</time>
      </trkpt>
      <trkpt lat="43.50454" lon="5.89375">
        <ele>326.5</ele>
        <time>2019-05-12T08:29:21Z</time>
      </trkpt>
      <trkpt lat="43.50452" lon="5.89376">
        <ele>325.06</ele>
        <time>2019-05-12T08:29:22Z</time>
      </trkpt>
      <trkpt lat="43.50448" lon="5.89376">
        <ele>325.06</ele>
        <time>2019-05-12T08:29:23Z</time>
      </trkpt>
      <trkpt lat="43.50424" lon="5.89375">
        <ele>322.66</ele>
        <time>2019-05-12T08:29:28Z</time>
      </trkpt>
      <trkpt lat="43.50392" lon="5.89377">
        <ele>320.26</ele>
        <time>2019-05-12T08:29:33Z</time>
      </trkpt>
      <trkpt lat="43.50382" lon="5.89378">
        <ele>318.33</ele>
        <time>2019-05-12T08:29:35Z</time>
      </trkpt>
      <trkpt lat="43.50377" lon="5.8938">
        <ele>317.85</ele>
        <time>2019-05-12T08:29:36Z</time>
      </trkpt>
      <trkpt lat="43.50367" lon="5.89385">
        <ele>316.89</ele>
        <time>2019-05-12T08:29:38Z</time>
      </trkpt>
      <trkpt lat="43.50362" lon="5.89388">
        <ele>315.93</ele>
        <time>2019-05-12T08:29:39Z</time>
      </trkpt>
      <trkpt lat="43.50357" lon="5.8939">
        <ele>315.93</ele>
        <time>2019-05-12T08:29:40Z</time>
      </trkpt>
      <trkpt lat="43.50332" lon="5.89396">
        <ele>314.49</ele>
        <time>2019-05-12T08:29:44Z</time>
      </trkpt>
      <trkpt lat="43.50325" lon="5.89398">
        <ele>313.05</ele>
        <time>2019-05-12T08:29:45Z</time>
      </trkpt>
      <trkpt lat="43.50318" lon="5.89402">
        <ele>313.53</ele>
        <time>2019-05-12T08:29:46Z</time>
      </trkpt>
      <trkpt lat="43.50301" lon="5.89415">
        <ele>311.12</ele>
        <time>2019-05-12T08:29:49Z</time>
      </trkpt>
      <trkpt lat="43.50297" lon="5.89419">
        <ele>309.68</ele>
        <time>2019-05-12T08:29:50Z</time>
      </trkpt>
      <trkpt lat="43.50285" lon="5.89438">
        <ele>308.72</ele>
        <time>2019-05-12T08:29:54Z</time>
      </trkpt>
      <trkpt lat="43.5028" lon="5.89448">
        <ele>310.64</ele>
        <time>2019-05-12T08:29:57Z</time>
      </trkpt>
      <trkpt lat="43.50274" lon="5.8946">
        <ele>311.12</ele>
        <time>2019-05-12T08:30:03Z</time>
      </trkpt>
      <trkpt lat="43.50273" lon="5.89462">
        <ele>311.12</ele>
        <time>2019-05-12T08:30:04Z</time>
      </trkpt>
      <trkpt lat="43.50272" lon="5.89466">
        <ele>311.12</ele>
        <time>2019-05-12T08:30:05Z</time>
      </trkpt>
      <trkpt lat="43.50258" lon="5.8952">
        <ele>310.64</ele>
        <time>2019-05-12T08:30:14Z</time>
      </trkpt>
      <trkpt lat="43.50253" lon="5.89548">
        <ele>309.2</ele>
        <time>2019-05-12T08:30:19Z</time>
      </trkpt>
      <trkpt lat="43.5025" lon="5.89573">
        <ele>310.64</ele>
        <time>2019-05-12T08:30:23Z</time>
      </trkpt>
      <trkpt lat="43.50246" lon="5.8962">
        <ele>314.49</ele>
        <time>2019-05-12T08:30:33Z</time>
      </trkpt>
      <trkpt lat="43.50245" lon="5.89624">
        <ele>314.49</ele>
        <time>2019-05-12T08:30:34Z</time>
      </trkpt>
      <trkpt lat="43.50244" lon="5.89629">
        <ele>314.49</ele>
        <time>2019-05-12T08:30:35Z</time>
      </trkpt>
      <trkpt lat="43.50244" lon="5.89635">
        <ele>312.57</ele>
        <time>2019-05-12T08:30:36Z</time>
      </trkpt>
      <trkpt lat="43.50242" lon="5.89673">
        <ele>313.05</ele>
        <time>2019-05-12T08:30:45Z</time>
      </trkpt>
      <trkpt lat="43.50242" lon="5.89675">
        <ele>313.05</ele>
        <time>2019-05-12T08:30:46Z</time>
      </trkpt>
      <trkpt lat="43.50244" lon="5.89684">
        <ele>314.01</ele>
        <time>2019-05-12T08:30:49Z</time>
      </trkpt>
      <trkpt lat="43.50244" lon="5.89687">
        <ele>314.49</ele>
        <time>2019-05-12T08:30:50Z</time>
      </trkpt>
      <trkpt lat="43.50244" lon="5.8969">
        <ele>314.97</ele>
        <time>2019-05-12T08:30:51Z</time>
      </trkpt>
      <trkpt lat="43.50244" lon="5.89692">
        <ele>314.97</ele>
        <time>2019-05-12T08:30:52Z</time>
      </trkpt>
      <trkpt lat="43.50244" lon="5.89694">
        <ele>314.97</ele>
        <time>2019-05-12T08:30:53Z</time>
      </trkpt>
      <trkpt lat="43.50244" lon="5.89696">
        <ele>315.45</ele>
        <time>2019-05-12T08:30:54Z</time>
      </trkpt>
      <trkpt lat="43.50243" lon="5.89698">
        <ele>315.45</ele>
        <time>2019-05-12T08:30:55Z</time>
      </trkpt>
      <trkpt lat="43.50243" lon="5.897">
        <ele>315.45</ele>
        <time>2019-05-12T08:30:56Z</time>
      </trkpt>
      <trkpt lat="43.50242" lon="5.89702">
        <ele>315.45</ele>
        <time>2019-05-12T08:30:57Z</time>
      </trkpt>
      <trkpt lat="43.50236" lon="5.89719">
        <ele>312.57</ele>
        <time>2019-05-12T08:31:02Z</time>
      </trkpt>
      <trkpt lat="43.50235" lon="5.89722">
        <ele>312.57</ele>
        <time>2019-05-12T08:31:03Z</time>
      </trkpt>
      <trkpt lat="43.50227" lon="5.89748">
        <ele>312.09</ele>
        <time>2019-05-12T08:31:11Z</time>
      </trkpt>
      <trkpt lat="43.50225" lon="5.89754">
        <ele>311.12</ele>
        <time>2019-05-12T08:31:22Z</time>
      </trkpt>
      <trkpt lat="43.50222" lon="5.89754">
        <ele>309.68</ele>
        <time>2019-05-12T08:31:26Z</time>
      </trkpt>
      <trkpt lat="43.50221" lon="5.89755">
        <ele>309.68</ele>
        <time>2019-05-12T08:31:27Z</time>
      </trkpt>
      <trkpt lat="43.5022" lon="5.89757">
        <ele>309.68</ele>
        <time>2019-05-12T08:31:28Z</time>
      </trkpt>
      <trkpt lat="43.50219" lon="5.89761">
        <ele>309.68</ele>
        <time>2019-05-12T08:31:29Z</time>
      </trkpt>
      <trkpt lat="43.50218" lon="5.89766">
        <ele>309.68</ele>
        <time>2019-05-12T08:31:30Z</time>
      </trkpt>
      <trkpt lat="43.50218" lon="5.8977">
        <ele>309.68</ele>
        <time>2019-05-12T08:31:31Z</time>
      </trkpt>
      <trkpt lat="43.50216" lon="5.89789">
        <ele>307.76</ele>
        <time>2019-05-12T08:31:37Z</time>
      </trkpt>
      <trkpt lat="43.50213" lon="5.89796">
        <ele>309.2</ele>
        <time>2019-05-12T08:31:53Z</time>
      </trkpt>
      <trkpt lat="43.50212" lon="5.89798">
        <ele>309.2</ele>
        <time>2019-05-12T08:31:59Z</time>
      </trkpt>
      <trkpt lat="43.5021" lon="5.898">
        <ele>309.2</ele>
        <time>2019-05-12T08:32:00Z</time>
      </trkpt>
      <trkpt lat="43.50207" lon="5.89803">
        <ele>307.76</ele>
        <time>2019-05-12T08:32:08Z</time>
      </trkpt>
      <trkpt lat="43.50201" lon="5.89807">
        <ele>304.88</ele>
        <time>2019-05-12T08:32:20Z</time>
      </trkpt>
      <trkpt lat="43.50198" lon="5.89808">
        <ele>304.88</ele>
        <time>2019-05-12T08:32:38Z</time>
      </trkpt>
      <trkpt lat="43.50198" lon="5.8981">
        <ele>305.84</ele>
        <time>2019-05-12T08:32:59Z</time>
      </trkpt>
      <trkpt lat="43.50198" lon="5.89811">
        <ele>305.84</ele>
        <time>2019-05-12T08:33:00Z</time>
      </trkpt>
      <trkpt lat="43.50199" lon="5.89815">
        <ele>305.84</ele>
        <time>2019-05-12T08:33:03Z</time>
      </trkpt>
      <trkpt lat="43.50201" lon="5.8982">
        <ele>305.84</ele>
        <time>2019-05-12T08:33:06Z</time>
      </trkpt>
      <trkpt lat="43.50203" lon="5.89823">
        <ele>305.84</ele>
        <time>2019-05-12T08:33:07Z</time>
      </trkpt>
      <trkpt lat="43.50219" lon="5.89853">
        <ele>309.2</ele>
        <time>2019-05-12T08:33:16Z</time>
      </trkpt>
      <trkpt lat="43.50241" lon="5.8989">
        <ele>312.57</ele>
        <time>2019-05-12T08:33:29Z</time>
      </trkpt>
      <trkpt lat="43.5027" lon="5.89924">
        <ele>315.45</ele>
        <time>2019-05-12T08:33:45Z</time>
      </trkpt>
      <trkpt lat="43.50295" lon="5.89957">
        <ele>316.89</ele>
        <time>2019-05-12T08:34:00Z</time>
      </trkpt>
      <trkpt lat="43.50317" lon="5.89975">
        <ele>318.81</ele>
        <time>2019-05-12T08:34:12Z</time>
      </trkpt>
      <trkpt lat="43.50318" lon="5.9">
        <ele>317.37</ele>
        <time>2019-05-12T08:34:20Z</time>
      </trkpt>
      <trkpt lat="43.50313" lon="5.90027">
        <ele>313.53</ele>
        <time>2019-05-12T08:34:25Z</time>
      </trkpt>
      <trkpt lat="43.50311" lon="5.90034">
        <ele>312.57</ele>
        <time>2019-05-12T08:34:26Z</time>
      </trkpt>
      <trkpt lat="43.50308" lon="5.90042">
        <ele>311.6</ele>
        <time>2019-05-12T08:34:27Z</time>
      </trkpt>
      <trkpt lat="43.50305" lon="5.9005">
        <ele>311.6</ele>
        <time>2019-05-12T08:34:28Z</time>
      </trkpt>
      <trkpt lat="43.50295" lon="5.90074">
        <ele>309.68</ele>
        <time>2019-05-12T08:34:31Z</time>
      </trkpt>
      <trkpt lat="43.50289" lon="5.90091">
        <ele>305.84</ele>
        <time>2019-05-12T08:34:33Z</time>
      </trkpt>
      <trkpt lat="43.50286" lon="5.901">
        <ele>305.84</ele>
        <time>2019-05-12T08:34:34Z</time>
      </trkpt>
      <trkpt lat="43.50267" lon="5.90161">
        <ele>302.47</ele>
        <time>2019-05-12T08:34:40Z</time>
      </trkpt>
      <trkpt lat="43.50264" lon="5.9017">
        <ele>302.47</ele>
        <time>2019-05-12T08:34:41Z</time>
      </trkpt>
      <trkpt lat="43.50259" lon="5.90188">
        <ele>301.51</ele>
        <time>2019-05-12T08:34:43Z</time>
      </trkpt>
      <trkpt lat="43.50252" lon="5.90252">
        <ele>300.07</ele>
        <time>2019-05-12T08:34:50Z</time>
      </trkpt>
      <trkpt lat="43.50253" lon="5.90261">
        <ele>300.07</ele>
        <time>2019-05-12T08:34:51Z</time>
      </trkpt>
      <trkpt lat="43.50258" lon="5.90304">
        <ele>301.51</ele>
        <time>2019-05-12T08:34:57Z</time>
      </trkpt>
      <trkpt lat="43.50258" lon="5.90367">
        <ele>299.59</ele>
        <time>2019-05-12T08:35:10Z</time>
      </trkpt>
      <trkpt lat="43.50241" lon="5.90424">
        <ele>299.11</ele>
        <time>2019-05-12T08:35:22Z</time>
      </trkpt>
      <trkpt lat="43.5024" lon="5.90428">
        <ele>299.11</ele>
        <time>2019-05-12T08:35:23Z</time>
      </trkpt>
      <trkpt lat="43.50247" lon="5.90441">
        <ele>298.15</ele>
        <time>2019-05-12T08:35:31Z</time>
      </trkpt>
      <trkpt lat="43.50248" lon="5.90446">
        <ele>299.59</ele>
        <time>2019-05-12T08:35:33Z</time>
      </trkpt>
      <trkpt lat="43.50253" lon="5.90485">
        <ele>300.55</ele>
        <time>2019-05-12T08:35:44Z</time>
      </trkpt>
      <trkpt lat="43.50264" lon="5.90531">
        <ele>302.47</ele>
        <time>2019-05-12T08:35:56Z</time>
      </trkpt>
      <trkpt lat="43.5027" lon="5.90584">
        <ele>304.39</ele>
        <time>2019-05-12T08:36:09Z</time>
      </trkpt>
      <trkpt lat="43.50271" lon="5.90589">
        <ele>304.39</ele>
        <time>2019-05-12T08:36:10Z</time>
      </trkpt>
      <trkpt lat="43.50267" lon="5.906">
        <ele>304.39</ele>
        <time>2019-05-12T08:36:14Z</time>
      </trkpt>
      <trkpt lat="43.50264" lon="5.90602">
        <ele>304.39</ele>
        <time>2019-05-12T08:36:15Z</time>
      </trkpt>
      <trkpt lat="43.50253" lon="5.90608">
        <ele>300.07</ele>
        <time>2019-05-12T08:36:18Z</time>
      </trkpt>
      <trkpt lat="43.50249" lon="5.9061">
        <ele>301.99</ele>
        <time>2019-05-12T08:36:19Z</time>
      </trkpt>
      <trkpt lat="43.5024" lon="5.90613">
        <ele>298.63</ele>
        <time>2019-05-12T08:36:21Z</time>
      </trkpt>
      <trkpt lat="43.50236" lon="5.90614">
        <ele>297.67</ele>
        <time>2019-05-12T08:36:22Z</time>
      </trkpt>
      <trkpt lat="43.50232" lon="5.90617">
        <ele>296.22</ele>
        <time>2019-05-12T08:36:23Z</time>
      </trkpt>
      <trkpt lat="43.50229" lon="5.9062">
        <ele>294.78</ele>
        <time>2019-05-12T08:36:24Z</time>
      </trkpt>
      <trkpt lat="43.50225" lon="5.90625">
        <ele>294.78</ele>
        <time>2019-05-12T08:36:25Z</time>
      </trkpt>
      <trkpt lat="43.50222" lon="5.9063">
        <ele>294.78</ele>
        <time>2019-05-12T08:36:26Z</time>
      </trkpt>
      <trkpt lat="43.5022" lon="5.90635">
        <ele>294.3</ele>
        <time>2019-05-12T08:36:27Z</time>
      </trkpt>
      <trkpt lat="43.50217" lon="5.90641">
        <ele>294.3</ele>
        <time>2019-05-12T08:36:28Z</time>
      </trkpt>
      <trkpt lat="43.50215" lon="5.90648">
        <ele>293.34</ele>
        <time>2019-05-12T08:36:29Z</time>
      </trkpt>
      <trkpt lat="43.50213" lon="5.90659">
        <ele>291.42</ele>
        <time>2019-05-12T08:36:31Z</time>
      </trkpt>
      <trkpt lat="43.50213" lon="5.90671">
        <ele>290.94</ele>
        <time>2019-05-12T08:36:33Z</time>
      </trkpt>
      <trkpt lat="43.50213" lon="5.90677">
        <ele>290.46</ele>
        <time>2019-05-12T08:36:34Z</time>
      </trkpt>
      <trkpt lat="43.50214" lon="5.90683">
        <ele>289.49</ele>
        <time>2019-05-12T08:36:35Z</time>
      </trkpt>
      <trkpt lat="43.50215" lon="5.90687">
        <ele>289.49</ele>
        <time>2019-05-12T08:36:36Z</time>
      </trkpt>
      <trkpt lat="43.50217" lon="5.90721">
        <ele>287.57</ele>
        <time>2019-05-12T08:36:48Z</time>
      </trkpt>
      <trkpt lat="43.50219" lon="5.90726">
        <ele>287.09</ele>
        <time>2019-05-12T08:36:49Z</time>
      </trkpt>
      <trkpt lat="43.50221" lon="5.90731">
        <ele>287.09</ele>
        <time>2019-05-12T08:36:50Z</time>
      </trkpt>
      <trkpt lat="43.5025" lon="5.90776">
        <ele>287.09</ele>
        <time>2019-05-12T08:37:00Z</time>
      </trkpt>
      <trkpt lat="43.50254" lon="5.90779">
        <ele>287.09</ele>
        <time>2019-05-12T08:37:01Z</time>
      </trkpt>
      <trkpt lat="43.50258" lon="5.90783">
        <ele>287.09</ele>
        <time>2019-05-12T08:37:02Z</time>
      </trkpt>
      <trkpt lat="43.50262" lon="5.90785">
        <ele>287.09</ele>
        <time>2019-05-12T08:37:03Z</time>
      </trkpt>
      <trkpt lat="43.50267" lon="5.90787">
        <ele>287.09</ele>
        <time>2019-05-12T08:37:04Z</time>
      </trkpt>
      <trkpt lat="43.50271" lon="5.90789">
        <ele>287.09</ele>
        <time>2019-05-12T08:37:05Z</time>
      </trkpt>
      <trkpt lat="43.5031" lon="5.90807">
        <ele>285.65</ele>
        <time>2019-05-12T08:37:14Z</time>
      </trkpt>
      <trkpt lat="43.50313" lon="5.90811">
        <ele>285.65</ele>
        <time>2019-05-12T08:37:15Z</time>
      </trkpt>
      <trkpt lat="43.50315" lon="5.90815">
        <ele>285.17</ele>
        <time>2019-05-12T08:37:16Z</time>
      </trkpt>
      <trkpt lat="43.50315" lon="5.90819">
        <ele>285.17</ele>
        <time>2019-05-12T08:37:17Z</time>
      </trkpt>
      <trkpt lat="43.50315" lon="5.90823">
        <ele>285.17</ele>
        <time>2019-05-12T08:37:18Z</time>
      </trkpt>
      <trkpt lat="43.50314" lon="5.90827">
        <ele>285.17</ele>
        <time>2019-05-12T08:37:19Z</time>
      </trkpt>
      <trkpt lat="43.50313" lon="5.90831">
        <ele>285.17</ele>
        <time>2019-05-12T08:37:20Z</time>
      </trkpt>
      <trkpt lat="43.50306" lon="5.90882">
        <ele>285.17</ele>
        <time>2019-05-12T08:37:34Z</time>
      </trkpt>
      <trkpt lat="43.50308" lon="5.90892">
        <ele>285.17</ele>
        <time>2019-05-12T08:37:38Z</time>
      </trkpt>
      <trkpt lat="43.50308" lon="5.90894">
        <ele>285.17</ele>
        <time>2019-05-12T08:37:39Z</time>
      </trkpt>
      <trkpt lat="43.50309" lon="5.90896">
        <ele>285.17</ele>
        <time>2019-05-12T08:37:40Z</time>
      </trkpt>
      <trkpt lat="43.5031" lon="5.90899">
        <ele>285.17</ele>
        <time>2019-05-12T08:37:41Z</time>
      </trkpt>
      <trkpt lat="43.50312" lon="5.90903">
        <ele>285.17</ele>
        <time>2019-05-12T08:37:42Z</time>
      </trkpt>
      <trkpt lat="43.50313" lon="5.90905">
        <ele>285.17</ele>
        <time>2019-05-12T08:37:43Z</time>
      </trkpt>
      <trkpt lat="43.50314" lon="5.90907">
        <ele>285.17</ele>
        <time>2019-05-12T08:37:44Z</time>
      </trkpt>
      <trkpt lat="43.50315" lon="5.90908">
        <ele>285.17</ele>
        <time>2019-05-12T08:37:45Z</time>
      </trkpt>
      <trkpt lat="43.50316" lon="5.90911">
        <ele>285.17</ele>
        <time>2019-05-12T08:37:46Z</time>
      </trkpt>
      <trkpt lat="43.50318" lon="5.90929">
        <ele>285.17</ele>
        <time>2019-05-12T08:37:56Z</time>
      </trkpt>
      <trkpt lat="43.50317" lon="5.9093">
        <ele>285.17</ele>
        <time>2019-05-12T08:37:57Z</time>
      </trkpt>
      <trkpt lat="43.50308" lon="5.90935">
        <ele>284.69</ele>
        <time>2019-05-12T08:38:02Z</time>
      </trkpt>
      <trkpt lat="43.50303" lon="5.90936">
        <ele>284.69</ele>
        <time>2019-05-12T08:38:11Z</time>
      </trkpt>
      <trkpt lat="43.50298" lon="5.90932">
        <ele>284.21</ele>
        <time>2019-05-12T08:38:28Z</time>
      </trkpt>
      <trkpt lat="43.50293" lon="5.90922">
        <ele>283.25</ele>
        <time>2019-05-12T08:38:45Z</time>
      </trkpt>
      <trkpt lat="43.50293" lon="5.9092">
        <ele>282.77</ele>
        <time>2019-05-12T08:39:33Z</time>
      </trkpt>
      <trkpt lat="43.5029" lon="5.90919">
        <ele>282.28</ele>
        <time>2019-05-12T08:40:13Z</time>
      </trkpt>
      <trkpt lat="43.50292" lon="5.90919">
        <ele>283.25</ele>
        <time>2019-05-12T08:40:59Z</time>
      </trkpt>
      <trkpt lat="43.50295" lon="5.90921">
        <ele>283.25</ele>
        <time>2019-05-12T08:41:10Z</time>
      </trkpt>
      <trkpt lat="43.50295" lon="5.90924">
        <ele>283.73</ele>
        <time>2019-05-12T08:41:12Z</time>
      </trkpt>
      <trkpt lat="43.50304" lon="5.90951">
        <ele>284.69</ele>
        <time>2019-05-12T08:41:22Z</time>
      </trkpt>
      <trkpt lat="43.50302" lon="5.9096">
        <ele>284.69</ele>
        <time>2019-05-12T08:41:26Z</time>
      </trkpt>
      <trkpt lat="43.50299" lon="5.90966">
        <ele>285.17</ele>
        <time>2019-05-12T08:41:28Z</time>
      </trkpt>
      <trkpt lat="43.503" lon="5.90972">
        <ele>285.17</ele>
        <time>2019-05-12T08:41:29Z</time>
      </trkpt>
      <trkpt lat="43.50301" lon="5.90975">
        <ele>285.17</ele>
        <time>2019-05-12T08:41:30Z</time>
      </trkpt>
      <trkpt lat="43.50303" lon="5.9098">
        <ele>285.65</ele>
        <time>2019-05-12T08:41:31Z</time>
      </trkpt>
      <trkpt lat="43.50305" lon="5.90985">
        <ele>285.17</ele>
        <time>2019-05-12T08:41:32Z</time>
      </trkpt>
      <trkpt lat="43.5034" lon="5.91048">
        <ele>288.53</ele>
        <time>2019-05-12T08:41:44Z</time>
      </trkpt>
      <trkpt lat="43.50387" lon="5.9113">
        <ele>290.94</ele>
        <time>2019-05-12T08:42:00Z</time>
      </trkpt>
      <trkpt lat="43.50409" lon="5.91179">
        <ele>292.86</ele>
        <time>2019-05-12T08:42:15Z</time>
      </trkpt>
      <trkpt lat="43.50408" lon="5.91181">
        <ele>292.86</ele>
        <time>2019-05-12T08:42:16Z</time>
      </trkpt>
      <trkpt lat="43.50407" lon="5.9118">
        <ele>292.86</ele>
        <time>2019-05-12T08:42:17Z</time>
      </trkpt>
      <trkpt lat="43.50405" lon="5.91179">
        <ele>292.86</ele>
        <time>2019-05-12T08:42:18Z</time>
      </trkpt>
      <trkpt lat="43.50403" lon="5.91176">
        <ele>292.86</ele>
        <time>2019-05-12T08:42:19Z</time>
      </trkpt>
      <trkpt lat="43.50401" lon="5.91174">
        <ele>291.42</ele>
        <time>2019-05-12T08:42:20Z</time>
      </trkpt>
      <trkpt lat="43.50398" lon="5.9117">
        <ele>291.42</ele>
        <time>2019-05-12T08:42:21Z</time>
      </trkpt>
      <trkpt lat="43.50388" lon="5.91155">
        <ele>290.46</ele>
        <time>2019-05-12T08:42:25Z</time>
      </trkpt>
      <trkpt lat="43.50385" lon="5.91152">
        <ele>290.46</ele>
        <time>2019-05-12T08:42:26Z</time>
      </trkpt>
      <trkpt lat="43.50381" lon="5.91149">
        <ele>289.97</ele>
        <time>2019-05-12T08:42:27Z</time>
      </trkpt>
      <trkpt lat="43.50377" lon="5.91148">
        <ele>289.97</ele>
        <time>2019-05-12T08:42:28Z</time>
      </trkpt>
      <trkpt lat="43.50373" lon="5.91149">
        <ele>289.49</ele>
        <time>2019-05-12T08:42:29Z</time>
      </trkpt>
      <trkpt lat="43.5037" lon="5.91153">
        <ele>289.49</ele>
        <time>2019-05-12T08:42:30Z</time>
      </trkpt>
      <trkpt lat="43.50366" lon="5.91157">
        <ele>288.53</ele>
        <time>2019-05-12T08:42:31Z</time>
      </trkpt>
      <trkpt lat="43.50361" lon="5.91163">
        <ele>288.53</ele>
        <time>2019-05-12T08:42:32Z</time>
      </trkpt>
      <trkpt lat="43.50338" lon="5.91185">
        <ele>286.13</ele>
        <time>2019-05-12T08:42:36Z</time>
      </trkpt>
      <trkpt lat="43.50277" lon="5.91234">
        <ele>283.25</ele>
        <time>2019-05-12T08:42:45Z</time>
      </trkpt>
      <trkpt lat="43.5027" lon="5.91239">
        <ele>283.25</ele>
        <time>2019-05-12T08:42:46Z</time>
      </trkpt>
      <trkpt lat="43.50232" lon="5.9127">
        <ele>283.25</ele>
        <time>2019-05-12T08:42:52Z</time>
      </trkpt>
      <trkpt lat="43.50227" lon="5.91275">
        <ele>283.25</ele>
        <time>2019-05-12T08:42:53Z</time>
      </trkpt>
      <trkpt lat="43.50222" lon="5.91281">
        <ele>283.25</ele>
        <time>2019-05-12T08:42:54Z</time>
      </trkpt>
      <trkpt lat="43.50206" lon="5.91306">
        <ele>283.25</ele>
        <time>2019-05-12T08:42:59Z</time>
      </trkpt>
      <trkpt lat="43.50203" lon="5.9131">
        <ele>283.25</ele>
        <time>2019-05-12T08:43:00Z</time>
      </trkpt>
      <trkpt lat="43.50199" lon="5.91315">
        <ele>284.21</ele>
        <time>2019-05-12T08:43:01Z</time>
      </trkpt>
      <trkpt lat="43.5017" lon="5.91355">
        <ele>286.13</ele>
        <time>2019-05-12T08:43:14Z</time>
      </trkpt>
      <trkpt lat="43.50142" lon="5.91389">
        <ele>288.53</ele>
        <time>2019-05-12T08:43:27Z</time>
      </trkpt>
      <trkpt lat="43.50112" lon="5.91424">
        <ele>291.42</ele>
        <time>2019-05-12T08:43:40Z</time>
      </trkpt>
      <trkpt lat="43.50104" lon="5.91477">
        <ele>293.34</ele>
        <time>2019-05-12T08:43:52Z</time>
      </trkpt>
      <trkpt lat="43.50111" lon="5.91547">
        <ele>295.74</ele>
        <time>2019-05-12T08:44:07Z</time>
      </trkpt>
      <trkpt lat="43.50106" lon="5.91603">
        <ele>298.63</ele>
        <time>2019-05-12T08:44:23Z</time>
      </trkpt>
      <trkpt lat="43.5009" lon="5.91662">
        <ele>301.03</ele>
        <time>2019-05-12T08:44:40Z</time>
      </trkpt>
      <trkpt lat="43.50078" lon="5.91708">
        <ele>302.47</ele>
        <time>2019-05-12T08:44:53Z</time>
      </trkpt>
      <trkpt lat="43.50076" lon="5.91717">
        <ele>303.91</ele>
        <time>2019-05-12T08:44:56Z</time>
      </trkpt>
      <trkpt lat="43.50066" lon="5.91762">
        <ele>305.84</ele>
        <time>2019-05-12T08:45:11Z</time>
      </trkpt>
      <trkpt lat="43.50067" lon="5.91809">
        <ele>307.76</ele>
        <time>2019-05-12T08:45:26Z</time>
      </trkpt>
      <trkpt lat="43.50066" lon="5.91858">
        <ele>309.68</ele>
        <time>2019-05-12T08:45:40Z</time>
      </trkpt>
      <trkpt lat="43.50075" lon="5.91904">
        <ele>313.05</ele>
        <time>2019-05-12T08:45:55Z</time>
      </trkpt>
      <trkpt lat="43.50094" lon="5.91959">
        <ele>313.53</ele>
        <time>2019-05-12T08:46:11Z</time>
      </trkpt>
      <trkpt lat="43.50112" lon="5.92024">
        <ele>315.93</ele>
        <time>2019-05-12T08:46:28Z</time>
      </trkpt>
      <trkpt lat="43.50133" lon="5.92077">
        <ele>318.33</ele>
        <time>2019-05-12T08:46:43Z</time>
      </trkpt>
      <trkpt lat="43.50156" lon="5.92137">
        <ele>320.26</ele>
        <time>2019-05-12T08:46:59Z</time>
      </trkpt>
      <trkpt lat="43.50183" lon="5.92204">
        <ele>321.22</ele>
        <time>2019-05-12T08:47:17Z</time>
      </trkpt>
      <trkpt lat="43.50207" lon="5.92262">
        <ele>322.66</ele>
        <time>2019-05-12T08:47:31Z</time>
      </trkpt>
      <trkpt lat="43.50225" lon="5.9231">
        <ele>321.7</ele>
        <time>2019-05-12T08:47:42Z</time>
      </trkpt>
      <trkpt lat="43.50232" lon="5.92331">
        <ele>323.14</ele>
        <time>2019-05-12T08:47:47Z</time>
      </trkpt>
      <trkpt lat="43.50255" lon="5.92391">
        <ele>325.54</ele>
        <time>2019-05-12T08:48:02Z</time>
      </trkpt>
      <trkpt lat="43.50272" lon="5.92427">
        <ele>327.47</ele>
        <time>2019-05-12T08:48:11Z</time>
      </trkpt>
      <trkpt lat="43.50286" lon="5.92451">
        <ele>330.35</ele>
        <time>2019-05-12T08:48:19Z</time>
      </trkpt>
      <trkpt lat="43.50311" lon="5.92492">
        <ele>329.87</ele>
        <time>2019-05-12T08:48:35Z</time>
      </trkpt>
      <trkpt lat="43.50323" lon="5.92519">
        <ele>328.43</ele>
        <time>2019-05-12T08:48:45Z</time>
      </trkpt>
      <trkpt lat="43.50328" lon="5.92529">
        <ele>330.35</ele>
        <time>2019-05-12T08:48:48Z</time>
      </trkpt>
      <trkpt lat="43.50355" lon="5.92593">
        <ele>332.75</ele>
        <time>2019-05-12T08:49:08Z</time>
      </trkpt>
      <trkpt lat="43.50373" lon="5.92632">
        <ele>336.6</ele>
        <time>2019-05-12T08:49:22Z</time>
      </trkpt>
      <trkpt lat="43.50375" lon="5.92635">
        <ele>336.6</ele>
        <time>2019-05-12T08:49:23Z</time>
      </trkpt>
      <trkpt lat="43.50381" lon="5.92643">
        <ele>338.04</ele>
        <time>2019-05-12T08:49:26Z</time>
      </trkpt>
      <trkpt lat="43.50401" lon="5.92685">
        <ele>341.41</ele>
        <time>2019-05-12T08:49:42Z</time>
      </trkpt>
      <trkpt lat="43.50419" lon="5.92734">
        <ele>345.25</ele>
        <time>2019-05-12T08:50:00Z</time>
      </trkpt>
      <trkpt lat="43.50448" lon="5.92796">
        <ele>346.69</ele>
        <time>2019-05-12T08:50:17Z</time>
      </trkpt>
      <trkpt lat="43.50454" lon="5.92808">
        <ele>344.77</ele>
        <time>2019-05-12T08:50:20Z</time>
      </trkpt>
      <trkpt lat="43.50503" lon="5.92894">
        <ele>342.85</ele>
        <time>2019-05-12T08:50:39Z</time>
      </trkpt>
      <trkpt lat="43.50519" lon="5.9292">
        <ele>340.44</ele>
        <time>2019-05-12T08:50:44Z</time>
      </trkpt>
      <trkpt lat="43.50523" lon="5.92926">
        <ele>340.44</ele>
        <time>2019-05-12T08:50:45Z</time>
      </trkpt>
      <trkpt lat="43.50569" lon="5.92987">
        <ele>339</ele>
        <time>2019-05-12T08:50:56Z</time>
      </trkpt>
      <trkpt lat="43.50572" lon="5.92993">
        <ele>339</ele>
        <time>2019-05-12T08:50:57Z</time>
      </trkpt>
      <trkpt lat="43.50573" lon="5.93">
        <ele>338.52</ele>
        <time>2019-05-12T08:50:58Z</time>
      </trkpt>
      <trkpt lat="43.50573" lon="5.93007">
        <ele>338.04</ele>
        <time>2019-05-12T08:50:59Z</time>
      </trkpt>
      <trkpt lat="43.50571" lon="5.93013">
        <ele>338.04</ele>
        <time>2019-05-12T08:51:00Z</time>
      </trkpt>
      <trkpt lat="43.50568" lon="5.93018">
        <ele>338.04</ele>
        <time>2019-05-12T08:51:01Z</time>
      </trkpt>
      <trkpt lat="43.50565" lon="5.93023">
        <ele>338.04</ele>
        <time>2019-05-12T08:51:02Z</time>
      </trkpt>
      <trkpt lat="43.50561" lon="5.93026">
        <ele>338.04</ele>
        <time>2019-05-12T08:51:03Z</time>
      </trkpt>
      <trkpt lat="43.50558" lon="5.9303">
        <ele>338.04</ele>
        <time>2019-05-12T08:51:04Z</time>
      </trkpt>
      <trkpt lat="43.50555" lon="5.93033">
        <ele>338.04</ele>
        <time>2019-05-12T08:51:05Z</time>
      </trkpt>
      <trkpt lat="43.50552" lon="5.93037">
        <ele>338.04</ele>
        <time>2019-05-12T08:51:06Z</time>
      </trkpt>
      <trkpt lat="43.50543" lon="5.93051">
        <ele>339.48</ele>
        <time>2019-05-12T08:51:09Z</time>
      </trkpt>
      <trkpt lat="43.5054" lon="5.93056">
        <ele>339.48</ele>
        <time>2019-05-12T08:51:10Z</time>
      </trkpt>
      <trkpt lat="43.50535" lon="5.9306">
        <ele>339.48</ele>
        <time>2019-05-12T08:51:11Z</time>
      </trkpt>
      <trkpt lat="43.50531" lon="5.93063">
        <ele>339.48</ele>
        <time>2019-05-12T08:51:12Z</time>
      </trkpt>
      <trkpt lat="43.50526" lon="5.93065">
        <ele>339.48</ele>
        <time>2019-05-12T08:51:13Z</time>
      </trkpt>
      <trkpt lat="43.5052" lon="5.93066">
        <ele>339.48</ele>
        <time>2019-05-12T08:51:14Z</time>
      </trkpt>
      <trkpt lat="43.50514" lon="5.93065">
        <ele>339.48</ele>
        <time>2019-05-12T08:51:15Z</time>
      </trkpt>
      <trkpt lat="43.50507" lon="5.93063">
        <ele>339.48</ele>
        <time>2019-05-12T08:51:16Z</time>
      </trkpt>
      <trkpt lat="43.50486" lon="5.93057">
        <ele>337.56</ele>
        <time>2019-05-12T08:51:19Z</time>
      </trkpt>
      <trkpt lat="43.50453" lon="5.93049">
        <ele>336.12</ele>
        <time>2019-05-12T08:51:23Z</time>
      </trkpt>
      <trkpt lat="43.50445" lon="5.93044">
        <ele>335.64</ele>
        <time>2019-05-12T08:51:24Z</time>
      </trkpt>
      <trkpt lat="43.50437" lon="5.93038">
        <ele>334.68</ele>
        <time>2019-05-12T08:51:25Z</time>
      </trkpt>
      <trkpt lat="43.5043" lon="5.9303">
        <ele>334.68</ele>
        <time>2019-05-12T08:51:26Z</time>
      </trkpt>
      <trkpt lat="43.50424" lon="5.93022">
        <ele>333.71</ele>
        <time>2019-05-12T08:51:27Z</time>
      </trkpt>
      <trkpt lat="43.5041" lon="5.93004">
        <ele>333.23</ele>
        <time>2019-05-12T08:51:29Z</time>
      </trkpt>
      <trkpt lat="43.50404" lon="5.92996">
        <ele>333.23</ele>
        <time>2019-05-12T08:51:30Z</time>
      </trkpt>
      <trkpt lat="43.50396" lon="5.9299">
        <ele>331.79</ele>
        <time>2019-05-12T08:51:31Z</time>
      </trkpt>
      <trkpt lat="43.50388" lon="5.92987">
        <ele>331.79</ele>
        <time>2019-05-12T08:51:32Z</time>
      </trkpt>
      <trkpt lat="43.50381" lon="5.92987">
        <ele>330.83</ele>
        <time>2019-05-12T08:51:33Z</time>
      </trkpt>
      <trkpt lat="43.50373" lon="5.9299">
        <ele>329.87</ele>
        <time>2019-05-12T08:51:34Z</time>
      </trkpt>
      <trkpt lat="43.50366" lon="5.92996">
        <ele>330.35</ele>
        <time>2019-05-12T08:51:35Z</time>
      </trkpt>
      <trkpt lat="43.5036" lon="5.93003">
        <ele>329.39</ele>
        <time>2019-05-12T08:51:36Z</time>
      </trkpt>
      <trkpt lat="43.50353" lon="5.9301">
        <ele>328.91</ele>
        <time>2019-05-12T08:51:37Z</time>
      </trkpt>
      <trkpt lat="43.50347" lon="5.93019">
        <ele>326.99</ele>
        <time>2019-05-12T08:51:38Z</time>
      </trkpt>
      <trkpt lat="43.50336" lon="5.93035">
        <ele>326.02</ele>
        <time>2019-05-12T08:51:40Z</time>
      </trkpt>
      <trkpt lat="43.50316" lon="5.93059">
        <ele>324.1</ele>
        <time>2019-05-12T08:51:43Z</time>
      </trkpt>
      <trkpt lat="43.50307" lon="5.93066">
        <ele>323.14</ele>
        <time>2019-05-12T08:51:44Z</time>
      </trkpt>
      <trkpt lat="43.5029" lon="5.93078">
        <ele>321.7</ele>
        <time>2019-05-12T08:51:46Z</time>
      </trkpt>
      <trkpt lat="43.50245" lon="5.93112">
        <ele>317.37</ele>
        <time>2019-05-12T08:51:51Z</time>
      </trkpt>
      <trkpt lat="43.50236" lon="5.93113">
        <ele>317.37</ele>
        <time>2019-05-12T08:51:52Z</time>
      </trkpt>
      <trkpt lat="43.50226" lon="5.93111">
        <ele>317.37</ele>
        <time>2019-05-12T08:51:53Z</time>
      </trkpt>
      <trkpt lat="43.50217" lon="5.93105">
        <ele>317.37</ele>
        <time>2019-05-12T08:51:54Z</time>
      </trkpt>
      <trkpt lat="43.50208" lon="5.93097">
        <ele>315.93</ele>
        <time>2019-05-12T08:51:55Z</time>
      </trkpt>
      <trkpt lat="43.50183" lon="5.93078">
        <ele>314.97</ele>
        <time>2019-05-12T08:51:58Z</time>
      </trkpt>
      <trkpt lat="43.50174" lon="5.93075">
        <ele>314.01</ele>
        <time>2019-05-12T08:51:59Z</time>
      </trkpt>
      <trkpt lat="43.50165" lon="5.93073">
        <ele>314.01</ele>
        <time>2019-05-12T08:52:00Z</time>
      </trkpt>
      <trkpt lat="43.50155" lon="5.93074">
        <ele>314.01</ele>
        <time>2019-05-12T08:52:01Z</time>
      </trkpt>
      <trkpt lat="43.50146" lon="5.93076">
        <ele>313.05</ele>
        <time>2019-05-12T08:52:02Z</time>
      </trkpt>
      <trkpt lat="43.50137" lon="5.9308">
        <ele>312.57</ele>
        <time>2019-05-12T08:52:03Z</time>
      </trkpt>
      <trkpt lat="43.50127" lon="5.93084">
        <ele>312.09</ele>
        <time>2019-05-12T08:52:04Z</time>
      </trkpt>
      <trkpt lat="43.50089" lon="5.93096">
        <ele>309.68</ele>
        <time>2019-05-12T08:52:08Z</time>
      </trkpt>
      <trkpt lat="43.50079" lon="5.93096">
        <ele>308.72</ele>
        <time>2019-05-12T08:52:09Z</time>
      </trkpt>
      <trkpt lat="43.50038" lon="5.93096">
        <ele>308.24</ele>
        <time>2019-05-12T08:52:13Z</time>
      </trkpt>
      <trkpt lat="43.50028" lon="5.93099">
        <ele>307.28</ele>
        <time>2019-05-12T08:52:14Z</time>
      </trkpt>
      <trkpt lat="43.50018" lon="5.93106">
        <ele>306.32</ele>
        <time>2019-05-12T08:52:15Z</time>
      </trkpt>
      <trkpt lat="43.5001" lon="5.93113">
        <ele>306.32</ele>
        <time>2019-05-12T08:52:16Z</time>
      </trkpt>
      <trkpt lat="43.50003" lon="5.93122">
        <ele>306.32</ele>
        <time>2019-05-12T08:52:17Z</time>
      </trkpt>
      <trkpt lat="43.49997" lon="5.93132">
        <ele>305.84</ele>
        <time>2019-05-12T08:52:18Z</time>
      </trkpt>
      <trkpt lat="43.49993" lon="5.93143">
        <ele>304.88</ele>
        <time>2019-05-12T08:52:19Z</time>
      </trkpt>
      <trkpt lat="43.49991" lon="5.93155">
        <ele>304.39</ele>
        <time>2019-05-12T08:52:20Z</time>
      </trkpt>
      <trkpt lat="43.4999" lon="5.93168">
        <ele>304.39</ele>
        <time>2019-05-12T08:52:21Z</time>
      </trkpt>
      <trkpt lat="43.4999" lon="5.93182">
        <ele>303.91</ele>
        <time>2019-05-12T08:52:22Z</time>
      </trkpt>
      <trkpt lat="43.49992" lon="5.93329">
        <ele>300.55</ele>
        <time>2019-05-12T08:52:33Z</time>
      </trkpt>
      <trkpt lat="43.49965" lon="5.93477">
        <ele>297.67</ele>
        <time>2019-05-12T08:52:44Z</time>
      </trkpt>
      <trkpt lat="43.4993" lon="5.93582">
        <ele>296.7</ele>
        <time>2019-05-12T08:52:52Z</time>
      </trkpt>
      <trkpt lat="43.49924" lon="5.93592">
        <ele>296.7</ele>
        <time>2019-05-12T08:52:53Z</time>
      </trkpt>
      <trkpt lat="43.49917" lon="5.936">
        <ele>295.74</ele>
        <time>2019-05-12T08:52:54Z</time>
      </trkpt>
      <trkpt lat="43.49909" lon="5.93607">
        <ele>294.78</ele>
        <time>2019-05-12T08:52:55Z</time>
      </trkpt>
      <trkpt lat="43.499" lon="5.93612">
        <ele>293.82</ele>
        <time>2019-05-12T08:52:56Z</time>
      </trkpt>
      <trkpt lat="43.49891" lon="5.93615">
        <ele>293.82</ele>
        <time>2019-05-12T08:52:57Z</time>
      </trkpt>
      <trkpt lat="43.49863" lon="5.93624">
        <ele>292.38</ele>
        <time>2019-05-12T08:53:00Z</time>
      </trkpt>
      <trkpt lat="43.49815" lon="5.93643">
        <ele>289.97</ele>
        <time>2019-05-12T08:53:05Z</time>
      </trkpt>
      <trkpt lat="43.49797" lon="5.93656">
        <ele>289.01</ele>
        <time>2019-05-12T08:53:07Z</time>
      </trkpt>
      <trkpt lat="43.49789" lon="5.93665">
        <ele>289.01</ele>
        <time>2019-05-12T08:53:08Z</time>
      </trkpt>
      <trkpt lat="43.49781" lon="5.93675">
        <ele>289.01</ele>
        <time>2019-05-12T08:53:09Z</time>
      </trkpt>
      <trkpt lat="43.49773" lon="5.93686">
        <ele>289.01</ele>
        <time>2019-05-12T08:53:10Z</time>
      </trkpt>
      <trkpt lat="43.49766" lon="5.93699">
        <ele>289.01</ele>
        <time>2019-05-12T08:53:11Z</time>
      </trkpt>
      <trkpt lat="43.49761" lon="5.93712">
        <ele>289.01</ele>
        <time>2019-05-12T08:53:12Z</time>
      </trkpt>
      <trkpt lat="43.49757" lon="5.93725">
        <ele>289.01</ele>
        <time>2019-05-12T08:53:13Z</time>
      </trkpt>
      <trkpt lat="43.49754" lon="5.9374">
        <ele>288.53</ele>
        <time>2019-05-12T08:53:14Z</time>
      </trkpt>
      <trkpt lat="43.49753" lon="5.93754">
        <ele>287.57</ele>
        <time>2019-05-12T08:53:15Z</time>
      </trkpt>
      <trkpt lat="43.49752" lon="5.93768">
        <ele>287.57</ele>
        <time>2019-05-12T08:53:16Z</time>
      </trkpt>
      <trkpt lat="43.49724" lon="5.93941">
        <ele>285.17</ele>
        <time>2019-05-12T08:53:30Z</time>
      </trkpt>
      <trkpt lat="43.49712" lon="5.93974">
        <ele>285.17</ele>
        <time>2019-05-12T08:53:33Z</time>
      </trkpt>
      <trkpt lat="43.49706" lon="5.93984">
        <ele>285.17</ele>
        <time>2019-05-12T08:53:34Z</time>
      </trkpt>
      <trkpt lat="43.497" lon="5.9399">
        <ele>284.21</ele>
        <time>2019-05-12T08:53:35Z</time>
      </trkpt>
      <trkpt lat="43.49693" lon="5.93996">
        <ele>284.21</ele>
        <time>2019-05-12T08:53:36Z</time>
      </trkpt>
      <trkpt lat="43.49684" lon="5.94">
        <ele>284.21</ele>
        <time>2019-05-12T08:53:37Z</time>
      </trkpt>
      <trkpt lat="43.49676" lon="5.94004">
        <ele>284.21</ele>
        <time>2019-05-12T08:53:38Z</time>
      </trkpt>
      <trkpt lat="43.49659" lon="5.94015">
        <ele>283.73</ele>
        <time>2019-05-12T08:53:40Z</time>
      </trkpt>
      <trkpt lat="43.49651" lon="5.94022">
        <ele>282.77</ele>
        <time>2019-05-12T08:53:41Z</time>
      </trkpt>
      <trkpt lat="43.49569" lon="5.94105">
        <ele>282.28</ele>
        <time>2019-05-12T08:53:54Z</time>
      </trkpt>
      <trkpt lat="43.49564" lon="5.94111">
        <ele>282.28</ele>
        <time>2019-05-12T08:53:55Z</time>
      </trkpt>
      <trkpt lat="43.4956" lon="5.94118">
        <ele>282.28</ele>
        <time>2019-05-12T08:53:56Z</time>
      </trkpt>
      <trkpt lat="43.49556" lon="5.94125">
        <ele>282.28</ele>
        <time>2019-05-12T08:53:57Z</time>
      </trkpt>
      <trkpt lat="43.49553" lon="5.94132">
        <ele>282.28</ele>
        <time>2019-05-12T08:53:58Z</time>
      </trkpt>
      <trkpt lat="43.4955" lon="5.9414">
        <ele>282.28</ele>
        <time>2019-05-12T08:53:59Z</time>
      </trkpt>
      <trkpt lat="43.49548" lon="5.94148">
        <ele>282.28</ele>
        <time>2019-05-12T08:54:00Z</time>
      </trkpt>
      <trkpt lat="43.49546" lon="5.94157">
        <ele>281.8</ele>
        <time>2019-05-12T08:54:01Z</time>
      </trkpt>
      <trkpt lat="43.49542" lon="5.9424">
        <ele>281.32</ele>
        <time>2019-05-12T08:54:13Z</time>
      </trkpt>
      <trkpt lat="43.49539" lon="5.94284">
        <ele>282.77</ele>
        <time>2019-05-12T08:54:20Z</time>
      </trkpt>
      <trkpt lat="43.49533" lon="5.94388">
        <ele>285.17</ele>
        <time>2019-05-12T08:54:36Z</time>
      </trkpt>
      <trkpt lat="43.49533" lon="5.94454">
        <ele>286.61</ele>
        <time>2019-05-12T08:54:46Z</time>
      </trkpt>
      <trkpt lat="43.49534" lon="5.9446">
        <ele>287.09</ele>
        <time>2019-05-12T08:54:47Z</time>
      </trkpt>
      <trkpt lat="43.49535" lon="5.94466">
        <ele>287.09</ele>
        <time>2019-05-12T08:54:48Z</time>
      </trkpt>
      <trkpt lat="43.49558" lon="5.94541">
        <ele>286.13</ele>
        <time>2019-05-12T08:55:00Z</time>
      </trkpt>
      <trkpt lat="43.49558" lon="5.94549">
        <ele>285.65</ele>
        <time>2019-05-12T08:55:01Z</time>
      </trkpt>
      <trkpt lat="43.49557" lon="5.94557">
        <ele>285.65</ele>
        <time>2019-05-12T08:55:02Z</time>
      </trkpt>
      <trkpt lat="43.49551" lon="5.9459">
        <ele>285.17</ele>
        <time>2019-05-12T08:55:06Z</time>
      </trkpt>
      <trkpt lat="43.49498" lon="5.94701">
        <ele>284.21</ele>
        <time>2019-05-12T08:55:22Z</time>
      </trkpt>
      <trkpt lat="43.49467" lon="5.94753">
        <ele>284.21</ele>
        <time>2019-05-12T08:55:31Z</time>
      </trkpt>
      <trkpt lat="43.49462" lon="5.94757">
        <ele>284.21</ele>
        <time>2019-05-12T08:55:32Z</time>
      </trkpt>
      <trkpt lat="43.49457" lon="5.94761">
        <ele>283.73</ele>
        <time>2019-05-12T08:55:33Z</time>
      </trkpt>
      <trkpt lat="43.49453" lon="5.94763">
        <ele>283.73</ele>
        <time>2019-05-12T08:55:34Z</time>
      </trkpt>
      <trkpt lat="43.49447" lon="5.94764">
        <ele>283.73</ele>
        <time>2019-05-12T08:55:35Z</time>
      </trkpt>
      <trkpt lat="43.49442" lon="5.94765">
        <ele>283.73</ele>
        <time>2019-05-12T08:55:36Z</time>
      </trkpt>
      <trkpt lat="43.49375" lon="5.94761">
        <ele>280.84</ele>
        <time>2019-05-12T08:55:46Z</time>
      </trkpt>
      <trkpt lat="43.49367" lon="5.9476">
        <ele>280.84</ele>
        <time>2019-05-12T08:55:47Z</time>
      </trkpt>
      <trkpt lat="43.4929" lon="5.94766">
        <ele>276.52</ele>
        <time>2019-05-12T08:55:56Z</time>
      </trkpt>
      <trkpt lat="43.4922" lon="5.94778">
        <ele>274.11</ele>
        <time>2019-05-12T08:56:03Z</time>
      </trkpt>
      <trkpt lat="43.49131" lon="5.9481">
        <ele>270.75</ele>
        <time>2019-05-12T08:56:12Z</time>
      </trkpt>
      <trkpt lat="43.49037" lon="5.94856">
        <ele>269.79</ele>
        <time>2019-05-12T08:56:24Z</time>
      </trkpt>
      <trkpt lat="43.48937" lon="5.94921">
        <ele>268.35</ele>
        <time>2019-05-12T08:56:38Z</time>
      </trkpt>
      <trkpt lat="43.48837" lon="5.94942">
        <ele>269.31</ele>
        <time>2019-05-12T08:56:52Z</time>
      </trkpt>
      <trkpt lat="43.48747" lon="5.9492">
        <ele>270.27</ele>
        <time>2019-05-12T08:57:06Z</time>
      </trkpt>
      <trkpt lat="43.48667" lon="5.94854">
        <ele>270.75</ele>
        <time>2019-05-12T08:57:21Z</time>
      </trkpt>
      <trkpt lat="43.48644" lon="5.94837">
        <ele>270.75</ele>
        <time>2019-05-12T08:57:25Z</time>
      </trkpt>
      <trkpt lat="43.48638" lon="5.94834">
        <ele>270.75</ele>
        <time>2019-05-12T08:57:26Z</time>
      </trkpt>
      <trkpt lat="43.48632" lon="5.94832">
        <ele>270.75</ele>
        <time>2019-05-12T08:57:27Z</time>
      </trkpt>
      <trkpt lat="43.48626" lon="5.94831">
        <ele>269.79</ele>
        <time>2019-05-12T08:57:28Z</time>
      </trkpt>
      <trkpt lat="43.48619" lon="5.9483">
        <ele>269.79</ele>
        <time>2019-05-12T08:57:29Z</time>
      </trkpt>
      <trkpt lat="43.48568" lon="5.94823">
        <ele>271.23</ele>
        <time>2019-05-12T08:57:37Z</time>
      </trkpt>
      <trkpt lat="43.48473" lon="5.94829">
        <ele>271.71</ele>
        <time>2019-05-12T08:57:53Z</time>
      </trkpt>
      <trkpt lat="43.48456" lon="5.94832">
        <ele>270.75</ele>
        <time>2019-05-12T08:57:56Z</time>
      </trkpt>
      <trkpt lat="43.4839" lon="5.94868">
        <ele>269.79</ele>
        <time>2019-05-12T08:58:08Z</time>
      </trkpt>
      <trkpt lat="43.48375" lon="5.94886">
        <ele>269.79</ele>
        <time>2019-05-12T08:58:11Z</time>
      </trkpt>
      <trkpt lat="43.4837" lon="5.9489">
        <ele>269.79</ele>
        <time>2019-05-12T08:58:12Z</time>
      </trkpt>
      <trkpt lat="43.48363" lon="5.94895">
        <ele>269.79</ele>
        <time>2019-05-12T08:58:13Z</time>
      </trkpt>
      <trkpt lat="43.48286" lon="5.94926">
        <ele>270.75</ele>
        <time>2019-05-12T08:58:25Z</time>
      </trkpt>
      <trkpt lat="43.48204" lon="5.94928">
        <ele>271.23</ele>
        <time>2019-05-12T08:58:38Z</time>
      </trkpt>
      <trkpt lat="43.48156" lon="5.94887">
        <ele>271.71</ele>
        <time>2019-05-12T08:58:47Z</time>
      </trkpt>
      <trkpt lat="43.48152" lon="5.9488">
        <ele>271.71</ele>
        <time>2019-05-12T08:58:48Z</time>
      </trkpt>
      <trkpt lat="43.48148" lon="5.94872">
        <ele>271.71</ele>
        <time>2019-05-12T08:58:49Z</time>
      </trkpt>
      <trkpt lat="43.48146" lon="5.94865">
        <ele>271.71</ele>
        <time>2019-05-12T08:58:50Z</time>
      </trkpt>
      <trkpt lat="43.48143" lon="5.94857">
        <ele>272.19</ele>
        <time>2019-05-12T08:58:51Z</time>
      </trkpt>
      <trkpt lat="43.48138" lon="5.94841">
        <ele>272.19</ele>
        <time>2019-05-12T08:58:53Z</time>
      </trkpt>
      <trkpt lat="43.48134" lon="5.94834">
        <ele>272.19</ele>
        <time>2019-05-12T08:58:54Z</time>
      </trkpt>
      <trkpt lat="43.48129" lon="5.94828">
        <ele>272.19</ele>
        <time>2019-05-12T08:58:55Z</time>
      </trkpt>
      <trkpt lat="43.48124" lon="5.94823">
        <ele>272.19</ele>
        <time>2019-05-12T08:58:56Z</time>
      </trkpt>
      <trkpt lat="43.48119" lon="5.94817">
        <ele>272.19</ele>
        <time>2019-05-12T08:58:57Z</time>
      </trkpt>
      <trkpt lat="43.48081" lon="5.94786">
        <ele>271.71</ele>
        <time>2019-05-12T08:59:04Z</time>
      </trkpt>
      <trkpt lat="43.48076" lon="5.94783">
        <ele>271.71</ele>
        <time>2019-05-12T08:59:05Z</time>
      </trkpt>
      <trkpt lat="43.48069" lon="5.94782">
        <ele>271.71</ele>
        <time>2019-05-12T08:59:06Z</time>
      </trkpt>
      <trkpt lat="43.48063" lon="5.94782">
        <ele>271.71</ele>
        <time>2019-05-12T08:59:07Z</time>
      </trkpt>
      <trkpt lat="43.48057" lon="5.94782">
        <ele>271.71</ele>
        <time>2019-05-12T08:59:08Z</time>
      </trkpt>
      <trkpt lat="43.48028" lon="5.94788">
        <ele>270.75</ele>
        <time>2019-05-12T08:59:13Z</time>
      </trkpt>
      <trkpt lat="43.47929" lon="5.94786">
        <ele>272.67</ele>
        <time>2019-05-12T08:59:29Z</time>
      </trkpt>
      <trkpt lat="43.47911" lon="5.9479">
        <ele>272.67</ele>
        <time>2019-05-12T08:59:32Z</time>
      </trkpt>
      <trkpt lat="43.47906" lon="5.94792">
        <ele>272.67</ele>
        <time>2019-05-12T08:59:33Z</time>
      </trkpt>
      <trkpt lat="43.47901" lon="5.94795">
        <ele>271.71</ele>
        <time>2019-05-12T08:59:34Z</time>
      </trkpt>
      <trkpt lat="43.47897" lon="5.94799">
        <ele>271.23</ele>
        <time>2019-05-12T08:59:35Z</time>
      </trkpt>
      <trkpt lat="43.47892" lon="5.94804">
        <ele>271.23</ele>
        <time>2019-05-12T08:59:36Z</time>
      </trkpt>
      <trkpt lat="43.47887" lon="5.9481">
        <ele>271.23</ele>
        <time>2019-05-12T08:59:37Z</time>
      </trkpt>
      <trkpt lat="43.47883" lon="5.94815">
        <ele>271.23</ele>
        <time>2019-05-12T08:59:38Z</time>
      </trkpt>
      <trkpt lat="43.47879" lon="5.94822">
        <ele>271.23</ele>
        <time>2019-05-12T08:59:39Z</time>
      </trkpt>
      <trkpt lat="43.47812" lon="5.94929">
        <ele>270.27</ele>
        <time>2019-05-12T08:59:56Z</time>
      </trkpt>
      <trkpt lat="43.47807" lon="5.94933">
        <ele>270.27</ele>
        <time>2019-05-12T08:59:57Z</time>
      </trkpt>
      <trkpt lat="43.47802" lon="5.94936">
        <ele>270.27</ele>
        <time>2019-05-12T08:59:58Z</time>
      </trkpt>
      <trkpt lat="43.47797" lon="5.9494">
        <ele>270.27</ele>
        <time>2019-05-12T08:59:59Z</time>
      </trkpt>
      <trkpt lat="43.47792" lon="5.94943">
        <ele>271.23</ele>
        <time>2019-05-12T09:00:00Z</time>
      </trkpt>
      <trkpt lat="43.47787" lon="5.94944">
        <ele>271.23</ele>
        <time>2019-05-12T09:00:01Z</time>
      </trkpt>
      <trkpt lat="43.47781" lon="5.94945">
        <ele>272.19</ele>
        <time>2019-05-12T09:00:02Z</time>
      </trkpt>
      <trkpt lat="43.47775" lon="5.94944">
        <ele>272.19</ele>
        <time>2019-05-12T09:00:03Z</time>
      </trkpt>
      <trkpt lat="43.47769" lon="5.94942">
        <ele>272.67</ele>
        <time>2019-05-12T09:00:04Z</time>
      </trkpt>
      <trkpt lat="43.47764" lon="5.94938">
        <ele>272.67</ele>
        <time>2019-05-12T09:00:05Z</time>
      </trkpt>
      <trkpt lat="43.4776" lon="5.94932">
        <ele>273.15</ele>
        <time>2019-05-12T09:00:06Z</time>
      </trkpt>
      <trkpt lat="43.47758" lon="5.94925">
        <ele>273.15</ele>
        <time>2019-05-12T09:00:07Z</time>
      </trkpt>
      <trkpt lat="43.47756" lon="5.94918">
        <ele>273.15</ele>
        <time>2019-05-12T09:00:08Z</time>
      </trkpt>
      <trkpt lat="43.47756" lon="5.9491">
        <ele>273.15</ele>
        <time>2019-05-12T09:00:09Z</time>
      </trkpt>
      <trkpt lat="43.47757" lon="5.94902">
        <ele>273.15</ele>
        <time>2019-05-12T09:00:10Z</time>
      </trkpt>
      <trkpt lat="43.47754" lon="5.94863">
        <ele>273.63</ele>
        <time>2019-05-12T09:00:15Z</time>
      </trkpt>
      <trkpt lat="43.47752" lon="5.94856">
        <ele>273.63</ele>
        <time>2019-05-12T09:00:16Z</time>
      </trkpt>
      <trkpt lat="43.47732" lon="5.94817">
        <ele>274.59</ele>
        <time>2019-05-12T09:00:22Z</time>
      </trkpt>
      <trkpt lat="43.47728" lon="5.94812">
        <ele>274.59</ele>
        <time>2019-05-12T09:00:23Z</time>
      </trkpt>
      <trkpt lat="43.47687" lon="5.94769">
        <ele>275.56</ele>
        <time>2019-05-12T09:00:32Z</time>
      </trkpt>
      <trkpt lat="43.47681" lon="5.94766">
        <ele>275.56</ele>
        <time>2019-05-12T09:00:33Z</time>
      </trkpt>
      <trkpt lat="43.47676" lon="5.94763">
        <ele>275.56</ele>
        <time>2019-05-12T09:00:34Z</time>
      </trkpt>
      <trkpt lat="43.4767" lon="5.94762">
        <ele>275.56</ele>
        <time>2019-05-12T09:00:35Z</time>
      </trkpt>
      <trkpt lat="43.47664" lon="5.94761">
        <ele>275.56</ele>
        <time>2019-05-12T09:00:36Z</time>
      </trkpt>
      <trkpt lat="43.47658" lon="5.94761">
        <ele>275.07</ele>
        <time>2019-05-12T09:00:37Z</time>
      </trkpt>
      <trkpt lat="43.47651" lon="5.94762">
        <ele>275.07</ele>
        <time>2019-05-12T09:00:38Z</time>
      </trkpt>
      <trkpt lat="43.47633" lon="5.94765">
        <ele>274.11</ele>
        <time>2019-05-12T09:00:41Z</time>
      </trkpt>
      <trkpt lat="43.47608" lon="5.94771">
        <ele>273.15</ele>
        <time>2019-05-12T09:00:45Z</time>
      </trkpt>
      <trkpt lat="43.47602" lon="5.94774">
        <ele>272.67</ele>
        <time>2019-05-12T09:00:46Z</time>
      </trkpt>
      <trkpt lat="43.47519" lon="5.94836">
        <ele>270.75</ele>
        <time>2019-05-12T09:01:00Z</time>
      </trkpt>
      <trkpt lat="43.47415" lon="5.94915">
        <ele>271.23</ele>
        <time>2019-05-12T09:01:18Z</time>
      </trkpt>
      <trkpt lat="43.4732" lon="5.94991">
        <ele>271.23</ele>
        <time>2019-05-12T09:01:34Z</time>
      </trkpt>
      <trkpt lat="43.47307" lon="5.95001">
        <ele>271.23</ele>
        <time>2019-05-12T09:01:36Z</time>
      </trkpt>
      <trkpt lat="43.47301" lon="5.95006">
        <ele>271.23</ele>
        <time>2019-05-12T09:01:37Z</time>
      </trkpt>
      <trkpt lat="43.47295" lon="5.9501">
        <ele>271.23</ele>
        <time>2019-05-12T09:01:38Z</time>
      </trkpt>
      <trkpt lat="43.47259" lon="5.9504">
        <ele>271.23</ele>
        <time>2019-05-12T09:01:45Z</time>
      </trkpt>
      <trkpt lat="43.47255" lon="5.95045">
        <ele>271.23</ele>
        <time>2019-05-12T09:01:46Z</time>
      </trkpt>
      <trkpt lat="43.47228" lon="5.95086">
        <ele>270.75</ele>
        <time>2019-05-12T09:01:53Z</time>
      </trkpt>
      <trkpt lat="43.47222" lon="5.95098">
        <ele>270.75</ele>
        <time>2019-05-12T09:01:55Z</time>
      </trkpt>
      <trkpt lat="43.47219" lon="5.95104">
        <ele>270.75</ele>
        <time>2019-05-12T09:01:56Z</time>
      </trkpt>
      <trkpt lat="43.47217" lon="5.95111">
        <ele>270.75</ele>
        <time>2019-05-12T09:01:57Z</time>
      </trkpt>
      <trkpt lat="43.47215" lon="5.95117">
        <ele>270.75</ele>
        <time>2019-05-12T09:01:58Z</time>
      </trkpt>
      <trkpt lat="43.47214" lon="5.95124">
        <ele>269.79</ele>
        <time>2019-05-12T09:01:59Z</time>
      </trkpt>
      <trkpt lat="43.47213" lon="5.95131">
        <ele>269.79</ele>
        <time>2019-05-12T09:02:00Z</time>
      </trkpt>
      <trkpt lat="43.47195" lon="5.95219">
        <ele>268.83</ele>
        <time>2019-05-12T09:02:14Z</time>
      </trkpt>
      <trkpt lat="43.4719" lon="5.95237">
        <ele>270.27</ele>
        <time>2019-05-12T09:02:17Z</time>
      </trkpt>
      <trkpt lat="43.4719" lon="5.95242">
        <ele>270.27</ele>
        <time>2019-05-12T09:02:18Z</time>
      </trkpt>
      <trkpt lat="43.47188" lon="5.95255">
        <ele>271.23</ele>
        <time>2019-05-12T09:02:24Z</time>
      </trkpt>
      <trkpt lat="43.47186" lon="5.95256">
        <ele>271.23</ele>
        <time>2019-05-12T09:02:25Z</time>
      </trkpt>
      <trkpt lat="43.47185" lon="5.95256">
        <ele>271.23</ele>
        <time>2019-05-12T09:02:26Z</time>
      </trkpt>
      <trkpt lat="43.47182" lon="5.95256">
        <ele>271.23</ele>
        <time>2019-05-12T09:02:27Z</time>
      </trkpt>
      <trkpt lat="43.4718" lon="5.95256">
        <ele>271.23</ele>
        <time>2019-05-12T09:02:28Z</time>
      </trkpt>
      <trkpt lat="43.47126" lon="5.95242">
        <ele>271.23</ele>
        <time>2019-05-12T09:02:43Z</time>
      </trkpt>
      <trkpt lat="43.47067" lon="5.95211">
        <ele>271.71</ele>
        <time>2019-05-12T09:02:56Z</time>
      </trkpt>
      <trkpt lat="43.47063" lon="5.95209">
        <ele>271.71</ele>
        <time>2019-05-12T09:02:57Z</time>
      </trkpt>
      <trkpt lat="43.47043" lon="5.952">
        <ele>273.63</ele>
        <time>2019-05-12T09:03:02Z</time>
      </trkpt>
      <trkpt lat="43.47036" lon="5.95195">
        <ele>273.63</ele>
        <time>2019-05-12T09:03:04Z</time>
      </trkpt>
      <trkpt lat="43.47032" lon="5.95191">
        <ele>272.67</ele>
        <time>2019-05-12T09:03:05Z</time>
      </trkpt>
      <trkpt lat="43.47029" lon="5.95187">
        <ele>272.67</ele>
        <time>2019-05-12T09:03:06Z</time>
      </trkpt>
      <trkpt lat="43.46998" lon="5.95141">
        <ele>273.63</ele>
        <time>2019-05-12T09:03:16Z</time>
      </trkpt>
      <trkpt lat="43.46953" lon="5.95072">
        <ele>276.52</ele>
        <time>2019-05-12T09:03:31Z</time>
      </trkpt>
      <trkpt lat="43.46932" lon="5.94991">
        <ele>279.4</ele>
        <time>2019-05-12T09:03:46Z</time>
      </trkpt>
      <trkpt lat="43.46934" lon="5.94918">
        <ele>281.32</ele>
        <time>2019-05-12T09:03:58Z</time>
      </trkpt>
      <trkpt lat="43.46959" lon="5.94814">
        <ele>282.77</ele>
        <time>2019-05-12T09:04:14Z</time>
      </trkpt>
      <trkpt lat="43.46967" lon="5.94753">
        <ele>280.84</ele>
        <time>2019-05-12T09:04:23Z</time>
      </trkpt>
      <trkpt lat="43.46966" lon="5.94747">
        <ele>280.84</ele>
        <time>2019-05-12T09:04:24Z</time>
      </trkpt>
      <trkpt lat="43.46965" lon="5.94739">
        <ele>280.84</ele>
        <time>2019-05-12T09:04:25Z</time>
      </trkpt>
      <trkpt lat="43.46964" lon="5.94733">
        <ele>280.84</ele>
        <time>2019-05-12T09:04:26Z</time>
      </trkpt>
      <trkpt lat="43.46961" lon="5.94727">
        <ele>280.84</ele>
        <time>2019-05-12T09:04:27Z</time>
      </trkpt>
      <trkpt lat="43.46959" lon="5.94722">
        <ele>280.84</ele>
        <time>2019-05-12T09:04:28Z</time>
      </trkpt>
      <trkpt lat="43.46955" lon="5.94717">
        <ele>280.84</ele>
        <time>2019-05-12T09:04:29Z</time>
      </trkpt>
      <trkpt lat="43.46952" lon="5.94712">
        <ele>280.84</ele>
        <time>2019-05-12T09:04:30Z</time>
      </trkpt>
      <trkpt lat="43.46948" lon="5.94708">
        <ele>280.84</ele>
        <time>2019-05-12T09:04:31Z</time>
      </trkpt>
      <trkpt lat="43.4692" lon="5.94683">
        <ele>280.36</ele>
        <time>2019-05-12T09:04:37Z</time>
      </trkpt>
      <trkpt lat="43.46915" lon="5.9468">
        <ele>280.36</ele>
        <time>2019-05-12T09:04:38Z</time>
      </trkpt>
      <trkpt lat="43.4691" lon="5.94678">
        <ele>280.36</ele>
        <time>2019-05-12T09:04:39Z</time>
      </trkpt>
      <trkpt lat="43.46904" lon="5.94676">
        <ele>280.36</ele>
        <time>2019-05-12T09:04:40Z</time>
      </trkpt>
      <trkpt lat="43.46898" lon="5.94675">
        <ele>280.36</ele>
        <time>2019-05-12T09:04:41Z</time>
      </trkpt>
      <trkpt lat="43.46891" lon="5.94675">
        <ele>280.36</ele>
        <time>2019-05-12T09:04:42Z</time>
      </trkpt>
      <trkpt lat="43.46884" lon="5.94676">
        <ele>280.36</ele>
        <time>2019-05-12T09:04:43Z</time>
      </trkpt>
      <trkpt lat="43.46877" lon="5.94677">
        <ele>280.36</ele>
        <time>2019-05-12T09:04:44Z</time>
      </trkpt>
      <trkpt lat="43.46871" lon="5.94679">
        <ele>279.88</ele>
        <time>2019-05-12T09:04:45Z</time>
      </trkpt>
      <trkpt lat="43.46864" lon="5.94682">
        <ele>279.88</ele>
        <time>2019-05-12T09:04:46Z</time>
      </trkpt>
      <trkpt lat="43.46858" lon="5.94686">
        <ele>279.88</ele>
        <time>2019-05-12T09:04:47Z</time>
      </trkpt>
      <trkpt lat="43.46852" lon="5.94692">
        <ele>279.88</ele>
        <time>2019-05-12T09:04:48Z</time>
      </trkpt>
      <trkpt lat="43.46811" lon="5.94725">
        <ele>279.88</ele>
        <time>2019-05-12T09:04:55Z</time>
      </trkpt>
      <trkpt lat="43.46798" lon="5.94731">
        <ele>279.4</ele>
        <time>2019-05-12T09:04:57Z</time>
      </trkpt>
      <trkpt lat="43.46792" lon="5.94732">
        <ele>279.4</ele>
        <time>2019-05-12T09:04:58Z</time>
      </trkpt>
      <trkpt lat="43.46785" lon="5.94733">
        <ele>278.92</ele>
        <time>2019-05-12T09:04:59Z</time>
      </trkpt>
      <trkpt lat="43.46685" lon="5.94738">
        <ele>277</ele>
        <time>2019-05-12T09:05:13Z</time>
      </trkpt>
      <trkpt lat="43.46664" lon="5.94744">
        <ele>275.56</ele>
        <time>2019-05-12T09:05:16Z</time>
      </trkpt>
      <trkpt lat="43.46657" lon="5.94744">
        <ele>275.56</ele>
        <time>2019-05-12T09:05:17Z</time>
      </trkpt>
      <trkpt lat="43.4665" lon="5.94742">
        <ele>275.56</ele>
        <time>2019-05-12T09:05:18Z</time>
      </trkpt>
      <trkpt lat="43.46643" lon="5.94737">
        <ele>277</ele>
        <time>2019-05-12T09:05:19Z</time>
      </trkpt>
      <trkpt lat="43.46637" lon="5.94731">
        <ele>277</ele>
        <time>2019-05-12T09:05:20Z</time>
      </trkpt>
      <trkpt lat="43.46633" lon="5.94723">
        <ele>277</ele>
        <time>2019-05-12T09:05:21Z</time>
      </trkpt>
      <trkpt lat="43.4663" lon="5.94714">
        <ele>277</ele>
        <time>2019-05-12T09:05:22Z</time>
      </trkpt>
      <trkpt lat="43.46628" lon="5.94705">
        <ele>277</ele>
        <time>2019-05-12T09:05:23Z</time>
      </trkpt>
      <trkpt lat="43.46626" lon="5.94697">
        <ele>277</ele>
        <time>2019-05-12T09:05:24Z</time>
      </trkpt>
      <trkpt lat="43.46624" lon="5.9468">
        <ele>275.56</ele>
        <time>2019-05-12T09:05:26Z</time>
      </trkpt>
      <trkpt lat="43.4662" lon="5.94554">
        <ele>275.56</ele>
        <time>2019-05-12T09:05:40Z</time>
      </trkpt>
      <trkpt lat="43.46615" lon="5.94494">
        <ele>275.07</ele>
        <time>2019-05-12T09:05:47Z</time>
      </trkpt>
      <trkpt lat="43.46612" lon="5.94486">
        <ele>275.07</ele>
        <time>2019-05-12T09:05:48Z</time>
      </trkpt>
      <trkpt lat="43.4661" lon="5.94478">
        <ele>274.59</ele>
        <time>2019-05-12T09:05:49Z</time>
      </trkpt>
      <trkpt lat="43.46592" lon="5.94441">
        <ele>274.59</ele>
        <time>2019-05-12T09:05:54Z</time>
      </trkpt>
      <trkpt lat="43.4659" lon="5.94434">
        <ele>274.59</ele>
        <time>2019-05-12T09:05:55Z</time>
      </trkpt>
      <trkpt lat="43.46588" lon="5.94425">
        <ele>274.59</ele>
        <time>2019-05-12T09:05:56Z</time>
      </trkpt>
      <trkpt lat="43.46578" lon="5.94384">
        <ele>276.04</ele>
        <time>2019-05-12T09:06:01Z</time>
      </trkpt>
      <trkpt lat="43.46575" lon="5.94376">
        <ele>276.52</ele>
        <time>2019-05-12T09:06:02Z</time>
      </trkpt>
      <trkpt lat="43.46571" lon="5.94369">
        <ele>276.52</ele>
        <time>2019-05-12T09:06:03Z</time>
      </trkpt>
      <trkpt lat="43.46567" lon="5.94362">
        <ele>276.52</ele>
        <time>2019-05-12T09:06:04Z</time>
      </trkpt>
      <trkpt lat="43.46563" lon="5.94356">
        <ele>276.52</ele>
        <time>2019-05-12T09:06:05Z</time>
      </trkpt>
      <trkpt lat="43.46559" lon="5.94351">
        <ele>276.52</ele>
        <time>2019-05-12T09:06:06Z</time>
      </trkpt>
      <trkpt lat="43.46554" lon="5.94345">
        <ele>276.52</ele>
        <time>2019-05-12T09:06:07Z</time>
      </trkpt>
      <trkpt lat="43.46549" lon="5.94341">
        <ele>277</ele>
        <time>2019-05-12T09:06:08Z</time>
      </trkpt>
      <trkpt lat="43.46544" lon="5.94336">
        <ele>277</ele>
        <time>2019-05-12T09:06:09Z</time>
      </trkpt>
      <trkpt lat="43.46539" lon="5.94333">
        <ele>277</ele>
        <time>2019-05-12T09:06:10Z</time>
      </trkpt>
      <trkpt lat="43.46533" lon="5.9433">
        <ele>277</ele>
        <time>2019-05-12T09:06:11Z</time>
      </trkpt>
      <trkpt lat="43.4643" lon="5.94273">
        <ele>277</ele>
        <time>2019-05-12T09:06:28Z</time>
      </trkpt>
      <trkpt lat="43.46419" lon="5.94265">
        <ele>277</ele>
        <time>2019-05-12T09:06:30Z</time>
      </trkpt>
      <trkpt lat="43.46414" lon="5.94259">
        <ele>277</ele>
        <time>2019-05-12T09:06:31Z</time>
      </trkpt>
      <trkpt lat="43.4641" lon="5.94253">
        <ele>277</ele>
        <time>2019-05-12T09:06:32Z</time>
      </trkpt>
      <trkpt lat="43.46407" lon="5.94246">
        <ele>277</ele>
        <time>2019-05-12T09:06:33Z</time>
      </trkpt>
      <trkpt lat="43.46404" lon="5.94239">
        <ele>277</ele>
        <time>2019-05-12T09:06:34Z</time>
      </trkpt>
      <trkpt lat="43.46402" lon="5.94231">
        <ele>277</ele>
        <time>2019-05-12T09:06:35Z</time>
      </trkpt>
      <trkpt lat="43.464" lon="5.94223">
        <ele>277</ele>
        <time>2019-05-12T09:06:36Z</time>
      </trkpt>
      <trkpt lat="43.46399" lon="5.94214">
        <ele>277</ele>
        <time>2019-05-12T09:06:37Z</time>
      </trkpt>
      <trkpt lat="43.46376" lon="5.9407">
        <ele>277</ele>
        <time>2019-05-12T09:06:54Z</time>
      </trkpt>
      <trkpt lat="43.46366" lon="5.94023">
        <ele>276.04</ele>
        <time>2019-05-12T09:06:59Z</time>
      </trkpt>
      <trkpt lat="43.4635" lon="5.93868">
        <ele>276.04</ele>
        <time>2019-05-12T09:07:16Z</time>
      </trkpt>
      <trkpt lat="43.46341" lon="5.93823">
        <ele>275.07</ele>
        <time>2019-05-12T09:07:22Z</time>
      </trkpt>
      <trkpt lat="43.46326" lon="5.93786">
        <ele>275.07</ele>
        <time>2019-05-12T09:07:27Z</time>
      </trkpt>
      <trkpt lat="43.46323" lon="5.93779">
        <ele>275.07</ele>
        <time>2019-05-12T09:07:28Z</time>
      </trkpt>
      <trkpt lat="43.46247" lon="5.93701">
        <ele>273.63</ele>
        <time>2019-05-12T09:07:42Z</time>
      </trkpt>
      <trkpt lat="43.46242" lon="5.93694">
        <ele>273.63</ele>
        <time>2019-05-12T09:07:43Z</time>
      </trkpt>
      <trkpt lat="43.46237" lon="5.93688">
        <ele>273.63</ele>
        <time>2019-05-12T09:07:44Z</time>
      </trkpt>
      <trkpt lat="43.46233" lon="5.93679">
        <ele>273.63</ele>
        <time>2019-05-12T09:07:45Z</time>
      </trkpt>
      <trkpt lat="43.46232" lon="5.93671">
        <ele>275.07</ele>
        <time>2019-05-12T09:07:46Z</time>
      </trkpt>
      <trkpt lat="43.46231" lon="5.93662">
        <ele>275.07</ele>
        <time>2019-05-12T09:07:47Z</time>
      </trkpt>
      <trkpt lat="43.46231" lon="5.93654">
        <ele>275.07</ele>
        <time>2019-05-12T09:07:48Z</time>
      </trkpt>
      <trkpt lat="43.46232" lon="5.93644">
        <ele>275.07</ele>
        <time>2019-05-12T09:07:49Z</time>
      </trkpt>
      <trkpt lat="43.46238" lon="5.93503">
        <ele>277</ele>
        <time>2019-05-12T09:08:05Z</time>
      </trkpt>
      <trkpt lat="43.46201" lon="5.93419">
        <ele>279.4</ele>
        <time>2019-05-12T09:08:17Z</time>
      </trkpt>
      <trkpt lat="43.46198" lon="5.93412">
        <ele>279.4</ele>
        <time>2019-05-12T09:08:18Z</time>
      </trkpt>
      <trkpt lat="43.46177" lon="5.93324">
        <ele>277</ele>
        <time>2019-05-12T09:08:28Z</time>
      </trkpt>
      <trkpt lat="43.46174" lon="5.93316">
        <ele>277</ele>
        <time>2019-05-12T09:08:29Z</time>
      </trkpt>
      <trkpt lat="43.46158" lon="5.93288">
        <ele>277</ele>
        <time>2019-05-12T09:08:33Z</time>
      </trkpt>
      <trkpt lat="43.46154" lon="5.93282">
        <ele>277</ele>
        <time>2019-05-12T09:08:34Z</time>
      </trkpt>
      <trkpt lat="43.46149" lon="5.93276">
        <ele>277</ele>
        <time>2019-05-12T09:08:35Z</time>
      </trkpt>
      <trkpt lat="43.46144" lon="5.93272">
        <ele>277</ele>
        <time>2019-05-12T09:08:36Z</time>
      </trkpt>
      <trkpt lat="43.4614" lon="5.93267">
        <ele>277</ele>
        <time>2019-05-12T09:08:37Z</time>
      </trkpt>
      <trkpt lat="43.46064" lon="5.93193">
        <ele>277</ele>
        <time>2019-05-12T09:08:53Z</time>
      </trkpt>
      <trkpt lat="43.46009" lon="5.93107">
        <ele>276.04</ele>
        <time>2019-05-12T09:09:06Z</time>
      </trkpt>
      <trkpt lat="43.45992" lon="5.93083">
        <ele>277</ele>
        <time>2019-05-12T09:09:10Z</time>
      </trkpt>
      <trkpt lat="43.45989" lon="5.93077">
        <ele>277.48</ele>
        <time>2019-05-12T09:09:11Z</time>
      </trkpt>
      <trkpt lat="43.45986" lon="5.93069">
        <ele>277.48</ele>
        <time>2019-05-12T09:09:12Z</time>
      </trkpt>
      <trkpt lat="43.45985" lon="5.93061">
        <ele>277.48</ele>
        <time>2019-05-12T09:09:13Z</time>
      </trkpt>
      <trkpt lat="43.45984" lon="5.93052">
        <ele>277.48</ele>
        <time>2019-05-12T09:09:14Z</time>
      </trkpt>
      <trkpt lat="43.45985" lon="5.93043">
        <ele>277.48</ele>
        <time>2019-05-12T09:09:15Z</time>
      </trkpt>
      <trkpt lat="43.45986" lon="5.93034">
        <ele>277.48</ele>
        <time>2019-05-12T09:09:16Z</time>
      </trkpt>
      <trkpt lat="43.45989" lon="5.93027">
        <ele>277.48</ele>
        <time>2019-05-12T09:09:17Z</time>
      </trkpt>
      <trkpt lat="43.45992" lon="5.9302">
        <ele>277.48</ele>
        <time>2019-05-12T09:09:18Z</time>
      </trkpt>
      <trkpt lat="43.45997" lon="5.93013">
        <ele>277.96</ele>
        <time>2019-05-12T09:09:19Z</time>
      </trkpt>
      <trkpt lat="43.46001" lon="5.93008">
        <ele>277.96</ele>
        <time>2019-05-12T09:09:20Z</time>
      </trkpt>
      <trkpt lat="43.46016" lon="5.92985">
        <ele>277.96</ele>
        <time>2019-05-12T09:09:24Z</time>
      </trkpt>
      <trkpt lat="43.46019" lon="5.92978">
        <ele>277.96</ele>
        <time>2019-05-12T09:09:25Z</time>
      </trkpt>
      <trkpt lat="43.46021" lon="5.92971">
        <ele>278.92</ele>
        <time>2019-05-12T09:09:26Z</time>
      </trkpt>
      <trkpt lat="43.46023" lon="5.92964">
        <ele>278.92</ele>
        <time>2019-05-12T09:09:27Z</time>
      </trkpt>
      <trkpt lat="43.46025" lon="5.92956">
        <ele>278.92</ele>
        <time>2019-05-12T09:09:28Z</time>
      </trkpt>
      <trkpt lat="43.46026" lon="5.92949">
        <ele>278.92</ele>
        <time>2019-05-12T09:09:29Z</time>
      </trkpt>
      <trkpt lat="43.46027" lon="5.92941">
        <ele>278.92</ele>
        <time>2019-05-12T09:09:30Z</time>
      </trkpt>
      <trkpt lat="43.46027" lon="5.92933">
        <ele>278.92</ele>
        <time>2019-05-12T09:09:31Z</time>
      </trkpt>
      <trkpt lat="43.46027" lon="5.92925">
        <ele>279.4</ele>
        <time>2019-05-12T09:09:32Z</time>
      </trkpt>
      <trkpt lat="43.46028" lon="5.9286">
        <ele>277.96</ele>
        <time>2019-05-12T09:09:40Z</time>
      </trkpt>
      <trkpt lat="43.46029" lon="5.92853">
        <ele>277.96</ele>
        <time>2019-05-12T09:09:41Z</time>
      </trkpt>
      <trkpt lat="43.46044" lon="5.92749">
        <ele>277.96</ele>
        <time>2019-05-12T09:09:55Z</time>
      </trkpt>
      <trkpt lat="43.46044" lon="5.92743">
        <ele>279.4</ele>
        <time>2019-05-12T09:09:56Z</time>
      </trkpt>
      <trkpt lat="43.4604" lon="5.92643">
        <ele>279.4</ele>
        <time>2019-05-12T09:10:10Z</time>
      </trkpt>
      <trkpt lat="43.46042" lon="5.92635">
        <ele>279.88</ele>
        <time>2019-05-12T09:10:11Z</time>
      </trkpt>
      <trkpt lat="43.46061" lon="5.92532">
        <ele>279.4</ele>
        <time>2019-05-12T09:10:25Z</time>
      </trkpt>
      <trkpt lat="43.46085" lon="5.92421">
        <ele>282.28</ele>
        <time>2019-05-12T09:10:41Z</time>
      </trkpt>
      <trkpt lat="43.46092" lon="5.92387">
        <ele>282.77</ele>
        <time>2019-05-12T09:10:46Z</time>
      </trkpt>
      <trkpt lat="43.46092" lon="5.92365">
        <ele>282.77</ele>
        <time>2019-05-12T09:10:49Z</time>
      </trkpt>
      <trkpt lat="43.46091" lon="5.92358">
        <ele>282.77</ele>
        <time>2019-05-12T09:10:50Z</time>
      </trkpt>
      <trkpt lat="43.46089" lon="5.92351">
        <ele>282.77</ele>
        <time>2019-05-12T09:10:51Z</time>
      </trkpt>
      <trkpt lat="43.46087" lon="5.92344">
        <ele>282.77</ele>
        <time>2019-05-12T09:10:52Z</time>
      </trkpt>
      <trkpt lat="43.46085" lon="5.92338">
        <ele>282.77</ele>
        <time>2019-05-12T09:10:53Z</time>
      </trkpt>
      <trkpt lat="43.46063" lon="5.92286">
        <ele>282.77</ele>
        <time>2019-05-12T09:11:01Z</time>
      </trkpt>
      <trkpt lat="43.46062" lon="5.92278">
        <ele>282.77</ele>
        <time>2019-05-12T09:11:02Z</time>
      </trkpt>
      <trkpt lat="43.46054" lon="5.92238">
        <ele>282.28</ele>
        <time>2019-05-12T09:11:08Z</time>
      </trkpt>
      <trkpt lat="43.46037" lon="5.92196">
        <ele>283.73</ele>
        <time>2019-05-12T09:11:15Z</time>
      </trkpt>
      <trkpt lat="43.46033" lon="5.9219">
        <ele>284.21</ele>
        <time>2019-05-12T09:11:16Z</time>
      </trkpt>
      <trkpt lat="43.4603" lon="5.92186">
        <ele>284.21</ele>
        <time>2019-05-12T09:11:17Z</time>
      </trkpt>
      <trkpt lat="43.45981" lon="5.92134">
        <ele>282.77</ele>
        <time>2019-05-12T09:11:29Z</time>
      </trkpt>
      <trkpt lat="43.45969" lon="5.9212">
        <ele>284.21</ele>
        <time>2019-05-12T09:11:32Z</time>
      </trkpt>
      <trkpt lat="43.45966" lon="5.92115">
        <ele>284.21</ele>
        <time>2019-05-12T09:11:33Z</time>
      </trkpt>
      <trkpt lat="43.45957" lon="5.92097">
        <ele>284.69</ele>
        <time>2019-05-12T09:11:36Z</time>
      </trkpt>
      <trkpt lat="43.45955" lon="5.92091">
        <ele>284.69</ele>
        <time>2019-05-12T09:11:37Z</time>
      </trkpt>
      <trkpt lat="43.45953" lon="5.92084">
        <ele>284.69</ele>
        <time>2019-05-12T09:11:38Z</time>
      </trkpt>
      <trkpt lat="43.45952" lon="5.92077">
        <ele>284.69</ele>
        <time>2019-05-12T09:11:39Z</time>
      </trkpt>
      <trkpt lat="43.45952" lon="5.9207">
        <ele>284.69</ele>
        <time>2019-05-12T09:11:40Z</time>
      </trkpt>
      <trkpt lat="43.45952" lon="5.92062">
        <ele>284.69</ele>
        <time>2019-05-12T09:11:41Z</time>
      </trkpt>
      <trkpt lat="43.45952" lon="5.92055">
        <ele>284.69</ele>
        <time>2019-05-12T09:11:42Z</time>
      </trkpt>
      <trkpt lat="43.45953" lon="5.92048">
        <ele>284.69</ele>
        <time>2019-05-12T09:11:43Z</time>
      </trkpt>
      <trkpt lat="43.45954" lon="5.9204">
        <ele>284.69</ele>
        <time>2019-05-12T09:11:44Z</time>
      </trkpt>
      <trkpt lat="43.45973" lon="5.91924">
        <ele>287.09</ele>
        <time>2019-05-12T09:12:01Z</time>
      </trkpt>
      <trkpt lat="43.45973" lon="5.91917">
        <ele>287.09</ele>
        <time>2019-05-12T09:12:02Z</time>
      </trkpt>
      <trkpt lat="43.45973" lon="5.9191">
        <ele>287.09</ele>
        <time>2019-05-12T09:12:03Z</time>
      </trkpt>
      <trkpt lat="43.45972" lon="5.91902">
        <ele>287.09</ele>
        <time>2019-05-12T09:12:04Z</time>
      </trkpt>
      <trkpt lat="43.45971" lon="5.91895">
        <ele>287.09</ele>
        <time>2019-05-12T09:12:05Z</time>
      </trkpt>
      <trkpt lat="43.45962" lon="5.91855">
        <ele>286.61</ele>
        <time>2019-05-12T09:12:11Z</time>
      </trkpt>
      <trkpt lat="43.45955" lon="5.91757">
        <ele>287.57</ele>
        <time>2019-05-12T09:12:25Z</time>
      </trkpt>
      <trkpt lat="43.45948" lon="5.91701">
        <ele>288.05</ele>
        <time>2019-05-12T09:12:33Z</time>
      </trkpt>
      <trkpt lat="43.45948" lon="5.91693">
        <ele>288.05</ele>
        <time>2019-05-12T09:12:34Z</time>
      </trkpt>
      <trkpt lat="43.45949" lon="5.91685">
        <ele>289.01</ele>
        <time>2019-05-12T09:12:35Z</time>
      </trkpt>
      <trkpt lat="43.45972" lon="5.91587">
        <ele>290.94</ele>
        <time>2019-05-12T09:12:50Z</time>
      </trkpt>
      <trkpt lat="43.45973" lon="5.91581">
        <ele>290.94</ele>
        <time>2019-05-12T09:12:51Z</time>
      </trkpt>
      <trkpt lat="43.45973" lon="5.91574">
        <ele>290.94</ele>
        <time>2019-05-12T09:12:52Z</time>
      </trkpt>
      <trkpt lat="43.45974" lon="5.91439">
        <ele>292.38</ele>
        <time>2019-05-12T09:13:10Z</time>
      </trkpt>
      <trkpt lat="43.45958" lon="5.9137">
        <ele>293.34</ele>
        <time>2019-05-12T09:13:20Z</time>
      </trkpt>
      <trkpt lat="43.45958" lon="5.91275">
        <ele>295.26</ele>
        <time>2019-05-12T09:13:33Z</time>
      </trkpt>
      <trkpt lat="43.4596" lon="5.91241">
        <ele>293.82</ele>
        <time>2019-05-12T09:13:38Z</time>
      </trkpt>
      <trkpt lat="43.45966" lon="5.91152">
        <ele>292.86</ele>
        <time>2019-05-12T09:13:50Z</time>
      </trkpt>
      <trkpt lat="43.45968" lon="5.91145">
        <ele>292.86</ele>
        <time>2019-05-12T09:13:51Z</time>
      </trkpt>
      <trkpt lat="43.45971" lon="5.91138">
        <ele>292.86</ele>
        <time>2019-05-12T09:13:52Z</time>
      </trkpt>
      <trkpt lat="43.45973" lon="5.91132">
        <ele>292.86</ele>
        <time>2019-05-12T09:13:53Z</time>
      </trkpt>
      <trkpt lat="43.45976" lon="5.91126">
        <ele>292.86</ele>
        <time>2019-05-12T09:13:54Z</time>
      </trkpt>
      <trkpt lat="43.45997" lon="5.91085">
        <ele>294.78</ele>
        <time>2019-05-12T09:14:01Z</time>
      </trkpt>
      <trkpt lat="43.46016" lon="5.91052">
        <ele>296.22</ele>
        <time>2019-05-12T09:14:07Z</time>
      </trkpt>
      <trkpt lat="43.46018" lon="5.91046">
        <ele>296.7</ele>
        <time>2019-05-12T09:14:08Z</time>
      </trkpt>
      <trkpt lat="43.46019" lon="5.9104">
        <ele>296.7</ele>
        <time>2019-05-12T09:14:09Z</time>
      </trkpt>
      <trkpt lat="43.4602" lon="5.91033">
        <ele>296.7</ele>
        <time>2019-05-12T09:14:10Z</time>
      </trkpt>
      <trkpt lat="43.4602" lon="5.91026">
        <ele>296.7</ele>
        <time>2019-05-12T09:14:11Z</time>
      </trkpt>
      <trkpt lat="43.4602" lon="5.91019">
        <ele>296.7</ele>
        <time>2019-05-12T09:14:12Z</time>
      </trkpt>
      <trkpt lat="43.46019" lon="5.91014">
        <ele>296.7</ele>
        <time>2019-05-12T09:14:13Z</time>
      </trkpt>
      <trkpt lat="43.46018" lon="5.91008">
        <ele>296.7</ele>
        <time>2019-05-12T09:14:14Z</time>
      </trkpt>
      <trkpt lat="43.46016" lon="5.91001">
        <ele>296.7</ele>
        <time>2019-05-12T09:14:15Z</time>
      </trkpt>
      <trkpt lat="43.46014" lon="5.90996">
        <ele>295.26</ele>
        <time>2019-05-12T09:14:16Z</time>
      </trkpt>
      <trkpt lat="43.46011" lon="5.9099">
        <ele>295.26</ele>
        <time>2019-05-12T09:14:17Z</time>
      </trkpt>
      <trkpt lat="43.46008" lon="5.90985">
        <ele>295.26</ele>
        <time>2019-05-12T09:14:18Z</time>
      </trkpt>
      <trkpt lat="43.4599" lon="5.90953">
        <ele>296.7</ele>
        <time>2019-05-12T09:14:24Z</time>
      </trkpt>
      <trkpt lat="43.45987" lon="5.90948">
        <ele>296.7</ele>
        <time>2019-05-12T09:14:25Z</time>
      </trkpt>
      <trkpt lat="43.4594" lon="5.90836">
        <ele>295.26</ele>
        <time>2019-05-12T09:14:41Z</time>
      </trkpt>
      <trkpt lat="43.45887" lon="5.90697">
        <ele>297.18</ele>
        <time>2019-05-12T09:15:00Z</time>
      </trkpt>
      <trkpt lat="43.45853" lon="5.90532">
        <ele>298.15</ele>
        <time>2019-05-12T09:15:20Z</time>
      </trkpt>
      <trkpt lat="43.4583" lon="5.90394">
        <ele>298.63</ele>
        <time>2019-05-12T09:15:36Z</time>
      </trkpt>
      <trkpt lat="43.45792" lon="5.90278">
        <ele>299.11</ele>
        <time>2019-05-12T09:15:51Z</time>
      </trkpt>
      <trkpt lat="43.45748" lon="5.90144">
        <ele>299.59</ele>
        <time>2019-05-12T09:16:09Z</time>
      </trkpt>
      <trkpt lat="43.45706" lon="5.9002">
        <ele>300.07</ele>
        <time>2019-05-12T09:16:25Z</time>
      </trkpt>
      <trkpt lat="43.45649" lon="5.8988">
        <ele>301.03</ele>
        <time>2019-05-12T09:16:45Z</time>
      </trkpt>
      <trkpt lat="43.45598" lon="5.89786">
        <ele>301.99</ele>
        <time>2019-05-12T09:17:01Z</time>
      </trkpt>
      <trkpt lat="43.45576" lon="5.89748">
        <ele>300.55</ele>
        <time>2019-05-12T09:17:07Z</time>
      </trkpt>
      <trkpt lat="43.45564" lon="5.89724">
        <ele>300.55</ele>
        <time>2019-05-12T09:17:11Z</time>
      </trkpt>
      <trkpt lat="43.45562" lon="5.89717">
        <ele>300.55</ele>
        <time>2019-05-12T09:17:12Z</time>
      </trkpt>
      <trkpt lat="43.45561" lon="5.89711">
        <ele>300.55</ele>
        <time>2019-05-12T09:17:13Z</time>
      </trkpt>
      <trkpt lat="43.4556" lon="5.89704">
        <ele>300.55</ele>
        <time>2019-05-12T09:17:14Z</time>
      </trkpt>
      <trkpt lat="43.45559" lon="5.89696">
        <ele>300.55</ele>
        <time>2019-05-12T09:17:15Z</time>
      </trkpt>
      <trkpt lat="43.45559" lon="5.89689">
        <ele>301.51</ele>
        <time>2019-05-12T09:17:16Z</time>
      </trkpt>
      <trkpt lat="43.45558" lon="5.89682">
        <ele>301.51</ele>
        <time>2019-05-12T09:17:17Z</time>
      </trkpt>
      <trkpt lat="43.45557" lon="5.89667">
        <ele>301.99</ele>
        <time>2019-05-12T09:17:19Z</time>
      </trkpt>
      <trkpt lat="43.45555" lon="5.8966">
        <ele>302.47</ele>
        <time>2019-05-12T09:17:20Z</time>
      </trkpt>
      <trkpt lat="43.45553" lon="5.89653">
        <ele>302.47</ele>
        <time>2019-05-12T09:17:21Z</time>
      </trkpt>
      <trkpt lat="43.45531" lon="5.89597">
        <ele>303.43</ele>
        <time>2019-05-12T09:17:31Z</time>
      </trkpt>
      <trkpt lat="43.45529" lon="5.89591">
        <ele>303.43</ele>
        <time>2019-05-12T09:17:32Z</time>
      </trkpt>
      <trkpt lat="43.45509" lon="5.895">
        <ele>304.88</ele>
        <time>2019-05-12T09:17:46Z</time>
      </trkpt>
      <trkpt lat="43.45468" lon="5.89426">
        <ele>306.32</ele>
        <time>2019-05-12T09:17:59Z</time>
      </trkpt>
      <trkpt lat="43.45464" lon="5.89421">
        <ele>306.32</ele>
        <time>2019-05-12T09:18:00Z</time>
      </trkpt>
      <trkpt lat="43.45427" lon="5.89382">
        <ele>305.36</ele>
        <time>2019-05-12T09:18:09Z</time>
      </trkpt>
      <trkpt lat="43.45354" lon="5.8929">
        <ele>304.39</ele>
        <time>2019-05-12T09:18:25Z</time>
      </trkpt>
      <trkpt lat="43.4535" lon="5.89282">
        <ele>304.39</ele>
        <time>2019-05-12T09:18:26Z</time>
      </trkpt>
      <trkpt lat="43.45348" lon="5.89272">
        <ele>304.39</ele>
        <time>2019-05-12T09:18:27Z</time>
      </trkpt>
      <trkpt lat="43.45347" lon="5.89266">
        <ele>304.39</ele>
        <time>2019-05-12T09:18:28Z</time>
      </trkpt>
      <trkpt lat="43.45346" lon="5.89258">
        <ele>304.39</ele>
        <time>2019-05-12T09:18:29Z</time>
      </trkpt>
      <trkpt lat="43.45328" lon="5.89115">
        <ele>303.91</ele>
        <time>2019-05-12T09:18:45Z</time>
      </trkpt>
      <trkpt lat="43.45314" lon="5.89001">
        <ele>303.91</ele>
        <time>2019-05-12T09:18:59Z</time>
      </trkpt>
      <trkpt lat="43.45316" lon="5.88959">
        <ele>303.91</ele>
        <time>2019-05-12T09:19:04Z</time>
      </trkpt>
      <trkpt lat="43.45336" lon="5.88856">
        <ele>303.91</ele>
        <time>2019-05-12T09:19:17Z</time>
      </trkpt>
      <trkpt lat="43.45335" lon="5.88744">
        <ele>303.43</ele>
        <time>2019-05-12T09:19:30Z</time>
      </trkpt>
      <trkpt lat="43.45335" lon="5.8866">
        <ele>302.95</ele>
        <time>2019-05-12T09:19:41Z</time>
      </trkpt>
      <trkpt lat="43.45322" lon="5.88597">
        <ele>301.51</ele>
        <time>2019-05-12T09:19:50Z</time>
      </trkpt>
      <trkpt lat="43.45318" lon="5.88592">
        <ele>301.03</ele>
        <time>2019-05-12T09:19:51Z</time>
      </trkpt>
      <trkpt lat="43.45313" lon="5.88589">
        <ele>301.03</ele>
        <time>2019-05-12T09:19:52Z</time>
      </trkpt>
      <trkpt lat="43.45309" lon="5.88587">
        <ele>300.07</ele>
        <time>2019-05-12T09:19:53Z</time>
      </trkpt>
      <trkpt lat="43.45304" lon="5.88586">
        <ele>300.07</ele>
        <time>2019-05-12T09:19:54Z</time>
      </trkpt>
      <trkpt lat="43.45227" lon="5.88565">
        <ele>299.11</ele>
        <time>2019-05-12T09:20:07Z</time>
      </trkpt>
      <trkpt lat="43.4522" lon="5.88566">
        <ele>299.11</ele>
        <time>2019-05-12T09:20:08Z</time>
      </trkpt>
      <trkpt lat="43.45213" lon="5.88567">
        <ele>299.11</ele>
        <time>2019-05-12T09:20:09Z</time>
      </trkpt>
      <trkpt lat="43.45207" lon="5.8857">
        <ele>298.63</ele>
        <time>2019-05-12T09:20:10Z</time>
      </trkpt>
      <trkpt lat="43.452" lon="5.88573">
        <ele>298.63</ele>
        <time>2019-05-12T09:20:11Z</time>
      </trkpt>
      <trkpt lat="43.45194" lon="5.88576">
        <ele>298.63</ele>
        <time>2019-05-12T09:20:12Z</time>
      </trkpt>
      <trkpt lat="43.45188" lon="5.8858">
        <ele>298.63</ele>
        <time>2019-05-12T09:20:13Z</time>
      </trkpt>
      <trkpt lat="43.45109" lon="5.88609">
        <ele>299.59</ele>
        <time>2019-05-12T09:20:25Z</time>
      </trkpt>
      <trkpt lat="43.45025" lon="5.88645">
        <ele>301.03</ele>
        <time>2019-05-12T09:20:39Z</time>
      </trkpt>
      <trkpt lat="43.45014" lon="5.88658">
        <ele>302.47</ele>
        <time>2019-05-12T09:20:42Z</time>
      </trkpt>
      <trkpt lat="43.45008" lon="5.88665">
        <ele>303.91</ele>
        <time>2019-05-12T09:20:44Z</time>
      </trkpt>
      <trkpt lat="43.4499" lon="5.88658">
        <ele>304.39</ele>
        <time>2019-05-12T09:20:52Z</time>
      </trkpt>
      <trkpt lat="43.44986" lon="5.88647">
        <ele>304.39</ele>
        <time>2019-05-12T09:20:59Z</time>
      </trkpt>
      <trkpt lat="43.44976" lon="5.8864">
        <ele>304.39</ele>
        <time>2019-05-12T09:21:03Z</time>
      </trkpt>
      <trkpt lat="43.44975" lon="5.88636">
        <ele>304.88</ele>
        <time>2019-05-12T09:21:04Z</time>
      </trkpt>
      <trkpt lat="43.44973" lon="5.88633">
        <ele>304.88</ele>
        <time>2019-05-12T09:21:05Z</time>
      </trkpt>
      <trkpt lat="43.44999" lon="5.88531">
        <ele>301.51</ele>
        <time>2019-05-12T09:21:19Z</time>
      </trkpt>
      <trkpt lat="43.45039" lon="5.88437">
        <ele>302.47</ele>
        <time>2019-05-12T09:21:33Z</time>
      </trkpt>
      <trkpt lat="43.45048" lon="5.88427">
        <ele>300.55</ele>
        <time>2019-05-12T09:21:35Z</time>
      </trkpt>
      <trkpt lat="43.45101" lon="5.88332">
        <ele>299.11</ele>
        <time>2019-05-12T09:21:51Z</time>
      </trkpt>
      <trkpt lat="43.45118" lon="5.88283">
        <ele>301.99</ele>
        <time>2019-05-12T09:21:59Z</time>
      </trkpt>
      <trkpt lat="43.45122" lon="5.88266">
        <ele>299.11</ele>
        <time>2019-05-12T09:22:02Z</time>
      </trkpt>
      <trkpt lat="43.45133" lon="5.88178">
        <ele>300.55</ele>
        <time>2019-05-12T09:22:18Z</time>
      </trkpt>
      <trkpt lat="43.45132" lon="5.88163">
        <ele>299.11</ele>
        <time>2019-05-12T09:22:20Z</time>
      </trkpt>
      <trkpt lat="43.45119" lon="5.88083">
        <ele>296.22</ele>
        <time>2019-05-12T09:22:30Z</time>
      </trkpt>
      <trkpt lat="43.45071" lon="5.87968">
        <ele>296.22</ele>
        <time>2019-05-12T09:22:46Z</time>
      </trkpt>
      <trkpt lat="43.45023" lon="5.87878">
        <ele>296.22</ele>
        <time>2019-05-12T09:22:59Z</time>
      </trkpt>
      <trkpt lat="43.45018" lon="5.87873">
        <ele>296.22</ele>
        <time>2019-05-12T09:23:00Z</time>
      </trkpt>
      <trkpt lat="43.45012" lon="5.8787">
        <ele>296.22</ele>
        <time>2019-05-12T09:23:01Z</time>
      </trkpt>
      <trkpt lat="43.45007" lon="5.87869">
        <ele>296.22</ele>
        <time>2019-05-12T09:23:02Z</time>
      </trkpt>
      <trkpt lat="43.45001" lon="5.8787">
        <ele>296.22</ele>
        <time>2019-05-12T09:23:03Z</time>
      </trkpt>
      <trkpt lat="43.44995" lon="5.87871">
        <ele>296.22</ele>
        <time>2019-05-12T09:23:04Z</time>
      </trkpt>
      <trkpt lat="43.44984" lon="5.87871">
        <ele>296.22</ele>
        <time>2019-05-12T09:23:06Z</time>
      </trkpt>
      <trkpt lat="43.44979" lon="5.8787">
        <ele>296.22</ele>
        <time>2019-05-12T09:23:07Z</time>
      </trkpt>
      <trkpt lat="43.44975" lon="5.87868">
        <ele>296.22</ele>
        <time>2019-05-12T09:23:08Z</time>
      </trkpt>
      <trkpt lat="43.44971" lon="5.87864">
        <ele>296.22</ele>
        <time>2019-05-12T09:23:09Z</time>
      </trkpt>
      <trkpt lat="43.44967" lon="5.8786">
        <ele>296.22</ele>
        <time>2019-05-12T09:23:10Z</time>
      </trkpt>
      <trkpt lat="43.44953" lon="5.87843">
        <ele>297.67</ele>
        <time>2019-05-12T09:23:14Z</time>
      </trkpt>
      <trkpt lat="43.44938" lon="5.87824">
        <ele>298.15</ele>
        <time>2019-05-12T09:23:18Z</time>
      </trkpt>
      <trkpt lat="43.44936" lon="5.87818">
        <ele>298.15</ele>
        <time>2019-05-12T09:23:19Z</time>
      </trkpt>
      <trkpt lat="43.44933" lon="5.87812">
        <ele>299.11</ele>
        <time>2019-05-12T09:23:20Z</time>
      </trkpt>
      <trkpt lat="43.44932" lon="5.87806">
        <ele>299.11</ele>
        <time>2019-05-12T09:23:21Z</time>
      </trkpt>
      <trkpt lat="43.44932" lon="5.87799">
        <ele>299.11</ele>
        <time>2019-05-12T09:23:22Z</time>
      </trkpt>
      <trkpt lat="43.44931" lon="5.87793">
        <ele>299.11</ele>
        <time>2019-05-12T09:23:23Z</time>
      </trkpt>
      <trkpt lat="43.4493" lon="5.87773">
        <ele>297.18</ele>
        <time>2019-05-12T09:23:26Z</time>
      </trkpt>
      <trkpt lat="43.44929" lon="5.87767">
        <ele>296.7</ele>
        <time>2019-05-12T09:23:27Z</time>
      </trkpt>
      <trkpt lat="43.44927" lon="5.87761">
        <ele>295.26</ele>
        <time>2019-05-12T09:23:28Z</time>
      </trkpt>
      <trkpt lat="43.44925" lon="5.87754">
        <ele>295.26</ele>
        <time>2019-05-12T09:23:29Z</time>
      </trkpt>
      <trkpt lat="43.44922" lon="5.87748">
        <ele>295.26</ele>
        <time>2019-05-12T09:23:30Z</time>
      </trkpt>
      <trkpt lat="43.44918" lon="5.87742">
        <ele>295.26</ele>
        <time>2019-05-12T09:23:31Z</time>
      </trkpt>
      <trkpt lat="43.44915" lon="5.87737">
        <ele>295.26</ele>
        <time>2019-05-12T09:23:32Z</time>
      </trkpt>
      <trkpt lat="43.4487" lon="5.87648">
        <ele>296.22</ele>
        <time>2019-05-12T09:23:48Z</time>
      </trkpt>
      <trkpt lat="43.44867" lon="5.87643">
        <ele>296.22</ele>
        <time>2019-05-12T09:23:49Z</time>
      </trkpt>
      <trkpt lat="43.44863" lon="5.8764">
        <ele>297.18</ele>
        <time>2019-05-12T09:23:50Z</time>
      </trkpt>
      <trkpt lat="43.44859" lon="5.87637">
        <ele>299.11</ele>
        <time>2019-05-12T09:23:51Z</time>
      </trkpt>
      <trkpt lat="43.44854" lon="5.87636">
        <ele>299.11</ele>
        <time>2019-05-12T09:23:52Z</time>
      </trkpt>
      <trkpt lat="43.4485" lon="5.87635">
        <ele>297.67</ele>
        <time>2019-05-12T09:23:53Z</time>
      </trkpt>
      <trkpt lat="43.44846" lon="5.87634">
        <ele>297.67</ele>
        <time>2019-05-12T09:23:54Z</time>
      </trkpt>
      <trkpt lat="43.44814" lon="5.87611">
        <ele>297.18</ele>
        <time>2019-05-12T09:24:05Z</time>
      </trkpt>
      <trkpt lat="43.44813" lon="5.87607">
        <ele>297.18</ele>
        <time>2019-05-12T09:24:06Z</time>
      </trkpt>
      <trkpt lat="43.44802" lon="5.8755">
        <ele>295.74</ele>
        <time>2019-05-12T09:24:19Z</time>
      </trkpt>
      <trkpt lat="43.448" lon="5.87538">
        <ele>295.74</ele>
        <time>2019-05-12T09:24:21Z</time>
      </trkpt>
      <trkpt lat="43.44799" lon="5.87531">
        <ele>295.74</ele>
        <time>2019-05-12T09:24:22Z</time>
      </trkpt>
      <trkpt lat="43.44796" lon="5.87526">
        <ele>295.74</ele>
        <time>2019-05-12T09:24:23Z</time>
      </trkpt>
      <trkpt lat="43.44793" lon="5.8752">
        <ele>295.74</ele>
        <time>2019-05-12T09:24:24Z</time>
      </trkpt>
      <trkpt lat="43.44789" lon="5.87516">
        <ele>295.74</ele>
        <time>2019-05-12T09:24:25Z</time>
      </trkpt>
      <trkpt lat="43.44762" lon="5.87461">
        <ele>296.7</ele>
        <time>2019-05-12T09:24:38Z</time>
      </trkpt>
      <trkpt lat="43.44764" lon="5.87452">
        <ele>297.67</ele>
        <time>2019-05-12T09:24:39Z</time>
      </trkpt>
      <trkpt lat="43.44766" lon="5.87447">
        <ele>297.67</ele>
        <time>2019-05-12T09:24:40Z</time>
      </trkpt>
      <trkpt lat="43.4478" lon="5.87422">
        <ele>297.18</ele>
        <time>2019-05-12T09:24:45Z</time>
      </trkpt>
      <trkpt lat="43.44813" lon="5.87349">
        <ele>299.11</ele>
        <time>2019-05-12T09:24:58Z</time>
      </trkpt>
      <trkpt lat="43.44817" lon="5.87345">
        <ele>299.11</ele>
        <time>2019-05-12T09:24:59Z</time>
      </trkpt>
      <trkpt lat="43.4482" lon="5.87342">
        <ele>299.11</ele>
        <time>2019-05-12T09:25:00Z</time>
      </trkpt>
      <trkpt lat="43.44824" lon="5.8734">
        <ele>299.11</ele>
        <time>2019-05-12T09:25:01Z</time>
      </trkpt>
      <trkpt lat="43.44828" lon="5.87337">
        <ele>299.11</ele>
        <time>2019-05-12T09:25:02Z</time>
      </trkpt>
      <trkpt lat="43.44833" lon="5.87336">
        <ele>299.11</ele>
        <time>2019-05-12T09:25:03Z</time>
      </trkpt>
      <trkpt lat="43.44836" lon="5.87335">
        <ele>299.11</ele>
        <time>2019-05-12T09:25:04Z</time>
      </trkpt>
      <trkpt lat="43.44865" lon="5.87313">
        <ele>301.99</ele>
        <time>2019-05-12T09:25:13Z</time>
      </trkpt>
      <trkpt lat="43.44893" lon="5.87266">
        <ele>303.43</ele>
        <time>2019-05-12T09:25:24Z</time>
      </trkpt>
      <trkpt lat="43.44894" lon="5.87261">
        <ele>303.43</ele>
        <time>2019-05-12T09:25:25Z</time>
      </trkpt>
      <trkpt lat="43.44896" lon="5.87254">
        <ele>303.43</ele>
        <time>2019-05-12T09:25:26Z</time>
      </trkpt>
      <trkpt lat="43.44904" lon="5.87186">
        <ele>302.47</ele>
        <time>2019-05-12T09:25:37Z</time>
      </trkpt>
      <trkpt lat="43.44911" lon="5.87106">
        <ele>302.47</ele>
        <time>2019-05-12T09:25:50Z</time>
      </trkpt>
      <trkpt lat="43.44912" lon="5.87101">
        <ele>302.47</ele>
        <time>2019-05-12T09:25:51Z</time>
      </trkpt>
      <trkpt lat="43.44915" lon="5.87095">
        <ele>302.47</ele>
        <time>2019-05-12T09:25:52Z</time>
      </trkpt>
      <trkpt lat="43.44918" lon="5.8709">
        <ele>302.47</ele>
        <time>2019-05-12T09:25:53Z</time>
      </trkpt>
      <trkpt lat="43.44922" lon="5.87087">
        <ele>302.47</ele>
        <time>2019-05-12T09:25:54Z</time>
      </trkpt>
      <trkpt lat="43.44927" lon="5.87083">
        <ele>302.47</ele>
        <time>2019-05-12T09:25:55Z</time>
      </trkpt>
      <trkpt lat="43.4496" lon="5.87057">
        <ele>303.43</ele>
        <time>2019-05-12T09:26:02Z</time>
      </trkpt>
      <trkpt lat="43.44975" lon="5.87047">
        <ele>304.39</ele>
        <time>2019-05-12T09:26:05Z</time>
      </trkpt>
      <trkpt lat="43.44979" lon="5.87042">
        <ele>304.39</ele>
        <time>2019-05-12T09:26:06Z</time>
      </trkpt>
      <trkpt lat="43.44981" lon="5.87038">
        <ele>305.36</ele>
        <time>2019-05-12T09:26:07Z</time>
      </trkpt>
      <trkpt lat="43.44983" lon="5.87032">
        <ele>305.36</ele>
        <time>2019-05-12T09:26:08Z</time>
      </trkpt>
      <trkpt lat="43.44983" lon="5.87026">
        <ele>306.32</ele>
        <time>2019-05-12T09:26:09Z</time>
      </trkpt>
      <trkpt lat="43.44982" lon="5.87019">
        <ele>306.32</ele>
        <time>2019-05-12T09:26:10Z</time>
      </trkpt>
      <trkpt lat="43.44981" lon="5.87013">
        <ele>306.8</ele>
        <time>2019-05-12T09:26:11Z</time>
      </trkpt>
      <trkpt lat="43.4498" lon="5.87007">
        <ele>306.8</ele>
        <time>2019-05-12T09:26:12Z</time>
      </trkpt>
      <trkpt lat="43.44979" lon="5.87002">
        <ele>306.8</ele>
        <time>2019-05-12T09:26:13Z</time>
      </trkpt>
      <trkpt lat="43.4497" lon="5.8694">
        <ele>308.24</ele>
        <time>2019-05-12T09:26:24Z</time>
      </trkpt>
      <trkpt lat="43.4497" lon="5.86934">
        <ele>308.24</ele>
        <time>2019-05-12T09:26:25Z</time>
      </trkpt>
      <trkpt lat="43.44971" lon="5.86928">
        <ele>308.24</ele>
        <time>2019-05-12T09:26:26Z</time>
      </trkpt>
      <trkpt lat="43.44972" lon="5.86922">
        <ele>308.24</ele>
        <time>2019-05-12T09:26:27Z</time>
      </trkpt>
      <trkpt lat="43.44974" lon="5.86916">
        <ele>308.72</ele>
        <time>2019-05-12T09:26:28Z</time>
      </trkpt>
      <trkpt lat="43.44995" lon="5.86835">
        <ele>310.64</ele>
        <time>2019-05-12T09:26:43Z</time>
      </trkpt>
      <trkpt lat="43.45038" lon="5.86784">
        <ele>307.28</ele>
        <time>2019-05-12T09:26:55Z</time>
      </trkpt>
      <trkpt lat="43.45042" lon="5.8678">
        <ele>307.28</ele>
        <time>2019-05-12T09:26:56Z</time>
      </trkpt>
      <trkpt lat="43.45046" lon="5.86776">
        <ele>309.2</ele>
        <time>2019-05-12T09:26:57Z</time>
      </trkpt>
      <trkpt lat="43.45049" lon="5.86772">
        <ele>307.28</ele>
        <time>2019-05-12T09:26:58Z</time>
      </trkpt>
      <trkpt lat="43.45052" lon="5.86768">
        <ele>307.28</ele>
        <time>2019-05-12T09:26:59Z</time>
      </trkpt>
      <trkpt lat="43.45065" lon="5.8675">
        <ele>305.84</ele>
        <time>2019-05-12T09:27:03Z</time>
      </trkpt>
      <trkpt lat="43.45071" lon="5.86742">
        <ele>307.76</ele>
        <time>2019-05-12T09:27:05Z</time>
      </trkpt>
      <trkpt lat="43.4509" lon="5.86716">
        <ele>306.32</ele>
        <time>2019-05-12T09:27:11Z</time>
      </trkpt>
      <trkpt lat="43.45093" lon="5.86711">
        <ele>306.32</ele>
        <time>2019-05-12T09:27:12Z</time>
      </trkpt>
      <trkpt lat="43.45132" lon="5.8665">
        <ele>308.24</ele>
        <time>2019-05-12T09:27:25Z</time>
      </trkpt>
      <trkpt lat="43.45137" lon="5.86637">
        <ele>305.84</ele>
        <time>2019-05-12T09:27:28Z</time>
      </trkpt>
      <trkpt lat="43.45141" lon="5.86594">
        <ele>306.32</ele>
        <time>2019-05-12T09:27:37Z</time>
      </trkpt>
      <trkpt lat="43.45139" lon="5.8659">
        <ele>306.32</ele>
        <time>2019-05-12T09:27:38Z</time>
      </trkpt>
      <trkpt lat="43.45137" lon="5.86585">
        <ele>306.32</ele>
        <time>2019-05-12T09:27:39Z</time>
      </trkpt>
      <trkpt lat="43.45133" lon="5.86582">
        <ele>306.32</ele>
        <time>2019-05-12T09:27:40Z</time>
      </trkpt>
      <trkpt lat="43.45128" lon="5.86578">
        <ele>306.32</ele>
        <time>2019-05-12T09:27:41Z</time>
      </trkpt>
      <trkpt lat="43.45125" lon="5.86575">
        <ele>306.8</ele>
        <time>2019-05-12T09:27:42Z</time>
      </trkpt>
      <trkpt lat="43.4509" lon="5.86543">
        <ele>308.72</ele>
        <time>2019-05-12T09:27:52Z</time>
      </trkpt>
      <trkpt lat="43.45053" lon="5.86506">
        <ele>309.2</ele>
        <time>2019-05-12T09:28:05Z</time>
      </trkpt>
      <trkpt lat="43.45008" lon="5.86444">
        <ele>310.16</ele>
        <time>2019-05-12T09:28:19Z</time>
      </trkpt>
      <trkpt lat="43.44993" lon="5.86406">
        <ele>309.2</ele>
        <time>2019-05-12T09:28:26Z</time>
      </trkpt>
      <trkpt lat="43.4499" lon="5.86401">
        <ele>309.2</ele>
        <time>2019-05-12T09:28:27Z</time>
      </trkpt>
      <trkpt lat="43.44987" lon="5.86397">
        <ele>309.2</ele>
        <time>2019-05-12T09:28:28Z</time>
      </trkpt>
      <trkpt lat="43.44983" lon="5.86393">
        <ele>309.2</ele>
        <time>2019-05-12T09:28:29Z</time>
      </trkpt>
      <trkpt lat="43.44979" lon="5.86389">
        <ele>309.2</ele>
        <time>2019-05-12T09:28:30Z</time>
      </trkpt>
      <trkpt lat="43.4497" lon="5.86382">
        <ele>311.12</ele>
        <time>2019-05-12T09:28:32Z</time>
      </trkpt>
      <trkpt lat="43.4494" lon="5.8636">
        <ele>310.64</ele>
        <time>2019-05-12T09:28:39Z</time>
      </trkpt>
      <trkpt lat="43.44935" lon="5.86358">
        <ele>310.64</ele>
        <time>2019-05-12T09:28:40Z</time>
      </trkpt>
      <trkpt lat="43.44931" lon="5.86354">
        <ele>310.64</ele>
        <time>2019-05-12T09:28:41Z</time>
      </trkpt>
      <trkpt lat="43.44896" lon="5.86331">
        <ele>313.53</ele>
        <time>2019-05-12T09:28:50Z</time>
      </trkpt>
      <trkpt lat="43.44877" lon="5.86315">
        <ele>312.09</ele>
        <time>2019-05-12T09:28:56Z</time>
      </trkpt>
      <trkpt lat="43.44869" lon="5.86296">
        <ele>313.53</ele>
        <time>2019-05-12T09:29:02Z</time>
      </trkpt>
      <trkpt lat="43.44869" lon="5.86293">
        <ele>313.53</ele>
        <time>2019-05-12T09:29:03Z</time>
      </trkpt>
      <trkpt lat="43.4487" lon="5.8629">
        <ele>313.53</ele>
        <time>2019-05-12T09:29:04Z</time>
      </trkpt>
      <trkpt lat="43.4487" lon="5.86287">
        <ele>313.53</ele>
        <time>2019-05-12T09:29:05Z</time>
      </trkpt>
      <trkpt lat="43.44868" lon="5.86283">
        <ele>313.53</ele>
        <time>2019-05-12T09:29:06Z</time>
      </trkpt>
      <trkpt lat="43.44865" lon="5.8628">
        <ele>313.53</ele>
        <time>2019-05-12T09:29:07Z</time>
      </trkpt>
      <trkpt lat="43.44862" lon="5.86278">
        <ele>313.53</ele>
        <time>2019-05-12T09:29:08Z</time>
      </trkpt>
      <trkpt lat="43.44836" lon="5.86241">
        <ele>314.97</ele>
        <time>2019-05-12T09:29:19Z</time>
      </trkpt>
      <trkpt lat="43.44816" lon="5.86213">
        <ele>315.93</ele>
        <time>2019-05-12T09:29:27Z</time>
      </trkpt>
      <trkpt lat="43.44816" lon="5.86208">
        <ele>316.41</ele>
        <time>2019-05-12T09:29:28Z</time>
      </trkpt>
      <trkpt lat="43.44817" lon="5.86204">
        <ele>316.41</ele>
        <time>2019-05-12T09:29:29Z</time>
      </trkpt>
      <trkpt lat="43.44819" lon="5.862">
        <ele>316.41</ele>
        <time>2019-05-12T09:29:30Z</time>
      </trkpt>
      <trkpt lat="43.44821" lon="5.86197">
        <ele>316.89</ele>
        <time>2019-05-12T09:29:31Z</time>
      </trkpt>
      <trkpt lat="43.44856" lon="5.86124">
        <ele>317.85</ele>
        <time>2019-05-12T09:29:48Z</time>
      </trkpt>
      <trkpt lat="43.44858" lon="5.86118">
        <ele>317.85</ele>
        <time>2019-05-12T09:29:49Z</time>
      </trkpt>
      <trkpt lat="43.44858" lon="5.86111">
        <ele>317.85</ele>
        <time>2019-05-12T09:29:50Z</time>
      </trkpt>
      <trkpt lat="43.44858" lon="5.86104">
        <ele>317.85</ele>
        <time>2019-05-12T09:29:51Z</time>
      </trkpt>
      <trkpt lat="43.44856" lon="5.86098">
        <ele>315.93</ele>
        <time>2019-05-12T09:29:52Z</time>
      </trkpt>
      <trkpt lat="43.44853" lon="5.86093">
        <ele>315.93</ele>
        <time>2019-05-12T09:29:53Z</time>
      </trkpt>
      <trkpt lat="43.44849" lon="5.86089">
        <ele>315.93</ele>
        <time>2019-05-12T09:29:54Z</time>
      </trkpt>
      <trkpt lat="43.44845" lon="5.86086">
        <ele>315.93</ele>
        <time>2019-05-12T09:29:55Z</time>
      </trkpt>
      <trkpt lat="43.4484" lon="5.86084">
        <ele>315.93</ele>
        <time>2019-05-12T09:29:56Z</time>
      </trkpt>
      <trkpt lat="43.44836" lon="5.86082">
        <ele>315.93</ele>
        <time>2019-05-12T09:29:57Z</time>
      </trkpt>
      <trkpt lat="43.44821" lon="5.86075">
        <ele>315.93</ele>
        <time>2019-05-12T09:30:01Z</time>
      </trkpt>
      <trkpt lat="43.44817" lon="5.86074">
        <ele>315.93</ele>
        <time>2019-05-12T09:30:02Z</time>
      </trkpt>
      <trkpt lat="43.44809" lon="5.86073">
        <ele>315.93</ele>
        <time>2019-05-12T09:30:04Z</time>
      </trkpt>
      <trkpt lat="43.44792" lon="5.86074">
        <ele>317.37</ele>
        <time>2019-05-12T09:30:08Z</time>
      </trkpt>
      <trkpt lat="43.44727" lon="5.86056">
        <ele>318.81</ele>
        <time>2019-05-12T09:30:25Z</time>
      </trkpt>
      <trkpt lat="43.44671" lon="5.86036">
        <ele>321.22</ele>
        <time>2019-05-12T09:30:42Z</time>
      </trkpt>
      <trkpt lat="43.44642" lon="5.8603">
        <ele>322.18</ele>
        <time>2019-05-12T09:30:51Z</time>
      </trkpt>
      <trkpt lat="43.44638" lon="5.86032">
        <ele>322.66</ele>
        <time>2019-05-12T09:30:52Z</time>
      </trkpt>
      <trkpt lat="43.44636" lon="5.86032">
        <ele>322.66</ele>
        <time>2019-05-12T09:30:53Z</time>
      </trkpt>
      <trkpt lat="43.44634" lon="5.86032">
        <ele>322.66</ele>
        <time>2019-05-12T09:30:54Z</time>
      </trkpt>
      <trkpt lat="43.44631" lon="5.86031">
        <ele>322.66</ele>
        <time>2019-05-12T09:30:55Z</time>
      </trkpt>
      <trkpt lat="43.44593" lon="5.86018">
        <ele>323.62</ele>
        <time>2019-05-12T09:31:07Z</time>
      </trkpt>
      <trkpt lat="43.4454" lon="5.86">
        <ele>325.54</ele>
        <time>2019-05-12T09:31:23Z</time>
      </trkpt>
      <trkpt lat="43.44466" lon="5.85971">
        <ele>327.95</ele>
        <time>2019-05-12T09:31:45Z</time>
      </trkpt>
      <trkpt lat="43.44427" lon="5.85972">
        <ele>329.39</ele>
        <time>2019-05-12T09:31:59Z</time>
      </trkpt>
      <trkpt lat="43.44405" lon="5.86029">
        <ele>329.39</ele>
        <time>2019-05-12T09:32:12Z</time>
      </trkpt>
      <trkpt lat="43.4438" lon="5.86113">
        <ele>331.31</ele>
        <time>2019-05-12T09:32:29Z</time>
      </trkpt>
      <trkpt lat="43.44345" lon="5.86161">
        <ele>334.2</ele>
        <time>2019-05-12T09:32:43Z</time>
      </trkpt>
      <trkpt lat="43.44297" lon="5.86199">
        <ele>336.6</ele>
        <time>2019-05-12T09:33:00Z</time>
      </trkpt>
      <trkpt lat="43.44283" lon="5.86204">
        <ele>335.16</ele>
        <time>2019-05-12T09:33:05Z</time>
      </trkpt>
      <trkpt lat="43.44229" lon="5.86223">
        <ele>337.08</ele>
        <time>2019-05-12T09:33:21Z</time>
      </trkpt>
      <trkpt lat="43.44165" lon="5.86249">
        <ele>336.6</ele>
        <time>2019-05-12T09:33:37Z</time>
      </trkpt>
      <trkpt lat="43.44094" lon="5.86276">
        <ele>339.48</ele>
        <time>2019-05-12T09:33:54Z</time>
      </trkpt>
      <trkpt lat="43.44047" lon="5.8629">
        <ele>339.48</ele>
        <time>2019-05-12T09:34:09Z</time>
      </trkpt>
      <trkpt lat="43.44044" lon="5.86287">
        <ele>339.48</ele>
        <time>2019-05-12T09:34:10Z</time>
      </trkpt>
      <trkpt lat="43.44041" lon="5.86283">
        <ele>340.44</ele>
        <time>2019-05-12T09:34:11Z</time>
      </trkpt>
      <trkpt lat="43.4404" lon="5.8628">
        <ele>340.44</ele>
        <time>2019-05-12T09:34:12Z</time>
      </trkpt>
      <trkpt lat="43.44039" lon="5.86276">
        <ele>340.92</ele>
        <time>2019-05-12T09:34:13Z</time>
      </trkpt>
      <trkpt lat="43.44039" lon="5.86272">
        <ele>341.41</ele>
        <time>2019-05-12T09:34:14Z</time>
      </trkpt>
      <trkpt lat="43.44039" lon="5.86269">
        <ele>341.41</ele>
        <time>2019-05-12T09:34:15Z</time>
      </trkpt>
      <trkpt lat="43.44038" lon="5.86265">
        <ele>341.41</ele>
        <time>2019-05-12T09:34:16Z</time>
      </trkpt>
      <trkpt lat="43.44035" lon="5.86224">
        <ele>344.77</ele>
        <time>2019-05-12T09:34:27Z</time>
      </trkpt>
      <trkpt lat="43.44028" lon="5.86169">
        <ele>347.17</ele>
        <time>2019-05-12T09:34:44Z</time>
      </trkpt>
      <trkpt lat="43.44027" lon="5.86165">
        <ele>347.17</ele>
        <time>2019-05-12T09:34:45Z</time>
      </trkpt>
      <trkpt lat="43.44024" lon="5.86163">
        <ele>347.17</ele>
        <time>2019-05-12T09:34:46Z</time>
      </trkpt>
      <trkpt lat="43.44023" lon="5.86162">
        <ele>347.17</ele>
        <time>2019-05-12T09:34:47Z</time>
      </trkpt>
      <trkpt lat="43.44021" lon="5.86162">
        <ele>347.17</ele>
        <time>2019-05-12T09:34:48Z</time>
      </trkpt>
      <trkpt lat="43.44019" lon="5.86162">
        <ele>347.17</ele>
        <time>2019-05-12T09:34:49Z</time>
      </trkpt>
      <trkpt lat="43.44017" lon="5.86162">
        <ele>347.17</ele>
        <time>2019-05-12T09:34:50Z</time>
      </trkpt>
      <trkpt lat="43.44004" lon="5.8616">
        <ele>347.17</ele>
        <time>2019-05-12T09:34:56Z</time>
      </trkpt>
      <trkpt lat="43.44003" lon="5.86158">
        <ele>347.65</ele>
        <time>2019-05-12T09:34:57Z</time>
      </trkpt>
      <trkpt lat="43.44" lon="5.86153">
        <ele>347.65</ele>
        <time>2019-05-12T09:34:59Z</time>
      </trkpt>
      <trkpt lat="43.43981" lon="5.86102">
        <ele>350.54</ele>
        <time>2019-05-12T09:35:16Z</time>
      </trkpt>
      <trkpt lat="43.43979" lon="5.86094">
        <ele>349.1</ele>
        <time>2019-05-12T09:35:19Z</time>
      </trkpt>
      <trkpt lat="43.43971" lon="5.86074">
        <ele>350.54</ele>
        <time>2019-05-12T09:35:26Z</time>
      </trkpt>
      <trkpt lat="43.43971" lon="5.86071">
        <ele>350.54</ele>
        <time>2019-05-12T09:35:27Z</time>
      </trkpt>
      <trkpt lat="43.43972" lon="5.8607">
        <ele>350.54</ele>
        <time>2019-05-12T09:35:28Z</time>
      </trkpt>
      <trkpt lat="43.43978" lon="5.86052">
        <ele>351.98</ele>
        <time>2019-05-12T09:35:37Z</time>
      </trkpt>
      <trkpt lat="43.43978" lon="5.86045">
        <ele>343.81</ele>
        <time>2019-05-12T09:35:44Z</time>
      </trkpt>
      <trkpt lat="43.43977" lon="5.8604">
        <ele>354.86</ele>
        <time>2019-05-12T09:35:45Z</time>
      </trkpt>
      <trkpt lat="43.43976" lon="5.86038">
        <ele>350.06</ele>
        <time>2019-05-12T09:35:47Z</time>
      </trkpt>
      <trkpt lat="43.43976" lon="5.86036">
        <ele>350.06</ele>
        <time>2019-05-12T09:35:48Z</time>
      </trkpt>
      <trkpt lat="43.43975" lon="5.86032">
        <ele>351.5</ele>
        <time>2019-05-12T09:35:55Z</time>
      </trkpt>
      <trkpt lat="43.43973" lon="5.86029">
        <ele>350.06</ele>
        <time>2019-05-12T09:36:12Z</time>
      </trkpt>
      <trkpt lat="43.43972" lon="5.86029">
        <ele>351.5</ele>
        <time>2019-05-12T09:36:17Z</time>
      </trkpt>
      <trkpt lat="43.43972" lon="5.86028">
        <ele>349.58</ele>
        <time>2019-05-12T09:36:25Z</time>
      </trkpt>
      <trkpt lat="43.43973" lon="5.86026">
        <ele>351.5</ele>
        <time>2019-05-12T09:37:05Z</time>
      </trkpt>
      <trkpt lat="43.43972" lon="5.86028">
        <ele>351.5</ele>
        <time>2019-05-12T09:37:45Z</time>
      </trkpt>
      <trkpt lat="43.43972" lon="5.86029">
        <ele>351.02</ele>
        <time>2019-05-12T09:37:53Z</time>
      </trkpt>
      <trkpt lat="43.43972" lon="5.86029">
        <ele>351.5</ele>
        <time>2019-05-12T09:38:02Z</time>
      </trkpt>
      <trkpt lat="43.43969" lon="5.86027">
        <ele>352.46</ele>
        <time>2019-05-12T09:38:30Z</time>
      </trkpt>
      <trkpt lat="43.43969" lon="5.86026">
        <ele>352.94</ele>
        <time>2019-05-12T09:38:50Z</time>
      </trkpt>
      <trkpt lat="43.43969" lon="5.86025">
        <ele>353.42</ele>
        <time>2019-05-12T09:39:13Z</time>
      </trkpt>
    </trkseg>
  </trk>
  <trk>
    <name><![CDATA[BELGENT_BV]]></name>
    <desc><![CDATA[parcours BV modifié pour reconnaissance le 27 decembre]]></desc>
    <trkseg>
      <trkpt lat="43.24335" lon="6.00121">
        <ele>158.90625</ele>
      </trkpt>
      <trkpt lat="43.24387" lon="6.00063">
        <ele>154.8515625</ele>
      </trkpt>
      <trkpt lat="43.24418" lon="6.00049">
        <ele>153.875</ele>
      </trkpt>
      <trkpt lat="43.24451" lon="6.00048">
        <ele>153.60546875</ele>
      </trkpt>
      <trkpt lat="43.24502" lon="6.00044">
        <ele>154.12890625</ele>
      </trkpt>
      <trkpt lat="43.24517" lon="6.00039">
        <ele>154.53125</ele>
      </trkpt>
      <trkpt lat="43.24519" lon="6.00038">
        <ele>154.59375</ele>
      </trkpt>
      <trkpt lat="43.24515" lon="6.00017">
        <ele>154.57421875</ele>
      </trkpt>
      <trkpt lat="43.24526" lon="6.00002">
        <ele>155.52734375</ele>
      </trkpt>
      <trkpt lat="43.24528" lon="5.99996">
        <ele>155.78515625</ele>
      </trkpt>
      <trkpt lat="43.24516" lon="5.9996">
        <ele>156.70703125</ele>
      </trkpt>
      <trkpt lat="43.2451" lon="5.99941">
        <ele>157.78515625</ele>
      </trkpt>
      <trkpt lat="43.24511" lon="5.99936">
        <ele>158.1953125</ele>
      </trkpt>
      <trkpt lat="43.24526" lon="5.99922">
        <ele>160.00390625</ele>
      </trkpt>
      <trkpt lat="43.24529" lon="5.99919">
        <ele>160.35546875</ele>
      </trkpt>
      <trkpt lat="43.24539" lon="5.999">
        <ele>161.75390625</ele>
      </trkpt>
      <trkpt lat="43.2454" lon="5.99898">
        <ele>161.85546875</ele>
      </trkpt>
      <trkpt lat="43.24536" lon="5.99886">
        <ele>162.7890625</ele>
      </trkpt>
      <trkpt lat="43.24532" lon="5.99881">
        <ele>163.25</ele>
      </trkpt>
      <trkpt lat="43.24532" lon="5.99881">
        <ele>163.23828125</ele>
      </trkpt>
      <trkpt lat="43.2454" lon="5.99876">
        <ele>163.3828125</ele>
      </trkpt>
      <trkpt lat="43.24602" lon="5.99811">
        <ele>175.1</ele>
        <time>2018-12-24T13:20:37Z</time>
      </trkpt>
      <trkpt lat="43.24627" lon="5.99791">
        <ele>176.06</ele>
        <time>2018-12-24T13:21:00Z</time>
      </trkpt>
      <trkpt lat="43.24648" lon="5.99788">
        <ele>174.62</ele>
        <time>2018-12-24T13:21:20Z</time>
      </trkpt>
      <trkpt lat="43.24677" lon="5.99768">
        <ele>175.1</ele>
        <time>2018-12-24T13:21:43Z</time>
      </trkpt>
      <trkpt lat="43.24695" lon="5.99746">
        <ele>175.1</ele>
        <time>2018-12-24T13:22:02Z</time>
      </trkpt>
      <trkpt lat="43.24713" lon="5.99723">
        <ele>175.1</ele>
        <time>2018-12-24T13:22:23Z</time>
      </trkpt>
      <trkpt lat="43.24733" lon="5.99709">
        <ele>177.98</ele>
        <time>2018-12-24T13:22:45Z</time>
      </trkpt>
      <trkpt lat="43.24754" lon="5.99698">
        <ele>178.46</ele>
        <time>2018-12-24T13:23:04Z</time>
      </trkpt>
      <trkpt lat="43.24775" lon="5.99682">
        <ele>177.5</ele>
        <time>2018-12-24T13:23:23Z</time>
      </trkpt>
      <trkpt lat="43.24779" lon="5.99682">
        <ele>175.58</ele>
        <time>2018-12-24T13:23:25Z</time>
      </trkpt>
      <trkpt lat="43.24783" lon="5.99683">
        <ele>177.02</ele>
        <time>2018-12-24T13:23:27Z</time>
      </trkpt>
      <trkpt lat="43.24799" lon="5.9969">
        <ele>177.02</ele>
        <time>2018-12-24T13:23:42Z</time>
      </trkpt>
      <trkpt lat="43.24801" lon="5.9969">
        <ele>178.46</ele>
        <time>2018-12-24T13:23:44Z</time>
      </trkpt>
      <trkpt lat="43.2481" lon="5.99689">
        <ele>175.58</ele>
        <time>2018-12-24T13:23:53Z</time>
      </trkpt>
      <trkpt lat="43.24813" lon="5.99689">
        <ele>178.94</ele>
        <time>2018-12-24T13:24:01Z</time>
      </trkpt>
      <trkpt lat="43.24834" lon="5.9969">
        <ele>178.94</ele>
        <time>2018-12-24T13:24:20Z</time>
      </trkpt>
      <trkpt lat="43.24858" lon="5.99682">
        <ele>182.31</ele>
        <time>2018-12-24T13:24:38Z</time>
      </trkpt>
      <trkpt lat="43.24874" lon="5.99668">
        <ele>183.27</ele>
        <time>2018-12-24T13:24:58Z</time>
      </trkpt>
      <trkpt lat="43.24876" lon="5.99668">
        <ele>183.27</ele>
        <time>2018-12-24T13:24:59Z</time>
      </trkpt>
      <trkpt lat="43.24883" lon="5.99673">
        <ele>182.31</ele>
        <time>2018-12-24T13:25:01Z</time>
      </trkpt>
      <trkpt lat="43.24919" lon="5.99682">
        <ele>183.27</ele>
        <time>2018-12-24T13:25:25Z</time>
      </trkpt>
      <trkpt lat="43.24936" lon="5.99676">
        <ele>182.79</ele>
        <time>2018-12-24T13:25:43Z</time>
      </trkpt>
      <trkpt lat="43.24938" lon="5.99673">
        <ele>182.31</ele>
        <time>2018-12-24T13:25:47Z</time>
      </trkpt>
      <trkpt lat="43.24943" lon="5.9967">
        <ele>183.75</ele>
        <time>2018-12-24T13:25:50Z</time>
      </trkpt>
      <trkpt lat="43.24945" lon="5.99668">
        <ele>183.75</ele>
        <time>2018-12-24T13:25:51Z</time>
      </trkpt>
      <trkpt lat="43.24948" lon="5.99668">
        <ele>184.71</ele>
        <time>2018-12-24T13:25:52Z</time>
      </trkpt>
      <trkpt lat="43.24958" lon="5.99659">
        <ele>182.79</ele>
        <time>2018-12-24T13:25:58Z</time>
      </trkpt>
      <trkpt lat="43.24965" lon="5.99632">
        <ele>183.75</ele>
        <time>2018-12-24T13:26:17Z</time>
      </trkpt>
      <trkpt lat="43.2497" lon="5.99626">
        <ele>183.75</ele>
        <time>2018-12-24T13:26:34Z</time>
      </trkpt>
      <trkpt lat="43.24966" lon="5.99606">
        <ele>184.23</ele>
        <time>2018-12-24T13:26:50Z</time>
      </trkpt>
      <trkpt lat="43.24967" lon="5.9959">
        <ele>184.23</ele>
        <time>2018-12-24T13:26:59Z</time>
      </trkpt>
      <trkpt lat="43.24968" lon="5.99575">
        <ele>186.63</ele>
        <time>2018-12-24T13:27:06Z</time>
      </trkpt>
      <trkpt lat="43.2497" lon="5.99549">
        <ele>184.23</ele>
        <time>2018-12-24T13:27:24Z</time>
      </trkpt>
      <trkpt lat="43.24971" lon="5.99516">
        <ele>183.27</ele>
        <time>2018-12-24T13:27:48Z</time>
      </trkpt>
      <trkpt lat="43.24979" lon="5.99477">
        <ele>185.67</ele>
        <time>2018-12-24T13:28:10Z</time>
      </trkpt>
      <trkpt lat="43.24989" lon="5.99453">
        <ele>186.15</ele>
        <time>2018-12-24T13:28:30Z</time>
      </trkpt>
      <trkpt lat="43.25003" lon="5.99424">
        <ele>186.63</ele>
        <time>2018-12-24T13:28:50Z</time>
      </trkpt>
      <trkpt lat="43.25014" lon="5.99404">
        <ele>188.08</ele>
        <time>2018-12-24T13:29:03Z</time>
      </trkpt>
      <trkpt lat="43.25023" lon="5.99395">
        <ele>186.63</ele>
        <time>2018-12-24T13:29:15Z</time>
      </trkpt>
      <trkpt lat="43.25036" lon="5.99371">
        <ele>187.11</ele>
        <time>2018-12-24T13:29:29Z</time>
      </trkpt>
      <trkpt lat="43.25038" lon="5.9937">
        <ele>187.11</ele>
        <time>2018-12-24T13:29:30Z</time>
      </trkpt>
      <trkpt lat="43.25043" lon="5.99367">
        <ele>188.56</ele>
        <time>2018-12-24T13:29:35Z</time>
      </trkpt>
      <trkpt lat="43.25061" lon="5.99354">
        <ele>188.56</ele>
        <time>2018-12-24T13:29:57Z</time>
      </trkpt>
      <trkpt lat="43.25082" lon="5.99336">
        <ele>189.52</ele>
        <time>2018-12-24T13:30:19Z</time>
      </trkpt>
      <trkpt lat="43.25108" lon="5.99322">
        <ele>191.44</ele>
        <time>2018-12-24T13:30:40Z</time>
      </trkpt>
      <trkpt lat="43.25132" lon="5.99316">
        <ele>189.52</ele>
        <time>2018-12-24T13:31:00Z</time>
      </trkpt>
      <trkpt lat="43.25141" lon="5.9931">
        <ele>190</ele>
        <time>2018-12-24T13:31:22Z</time>
      </trkpt>
      <trkpt lat="43.2514" lon="5.99307">
        <ele>190.48</ele>
        <time>2018-12-24T13:31:37Z</time>
      </trkpt>
      <trkpt lat="43.25143" lon="5.99296">
        <ele>189.04</ele>
        <time>2018-12-24T13:31:47Z</time>
      </trkpt>
      <trkpt lat="43.25153" lon="5.99289">
        <ele>191.92</ele>
        <time>2018-12-24T13:32:09Z</time>
      </trkpt>
      <trkpt lat="43.25174" lon="5.99279">
        <ele>190.96</ele>
        <time>2018-12-24T13:32:29Z</time>
      </trkpt>
      <trkpt lat="43.25176" lon="5.99278">
        <ele>190.96</ele>
        <time>2018-12-24T13:32:31Z</time>
      </trkpt>
      <trkpt lat="43.25177" lon="5.99277">
        <ele>190.96</ele>
        <time>2018-12-24T13:32:32Z</time>
      </trkpt>
      <trkpt lat="43.25184" lon="5.99273">
        <ele>192.4</ele>
        <time>2018-12-24T13:32:37Z</time>
      </trkpt>
      <trkpt lat="43.25206" lon="5.99261">
        <ele>193.36</ele>
        <time>2018-12-24T13:32:58Z</time>
      </trkpt>
      <trkpt lat="43.25224" lon="5.99246">
        <ele>193.84</ele>
        <time>2018-12-24T13:33:16Z</time>
      </trkpt>
      <trkpt lat="43.25242" lon="5.99231">
        <ele>193.36</ele>
        <time>2018-12-24T13:33:33Z</time>
      </trkpt>
      <trkpt lat="43.25265" lon="5.99208">
        <ele>193.36</ele>
        <time>2018-12-24T13:33:55Z</time>
      </trkpt>
      <trkpt lat="43.25273" lon="5.99186">
        <ele>194.8</ele>
        <time>2018-12-24T13:34:06Z</time>
      </trkpt>
      <trkpt lat="43.25282" lon="5.99161">
        <ele>194.8</ele>
        <time>2018-12-24T13:34:21Z</time>
      </trkpt>
      <trkpt lat="43.25294" lon="5.99118">
        <ele>194.32</ele>
        <time>2018-12-24T13:34:44Z</time>
      </trkpt>
      <trkpt lat="43.25301" lon="5.991">
        <ele>195.77</ele>
        <time>2018-12-24T13:34:57Z</time>
      </trkpt>
      <trkpt lat="43.25305" lon="5.99082">
        <ele>195.28</ele>
        <time>2018-12-24T13:35:09Z</time>
      </trkpt>
      <trkpt lat="43.2531" lon="5.99061">
        <ele>196.73</ele>
        <time>2018-12-24T13:35:20Z</time>
      </trkpt>
      <trkpt lat="43.25316" lon="5.99024">
        <ele>195.28</ele>
        <time>2018-12-24T13:35:38Z</time>
      </trkpt>
      <trkpt lat="43.25319" lon="5.99">
        <ele>196.73</ele>
        <time>2018-12-24T13:35:53Z</time>
      </trkpt>
      <trkpt lat="43.25321" lon="5.98988">
        <ele>195.28</ele>
        <time>2018-12-24T13:35:59Z</time>
      </trkpt>
      <trkpt lat="43.25323" lon="5.98963">
        <ele>194.32</ele>
        <time>2018-12-24T13:36:17Z</time>
      </trkpt>
      <trkpt lat="43.25327" lon="5.98937">
        <ele>193.84</ele>
        <time>2018-12-24T13:36:35Z</time>
      </trkpt>
      <trkpt lat="43.25328" lon="5.98888">
        <ele>195.28</ele>
        <time>2018-12-24T13:37:00Z</time>
      </trkpt>
      <trkpt lat="43.25328" lon="5.98851">
        <ele>195.28</ele>
        <time>2018-12-24T13:37:21Z</time>
      </trkpt>
      <trkpt lat="43.25328" lon="5.98809">
        <ele>194.32</ele>
        <time>2018-12-24T13:37:43Z</time>
      </trkpt>
      <trkpt lat="43.25335" lon="5.98801">
        <ele>193.84</ele>
        <time>2018-12-24T13:38:00Z</time>
      </trkpt>
      <trkpt lat="43.2534" lon="5.98789">
        <ele>197.21</ele>
        <time>2018-12-24T13:38:16Z</time>
      </trkpt>
      <trkpt lat="43.25335" lon="5.98772">
        <ele>198.17</ele>
        <time>2018-12-24T13:38:29Z</time>
      </trkpt>
      <trkpt lat="43.25336" lon="5.98773">
        <ele>197.69</ele>
        <time>2018-12-24T13:38:32Z</time>
      </trkpt>
      <trkpt lat="43.25337" lon="5.98773">
        <ele>197.69</ele>
        <time>2018-12-24T13:38:33Z</time>
      </trkpt>
      <trkpt lat="43.25338" lon="5.98774">
        <ele>197.69</ele>
        <time>2018-12-24T13:38:34Z</time>
      </trkpt>
      <trkpt lat="43.25344" lon="5.98773">
        <ele>196.73</ele>
        <time>2018-12-24T13:38:49Z</time>
      </trkpt>
      <trkpt lat="43.25348" lon="5.98751">
        <ele>196.73</ele>
        <time>2018-12-24T13:39:09Z</time>
      </trkpt>
      <trkpt lat="43.25352" lon="5.98719">
        <ele>199.61</ele>
        <time>2018-12-24T13:39:28Z</time>
      </trkpt>
      <trkpt lat="43.25353" lon="5.98687">
        <ele>200.09</ele>
        <time>2018-12-24T13:39:46Z</time>
      </trkpt>
      <trkpt lat="43.25353" lon="5.98683">
        <ele>198.65</ele>
        <time>2018-12-24T13:39:49Z</time>
      </trkpt>
      <trkpt lat="43.25357" lon="5.98669">
        <ele>198.65</ele>
        <time>2018-12-24T13:40:04Z</time>
      </trkpt>
      <trkpt lat="43.25361" lon="5.98663">
        <ele>198.65</ele>
        <time>2018-12-24T13:40:09Z</time>
      </trkpt>
      <trkpt lat="43.25364" lon="5.98631">
        <ele>198.65</ele>
        <time>2018-12-24T13:40:29Z</time>
      </trkpt>
      <trkpt lat="43.25362" lon="5.98593">
        <ele>200.09</ele>
        <time>2018-12-24T13:40:50Z</time>
      </trkpt>
      <trkpt lat="43.25362" lon="5.98591">
        <ele>200.09</ele>
        <time>2018-12-24T13:40:51Z</time>
      </trkpt>
      <trkpt lat="43.25358" lon="5.98559">
        <ele>201.05</ele>
        <time>2018-12-24T13:41:11Z</time>
      </trkpt>
      <trkpt lat="43.25342" lon="5.98528">
        <ele>202.01</ele>
        <time>2018-12-24T13:41:33Z</time>
      </trkpt>
      <trkpt lat="43.25339" lon="5.98505">
        <ele>203.46</ele>
        <time>2018-12-24T13:41:48Z</time>
      </trkpt>
      <trkpt lat="43.25339" lon="5.98503">
        <ele>203.46</ele>
        <time>2018-12-24T13:41:49Z</time>
      </trkpt>
      <trkpt lat="43.25323" lon="5.98477">
        <ele>205.38</ele>
        <time>2018-12-24T13:42:12Z</time>
      </trkpt>
      <trkpt lat="43.25321" lon="5.98469">
        <ele>204.42</ele>
        <time>2018-12-24T13:42:22Z</time>
      </trkpt>
      <trkpt lat="43.25329" lon="5.98457">
        <ele>203.94</ele>
        <time>2018-12-24T13:42:40Z</time>
      </trkpt>
      <trkpt lat="43.25344" lon="5.98472">
        <ele>202.49</ele>
        <time>2018-12-24T13:43:01Z</time>
      </trkpt>
      <trkpt lat="43.25368" lon="5.98481">
        <ele>202.49</ele>
        <time>2018-12-24T13:43:19Z</time>
      </trkpt>
      <trkpt lat="43.254" lon="5.98464">
        <ele>202.49</ele>
        <time>2018-12-24T13:43:43Z</time>
      </trkpt>
      <trkpt lat="43.25411" lon="5.98431">
        <ele>203.94</ele>
        <time>2018-12-24T13:43:59Z</time>
      </trkpt>
      <trkpt lat="43.25424" lon="5.98403">
        <ele>202.98</ele>
        <time>2018-12-24T13:44:20Z</time>
      </trkpt>
      <trkpt lat="43.25434" lon="5.98365">
        <ele>202.98</ele>
        <time>2018-12-24T13:44:41Z</time>
      </trkpt>
      <trkpt lat="43.25436" lon="5.98347">
        <ele>203.94</ele>
        <time>2018-12-24T13:44:51Z</time>
      </trkpt>
      <trkpt lat="43.25435" lon="5.98311">
        <ele>205.86</ele>
        <time>2018-12-24T13:45:12Z</time>
      </trkpt>
      <trkpt lat="43.25436" lon="5.98274">
        <ele>204.42</ele>
        <time>2018-12-24T13:45:35Z</time>
      </trkpt>
      <trkpt lat="43.25432" lon="5.98242">
        <ele>205.86</ele>
        <time>2018-12-24T13:45:56Z</time>
      </trkpt>
      <trkpt lat="43.25431" lon="5.98214">
        <ele>205.86</ele>
        <time>2018-12-24T13:46:16Z</time>
      </trkpt>
      <trkpt lat="43.25428" lon="5.98193">
        <ele>206.34</ele>
        <time>2018-12-24T13:46:27Z</time>
      </trkpt>
      <trkpt lat="43.25423" lon="5.9817">
        <ele>210.19</ele>
        <time>2018-12-24T13:46:46Z</time>
      </trkpt>
      <trkpt lat="43.25425" lon="5.98155">
        <ele>206.34</ele>
        <time>2018-12-24T13:46:52Z</time>
      </trkpt>
      <trkpt lat="43.25427" lon="5.98144">
        <ele>209.22</ele>
        <time>2018-12-24T13:47:15Z</time>
      </trkpt>
      <trkpt lat="43.25424" lon="5.98135">
        <ele>209.7</ele>
        <time>2018-12-24T13:47:22Z</time>
      </trkpt>
      <trkpt lat="43.25423" lon="5.98131">
        <ele>208.26</ele>
        <time>2018-12-24T13:47:24Z</time>
      </trkpt>
      <trkpt lat="43.25417" lon="5.98116">
        <ele>210.67</ele>
        <time>2018-12-24T13:47:43Z</time>
      </trkpt>
      <trkpt lat="43.25417" lon="5.98113">
        <ele>210.67</ele>
        <time>2018-12-24T13:47:45Z</time>
      </trkpt>
      <trkpt lat="43.25413" lon="5.98081">
        <ele>211.15</ele>
        <time>2018-12-24T13:48:04Z</time>
      </trkpt>
      <trkpt lat="43.25413" lon="5.98077">
        <ele>212.59</ele>
        <time>2018-12-24T13:48:08Z</time>
      </trkpt>
      <trkpt lat="43.2541" lon="5.9806">
        <ele>214.03</ele>
        <time>2018-12-24T13:48:28Z</time>
      </trkpt>
      <trkpt lat="43.25397" lon="5.98056">
        <ele>217.4</ele>
        <time>2018-12-24T13:48:37Z</time>
      </trkpt>
      <trkpt lat="43.25396" lon="5.98052">
        <ele>210.25390625</ele>
      </trkpt>
      <trkpt lat="43.25376" lon="5.98013">
        <ele>215.609375</ele>
      </trkpt>
      <trkpt lat="43.25408" lon="5.98007">
        <ele>220.85546875</ele>
      </trkpt>
      <trkpt lat="43.25433" lon="5.98026">
        <ele>220.68359375</ele>
      </trkpt>
      <trkpt lat="43.25451" lon="5.98032">
        <ele>225.69921875</ele>
      </trkpt>
      <trkpt lat="43.25463" lon="5.97999">
        <ele>232.703125</ele>
      </trkpt>
      <trkpt lat="43.25488" lon="5.97972">
        <ele>239.85546875</ele>
      </trkpt>
      <trkpt lat="43.25498" lon="5.97966">
        <ele>243.23828125</ele>
      </trkpt>
      <trkpt lat="43.25501" lon="5.97953">
        <ele>245.03125</ele>
      </trkpt>
      <trkpt lat="43.25505" lon="5.97945">
        <ele>246.59375</ele>
      </trkpt>
      <trkpt lat="43.25501" lon="5.97952">
        <ele>245.13671875</ele>
      </trkpt>
      <trkpt lat="43.25488" lon="5.97948">
        <ele>242.63671875</ele>
      </trkpt>
      <trkpt lat="43.25477" lon="5.97945">
        <ele>240.72265625</ele>
      </trkpt>
      <trkpt lat="43.2547" lon="5.97945">
        <ele>240.35546875</ele>
      </trkpt>
      <trkpt lat="43.25452" lon="5.97937">
        <ele>242.640625</ele>
      </trkpt>
      <trkpt lat="43.25446" lon="5.97934">
        <ele>243.625</ele>
      </trkpt>
      <trkpt lat="43.25444" lon="5.97922">
        <ele>246.71484375</ele>
      </trkpt>
      <trkpt lat="43.25448" lon="5.97909">
        <ele>249.37890625</ele>
      </trkpt>
      <trkpt lat="43.25453" lon="5.97894">
        <ele>252.26171875</ele>
      </trkpt>
      <trkpt lat="43.25455" lon="5.97881">
        <ele>255.2109375</ele>
      </trkpt>
      <trkpt lat="43.25447" lon="5.97827">
        <ele>267.26171875</ele>
      </trkpt>
      <trkpt lat="43.25448" lon="5.97793">
        <ele>274.75</ele>
      </trkpt>
      <trkpt lat="43.25448" lon="5.97733">
        <ele>292.078125</ele>
      </trkpt>
      <trkpt lat="43.25449" lon="5.97702">
        <ele>301.8984375</ele>
      </trkpt>
      <trkpt lat="43.25453" lon="5.97688">
        <ele>305.859375</ele>
      </trkpt>
      <trkpt lat="43.25457" lon="5.9767">
        <ele>310.98828125</ele>
      </trkpt>
      <trkpt lat="43.25449" lon="5.97671">
        <ele>312.0546875</ele>
      </trkpt>
      <trkpt lat="43.2544" lon="5.97667">
        <ele>314.75</ele>
      </trkpt>
      <trkpt lat="43.25436" lon="5.97662">
        <ele>317.08203125</ele>
      </trkpt>
      <trkpt lat="43.25414" lon="5.97666">
        <ele>319.6328125</ele>
      </trkpt>
      <trkpt lat="43.25385" lon="5.97678">
        <ele>323.09765625</ele>
      </trkpt>
      <trkpt lat="43.25366" lon="5.97679">
        <ele>327.67578125</ele>
      </trkpt>
      <trkpt lat="43.25347" lon="5.97675">
        <ele>331.5859375</ele>
      </trkpt>
      <trkpt lat="43.25339" lon="5.97671">
        <ele>333.7265625</ele>
      </trkpt>
      <trkpt lat="43.25329" lon="5.97663">
        <ele>336.75</ele>
      </trkpt>
      <trkpt lat="43.2532" lon="5.97665">
        <ele>337.8046875</ele>
      </trkpt>
      <trkpt lat="43.2529" lon="5.97668">
        <ele>338.3359375</ele>
      </trkpt>
      <trkpt lat="43.25282" lon="5.97665">
        <ele>338.62109375</ele>
      </trkpt>
      <trkpt lat="43.25271" lon="5.97661">
        <ele>338.9375</ele>
      </trkpt>
      <trkpt lat="43.25263" lon="5.97663">
        <ele>338.35546875</ele>
      </trkpt>
      <trkpt lat="43.25253" lon="5.97662">
        <ele>338.2421875</ele>
      </trkpt>
      <trkpt lat="43.25249" lon="5.97656">
        <ele>338.73828125</ele>
      </trkpt>
      <trkpt lat="43.25231" lon="5.97644">
        <ele>338.71484375</ele>
      </trkpt>
      <trkpt lat="43.25217" lon="5.97641">
        <ele>337.6015625</ele>
      </trkpt>
      <trkpt lat="43.25196" lon="5.97647">
        <ele>333.32421875</ele>
      </trkpt>
      <trkpt lat="43.25175" lon="5.97653">
        <ele>328.9375</ele>
      </trkpt>
      <trkpt lat="43.25153" lon="5.97673">
        <ele>318.50390625</ele>
      </trkpt>
      <trkpt lat="43.25141" lon="5.9769">
        <ele>309.3671875</ele>
      </trkpt>
      <trkpt lat="43.25133" lon="5.97699">
        <ele>306.546875</ele>
      </trkpt>
      <trkpt lat="43.25119" lon="5.977">
        <ele>305.86328125</ele>
      </trkpt>
      <trkpt lat="43.25092" lon="5.97691">
        <ele>308.4453125</ele>
      </trkpt>
      <trkpt lat="43.25076" lon="5.97682">
        <ele>313.04296875</ele>
      </trkpt>
      <trkpt lat="43.25068" lon="5.97676">
        <ele>316.33203125</ele>
      </trkpt>
      <trkpt lat="43.25055" lon="5.97678">
        <ele>316.6796875</ele>
      </trkpt>
      <trkpt lat="43.25047" lon="5.97691">
        <ele>312.37890625</ele>
      </trkpt>
      <trkpt lat="43.25031" lon="5.97695">
        <ele>312.96484375</ele>
      </trkpt>
      <trkpt lat="43.25014" lon="5.97684">
        <ele>316.6171875</ele>
      </trkpt>
      <trkpt lat="43.24988" lon="5.97672">
        <ele>320.43359375</ele>
      </trkpt>
      <trkpt lat="43.24964" lon="5.9767">
        <ele>322.203125</ele>
      </trkpt>
      <trkpt lat="43.24953" lon="5.97669">
        <ele>323.5390625</ele>
      </trkpt>
      <trkpt lat="43.24944" lon="5.97679">
        <ele>322.35546875</ele>
      </trkpt>
      <trkpt lat="43.24939" lon="5.977">
        <ele>319.89453125</ele>
      </trkpt>
      <trkpt lat="43.24939" lon="5.97737">
        <ele>317.20703125</ele>
      </trkpt>
      <trkpt lat="43.24938" lon="5.97772">
        <ele>317.51171875</ele>
      </trkpt>
      <trkpt lat="43.2494" lon="5.97807">
        <ele>317.78515625</ele>
      </trkpt>
      <trkpt lat="43.24942" lon="5.97834">
        <ele>322.296875</ele>
      </trkpt>
      <trkpt lat="43.24941" lon="5.97846">
        <ele>324.73828125</ele>
      </trkpt>
      <trkpt lat="43.2493" lon="5.97858">
        <ele>329.484375</ele>
      </trkpt>
      <trkpt lat="43.24929" lon="5.97868">
        <ele>330.49609375</ele>
      </trkpt>
      <trkpt lat="43.24937" lon="5.97911">
        <ele>332.015625</ele>
      </trkpt>
      <trkpt lat="43.24953" lon="5.97938">
        <ele>329.5625</ele>
      </trkpt>
      <trkpt lat="43.24983" lon="5.9795">
        <ele>327.09765625</ele>
      </trkpt>
      <trkpt lat="43.24997" lon="5.97962">
        <ele>325.9765625</ele>
      </trkpt>
      <trkpt lat="43.25013" lon="5.97977">
        <ele>324.72265625</ele>
      </trkpt>
      <trkpt lat="43.25041" lon="5.98045">
        <ele>318.21875</ele>
      </trkpt>
      <trkpt lat="43.25053" lon="5.98078">
        <ele>313.06640625</ele>
      </trkpt>
      <trkpt lat="43.25083" lon="5.98109">
        <ele>308.5</ele>
      </trkpt>
      <trkpt lat="43.25091" lon="5.98127">
        <ele>305.609375</ele>
      </trkpt>
      <trkpt lat="43.25094" lon="5.98165">
        <ele>305.4609375</ele>
      </trkpt>
      <trkpt lat="43.25087" lon="5.98209">
        <ele>312.19921875</ele>
      </trkpt>
      <trkpt lat="43.25065" lon="5.98241">
        <ele>317.51171875</ele>
      </trkpt>
      <trkpt lat="43.25045" lon="5.98261">
        <ele>319.4921875</ele>
      </trkpt>
      <trkpt lat="43.25015" lon="5.9829">
        <ele>319.4296875</ele>
      </trkpt>
      <trkpt lat="43.24971" lon="5.98337">
        <ele>315.23828125</ele>
      </trkpt>
      <trkpt lat="43.24943" lon="5.9837">
        <ele>309.04296875</ele>
      </trkpt>
      <trkpt lat="43.24928" lon="5.98398">
        <ele>304.0625</ele>
      </trkpt>
      <trkpt lat="43.2493" lon="5.98412">
        <ele>303.4375</ele>
      </trkpt>
      <trkpt lat="43.24951" lon="5.98436">
        <ele>301.54296875</ele>
      </trkpt>
      <trkpt lat="43.24979" lon="5.9846">
        <ele>301.625</ele>
      </trkpt>
      <trkpt lat="43.2499" lon="5.98482">
        <ele>298.16015625</ele>
      </trkpt>
      <trkpt lat="43.24991" lon="5.98494">
        <ele>296.421875</ele>
      </trkpt>
      <trkpt lat="43.24988" lon="5.98526">
        <ele>291.46875</ele>
      </trkpt>
      <trkpt lat="43.24988" lon="5.98541">
        <ele>289.06640625</ele>
      </trkpt>
      <trkpt lat="43.24995" lon="5.98551">
        <ele>287.2578125</ele>
      </trkpt>
      <trkpt lat="43.25055" lon="5.98571">
        <ele>277.0546875</ele>
      </trkpt>
      <trkpt lat="43.25068" lon="5.98584">
        <ele>272.37109375</ele>
      </trkpt>
      <trkpt lat="43.25073" lon="5.98627">
        <ele>266.25390625</ele>
      </trkpt>
      <trkpt lat="43.25065" lon="5.98682">
        <ele>263.3828125</ele>
      </trkpt>
      <trkpt lat="43.25058" lon="5.98716">
        <ele>264.12890625</ele>
      </trkpt>
      <trkpt lat="43.25045" lon="5.98738">
        <ele>268.21875</ele>
      </trkpt>
      <trkpt lat="43.25042" lon="5.98741">
        <ele>269.05859375</ele>
      </trkpt>
      <trkpt lat="43.25028" lon="5.98728">
        <ele>273.76171875</ele>
      </trkpt>
      <trkpt lat="43.24998" lon="5.98714">
        <ele>276.65234375</ele>
      </trkpt>
      <trkpt lat="43.24972" lon="5.98712">
        <ele>278.34765625</ele>
      </trkpt>
      <trkpt lat="43.24914" lon="5.98758">
        <ele>278.98828125</ele>
      </trkpt>
      <trkpt lat="43.24914" lon="5.98759">
        <ele>284.21</ele>
        <time>2018-12-24T14:44:38Z</time>
      </trkpt>
      <trkpt lat="43.2491" lon="5.98768">
        <ele>283.73</ele>
        <time>2018-12-24T14:44:46Z</time>
      </trkpt>
      <trkpt lat="43.24907" lon="5.98776">
        <ele>283.73</ele>
        <time>2018-12-24T14:44:54Z</time>
      </trkpt>
      <trkpt lat="43.249" lon="5.98777">
        <ele>282.28</ele>
        <time>2018-12-24T14:45:04Z</time>
      </trkpt>
      <trkpt lat="43.24891" lon="5.98756">
        <ele>282.77</ele>
        <time>2018-12-24T14:45:22Z</time>
      </trkpt>
      <trkpt lat="43.24891" lon="5.98755">
        <ele>282.77</ele>
        <time>2018-12-24T14:45:23Z</time>
      </trkpt>
      <trkpt lat="43.24888" lon="5.98744">
        <ele>281.8</ele>
        <time>2018-12-24T14:45:32Z</time>
      </trkpt>
      <trkpt lat="43.24887" lon="5.98743">
        <ele>281.8</ele>
        <time>2018-12-24T14:45:33Z</time>
      </trkpt>
      <trkpt lat="43.24877" lon="5.98728">
        <ele>281.32</ele>
        <time>2018-12-24T14:45:47Z</time>
      </trkpt>
      <trkpt lat="43.24867" lon="5.98718">
        <ele>280.84</ele>
        <time>2018-12-24T14:46:02Z</time>
      </trkpt>
      <trkpt lat="43.24864" lon="5.98716">
        <ele>280.84</ele>
        <time>2018-12-24T14:46:05Z</time>
      </trkpt>
      <trkpt lat="43.24845" lon="5.98708">
        <ele>279.4</ele>
        <time>2018-12-24T14:46:23Z</time>
      </trkpt>
      <trkpt lat="43.24838" lon="5.98705">
        <ele>277</ele>
        <time>2018-12-24T14:46:29Z</time>
      </trkpt>
      <trkpt lat="43.24818" lon="5.98707">
        <ele>274.11</ele>
        <time>2018-12-24T14:46:45Z</time>
      </trkpt>
      <trkpt lat="43.24816" lon="5.98708">
        <ele>274.11</ele>
        <time>2018-12-24T14:46:46Z</time>
      </trkpt>
      <trkpt lat="43.24806" lon="5.98706">
        <ele>275.56</ele>
        <time>2018-12-24T14:46:54Z</time>
      </trkpt>
      <trkpt lat="43.248" lon="5.98708">
        <ele>274.11</ele>
        <time>2018-12-24T14:47:00Z</time>
      </trkpt>
      <trkpt lat="43.24791" lon="5.98706">
        <ele>272.19</ele>
        <time>2018-12-24T14:47:16Z</time>
      </trkpt>
      <trkpt lat="43.24781" lon="5.98715">
        <ele>271.71</ele>
        <time>2018-12-24T14:47:36Z</time>
      </trkpt>
      <trkpt lat="43.24777" lon="5.98723">
        <ele>271.23</ele>
        <time>2018-12-24T14:47:50Z</time>
      </trkpt>
      <trkpt lat="43.24773" lon="5.98725">
        <ele>270.75</ele>
        <time>2018-12-24T14:47:54Z</time>
      </trkpt>
      <trkpt lat="43.24761" lon="5.98739">
        <ele>269.31</ele>
        <time>2018-12-24T14:48:10Z</time>
      </trkpt>
      <trkpt lat="43.24756" lon="5.98751">
        <ele>267.38</ele>
        <time>2018-12-24T14:48:29Z</time>
      </trkpt>
      <trkpt lat="43.24757" lon="5.98751">
        <ele>268.83</ele>
        <time>2018-12-24T14:48:33Z</time>
      </trkpt>
      <trkpt lat="43.24745" lon="5.98759">
        <ele>266.42</ele>
        <time>2018-12-24T14:48:44Z</time>
      </trkpt>
      <trkpt lat="43.24739" lon="5.98765">
        <ele>264.5</ele>
        <time>2018-12-24T14:48:51Z</time>
      </trkpt>
      <trkpt lat="43.24734" lon="5.98766">
        <ele>263.54</ele>
        <time>2018-12-24T14:49:07Z</time>
      </trkpt>
      <trkpt lat="43.24731" lon="5.9877">
        <ele>263.54</ele>
        <time>2018-12-24T14:49:17Z</time>
      </trkpt>
      <trkpt lat="43.24726" lon="5.98779">
        <ele>262.58</ele>
        <time>2018-12-24T14:49:25Z</time>
      </trkpt>
      <trkpt lat="43.24723" lon="5.98788">
        <ele>264.02</ele>
        <time>2018-12-24T14:49:31Z</time>
      </trkpt>
      <trkpt lat="43.24719" lon="5.98808">
        <ele>264.5</ele>
        <time>2018-12-24T14:49:42Z</time>
      </trkpt>
      <trkpt lat="43.24715" lon="5.98818">
        <ele>264.98</ele>
        <time>2018-12-24T14:49:58Z</time>
      </trkpt>
      <trkpt lat="43.24716" lon="5.98833">
        <ele>264.5</ele>
        <time>2018-12-24T14:50:20Z</time>
      </trkpt>
      <trkpt lat="43.24719" lon="5.98844">
        <ele>264.5</ele>
        <time>2018-12-24T14:50:44Z</time>
      </trkpt>
      <trkpt lat="43.24717" lon="5.98861">
        <ele>265.94</ele>
        <time>2018-12-24T14:50:59Z</time>
      </trkpt>
      <trkpt lat="43.24717" lon="5.98867">
        <ele>266.42</ele>
        <time>2018-12-24T14:51:15Z</time>
      </trkpt>
      <trkpt lat="43.24718" lon="5.98879">
        <ele>267.86</ele>
        <time>2018-12-24T14:51:32Z</time>
      </trkpt>
      <trkpt lat="43.24717" lon="5.98894">
        <ele>266.9</ele>
        <time>2018-12-24T14:51:45Z</time>
      </trkpt>
      <trkpt lat="43.24678" lon="5.99096">
        <ele>261.14</ele>
        <time>2018-12-24T15:11:28Z</time>
      </trkpt>
      <trkpt lat="43.24668" lon="5.99105">
        <ele>257.77</ele>
        <time>2018-12-24T15:11:44Z</time>
      </trkpt>
      <trkpt lat="43.24661" lon="5.99113">
        <ele>254.89</ele>
        <time>2018-12-24T15:11:59Z</time>
      </trkpt>
      <trkpt lat="43.24655" lon="5.99117">
        <ele>252.96</ele>
        <time>2018-12-24T15:12:07Z</time>
      </trkpt>
      <trkpt lat="43.24642" lon="5.99134">
        <ele>250.08</ele>
        <time>2018-12-24T15:12:24Z</time>
      </trkpt>
      <trkpt lat="43.24636" lon="5.99143">
        <ele>247.2</ele>
        <time>2018-12-24T15:12:35Z</time>
      </trkpt>
      <trkpt lat="43.24627" lon="5.99154">
        <ele>243.83</ele>
        <time>2018-12-24T15:12:48Z</time>
      </trkpt>
      <trkpt lat="43.24625" lon="5.99158">
        <ele>243.83</ele>
        <time>2018-12-24T15:12:51Z</time>
      </trkpt>
      <trkpt lat="43.2462" lon="5.99172">
        <ele>242.87</ele>
        <time>2018-12-24T15:13:01Z</time>
      </trkpt>
      <trkpt lat="43.24612" lon="5.99191">
        <ele>242.39</ele>
        <time>2018-12-24T15:13:16Z</time>
      </trkpt>
      <trkpt lat="43.24612" lon="5.99194">
        <ele>242.39</ele>
        <time>2018-12-24T15:13:18Z</time>
      </trkpt>
      <trkpt lat="43.24601" lon="5.99213">
        <ele>239.02</ele>
        <time>2018-12-24T15:13:36Z</time>
      </trkpt>
      <trkpt lat="43.24598" lon="5.99219">
        <ele>238.06</ele>
        <time>2018-12-24T15:13:42Z</time>
      </trkpt>
      <trkpt lat="43.24591" lon="5.99235">
        <ele>236.62</ele>
        <time>2018-12-24T15:13:57Z</time>
      </trkpt>
      <trkpt lat="43.24582" lon="5.99257">
        <ele>234.7</ele>
        <time>2018-12-24T15:14:15Z</time>
      </trkpt>
      <trkpt lat="43.24578" lon="5.99264">
        <ele>233.74</ele>
        <time>2018-12-24T15:14:22Z</time>
      </trkpt>
      <trkpt lat="43.24569" lon="5.99279">
        <ele>231.33</ele>
        <time>2018-12-24T15:14:37Z</time>
      </trkpt>
      <trkpt lat="43.24562" lon="5.99298">
        <ele>228.93</ele>
        <time>2018-12-24T15:14:54Z</time>
      </trkpt>
      <trkpt lat="43.24558" lon="5.99315">
        <ele>227.01</ele>
        <time>2018-12-24T15:15:09Z</time>
      </trkpt>
      <trkpt lat="43.24551" lon="5.99333">
        <ele>224.61</ele>
        <time>2018-12-24T15:15:26Z</time>
      </trkpt>
      <trkpt lat="43.24543" lon="5.99352">
        <ele>222.68</ele>
        <time>2018-12-24T15:15:41Z</time>
      </trkpt>
      <trkpt lat="43.24539" lon="5.9937">
        <ele>221.24</ele>
        <time>2018-12-24T15:15:55Z</time>
      </trkpt>
      <trkpt lat="43.24535" lon="5.99379">
        <ele>219.8</ele>
        <time>2018-12-24T15:16:06Z</time>
      </trkpt>
      <trkpt lat="43.24531" lon="5.99387">
        <ele>217.4</ele>
        <time>2018-12-24T15:16:14Z</time>
      </trkpt>
      <trkpt lat="43.24529" lon="5.99391">
        <ele>215.95</ele>
        <time>2018-12-24T15:16:18Z</time>
      </trkpt>
      <trkpt lat="43.24519" lon="5.99409">
        <ele>213.07</ele>
        <time>2018-12-24T15:16:35Z</time>
      </trkpt>
      <trkpt lat="43.24512" lon="5.9942">
        <ele>211.63</ele>
        <time>2018-12-24T15:16:51Z</time>
      </trkpt>
      <trkpt lat="43.24508" lon="5.99433">
        <ele>210.19</ele>
        <time>2018-12-24T15:17:06Z</time>
      </trkpt>
      <trkpt lat="43.24504" lon="5.99446">
        <ele>210.19</ele>
        <time>2018-12-24T15:17:21Z</time>
      </trkpt>
      <trkpt lat="43.24502" lon="5.99458">
        <ele>210.19</ele>
        <time>2018-12-24T15:17:36Z</time>
      </trkpt>
      <trkpt lat="43.24502" lon="5.99477">
        <ele>209.22</ele>
        <time>2018-12-24T15:17:51Z</time>
      </trkpt>
      <trkpt lat="43.24498" lon="5.99492">
        <ele>206.82</ele>
        <time>2018-12-24T15:18:06Z</time>
      </trkpt>
      <trkpt lat="43.24498" lon="5.99512">
        <ele>204.9</ele>
        <time>2018-12-24T15:18:21Z</time>
      </trkpt>
      <trkpt lat="43.24497" lon="5.99533">
        <ele>202.49</ele>
        <time>2018-12-24T15:18:37Z</time>
      </trkpt>
      <trkpt lat="43.24494" lon="5.99549">
        <ele>200.57</ele>
        <time>2018-12-24T15:18:53Z</time>
      </trkpt>
      <trkpt lat="43.24494" lon="5.99566">
        <ele>198.17</ele>
        <time>2018-12-24T15:19:07Z</time>
      </trkpt>
      <trkpt lat="43.24495" lon="5.99566">
        <ele>199.61</ele>
        <time>2018-12-24T15:19:09Z</time>
      </trkpt>
      <trkpt lat="43.24494" lon="5.99566">
        <ele>198.17</ele>
        <time>2018-12-24T15:19:13Z</time>
      </trkpt>
      <trkpt lat="43.24492" lon="5.99576">
        <ele>195.77</ele>
        <time>2018-12-24T15:19:25Z</time>
      </trkpt>
      <trkpt lat="43.24489" lon="5.99585">
        <ele>194.32</ele>
        <time>2018-12-24T15:19:35Z</time>
      </trkpt>
      <trkpt lat="43.24488" lon="5.99595">
        <ele>193.84</ele>
        <time>2018-12-24T15:19:49Z</time>
      </trkpt>
      <trkpt lat="43.24487" lon="5.99602">
        <ele>193.36</ele>
        <time>2018-12-24T15:19:57Z</time>
      </trkpt>
      <trkpt lat="43.24484" lon="5.99617">
        <ele>191.44</ele>
        <time>2018-12-24T15:20:10Z</time>
      </trkpt>
      <trkpt lat="43.24484" lon="5.9963">
        <ele>189.04</ele>
        <time>2018-12-24T15:20:23Z</time>
      </trkpt>
      <trkpt lat="43.24483" lon="5.99646">
        <ele>187.59</ele>
        <time>2018-12-24T15:20:37Z</time>
      </trkpt>
      <trkpt lat="43.24486" lon="5.99667">
        <ele>185.67</ele>
        <time>2018-12-24T15:20:52Z</time>
      </trkpt>
      <trkpt lat="43.24486" lon="5.99669">
        <ele>184.71</ele>
        <time>2018-12-24T15:20:54Z</time>
      </trkpt>
      <trkpt lat="43.24484" lon="5.99688">
        <ele>184.71</ele>
        <time>2018-12-24T15:21:10Z</time>
      </trkpt>
      <trkpt lat="43.24489" lon="5.9971">
        <ele>184.23</ele>
        <time>2018-12-24T15:21:25Z</time>
      </trkpt>
      <trkpt lat="43.24493" lon="5.99733">
        <ele>181.83</ele>
        <time>2018-12-24T15:21:41Z</time>
      </trkpt>
      <trkpt lat="43.24498" lon="5.99751">
        <ele>178.94</ele>
        <time>2018-12-24T15:21:54Z</time>
      </trkpt>
      <trkpt lat="43.24498" lon="5.99765">
        <ele>178.94</ele>
        <time>2018-12-24T15:22:06Z</time>
      </trkpt>
      <trkpt lat="43.24497" lon="5.99769">
        <ele>177.98</ele>
        <time>2018-12-24T15:22:10Z</time>
      </trkpt>
      <trkpt lat="43.24498" lon="5.99777">
        <ele>177.02</ele>
        <time>2018-12-24T15:22:22Z</time>
      </trkpt>
      <trkpt lat="43.24497" lon="5.9978">
        <ele>174.62</ele>
        <time>2018-12-24T15:22:40Z</time>
      </trkpt>
      <trkpt lat="43.24493" lon="5.99785">
        <ele>172.69</ele>
        <time>2018-12-24T15:22:52Z</time>
      </trkpt>
      <trkpt lat="43.24498" lon="5.99793">
        <ele>171.25</ele>
        <time>2018-12-24T15:23:06Z</time>
      </trkpt>
      <trkpt lat="43.24501" lon="5.99811">
        <ele>170.29</ele>
        <time>2018-12-24T15:23:20Z</time>
      </trkpt>
      <trkpt lat="43.245" lon="5.9983">
        <ele>168.85</ele>
        <time>2018-12-24T15:23:34Z</time>
      </trkpt>
      <trkpt lat="43.24501" lon="5.99841">
        <ele>168.37</ele>
        <time>2018-12-24T15:23:49Z</time>
      </trkpt>
      <trkpt lat="43.24505" lon="5.99845">
        <ele>168.37</ele>
        <time>2018-12-24T15:24:06Z</time>
      </trkpt>
      <trkpt lat="43.24511" lon="5.99853">
        <ele>169.81</ele>
        <time>2018-12-24T15:24:16Z</time>
      </trkpt>
      <trkpt lat="43.24519" lon="5.99865">
        <ele>170.29</ele>
        <time>2018-12-24T15:24:33Z</time>
      </trkpt>
      <trkpt lat="43.24535" lon="5.99888">
        <ele>162.65625</ele>
      </trkpt>
      <trkpt lat="43.24538" lon="5.99898">
        <ele>161.890625</ele>
      </trkpt>
      <trkpt lat="43.24529" lon="5.99915">
        <ele>160.66015625</ele>
      </trkpt>
      <trkpt lat="43.24526" lon="5.99921">
        <ele>160.09765625</ele>
      </trkpt>
      <trkpt lat="43.2451" lon="5.99935">
        <ele>158.16796875</ele>
      </trkpt>
      <trkpt lat="43.24509" lon="5.99939">
        <ele>157.8125</ele>
      </trkpt>
      <trkpt lat="43.2452" lon="5.99977">
        <ele>156.04296875</ele>
      </trkpt>
      <trkpt lat="43.24526" lon="5.99999">
        <ele>155.60546875</ele>
      </trkpt>
      <trkpt lat="43.24519" lon="6.00009">
        <ele>155.01171875</ele>
      </trkpt>
      <trkpt lat="43.24513" lon="6.00017">
        <ele>154.5234375</ele>
      </trkpt>
      <trkpt lat="43.24516" lon="6.00036">
        <ele>154.5</ele>
      </trkpt>
      <trkpt lat="43.24484" lon="6.00043">
        <ele>153.57421875</ele>
      </trkpt>
      <trkpt lat="43.24454" lon="6.00045">
        <ele>153.4453125</ele>
      </trkpt>
      <trkpt lat="43.24414" lon="6.00046">
        <ele>153.640625</ele>
      </trkpt>
      <trkpt lat="43.24389" lon="6.00055">
        <ele>154.265625</ele>
      </trkpt>
      <trkpt lat="43.24364" lon="6.00079">
        <ele>155.984375</ele>
      </trkpt>
      <trkpt lat="43.24346" lon="6.00101">
        <ele>157.1796875</ele>
      </trkpt>
      <trkpt lat="43.24335" lon="6.0012">
        <ele>158.21875</ele>
      </trkpt>
    </trkseg>
  </trk>
  <trk>
    <name><![CDATA[BRAS]]></name>
    <trkseg>
      <trkpt lat="43.43973" lon="5.86036">
        <ele>339.96</ele>
        <time>2019-03-10T11:01:57Z</time>
      </trkpt>
      <trkpt lat="43.43973" lon="5.86036">
        <ele>339.96</ele>
        <time>2019-03-10T11:01:58Z</time>
      </trkpt>
      <trkpt lat="43.43973" lon="5.86036">
        <ele>345.25</ele>
        <time>2019-03-10T11:02:02Z</time>
      </trkpt>
      <trkpt lat="43.43973" lon="5.86036">
        <ele>345.25</ele>
        <time>2019-03-10T11:02:03Z</time>
      </trkpt>
      <trkpt lat="43.4397" lon="5.86034">
        <ele>344.29</ele>
        <time>2019-03-10T11:02:26Z</time>
      </trkpt>
      <trkpt lat="43.43967" lon="5.86033">
        <ele>345.73</ele>
        <time>2019-03-10T11:02:30Z</time>
      </trkpt>
      <trkpt lat="43.43965" lon="5.86021">
        <ele>346.69</ele>
        <time>2019-03-10T11:02:41Z</time>
      </trkpt>
      <trkpt lat="43.43962" lon="5.86024">
        <ele>345.25</ele>
        <time>2019-03-10T11:03:08Z</time>
      </trkpt>
      <trkpt lat="43.43964" lon="5.86025">
        <ele>346.69</ele>
        <time>2019-03-10T11:03:43Z</time>
      </trkpt>
      <trkpt lat="43.43963" lon="5.86024">
        <ele>347.17</ele>
        <time>2019-03-10T11:04:12Z</time>
      </trkpt>
      <trkpt lat="43.43961" lon="5.86021">
        <ele>346.21</ele>
        <time>2019-03-10T11:04:40Z</time>
      </trkpt>
      <trkpt lat="43.43961" lon="5.86021">
        <ele>346.21</ele>
        <time>2019-03-10T11:05:06Z</time>
      </trkpt>
      <trkpt lat="43.43961" lon="5.86021">
        <ele>346.21</ele>
        <time>2019-03-10T11:05:38Z</time>
      </trkpt>
      <trkpt lat="43.43961" lon="5.86022">
        <ele>346.21</ele>
        <time>2019-03-10T11:06:06Z</time>
      </trkpt>
      <trkpt lat="43.4396" lon="5.86022">
        <ele>346.69</ele>
        <time>2019-03-10T11:06:30Z</time>
      </trkpt>
      <trkpt lat="43.43962" lon="5.86024">
        <ele>347.65</ele>
        <time>2019-03-10T11:07:05Z</time>
      </trkpt>
      <trkpt lat="43.43962" lon="5.86024">
        <ele>347.65</ele>
        <time>2019-03-10T11:07:06Z</time>
      </trkpt>
      <trkpt lat="43.43962" lon="5.86026">
        <ele>347.65</ele>
        <time>2019-03-10T11:07:39Z</time>
      </trkpt>
      <trkpt lat="43.43964" lon="5.86022">
        <ele>348.13</ele>
        <time>2019-03-10T11:08:20Z</time>
      </trkpt>
      <trkpt lat="43.43961" lon="5.86022">
        <ele>348.13</ele>
        <time>2019-03-10T11:08:58Z</time>
      </trkpt>
      <trkpt lat="43.4396" lon="5.86022">
        <ele>348.13</ele>
        <time>2019-03-10T11:09:35Z</time>
      </trkpt>
      <trkpt lat="43.4396" lon="5.86021">
        <ele>347.17</ele>
        <time>2019-03-10T11:09:58Z</time>
      </trkpt>
      <trkpt lat="43.43961" lon="5.8602">
        <ele>346.69</ele>
        <time>2019-03-10T11:10:33Z</time>
      </trkpt>
      <trkpt lat="43.43961" lon="5.86019">
        <ele>348.13</ele>
        <time>2019-03-10T11:11:11Z</time>
      </trkpt>
      <trkpt lat="43.43962" lon="5.86017">
        <ele>348.13</ele>
        <time>2019-03-10T11:11:46Z</time>
      </trkpt>
      <trkpt lat="43.4396" lon="5.86018">
        <ele>348.13</ele>
        <time>2019-03-10T11:12:27Z</time>
      </trkpt>
      <trkpt lat="43.43961" lon="5.8602">
        <ele>348.62</ele>
        <time>2019-03-10T11:12:55Z</time>
      </trkpt>
      <trkpt lat="43.43959" lon="5.86019">
        <ele>348.62</ele>
        <time>2019-03-10T11:13:27Z</time>
      </trkpt>
      <trkpt lat="43.43959" lon="5.8602">
        <ele>348.62</ele>
        <time>2019-03-10T11:13:56Z</time>
      </trkpt>
      <trkpt lat="43.43961" lon="5.86017">
        <ele>348.62</ele>
        <time>2019-03-10T11:14:30Z</time>
      </trkpt>
      <trkpt lat="43.4396" lon="5.86017">
        <ele>349.1</ele>
        <time>2019-03-10T11:15:06Z</time>
      </trkpt>
      <trkpt lat="43.4396" lon="5.86018">
        <ele>349.1</ele>
        <time>2019-03-10T11:15:36Z</time>
      </trkpt>
      <trkpt lat="43.4396" lon="5.86018">
        <ele>349.58</ele>
        <time>2019-03-10T11:16:10Z</time>
      </trkpt>
      <trkpt lat="43.43957" lon="5.86015">
        <ele>349.58</ele>
        <time>2019-03-10T11:16:45Z</time>
      </trkpt>
      <trkpt lat="43.43954" lon="5.86016">
        <ele>348.62</ele>
        <time>2019-03-10T11:17:19Z</time>
      </trkpt>
      <trkpt lat="43.43957" lon="5.86016">
        <ele>348.62</ele>
        <time>2019-03-10T11:17:49Z</time>
      </trkpt>
      <trkpt lat="43.4396" lon="5.86016">
        <ele>350.06</ele>
        <time>2019-03-10T11:18:06Z</time>
      </trkpt>
      <trkpt lat="43.43964" lon="5.8602">
        <ele>350.54</ele>
        <time>2019-03-10T11:18:43Z</time>
      </trkpt>
      <trkpt lat="43.43963" lon="5.86021">
        <ele>350.54</ele>
        <time>2019-03-10T11:19:13Z</time>
      </trkpt>
      <trkpt lat="43.43964" lon="5.86023">
        <ele>351.02</ele>
        <time>2019-03-10T11:19:45Z</time>
      </trkpt>
      <trkpt lat="43.43961" lon="5.86021">
        <ele>351.02</ele>
        <time>2019-03-10T11:20:16Z</time>
      </trkpt>
      <trkpt lat="43.43962" lon="5.86022">
        <ele>350.06</ele>
        <time>2019-03-10T11:20:52Z</time>
      </trkpt>
      <trkpt lat="43.43964" lon="5.86024">
        <ele>350.06</ele>
        <time>2019-03-10T11:21:22Z</time>
      </trkpt>
      <trkpt lat="43.43965" lon="5.86025">
        <ele>351.02</ele>
        <time>2019-03-10T11:21:56Z</time>
      </trkpt>
      <trkpt lat="43.43962" lon="5.86025">
        <ele>351.5</ele>
        <time>2019-03-10T11:22:24Z</time>
      </trkpt>
      <trkpt lat="43.43962" lon="5.86024">
        <ele>351.5</ele>
        <time>2019-03-10T11:22:59Z</time>
      </trkpt>
      <trkpt lat="43.43961" lon="5.86023">
        <ele>351.5</ele>
        <time>2019-03-10T11:23:30Z</time>
      </trkpt>
      <trkpt lat="43.4396" lon="5.86024">
        <ele>351.5</ele>
        <time>2019-03-10T11:24:05Z</time>
      </trkpt>
      <trkpt lat="43.43962" lon="5.86025">
        <ele>350.54</ele>
        <time>2019-03-10T11:24:34Z</time>
      </trkpt>
      <trkpt lat="43.4396" lon="5.86025">
        <ele>350.54</ele>
        <time>2019-03-10T11:25:06Z</time>
      </trkpt>
      <trkpt lat="43.43961" lon="5.86025">
        <ele>350.54</ele>
        <time>2019-03-10T11:25:41Z</time>
      </trkpt>
      <trkpt lat="43.43961" lon="5.86025">
        <ele>351.5</ele>
        <time>2019-03-10T11:25:47Z</time>
      </trkpt>
      <trkpt lat="43.43961" lon="5.86023">
        <ele>350.54</ele>
        <time>2019-03-10T11:26:19Z</time>
      </trkpt>
      <trkpt lat="43.43961" lon="5.8602">
        <ele>350.54</ele>
        <time>2019-03-10T11:26:57Z</time>
      </trkpt>
      <trkpt lat="43.43959" lon="5.86019">
        <ele>351.5</ele>
        <time>2019-03-10T11:27:31Z</time>
      </trkpt>
      <trkpt lat="43.43959" lon="5.8602">
        <ele>351.5</ele>
        <time>2019-03-10T11:28:02Z</time>
      </trkpt>
      <trkpt lat="43.43961" lon="5.86019">
        <ele>350.54</ele>
        <time>2019-03-10T11:28:35Z</time>
      </trkpt>
      <trkpt lat="43.43961" lon="5.8602">
        <ele>351.5</ele>
        <time>2019-03-10T11:28:41Z</time>
      </trkpt>
      <trkpt lat="43.43963" lon="5.86023">
        <ele>352.46</ele>
        <time>2019-03-10T11:29:14Z</time>
      </trkpt>
      <trkpt lat="43.43962" lon="5.86022">
        <ele>351.5</ele>
        <time>2019-03-10T11:29:43Z</time>
      </trkpt>
      <trkpt lat="43.43962" lon="5.86023">
        <ele>351.5</ele>
        <time>2019-03-10T11:30:13Z</time>
      </trkpt>
      <trkpt lat="43.43963" lon="5.86022">
        <ele>351.5</ele>
        <time>2019-03-10T11:30:49Z</time>
      </trkpt>
      <trkpt lat="43.43963" lon="5.86024">
        <ele>351.02</ele>
        <time>2019-03-10T11:31:27Z</time>
      </trkpt>
      <trkpt lat="43.43963" lon="5.86024">
        <ele>351.98</ele>
        <time>2019-03-10T11:31:54Z</time>
      </trkpt>
      <trkpt lat="43.43964" lon="5.86024">
        <ele>351.98</ele>
        <time>2019-03-10T11:32:20Z</time>
      </trkpt>
      <trkpt lat="43.43963" lon="5.86024">
        <ele>351.98</ele>
        <time>2019-03-10T11:32:51Z</time>
      </trkpt>
      <trkpt lat="43.43962" lon="5.86025">
        <ele>351.98</ele>
        <time>2019-03-10T11:33:22Z</time>
      </trkpt>
      <trkpt lat="43.43962" lon="5.86025">
        <ele>351.98</ele>
        <time>2019-03-10T11:33:53Z</time>
      </trkpt>
      <trkpt lat="43.43962" lon="5.86024">
        <ele>352.46</ele>
        <time>2019-03-10T11:34:23Z</time>
      </trkpt>
      <trkpt lat="43.43964" lon="5.86024">
        <ele>352.46</ele>
        <time>2019-03-10T11:34:51Z</time>
      </trkpt>
      <trkpt lat="43.43962" lon="5.86023">
        <ele>350.54</ele>
        <time>2019-03-10T11:35:16Z</time>
      </trkpt>
      <trkpt lat="43.43961" lon="5.86022">
        <ele>352.46</ele>
        <time>2019-03-10T11:35:43Z</time>
      </trkpt>
      <trkpt lat="43.43961" lon="5.86021">
        <ele>352.46</ele>
        <time>2019-03-10T11:36:01Z</time>
      </trkpt>
      <trkpt lat="43.43961" lon="5.86021">
        <ele>352.94</ele>
        <time>2019-03-10T11:36:09Z</time>
      </trkpt>
      <trkpt lat="43.43961" lon="5.86021">
        <ele>351.5</ele>
        <time>2019-03-10T11:36:17Z</time>
      </trkpt>
      <trkpt lat="43.43961" lon="5.86021">
        <ele>351.5</ele>
        <time>2019-03-10T11:36:24Z</time>
      </trkpt>
      <trkpt lat="43.43961" lon="5.86021">
        <ele>351.98</ele>
        <time>2019-03-10T11:36:45Z</time>
      </trkpt>
      <trkpt lat="43.43961" lon="5.86021">
        <ele>351.5</ele>
        <time>2019-03-10T11:37:11Z</time>
      </trkpt>
      <trkpt lat="43.4396" lon="5.86021">
        <ele>352.46</ele>
        <time>2019-03-10T11:37:40Z</time>
      </trkpt>
      <trkpt lat="43.4396" lon="5.86021">
        <ele>351.5</ele>
        <time>2019-03-10T11:37:53Z</time>
      </trkpt>
      <trkpt lat="43.4396" lon="5.86021">
        <ele>352.46</ele>
        <time>2019-03-10T11:38:16Z</time>
      </trkpt>
      <trkpt lat="43.4396" lon="5.8602">
        <ele>351.5</ele>
        <time>2019-03-10T11:38:47Z</time>
      </trkpt>
      <trkpt lat="43.4396" lon="5.86021">
        <ele>352.46</ele>
        <time>2019-03-10T11:39:11Z</time>
      </trkpt>
      <trkpt lat="43.43962" lon="5.86022">
        <ele>352.46</ele>
        <time>2019-03-10T11:39:42Z</time>
      </trkpt>
      <trkpt lat="43.43961" lon="5.86021">
        <ele>352.46</ele>
        <time>2019-03-10T11:40:11Z</time>
      </trkpt>
      <trkpt lat="43.43961" lon="5.86021">
        <ele>351.5</ele>
        <time>2019-03-10T11:40:17Z</time>
      </trkpt>
      <trkpt lat="43.4396" lon="5.8602">
        <ele>351.5</ele>
        <time>2019-03-10T11:40:45Z</time>
      </trkpt>
      <trkpt lat="43.43959" lon="5.8602">
        <ele>351.02</ele>
        <time>2019-03-10T11:41:07Z</time>
      </trkpt>
      <trkpt lat="43.43958" lon="5.86019">
        <ele>351.02</ele>
        <time>2019-03-10T11:41:37Z</time>
      </trkpt>
      <trkpt lat="43.43958" lon="5.86019">
        <ele>351.02</ele>
        <time>2019-03-10T11:41:57Z</time>
      </trkpt>
      <trkpt lat="43.43959" lon="5.86019">
        <ele>351.02</ele>
        <time>2019-03-10T11:42:21Z</time>
      </trkpt>
      <trkpt lat="43.43959" lon="5.86019">
        <ele>352.94</ele>
        <time>2019-03-10T11:42:26Z</time>
      </trkpt>
      <trkpt lat="43.43959" lon="5.86019">
        <ele>351.02</ele>
        <time>2019-03-10T11:42:33Z</time>
      </trkpt>
      <trkpt lat="43.43959" lon="5.8602">
        <ele>350.54</ele>
        <time>2019-03-10T11:43:03Z</time>
      </trkpt>
      <trkpt lat="43.43961" lon="5.86022">
        <ele>350.54</ele>
        <time>2019-03-10T11:43:33Z</time>
      </trkpt>
      <trkpt lat="43.43961" lon="5.86022">
        <ele>350.54</ele>
        <time>2019-03-10T11:43:56Z</time>
      </trkpt>
      <trkpt lat="43.43961" lon="5.86023">
        <ele>350.54</ele>
        <time>2019-03-10T11:44:23Z</time>
      </trkpt>
      <trkpt lat="43.4396" lon="5.86023">
        <ele>351.98</ele>
        <time>2019-03-10T11:44:47Z</time>
      </trkpt>
      <trkpt lat="43.43961" lon="5.86022">
        <ele>351.98</ele>
        <time>2019-03-10T11:45:19Z</time>
      </trkpt>
      <trkpt lat="43.43961" lon="5.86024">
        <ele>351.98</ele>
        <time>2019-03-10T11:45:48Z</time>
      </trkpt>
      <trkpt lat="43.43961" lon="5.86024">
        <ele>352.46</ele>
        <time>2019-03-10T11:46:13Z</time>
      </trkpt>
      <trkpt lat="43.43961" lon="5.86025">
        <ele>351.5</ele>
        <time>2019-03-10T11:46:41Z</time>
      </trkpt>
      <trkpt lat="43.43959" lon="5.86025">
        <ele>351.5</ele>
        <time>2019-03-10T11:47:07Z</time>
      </trkpt>
      <trkpt lat="43.4396" lon="5.86025">
        <ele>351.5</ele>
        <time>2019-03-10T11:47:30Z</time>
      </trkpt>
      <trkpt lat="43.43962" lon="5.86024">
        <ele>351.5</ele>
        <time>2019-03-10T11:47:57Z</time>
      </trkpt>
      <trkpt lat="43.43962" lon="5.86024">
        <ele>351.98</ele>
        <time>2019-03-10T11:48:23Z</time>
      </trkpt>
      <trkpt lat="43.43961" lon="5.86024">
        <ele>351.98</ele>
        <time>2019-03-10T11:48:45Z</time>
      </trkpt>
      <trkpt lat="43.43961" lon="5.86024">
        <ele>352.94</ele>
        <time>2019-03-10T11:49:11Z</time>
      </trkpt>
      <trkpt lat="43.43963" lon="5.86026">
        <ele>352.94</ele>
        <time>2019-03-10T11:49:43Z</time>
      </trkpt>
      <trkpt lat="43.43962" lon="5.86026">
        <ele>353.9</ele>
        <time>2019-03-10T11:50:09Z</time>
      </trkpt>
      <trkpt lat="43.43961" lon="5.86026">
        <ele>351.98</ele>
        <time>2019-03-10T11:50:21Z</time>
      </trkpt>
      <trkpt lat="43.43961" lon="5.86026">
        <ele>353.42</ele>
        <time>2019-03-10T11:50:52Z</time>
      </trkpt>
      <trkpt lat="43.4396" lon="5.86024">
        <ele>353.42</ele>
        <time>2019-03-10T11:51:18Z</time>
      </trkpt>
      <trkpt lat="43.43959" lon="5.86024">
        <ele>354.38</ele>
        <time>2019-03-10T11:51:51Z</time>
      </trkpt>
      <trkpt lat="43.43959" lon="5.86025">
        <ele>353.9</ele>
        <time>2019-03-10T11:52:24Z</time>
      </trkpt>
      <trkpt lat="43.4396" lon="5.86024">
        <ele>352.94</ele>
        <time>2019-03-10T11:52:53Z</time>
      </trkpt>
      <trkpt lat="43.43958" lon="5.86023">
        <ele>352.94</ele>
        <time>2019-03-10T11:53:30Z</time>
      </trkpt>
      <trkpt lat="43.43959" lon="5.86022">
        <ele>353.9</ele>
        <time>2019-03-10T11:53:51Z</time>
      </trkpt>
      <trkpt lat="43.43959" lon="5.86023">
        <ele>353.9</ele>
        <time>2019-03-10T11:54:25Z</time>
      </trkpt>
      <trkpt lat="43.43958" lon="5.86022">
        <ele>353.9</ele>
        <time>2019-03-10T11:54:59Z</time>
      </trkpt>
      <trkpt lat="43.43959" lon="5.86022">
        <ele>353.9</ele>
        <time>2019-03-10T11:55:34Z</time>
      </trkpt>
      <trkpt lat="43.4396" lon="5.86022">
        <ele>353.9</ele>
        <time>2019-03-10T11:56:08Z</time>
      </trkpt>
      <trkpt lat="43.43961" lon="5.86021">
        <ele>353.9</ele>
        <time>2019-03-10T11:56:41Z</time>
      </trkpt>
      <trkpt lat="43.43963" lon="5.8602">
        <ele>353.9</ele>
        <time>2019-03-10T11:57:08Z</time>
      </trkpt>
      <trkpt lat="43.43964" lon="5.86021">
        <ele>353.9</ele>
        <time>2019-03-10T11:57:43Z</time>
      </trkpt>
      <trkpt lat="43.43965" lon="5.86023">
        <ele>353.9</ele>
        <time>2019-03-10T11:58:17Z</time>
      </trkpt>
      <trkpt lat="43.43965" lon="5.86022">
        <ele>353.9</ele>
        <time>2019-03-10T11:58:58Z</time>
      </trkpt>
      <trkpt lat="43.43963" lon="5.86024">
        <ele>353.9</ele>
        <time>2019-03-10T11:59:37Z</time>
      </trkpt>
      <trkpt lat="43.43962" lon="5.86021">
        <ele>353.9</ele>
        <time>2019-03-10T12:00:19Z</time>
      </trkpt>
      <trkpt lat="43.43962" lon="5.86022">
        <ele>354.86</ele>
        <time>2019-03-10T12:00:53Z</time>
      </trkpt>
      <trkpt lat="43.43961" lon="5.86022">
        <ele>353.42</ele>
        <time>2019-03-10T12:01:07Z</time>
      </trkpt>
      <trkpt lat="43.43963" lon="5.86022">
        <ele>354.38</ele>
        <time>2019-03-10T12:01:44Z</time>
      </trkpt>
      <trkpt lat="43.43964" lon="5.86023">
        <ele>353.42</ele>
        <time>2019-03-10T12:01:48Z</time>
      </trkpt>
      <trkpt lat="43.43963" lon="5.86022">
        <ele>354.38</ele>
        <time>2019-03-10T12:02:26Z</time>
      </trkpt>
      <trkpt lat="43.43963" lon="5.86022">
        <ele>354.38</ele>
        <time>2019-03-10T12:03:00Z</time>
      </trkpt>
      <trkpt lat="43.43962" lon="5.86021">
        <ele>354.38</ele>
        <time>2019-03-10T12:03:33Z</time>
      </trkpt>
      <trkpt lat="43.43962" lon="5.86021">
        <ele>354.38</ele>
        <time>2019-03-10T12:04:11Z</time>
      </trkpt>
      <trkpt lat="43.43963" lon="5.8602">
        <ele>354.38</ele>
        <time>2019-03-10T12:04:48Z</time>
      </trkpt>
      <trkpt lat="43.43965" lon="5.86019">
        <ele>354.38</ele>
        <time>2019-03-10T12:05:29Z</time>
      </trkpt>
      <trkpt lat="43.43965" lon="5.86021">
        <ele>354.38</ele>
        <time>2019-03-10T12:05:58Z</time>
      </trkpt>
      <trkpt lat="43.43966" lon="5.86019">
        <ele>354.86</ele>
        <time>2019-03-10T12:06:30Z</time>
      </trkpt>
      <trkpt lat="43.43966" lon="5.86019">
        <ele>353.9</ele>
        <time>2019-03-10T12:06:37Z</time>
      </trkpt>
      <trkpt lat="43.43965" lon="5.8602">
        <ele>354.86</ele>
        <time>2019-03-10T12:07:14Z</time>
      </trkpt>
      <trkpt lat="43.43965" lon="5.8602">
        <ele>355.83</ele>
        <time>2019-03-10T12:07:23Z</time>
      </trkpt>
      <trkpt lat="43.43964" lon="5.86021">
        <ele>355.83</ele>
        <time>2019-03-10T12:07:44Z</time>
      </trkpt>
      <trkpt lat="43.43964" lon="5.86021">
        <ele>355.83</ele>
        <time>2019-03-10T12:08:22Z</time>
      </trkpt>
      <trkpt lat="43.43964" lon="5.86021">
        <ele>354.38</ele>
        <time>2019-03-10T12:08:25Z</time>
      </trkpt>
      <trkpt lat="43.43963" lon="5.8602">
        <ele>354.38</ele>
        <time>2019-03-10T12:09:03Z</time>
      </trkpt>
      <trkpt lat="43.43964" lon="5.86019">
        <ele>354.38</ele>
        <time>2019-03-10T12:09:18Z</time>
      </trkpt>
      <trkpt lat="43.43964" lon="5.86021">
        <ele>353.9</ele>
        <time>2019-03-10T12:09:53Z</time>
      </trkpt>
      <trkpt lat="43.43965" lon="5.86022">
        <ele>353.9</ele>
        <time>2019-03-10T12:10:25Z</time>
      </trkpt>
      <trkpt lat="43.43963" lon="5.86022">
        <ele>355.34</ele>
        <time>2019-03-10T12:11:01Z</time>
      </trkpt>
      <trkpt lat="43.43959" lon="5.86024">
        <ele>353.42</ele>
        <time>2019-03-10T12:11:39Z</time>
      </trkpt>
      <trkpt lat="43.4396" lon="5.86025">
        <ele>353.42</ele>
        <time>2019-03-10T12:12:12Z</time>
      </trkpt>
      <trkpt lat="43.43959" lon="5.86025">
        <ele>354.86</ele>
        <time>2019-03-10T12:12:42Z</time>
      </trkpt>
      <trkpt lat="43.43959" lon="5.86025">
        <ele>354.38</ele>
        <time>2019-03-10T12:12:43Z</time>
      </trkpt>
      <trkpt lat="43.43961" lon="5.86024">
        <ele>354.38</ele>
        <time>2019-03-10T12:13:16Z</time>
      </trkpt>
      <trkpt lat="43.43961" lon="5.86024">
        <ele>354.38</ele>
        <time>2019-03-10T12:13:53Z</time>
      </trkpt>
      <trkpt lat="43.43961" lon="5.86025">
        <ele>354.38</ele>
        <time>2019-03-10T12:14:27Z</time>
      </trkpt>
      <trkpt lat="43.43961" lon="5.86024">
        <ele>354.86</ele>
        <time>2019-03-10T12:14:57Z</time>
      </trkpt>
      <trkpt lat="43.43961" lon="5.86022">
        <ele>354.86</ele>
        <time>2019-03-10T12:15:22Z</time>
      </trkpt>
      <trkpt lat="43.43962" lon="5.86023">
        <ele>353.42</ele>
        <time>2019-03-10T12:15:47Z</time>
      </trkpt>
      <trkpt lat="43.43962" lon="5.86023">
        <ele>353.42</ele>
        <time>2019-03-10T12:16:20Z</time>
      </trkpt>
      <trkpt lat="43.43962" lon="5.86023">
        <ele>353.42</ele>
        <time>2019-03-10T12:16:47Z</time>
      </trkpt>
      <trkpt lat="43.43961" lon="5.86023">
        <ele>353.42</ele>
        <time>2019-03-10T12:17:15Z</time>
      </trkpt>
      <trkpt lat="43.43961" lon="5.86024">
        <ele>354.38</ele>
        <time>2019-03-10T12:17:29Z</time>
      </trkpt>
      <trkpt lat="43.43961" lon="5.86024">
        <ele>354.38</ele>
        <time>2019-03-10T12:18:02Z</time>
      </trkpt>
      <trkpt lat="43.43962" lon="5.86024">
        <ele>354.38</ele>
        <time>2019-03-10T12:18:03Z</time>
      </trkpt>
      <trkpt lat="43.43961" lon="5.86024">
        <ele>354.86</ele>
        <time>2019-03-10T12:18:40Z</time>
      </trkpt>
      <trkpt lat="43.43961" lon="5.86024">
        <ele>353.42</ele>
        <time>2019-03-10T12:18:42Z</time>
      </trkpt>
      <trkpt lat="43.4396" lon="5.86022">
        <ele>352.46</ele>
        <time>2019-03-10T12:19:13Z</time>
      </trkpt>
      <trkpt lat="43.43961" lon="5.86023">
        <ele>352.46</ele>
        <time>2019-03-10T12:19:42Z</time>
      </trkpt>
      <trkpt lat="43.4396" lon="5.86024">
        <ele>353.42</ele>
        <time>2019-03-10T12:20:15Z</time>
      </trkpt>
      <trkpt lat="43.4396" lon="5.86024">
        <ele>353.9</ele>
        <time>2019-03-10T12:20:46Z</time>
      </trkpt>
      <trkpt lat="43.4396" lon="5.86024">
        <ele>353.9</ele>
        <time>2019-03-10T12:21:18Z</time>
      </trkpt>
      <trkpt lat="43.43959" lon="5.86024">
        <ele>352.94</ele>
        <time>2019-03-10T12:21:35Z</time>
      </trkpt>
      <trkpt lat="43.43958" lon="5.86026">
        <ele>352.46</ele>
        <time>2019-03-10T12:22:06Z</time>
      </trkpt>
      <trkpt lat="43.43959" lon="5.86026">
        <ele>352.46</ele>
        <time>2019-03-10T12:22:35Z</time>
      </trkpt>
      <trkpt lat="43.43961" lon="5.86024">
        <ele>352.94</ele>
        <time>2019-03-10T12:23:16Z</time>
      </trkpt>
      <trkpt lat="43.43962" lon="5.86024">
        <ele>353.42</ele>
        <time>2019-03-10T12:23:36Z</time>
      </trkpt>
      <trkpt lat="43.43963" lon="5.86024">
        <ele>353.9</ele>
        <time>2019-03-10T12:23:58Z</time>
      </trkpt>
      <trkpt lat="43.43963" lon="5.86024">
        <ele>353.9</ele>
        <time>2019-03-10T12:24:40Z</time>
      </trkpt>
      <trkpt lat="43.43963" lon="5.86024">
        <ele>353.9</ele>
        <time>2019-03-10T12:25:16Z</time>
      </trkpt>
      <trkpt lat="43.43963" lon="5.86024">
        <ele>354.38</ele>
        <time>2019-03-10T12:25:46Z</time>
      </trkpt>
      <trkpt lat="43.43964" lon="5.86023">
        <ele>353.42</ele>
        <time>2019-03-10T12:26:21Z</time>
      </trkpt>
      <trkpt lat="43.43964" lon="5.86022">
        <ele>354.38</ele>
        <time>2019-03-10T12:26:32Z</time>
      </trkpt>
      <trkpt lat="43.43963" lon="5.86023">
        <ele>353.42</ele>
        <time>2019-03-10T12:27:04Z</time>
      </trkpt>
      <trkpt lat="43.43962" lon="5.86022">
        <ele>352.94</ele>
        <time>2019-03-10T12:27:43Z</time>
      </trkpt>
      <trkpt lat="43.43963" lon="5.86023">
        <ele>352.94</ele>
        <time>2019-03-10T12:28:17Z</time>
      </trkpt>
      <trkpt lat="43.43963" lon="5.86022">
        <ele>354.38</ele>
        <time>2019-03-10T12:28:47Z</time>
      </trkpt>
      <trkpt lat="43.43964" lon="5.86022">
        <ele>354.38</ele>
        <time>2019-03-10T12:29:31Z</time>
      </trkpt>
      <trkpt lat="43.43963" lon="5.86023">
        <ele>354.38</ele>
        <time>2019-03-10T12:30:10Z</time>
      </trkpt>
      <trkpt lat="43.43963" lon="5.86023">
        <ele>353.42</ele>
        <time>2019-03-10T12:30:25Z</time>
      </trkpt>
      <trkpt lat="43.43963" lon="5.86023">
        <ele>354.86</ele>
        <time>2019-03-10T12:30:31Z</time>
      </trkpt>
      <trkpt lat="43.43963" lon="5.86022">
        <ele>355.34</ele>
        <time>2019-03-10T12:31:04Z</time>
      </trkpt>
      <trkpt lat="43.43963" lon="5.86023">
        <ele>354.38</ele>
        <time>2019-03-10T12:31:31Z</time>
      </trkpt>
      <trkpt lat="43.43962" lon="5.86024">
        <ele>353.9</ele>
        <time>2019-03-10T12:32:09Z</time>
      </trkpt>
      <trkpt lat="43.43961" lon="5.86024">
        <ele>353.9</ele>
        <time>2019-03-10T12:32:43Z</time>
      </trkpt>
      <trkpt lat="43.43961" lon="5.86025">
        <ele>353.42</ele>
        <time>2019-03-10T12:33:10Z</time>
      </trkpt>
      <trkpt lat="43.43961" lon="5.86024">
        <ele>354.38</ele>
        <time>2019-03-10T12:33:36Z</time>
      </trkpt>
      <trkpt lat="43.4396" lon="5.86024">
        <ele>354.38</ele>
        <time>2019-03-10T12:34:11Z</time>
      </trkpt>
      <trkpt lat="43.43959" lon="5.86023">
        <ele>354.86</ele>
        <time>2019-03-10T12:34:49Z</time>
      </trkpt>
      <trkpt lat="43.4396" lon="5.86024">
        <ele>353.42</ele>
        <time>2019-03-10T12:35:15Z</time>
      </trkpt>
      <trkpt lat="43.43959" lon="5.86025">
        <ele>353.42</ele>
        <time>2019-03-10T12:35:51Z</time>
      </trkpt>
      <trkpt lat="43.4396" lon="5.86026">
        <ele>354.38</ele>
        <time>2019-03-10T12:36:28Z</time>
      </trkpt>
      <trkpt lat="43.43961" lon="5.86026">
        <ele>354.38</ele>
        <time>2019-03-10T12:36:57Z</time>
      </trkpt>
      <trkpt lat="43.43959" lon="5.86026">
        <ele>354.38</ele>
        <time>2019-03-10T12:37:34Z</time>
      </trkpt>
      <trkpt lat="43.43963" lon="5.86025">
        <ele>354.86</ele>
        <time>2019-03-10T12:38:05Z</time>
      </trkpt>
      <trkpt lat="43.43962" lon="5.86021">
        <ele>355.34</ele>
        <time>2019-03-10T12:38:41Z</time>
      </trkpt>
      <trkpt lat="43.43962" lon="5.8602">
        <ele>353.9</ele>
        <time>2019-03-10T12:38:54Z</time>
      </trkpt>
      <trkpt lat="43.43961" lon="5.86021">
        <ele>354.38</ele>
        <time>2019-03-10T12:39:05Z</time>
      </trkpt>
      <trkpt lat="43.43961" lon="5.86018">
        <ele>354.86</ele>
        <time>2019-03-10T12:39:41Z</time>
      </trkpt>
      <trkpt lat="43.4396" lon="5.86016">
        <ele>355.34</ele>
        <time>2019-03-10T12:40:19Z</time>
      </trkpt>
      <trkpt lat="43.4396" lon="5.86015">
        <ele>354.38</ele>
        <time>2019-03-10T12:40:42Z</time>
      </trkpt>
      <trkpt lat="43.43961" lon="5.86015">
        <ele>353.9</ele>
        <time>2019-03-10T12:41:17Z</time>
      </trkpt>
      <trkpt lat="43.43959" lon="5.86015">
        <ele>355.34</ele>
        <time>2019-03-10T12:41:54Z</time>
      </trkpt>
      <trkpt lat="43.43958" lon="5.86014">
        <ele>355.83</ele>
        <time>2019-03-10T12:42:21Z</time>
      </trkpt>
      <trkpt lat="43.43958" lon="5.86013">
        <ele>354.86</ele>
        <time>2019-03-10T12:42:42Z</time>
      </trkpt>
      <trkpt lat="43.43959" lon="5.8601">
        <ele>354.86</ele>
        <time>2019-03-10T12:43:17Z</time>
      </trkpt>
      <trkpt lat="43.43959" lon="5.86016">
        <ele>354.38</ele>
        <time>2019-03-10T12:43:51Z</time>
      </trkpt>
      <trkpt lat="43.4396" lon="5.86017">
        <ele>355.83</ele>
        <time>2019-03-10T12:44:30Z</time>
      </trkpt>
      <trkpt lat="43.43962" lon="5.8602">
        <ele>355.83</ele>
        <time>2019-03-10T12:45:04Z</time>
      </trkpt>
      <trkpt lat="43.4396" lon="5.8602">
        <ele>355.83</ele>
        <time>2019-03-10T12:45:37Z</time>
      </trkpt>
      <trkpt lat="43.4396" lon="5.86023">
        <ele>355.83</ele>
        <time>2019-03-10T12:46:04Z</time>
      </trkpt>
      <trkpt lat="43.4396" lon="5.86023">
        <ele>355.83</ele>
        <time>2019-03-10T12:46:32Z</time>
      </trkpt>
      <trkpt lat="43.43962" lon="5.86024">
        <ele>355.83</ele>
        <time>2019-03-10T12:47:06Z</time>
      </trkpt>
      <trkpt lat="43.43962" lon="5.86023">
        <ele>356.31</ele>
        <time>2019-03-10T12:47:42Z</time>
      </trkpt>
      <trkpt lat="43.43962" lon="5.86023">
        <ele>356.31</ele>
        <time>2019-03-10T12:48:15Z</time>
      </trkpt>
      <trkpt lat="43.43961" lon="5.86022">
        <ele>356.31</ele>
        <time>2019-03-10T12:48:50Z</time>
      </trkpt>
      <trkpt lat="43.43961" lon="5.86023">
        <ele>356.31</ele>
        <time>2019-03-10T12:49:23Z</time>
      </trkpt>
      <trkpt lat="43.43961" lon="5.86025">
        <ele>354.86</ele>
        <time>2019-03-10T12:49:57Z</time>
      </trkpt>
      <trkpt lat="43.4396" lon="5.86026">
        <ele>355.83</ele>
        <time>2019-03-10T12:50:26Z</time>
      </trkpt>
      <trkpt lat="43.43961" lon="5.86027">
        <ele>355.83</ele>
        <time>2019-03-10T12:50:59Z</time>
      </trkpt>
      <trkpt lat="43.43961" lon="5.86025">
        <ele>356.31</ele>
        <time>2019-03-10T12:51:31Z</time>
      </trkpt>
      <trkpt lat="43.4396" lon="5.86025">
        <ele>356.79</ele>
        <time>2019-03-10T12:51:58Z</time>
      </trkpt>
      <trkpt lat="43.43961" lon="5.86025">
        <ele>356.31</ele>
        <time>2019-03-10T12:52:28Z</time>
      </trkpt>
      <trkpt lat="43.4396" lon="5.86024">
        <ele>355.34</ele>
        <time>2019-03-10T12:53:02Z</time>
      </trkpt>
      <trkpt lat="43.43961" lon="5.86024">
        <ele>355.34</ele>
        <time>2019-03-10T12:53:37Z</time>
      </trkpt>
      <trkpt lat="43.43963" lon="5.86021">
        <ele>356.31</ele>
        <time>2019-03-10T12:54:07Z</time>
      </trkpt>
      <trkpt lat="43.4396" lon="5.86022">
        <ele>356.31</ele>
        <time>2019-03-10T12:54:34Z</time>
      </trkpt>
      <trkpt lat="43.43959" lon="5.86023">
        <ele>355.83</ele>
        <time>2019-03-10T12:55:04Z</time>
      </trkpt>
      <trkpt lat="43.43959" lon="5.86022">
        <ele>355.83</ele>
        <time>2019-03-10T12:55:38Z</time>
      </trkpt>
      <trkpt lat="43.43958" lon="5.86023">
        <ele>355.83</ele>
        <time>2019-03-10T12:56:08Z</time>
      </trkpt>
      <trkpt lat="43.43959" lon="5.86023">
        <ele>356.31</ele>
        <time>2019-03-10T12:56:44Z</time>
      </trkpt>
      <trkpt lat="43.43958" lon="5.86022">
        <ele>356.31</ele>
        <time>2019-03-10T12:57:06Z</time>
      </trkpt>
      <trkpt lat="43.43959" lon="5.86022">
        <ele>356.31</ele>
        <time>2019-03-10T12:57:36Z</time>
      </trkpt>
      <trkpt lat="43.43958" lon="5.86024">
        <ele>356.79</ele>
        <time>2019-03-10T12:57:58Z</time>
      </trkpt>
      <trkpt lat="43.4396" lon="5.86022">
        <ele>357.75</ele>
        <time>2019-03-10T12:58:28Z</time>
      </trkpt>
      <trkpt lat="43.43959" lon="5.86023">
        <ele>356.31</ele>
        <time>2019-03-10T12:59:01Z</time>
      </trkpt>
      <trkpt lat="43.43958" lon="5.86021">
        <ele>355.34</ele>
        <time>2019-03-10T12:59:34Z</time>
      </trkpt>
      <trkpt lat="43.43957" lon="5.86022">
        <ele>354.38</ele>
        <time>2019-03-10T13:00:02Z</time>
      </trkpt>
      <trkpt lat="43.43956" lon="5.86023">
        <ele>354.38</ele>
        <time>2019-03-10T13:00:31Z</time>
      </trkpt>
      <trkpt lat="43.43965" lon="5.86018">
        <ele>354.38</ele>
        <time>2019-03-10T13:00:56Z</time>
      </trkpt>
      <trkpt lat="43.43963" lon="5.8602">
        <ele>354.38</ele>
        <time>2019-03-10T13:01:30Z</time>
      </trkpt>
      <trkpt lat="43.4396" lon="5.86021">
        <ele>355.34</ele>
        <time>2019-03-10T13:02:10Z</time>
      </trkpt>
      <trkpt lat="43.43962" lon="5.8602">
        <ele>355.34</ele>
        <time>2019-03-10T13:02:36Z</time>
      </trkpt>
      <trkpt lat="43.4396" lon="5.8602">
        <ele>355.83</ele>
        <time>2019-03-10T13:03:04Z</time>
      </trkpt>
      <trkpt lat="43.4396" lon="5.86021">
        <ele>355.83</ele>
        <time>2019-03-10T13:03:30Z</time>
      </trkpt>
      <trkpt lat="43.4396" lon="5.8602">
        <ele>354.86</ele>
        <time>2019-03-10T13:03:36Z</time>
      </trkpt>
      <trkpt lat="43.4396" lon="5.8602">
        <ele>355.34</ele>
        <time>2019-03-10T13:04:11Z</time>
      </trkpt>
      <trkpt lat="43.43961" lon="5.8602">
        <ele>355.34</ele>
        <time>2019-03-10T13:04:36Z</time>
      </trkpt>
      <trkpt lat="43.43961" lon="5.86021">
        <ele>355.34</ele>
        <time>2019-03-10T13:05:04Z</time>
      </trkpt>
      <trkpt lat="43.43959" lon="5.86022">
        <ele>354.86</ele>
        <time>2019-03-10T13:05:38Z</time>
      </trkpt>
      <trkpt lat="43.43957" lon="5.86023">
        <ele>354.38</ele>
        <time>2019-03-10T13:06:01Z</time>
      </trkpt>
      <trkpt lat="43.43958" lon="5.86023">
        <ele>353.9</ele>
        <time>2019-03-10T13:06:26Z</time>
      </trkpt>
      <trkpt lat="43.43958" lon="5.86022">
        <ele>354.86</ele>
        <time>2019-03-10T13:06:45Z</time>
      </trkpt>
      <trkpt lat="43.43958" lon="5.86022">
        <ele>354.86</ele>
        <time>2019-03-10T13:07:13Z</time>
      </trkpt>
      <trkpt lat="43.43959" lon="5.86021">
        <ele>353.9</ele>
        <time>2019-03-10T13:07:51Z</time>
      </trkpt>
      <trkpt lat="43.43959" lon="5.8602">
        <ele>354.38</ele>
        <time>2019-03-10T13:08:18Z</time>
      </trkpt>
      <trkpt lat="43.43958" lon="5.8602">
        <ele>354.38</ele>
        <time>2019-03-10T13:08:53Z</time>
      </trkpt>
      <trkpt lat="43.43958" lon="5.86021">
        <ele>354.38</ele>
        <time>2019-03-10T13:09:26Z</time>
      </trkpt>
      <trkpt lat="43.43958" lon="5.86022">
        <ele>354.38</ele>
        <time>2019-03-10T13:09:57Z</time>
      </trkpt>
      <trkpt lat="43.43959" lon="5.86022">
        <ele>353.9</ele>
        <time>2019-03-10T13:10:26Z</time>
      </trkpt>
      <trkpt lat="43.43959" lon="5.86022">
        <ele>353.9</ele>
        <time>2019-03-10T13:10:54Z</time>
      </trkpt>
      <trkpt lat="43.4396" lon="5.86021">
        <ele>352.94</ele>
        <time>2019-03-10T13:11:26Z</time>
      </trkpt>
      <trkpt lat="43.4396" lon="5.86021">
        <ele>352.94</ele>
        <time>2019-03-10T13:11:27Z</time>
      </trkpt>
      <trkpt lat="43.43961" lon="5.86021">
        <ele>353.9</ele>
        <time>2019-03-10T13:11:50Z</time>
      </trkpt>
      <trkpt lat="43.43961" lon="5.8602">
        <ele>354.38</ele>
        <time>2019-03-10T13:12:21Z</time>
      </trkpt>
      <trkpt lat="43.43961" lon="5.86021">
        <ele>352.94</ele>
        <time>2019-03-10T13:12:28Z</time>
      </trkpt>
      <trkpt lat="43.43961" lon="5.8602">
        <ele>354.38</ele>
        <time>2019-03-10T13:12:33Z</time>
      </trkpt>
      <trkpt lat="43.43962" lon="5.8602">
        <ele>352.94</ele>
        <time>2019-03-10T13:13:02Z</time>
      </trkpt>
      <trkpt lat="43.43962" lon="5.86021">
        <ele>354.38</ele>
        <time>2019-03-10T13:13:28Z</time>
      </trkpt>
      <trkpt lat="43.43963" lon="5.86021">
        <ele>354.38</ele>
        <time>2019-03-10T13:13:54Z</time>
      </trkpt>
      <trkpt lat="43.43962" lon="5.86021">
        <ele>352.94</ele>
        <time>2019-03-10T13:14:20Z</time>
      </trkpt>
      <trkpt lat="43.43962" lon="5.86022">
        <ele>352.94</ele>
        <time>2019-03-10T13:14:52Z</time>
      </trkpt>
      <trkpt lat="43.43964" lon="5.86021">
        <ele>352.94</ele>
        <time>2019-03-10T13:15:32Z</time>
      </trkpt>
      <trkpt lat="43.43963" lon="5.86021">
        <ele>353.9</ele>
        <time>2019-03-10T13:15:47Z</time>
      </trkpt>
      <trkpt lat="43.43963" lon="5.8602">
        <ele>351.98</ele>
        <time>2019-03-10T13:15:54Z</time>
      </trkpt>
      <trkpt lat="43.43962" lon="5.86019">
        <ele>352.94</ele>
        <time>2019-03-10T13:16:29Z</time>
      </trkpt>
      <trkpt lat="43.43962" lon="5.8602">
        <ele>353.42</ele>
        <time>2019-03-10T13:16:48Z</time>
      </trkpt>
      <trkpt lat="43.43961" lon="5.86021">
        <ele>351.98</ele>
        <time>2019-03-10T13:17:06Z</time>
      </trkpt>
      <trkpt lat="43.43961" lon="5.86019">
        <ele>352.94</ele>
        <time>2019-03-10T13:17:44Z</time>
      </trkpt>
      <trkpt lat="43.43961" lon="5.86016">
        <ele>353.42</ele>
        <time>2019-03-10T13:18:18Z</time>
      </trkpt>
      <trkpt lat="43.43958" lon="5.86018">
        <ele>353.42</ele>
        <time>2019-03-10T13:18:47Z</time>
      </trkpt>
      <trkpt lat="43.43959" lon="5.86017">
        <ele>351.98</ele>
        <time>2019-03-10T13:19:07Z</time>
      </trkpt>
      <trkpt lat="43.43959" lon="5.86019">
        <ele>353.42</ele>
        <time>2019-03-10T13:19:44Z</time>
      </trkpt>
      <trkpt lat="43.43959" lon="5.86019">
        <ele>351.98</ele>
        <time>2019-03-10T13:20:08Z</time>
      </trkpt>
      <trkpt lat="43.4396" lon="5.86019">
        <ele>353.42</ele>
        <time>2019-03-10T13:20:29Z</time>
      </trkpt>
      <trkpt lat="43.43958" lon="5.86018">
        <ele>352.94</ele>
        <time>2019-03-10T13:20:58Z</time>
      </trkpt>
      <trkpt lat="43.43957" lon="5.86018">
        <ele>352.46</ele>
        <time>2019-03-10T13:21:37Z</time>
      </trkpt>
      <trkpt lat="43.43956" lon="5.86017">
        <ele>351.98</ele>
        <time>2019-03-10T13:22:14Z</time>
      </trkpt>
      <trkpt lat="43.43957" lon="5.86017">
        <ele>353.42</ele>
        <time>2019-03-10T13:22:43Z</time>
      </trkpt>
      <trkpt lat="43.43957" lon="5.86017">
        <ele>352.46</ele>
        <time>2019-03-10T13:22:47Z</time>
      </trkpt>
      <trkpt lat="43.43958" lon="5.86017">
        <ele>352.46</ele>
        <time>2019-03-10T13:23:10Z</time>
      </trkpt>
      <trkpt lat="43.43959" lon="5.86018">
        <ele>353.42</ele>
        <time>2019-03-10T13:23:24Z</time>
      </trkpt>
      <trkpt lat="43.4396" lon="5.86019">
        <ele>353.9</ele>
        <time>2019-03-10T13:23:43Z</time>
      </trkpt>
      <trkpt lat="43.4396" lon="5.86023">
        <ele>352.46</ele>
        <time>2019-03-10T13:23:53Z</time>
      </trkpt>
      <trkpt lat="43.4396" lon="5.86023">
        <ele>352.46</ele>
        <time>2019-03-10T13:23:56Z</time>
      </trkpt>
      <trkpt lat="43.43963" lon="5.86032">
        <ele>313.05</ele>
        <time>2019-03-11T06:08:33Z</time>
      </trkpt>
      <trkpt lat="43.43962" lon="5.86026">
        <ele>316.89</ele>
        <time>2019-03-11T06:08:55Z</time>
      </trkpt>
      <trkpt lat="43.43962" lon="5.86024">
        <ele>320.74</ele>
        <time>2019-03-11T06:08:58Z</time>
      </trkpt>
      <trkpt lat="43.43962" lon="5.86023">
        <ele>323.62</ele>
        <time>2019-03-11T06:09:01Z</time>
      </trkpt>
      <trkpt lat="43.43962" lon="5.86023">
        <ele>326.99</ele>
        <time>2019-03-11T06:09:04Z</time>
      </trkpt>
      <trkpt lat="43.43962" lon="5.86024">
        <ele>330.83</ele>
        <time>2019-03-11T06:09:08Z</time>
      </trkpt>
      <trkpt lat="43.43962" lon="5.86024">
        <ele>332.27</ele>
        <time>2019-03-11T06:09:10Z</time>
      </trkpt>
      <trkpt lat="43.43962" lon="5.86024">
        <ele>335.16</ele>
        <time>2019-03-11T06:09:14Z</time>
      </trkpt>
      <trkpt lat="43.43961" lon="5.86024">
        <ele>338.52</ele>
        <time>2019-03-11T06:09:19Z</time>
      </trkpt>
      <trkpt lat="43.43961" lon="5.86024">
        <ele>342.37</ele>
        <time>2019-03-11T06:09:25Z</time>
      </trkpt>
      <trkpt lat="43.43961" lon="5.86023">
        <ele>345.73</ele>
        <time>2019-03-11T06:09:32Z</time>
      </trkpt>
      <trkpt lat="43.43961" lon="5.86024">
        <ele>346.69</ele>
        <time>2019-03-11T06:09:35Z</time>
      </trkpt>
      <trkpt lat="43.43961" lon="5.86025">
        <ele>350.06</ele>
        <time>2019-03-11T06:09:45Z</time>
      </trkpt>
      <trkpt lat="43.43961" lon="5.86026">
        <ele>352.94</ele>
        <time>2019-03-11T06:10:03Z</time>
      </trkpt>
      <trkpt lat="43.43962" lon="5.86025">
        <ele>354.86</ele>
        <time>2019-03-11T06:10:39Z</time>
      </trkpt>
      <trkpt lat="43.43962" lon="5.86026">
        <ele>355.34</ele>
        <time>2019-03-11T06:11:16Z</time>
      </trkpt>
      <trkpt lat="43.43963" lon="5.86025">
        <ele>355.34</ele>
        <time>2019-03-11T06:11:45Z</time>
      </trkpt>
      <trkpt lat="43.43963" lon="5.86025">
        <ele>354.38</ele>
        <time>2019-03-11T06:12:19Z</time>
      </trkpt>
      <trkpt lat="43.43962" lon="5.86025">
        <ele>355.34</ele>
        <time>2019-03-11T06:12:46Z</time>
      </trkpt>
      <trkpt lat="43.43963" lon="5.86025">
        <ele>355.34</ele>
        <time>2019-03-11T06:13:10Z</time>
      </trkpt>
      <trkpt lat="43.43963" lon="5.86026">
        <ele>353.9</ele>
        <time>2019-03-11T06:13:35Z</time>
      </trkpt>
      <trkpt lat="43.43965" lon="5.86025">
        <ele>353.42</ele>
        <time>2019-03-11T06:14:03Z</time>
      </trkpt>
      <trkpt lat="43.43964" lon="5.86025">
        <ele>353.42</ele>
        <time>2019-03-11T06:14:36Z</time>
      </trkpt>
      <trkpt lat="43.43963" lon="5.86026">
        <ele>353.42</ele>
        <time>2019-03-11T06:15:10Z</time>
      </trkpt>
      <trkpt lat="43.43963" lon="5.86026">
        <ele>354.86</ele>
        <time>2019-03-11T06:15:14Z</time>
      </trkpt>
      <trkpt lat="43.43962" lon="5.86027">
        <ele>353.42</ele>
        <time>2019-03-11T06:15:33Z</time>
      </trkpt>
      <trkpt lat="43.47185" lon="5.94767">
        <ele>191.92</ele>
        <time>2019-03-19T13:10:33Z</time>
      </trkpt>
      <trkpt lat="43.47178" lon="5.94709">
        <ele>191.92</ele>
        <time>2019-03-19T13:10:47Z</time>
      </trkpt>
      <trkpt lat="43.47176" lon="5.94705">
        <ele>192.4</ele>
        <time>2019-03-19T13:10:54Z</time>
      </trkpt>
      <trkpt lat="43.4717" lon="5.94701">
        <ele>192.88</ele>
        <time>2019-03-19T13:11:03Z</time>
      </trkpt>
      <trkpt lat="43.47158" lon="5.94697">
        <ele>193.36</ele>
        <time>2019-03-19T13:11:17Z</time>
      </trkpt>
      <trkpt lat="43.47155" lon="5.94694">
        <ele>193.36</ele>
        <time>2019-03-19T13:11:21Z</time>
      </trkpt>
      <trkpt lat="43.47144" lon="5.94682">
        <ele>193.36</ele>
        <time>2019-03-19T13:11:35Z</time>
      </trkpt>
      <trkpt lat="43.47142" lon="5.94678">
        <ele>193.36</ele>
        <time>2019-03-19T13:11:38Z</time>
      </trkpt>
      <trkpt lat="43.47138" lon="5.94655">
        <ele>193.84</ele>
        <time>2019-03-19T13:11:53Z</time>
      </trkpt>
      <trkpt lat="43.47136" lon="5.94641">
        <ele>193.84</ele>
        <time>2019-03-19T13:12:05Z</time>
      </trkpt>
      <trkpt lat="43.47126" lon="5.94552">
        <ele>197.21</ele>
        <time>2019-03-19T13:12:12Z</time>
      </trkpt>
      <trkpt lat="43.47126" lon="5.94549">
        <ele>200.09</ele>
        <time>2019-03-19T13:12:13Z</time>
      </trkpt>
      <trkpt lat="43.47125" lon="5.94545">
        <ele>205.86</ele>
        <time>2019-03-19T13:12:15Z</time>
      </trkpt>
      <trkpt lat="43.47124" lon="5.94541">
        <ele>211.63</ele>
        <time>2019-03-19T13:12:17Z</time>
      </trkpt>
      <trkpt lat="43.47124" lon="5.94537">
        <ele>216.43</ele>
        <time>2019-03-19T13:12:19Z</time>
      </trkpt>
      <trkpt lat="43.47123" lon="5.94533">
        <ele>221.24</ele>
        <time>2019-03-19T13:12:21Z</time>
      </trkpt>
      <trkpt lat="43.47123" lon="5.94529">
        <ele>225.57</ele>
        <time>2019-03-19T13:12:23Z</time>
      </trkpt>
      <trkpt lat="43.47122" lon="5.94525">
        <ele>231.33</ele>
        <time>2019-03-19T13:12:25Z</time>
      </trkpt>
      <trkpt lat="43.47121" lon="5.94521">
        <ele>232.78</ele>
        <time>2019-03-19T13:12:27Z</time>
      </trkpt>
      <trkpt lat="43.47121" lon="5.94518">
        <ele>236.62</ele>
        <time>2019-03-19T13:12:29Z</time>
      </trkpt>
      <trkpt lat="43.4712" lon="5.94513">
        <ele>239.51</ele>
        <time>2019-03-19T13:12:31Z</time>
      </trkpt>
      <trkpt lat="43.47119" lon="5.94508">
        <ele>243.83</ele>
        <time>2019-03-19T13:12:34Z</time>
      </trkpt>
      <trkpt lat="43.47118" lon="5.94504">
        <ele>247.68</ele>
        <time>2019-03-19T13:12:37Z</time>
      </trkpt>
      <trkpt lat="43.47117" lon="5.94499">
        <ele>252</ele>
        <time>2019-03-19T13:12:40Z</time>
      </trkpt>
      <trkpt lat="43.47116" lon="5.94493">
        <ele>254.89</ele>
        <time>2019-03-19T13:12:43Z</time>
      </trkpt>
      <trkpt lat="43.47114" lon="5.94488">
        <ele>258.73</ele>
        <time>2019-03-19T13:12:47Z</time>
      </trkpt>
      <trkpt lat="43.47113" lon="5.94482">
        <ele>262.1</ele>
        <time>2019-03-19T13:12:51Z</time>
      </trkpt>
      <trkpt lat="43.47112" lon="5.94476">
        <ele>265.46</ele>
        <time>2019-03-19T13:12:55Z</time>
      </trkpt>
      <trkpt lat="43.4711" lon="5.94466">
        <ele>268.35</ele>
        <time>2019-03-19T13:13:01Z</time>
      </trkpt>
      <trkpt lat="43.47109" lon="5.94455">
        <ele>271.71</ele>
        <time>2019-03-19T13:13:08Z</time>
      </trkpt>
      <trkpt lat="43.47108" lon="5.94446">
        <ele>275.07</ele>
        <time>2019-03-19T13:13:15Z</time>
      </trkpt>
      <trkpt lat="43.47112" lon="5.94433">
        <ele>277.96</ele>
        <time>2019-03-19T13:13:27Z</time>
      </trkpt>
      <trkpt lat="43.47123" lon="5.94397">
        <ele>278.44</ele>
        <time>2019-03-19T13:13:44Z</time>
      </trkpt>
      <trkpt lat="43.47134" lon="5.94398">
        <ele>277.96</ele>
        <time>2019-03-19T13:13:57Z</time>
      </trkpt>
      <trkpt lat="43.47149" lon="5.94388">
        <ele>277.96</ele>
        <time>2019-03-19T13:14:11Z</time>
      </trkpt>
      <trkpt lat="43.47167" lon="5.94373">
        <ele>278.92</ele>
        <time>2019-03-19T13:14:28Z</time>
      </trkpt>
      <trkpt lat="43.47176" lon="5.9437">
        <ele>278.92</ele>
        <time>2019-03-19T13:14:41Z</time>
      </trkpt>
      <trkpt lat="43.47185" lon="5.94364">
        <ele>278.92</ele>
        <time>2019-03-19T13:14:52Z</time>
      </trkpt>
      <trkpt lat="43.47196" lon="5.94351">
        <ele>279.4</ele>
        <time>2019-03-19T13:15:07Z</time>
      </trkpt>
      <trkpt lat="43.4721" lon="5.94332">
        <ele>279.88</ele>
        <time>2019-03-19T13:15:24Z</time>
      </trkpt>
      <trkpt lat="43.47218" lon="5.94315">
        <ele>280.84</ele>
        <time>2019-03-19T13:15:40Z</time>
      </trkpt>
      <trkpt lat="43.47227" lon="5.94296">
        <ele>281.32</ele>
        <time>2019-03-19T13:15:55Z</time>
      </trkpt>
      <trkpt lat="43.47233" lon="5.94278">
        <ele>280.84</ele>
        <time>2019-03-19T13:16:10Z</time>
      </trkpt>
      <trkpt lat="43.47234" lon="5.94268">
        <ele>279.88</ele>
        <time>2019-03-19T13:16:18Z</time>
      </trkpt>
      <trkpt lat="43.47235" lon="5.9424">
        <ele>278.92</ele>
        <time>2019-03-19T13:16:36Z</time>
      </trkpt>
      <trkpt lat="43.47238" lon="5.94236">
        <ele>278.92</ele>
        <time>2019-03-19T13:16:51Z</time>
      </trkpt>
      <trkpt lat="43.4724" lon="5.94233">
        <ele>278.92</ele>
        <time>2019-03-19T13:17:12Z</time>
      </trkpt>
      <trkpt lat="43.4724" lon="5.94231">
        <ele>278.92</ele>
        <time>2019-03-19T13:17:16Z</time>
      </trkpt>
      <trkpt lat="43.47241" lon="5.94231">
        <ele>278.92</ele>
        <time>2019-03-19T13:17:26Z</time>
      </trkpt>
      <trkpt lat="43.47239" lon="5.94228">
        <ele>278.92</ele>
        <time>2019-03-19T13:17:42Z</time>
      </trkpt>
      <trkpt lat="43.47239" lon="5.94226">
        <ele>278.44</ele>
        <time>2019-03-19T13:18:11Z</time>
      </trkpt>
      <trkpt lat="43.47238" lon="5.94226">
        <ele>278.44</ele>
        <time>2019-03-19T13:18:55Z</time>
      </trkpt>
      <trkpt lat="43.47237" lon="5.94229">
        <ele>278.44</ele>
        <time>2019-03-19T13:19:21Z</time>
      </trkpt>
      <trkpt lat="43.47237" lon="5.94231">
        <ele>278.44</ele>
        <time>2019-03-19T13:19:39Z</time>
      </trkpt>
      <trkpt lat="43.47239" lon="5.94233">
        <ele>278.44</ele>
        <time>2019-03-19T13:20:14Z</time>
      </trkpt>
      <trkpt lat="43.4724" lon="5.94229">
        <ele>278.44</ele>
        <time>2019-03-19T13:20:37Z</time>
      </trkpt>
      <trkpt lat="43.47237" lon="5.94229">
        <ele>278.44</ele>
        <time>2019-03-19T13:21:00Z</time>
      </trkpt>
      <trkpt lat="43.47233" lon="5.94226">
        <ele>277.96</ele>
        <time>2019-03-19T13:21:12Z</time>
      </trkpt>
      <trkpt lat="43.47233" lon="5.94222">
        <ele>277.96</ele>
        <time>2019-03-19T13:21:28Z</time>
      </trkpt>
      <trkpt lat="43.47233" lon="5.94223">
        <ele>277.96</ele>
        <time>2019-03-19T13:21:49Z</time>
      </trkpt>
      <trkpt lat="43.47233" lon="5.9422">
        <ele>277.96</ele>
        <time>2019-03-19T13:22:12Z</time>
      </trkpt>
      <trkpt lat="43.47233" lon="5.94212">
        <ele>279.4</ele>
        <time>2019-03-19T13:22:25Z</time>
      </trkpt>
      <trkpt lat="43.47233" lon="5.94211">
        <ele>279.4</ele>
        <time>2019-03-19T13:22:26Z</time>
      </trkpt>
      <trkpt lat="43.47235" lon="5.94204">
        <ele>280.36</ele>
        <time>2019-03-19T13:22:40Z</time>
      </trkpt>
      <trkpt lat="43.47236" lon="5.94194">
        <ele>282.77</ele>
        <time>2019-03-19T13:22:58Z</time>
      </trkpt>
      <trkpt lat="43.47239" lon="5.94183">
        <ele>284.21</ele>
        <time>2019-03-19T13:23:13Z</time>
      </trkpt>
      <trkpt lat="43.4724" lon="5.94173">
        <ele>286.61</ele>
        <time>2019-03-19T13:23:29Z</time>
      </trkpt>
      <trkpt lat="43.47239" lon="5.94162">
        <ele>288.05</ele>
        <time>2019-03-19T13:23:42Z</time>
      </trkpt>
      <trkpt lat="43.47239" lon="5.94155">
        <ele>288.53</ele>
        <time>2019-03-19T13:23:53Z</time>
      </trkpt>
      <trkpt lat="43.47237" lon="5.9414">
        <ele>290.94</ele>
        <time>2019-03-19T13:24:07Z</time>
      </trkpt>
      <trkpt lat="43.47234" lon="5.94126">
        <ele>292.38</ele>
        <time>2019-03-19T13:24:21Z</time>
      </trkpt>
      <trkpt lat="43.47231" lon="5.94119">
        <ele>294.78</ele>
        <time>2019-03-19T13:24:35Z</time>
      </trkpt>
      <trkpt lat="43.47228" lon="5.94126">
        <ele>295.74</ele>
        <time>2019-03-19T13:24:50Z</time>
      </trkpt>
      <trkpt lat="43.47219" lon="5.94136">
        <ele>297.67</ele>
        <time>2019-03-19T13:25:06Z</time>
      </trkpt>
      <trkpt lat="43.47211" lon="5.94141">
        <ele>298.63</ele>
        <time>2019-03-19T13:25:19Z</time>
      </trkpt>
      <trkpt lat="43.47208" lon="5.94143">
        <ele>299.11</ele>
        <time>2019-03-19T13:25:53Z</time>
      </trkpt>
      <trkpt lat="43.472" lon="5.9414">
        <ele>300.55</ele>
        <time>2019-03-19T13:26:04Z</time>
      </trkpt>
      <trkpt lat="43.47193" lon="5.94132">
        <ele>302.95</ele>
        <time>2019-03-19T13:26:18Z</time>
      </trkpt>
      <trkpt lat="43.47186" lon="5.94123">
        <ele>304.39</ele>
        <time>2019-03-19T13:26:32Z</time>
      </trkpt>
      <trkpt lat="43.47181" lon="5.94117">
        <ele>305.36</ele>
        <time>2019-03-19T13:26:50Z</time>
      </trkpt>
      <trkpt lat="43.47173" lon="5.94108">
        <ele>307.76</ele>
        <time>2019-03-19T13:27:05Z</time>
      </trkpt>
      <trkpt lat="43.47165" lon="5.94099">
        <ele>308.72</ele>
        <time>2019-03-19T13:27:17Z</time>
      </trkpt>
      <trkpt lat="43.47156" lon="5.94091">
        <ele>309.68</ele>
        <time>2019-03-19T13:27:30Z</time>
      </trkpt>
      <trkpt lat="43.47144" lon="5.94078">
        <ele>311.6</ele>
        <time>2019-03-19T13:27:46Z</time>
      </trkpt>
      <trkpt lat="43.47133" lon="5.94068">
        <ele>313.53</ele>
        <time>2019-03-19T13:28:02Z</time>
      </trkpt>
      <trkpt lat="43.47123" lon="5.94058">
        <ele>315.93</ele>
        <time>2019-03-19T13:28:18Z</time>
      </trkpt>
      <trkpt lat="43.47121" lon="5.94057">
        <ele>316.41</ele>
        <time>2019-03-19T13:28:36Z</time>
      </trkpt>
      <trkpt lat="43.4712" lon="5.94057">
        <ele>316.41</ele>
        <time>2019-03-19T13:29:11Z</time>
      </trkpt>
      <trkpt lat="43.47117" lon="5.94051">
        <ele>317.37</ele>
        <time>2019-03-19T13:29:31Z</time>
      </trkpt>
      <trkpt lat="43.47109" lon="5.94044">
        <ele>318.33</ele>
        <time>2019-03-19T13:29:44Z</time>
      </trkpt>
      <trkpt lat="43.47105" lon="5.9404">
        <ele>318.81</ele>
        <time>2019-03-19T13:29:59Z</time>
      </trkpt>
      <trkpt lat="43.47099" lon="5.94035">
        <ele>319.78</ele>
        <time>2019-03-19T13:30:12Z</time>
      </trkpt>
      <trkpt lat="43.47097" lon="5.94034">
        <ele>320.26</ele>
        <time>2019-03-19T13:30:16Z</time>
      </trkpt>
      <trkpt lat="43.47093" lon="5.9403">
        <ele>321.22</ele>
        <time>2019-03-19T13:30:21Z</time>
      </trkpt>
      <trkpt lat="43.47087" lon="5.94026">
        <ele>322.18</ele>
        <time>2019-03-19T13:30:34Z</time>
      </trkpt>
      <trkpt lat="43.47078" lon="5.94016">
        <ele>323.62</ele>
        <time>2019-03-19T13:30:50Z</time>
      </trkpt>
      <trkpt lat="43.47071" lon="5.9401">
        <ele>324.58</ele>
        <time>2019-03-19T13:31:04Z</time>
      </trkpt>
      <trkpt lat="43.47062" lon="5.94003">
        <ele>326.02</ele>
        <time>2019-03-19T13:31:18Z</time>
      </trkpt>
      <trkpt lat="43.47049" lon="5.9399">
        <ele>326.99</ele>
        <time>2019-03-19T13:31:34Z</time>
      </trkpt>
      <trkpt lat="43.4704" lon="5.93982">
        <ele>328.91</ele>
        <time>2019-03-19T13:31:48Z</time>
      </trkpt>
      <trkpt lat="43.47034" lon="5.93974">
        <ele>330.35</ele>
        <time>2019-03-19T13:32:00Z</time>
      </trkpt>
      <trkpt lat="43.47029" lon="5.93966">
        <ele>332.27</ele>
        <time>2019-03-19T13:32:13Z</time>
      </trkpt>
      <trkpt lat="43.47023" lon="5.93955">
        <ele>333.71</ele>
        <time>2019-03-19T13:32:29Z</time>
      </trkpt>
      <trkpt lat="43.4702" lon="5.93945">
        <ele>335.64</ele>
        <time>2019-03-19T13:32:44Z</time>
      </trkpt>
      <trkpt lat="43.47016" lon="5.93934">
        <ele>337.56</ele>
        <time>2019-03-19T13:32:59Z</time>
      </trkpt>
      <trkpt lat="43.47011" lon="5.93925">
        <ele>339.48</ele>
        <time>2019-03-19T13:33:14Z</time>
      </trkpt>
      <trkpt lat="43.47006" lon="5.9392">
        <ele>339.48</ele>
        <time>2019-03-19T13:33:35Z</time>
      </trkpt>
      <trkpt lat="43.47007" lon="5.93914">
        <ele>339</ele>
        <time>2019-03-19T13:34:11Z</time>
      </trkpt>
      <trkpt lat="43.47006" lon="5.93917">
        <ele>339.48</ele>
        <time>2019-03-19T13:34:48Z</time>
      </trkpt>
      <trkpt lat="43.47006" lon="5.93917">
        <ele>339.48</ele>
        <time>2019-03-19T13:35:19Z</time>
      </trkpt>
      <trkpt lat="43.47006" lon="5.93916">
        <ele>339.48</ele>
        <time>2019-03-19T13:35:52Z</time>
      </trkpt>
      <trkpt lat="43.47008" lon="5.93908">
        <ele>341.41</ele>
        <time>2019-03-19T13:36:08Z</time>
      </trkpt>
      <trkpt lat="43.47007" lon="5.93901">
        <ele>343.33</ele>
        <time>2019-03-19T13:36:22Z</time>
      </trkpt>
      <trkpt lat="43.47002" lon="5.93892">
        <ele>344.77</ele>
        <time>2019-03-19T13:36:37Z</time>
      </trkpt>
      <trkpt lat="43.46997" lon="5.93887">
        <ele>346.21</ele>
        <time>2019-03-19T13:36:52Z</time>
      </trkpt>
      <trkpt lat="43.46992" lon="5.93877">
        <ele>348.13</ele>
        <time>2019-03-19T13:37:07Z</time>
      </trkpt>
      <trkpt lat="43.46987" lon="5.93868">
        <ele>349.1</ele>
        <time>2019-03-19T13:37:22Z</time>
      </trkpt>
      <trkpt lat="43.46983" lon="5.93858">
        <ele>350.54</ele>
        <time>2019-03-19T13:37:38Z</time>
      </trkpt>
      <trkpt lat="43.4698" lon="5.93853">
        <ele>351.02</ele>
        <time>2019-03-19T13:37:53Z</time>
      </trkpt>
      <trkpt lat="43.46978" lon="5.93847">
        <ele>351.5</ele>
        <time>2019-03-19T13:38:14Z</time>
      </trkpt>
      <trkpt lat="43.46979" lon="5.93845">
        <ele>351.5</ele>
        <time>2019-03-19T13:38:35Z</time>
      </trkpt>
      <trkpt lat="43.46976" lon="5.93836">
        <ele>351.98</ele>
        <time>2019-03-19T13:39:02Z</time>
      </trkpt>
      <trkpt lat="43.46975" lon="5.93829">
        <ele>351.98</ele>
        <time>2019-03-19T13:39:08Z</time>
      </trkpt>
      <trkpt lat="43.46975" lon="5.93823">
        <ele>351.98</ele>
        <time>2019-03-19T13:39:13Z</time>
      </trkpt>
      <trkpt lat="43.46975" lon="5.93808">
        <ele>352.46</ele>
        <time>2019-03-19T13:39:26Z</time>
      </trkpt>
      <trkpt lat="43.46976" lon="5.93796">
        <ele>351.98</ele>
        <time>2019-03-19T13:39:38Z</time>
      </trkpt>
      <trkpt lat="43.46976" lon="5.93793">
        <ele>351.02</ele>
        <time>2019-03-19T13:39:42Z</time>
      </trkpt>
      <trkpt lat="43.46977" lon="5.9378">
        <ele>349.58</ele>
        <time>2019-03-19T13:39:55Z</time>
      </trkpt>
      <trkpt lat="43.4698" lon="5.93764">
        <ele>349.58</ele>
        <time>2019-03-19T13:40:11Z</time>
      </trkpt>
      <trkpt lat="43.46982" lon="5.93747">
        <ele>348.62</ele>
        <time>2019-03-19T13:40:25Z</time>
      </trkpt>
      <trkpt lat="43.46985" lon="5.93733">
        <ele>348.62</ele>
        <time>2019-03-19T13:40:38Z</time>
      </trkpt>
      <trkpt lat="43.46985" lon="5.9372">
        <ele>350.06</ele>
        <time>2019-03-19T13:40:50Z</time>
      </trkpt>
      <trkpt lat="43.46985" lon="5.93713">
        <ele>351.02</ele>
        <time>2019-03-19T13:41:07Z</time>
      </trkpt>
      <trkpt lat="43.46983" lon="5.93706">
        <ele>351.5</ele>
        <time>2019-03-19T13:41:30Z</time>
      </trkpt>
      <trkpt lat="43.46988" lon="5.93693">
        <ele>353.42</ele>
        <time>2019-03-19T13:41:47Z</time>
      </trkpt>
      <trkpt lat="43.46992" lon="5.93682">
        <ele>354.38</ele>
        <time>2019-03-19T13:42:00Z</time>
      </trkpt>
      <trkpt lat="43.46995" lon="5.93672">
        <ele>354.86</ele>
        <time>2019-03-19T13:42:11Z</time>
      </trkpt>
      <trkpt lat="43.47" lon="5.93659">
        <ele>356.31</ele>
        <time>2019-03-19T13:42:24Z</time>
      </trkpt>
      <trkpt lat="43.47003" lon="5.93643">
        <ele>357.27</ele>
        <time>2019-03-19T13:42:39Z</time>
      </trkpt>
      <trkpt lat="43.47006" lon="5.93623">
        <ele>358.23</ele>
        <time>2019-03-19T13:42:53Z</time>
      </trkpt>
      <trkpt lat="43.47007" lon="5.93596">
        <ele>358.71</ele>
        <time>2019-03-19T13:43:10Z</time>
      </trkpt>
      <trkpt lat="43.47009" lon="5.93585">
        <ele>359.19</ele>
        <time>2019-03-19T13:43:16Z</time>
      </trkpt>
      <trkpt lat="43.47002" lon="5.93564">
        <ele>357.75</ele>
        <time>2019-03-19T13:43:35Z</time>
      </trkpt>
      <trkpt lat="43.46992" lon="5.93545">
        <ele>356.31</ele>
        <time>2019-03-19T13:43:52Z</time>
      </trkpt>
      <trkpt lat="43.46987" lon="5.93527">
        <ele>355.34</ele>
        <time>2019-03-19T13:44:07Z</time>
      </trkpt>
      <trkpt lat="43.46985" lon="5.93518">
        <ele>355.34</ele>
        <time>2019-03-19T13:44:14Z</time>
      </trkpt>
      <trkpt lat="43.46983" lon="5.93494">
        <ele>354.86</ele>
        <time>2019-03-19T13:44:29Z</time>
      </trkpt>
      <trkpt lat="43.46983" lon="5.93488">
        <ele>354.38</ele>
        <time>2019-03-19T13:44:42Z</time>
      </trkpt>
      <trkpt lat="43.4698" lon="5.93471">
        <ele>354.38</ele>
        <time>2019-03-19T13:44:54Z</time>
      </trkpt>
      <trkpt lat="43.4698" lon="5.93467">
        <ele>354.38</ele>
        <time>2019-03-19T13:44:57Z</time>
      </trkpt>
      <trkpt lat="43.46977" lon="5.93448">
        <ele>354.38</ele>
        <time>2019-03-19T13:45:12Z</time>
      </trkpt>
      <trkpt lat="43.46974" lon="5.9343">
        <ele>353.9</ele>
        <time>2019-03-19T13:45:29Z</time>
      </trkpt>
      <trkpt lat="43.46969" lon="5.93411">
        <ele>352.46</ele>
        <time>2019-03-19T13:45:44Z</time>
      </trkpt>
      <trkpt lat="43.46959" lon="5.93396">
        <ele>351.5</ele>
        <time>2019-03-19T13:46:01Z</time>
      </trkpt>
      <trkpt lat="43.46945" lon="5.93389">
        <ele>351.5</ele>
        <time>2019-03-19T13:46:16Z</time>
      </trkpt>
      <trkpt lat="43.46928" lon="5.93383">
        <ele>351.5</ele>
        <time>2019-03-19T13:46:34Z</time>
      </trkpt>
      <trkpt lat="43.46914" lon="5.93376">
        <ele>351.5</ele>
        <time>2019-03-19T13:46:50Z</time>
      </trkpt>
      <trkpt lat="43.46908" lon="5.93374">
        <ele>352.46</ele>
        <time>2019-03-19T13:46:57Z</time>
      </trkpt>
      <trkpt lat="43.46897" lon="5.93367">
        <ele>353.42</ele>
        <time>2019-03-19T13:47:11Z</time>
      </trkpt>
      <trkpt lat="43.46888" lon="5.93352">
        <ele>353.9</ele>
        <time>2019-03-19T13:47:26Z</time>
      </trkpt>
      <trkpt lat="43.46881" lon="5.93338">
        <ele>354.86</ele>
        <time>2019-03-19T13:47:40Z</time>
      </trkpt>
      <trkpt lat="43.46875" lon="5.93321">
        <ele>354.86</ele>
        <time>2019-03-19T13:47:57Z</time>
      </trkpt>
      <trkpt lat="43.46868" lon="5.93302">
        <ele>355.34</ele>
        <time>2019-03-19T13:48:12Z</time>
      </trkpt>
      <trkpt lat="43.46864" lon="5.93293">
        <ele>353.9</ele>
        <time>2019-03-19T13:48:19Z</time>
      </trkpt>
      <trkpt lat="43.46858" lon="5.93269">
        <ele>353.42</ele>
        <time>2019-03-19T13:48:37Z</time>
      </trkpt>
      <trkpt lat="43.46856" lon="5.9325">
        <ele>353.42</ele>
        <time>2019-03-19T13:48:49Z</time>
      </trkpt>
      <trkpt lat="43.4686" lon="5.93227">
        <ele>352.94</ele>
        <time>2019-03-19T13:49:06Z</time>
      </trkpt>
      <trkpt lat="43.46863" lon="5.93203">
        <ele>351.98</ele>
        <time>2019-03-19T13:49:23Z</time>
      </trkpt>
      <trkpt lat="43.46864" lon="5.93181">
        <ele>351.02</ele>
        <time>2019-03-19T13:49:38Z</time>
      </trkpt>
      <trkpt lat="43.46863" lon="5.93161">
        <ele>350.06</ele>
        <time>2019-03-19T13:49:54Z</time>
      </trkpt>
      <trkpt lat="43.4686" lon="5.93142">
        <ele>349.58</ele>
        <time>2019-03-19T13:50:10Z</time>
      </trkpt>
      <trkpt lat="43.46858" lon="5.93124">
        <ele>348.62</ele>
        <time>2019-03-19T13:50:25Z</time>
      </trkpt>
      <trkpt lat="43.46855" lon="5.93101">
        <ele>348.13</ele>
        <time>2019-03-19T13:50:42Z</time>
      </trkpt>
      <trkpt lat="43.46851" lon="5.9308">
        <ele>346.69</ele>
        <time>2019-03-19T13:50:58Z</time>
      </trkpt>
      <trkpt lat="43.4685" lon="5.93079">
        <ele>346.69</ele>
        <time>2019-03-19T13:50:59Z</time>
      </trkpt>
      <trkpt lat="43.46847" lon="5.93057">
        <ele>346.21</ele>
        <time>2019-03-19T13:51:17Z</time>
      </trkpt>
      <trkpt lat="43.46841" lon="5.9304">
        <ele>344.77</ele>
        <time>2019-03-19T13:51:34Z</time>
      </trkpt>
      <trkpt lat="43.46835" lon="5.93024">
        <ele>344.29</ele>
        <time>2019-03-19T13:51:48Z</time>
      </trkpt>
      <trkpt lat="43.46831" lon="5.93007">
        <ele>342.85</ele>
        <time>2019-03-19T13:52:02Z</time>
      </trkpt>
      <trkpt lat="43.46829" lon="5.92989">
        <ele>341.89</ele>
        <time>2019-03-19T13:52:17Z</time>
      </trkpt>
      <trkpt lat="43.46826" lon="5.9297">
        <ele>341.41</ele>
        <time>2019-03-19T13:52:31Z</time>
      </trkpt>
      <trkpt lat="43.46825" lon="5.9295">
        <ele>340.44</ele>
        <time>2019-03-19T13:52:47Z</time>
      </trkpt>
      <trkpt lat="43.46823" lon="5.9293">
        <ele>339.48</ele>
        <time>2019-03-19T13:53:02Z</time>
      </trkpt>
      <trkpt lat="43.46821" lon="5.92908">
        <ele>339.96</ele>
        <time>2019-03-19T13:53:19Z</time>
      </trkpt>
      <trkpt lat="43.46821" lon="5.92895">
        <ele>341.41</ele>
        <time>2019-03-19T13:53:31Z</time>
      </trkpt>
      <trkpt lat="43.46819" lon="5.92885">
        <ele>342.37</ele>
        <time>2019-03-19T13:53:47Z</time>
      </trkpt>
      <trkpt lat="43.4682" lon="5.92882">
        <ele>340.92</ele>
        <time>2019-03-19T13:54:07Z</time>
      </trkpt>
      <trkpt lat="43.4682" lon="5.92881">
        <ele>340.92</ele>
        <time>2019-03-19T13:54:08Z</time>
      </trkpt>
      <trkpt lat="43.46819" lon="5.92876">
        <ele>340.92</ele>
        <time>2019-03-19T13:54:48Z</time>
      </trkpt>
      <trkpt lat="43.46819" lon="5.92879">
        <ele>341.89</ele>
        <time>2019-03-19T13:55:09Z</time>
      </trkpt>
      <trkpt lat="43.46818" lon="5.92862">
        <ele>341.89</ele>
        <time>2019-03-19T13:55:25Z</time>
      </trkpt>
      <trkpt lat="43.46818" lon="5.92849">
        <ele>342.37</ele>
        <time>2019-03-19T13:55:37Z</time>
      </trkpt>
      <trkpt lat="43.46818" lon="5.92827">
        <ele>342.37</ele>
        <time>2019-03-19T13:55:55Z</time>
      </trkpt>
      <trkpt lat="43.46817" lon="5.92809">
        <ele>342.37</ele>
        <time>2019-03-19T13:56:11Z</time>
      </trkpt>
      <trkpt lat="43.46817" lon="5.92791">
        <ele>342.85</ele>
        <time>2019-03-19T13:56:25Z</time>
      </trkpt>
      <trkpt lat="43.46817" lon="5.92774">
        <ele>342.85</ele>
        <time>2019-03-19T13:56:39Z</time>
      </trkpt>
      <trkpt lat="43.46817" lon="5.92755">
        <ele>342.85</ele>
        <time>2019-03-19T13:56:54Z</time>
      </trkpt>
      <trkpt lat="43.46818" lon="5.92734">
        <ele>343.81</ele>
        <time>2019-03-19T13:57:10Z</time>
      </trkpt>
      <trkpt lat="43.46817" lon="5.92719">
        <ele>344.29</ele>
        <time>2019-03-19T13:57:22Z</time>
      </trkpt>
      <trkpt lat="43.46815" lon="5.92704">
        <ele>344.77</ele>
        <time>2019-03-19T13:57:36Z</time>
      </trkpt>
      <trkpt lat="43.46803" lon="5.92702">
        <ele>345.73</ele>
        <time>2019-03-19T13:57:51Z</time>
      </trkpt>
      <trkpt lat="43.46791" lon="5.92701">
        <ele>346.69</ele>
        <time>2019-03-19T13:58:06Z</time>
      </trkpt>
      <trkpt lat="43.46783" lon="5.92702">
        <ele>346.69</ele>
        <time>2019-03-19T13:58:15Z</time>
      </trkpt>
      <trkpt lat="43.46767" lon="5.92703">
        <ele>346.69</ele>
        <time>2019-03-19T13:58:30Z</time>
      </trkpt>
      <trkpt lat="43.46765" lon="5.92704">
        <ele>346.69</ele>
        <time>2019-03-19T13:58:58Z</time>
      </trkpt>
      <trkpt lat="43.46766" lon="5.92702">
        <ele>346.69</ele>
        <time>2019-03-19T13:59:15Z</time>
      </trkpt>
      <trkpt lat="43.46777" lon="5.92698">
        <ele>346.69</ele>
        <time>2019-03-19T13:59:29Z</time>
      </trkpt>
      <trkpt lat="43.46793" lon="5.92696">
        <ele>346.69</ele>
        <time>2019-03-19T13:59:45Z</time>
      </trkpt>
      <trkpt lat="43.46803" lon="5.92697">
        <ele>345.73</ele>
        <time>2019-03-19T13:59:55Z</time>
      </trkpt>
      <trkpt lat="43.46815" lon="5.92702">
        <ele>344.29</ele>
        <time>2019-03-19T14:00:10Z</time>
      </trkpt>
      <trkpt lat="43.46817" lon="5.92709">
        <ele>344.29</ele>
        <time>2019-03-19T14:00:26Z</time>
      </trkpt>
      <trkpt lat="43.46817" lon="5.92717">
        <ele>344.29</ele>
        <time>2019-03-19T14:00:45Z</time>
      </trkpt>
      <trkpt lat="43.46818" lon="5.92725">
        <ele>344.29</ele>
        <time>2019-03-19T14:00:53Z</time>
      </trkpt>
      <trkpt lat="43.46818" lon="5.92745">
        <ele>343.33</ele>
        <time>2019-03-19T14:01:08Z</time>
      </trkpt>
      <trkpt lat="43.46818" lon="5.92765">
        <ele>342.85</ele>
        <time>2019-03-19T14:01:23Z</time>
      </trkpt>
      <trkpt lat="43.46819" lon="5.92791">
        <ele>343.33</ele>
        <time>2019-03-19T14:01:40Z</time>
      </trkpt>
      <trkpt lat="43.46819" lon="5.92814">
        <ele>342.37</ele>
        <time>2019-03-19T14:01:55Z</time>
      </trkpt>
      <trkpt lat="43.46819" lon="5.92835">
        <ele>341.89</ele>
        <time>2019-03-19T14:02:10Z</time>
      </trkpt>
      <trkpt lat="43.4682" lon="5.9286">
        <ele>341.41</ele>
        <time>2019-03-19T14:02:28Z</time>
      </trkpt>
      <trkpt lat="43.4682" lon="5.92865">
        <ele>341.41</ele>
        <time>2019-03-19T14:02:32Z</time>
      </trkpt>
      <trkpt lat="43.4682" lon="5.92887">
        <ele>339.96</ele>
        <time>2019-03-19T14:02:48Z</time>
      </trkpt>
      <trkpt lat="43.46821" lon="5.92896">
        <ele>339.48</ele>
        <time>2019-03-19T14:02:55Z</time>
      </trkpt>
      <trkpt lat="43.46823" lon="5.92923">
        <ele>339.48</ele>
        <time>2019-03-19T14:03:14Z</time>
      </trkpt>
      <trkpt lat="43.46827" lon="5.92927">
        <ele>338.04</ele>
        <time>2019-03-19T14:03:28Z</time>
      </trkpt>
      <trkpt lat="43.46835" lon="5.92929">
        <ele>336.6</ele>
        <time>2019-03-19T14:03:45Z</time>
      </trkpt>
      <trkpt lat="43.46842" lon="5.92932">
        <ele>336.12</ele>
        <time>2019-03-19T14:04:00Z</time>
      </trkpt>
      <trkpt lat="43.46856" lon="5.92933">
        <ele>334.2</ele>
        <time>2019-03-19T14:04:18Z</time>
      </trkpt>
      <trkpt lat="43.46866" lon="5.92936">
        <ele>332.75</ele>
        <time>2019-03-19T14:04:33Z</time>
      </trkpt>
      <trkpt lat="43.46872" lon="5.92935">
        <ele>331.31</ele>
        <time>2019-03-19T14:04:47Z</time>
      </trkpt>
      <trkpt lat="43.46881" lon="5.92938">
        <ele>330.35</ele>
        <time>2019-03-19T14:05:01Z</time>
      </trkpt>
      <trkpt lat="43.46892" lon="5.9294">
        <ele>328.43</ele>
        <time>2019-03-19T14:05:15Z</time>
      </trkpt>
      <trkpt lat="43.46903" lon="5.92932">
        <ele>327.95</ele>
        <time>2019-03-19T14:05:28Z</time>
      </trkpt>
      <trkpt lat="43.46905" lon="5.9293">
        <ele>327.95</ele>
        <time>2019-03-19T14:05:30Z</time>
      </trkpt>
      <trkpt lat="43.46915" lon="5.92919">
        <ele>327.95</ele>
        <time>2019-03-19T14:05:46Z</time>
      </trkpt>
      <trkpt lat="43.46922" lon="5.92909">
        <ele>327.47</ele>
        <time>2019-03-19T14:05:59Z</time>
      </trkpt>
      <trkpt lat="43.46927" lon="5.92899">
        <ele>326.02</ele>
        <time>2019-03-19T14:06:11Z</time>
      </trkpt>
      <trkpt lat="43.46933" lon="5.92885">
        <ele>326.02</ele>
        <time>2019-03-19T14:06:25Z</time>
      </trkpt>
      <trkpt lat="43.46938" lon="5.92871">
        <ele>326.02</ele>
        <time>2019-03-19T14:06:39Z</time>
      </trkpt>
      <trkpt lat="43.46947" lon="5.92858">
        <ele>325.06</ele>
        <time>2019-03-19T14:06:53Z</time>
      </trkpt>
      <trkpt lat="43.46954" lon="5.9284">
        <ele>325.06</ele>
        <time>2019-03-19T14:07:08Z</time>
      </trkpt>
      <trkpt lat="43.46961" lon="5.92828">
        <ele>325.06</ele>
        <time>2019-03-19T14:07:21Z</time>
      </trkpt>
      <trkpt lat="43.46971" lon="5.92819">
        <ele>324.58</ele>
        <time>2019-03-19T14:07:35Z</time>
      </trkpt>
      <trkpt lat="43.46977" lon="5.92818">
        <ele>323.62</ele>
        <time>2019-03-19T14:07:41Z</time>
      </trkpt>
      <trkpt lat="43.46991" lon="5.92817">
        <ele>323.14</ele>
        <time>2019-03-19T14:07:56Z</time>
      </trkpt>
      <trkpt lat="43.46994" lon="5.92817">
        <ele>322.66</ele>
        <time>2019-03-19T14:07:59Z</time>
      </trkpt>
      <trkpt lat="43.46996" lon="5.92819">
        <ele>322.66</ele>
        <time>2019-03-19T14:08:01Z</time>
      </trkpt>
      <trkpt lat="43.47008" lon="5.92828">
        <ele>322.18</ele>
        <time>2019-03-19T14:08:16Z</time>
      </trkpt>
      <trkpt lat="43.47012" lon="5.92833">
        <ele>321.7</ele>
        <time>2019-03-19T14:08:22Z</time>
      </trkpt>
      <trkpt lat="43.47014" lon="5.92835">
        <ele>321.22</ele>
        <time>2019-03-19T14:08:38Z</time>
      </trkpt>
      <trkpt lat="43.47016" lon="5.92841">
        <ele>321.22</ele>
        <time>2019-03-19T14:09:01Z</time>
      </trkpt>
      <trkpt lat="43.47024" lon="5.92857">
        <ele>321.22</ele>
        <time>2019-03-19T14:09:17Z</time>
      </trkpt>
      <trkpt lat="43.47032" lon="5.92872">
        <ele>321.22</ele>
        <time>2019-03-19T14:09:31Z</time>
      </trkpt>
      <trkpt lat="43.47038" lon="5.92884">
        <ele>320.74</ele>
        <time>2019-03-19T14:09:43Z</time>
      </trkpt>
      <trkpt lat="43.47044" lon="5.92896">
        <ele>320.74</ele>
        <time>2019-03-19T14:09:55Z</time>
      </trkpt>
      <trkpt lat="43.4705" lon="5.92908">
        <ele>320.26</ele>
        <time>2019-03-19T14:10:09Z</time>
      </trkpt>
      <trkpt lat="43.4705" lon="5.9291">
        <ele>319.78</ele>
        <time>2019-03-19T14:10:44Z</time>
      </trkpt>
      <trkpt lat="43.47051" lon="5.92912">
        <ele>319.78</ele>
        <time>2019-03-19T14:11:00Z</time>
      </trkpt>
      <trkpt lat="43.47051" lon="5.92912">
        <ele>319.78</ele>
        <time>2019-03-19T14:11:26Z</time>
      </trkpt>
      <trkpt lat="43.4705" lon="5.92912">
        <ele>319.78</ele>
        <time>2019-03-19T14:12:02Z</time>
      </trkpt>
      <trkpt lat="43.47054" lon="5.92916">
        <ele>318.81</ele>
        <time>2019-03-19T14:12:23Z</time>
      </trkpt>
      <trkpt lat="43.4706" lon="5.92927">
        <ele>318.33</ele>
        <time>2019-03-19T14:12:36Z</time>
      </trkpt>
      <trkpt lat="43.47066" lon="5.92938">
        <ele>318.33</ele>
        <time>2019-03-19T14:12:49Z</time>
      </trkpt>
      <trkpt lat="43.47073" lon="5.92951">
        <ele>318.33</ele>
        <time>2019-03-19T14:13:03Z</time>
      </trkpt>
      <trkpt lat="43.4708" lon="5.92964">
        <ele>319.3</ele>
        <time>2019-03-19T14:13:16Z</time>
      </trkpt>
      <trkpt lat="43.47086" lon="5.92976">
        <ele>319.3</ele>
        <time>2019-03-19T14:13:29Z</time>
      </trkpt>
      <trkpt lat="43.47088" lon="5.92978">
        <ele>319.3</ele>
        <time>2019-03-19T14:13:33Z</time>
      </trkpt>
      <trkpt lat="43.47094" lon="5.92991">
        <ele>319.3</ele>
        <time>2019-03-19T14:13:47Z</time>
      </trkpt>
      <trkpt lat="43.47103" lon="5.92997">
        <ele>319.3</ele>
        <time>2019-03-19T14:14:00Z</time>
      </trkpt>
      <trkpt lat="43.47111" lon="5.93005">
        <ele>320.26</ele>
        <time>2019-03-19T14:14:15Z</time>
      </trkpt>
      <trkpt lat="43.47113" lon="5.93016">
        <ele>320.74</ele>
        <time>2019-03-19T14:14:27Z</time>
      </trkpt>
      <trkpt lat="43.47112" lon="5.93035">
        <ele>320.74</ele>
        <time>2019-03-19T14:14:42Z</time>
      </trkpt>
      <trkpt lat="43.47112" lon="5.93048">
        <ele>321.22</ele>
        <time>2019-03-19T14:14:55Z</time>
      </trkpt>
      <trkpt lat="43.47111" lon="5.93064">
        <ele>320.74</ele>
        <time>2019-03-19T14:15:10Z</time>
      </trkpt>
      <trkpt lat="43.47111" lon="5.93081">
        <ele>321.22</ele>
        <time>2019-03-19T14:15:24Z</time>
      </trkpt>
      <trkpt lat="43.47114" lon="5.93095">
        <ele>321.22</ele>
        <time>2019-03-19T14:15:36Z</time>
      </trkpt>
      <trkpt lat="43.47122" lon="5.93105">
        <ele>321.22</ele>
        <time>2019-03-19T14:15:51Z</time>
      </trkpt>
      <trkpt lat="43.47131" lon="5.9311">
        <ele>321.22</ele>
        <time>2019-03-19T14:16:04Z</time>
      </trkpt>
      <trkpt lat="43.47142" lon="5.93118">
        <ele>319.78</ele>
        <time>2019-03-19T14:16:18Z</time>
      </trkpt>
      <trkpt lat="43.4715" lon="5.93124">
        <ele>319.78</ele>
        <time>2019-03-19T14:16:27Z</time>
      </trkpt>
      <trkpt lat="43.4716" lon="5.93131">
        <ele>319.78</ele>
        <time>2019-03-19T14:16:40Z</time>
      </trkpt>
      <trkpt lat="43.47169" lon="5.93137">
        <ele>319.78</ele>
        <time>2019-03-19T14:16:52Z</time>
      </trkpt>
      <trkpt lat="43.47183" lon="5.93146">
        <ele>319.78</ele>
        <time>2019-03-19T14:17:09Z</time>
      </trkpt>
      <trkpt lat="43.47192" lon="5.93154">
        <ele>319.78</ele>
        <time>2019-03-19T14:17:22Z</time>
      </trkpt>
      <trkpt lat="43.47203" lon="5.93162">
        <ele>319.78</ele>
        <time>2019-03-19T14:17:35Z</time>
      </trkpt>
      <trkpt lat="43.47213" lon="5.93173">
        <ele>320.26</ele>
        <time>2019-03-19T14:17:48Z</time>
      </trkpt>
      <trkpt lat="43.47214" lon="5.93174">
        <ele>320.26</ele>
        <time>2019-03-19T14:17:49Z</time>
      </trkpt>
      <trkpt lat="43.47226" lon="5.93189">
        <ele>320.26</ele>
        <time>2019-03-19T14:18:04Z</time>
      </trkpt>
      <trkpt lat="43.47237" lon="5.93197">
        <ele>319.78</ele>
        <time>2019-03-19T14:18:19Z</time>
      </trkpt>
      <trkpt lat="43.47252" lon="5.93202">
        <ele>319.78</ele>
        <time>2019-03-19T14:18:36Z</time>
      </trkpt>
      <trkpt lat="43.47263" lon="5.93207">
        <ele>319.78</ele>
        <time>2019-03-19T14:18:50Z</time>
      </trkpt>
      <trkpt lat="43.47274" lon="5.93211">
        <ele>319.78</ele>
        <time>2019-03-19T14:19:04Z</time>
      </trkpt>
      <trkpt lat="43.47285" lon="5.93215">
        <ele>319.78</ele>
        <time>2019-03-19T14:19:17Z</time>
      </trkpt>
      <trkpt lat="43.47301" lon="5.93218">
        <ele>319.78</ele>
        <time>2019-03-19T14:19:34Z</time>
      </trkpt>
      <trkpt lat="43.4731" lon="5.9322">
        <ele>319.78</ele>
        <time>2019-03-19T14:19:47Z</time>
      </trkpt>
      <trkpt lat="43.47311" lon="5.93221">
        <ele>319.78</ele>
        <time>2019-03-19T14:20:13Z</time>
      </trkpt>
      <trkpt lat="43.47314" lon="5.9322">
        <ele>319.78</ele>
        <time>2019-03-19T14:20:29Z</time>
      </trkpt>
      <trkpt lat="43.47316" lon="5.9322">
        <ele>319.78</ele>
        <time>2019-03-19T14:20:31Z</time>
      </trkpt>
      <trkpt lat="43.47329" lon="5.93218">
        <ele>319.78</ele>
        <time>2019-03-19T14:20:46Z</time>
      </trkpt>
      <trkpt lat="43.47342" lon="5.93218">
        <ele>319.3</ele>
        <time>2019-03-19T14:21:01Z</time>
      </trkpt>
      <trkpt lat="43.47355" lon="5.9322">
        <ele>319.3</ele>
        <time>2019-03-19T14:21:16Z</time>
      </trkpt>
      <trkpt lat="43.47366" lon="5.9322">
        <ele>318.33</ele>
        <time>2019-03-19T14:21:30Z</time>
      </trkpt>
      <trkpt lat="43.47379" lon="5.93223">
        <ele>318.33</ele>
        <time>2019-03-19T14:21:45Z</time>
      </trkpt>
      <trkpt lat="43.47389" lon="5.93226">
        <ele>317.85</ele>
        <time>2019-03-19T14:21:59Z</time>
      </trkpt>
      <trkpt lat="43.474" lon="5.93224">
        <ele>317.37</ele>
        <time>2019-03-19T14:22:14Z</time>
      </trkpt>
      <trkpt lat="43.47411" lon="5.93215">
        <ele>316.89</ele>
        <time>2019-03-19T14:22:29Z</time>
      </trkpt>
      <trkpt lat="43.4742" lon="5.93203">
        <ele>316.89</ele>
        <time>2019-03-19T14:22:43Z</time>
      </trkpt>
      <trkpt lat="43.47428" lon="5.93188">
        <ele>316.89</ele>
        <time>2019-03-19T14:22:57Z</time>
      </trkpt>
      <trkpt lat="43.47436" lon="5.93169">
        <ele>316.89</ele>
        <time>2019-03-19T14:23:14Z</time>
      </trkpt>
      <trkpt lat="43.47444" lon="5.93153">
        <ele>318.81</ele>
        <time>2019-03-19T14:23:30Z</time>
      </trkpt>
      <trkpt lat="43.4745" lon="5.93146">
        <ele>320.26</ele>
        <time>2019-03-19T14:23:46Z</time>
      </trkpt>
      <trkpt lat="43.47453" lon="5.93146">
        <ele>320.26</ele>
        <time>2019-03-19T14:24:11Z</time>
      </trkpt>
      <trkpt lat="43.47455" lon="5.93147">
        <ele>320.26</ele>
        <time>2019-03-19T14:24:27Z</time>
      </trkpt>
      <trkpt lat="43.47454" lon="5.93146">
        <ele>320.26</ele>
        <time>2019-03-19T14:24:45Z</time>
      </trkpt>
      <trkpt lat="43.47455" lon="5.9315">
        <ele>320.26</ele>
        <time>2019-03-19T14:25:15Z</time>
      </trkpt>
      <trkpt lat="43.47454" lon="5.93149">
        <ele>319.78</ele>
        <time>2019-03-19T14:25:45Z</time>
      </trkpt>
      <trkpt lat="43.47453" lon="5.93147">
        <ele>319.78</ele>
        <time>2019-03-19T14:26:17Z</time>
      </trkpt>
      <trkpt lat="43.47454" lon="5.93146">
        <ele>319.78</ele>
        <time>2019-03-19T14:26:40Z</time>
      </trkpt>
      <trkpt lat="43.47458" lon="5.93151">
        <ele>319.78</ele>
        <time>2019-03-19T14:26:54Z</time>
      </trkpt>
      <trkpt lat="43.47461" lon="5.93156">
        <ele>319.78</ele>
        <time>2019-03-19T14:27:07Z</time>
      </trkpt>
      <trkpt lat="43.47468" lon="5.93169">
        <ele>319.78</ele>
        <time>2019-03-19T14:27:22Z</time>
      </trkpt>
      <trkpt lat="43.47471" lon="5.93177">
        <ele>319.78</ele>
        <time>2019-03-19T14:27:30Z</time>
      </trkpt>
      <trkpt lat="43.47478" lon="5.9319">
        <ele>319.78</ele>
        <time>2019-03-19T14:27:45Z</time>
      </trkpt>
      <trkpt lat="43.47482" lon="5.93202">
        <ele>318.81</ele>
        <time>2019-03-19T14:27:58Z</time>
      </trkpt>
      <trkpt lat="43.47494" lon="5.9322">
        <ele>317.85</ele>
        <time>2019-03-19T14:28:15Z</time>
      </trkpt>
      <trkpt lat="43.47503" lon="5.93235">
        <ele>316.89</ele>
        <time>2019-03-19T14:28:28Z</time>
      </trkpt>
      <trkpt lat="43.47514" lon="5.93248">
        <ele>315.93</ele>
        <time>2019-03-19T14:28:44Z</time>
      </trkpt>
      <trkpt lat="43.47519" lon="5.93253">
        <ele>316.41</ele>
        <time>2019-03-19T14:29:08Z</time>
      </trkpt>
      <trkpt lat="43.47521" lon="5.93255">
        <ele>316.41</ele>
        <time>2019-03-19T14:29:26Z</time>
      </trkpt>
      <trkpt lat="43.47531" lon="5.93261">
        <ele>315.93</ele>
        <time>2019-03-19T14:29:40Z</time>
      </trkpt>
      <trkpt lat="43.47533" lon="5.93262">
        <ele>315.93</ele>
        <time>2019-03-19T14:29:43Z</time>
      </trkpt>
      <trkpt lat="43.47538" lon="5.93266">
        <ele>315.93</ele>
        <time>2019-03-19T14:29:49Z</time>
      </trkpt>
      <trkpt lat="43.47549" lon="5.93275">
        <ele>315.45</ele>
        <time>2019-03-19T14:30:02Z</time>
      </trkpt>
      <trkpt lat="43.47563" lon="5.93287">
        <ele>315.45</ele>
        <time>2019-03-19T14:30:19Z</time>
      </trkpt>
      <trkpt lat="43.47576" lon="5.93297">
        <ele>316.89</ele>
        <time>2019-03-19T14:30:35Z</time>
      </trkpt>
      <trkpt lat="43.47586" lon="5.93311">
        <ele>316.89</ele>
        <time>2019-03-19T14:30:50Z</time>
      </trkpt>
      <trkpt lat="43.47597" lon="5.9333">
        <ele>317.85</ele>
        <time>2019-03-19T14:31:08Z</time>
      </trkpt>
      <trkpt lat="43.47602" lon="5.93338">
        <ele>318.33</ele>
        <time>2019-03-19T14:31:16Z</time>
      </trkpt>
      <trkpt lat="43.47609" lon="5.93356">
        <ele>318.81</ele>
        <time>2019-03-19T14:31:31Z</time>
      </trkpt>
      <trkpt lat="43.47615" lon="5.93376">
        <ele>318.81</ele>
        <time>2019-03-19T14:31:47Z</time>
      </trkpt>
      <trkpt lat="43.4762" lon="5.93395">
        <ele>318.81</ele>
        <time>2019-03-19T14:32:02Z</time>
      </trkpt>
      <trkpt lat="43.47622" lon="5.93413">
        <ele>318.81</ele>
        <time>2019-03-19T14:32:15Z</time>
      </trkpt>
      <trkpt lat="43.47621" lon="5.93437">
        <ele>318.81</ele>
        <time>2019-03-19T14:32:31Z</time>
      </trkpt>
      <trkpt lat="43.4762" lon="5.93456">
        <ele>318.81</ele>
        <time>2019-03-19T14:32:45Z</time>
      </trkpt>
      <trkpt lat="43.47617" lon="5.93477">
        <ele>317.37</ele>
        <time>2019-03-19T14:33:01Z</time>
      </trkpt>
      <trkpt lat="43.47616" lon="5.93495">
        <ele>316.89</ele>
        <time>2019-03-19T14:33:15Z</time>
      </trkpt>
      <trkpt lat="43.47616" lon="5.93516">
        <ele>316.89</ele>
        <time>2019-03-19T14:33:29Z</time>
      </trkpt>
      <trkpt lat="43.47616" lon="5.93537">
        <ele>318.81</ele>
        <time>2019-03-19T14:33:45Z</time>
      </trkpt>
      <trkpt lat="43.47617" lon="5.93552">
        <ele>320.26</ele>
        <time>2019-03-19T14:33:58Z</time>
      </trkpt>
      <trkpt lat="43.4762" lon="5.93567">
        <ele>320.74</ele>
        <time>2019-03-19T14:34:11Z</time>
      </trkpt>
      <trkpt lat="43.47624" lon="5.93586">
        <ele>321.22</ele>
        <time>2019-03-19T14:34:29Z</time>
      </trkpt>
      <trkpt lat="43.47627" lon="5.93598">
        <ele>319.78</ele>
        <time>2019-03-19T14:34:40Z</time>
      </trkpt>
      <trkpt lat="43.47628" lon="5.93611">
        <ele>319.78</ele>
        <time>2019-03-19T14:34:53Z</time>
      </trkpt>
      <trkpt lat="43.47628" lon="5.93613">
        <ele>319.78</ele>
        <time>2019-03-19T14:34:56Z</time>
      </trkpt>
      <trkpt lat="43.47629" lon="5.93631">
        <ele>318.81</ele>
        <time>2019-03-19T14:35:11Z</time>
      </trkpt>
      <trkpt lat="43.47629" lon="5.93637">
        <ele>318.33</ele>
        <time>2019-03-19T14:35:15Z</time>
      </trkpt>
      <trkpt lat="43.47628" lon="5.93645">
        <ele>318.33</ele>
        <time>2019-03-19T14:35:19Z</time>
      </trkpt>
      <trkpt lat="43.47628" lon="5.93648">
        <ele>318.33</ele>
        <time>2019-03-19T14:35:21Z</time>
      </trkpt>
      <trkpt lat="43.47621" lon="5.93666">
        <ele>316.41</ele>
        <time>2019-03-19T14:35:37Z</time>
      </trkpt>
      <trkpt lat="43.47615" lon="5.9368">
        <ele>316.41</ele>
        <time>2019-03-19T14:35:52Z</time>
      </trkpt>
      <trkpt lat="43.47613" lon="5.93682">
        <ele>315.93</ele>
        <time>2019-03-19T14:36:12Z</time>
      </trkpt>
      <trkpt lat="43.47612" lon="5.93702">
        <ele>316.89</ele>
        <time>2019-03-19T14:36:28Z</time>
      </trkpt>
      <trkpt lat="43.47609" lon="5.93719">
        <ele>318.33</ele>
        <time>2019-03-19T14:36:42Z</time>
      </trkpt>
      <trkpt lat="43.47604" lon="5.93735">
        <ele>319.3</ele>
        <time>2019-03-19T14:36:58Z</time>
      </trkpt>
      <trkpt lat="43.47598" lon="5.93752">
        <ele>321.22</ele>
        <time>2019-03-19T14:37:14Z</time>
      </trkpt>
      <trkpt lat="43.47593" lon="5.93768">
        <ele>321.7</ele>
        <time>2019-03-19T14:37:29Z</time>
      </trkpt>
      <trkpt lat="43.47589" lon="5.93783">
        <ele>322.66</ele>
        <time>2019-03-19T14:37:43Z</time>
      </trkpt>
      <trkpt lat="43.47585" lon="5.93795">
        <ele>323.14</ele>
        <time>2019-03-19T14:37:56Z</time>
      </trkpt>
      <trkpt lat="43.47583" lon="5.93801">
        <ele>323.62</ele>
        <time>2019-03-19T14:38:01Z</time>
      </trkpt>
      <trkpt lat="43.47583" lon="5.93805">
        <ele>324.1</ele>
        <time>2019-03-19T14:38:04Z</time>
      </trkpt>
      <trkpt lat="43.47583" lon="5.93823">
        <ele>325.54</ele>
        <time>2019-03-19T14:38:21Z</time>
      </trkpt>
      <trkpt lat="43.47584" lon="5.93833">
        <ele>326.02</ele>
        <time>2019-03-19T14:38:42Z</time>
      </trkpt>
      <trkpt lat="43.47585" lon="5.93841">
        <ele>326.5</ele>
        <time>2019-03-19T14:38:49Z</time>
      </trkpt>
      <trkpt lat="43.47591" lon="5.93861">
        <ele>327.47</ele>
        <time>2019-03-19T14:39:05Z</time>
      </trkpt>
      <trkpt lat="43.47592" lon="5.93873">
        <ele>327.95</ele>
        <time>2019-03-19T14:39:14Z</time>
      </trkpt>
      <trkpt lat="43.47592" lon="5.93878">
        <ele>327.95</ele>
        <time>2019-03-19T14:39:18Z</time>
      </trkpt>
      <trkpt lat="43.47591" lon="5.93891">
        <ele>328.43</ele>
        <time>2019-03-19T14:39:32Z</time>
      </trkpt>
      <trkpt lat="43.4759" lon="5.93892">
        <ele>328.43</ele>
        <time>2019-03-19T14:39:50Z</time>
      </trkpt>
      <trkpt lat="43.47592" lon="5.9389">
        <ele>328.43</ele>
        <time>2019-03-19T14:40:23Z</time>
      </trkpt>
      <trkpt lat="43.47593" lon="5.9389">
        <ele>328.43</ele>
        <time>2019-03-19T14:40:50Z</time>
      </trkpt>
      <trkpt lat="43.47591" lon="5.93891">
        <ele>327.95</ele>
        <time>2019-03-19T14:41:05Z</time>
      </trkpt>
      <trkpt lat="43.47588" lon="5.93888">
        <ele>327.95</ele>
        <time>2019-03-19T14:41:35Z</time>
      </trkpt>
      <trkpt lat="43.47589" lon="5.93889">
        <ele>327.95</ele>
        <time>2019-03-19T14:42:04Z</time>
      </trkpt>
      <trkpt lat="43.47591" lon="5.93893">
        <ele>327.95</ele>
        <time>2019-03-19T14:42:19Z</time>
      </trkpt>
      <trkpt lat="43.4759" lon="5.93908">
        <ele>327.95</ele>
        <time>2019-03-19T14:42:34Z</time>
      </trkpt>
      <trkpt lat="43.4759" lon="5.93927">
        <ele>328.43</ele>
        <time>2019-03-19T14:42:49Z</time>
      </trkpt>
      <trkpt lat="43.4759" lon="5.93943">
        <ele>328.43</ele>
        <time>2019-03-19T14:43:01Z</time>
      </trkpt>
      <trkpt lat="43.47591" lon="5.93966">
        <ele>328.43</ele>
        <time>2019-03-19T14:43:18Z</time>
      </trkpt>
      <trkpt lat="43.47592" lon="5.93991">
        <ele>326.99</ele>
        <time>2019-03-19T14:43:35Z</time>
      </trkpt>
      <trkpt lat="43.47592" lon="5.93993">
        <ele>326.99</ele>
        <time>2019-03-19T14:43:36Z</time>
      </trkpt>
      <trkpt lat="43.47591" lon="5.94017">
        <ele>326.99</ele>
        <time>2019-03-19T14:43:53Z</time>
      </trkpt>
      <trkpt lat="43.4759" lon="5.94032">
        <ele>326.99</ele>
        <time>2019-03-19T14:44:09Z</time>
      </trkpt>
      <trkpt lat="43.47586" lon="5.94049">
        <ele>326.99</ele>
        <time>2019-03-19T14:44:25Z</time>
      </trkpt>
      <trkpt lat="43.47584" lon="5.94058">
        <ele>326.99</ele>
        <time>2019-03-19T14:44:38Z</time>
      </trkpt>
      <trkpt lat="43.47581" lon="5.94072">
        <ele>326.99</ele>
        <time>2019-03-19T14:44:51Z</time>
      </trkpt>
      <trkpt lat="43.47581" lon="5.94073">
        <ele>326.99</ele>
        <time>2019-03-19T14:44:52Z</time>
      </trkpt>
      <trkpt lat="43.47579" lon="5.94071">
        <ele>326.99</ele>
        <time>2019-03-19T14:44:55Z</time>
      </trkpt>
      <trkpt lat="43.47576" lon="5.94066">
        <ele>326.99</ele>
        <time>2019-03-19T14:45:03Z</time>
      </trkpt>
      <trkpt lat="43.47569" lon="5.9406">
        <ele>326.5</ele>
        <time>2019-03-19T14:45:17Z</time>
      </trkpt>
      <trkpt lat="43.47568" lon="5.94059">
        <ele>326.5</ele>
        <time>2019-03-19T14:45:46Z</time>
      </trkpt>
      <trkpt lat="43.47574" lon="5.94063">
        <ele>326.5</ele>
        <time>2019-03-19T14:45:58Z</time>
      </trkpt>
      <trkpt lat="43.47579" lon="5.94074">
        <ele>326.5</ele>
        <time>2019-03-19T14:46:11Z</time>
      </trkpt>
      <trkpt lat="43.47578" lon="5.94092">
        <ele>326.5</ele>
        <time>2019-03-19T14:46:27Z</time>
      </trkpt>
      <trkpt lat="43.47577" lon="5.94107">
        <ele>326.5</ele>
        <time>2019-03-19T14:46:41Z</time>
      </trkpt>
      <trkpt lat="43.47577" lon="5.94128">
        <ele>326.02</ele>
        <time>2019-03-19T14:46:57Z</time>
      </trkpt>
      <trkpt lat="43.47579" lon="5.94149">
        <ele>326.02</ele>
        <time>2019-03-19T14:47:12Z</time>
      </trkpt>
      <trkpt lat="43.47581" lon="5.94157">
        <ele>325.06</ele>
        <time>2019-03-19T14:47:26Z</time>
      </trkpt>
      <trkpt lat="43.47583" lon="5.94171">
        <ele>324.58</ele>
        <time>2019-03-19T14:47:42Z</time>
      </trkpt>
      <trkpt lat="43.47583" lon="5.94185">
        <ele>323.14</ele>
        <time>2019-03-19T14:47:55Z</time>
      </trkpt>
      <trkpt lat="43.47582" lon="5.94189">
        <ele>322.66</ele>
        <time>2019-03-19T14:48:15Z</time>
      </trkpt>
      <trkpt lat="43.47577" lon="5.94197">
        <ele>320.74</ele>
        <time>2019-03-19T14:48:28Z</time>
      </trkpt>
      <trkpt lat="43.47572" lon="5.94207">
        <ele>319.3</ele>
        <time>2019-03-19T14:48:42Z</time>
      </trkpt>
      <trkpt lat="43.4757" lon="5.94215">
        <ele>318.33</ele>
        <time>2019-03-19T14:48:55Z</time>
      </trkpt>
      <trkpt lat="43.47565" lon="5.94224">
        <ele>317.37</ele>
        <time>2019-03-19T14:49:09Z</time>
      </trkpt>
      <trkpt lat="43.47562" lon="5.94228">
        <ele>316.89</ele>
        <time>2019-03-19T14:49:23Z</time>
      </trkpt>
      <trkpt lat="43.47554" lon="5.94241">
        <ele>314.97</ele>
        <time>2019-03-19T14:49:39Z</time>
      </trkpt>
      <trkpt lat="43.47545" lon="5.94255">
        <ele>313.53</ele>
        <time>2019-03-19T14:49:55Z</time>
      </trkpt>
      <trkpt lat="43.47544" lon="5.94259">
        <ele>313.05</ele>
        <time>2019-03-19T14:49:58Z</time>
      </trkpt>
      <trkpt lat="43.47542" lon="5.94281">
        <ele>310.16</ele>
        <time>2019-03-19T14:50:15Z</time>
      </trkpt>
      <trkpt lat="43.47539" lon="5.94295">
        <ele>308.72</ele>
        <time>2019-03-19T14:50:29Z</time>
      </trkpt>
      <trkpt lat="43.47542" lon="5.9431">
        <ele>306.8</ele>
        <time>2019-03-19T14:50:44Z</time>
      </trkpt>
      <trkpt lat="43.47544" lon="5.9432">
        <ele>306.32</ele>
        <time>2019-03-19T14:51:00Z</time>
      </trkpt>
      <trkpt lat="43.47544" lon="5.94327">
        <ele>305.84</ele>
        <time>2019-03-19T14:51:18Z</time>
      </trkpt>
      <trkpt lat="43.47544" lon="5.9434">
        <ele>304.39</ele>
        <time>2019-03-19T14:51:32Z</time>
      </trkpt>
      <trkpt lat="43.4754" lon="5.94353">
        <ele>302.95</ele>
        <time>2019-03-19T14:51:47Z</time>
      </trkpt>
      <trkpt lat="43.47534" lon="5.94366">
        <ele>301.51</ele>
        <time>2019-03-19T14:52:01Z</time>
      </trkpt>
      <trkpt lat="43.47528" lon="5.94376">
        <ele>300.07</ele>
        <time>2019-03-19T14:52:15Z</time>
      </trkpt>
      <trkpt lat="43.47523" lon="5.94385">
        <ele>299.59</ele>
        <time>2019-03-19T14:52:32Z</time>
      </trkpt>
      <trkpt lat="43.47519" lon="5.94392">
        <ele>298.63</ele>
        <time>2019-03-19T14:52:48Z</time>
      </trkpt>
      <trkpt lat="43.47514" lon="5.94403">
        <ele>297.18</ele>
        <time>2019-03-19T14:53:03Z</time>
      </trkpt>
      <trkpt lat="43.47506" lon="5.94416">
        <ele>296.22</ele>
        <time>2019-03-19T14:53:21Z</time>
      </trkpt>
      <trkpt lat="43.47498" lon="5.94433">
        <ele>294.3</ele>
        <time>2019-03-19T14:53:38Z</time>
      </trkpt>
      <trkpt lat="43.4749" lon="5.94446">
        <ele>292.86</ele>
        <time>2019-03-19T14:53:53Z</time>
      </trkpt>
      <trkpt lat="43.47484" lon="5.94462">
        <ele>291.42</ele>
        <time>2019-03-19T14:54:08Z</time>
      </trkpt>
      <trkpt lat="43.47481" lon="5.94466">
        <ele>290.94</ele>
        <time>2019-03-19T14:54:15Z</time>
      </trkpt>
      <trkpt lat="43.47474" lon="5.94464">
        <ele>290.94</ele>
        <time>2019-03-19T14:54:25Z</time>
      </trkpt>
      <trkpt lat="43.47479" lon="5.94466">
        <ele>290.94</ele>
        <time>2019-03-19T14:54:51Z</time>
      </trkpt>
      <trkpt lat="43.47477" lon="5.94476">
        <ele>290.94</ele>
        <time>2019-03-19T14:55:03Z</time>
      </trkpt>
      <trkpt lat="43.47473" lon="5.94486">
        <ele>289.49</ele>
        <time>2019-03-19T14:55:16Z</time>
      </trkpt>
      <trkpt lat="43.47467" lon="5.94497">
        <ele>288.05</ele>
        <time>2019-03-19T14:55:29Z</time>
      </trkpt>
      <trkpt lat="43.47462" lon="5.94505">
        <ele>287.57</ele>
        <time>2019-03-19T14:55:42Z</time>
      </trkpt>
      <trkpt lat="43.47457" lon="5.94516">
        <ele>286.61</ele>
        <time>2019-03-19T14:55:56Z</time>
      </trkpt>
      <trkpt lat="43.47452" lon="5.94527">
        <ele>285.65</ele>
        <time>2019-03-19T14:56:10Z</time>
      </trkpt>
      <trkpt lat="43.47449" lon="5.9453">
        <ele>285.17</ele>
        <time>2019-03-19T14:56:14Z</time>
      </trkpt>
      <trkpt lat="43.4744" lon="5.94544">
        <ele>283.73</ele>
        <time>2019-03-19T14:56:28Z</time>
      </trkpt>
      <trkpt lat="43.4743" lon="5.94553">
        <ele>281.8</ele>
        <time>2019-03-19T14:56:44Z</time>
      </trkpt>
      <trkpt lat="43.47422" lon="5.94569">
        <ele>280.84</ele>
        <time>2019-03-19T14:57:00Z</time>
      </trkpt>
      <trkpt lat="43.47419" lon="5.94573">
        <ele>280.84</ele>
        <time>2019-03-19T14:57:13Z</time>
      </trkpt>
      <trkpt lat="43.47413" lon="5.9458">
        <ele>279.88</ele>
        <time>2019-03-19T14:57:26Z</time>
      </trkpt>
      <trkpt lat="43.47405" lon="5.9459">
        <ele>277.96</ele>
        <time>2019-03-19T14:57:43Z</time>
      </trkpt>
      <trkpt lat="43.47396" lon="5.94602">
        <ele>277</ele>
        <time>2019-03-19T14:57:58Z</time>
      </trkpt>
      <trkpt lat="43.47386" lon="5.9462">
        <ele>275.07</ele>
        <time>2019-03-19T14:58:14Z</time>
      </trkpt>
      <trkpt lat="43.47378" lon="5.94631">
        <ele>273.15</ele>
        <time>2019-03-19T14:58:31Z</time>
      </trkpt>
      <trkpt lat="43.47368" lon="5.94645">
        <ele>270.75</ele>
        <time>2019-03-19T14:58:46Z</time>
      </trkpt>
      <trkpt lat="43.47358" lon="5.94655">
        <ele>269.31</ele>
        <time>2019-03-19T14:59:00Z</time>
      </trkpt>
      <trkpt lat="43.4735" lon="5.94669">
        <ele>267.86</ele>
        <time>2019-03-19T14:59:14Z</time>
      </trkpt>
      <trkpt lat="43.47342" lon="5.94685">
        <ele>266.42</ele>
        <time>2019-03-19T14:59:30Z</time>
      </trkpt>
      <trkpt lat="43.47335" lon="5.94696">
        <ele>265.94</ele>
        <time>2019-03-19T14:59:44Z</time>
      </trkpt>
      <trkpt lat="43.47327" lon="5.94706">
        <ele>264.5</ele>
        <time>2019-03-19T14:59:59Z</time>
      </trkpt>
      <trkpt lat="43.47328" lon="5.94706">
        <ele>264.5</ele>
        <time>2019-03-19T15:00:25Z</time>
      </trkpt>
      <trkpt lat="43.47321" lon="5.94715">
        <ele>263.54</ele>
        <time>2019-03-19T15:00:45Z</time>
      </trkpt>
      <trkpt lat="43.47313" lon="5.94731">
        <ele>261.62</ele>
        <time>2019-03-19T15:01:02Z</time>
      </trkpt>
      <trkpt lat="43.47307" lon="5.94755">
        <ele>260.65</ele>
        <time>2019-03-19T15:01:21Z</time>
      </trkpt>
      <trkpt lat="43.47304" lon="5.94776">
        <ele>260.17</ele>
        <time>2019-03-19T15:01:37Z</time>
      </trkpt>
      <trkpt lat="43.47302" lon="5.94783">
        <ele>260.17</ele>
        <time>2019-03-19T15:01:43Z</time>
      </trkpt>
      <trkpt lat="43.47301" lon="5.94802">
        <ele>260.17</ele>
        <time>2019-03-19T15:01:58Z</time>
      </trkpt>
      <trkpt lat="43.47299" lon="5.94822">
        <ele>259.69</ele>
        <time>2019-03-19T15:02:14Z</time>
      </trkpt>
      <trkpt lat="43.47298" lon="5.94843">
        <ele>259.21</ele>
        <time>2019-03-19T15:02:31Z</time>
      </trkpt>
      <trkpt lat="43.47291" lon="5.94863">
        <ele>259.21</ele>
        <time>2019-03-19T15:02:49Z</time>
      </trkpt>
      <trkpt lat="43.47288" lon="5.94867">
        <ele>259.21</ele>
        <time>2019-03-19T15:03:05Z</time>
      </trkpt>
      <trkpt lat="43.47287" lon="5.94869">
        <ele>259.21</ele>
        <time>2019-03-19T15:03:25Z</time>
      </trkpt>
      <trkpt lat="43.47286" lon="5.9487">
        <ele>257.77</ele>
        <time>2019-03-19T15:03:59Z</time>
      </trkpt>
      <trkpt lat="43.47289" lon="5.94863">
        <ele>257.29</ele>
        <time>2019-03-19T15:04:34Z</time>
      </trkpt>
      <trkpt lat="43.47291" lon="5.94866">
        <ele>258.73</ele>
        <time>2019-03-19T15:05:02Z</time>
      </trkpt>
      <trkpt lat="43.47292" lon="5.94869">
        <ele>258.73</ele>
        <time>2019-03-19T15:05:31Z</time>
      </trkpt>
      <trkpt lat="43.4729" lon="5.94871">
        <ele>259.21</ele>
        <time>2019-03-19T15:05:51Z</time>
      </trkpt>
      <trkpt lat="43.47289" lon="5.9487">
        <ele>259.69</ele>
        <time>2019-03-19T15:06:15Z</time>
      </trkpt>
      <trkpt lat="43.47287" lon="5.94871">
        <ele>259.69</ele>
        <time>2019-03-19T15:06:50Z</time>
      </trkpt>
      <trkpt lat="43.47286" lon="5.94872">
        <ele>259.69</ele>
        <time>2019-03-19T15:07:18Z</time>
      </trkpt>
      <trkpt lat="43.47283" lon="5.94886">
        <ele>259.69</ele>
        <time>2019-03-19T15:07:32Z</time>
      </trkpt>
      <trkpt lat="43.4728" lon="5.949">
        <ele>260.17</ele>
        <time>2019-03-19T15:07:46Z</time>
      </trkpt>
      <trkpt lat="43.47275" lon="5.94916">
        <ele>260.65</ele>
        <time>2019-03-19T15:08:01Z</time>
      </trkpt>
      <trkpt lat="43.4727" lon="5.94935">
        <ele>260.65</ele>
        <time>2019-03-19T15:08:17Z</time>
      </trkpt>
      <trkpt lat="43.47266" lon="5.94953">
        <ele>260.65</ele>
        <time>2019-03-19T15:08:33Z</time>
      </trkpt>
      <trkpt lat="43.47261" lon="5.94971">
        <ele>260.65</ele>
        <time>2019-03-19T15:08:49Z</time>
      </trkpt>
      <trkpt lat="43.47257" lon="5.94989">
        <ele>259.69</ele>
        <time>2019-03-19T15:09:05Z</time>
      </trkpt>
      <trkpt lat="43.47252" lon="5.95003">
        <ele>259.69</ele>
        <time>2019-03-19T15:09:19Z</time>
      </trkpt>
      <trkpt lat="43.47255" lon="5.95017">
        <ele>259.69</ele>
        <time>2019-03-19T15:09:34Z</time>
      </trkpt>
      <trkpt lat="43.47252" lon="5.95028">
        <ele>259.69</ele>
        <time>2019-03-19T15:09:45Z</time>
      </trkpt>
      <trkpt lat="43.47247" lon="5.95035">
        <ele>259.69</ele>
        <time>2019-03-19T15:09:59Z</time>
      </trkpt>
      <trkpt lat="43.47244" lon="5.95039">
        <ele>259.69</ele>
        <time>2019-03-19T15:10:33Z</time>
      </trkpt>
      <trkpt lat="43.47245" lon="5.95037">
        <ele>260.17</ele>
        <time>2019-03-19T15:10:53Z</time>
      </trkpt>
      <trkpt lat="43.47248" lon="5.95035">
        <ele>260.17</ele>
        <time>2019-03-19T15:11:09Z</time>
      </trkpt>
      <trkpt lat="43.47252" lon="5.95043">
        <ele>260.17</ele>
        <time>2019-03-19T15:11:25Z</time>
      </trkpt>
      <trkpt lat="43.47245" lon="5.9506">
        <ele>260.17</ele>
        <time>2019-03-19T15:11:39Z</time>
      </trkpt>
      <trkpt lat="43.47235" lon="5.95077">
        <ele>260.17</ele>
        <time>2019-03-19T15:11:55Z</time>
      </trkpt>
      <trkpt lat="43.47227" lon="5.95088">
        <ele>259.69</ele>
        <time>2019-03-19T15:12:11Z</time>
      </trkpt>
      <trkpt lat="43.47225" lon="5.95089">
        <ele>259.69</ele>
        <time>2019-03-19T15:12:16Z</time>
      </trkpt>
      <trkpt lat="43.47226" lon="5.95089">
        <ele>259.69</ele>
        <time>2019-03-19T15:12:27Z</time>
      </trkpt>
      <trkpt lat="43.4722" lon="5.95089">
        <ele>258.73</ele>
        <time>2019-03-19T15:12:54Z</time>
      </trkpt>
      <trkpt lat="43.4722" lon="5.95089">
        <ele>258.73</ele>
        <time>2019-03-19T15:13:32Z</time>
      </trkpt>
      <trkpt lat="43.47222" lon="5.95092">
        <ele>258.73</ele>
        <time>2019-03-19T15:14:07Z</time>
      </trkpt>
      <trkpt lat="43.47222" lon="5.95092">
        <ele>259.69</ele>
        <time>2019-03-19T15:14:27Z</time>
      </trkpt>
      <trkpt lat="43.47223" lon="5.9509">
        <ele>259.69</ele>
        <time>2019-03-19T15:14:45Z</time>
      </trkpt>
      <trkpt lat="43.47222" lon="5.95096">
        <ele>259.69</ele>
        <time>2019-03-19T15:14:57Z</time>
      </trkpt>
      <trkpt lat="43.4722" lon="5.95108">
        <ele>259.69</ele>
        <time>2019-03-19T15:15:14Z</time>
      </trkpt>
      <trkpt lat="43.47218" lon="5.95122">
        <ele>260.17</ele>
        <time>2019-03-19T15:15:30Z</time>
      </trkpt>
      <trkpt lat="43.47214" lon="5.95141">
        <ele>260.65</ele>
        <time>2019-03-19T15:15:48Z</time>
      </trkpt>
      <trkpt lat="43.47206" lon="5.95158">
        <ele>260.65</ele>
        <time>2019-03-19T15:16:05Z</time>
      </trkpt>
      <trkpt lat="43.472" lon="5.95182">
        <ele>261.14</ele>
        <time>2019-03-19T15:16:21Z</time>
      </trkpt>
      <trkpt lat="43.47197" lon="5.95202">
        <ele>261.14</ele>
        <time>2019-03-19T15:16:36Z</time>
      </trkpt>
      <trkpt lat="43.47195" lon="5.95219">
        <ele>262.1</ele>
        <time>2019-03-19T15:16:51Z</time>
      </trkpt>
      <trkpt lat="43.47193" lon="5.95235">
        <ele>263.54</ele>
        <time>2019-03-19T15:17:06Z</time>
      </trkpt>
      <trkpt lat="43.47191" lon="5.95245">
        <ele>264.02</ele>
        <time>2019-03-19T15:17:19Z</time>
      </trkpt>
      <trkpt lat="43.47181" lon="5.95252">
        <ele>264.98</ele>
        <time>2019-03-19T15:17:32Z</time>
      </trkpt>
      <trkpt lat="43.47166" lon="5.95254">
        <ele>265.46</ele>
        <time>2019-03-19T15:17:49Z</time>
      </trkpt>
      <trkpt lat="43.47164" lon="5.95254">
        <ele>265.46</ele>
        <time>2019-03-19T15:17:52Z</time>
      </trkpt>
      <trkpt lat="43.47153" lon="5.95252">
        <ele>265.46</ele>
        <time>2019-03-19T15:18:06Z</time>
      </trkpt>
      <trkpt lat="43.47145" lon="5.95253">
        <ele>264.5</ele>
        <time>2019-03-19T15:18:18Z</time>
      </trkpt>
      <trkpt lat="43.47131" lon="5.95252">
        <ele>264.5</ele>
        <time>2019-03-19T15:18:33Z</time>
      </trkpt>
      <trkpt lat="43.4712" lon="5.95251">
        <ele>264.98</ele>
        <time>2019-03-19T15:18:46Z</time>
      </trkpt>
      <trkpt lat="43.47103" lon="5.95239">
        <ele>264.98</ele>
        <time>2019-03-19T15:19:02Z</time>
      </trkpt>
      <trkpt lat="43.47097" lon="5.95233">
        <ele>265.46</ele>
        <time>2019-03-19T15:19:15Z</time>
      </trkpt>
      <trkpt lat="43.4709" lon="5.95229">
        <ele>265.46</ele>
        <time>2019-03-19T15:19:27Z</time>
      </trkpt>
      <trkpt lat="43.47084" lon="5.95222">
        <ele>265.94</ele>
        <time>2019-03-19T15:19:42Z</time>
      </trkpt>
      <trkpt lat="43.47069" lon="5.95213">
        <ele>265.94</ele>
        <time>2019-03-19T15:19:57Z</time>
      </trkpt>
      <trkpt lat="43.4706" lon="5.95207">
        <ele>267.38</ele>
        <time>2019-03-19T15:20:07Z</time>
      </trkpt>
      <trkpt lat="43.47051" lon="5.95206">
        <ele>267.38</ele>
        <time>2019-03-19T15:20:19Z</time>
      </trkpt>
      <trkpt lat="43.47032" lon="5.95204">
        <ele>267.86</ele>
        <time>2019-03-19T15:20:34Z</time>
      </trkpt>
      <trkpt lat="43.47016" lon="5.95207">
        <ele>267.86</ele>
        <time>2019-03-19T15:20:51Z</time>
      </trkpt>
      <trkpt lat="43.47015" lon="5.95205">
        <ele>268.35</ele>
        <time>2019-03-19T15:20:53Z</time>
      </trkpt>
      <trkpt lat="43.47003" lon="5.95193">
        <ele>268.35</ele>
        <time>2019-03-19T15:21:09Z</time>
      </trkpt>
      <trkpt lat="43.47002" lon="5.9519">
        <ele>268.35</ele>
        <time>2019-03-19T15:21:11Z</time>
      </trkpt>
      <trkpt lat="43.46989" lon="5.95172">
        <ele>268.83</ele>
        <time>2019-03-19T15:21:29Z</time>
      </trkpt>
      <trkpt lat="43.46977" lon="5.95153">
        <ele>269.79</ele>
        <time>2019-03-19T15:21:45Z</time>
      </trkpt>
      <trkpt lat="43.4697" lon="5.95143">
        <ele>269.79</ele>
        <time>2019-03-19T15:21:56Z</time>
      </trkpt>
      <trkpt lat="43.46969" lon="5.95127">
        <ele>269.79</ele>
        <time>2019-03-19T15:22:11Z</time>
      </trkpt>
      <trkpt lat="43.4697" lon="5.95124">
        <ele>269.79</ele>
        <time>2019-03-19T15:22:14Z</time>
      </trkpt>
      <trkpt lat="43.46982" lon="5.95111">
        <ele>270.27</ele>
        <time>2019-03-19T15:22:31Z</time>
      </trkpt>
      <trkpt lat="43.46991" lon="5.95097">
        <ele>270.27</ele>
        <time>2019-03-19T15:22:46Z</time>
      </trkpt>
      <trkpt lat="43.46999" lon="5.95093">
        <ele>270.75</ele>
        <time>2019-03-19T15:23:00Z</time>
      </trkpt>
      <trkpt lat="43.47012" lon="5.95094">
        <ele>271.71</ele>
        <time>2019-03-19T15:23:16Z</time>
      </trkpt>
      <trkpt lat="43.47014" lon="5.95095">
        <ele>272.19</ele>
        <time>2019-03-19T15:23:18Z</time>
      </trkpt>
      <trkpt lat="43.47019" lon="5.95098">
        <ele>272.67</ele>
        <time>2019-03-19T15:23:32Z</time>
      </trkpt>
      <trkpt lat="43.47026" lon="5.95087">
        <ele>273.63</ele>
        <time>2019-03-19T15:23:50Z</time>
      </trkpt>
      <trkpt lat="43.47028" lon="5.95084">
        <ele>273.63</ele>
        <time>2019-03-19T15:23:53Z</time>
      </trkpt>
      <trkpt lat="43.47031" lon="5.95068">
        <ele>274.59</ele>
        <time>2019-03-19T15:24:08Z</time>
      </trkpt>
      <trkpt lat="43.47031" lon="5.95067">
        <ele>274.59</ele>
        <time>2019-03-19T15:24:12Z</time>
      </trkpt>
      <trkpt lat="43.47028" lon="5.95066">
        <ele>275.07</ele>
        <time>2019-03-19T15:24:24Z</time>
      </trkpt>
      <trkpt lat="43.47027" lon="5.95065">
        <ele>275.56</ele>
        <time>2019-03-19T15:24:46Z</time>
      </trkpt>
      <trkpt lat="43.47026" lon="5.95063">
        <ele>275.56</ele>
        <time>2019-03-19T15:25:07Z</time>
      </trkpt>
      <trkpt lat="43.47039" lon="5.95042">
        <ele>276.04</ele>
        <time>2019-03-19T15:25:19Z</time>
      </trkpt>
      <trkpt lat="43.47038" lon="5.95038">
        <ele>277</ele>
        <time>2019-03-19T15:25:35Z</time>
      </trkpt>
      <trkpt lat="43.47036" lon="5.95036">
        <ele>277</ele>
        <time>2019-03-19T15:25:56Z</time>
      </trkpt>
      <trkpt lat="43.47036" lon="5.95034">
        <ele>277</ele>
        <time>2019-03-19T15:26:15Z</time>
      </trkpt>
      <trkpt lat="43.47036" lon="5.95035">
        <ele>277</ele>
        <time>2019-03-19T15:26:40Z</time>
      </trkpt>
      <trkpt lat="43.47032" lon="5.95032">
        <ele>277.48</ele>
        <time>2019-03-19T15:26:53Z</time>
      </trkpt>
      <trkpt lat="43.47032" lon="5.95024">
        <ele>278.44</ele>
        <time>2019-03-19T15:27:06Z</time>
      </trkpt>
      <trkpt lat="43.47039" lon="5.95014">
        <ele>277.48</ele>
        <time>2019-03-19T15:27:21Z</time>
      </trkpt>
      <trkpt lat="43.47039" lon="5.95015">
        <ele>277</ele>
        <time>2019-03-19T15:27:48Z</time>
      </trkpt>
      <trkpt lat="43.47043" lon="5.95012">
        <ele>277</ele>
        <time>2019-03-19T15:28:14Z</time>
      </trkpt>
      <trkpt lat="43.47046" lon="5.95011">
        <ele>276.52</ele>
        <time>2019-03-19T15:28:39Z</time>
      </trkpt>
      <trkpt lat="43.47045" lon="5.95012">
        <ele>276.52</ele>
        <time>2019-03-19T15:29:03Z</time>
      </trkpt>
      <trkpt lat="43.47043" lon="5.9501">
        <ele>276.52</ele>
        <time>2019-03-19T15:29:27Z</time>
      </trkpt>
      <trkpt lat="43.47045" lon="5.9501">
        <ele>276.52</ele>
        <time>2019-03-19T15:29:56Z</time>
      </trkpt>
      <trkpt lat="43.47044" lon="5.95011">
        <ele>276.52</ele>
        <time>2019-03-19T15:30:27Z</time>
      </trkpt>
      <trkpt lat="43.47043" lon="5.95011">
        <ele>276.52</ele>
        <time>2019-03-19T15:30:53Z</time>
      </trkpt>
      <trkpt lat="43.47045" lon="5.95013">
        <ele>276.04</ele>
        <time>2019-03-19T15:31:09Z</time>
      </trkpt>
      <trkpt lat="43.47046" lon="5.95016">
        <ele>275.56</ele>
        <time>2019-03-19T15:31:34Z</time>
      </trkpt>
      <trkpt lat="43.47046" lon="5.95017">
        <ele>275.07</ele>
        <time>2019-03-19T15:32:02Z</time>
      </trkpt>
      <trkpt lat="43.47052" lon="5.95016">
        <ele>273.63</ele>
        <time>2019-03-19T15:32:22Z</time>
      </trkpt>
      <trkpt lat="43.4706" lon="5.95016">
        <ele>271.23</ele>
        <time>2019-03-19T15:32:37Z</time>
      </trkpt>
      <trkpt lat="43.47068" lon="5.95018">
        <ele>269.79</ele>
        <time>2019-03-19T15:32:53Z</time>
      </trkpt>
      <trkpt lat="43.47073" lon="5.95024">
        <ele>268.83</ele>
        <time>2019-03-19T15:33:07Z</time>
      </trkpt>
      <trkpt lat="43.47077" lon="5.95024">
        <ele>267.86</ele>
        <time>2019-03-19T15:33:27Z</time>
      </trkpt>
      <trkpt lat="43.47079" lon="5.95026">
        <ele>268.35</ele>
        <time>2019-03-19T15:34:02Z</time>
      </trkpt>
      <trkpt lat="43.4708" lon="5.95025">
        <ele>268.35</ele>
        <time>2019-03-19T15:34:42Z</time>
      </trkpt>
      <trkpt lat="43.47082" lon="5.95025">
        <ele>267.86</ele>
        <time>2019-03-19T15:35:08Z</time>
      </trkpt>
      <trkpt lat="43.4709" lon="5.95025">
        <ele>267.38</ele>
        <time>2019-03-19T15:35:21Z</time>
      </trkpt>
      <trkpt lat="43.471" lon="5.95024">
        <ele>266.9</ele>
        <time>2019-03-19T15:35:37Z</time>
      </trkpt>
      <trkpt lat="43.47105" lon="5.95023">
        <ele>266.9</ele>
        <time>2019-03-19T15:35:53Z</time>
      </trkpt>
      <trkpt lat="43.4712" lon="5.95014">
        <ele>267.38</ele>
        <time>2019-03-19T15:36:10Z</time>
      </trkpt>
      <trkpt lat="43.47121" lon="5.95013">
        <ele>267.38</ele>
        <time>2019-03-19T15:36:11Z</time>
      </trkpt>
      <trkpt lat="43.47127" lon="5.95005">
        <ele>267.38</ele>
        <time>2019-03-19T15:36:20Z</time>
      </trkpt>
      <trkpt lat="43.47127" lon="5.94988">
        <ele>267.38</ele>
        <time>2019-03-19T15:36:35Z</time>
      </trkpt>
      <trkpt lat="43.47125" lon="5.94978">
        <ele>267.38</ele>
        <time>2019-03-19T15:36:45Z</time>
      </trkpt>
      <trkpt lat="43.47123" lon="5.94976">
        <ele>267.38</ele>
        <time>2019-03-19T15:36:48Z</time>
      </trkpt>
      <trkpt lat="43.47117" lon="5.9495">
        <ele>267.38</ele>
        <time>2019-03-19T15:37:07Z</time>
      </trkpt>
      <trkpt lat="43.47117" lon="5.94945">
        <ele>267.38</ele>
        <time>2019-03-19T15:37:11Z</time>
      </trkpt>
      <trkpt lat="43.47123" lon="5.94934">
        <ele>266.9</ele>
        <time>2019-03-19T15:37:25Z</time>
      </trkpt>
      <trkpt lat="43.4713" lon="5.94945">
        <ele>266.9</ele>
        <time>2019-03-19T15:37:43Z</time>
      </trkpt>
      <trkpt lat="43.47135" lon="5.94963">
        <ele>266.9</ele>
        <time>2019-03-19T15:38:00Z</time>
      </trkpt>
      <trkpt lat="43.47145" lon="5.94982">
        <ele>266.9</ele>
        <time>2019-03-19T15:38:17Z</time>
      </trkpt>
      <trkpt lat="43.47156" lon="5.94986">
        <ele>266.9</ele>
        <time>2019-03-19T15:38:30Z</time>
      </trkpt>
      <trkpt lat="43.47157" lon="5.94984">
        <ele>266.9</ele>
        <time>2019-03-19T15:38:45Z</time>
      </trkpt>
      <trkpt lat="43.47159" lon="5.94985">
        <ele>266.9</ele>
        <time>2019-03-19T15:38:59Z</time>
      </trkpt>
      <trkpt lat="43.47162" lon="5.94984">
        <ele>266.9</ele>
        <time>2019-03-19T15:39:12Z</time>
      </trkpt>
      <trkpt lat="43.47168" lon="5.94985">
        <ele>266.42</ele>
        <time>2019-03-19T15:39:29Z</time>
      </trkpt>
      <trkpt lat="43.47183" lon="5.94986">
        <ele>266.42</ele>
        <time>2019-03-19T15:39:45Z</time>
      </trkpt>
      <trkpt lat="43.47196" lon="5.94984">
        <ele>266.42</ele>
        <time>2019-03-19T15:40:02Z</time>
      </trkpt>
      <trkpt lat="43.47208" lon="5.94982">
        <ele>265.94</ele>
        <time>2019-03-19T15:40:17Z</time>
      </trkpt>
      <trkpt lat="43.47211" lon="5.94978">
        <ele>265.94</ele>
        <time>2019-03-19T15:40:29Z</time>
      </trkpt>
      <trkpt lat="43.47215" lon="5.94983">
        <ele>266.42</ele>
        <time>2019-03-19T15:40:45Z</time>
      </trkpt>
      <trkpt lat="43.47219" lon="5.94992">
        <ele>266.42</ele>
        <time>2019-03-19T15:40:59Z</time>
      </trkpt>
      <trkpt lat="43.47223" lon="5.94987">
        <ele>266.42</ele>
        <time>2019-03-19T15:41:31Z</time>
      </trkpt>
      <trkpt lat="43.47221" lon="5.95003">
        <ele>266.42</ele>
        <time>2019-03-19T15:41:45Z</time>
      </trkpt>
      <trkpt lat="43.47221" lon="5.95005">
        <ele>266.42</ele>
        <time>2019-03-19T15:41:46Z</time>
      </trkpt>
      <trkpt lat="43.47223" lon="5.95025">
        <ele>266.42</ele>
        <time>2019-03-19T15:42:01Z</time>
      </trkpt>
      <trkpt lat="43.47223" lon="5.95042">
        <ele>266.9</ele>
        <time>2019-03-19T15:42:14Z</time>
      </trkpt>
      <trkpt lat="43.47222" lon="5.95056">
        <ele>266.9</ele>
        <time>2019-03-19T15:42:28Z</time>
      </trkpt>
      <trkpt lat="43.47222" lon="5.95061">
        <ele>268.35</ele>
        <time>2019-03-19T15:42:44Z</time>
      </trkpt>
      <trkpt lat="43.47222" lon="5.95066">
        <ele>268.35</ele>
        <time>2019-03-19T15:43:13Z</time>
      </trkpt>
      <trkpt lat="43.47223" lon="5.95069">
        <ele>268.83</ele>
        <time>2019-03-19T15:43:43Z</time>
      </trkpt>
      <trkpt lat="43.47227" lon="5.95083">
        <ele>268.83</ele>
        <time>2019-03-19T15:43:58Z</time>
      </trkpt>
      <trkpt lat="43.47231" lon="5.95093">
        <ele>268.83</ele>
        <time>2019-03-19T15:44:11Z</time>
      </trkpt>
      <trkpt lat="43.47235" lon="5.95094">
        <ele>269.31</ele>
        <time>2019-03-19T15:44:25Z</time>
      </trkpt>
      <trkpt lat="43.43976" lon="5.8602">
        <ele>352.94</ele>
        <time>2019-03-19T16:23:34Z</time>
      </trkpt>
      <trkpt lat="43.43964" lon="5.86024">
        <ele>353.42</ele>
        <time>2019-03-19T16:24:08Z</time>
      </trkpt>
    </trkseg>
  </trk>
  <trk>
    <name><![CDATA[Fontaine_Guillandiere]]></name>
    <trkseg>
      <trkpt lat="43.39373" lon="5.85108">
        <ele>356.69140625</ele>
      </trkpt>
      <trkpt lat="43.38855" lon="5.85131">
        <ele>398</ele>
        <time>2019-03-03T15:09:45Z</time>
      </trkpt>
      <trkpt lat="43.38842" lon="5.85205">
        <ele>406</ele>
        <time>2019-03-03T15:09:35Z</time>
      </trkpt>
      <trkpt lat="43.38838" lon="5.85275">
        <ele>420</ele>
        <time>2019-03-03T15:09:25Z</time>
      </trkpt>
      <trkpt lat="43.38837" lon="5.85342">
        <ele>422</ele>
        <time>2019-03-03T15:09:20Z</time>
      </trkpt>
      <trkpt lat="43.38819" lon="5.85403">
        <ele>428</ele>
        <time>2019-03-03T15:09:15Z</time>
      </trkpt>
      <trkpt lat="43.38787" lon="5.85439">
        <ele>432</ele>
        <time>2019-03-03T15:09:10Z</time>
      </trkpt>
      <trkpt lat="43.38751" lon="5.85466">
        <ele>434</ele>
        <time>2019-03-03T15:09:05Z</time>
      </trkpt>
      <trkpt lat="43.38669" lon="5.85497">
        <ele>439</ele>
        <time>2019-03-03T15:08:55Z</time>
      </trkpt>
      <trkpt lat="43.38623" lon="5.85525">
        <ele>441</ele>
        <time>2019-03-03T15:08:50Z</time>
      </trkpt>
      <trkpt lat="43.38581" lon="5.85567">
        <ele>446</ele>
        <time>2019-03-03T15:08:45Z</time>
      </trkpt>
      <trkpt lat="43.38523" lon="5.85614">
        <ele>452</ele>
        <time>2019-03-03T15:08:35Z</time>
      </trkpt>
      <trkpt lat="43.3848" lon="5.8564">
        <ele>460</ele>
        <time>2019-03-03T15:08:20Z</time>
      </trkpt>
      <trkpt lat="43.38442" lon="5.85667">
        <ele>463</ele>
        <time>2019-03-03T15:08:15Z</time>
      </trkpt>
      <trkpt lat="43.38392" lon="5.85686">
        <ele>467</ele>
        <time>2019-03-03T15:08:10Z</time>
      </trkpt>
      <trkpt lat="43.38368" lon="5.85743">
        <ele>468</ele>
        <time>2019-03-03T15:08:05Z</time>
      </trkpt>
      <trkpt lat="43.3834" lon="5.85822">
        <ele>474</ele>
        <time>2019-03-03T15:07:55Z</time>
      </trkpt>
      <trkpt lat="43.38302" lon="5.85863">
        <ele>479</ele>
        <time>2019-03-03T15:07:45Z</time>
      </trkpt>
      <trkpt lat="43.38265" lon="5.85941">
        <ele>483</ele>
        <time>2019-03-03T15:07:35Z</time>
      </trkpt>
      <trkpt lat="43.38226" lon="5.85979">
        <ele>493</ele>
        <time>2019-03-03T15:07:25Z</time>
      </trkpt>
      <trkpt lat="43.3819" lon="5.85992">
        <ele>501</ele>
        <time>2019-03-03T15:07:10Z</time>
      </trkpt>
      <trkpt lat="43.38129" lon="5.86053">
        <ele>517</ele>
        <time>2019-03-03T15:07:00Z</time>
      </trkpt>
      <trkpt lat="43.38039" lon="5.8609">
        <ele>523</ele>
        <time>2019-03-03T15:06:55Z</time>
      </trkpt>
      <trkpt lat="43.37923" lon="5.86095">
        <ele>538</ele>
        <time>2019-03-03T15:06:50Z</time>
      </trkpt>
      <trkpt lat="43.37863" lon="5.86067">
        <ele>541</ele>
        <time>2019-03-03T15:06:45Z</time>
      </trkpt>
      <trkpt lat="43.37824" lon="5.85987">
        <ele>552</ele>
        <time>2019-03-03T15:06:35Z</time>
      </trkpt>
      <trkpt lat="43.37782" lon="5.85823">
        <ele>559</ele>
        <time>2019-03-03T15:06:30Z</time>
      </trkpt>
      <trkpt lat="43.37764" lon="5.8571">
        <ele>568</ele>
        <time>2019-03-03T15:06:20Z</time>
      </trkpt>
      <trkpt lat="43.3775" lon="5.85653">
        <ele>570</ele>
        <time>2019-03-03T15:06:15Z</time>
      </trkpt>
      <trkpt lat="43.37725" lon="5.85632">
        <ele>566</ele>
        <time>2019-03-03T15:06:05Z</time>
      </trkpt>
      <trkpt lat="43.37729" lon="5.85707">
        <ele>511</ele>
        <time>2019-03-03T15:01:20Z</time>
      </trkpt>
      <trkpt lat="43.37716" lon="5.85733">
        <ele>511</ele>
        <time>2019-03-03T15:01:15Z</time>
      </trkpt>
      <trkpt lat="43.37704" lon="5.85747">
        <ele>512</ele>
        <time>2019-03-03T15:01:10Z</time>
      </trkpt>
      <trkpt lat="43.37699" lon="5.85865">
        <ele>514</ele>
        <time>2019-03-03T15:01:05Z</time>
      </trkpt>
      <trkpt lat="43.3771" lon="5.85964">
        <ele>514</ele>
        <time>2019-03-03T15:01:00Z</time>
      </trkpt>
      <trkpt lat="43.37728" lon="5.86088">
        <ele>515</ele>
        <time>2019-03-03T15:00:55Z</time>
      </trkpt>
      <trkpt lat="43.37722" lon="5.86237">
        <ele>517</ele>
        <time>2019-03-03T15:00:50Z</time>
      </trkpt>
      <trkpt lat="43.37692" lon="5.86288">
        <ele>519</ele>
        <time>2019-03-03T15:00:45Z</time>
      </trkpt>
      <trkpt lat="43.3765" lon="5.86331">
        <ele>519</ele>
        <time>2019-03-03T15:00:40Z</time>
      </trkpt>
      <trkpt lat="43.3761" lon="5.86594">
        <ele>520</ele>
        <time>2019-03-03T15:00:35Z</time>
      </trkpt>
      <trkpt lat="43.37598" lon="5.86777">
        <ele>521</ele>
        <time>2019-03-03T15:00:30Z</time>
      </trkpt>
      <trkpt lat="43.37443" lon="5.86946">
        <ele>520.80859375</ele>
      </trkpt>
      <trkpt lat="43.37435" lon="5.87056">
        <ele>514.19921875</ele>
      </trkpt>
      <trkpt lat="43.37437" lon="5.87188">
        <ele>518.16015625</ele>
      </trkpt>
      <trkpt lat="43.37393" lon="5.87253">
        <ele>522</ele>
      </trkpt>
      <trkpt lat="43.37379" lon="5.87175">
        <ele>522.76953125</ele>
      </trkpt>
      <trkpt lat="43.37347" lon="5.87109">
        <ele>524.52734375</ele>
      </trkpt>
      <trkpt lat="43.37342" lon="5.8696">
        <ele>530.1171875</ele>
      </trkpt>
      <trkpt lat="43.37326" lon="5.86815">
        <ele>536.2109375</ele>
      </trkpt>
      <trkpt lat="43.37325" lon="5.86735">
        <ele>539.53125</ele>
      </trkpt>
      <trkpt lat="43.37323" lon="5.86651">
        <ele>543.73046875</ele>
      </trkpt>
      <trkpt lat="43.37307" lon="5.86561">
        <ele>549.78125</ele>
      </trkpt>
      <trkpt lat="43.37286" lon="5.86487">
        <ele>549.28515625</ele>
      </trkpt>
      <trkpt lat="43.3726" lon="5.86409">
        <ele>549.171875</ele>
      </trkpt>
      <trkpt lat="43.37233" lon="5.86348">
        <ele>549.05078125</ele>
      </trkpt>
      <trkpt lat="43.37237" lon="5.86321">
        <ele>548.33203125</ele>
      </trkpt>
      <trkpt lat="43.37215" lon="5.86174">
        <ele>548.609375</ele>
      </trkpt>
      <trkpt lat="43.37214" lon="5.86068">
        <ele>550.02734375</ele>
      </trkpt>
      <trkpt lat="43.37196" lon="5.85968">
        <ele>549.58203125</ele>
      </trkpt>
      <trkpt lat="43.3718" lon="5.85896">
        <ele>549.82421875</ele>
      </trkpt>
      <trkpt lat="43.37164" lon="5.85824">
        <ele>549.96484375</ele>
      </trkpt>
      <trkpt lat="43.37151" lon="5.85776">
        <ele>550.86328125</ele>
      </trkpt>
      <trkpt lat="43.37128" lon="5.85768">
        <ele>551.93359375</ele>
      </trkpt>
      <trkpt lat="43.37105" lon="5.85753">
        <ele>552.03125</ele>
      </trkpt>
      <trkpt lat="43.37102" lon="5.85797">
        <ele>551.07421875</ele>
      </trkpt>
      <trkpt lat="43.37074" lon="5.85828">
        <ele>548.7890625</ele>
      </trkpt>
      <trkpt lat="43.37062" lon="5.85857">
        <ele>546.20703125</ele>
      </trkpt>
      <trkpt lat="43.37053" lon="5.85894">
        <ele>543.421875</ele>
      </trkpt>
      <trkpt lat="43.37033" lon="5.85889">
        <ele>540.640625</ele>
      </trkpt>
      <trkpt lat="43.37017" lon="5.85918">
        <ele>535.5234375</ele>
      </trkpt>
      <trkpt lat="43.36996" lon="5.85922">
        <ele>529.74609375</ele>
      </trkpt>
      <trkpt lat="43.36966" lon="5.85955">
        <ele>518.4765625</ele>
      </trkpt>
      <trkpt lat="43.36962" lon="5.86011">
        <ele>514.4765625</ele>
      </trkpt>
      <trkpt lat="43.3693" lon="5.86029">
        <ele>504.2890625</ele>
      </trkpt>
      <trkpt lat="43.36923" lon="5.86015">
        <ele>502.96875</ele>
      </trkpt>
      <trkpt lat="43.36915" lon="5.85959">
        <ele>504.09765625</ele>
      </trkpt>
      <trkpt lat="43.36885" lon="5.859">
        <ele>506.50390625</ele>
      </trkpt>
      <trkpt lat="43.3687" lon="5.85848">
        <ele>507.22265625</ele>
      </trkpt>
      <trkpt lat="43.36845" lon="5.85817">
        <ele>507.36328125</ele>
      </trkpt>
      <trkpt lat="43.36831" lon="5.85755">
        <ele>512.06640625</ele>
      </trkpt>
      <trkpt lat="43.36818" lon="5.8571">
        <ele>513.234375</ele>
      </trkpt>
      <trkpt lat="43.36807" lon="5.8564">
        <ele>513.7734375</ele>
      </trkpt>
      <trkpt lat="43.36802" lon="5.8558">
        <ele>516.46875</ele>
      </trkpt>
      <trkpt lat="43.36798" lon="5.85541">
        <ele>518.265625</ele>
      </trkpt>
      <trkpt lat="43.36804" lon="5.8547">
        <ele>521.80859375</ele>
      </trkpt>
      <trkpt lat="43.36849" lon="5.85436">
        <ele>534.60546875</ele>
      </trkpt>
      <trkpt lat="43.36889" lon="5.85375">
        <ele>539.609375</ele>
      </trkpt>
      <trkpt lat="43.36903" lon="5.85384">
        <ele>541.22265625</ele>
      </trkpt>
      <trkpt lat="43.36915" lon="5.85363">
        <ele>541.93359375</ele>
      </trkpt>
      <trkpt lat="43.36917" lon="5.85346">
        <ele>541.9375</ele>
      </trkpt>
      <trkpt lat="43.36954" lon="5.85362">
        <ele>540.66015625</ele>
      </trkpt>
      <trkpt lat="43.36973" lon="5.8539">
        <ele>540.296875</ele>
      </trkpt>
      <trkpt lat="43.37001" lon="5.85398">
        <ele>539.3359375</ele>
      </trkpt>
      <trkpt lat="43.37008" lon="5.8541">
        <ele>538.953125</ele>
      </trkpt>
      <trkpt lat="43.37032" lon="5.85415">
        <ele>537.98046875</ele>
      </trkpt>
      <trkpt lat="43.37118" lon="5.85489">
        <ele>537.484375</ele>
      </trkpt>
      <trkpt lat="43.37162" lon="5.85508">
        <ele>535.46875</ele>
      </trkpt>
      <trkpt lat="43.37215" lon="5.85532">
        <ele>532.57421875</ele>
      </trkpt>
      <trkpt lat="43.37253" lon="5.8554">
        <ele>532.140625</ele>
      </trkpt>
      <trkpt lat="43.37304" lon="5.85627">
        <ele>528.52734375</ele>
      </trkpt>
      <trkpt lat="43.37352" lon="5.85699">
        <ele>523.4140625</ele>
      </trkpt>
      <trkpt lat="43.37403" lon="5.85734">
        <ele>520.0625</ele>
      </trkpt>
      <trkpt lat="43.37449" lon="5.85778">
        <ele>520.7421875</ele>
      </trkpt>
      <trkpt lat="43.37497" lon="5.85788">
        <ele>520.8203125</ele>
      </trkpt>
      <trkpt lat="43.37526" lon="5.85761">
        <ele>518.734375</ele>
      </trkpt>
      <trkpt lat="43.37564" lon="5.85688">
        <ele>515.4296875</ele>
      </trkpt>
      <trkpt lat="43.37611" lon="5.85657">
        <ele>514.640625</ele>
      </trkpt>
      <trkpt lat="43.37662" lon="5.8564">
        <ele>512.546875</ele>
      </trkpt>
      <trkpt lat="43.37691" lon="5.85635">
        <ele>511.13671875</ele>
      </trkpt>
      <trkpt lat="43.37718" lon="5.85627">
        <ele>510.9921875</ele>
      </trkpt>
      <trkpt lat="43.37755" lon="5.85659">
        <ele>510.03125</ele>
      </trkpt>
      <trkpt lat="43.37775" lon="5.85698">
        <ele>512.91015625</ele>
      </trkpt>
      <trkpt lat="43.37796" lon="5.85773">
        <ele>508.00390625</ele>
      </trkpt>
      <trkpt lat="43.37826" lon="5.85851">
        <ele>502.45703125</ele>
      </trkpt>
      <trkpt lat="43.37862" lon="5.85922">
        <ele>494.3046875</ele>
      </trkpt>
      <trkpt lat="43.37907" lon="5.85988">
        <ele>480.72265625</ele>
      </trkpt>
      <trkpt lat="43.3795" lon="5.86013">
        <ele>471.73046875</ele>
      </trkpt>
      <trkpt lat="43.38018" lon="5.86001">
        <ele>472.0625</ele>
      </trkpt>
      <trkpt lat="43.38073" lon="5.85992">
        <ele>465.828125</ele>
      </trkpt>
      <trkpt lat="43.38138" lon="5.85942">
        <ele>459.9140625</ele>
      </trkpt>
      <trkpt lat="43.3818" lon="5.85867">
        <ele>458.1953125</ele>
      </trkpt>
      <trkpt lat="43.38219" lon="5.85801">
        <ele>453.0234375</ele>
      </trkpt>
      <trkpt lat="43.3825" lon="5.85714">
        <ele>449.67578125</ele>
      </trkpt>
      <trkpt lat="43.38271" lon="5.85645">
        <ele>450.80859375</ele>
      </trkpt>
      <trkpt lat="43.38339" lon="5.85609">
        <ele>443.8203125</ele>
      </trkpt>
      <trkpt lat="43.38393" lon="5.85603">
        <ele>439.5859375</ele>
      </trkpt>
      <trkpt lat="43.38445" lon="5.85619">
        <ele>431.38671875</ele>
      </trkpt>
      <trkpt lat="43.38482" lon="5.85632">
        <ele>423.6484375</ele>
      </trkpt>
      <trkpt lat="43.3854" lon="5.85579">
        <ele>421.734375</ele>
      </trkpt>
      <trkpt lat="43.38593" lon="5.85542">
        <ele>416.40234375</ele>
      </trkpt>
      <trkpt lat="43.3864" lon="5.85501">
        <ele>415.06640625</ele>
      </trkpt>
      <trkpt lat="43.38703" lon="5.85476">
        <ele>411.4921875</ele>
      </trkpt>
      <trkpt lat="43.38753" lon="5.85453">
        <ele>408.58984375</ele>
      </trkpt>
      <trkpt lat="43.38814" lon="5.854">
        <ele>402.7265625</ele>
      </trkpt>
      <trkpt lat="43.3884" lon="5.85324">
        <ele>398.36328125</ele>
      </trkpt>
      <trkpt lat="43.38846" lon="5.85176">
        <ele>396.96484375</ele>
      </trkpt>
      <trkpt lat="43.38855" lon="5.85126">
        <ele>394.0859375</ele>
      </trkpt>
      <trkpt lat="43.38913" lon="5.85119">
        <ele>385.4609375</ele>
      </trkpt>
      <trkpt lat="43.38974" lon="5.85132">
        <ele>380.515625</ele>
      </trkpt>
      <trkpt lat="43.39043" lon="5.85137">
        <ele>375.48046875</ele>
      </trkpt>
      <trkpt lat="43.39115" lon="5.85126">
        <ele>370.80859375</ele>
      </trkpt>
      <trkpt lat="43.39199" lon="5.85119">
        <ele>365.9296875</ele>
      </trkpt>
      <trkpt lat="43.39266" lon="5.85113">
        <ele>361.7109375</ele>
      </trkpt>
      <trkpt lat="43.39295" lon="5.85096">
        <ele>360.16796875</ele>
      </trkpt>
      <trkpt lat="43.39372" lon="5.85107">
        <ele>356.7109375</ele>
      </trkpt>
    </trkseg>
  </trk>
  <trk>
    <name><![CDATA[Les Harmelins et les ruines du Trou]]></name>
    <trkseg>
      <trkpt lat="43.52201" lon="5.54693">
        <ele>254</ele>
        <time>2018-05-07T06:53:14Z</time>
      </trkpt>
      <trkpt lat="43.52223" lon="5.54699">
        <ele>255</ele>
        <time>2018-05-07T06:53:46Z</time>
      </trkpt>
      <trkpt lat="43.52245" lon="5.54708">
        <ele>257</ele>
        <time>2018-05-07T06:54:10Z</time>
      </trkpt>
      <trkpt lat="43.52267" lon="5.54719">
        <ele>258</ele>
        <time>2018-05-07T06:54:32Z</time>
      </trkpt>
      <trkpt lat="43.52285" lon="5.54738">
        <ele>259</ele>
        <time>2018-05-07T06:54:56Z</time>
      </trkpt>
      <trkpt lat="43.52299" lon="5.54764">
        <ele>260</ele>
        <time>2018-05-07T06:55:15Z</time>
      </trkpt>
      <trkpt lat="43.52309" lon="5.54794">
        <ele>263</ele>
        <time>2018-05-07T06:55:37Z</time>
      </trkpt>
      <trkpt lat="43.52331" lon="5.54792">
        <ele>262</ele>
        <time>2018-05-07T06:56:02Z</time>
      </trkpt>
      <trkpt lat="43.52352" lon="5.54776">
        <ele>261</ele>
        <time>2018-05-07T06:56:22Z</time>
      </trkpt>
      <trkpt lat="43.52372" lon="5.54764">
        <ele>260</ele>
        <time>2018-05-07T06:56:43Z</time>
      </trkpt>
      <trkpt lat="43.52395" lon="5.54755">
        <ele>260</ele>
        <time>2018-05-07T06:57:00Z</time>
      </trkpt>
      <trkpt lat="43.52416" lon="5.54742">
        <ele>261</ele>
        <time>2018-05-07T06:57:18Z</time>
      </trkpt>
      <trkpt lat="43.52437" lon="5.54727">
        <ele>262</ele>
        <time>2018-05-07T06:57:36Z</time>
      </trkpt>
      <trkpt lat="43.52458" lon="5.54715">
        <ele>262</ele>
        <time>2018-05-07T06:57:58Z</time>
      </trkpt>
      <trkpt lat="43.52477" lon="5.54696">
        <ele>262</ele>
        <time>2018-05-07T06:58:12Z</time>
      </trkpt>
      <trkpt lat="43.52491" lon="5.54671">
        <ele>261</ele>
        <time>2018-05-07T06:58:32Z</time>
      </trkpt>
      <trkpt lat="43.52505" lon="5.54645">
        <ele>262</ele>
        <time>2018-05-07T06:58:52Z</time>
      </trkpt>
      <trkpt lat="43.5252" lon="5.5462">
        <ele>264</ele>
        <time>2018-05-07T06:59:09Z</time>
      </trkpt>
      <trkpt lat="43.52533" lon="5.54594">
        <ele>267</ele>
        <time>2018-05-07T06:59:26Z</time>
      </trkpt>
      <trkpt lat="43.52542" lon="5.54565">
        <ele>270</ele>
        <time>2018-05-07T06:59:45Z</time>
      </trkpt>
      <trkpt lat="43.52551" lon="5.54535">
        <ele>272</ele>
        <time>2018-05-07T07:00:02Z</time>
      </trkpt>
      <trkpt lat="43.52573" lon="5.54543">
        <ele>273</ele>
        <time>2018-05-07T07:00:47Z</time>
      </trkpt>
      <trkpt lat="43.52588" lon="5.54568">
        <ele>272</ele>
        <time>2018-05-07T07:01:17Z</time>
      </trkpt>
      <trkpt lat="43.52602" lon="5.54593">
        <ele>274</ele>
        <time>2018-05-07T07:01:35Z</time>
      </trkpt>
      <trkpt lat="43.52618" lon="5.54617">
        <ele>275</ele>
        <time>2018-05-07T07:01:51Z</time>
      </trkpt>
      <trkpt lat="43.52632" lon="5.54642">
        <ele>275</ele>
        <time>2018-05-07T07:02:11Z</time>
      </trkpt>
      <trkpt lat="43.52646" lon="5.54667">
        <ele>273</ele>
        <time>2018-05-07T07:02:28Z</time>
      </trkpt>
      <trkpt lat="43.52659" lon="5.54692">
        <ele>273</ele>
        <time>2018-05-07T07:02:47Z</time>
      </trkpt>
      <trkpt lat="43.5267" lon="5.5472">
        <ele>271</ele>
        <time>2018-05-07T07:03:04Z</time>
      </trkpt>
      <trkpt lat="43.52681" lon="5.54749">
        <ele>269</ele>
        <time>2018-05-07T07:03:20Z</time>
      </trkpt>
      <trkpt lat="43.52702" lon="5.54764">
        <ele>271</ele>
        <time>2018-05-07T07:03:37Z</time>
      </trkpt>
      <trkpt lat="43.52723" lon="5.54781">
        <ele>272</ele>
        <time>2018-05-07T07:04:25Z</time>
      </trkpt>
      <trkpt lat="43.52731" lon="5.5481">
        <ele>273</ele>
        <time>2018-05-07T07:05:07Z</time>
      </trkpt>
      <trkpt lat="43.52731" lon="5.54842">
        <ele>273</ele>
        <time>2018-05-07T07:05:30Z</time>
      </trkpt>
      <trkpt lat="43.52727" lon="5.54873">
        <ele>275</ele>
        <time>2018-05-07T07:06:02Z</time>
      </trkpt>
      <trkpt lat="43.52726" lon="5.54905">
        <ele>278</ele>
        <time>2018-05-07T07:06:57Z</time>
      </trkpt>
      <trkpt lat="43.52731" lon="5.54937">
        <ele>281</ele>
        <time>2018-05-07T07:07:16Z</time>
      </trkpt>
      <trkpt lat="43.52737" lon="5.54967">
        <ele>283</ele>
        <time>2018-05-07T07:07:35Z</time>
      </trkpt>
      <trkpt lat="43.52748" lon="5.54996">
        <ele>286</ele>
        <time>2018-05-07T07:07:57Z</time>
      </trkpt>
      <trkpt lat="43.5276" lon="5.55023">
        <ele>288</ele>
        <time>2018-05-07T07:08:19Z</time>
      </trkpt>
      <trkpt lat="43.52769" lon="5.55052">
        <ele>291</ele>
        <time>2018-05-07T07:08:39Z</time>
      </trkpt>
      <trkpt lat="43.52774" lon="5.55083">
        <ele>293</ele>
        <time>2018-05-07T07:09:00Z</time>
      </trkpt>
      <trkpt lat="43.52782" lon="5.55113">
        <ele>299</ele>
        <time>2018-05-07T07:09:53Z</time>
      </trkpt>
      <trkpt lat="43.5279" lon="5.55144">
        <ele>304</ele>
        <time>2018-05-07T07:10:14Z</time>
      </trkpt>
      <trkpt lat="43.52798" lon="5.55174">
        <ele>308</ele>
        <time>2018-05-07T07:10:36Z</time>
      </trkpt>
      <trkpt lat="43.52804" lon="5.55205">
        <ele>312</ele>
        <time>2018-05-07T07:10:58Z</time>
      </trkpt>
      <trkpt lat="43.52806" lon="5.55236">
        <ele>315</ele>
        <time>2018-05-07T07:11:19Z</time>
      </trkpt>
      <trkpt lat="43.52811" lon="5.55267">
        <ele>318</ele>
        <time>2018-05-07T07:11:42Z</time>
      </trkpt>
      <trkpt lat="43.52825" lon="5.55293">
        <ele>320</ele>
        <time>2018-05-07T07:12:03Z</time>
      </trkpt>
      <trkpt lat="43.52837" lon="5.5532">
        <ele>321</ele>
        <time>2018-05-07T07:12:29Z</time>
      </trkpt>
      <trkpt lat="43.5285" lon="5.55346">
        <ele>323</ele>
        <time>2018-05-07T07:12:54Z</time>
      </trkpt>
      <trkpt lat="43.52854" lon="5.55377">
        <ele>325</ele>
        <time>2018-05-07T07:13:17Z</time>
      </trkpt>
      <trkpt lat="43.52861" lon="5.55407">
        <ele>328</ele>
        <time>2018-05-07T07:13:37Z</time>
      </trkpt>
      <trkpt lat="43.52866" lon="5.55439">
        <ele>332</ele>
        <time>2018-05-07T07:13:56Z</time>
      </trkpt>
      <trkpt lat="43.52867" lon="5.55471">
        <ele>336</ele>
        <time>2018-05-07T07:14:15Z</time>
      </trkpt>
      <trkpt lat="43.52871" lon="5.55503">
        <ele>340</ele>
        <time>2018-05-07T07:14:34Z</time>
      </trkpt>
      <trkpt lat="43.52866" lon="5.55533">
        <ele>341</ele>
        <time>2018-05-07T07:14:50Z</time>
      </trkpt>
      <trkpt lat="43.52864" lon="5.55565">
        <ele>343</ele>
        <time>2018-05-07T07:15:09Z</time>
      </trkpt>
      <trkpt lat="43.52861" lon="5.55597">
        <ele>344</ele>
        <time>2018-05-07T07:15:26Z</time>
      </trkpt>
      <trkpt lat="43.52868" lon="5.55627">
        <ele>345</ele>
        <time>2018-05-07T07:15:46Z</time>
      </trkpt>
      <trkpt lat="43.52872" lon="5.55658">
        <ele>346</ele>
        <time>2018-05-07T07:16:36Z</time>
      </trkpt>
      <trkpt lat="43.52879" lon="5.55688">
        <ele>348</ele>
        <time>2018-05-07T07:16:58Z</time>
      </trkpt>
      <trkpt lat="43.52883" lon="5.55719">
        <ele>350</ele>
        <time>2018-05-07T07:17:20Z</time>
      </trkpt>
      <trkpt lat="43.52888" lon="5.55749">
        <ele>351</ele>
        <time>2018-05-07T07:17:40Z</time>
      </trkpt>
      <trkpt lat="43.52892" lon="5.5578">
        <ele>353</ele>
        <time>2018-05-07T07:17:59Z</time>
      </trkpt>
      <trkpt lat="43.52897" lon="5.55811">
        <ele>355</ele>
        <time>2018-05-07T07:18:18Z</time>
      </trkpt>
      <trkpt lat="43.52901" lon="5.55842">
        <ele>357</ele>
        <time>2018-05-07T07:18:36Z</time>
      </trkpt>
      <trkpt lat="43.52902" lon="5.55874">
        <ele>358</ele>
        <time>2018-05-07T07:18:55Z</time>
      </trkpt>
      <trkpt lat="43.52904" lon="5.55905">
        <ele>360</ele>
        <time>2018-05-07T07:19:15Z</time>
      </trkpt>
      <trkpt lat="43.52913" lon="5.55934">
        <ele>360</ele>
        <time>2018-05-07T07:19:33Z</time>
      </trkpt>
      <trkpt lat="43.52923" lon="5.55963">
        <ele>359</ele>
        <time>2018-05-07T07:19:52Z</time>
      </trkpt>
      <trkpt lat="43.52929" lon="5.55994">
        <ele>359</ele>
        <time>2018-05-07T07:20:09Z</time>
      </trkpt>
      <trkpt lat="43.52953" lon="5.55999">
        <ele>355</ele>
        <time>2018-05-07T07:21:18Z</time>
      </trkpt>
      <trkpt lat="43.52936" lon="5.56021">
        <ele>360</ele>
        <time>2018-05-07T07:29:48Z</time>
      </trkpt>
      <trkpt lat="43.52915" lon="5.56031">
        <ele>364</ele>
        <time>2018-05-07T07:30:38Z</time>
      </trkpt>
      <trkpt lat="43.52895" lon="5.56017">
        <ele>366</ele>
        <time>2018-05-07T07:31:17Z</time>
      </trkpt>
      <trkpt lat="43.52881" lon="5.55991">
        <ele>365</ele>
        <time>2018-05-07T07:31:40Z</time>
      </trkpt>
      <trkpt lat="43.52866" lon="5.55966">
        <ele>366</ele>
        <time>2018-05-07T07:31:59Z</time>
      </trkpt>
      <trkpt lat="43.52856" lon="5.55938">
        <ele>364</ele>
        <time>2018-05-07T07:32:17Z</time>
      </trkpt>
      <trkpt lat="43.52842" lon="5.55912">
        <ele>363</ele>
        <time>2018-05-07T07:32:32Z</time>
      </trkpt>
      <trkpt lat="43.52832" lon="5.55885">
        <ele>361</ele>
        <time>2018-05-07T07:32:47Z</time>
      </trkpt>
      <trkpt lat="43.52821" lon="5.55857">
        <ele>358</ele>
        <time>2018-05-07T07:33:14Z</time>
      </trkpt>
      <trkpt lat="43.52814" lon="5.55826">
        <ele>356</ele>
        <time>2018-05-07T07:33:33Z</time>
      </trkpt>
      <trkpt lat="43.52804" lon="5.55797">
        <ele>354</ele>
        <time>2018-05-07T07:33:50Z</time>
      </trkpt>
      <trkpt lat="43.52798" lon="5.55767">
        <ele>351</ele>
        <time>2018-05-07T07:34:07Z</time>
      </trkpt>
      <trkpt lat="43.5279" lon="5.55736">
        <ele>351</ele>
        <time>2018-05-07T07:34:24Z</time>
      </trkpt>
      <trkpt lat="43.52777" lon="5.55741">
        <ele>351</ele>
        <time>2018-05-07T07:36:10Z</time>
      </trkpt>
      <trkpt lat="43.52781" lon="5.55772">
        <ele>352</ele>
        <time>2018-05-07T07:38:09Z</time>
      </trkpt>
      <trkpt lat="43.52786" lon="5.55803">
        <ele>354</ele>
        <time>2018-05-07T07:38:53Z</time>
      </trkpt>
      <trkpt lat="43.52793" lon="5.55833">
        <ele>356</ele>
        <time>2018-05-07T07:39:39Z</time>
      </trkpt>
      <trkpt lat="43.52794" lon="5.55864">
        <ele>358</ele>
        <time>2018-05-07T07:40:01Z</time>
      </trkpt>
      <trkpt lat="43.52798" lon="5.55896">
        <ele>359</ele>
        <time>2018-05-07T07:40:22Z</time>
      </trkpt>
      <trkpt lat="43.52801" lon="5.55928">
        <ele>362</ele>
        <time>2018-05-07T07:40:44Z</time>
      </trkpt>
      <trkpt lat="43.52804" lon="5.55959">
        <ele>364</ele>
        <time>2018-05-07T07:41:06Z</time>
      </trkpt>
      <trkpt lat="43.52806" lon="5.55992">
        <ele>367</ele>
        <time>2018-05-07T07:41:31Z</time>
      </trkpt>
      <trkpt lat="43.5281" lon="5.56023">
        <ele>370</ele>
        <time>2018-05-07T07:42:12Z</time>
      </trkpt>
      <trkpt lat="43.52816" lon="5.56053">
        <ele>374</ele>
        <time>2018-05-07T07:42:36Z</time>
      </trkpt>
      <trkpt lat="43.52818" lon="5.56085">
        <ele>377</ele>
        <time>2018-05-07T07:43:26Z</time>
      </trkpt>
      <trkpt lat="43.52824" lon="5.56117">
        <ele>383</ele>
        <time>2018-05-07T07:43:47Z</time>
      </trkpt>
      <trkpt lat="43.52833" lon="5.56145">
        <ele>390</ele>
        <time>2018-05-07T07:44:12Z</time>
      </trkpt>
      <trkpt lat="43.5284" lon="5.56176">
        <ele>393</ele>
        <time>2018-05-07T07:44:37Z</time>
      </trkpt>
      <trkpt lat="43.52854" lon="5.56201">
        <ele>393</ele>
        <time>2018-05-07T07:45:07Z</time>
      </trkpt>
      <trkpt lat="43.52863" lon="5.5623">
        <ele>394</ele>
        <time>2018-05-07T07:45:40Z</time>
      </trkpt>
      <trkpt lat="43.52864" lon="5.56262">
        <ele>396</ele>
        <time>2018-05-07T07:46:02Z</time>
      </trkpt>
      <trkpt lat="43.5286" lon="5.56294">
        <ele>398</ele>
        <time>2018-05-07T07:46:25Z</time>
      </trkpt>
      <trkpt lat="43.52863" lon="5.56325">
        <ele>400</ele>
        <time>2018-05-07T07:46:44Z</time>
      </trkpt>
      <trkpt lat="43.52869" lon="5.56357">
        <ele>402</ele>
        <time>2018-05-07T07:47:03Z</time>
      </trkpt>
      <trkpt lat="43.52873" lon="5.56389">
        <ele>404</ele>
        <time>2018-05-07T07:47:23Z</time>
      </trkpt>
      <trkpt lat="43.52878" lon="5.56419">
        <ele>406</ele>
        <time>2018-05-07T07:47:42Z</time>
      </trkpt>
      <trkpt lat="43.52888" lon="5.56447">
        <ele>409</ele>
        <time>2018-05-07T07:48:22Z</time>
      </trkpt>
      <trkpt lat="43.52895" lon="5.56476">
        <ele>412</ele>
        <time>2018-05-07T07:48:42Z</time>
      </trkpt>
      <trkpt lat="43.52906" lon="5.56505">
        <ele>417</ele>
        <time>2018-05-07T07:49:01Z</time>
      </trkpt>
      <trkpt lat="43.52918" lon="5.56532">
        <ele>422</ele>
        <time>2018-05-07T07:49:22Z</time>
      </trkpt>
      <trkpt lat="43.52917" lon="5.56564">
        <ele>425</ele>
        <time>2018-05-07T07:49:44Z</time>
      </trkpt>
      <trkpt lat="43.5291" lon="5.56594">
        <ele>426</ele>
        <time>2018-05-07T07:50:01Z</time>
      </trkpt>
      <trkpt lat="43.52903" lon="5.56625">
        <ele>426</ele>
        <time>2018-05-07T07:50:17Z</time>
      </trkpt>
      <trkpt lat="43.52895" lon="5.56654">
        <ele>427</ele>
        <time>2018-05-07T07:50:34Z</time>
      </trkpt>
      <trkpt lat="43.52892" lon="5.56685">
        <ele>428</ele>
        <time>2018-05-07T07:50:58Z</time>
      </trkpt>
      <trkpt lat="43.52893" lon="5.56717">
        <ele>429</ele>
        <time>2018-05-07T07:51:22Z</time>
      </trkpt>
      <trkpt lat="43.52894" lon="5.56749">
        <ele>430</ele>
        <time>2018-05-07T07:51:41Z</time>
      </trkpt>
      <trkpt lat="43.52894" lon="5.5678">
        <ele>431</ele>
        <time>2018-05-07T07:51:58Z</time>
      </trkpt>
      <trkpt lat="43.52886" lon="5.5681">
        <ele>431</ele>
        <time>2018-05-07T07:52:18Z</time>
      </trkpt>
      <trkpt lat="43.52879" lon="5.56841">
        <ele>431</ele>
        <time>2018-05-07T07:52:36Z</time>
      </trkpt>
      <trkpt lat="43.52881" lon="5.56873">
        <ele>433</ele>
        <time>2018-05-07T07:52:54Z</time>
      </trkpt>
      <trkpt lat="43.52883" lon="5.56905">
        <ele>435</ele>
        <time>2018-05-07T07:53:16Z</time>
      </trkpt>
      <trkpt lat="43.52886" lon="5.56936">
        <ele>439</ele>
        <time>2018-05-07T07:53:54Z</time>
      </trkpt>
      <trkpt lat="43.52882" lon="5.56967">
        <ele>443</ele>
        <time>2018-05-07T07:54:27Z</time>
      </trkpt>
      <trkpt lat="43.5286" lon="5.5698">
        <ele>444</ele>
        <time>2018-05-07T07:59:39Z</time>
      </trkpt>
      <trkpt lat="43.52863" lon="5.57011">
        <ele>448</ele>
        <time>2018-05-07T08:02:19Z</time>
      </trkpt>
      <trkpt lat="43.52877" lon="5.57035">
        <ele>450</ele>
        <time>2018-05-07T08:09:35Z</time>
      </trkpt>
      <trkpt lat="43.52886" lon="5.57064">
        <ele>453</ele>
        <time>2018-05-07T08:10:42Z</time>
      </trkpt>
      <trkpt lat="43.52877" lon="5.57093">
        <ele>454</ele>
        <time>2018-05-07T08:11:04Z</time>
      </trkpt>
      <trkpt lat="43.52865" lon="5.5712">
        <ele>453</ele>
        <time>2018-05-07T08:11:30Z</time>
      </trkpt>
      <trkpt lat="43.52855" lon="5.57148">
        <ele>452</ele>
        <time>2018-05-07T08:11:52Z</time>
      </trkpt>
      <trkpt lat="43.52838" lon="5.5717">
        <ele>448</ele>
        <time>2018-05-07T08:12:09Z</time>
      </trkpt>
      <trkpt lat="43.52821" lon="5.57192">
        <ele>445</ele>
        <time>2018-05-07T08:12:25Z</time>
      </trkpt>
      <trkpt lat="43.52805" lon="5.57214">
        <ele>442</ele>
        <time>2018-05-07T08:12:44Z</time>
      </trkpt>
      <trkpt lat="43.52793" lon="5.5724">
        <ele>441</ele>
        <time>2018-05-07T08:14:22Z</time>
      </trkpt>
      <trkpt lat="43.52785" lon="5.5727">
        <ele>440</ele>
        <time>2018-05-07T08:14:51Z</time>
      </trkpt>
      <trkpt lat="43.52767" lon="5.57291">
        <ele>436</ele>
        <time>2018-05-07T08:17:00Z</time>
      </trkpt>
      <trkpt lat="43.52753" lon="5.57267">
        <ele>431</ele>
        <time>2018-05-07T08:17:32Z</time>
      </trkpt>
      <trkpt lat="43.52739" lon="5.57242">
        <ele>425</ele>
        <time>2018-05-07T08:17:57Z</time>
      </trkpt>
      <trkpt lat="43.52738" lon="5.57211">
        <ele>422</ele>
        <time>2018-05-07T08:18:16Z</time>
      </trkpt>
      <trkpt lat="43.52736" lon="5.5718">
        <ele>419</ele>
        <time>2018-05-07T08:18:35Z</time>
      </trkpt>
      <trkpt lat="43.52727" lon="5.5715">
        <ele>416</ele>
        <time>2018-05-07T08:18:54Z</time>
      </trkpt>
      <trkpt lat="43.52729" lon="5.57118">
        <ele>416</ele>
        <time>2018-05-07T08:19:12Z</time>
      </trkpt>
      <trkpt lat="43.52729" lon="5.57087">
        <ele>416</ele>
        <time>2018-05-07T08:19:30Z</time>
      </trkpt>
      <trkpt lat="43.52716" lon="5.57061">
        <ele>413</ele>
        <time>2018-05-07T08:19:47Z</time>
      </trkpt>
      <trkpt lat="43.52701" lon="5.57037">
        <ele>411</ele>
        <time>2018-05-07T08:20:13Z</time>
      </trkpt>
      <trkpt lat="43.52694" lon="5.57007">
        <ele>410</ele>
        <time>2018-05-07T08:21:29Z</time>
      </trkpt>
      <trkpt lat="43.52686" lon="5.56977">
        <ele>407</ele>
        <time>2018-05-07T08:22:24Z</time>
      </trkpt>
      <trkpt lat="43.52693" lon="5.56947">
        <ele>406</ele>
        <time>2018-05-07T08:22:58Z</time>
      </trkpt>
      <trkpt lat="43.52704" lon="5.5692">
        <ele>407</ele>
        <time>2018-05-07T08:23:17Z</time>
      </trkpt>
      <trkpt lat="43.52705" lon="5.56888">
        <ele>405</ele>
        <time>2018-05-07T08:23:34Z</time>
      </trkpt>
      <trkpt lat="43.52693" lon="5.56862">
        <ele>400</ele>
        <time>2018-05-07T08:25:24Z</time>
      </trkpt>
      <trkpt lat="43.52671" lon="5.56848">
        <ele>396</ele>
        <time>2018-05-07T08:25:41Z</time>
      </trkpt>
      <trkpt lat="43.52653" lon="5.56827">
        <ele>389</ele>
        <time>2018-05-07T08:26:00Z</time>
      </trkpt>
      <trkpt lat="43.5266" lon="5.56797">
        <ele>388</ele>
        <time>2018-05-07T08:26:25Z</time>
      </trkpt>
      <trkpt lat="43.52648" lon="5.56769">
        <ele>381</ele>
        <time>2018-05-07T08:26:55Z</time>
      </trkpt>
      <trkpt lat="43.52626" lon="5.56772">
        <ele>375</ele>
        <time>2018-05-07T08:27:19Z</time>
      </trkpt>
      <trkpt lat="43.52606" lon="5.56788">
        <ele>371</ele>
        <time>2018-05-07T08:27:38Z</time>
      </trkpt>
      <trkpt lat="43.52596" lon="5.56758">
        <ele>365</ele>
        <time>2018-05-07T08:28:09Z</time>
      </trkpt>
      <trkpt lat="43.52594" lon="5.56727">
        <ele>363</ele>
        <time>2018-05-07T08:28:29Z</time>
      </trkpt>
      <trkpt lat="43.5259" lon="5.56695">
        <ele>360</ele>
        <time>2018-05-07T08:30:35Z</time>
      </trkpt>
      <trkpt lat="43.52589" lon="5.56663">
        <ele>358</ele>
        <time>2018-05-07T08:30:54Z</time>
      </trkpt>
      <trkpt lat="43.52575" lon="5.56637">
        <ele>355</ele>
        <time>2018-05-07T08:31:13Z</time>
      </trkpt>
      <trkpt lat="43.5256" lon="5.56613">
        <ele>352</ele>
        <time>2018-05-07T08:33:08Z</time>
      </trkpt>
      <trkpt lat="43.52562" lon="5.56581">
        <ele>352</ele>
        <time>2018-05-07T08:33:26Z</time>
      </trkpt>
      <trkpt lat="43.52564" lon="5.56548">
        <ele>351</ele>
        <time>2018-05-07T08:33:44Z</time>
      </trkpt>
      <trkpt lat="43.52569" lon="5.56518">
        <ele>351</ele>
        <time>2018-05-07T08:34:02Z</time>
      </trkpt>
      <trkpt lat="43.52579" lon="5.56489">
        <ele>351</ele>
        <time>2018-05-07T08:34:20Z</time>
      </trkpt>
      <trkpt lat="43.52583" lon="5.56457">
        <ele>350</ele>
        <time>2018-05-07T08:34:39Z</time>
      </trkpt>
      <trkpt lat="43.52602" lon="5.56437">
        <ele>351</ele>
        <time>2018-05-07T08:34:55Z</time>
      </trkpt>
      <trkpt lat="43.52621" lon="5.5642">
        <ele>352</ele>
        <time>2018-05-07T08:35:11Z</time>
      </trkpt>
      <trkpt lat="43.52643" lon="5.56429">
        <ele>356</ele>
        <time>2018-05-07T08:35:32Z</time>
      </trkpt>
      <trkpt lat="43.52654" lon="5.56401">
        <ele>355</ele>
        <time>2018-05-07T08:35:58Z</time>
      </trkpt>
      <trkpt lat="43.52647" lon="5.56371">
        <ele>352</ele>
        <time>2018-05-07T08:37:37Z</time>
      </trkpt>
      <trkpt lat="43.52641" lon="5.5634">
        <ele>348</ele>
        <time>2018-05-07T08:37:58Z</time>
      </trkpt>
      <trkpt lat="43.52641" lon="5.56309">
        <ele>346</ele>
        <time>2018-05-07T08:38:58Z</time>
      </trkpt>
      <trkpt lat="43.52639" lon="5.56277">
        <ele>343</ele>
        <time>2018-05-07T08:39:40Z</time>
      </trkpt>
      <trkpt lat="43.52637" lon="5.56246">
        <ele>341</ele>
        <time>2018-05-07T08:40:01Z</time>
      </trkpt>
      <trkpt lat="43.52637" lon="5.56214">
        <ele>339</ele>
        <time>2018-05-07T08:40:22Z</time>
      </trkpt>
      <trkpt lat="43.52638" lon="5.56182">
        <ele>337</ele>
        <time>2018-05-07T08:40:43Z</time>
      </trkpt>
      <trkpt lat="43.5264" lon="5.5615">
        <ele>334</ele>
        <time>2018-05-07T08:41:04Z</time>
      </trkpt>
      <trkpt lat="43.52637" lon="5.5612">
        <ele>332</ele>
        <time>2018-05-07T08:41:23Z</time>
      </trkpt>
      <trkpt lat="43.52635" lon="5.56087">
        <ele>329</ele>
        <time>2018-05-07T08:41:42Z</time>
      </trkpt>
      <trkpt lat="43.52628" lon="5.56058">
        <ele>329</ele>
        <time>2018-05-07T08:42:00Z</time>
      </trkpt>
      <trkpt lat="43.52615" lon="5.56032">
        <ele>328</ele>
        <time>2018-05-07T08:42:18Z</time>
      </trkpt>
      <trkpt lat="43.52618" lon="5.56">
        <ele>328</ele>
        <time>2018-05-07T08:42:37Z</time>
      </trkpt>
      <trkpt lat="43.52636" lon="5.55982">
        <ele>329</ele>
        <time>2018-05-07T08:42:55Z</time>
      </trkpt>
      <trkpt lat="43.52656" lon="5.55965">
        <ele>331</ele>
        <time>2018-05-07T08:43:16Z</time>
      </trkpt>
      <trkpt lat="43.5265" lon="5.55935">
        <ele>329</ele>
        <time>2018-05-07T08:43:35Z</time>
      </trkpt>
      <trkpt lat="43.52643" lon="5.55903">
        <ele>327</ele>
        <time>2018-05-07T08:43:54Z</time>
      </trkpt>
      <trkpt lat="43.52638" lon="5.55873">
        <ele>326</ele>
        <time>2018-05-07T08:46:35Z</time>
      </trkpt>
      <trkpt lat="43.52627" lon="5.55845">
        <ele>323</ele>
        <time>2018-05-07T08:46:58Z</time>
      </trkpt>
      <trkpt lat="43.52613" lon="5.55819">
        <ele>322</ele>
        <time>2018-05-07T08:47:17Z</time>
      </trkpt>
      <trkpt lat="43.52596" lon="5.55796">
        <ele>320</ele>
        <time>2018-05-07T08:47:52Z</time>
      </trkpt>
      <trkpt lat="43.52575" lon="5.55782">
        <ele>319</ele>
        <time>2018-05-07T08:48:06Z</time>
      </trkpt>
      <trkpt lat="43.52562" lon="5.55756">
        <ele>319</ele>
        <time>2018-05-07T08:48:24Z</time>
      </trkpt>
      <trkpt lat="43.52551" lon="5.55729">
        <ele>319</ele>
        <time>2018-05-07T08:48:42Z</time>
      </trkpt>
      <trkpt lat="43.52545" lon="5.557">
        <ele>318</ele>
        <time>2018-05-07T08:48:59Z</time>
      </trkpt>
      <trkpt lat="43.52531" lon="5.55673">
        <ele>315</ele>
        <time>2018-05-07T08:49:20Z</time>
      </trkpt>
      <trkpt lat="43.52516" lon="5.5565">
        <ele>311</ele>
        <time>2018-05-07T08:51:37Z</time>
      </trkpt>
      <trkpt lat="43.525" lon="5.55627">
        <ele>307</ele>
        <time>2018-05-07T08:51:58Z</time>
      </trkpt>
      <trkpt lat="43.52491" lon="5.55597">
        <ele>304</ele>
        <time>2018-05-07T08:52:18Z</time>
      </trkpt>
      <trkpt lat="43.52476" lon="5.55574">
        <ele>302</ele>
        <time>2018-05-07T08:53:56Z</time>
      </trkpt>
      <trkpt lat="43.52464" lon="5.55547">
        <ele>302</ele>
        <time>2018-05-07T08:54:18Z</time>
      </trkpt>
      <trkpt lat="43.5246" lon="5.55516">
        <ele>303</ele>
        <time>2018-05-07T08:54:34Z</time>
      </trkpt>
      <trkpt lat="43.5246" lon="5.55484">
        <ele>304</ele>
        <time>2018-05-07T08:54:59Z</time>
      </trkpt>
      <trkpt lat="43.52457" lon="5.55452">
        <ele>304</ele>
        <time>2018-05-07T08:55:18Z</time>
      </trkpt>
      <trkpt lat="43.52453" lon="5.55421">
        <ele>303</ele>
        <time>2018-05-07T08:55:37Z</time>
      </trkpt>
      <trkpt lat="43.52434" lon="5.55403">
        <ele>299</ele>
        <time>2018-05-07T08:55:55Z</time>
      </trkpt>
      <trkpt lat="43.52416" lon="5.55382">
        <ele>294</ele>
        <time>2018-05-07T08:56:16Z</time>
      </trkpt>
      <trkpt lat="43.52397" lon="5.55364">
        <ele>291</ele>
        <time>2018-05-07T08:56:35Z</time>
      </trkpt>
      <trkpt lat="43.52379" lon="5.55343">
        <ele>289</ele>
        <time>2018-05-07T08:56:53Z</time>
      </trkpt>
      <trkpt lat="43.52365" lon="5.55317">
        <ele>287</ele>
        <time>2018-05-07T08:57:30Z</time>
      </trkpt>
      <trkpt lat="43.52354" lon="5.55289">
        <ele>285</ele>
        <time>2018-05-07T08:58:48Z</time>
      </trkpt>
      <trkpt lat="43.52362" lon="5.55259">
        <ele>284</ele>
        <time>2018-05-07T08:59:06Z</time>
      </trkpt>
      <trkpt lat="43.52358" lon="5.55227">
        <ele>282</ele>
        <time>2018-05-07T08:59:29Z</time>
      </trkpt>
      <trkpt lat="43.5234" lon="5.55205">
        <ele>278</ele>
        <time>2018-05-07T08:59:52Z</time>
      </trkpt>
      <trkpt lat="43.52318" lon="5.55198">
        <ele>274</ele>
        <time>2018-05-07T09:00:12Z</time>
      </trkpt>
      <trkpt lat="43.52295" lon="5.55199">
        <ele>272</ele>
        <time>2018-05-07T09:00:32Z</time>
      </trkpt>
      <trkpt lat="43.52273" lon="5.55191">
        <ele>269</ele>
        <time>2018-05-07T09:00:49Z</time>
      </trkpt>
      <trkpt lat="43.52281" lon="5.55161">
        <ele>269</ele>
        <time>2018-05-07T09:02:45Z</time>
      </trkpt>
      <trkpt lat="43.52303" lon="5.55152">
        <ele>271</ele>
        <time>2018-05-07T09:03:01Z</time>
      </trkpt>
      <trkpt lat="43.52323" lon="5.55136">
        <ele>274</ele>
        <time>2018-05-07T09:03:19Z</time>
      </trkpt>
      <trkpt lat="43.52344" lon="5.55123">
        <ele>278</ele>
        <time>2018-05-07T09:03:40Z</time>
      </trkpt>
      <trkpt lat="43.52364" lon="5.55107">
        <ele>283</ele>
        <time>2018-05-07T09:04:05Z</time>
      </trkpt>
      <trkpt lat="43.52374" lon="5.55078">
        <ele>288</ele>
        <time>2018-05-07T09:05:10Z</time>
      </trkpt>
      <trkpt lat="43.52381" lon="5.55049">
        <ele>290</ele>
        <time>2018-05-07T09:05:31Z</time>
      </trkpt>
      <trkpt lat="43.52379" lon="5.55016">
        <ele>292</ele>
        <time>2018-05-07T09:05:51Z</time>
      </trkpt>
      <trkpt lat="43.52385" lon="5.54986">
        <ele>292</ele>
        <time>2018-05-07T09:06:43Z</time>
      </trkpt>
      <trkpt lat="43.52362" lon="5.54978">
        <ele>289</ele>
        <time>2018-05-07T09:08:19Z</time>
      </trkpt>
      <trkpt lat="43.52341" lon="5.54968">
        <ele>286</ele>
        <time>2018-05-07T09:08:43Z</time>
      </trkpt>
      <trkpt lat="43.52319" lon="5.54977">
        <ele>283</ele>
        <time>2018-05-07T09:09:07Z</time>
      </trkpt>
      <trkpt lat="43.52341" lon="5.54967">
        <ele>286</ele>
        <time>2018-05-07T09:11:45Z</time>
      </trkpt>
      <trkpt lat="43.52362" lon="5.54978">
        <ele>289</ele>
        <time>2018-05-07T09:13:19Z</time>
      </trkpt>
      <trkpt lat="43.52354" lon="5.54948">
        <ele>286</ele>
        <time>2018-05-07T09:14:07Z</time>
      </trkpt>
      <trkpt lat="43.52345" lon="5.5492">
        <ele>283</ele>
        <time>2018-05-07T09:14:24Z</time>
      </trkpt>
      <trkpt lat="43.52339" lon="5.5489">
        <ele>278</ele>
        <time>2018-05-07T09:14:43Z</time>
      </trkpt>
      <trkpt lat="43.52317" lon="5.54878">
        <ele>274</ele>
        <time>2018-05-07T09:15:02Z</time>
      </trkpt>
      <trkpt lat="43.52294" lon="5.54867">
        <ele>270</ele>
        <time>2018-05-07T09:15:21Z</time>
      </trkpt>
      <trkpt lat="43.5228" lon="5.54841">
        <ele>267</ele>
        <time>2018-05-07T09:15:40Z</time>
      </trkpt>
      <trkpt lat="43.52266" lon="5.54815">
        <ele>265</ele>
        <time>2018-05-07T09:15:57Z</time>
      </trkpt>
      <trkpt lat="43.52253" lon="5.5479">
        <ele>264</ele>
        <time>2018-05-07T09:16:12Z</time>
      </trkpt>
      <trkpt lat="43.52239" lon="5.54766">
        <ele>262</ele>
        <time>2018-05-07T09:16:30Z</time>
      </trkpt>
      <trkpt lat="43.52217" lon="5.54756">
        <ele>261</ele>
        <time>2018-05-07T09:16:45Z</time>
      </trkpt>
      <trkpt lat="43.52194" lon="5.54762">
        <ele>261</ele>
        <time>2018-05-07T09:17:03Z</time>
      </trkpt>
      <trkpt lat="43.52172" lon="5.54775">
        <ele>260</ele>
        <time>2018-05-07T09:17:20Z</time>
      </trkpt>
      <trkpt lat="43.52179" lon="5.54805">
        <ele>260</ele>
        <time>2018-05-07T09:17:36Z</time>
      </trkpt>
      <trkpt lat="43.52155" lon="5.54802">
        <ele>257</ele>
        <time>2018-05-07T09:17:58Z</time>
      </trkpt>
      <trkpt lat="43.52142" lon="5.54776">
        <ele>256</ele>
        <time>2018-05-07T09:18:16Z</time>
      </trkpt>
      <trkpt lat="43.5213" lon="5.54747">
        <ele>254</ele>
        <time>2018-05-07T09:18:32Z</time>
      </trkpt>
      <trkpt lat="43.52129" lon="5.54715">
        <ele>252</ele>
        <time>2018-05-07T09:18:50Z</time>
      </trkpt>
      <trkpt lat="43.52134" lon="5.54683">
        <ele>249</ele>
        <time>2018-05-07T09:19:07Z</time>
      </trkpt>
      <trkpt lat="43.52156" lon="5.54675">
        <ele>250</ele>
        <time>2018-05-07T09:20:06Z</time>
      </trkpt>
      <trkpt lat="43.52177" lon="5.54662">
        <ele>250</ele>
        <time>2018-05-07T09:20:36Z</time>
      </trkpt>
      <trkpt lat="43.52199" lon="5.54672">
        <ele>251</ele>
        <time>2018-05-07T09:20:59Z</time>
      </trkpt>
    </trkseg>
  </trk>
  <trk>
    <name><![CDATA[Nans]]></name>
    <trkseg>
      <trkpt lat="43.36634" lon="5.78065">
        <ele>434</ele>
        <time>2019-01-04T13:24:23Z</time>
      </trkpt>
      <trkpt lat="43.36634" lon="5.78065">
        <ele>430</ele>
        <time>2019-01-04T13:24:40Z</time>
      </trkpt>
      <trkpt lat="43.36632" lon="5.7806">
        <ele>425</ele>
        <time>2019-01-04T13:24:44Z</time>
      </trkpt>
      <trkpt lat="43.36632" lon="5.78065">
        <ele>419</ele>
        <time>2019-01-04T13:25:10Z</time>
      </trkpt>
      <trkpt lat="43.36637" lon="5.78067">
        <ele>425</ele>
        <time>2019-01-04T13:25:14Z</time>
      </trkpt>
      <trkpt lat="43.36644" lon="5.78063">
        <ele>424</ele>
        <time>2019-01-04T13:25:15Z</time>
      </trkpt>
      <trkpt lat="43.36649" lon="5.78064">
        <ele>422</ele>
        <time>2019-01-04T13:25:40Z</time>
      </trkpt>
      <trkpt lat="43.36632" lon="5.78067">
        <ele>420</ele>
        <time>2019-01-04T13:25:44Z</time>
      </trkpt>
      <trkpt lat="43.36642" lon="5.78072">
        <ele>424</ele>
        <time>2019-01-04T13:25:45Z</time>
      </trkpt>
      <trkpt lat="43.36642" lon="5.78069">
        <ele>425</ele>
        <time>2019-01-04T13:26:10Z</time>
      </trkpt>
      <trkpt lat="43.36639" lon="5.78071">
        <ele>433</ele>
        <time>2019-01-04T13:26:14Z</time>
      </trkpt>
      <trkpt lat="43.36642" lon="5.78066">
        <ele>437</ele>
        <time>2019-01-04T13:26:21Z</time>
      </trkpt>
      <trkpt lat="43.36646" lon="5.7807">
        <ele>442</ele>
        <time>2019-01-04T13:26:35Z</time>
      </trkpt>
      <trkpt lat="43.36651" lon="5.78071">
        <ele>442</ele>
        <time>2019-01-04T13:26:40Z</time>
      </trkpt>
      <trkpt lat="43.36655" lon="5.78074">
        <ele>440</ele>
        <time>2019-01-04T13:26:47Z</time>
      </trkpt>
      <trkpt lat="43.3666" lon="5.78074">
        <ele>435</ele>
        <time>2019-01-04T13:26:52Z</time>
      </trkpt>
      <trkpt lat="43.36665" lon="5.78073">
        <ele>432</ele>
        <time>2019-01-04T13:26:58Z</time>
      </trkpt>
      <trkpt lat="43.36669" lon="5.78075">
        <ele>430</ele>
        <time>2019-01-04T13:27:05Z</time>
      </trkpt>
      <trkpt lat="43.36675" lon="5.78077">
        <ele>429</ele>
        <time>2019-01-04T13:27:12Z</time>
      </trkpt>
      <trkpt lat="43.36679" lon="5.78079">
        <ele>429</ele>
        <time>2019-01-04T13:27:17Z</time>
      </trkpt>
      <trkpt lat="43.36684" lon="5.78081">
        <ele>428</ele>
        <time>2019-01-04T13:27:23Z</time>
      </trkpt>
      <trkpt lat="43.36688" lon="5.78084">
        <ele>428</ele>
        <time>2019-01-04T13:27:28Z</time>
      </trkpt>
      <trkpt lat="43.36693" lon="5.78087">
        <ele>428</ele>
        <time>2019-01-04T13:27:33Z</time>
      </trkpt>
      <trkpt lat="43.36697" lon="5.78089">
        <ele>427</ele>
        <time>2019-01-04T13:27:37Z</time>
      </trkpt>
      <trkpt lat="43.36702" lon="5.78091">
        <ele>427</ele>
        <time>2019-01-04T13:27:42Z</time>
      </trkpt>
      <trkpt lat="43.36707" lon="5.78094">
        <ele>426</ele>
        <time>2019-01-04T13:27:48Z</time>
      </trkpt>
      <trkpt lat="43.36712" lon="5.78096">
        <ele>426</ele>
        <time>2019-01-04T13:27:54Z</time>
      </trkpt>
      <trkpt lat="43.36717" lon="5.78097">
        <ele>425</ele>
        <time>2019-01-04T13:28:02Z</time>
      </trkpt>
      <trkpt lat="43.36712" lon="5.78097">
        <ele>424</ele>
        <time>2019-01-04T13:28:19Z</time>
      </trkpt>
      <trkpt lat="43.36707" lon="5.78095">
        <ele>424</ele>
        <time>2019-01-04T13:28:24Z</time>
      </trkpt>
      <trkpt lat="43.36702" lon="5.78091">
        <ele>424</ele>
        <time>2019-01-04T13:28:30Z</time>
      </trkpt>
      <trkpt lat="43.36697" lon="5.78088">
        <ele>424</ele>
        <time>2019-01-04T13:28:36Z</time>
      </trkpt>
      <trkpt lat="43.36693" lon="5.78087">
        <ele>424</ele>
        <time>2019-01-04T13:28:41Z</time>
      </trkpt>
      <trkpt lat="43.36689" lon="5.78083">
        <ele>424</ele>
        <time>2019-01-04T13:28:47Z</time>
      </trkpt>
      <trkpt lat="43.36684" lon="5.7808">
        <ele>424</ele>
        <time>2019-01-04T13:28:52Z</time>
      </trkpt>
      <trkpt lat="43.36678" lon="5.78078">
        <ele>425</ele>
        <time>2019-01-04T13:28:57Z</time>
      </trkpt>
      <trkpt lat="43.36673" lon="5.78077">
        <ele>426</ele>
        <time>2019-01-04T13:29:02Z</time>
      </trkpt>
      <trkpt lat="43.36668" lon="5.78075">
        <ele>426</ele>
        <time>2019-01-04T13:29:07Z</time>
      </trkpt>
      <trkpt lat="43.36663" lon="5.78074">
        <ele>427</ele>
        <time>2019-01-04T13:29:12Z</time>
      </trkpt>
      <trkpt lat="43.36657" lon="5.78073">
        <ele>427</ele>
        <time>2019-01-04T13:29:17Z</time>
      </trkpt>
      <trkpt lat="43.36652" lon="5.78072">
        <ele>427</ele>
        <time>2019-01-04T13:29:22Z</time>
      </trkpt>
      <trkpt lat="43.36647" lon="5.78072">
        <ele>427</ele>
        <time>2019-01-04T13:29:27Z</time>
      </trkpt>
      <trkpt lat="43.36642" lon="5.78069">
        <ele>428</ele>
        <time>2019-01-04T13:29:32Z</time>
      </trkpt>
      <trkpt lat="43.36637" lon="5.78067">
        <ele>427</ele>
        <time>2019-01-04T13:29:40Z</time>
      </trkpt>
      <trkpt lat="43.36632" lon="5.78068">
        <ele>427</ele>
        <time>2019-01-04T13:29:46Z</time>
      </trkpt>
      <trkpt lat="43.36626" lon="5.78067">
        <ele>427</ele>
        <time>2019-01-04T13:29:51Z</time>
      </trkpt>
      <trkpt lat="43.36622" lon="5.78067">
        <ele>427</ele>
        <time>2019-01-04T13:29:57Z</time>
      </trkpt>
      <trkpt lat="43.36617" lon="5.78069">
        <ele>427</ele>
        <time>2019-01-04T13:30:02Z</time>
      </trkpt>
      <trkpt lat="43.36612" lon="5.78069">
        <ele>427</ele>
        <time>2019-01-04T13:30:07Z</time>
      </trkpt>
      <trkpt lat="43.36606" lon="5.78068">
        <ele>427</ele>
        <time>2019-01-04T13:30:12Z</time>
      </trkpt>
      <trkpt lat="43.36601" lon="5.78067">
        <ele>427</ele>
        <time>2019-01-04T13:30:17Z</time>
      </trkpt>
      <trkpt lat="43.36596" lon="5.78066">
        <ele>427</ele>
        <time>2019-01-04T13:30:22Z</time>
      </trkpt>
      <trkpt lat="43.36591" lon="5.78065">
        <ele>428</ele>
        <time>2019-01-04T13:30:28Z</time>
      </trkpt>
      <trkpt lat="43.36586" lon="5.78064">
        <ele>428</ele>
        <time>2019-01-04T13:30:34Z</time>
      </trkpt>
      <trkpt lat="43.36581" lon="5.78061">
        <ele>428</ele>
        <time>2019-01-04T13:30:38Z</time>
      </trkpt>
      <trkpt lat="43.36576" lon="5.78058">
        <ele>429</ele>
        <time>2019-01-04T13:30:42Z</time>
      </trkpt>
      <trkpt lat="43.36572" lon="5.78055">
        <ele>430</ele>
        <time>2019-01-04T13:30:46Z</time>
      </trkpt>
      <trkpt lat="43.36567" lon="5.78052">
        <ele>431</ele>
        <time>2019-01-04T13:30:50Z</time>
      </trkpt>
      <trkpt lat="43.36562" lon="5.7805">
        <ele>431</ele>
        <time>2019-01-04T13:30:53Z</time>
      </trkpt>
      <trkpt lat="43.36558" lon="5.78046">
        <ele>432</ele>
        <time>2019-01-04T13:30:57Z</time>
      </trkpt>
      <trkpt lat="43.36553" lon="5.78044">
        <ele>433</ele>
        <time>2019-01-04T13:31:01Z</time>
      </trkpt>
      <trkpt lat="43.36548" lon="5.78042">
        <ele>433</ele>
        <time>2019-01-04T13:31:05Z</time>
      </trkpt>
      <trkpt lat="43.36545" lon="5.78037">
        <ele>433</ele>
        <time>2019-01-04T13:31:08Z</time>
      </trkpt>
      <trkpt lat="43.36541" lon="5.78032">
        <ele>433</ele>
        <time>2019-01-04T13:31:12Z</time>
      </trkpt>
      <trkpt lat="43.36537" lon="5.78027">
        <ele>434</ele>
        <time>2019-01-04T13:31:18Z</time>
      </trkpt>
      <trkpt lat="43.36533" lon="5.78025">
        <ele>434</ele>
        <time>2019-01-04T13:31:21Z</time>
      </trkpt>
      <trkpt lat="43.36529" lon="5.78022">
        <ele>434</ele>
        <time>2019-01-04T13:31:26Z</time>
      </trkpt>
      <trkpt lat="43.36526" lon="5.78016">
        <ele>436</ele>
        <time>2019-01-04T13:31:33Z</time>
      </trkpt>
      <trkpt lat="43.36522" lon="5.78012">
        <ele>436</ele>
        <time>2019-01-04T13:31:38Z</time>
      </trkpt>
      <trkpt lat="43.36518" lon="5.78007">
        <ele>438</ele>
        <time>2019-01-04T13:31:43Z</time>
      </trkpt>
      <trkpt lat="43.36514" lon="5.78005">
        <ele>439</ele>
        <time>2019-01-04T13:31:47Z</time>
      </trkpt>
      <trkpt lat="43.36509" lon="5.78">
        <ele>441</ele>
        <time>2019-01-04T13:31:52Z</time>
      </trkpt>
      <trkpt lat="43.36505" lon="5.77995">
        <ele>442</ele>
        <time>2019-01-04T13:31:56Z</time>
      </trkpt>
      <trkpt lat="43.36503" lon="5.77989">
        <ele>443</ele>
        <time>2019-01-04T13:32:00Z</time>
      </trkpt>
      <trkpt lat="43.365" lon="5.77983">
        <ele>443</ele>
        <time>2019-01-04T13:32:05Z</time>
      </trkpt>
      <trkpt lat="43.36495" lon="5.7798">
        <ele>444</ele>
        <time>2019-01-04T13:32:09Z</time>
      </trkpt>
      <trkpt lat="43.36491" lon="5.77975">
        <ele>444</ele>
        <time>2019-01-04T13:32:14Z</time>
      </trkpt>
      <trkpt lat="43.36486" lon="5.77972">
        <ele>445</ele>
        <time>2019-01-04T13:32:19Z</time>
      </trkpt>
      <trkpt lat="43.36482" lon="5.77967">
        <ele>446</ele>
        <time>2019-01-04T13:32:25Z</time>
      </trkpt>
      <trkpt lat="43.36477" lon="5.77965">
        <ele>447</ele>
        <time>2019-01-04T13:32:32Z</time>
      </trkpt>
      <trkpt lat="43.36471" lon="5.77963">
        <ele>448</ele>
        <time>2019-01-04T13:32:38Z</time>
      </trkpt>
      <trkpt lat="43.36466" lon="5.77961">
        <ele>449</ele>
        <time>2019-01-04T13:32:43Z</time>
      </trkpt>
      <trkpt lat="43.36461" lon="5.77959">
        <ele>450</ele>
        <time>2019-01-04T13:32:48Z</time>
      </trkpt>
      <trkpt lat="43.36456" lon="5.77955">
        <ele>451</ele>
        <time>2019-01-04T13:32:53Z</time>
      </trkpt>
      <trkpt lat="43.36451" lon="5.77952">
        <ele>452</ele>
        <time>2019-01-04T13:32:59Z</time>
      </trkpt>
      <trkpt lat="43.36447" lon="5.77951">
        <ele>454</ele>
        <time>2019-01-04T13:33:05Z</time>
      </trkpt>
      <trkpt lat="43.36442" lon="5.77946">
        <ele>454</ele>
        <time>2019-01-04T13:33:09Z</time>
      </trkpt>
      <trkpt lat="43.36438" lon="5.77943">
        <ele>455</ele>
        <time>2019-01-04T13:33:13Z</time>
      </trkpt>
      <trkpt lat="43.36433" lon="5.7794">
        <ele>456</ele>
        <time>2019-01-04T13:33:17Z</time>
      </trkpt>
      <trkpt lat="43.36429" lon="5.77935">
        <ele>457</ele>
        <time>2019-01-04T13:33:24Z</time>
      </trkpt>
      <trkpt lat="43.36425" lon="5.77932">
        <ele>457</ele>
        <time>2019-01-04T13:33:30Z</time>
      </trkpt>
      <trkpt lat="43.36419" lon="5.77926">
        <ele>457</ele>
        <time>2019-01-04T13:33:36Z</time>
      </trkpt>
      <trkpt lat="43.36414" lon="5.77922">
        <ele>458</ele>
        <time>2019-01-04T13:33:42Z</time>
      </trkpt>
      <trkpt lat="43.36409" lon="5.7792">
        <ele>459</ele>
        <time>2019-01-04T13:33:46Z</time>
      </trkpt>
      <trkpt lat="43.36406" lon="5.77915">
        <ele>460</ele>
        <time>2019-01-04T13:33:51Z</time>
      </trkpt>
      <trkpt lat="43.36402" lon="5.77909">
        <ele>461</ele>
        <time>2019-01-04T13:33:57Z</time>
      </trkpt>
      <trkpt lat="43.36398" lon="5.77906">
        <ele>463</ele>
        <time>2019-01-04T13:34:00Z</time>
      </trkpt>
      <trkpt lat="43.36394" lon="5.77901">
        <ele>464</ele>
        <time>2019-01-04T13:34:04Z</time>
      </trkpt>
      <trkpt lat="43.36389" lon="5.77897">
        <ele>465</ele>
        <time>2019-01-04T13:34:09Z</time>
      </trkpt>
      <trkpt lat="43.36385" lon="5.77894">
        <ele>466</ele>
        <time>2019-01-04T13:34:14Z</time>
      </trkpt>
      <trkpt lat="43.36379" lon="5.77891">
        <ele>466</ele>
        <time>2019-01-04T13:34:18Z</time>
      </trkpt>
      <trkpt lat="43.36375" lon="5.77888">
        <ele>466</ele>
        <time>2019-01-04T13:34:22Z</time>
      </trkpt>
      <trkpt lat="43.36372" lon="5.77884">
        <ele>466</ele>
        <time>2019-01-04T13:34:26Z</time>
      </trkpt>
      <trkpt lat="43.36368" lon="5.77878">
        <ele>466</ele>
        <time>2019-01-04T13:34:30Z</time>
      </trkpt>
      <trkpt lat="43.36364" lon="5.77875">
        <ele>466</ele>
        <time>2019-01-04T13:34:34Z</time>
      </trkpt>
      <trkpt lat="43.36359" lon="5.7787">
        <ele>466</ele>
        <time>2019-01-04T13:34:39Z</time>
      </trkpt>
      <trkpt lat="43.36355" lon="5.77866">
        <ele>466</ele>
        <time>2019-01-04T13:34:43Z</time>
      </trkpt>
      <trkpt lat="43.36351" lon="5.77865">
        <ele>467</ele>
        <time>2019-01-04T13:34:48Z</time>
      </trkpt>
      <trkpt lat="43.36346" lon="5.77864">
        <ele>467</ele>
        <time>2019-01-04T13:34:51Z</time>
      </trkpt>
      <trkpt lat="43.36341" lon="5.77862">
        <ele>467</ele>
        <time>2019-01-04T13:34:55Z</time>
      </trkpt>
      <trkpt lat="43.36337" lon="5.77858">
        <ele>466</ele>
        <time>2019-01-04T13:35:00Z</time>
      </trkpt>
      <trkpt lat="43.36332" lon="5.77855">
        <ele>466</ele>
        <time>2019-01-04T13:35:05Z</time>
      </trkpt>
      <trkpt lat="43.36326" lon="5.77853">
        <ele>466</ele>
        <time>2019-01-04T13:35:11Z</time>
      </trkpt>
      <trkpt lat="43.36321" lon="5.77851">
        <ele>465</ele>
        <time>2019-01-04T13:35:15Z</time>
      </trkpt>
      <trkpt lat="43.36316" lon="5.7785">
        <ele>465</ele>
        <time>2019-01-04T13:35:19Z</time>
      </trkpt>
      <trkpt lat="43.36311" lon="5.77849">
        <ele>465</ele>
        <time>2019-01-04T13:35:24Z</time>
      </trkpt>
      <trkpt lat="43.36306" lon="5.77848">
        <ele>465</ele>
        <time>2019-01-04T13:35:29Z</time>
      </trkpt>
      <trkpt lat="43.36302" lon="5.77849">
        <ele>465</ele>
        <time>2019-01-04T13:35:32Z</time>
      </trkpt>
      <trkpt lat="43.36297" lon="5.77848">
        <ele>465</ele>
        <time>2019-01-04T13:35:36Z</time>
      </trkpt>
      <trkpt lat="43.36291" lon="5.77848">
        <ele>465</ele>
        <time>2019-01-04T13:35:40Z</time>
      </trkpt>
      <trkpt lat="43.36285" lon="5.77849">
        <ele>465</ele>
        <time>2019-01-04T13:35:45Z</time>
      </trkpt>
      <trkpt lat="43.3628" lon="5.77848">
        <ele>466</ele>
        <time>2019-01-04T13:35:50Z</time>
      </trkpt>
      <trkpt lat="43.36275" lon="5.77847">
        <ele>466</ele>
        <time>2019-01-04T13:35:55Z</time>
      </trkpt>
      <trkpt lat="43.36271" lon="5.77848">
        <ele>467</ele>
        <time>2019-01-04T13:35:58Z</time>
      </trkpt>
      <trkpt lat="43.36266" lon="5.77849">
        <ele>467</ele>
        <time>2019-01-04T13:36:02Z</time>
      </trkpt>
      <trkpt lat="43.3626" lon="5.7785">
        <ele>468</ele>
        <time>2019-01-04T13:36:07Z</time>
      </trkpt>
      <trkpt lat="43.36255" lon="5.77849">
        <ele>468</ele>
        <time>2019-01-04T13:36:12Z</time>
      </trkpt>
      <trkpt lat="43.36249" lon="5.7785">
        <ele>468</ele>
        <time>2019-01-04T13:36:17Z</time>
      </trkpt>
      <trkpt lat="43.36245" lon="5.77851">
        <ele>468</ele>
        <time>2019-01-04T13:36:20Z</time>
      </trkpt>
      <trkpt lat="43.36241" lon="5.77852">
        <ele>468</ele>
        <time>2019-01-04T13:36:36Z</time>
      </trkpt>
      <trkpt lat="43.36222" lon="5.77869">
        <ele>462</ele>
        <time>2019-01-04T13:36:40Z</time>
      </trkpt>
      <trkpt lat="43.36237" lon="5.77855">
        <ele>459</ele>
        <time>2019-01-04T13:36:42Z</time>
      </trkpt>
      <trkpt lat="43.36232" lon="5.77858">
        <ele>455</ele>
        <time>2019-01-04T13:37:00Z</time>
      </trkpt>
      <trkpt lat="43.36228" lon="5.77863">
        <ele>451</ele>
        <time>2019-01-04T13:37:05Z</time>
      </trkpt>
      <trkpt lat="43.36224" lon="5.77867">
        <ele>449</ele>
        <time>2019-01-04T13:37:11Z</time>
      </trkpt>
      <trkpt lat="43.36221" lon="5.77871">
        <ele>451</ele>
        <time>2019-01-04T13:37:18Z</time>
      </trkpt>
      <trkpt lat="43.36216" lon="5.77873">
        <ele>452</ele>
        <time>2019-01-04T13:37:25Z</time>
      </trkpt>
      <trkpt lat="43.36211" lon="5.77877">
        <ele>454</ele>
        <time>2019-01-04T13:37:47Z</time>
      </trkpt>
      <trkpt lat="43.36206" lon="5.77876">
        <ele>457</ele>
        <time>2019-01-04T13:37:53Z</time>
      </trkpt>
      <trkpt lat="43.36201" lon="5.77876">
        <ele>459</ele>
        <time>2019-01-04T13:37:57Z</time>
      </trkpt>
      <trkpt lat="43.36196" lon="5.77875">
        <ele>460</ele>
        <time>2019-01-04T13:38:01Z</time>
      </trkpt>
      <trkpt lat="43.3619" lon="5.77877">
        <ele>462</ele>
        <time>2019-01-04T13:38:05Z</time>
      </trkpt>
      <trkpt lat="43.36186" lon="5.77878">
        <ele>463</ele>
        <time>2019-01-04T13:38:09Z</time>
      </trkpt>
      <trkpt lat="43.3618" lon="5.77879">
        <ele>463</ele>
        <time>2019-01-04T13:38:14Z</time>
      </trkpt>
      <trkpt lat="43.36175" lon="5.7788">
        <ele>464</ele>
        <time>2019-01-04T13:38:18Z</time>
      </trkpt>
      <trkpt lat="43.36169" lon="5.77881">
        <ele>464</ele>
        <time>2019-01-04T13:38:23Z</time>
      </trkpt>
      <trkpt lat="43.36164" lon="5.77883">
        <ele>464</ele>
        <time>2019-01-04T13:38:27Z</time>
      </trkpt>
      <trkpt lat="43.3616" lon="5.77884">
        <ele>464</ele>
        <time>2019-01-04T13:38:31Z</time>
      </trkpt>
      <trkpt lat="43.36154" lon="5.77886">
        <ele>464</ele>
        <time>2019-01-04T13:38:35Z</time>
      </trkpt>
      <trkpt lat="43.3615" lon="5.7789">
        <ele>463</ele>
        <time>2019-01-04T13:38:39Z</time>
      </trkpt>
      <trkpt lat="43.36146" lon="5.77894">
        <ele>464</ele>
        <time>2019-01-04T13:38:46Z</time>
      </trkpt>
      <trkpt lat="43.36142" lon="5.77898">
        <ele>464</ele>
        <time>2019-01-04T13:38:52Z</time>
      </trkpt>
      <trkpt lat="43.36137" lon="5.77901">
        <ele>465</ele>
        <time>2019-01-04T13:38:55Z</time>
      </trkpt>
      <trkpt lat="43.36133" lon="5.77903">
        <ele>465</ele>
        <time>2019-01-04T13:38:58Z</time>
      </trkpt>
      <trkpt lat="43.36129" lon="5.77906">
        <ele>466</ele>
        <time>2019-01-04T13:39:02Z</time>
      </trkpt>
      <trkpt lat="43.36124" lon="5.77907">
        <ele>465</ele>
        <time>2019-01-04T13:39:07Z</time>
      </trkpt>
      <trkpt lat="43.3612" lon="5.7791">
        <ele>465</ele>
        <time>2019-01-04T13:39:10Z</time>
      </trkpt>
      <trkpt lat="43.36115" lon="5.77911">
        <ele>465</ele>
        <time>2019-01-04T13:39:14Z</time>
      </trkpt>
      <trkpt lat="43.36111" lon="5.77912">
        <ele>464</ele>
        <time>2019-01-04T13:39:18Z</time>
      </trkpt>
      <trkpt lat="43.36106" lon="5.77912">
        <ele>464</ele>
        <time>2019-01-04T13:39:23Z</time>
      </trkpt>
      <trkpt lat="43.361" lon="5.77913">
        <ele>464</ele>
        <time>2019-01-04T13:39:29Z</time>
      </trkpt>
      <trkpt lat="43.36095" lon="5.77913">
        <ele>463</ele>
        <time>2019-01-04T13:39:35Z</time>
      </trkpt>
      <trkpt lat="43.36091" lon="5.77915">
        <ele>463</ele>
        <time>2019-01-04T13:39:41Z</time>
      </trkpt>
      <trkpt lat="43.36086" lon="5.77913">
        <ele>463</ele>
        <time>2019-01-04T13:39:44Z</time>
      </trkpt>
      <trkpt lat="43.36081" lon="5.77911">
        <ele>463</ele>
        <time>2019-01-04T13:39:47Z</time>
      </trkpt>
      <trkpt lat="43.36077" lon="5.77907">
        <ele>463</ele>
        <time>2019-01-04T13:39:50Z</time>
      </trkpt>
      <trkpt lat="43.36072" lon="5.77902">
        <ele>464</ele>
        <time>2019-01-04T13:39:55Z</time>
      </trkpt>
      <trkpt lat="43.36069" lon="5.77899">
        <ele>463</ele>
        <time>2019-01-04T13:40:00Z</time>
      </trkpt>
      <trkpt lat="43.36065" lon="5.77894">
        <ele>463</ele>
        <time>2019-01-04T13:40:05Z</time>
      </trkpt>
      <trkpt lat="43.3606" lon="5.7789">
        <ele>464</ele>
        <time>2019-01-04T13:40:10Z</time>
      </trkpt>
      <trkpt lat="43.36056" lon="5.77887">
        <ele>464</ele>
        <time>2019-01-04T13:40:13Z</time>
      </trkpt>
      <trkpt lat="43.36053" lon="5.77881">
        <ele>464</ele>
        <time>2019-01-04T13:40:17Z</time>
      </trkpt>
      <trkpt lat="43.3605" lon="5.77876">
        <ele>465</ele>
        <time>2019-01-04T13:40:20Z</time>
      </trkpt>
      <trkpt lat="43.36048" lon="5.7787">
        <ele>465</ele>
        <time>2019-01-04T13:40:24Z</time>
      </trkpt>
      <trkpt lat="43.36047" lon="5.77863">
        <ele>465</ele>
        <time>2019-01-04T13:40:27Z</time>
      </trkpt>
      <trkpt lat="43.36043" lon="5.77859">
        <ele>465</ele>
        <time>2019-01-04T13:40:31Z</time>
      </trkpt>
      <trkpt lat="43.36039" lon="5.77856">
        <ele>465</ele>
        <time>2019-01-04T13:40:36Z</time>
      </trkpt>
      <trkpt lat="43.36037" lon="5.77851">
        <ele>465</ele>
        <time>2019-01-04T13:40:41Z</time>
      </trkpt>
      <trkpt lat="43.36034" lon="5.77846">
        <ele>465</ele>
        <time>2019-01-04T13:40:45Z</time>
      </trkpt>
      <trkpt lat="43.3603" lon="5.77841">
        <ele>465</ele>
        <time>2019-01-04T13:40:49Z</time>
      </trkpt>
      <trkpt lat="43.36026" lon="5.77835">
        <ele>465</ele>
        <time>2019-01-04T13:40:54Z</time>
      </trkpt>
      <trkpt lat="43.36021" lon="5.77831">
        <ele>465</ele>
        <time>2019-01-04T13:40:58Z</time>
      </trkpt>
      <trkpt lat="43.36018" lon="5.77827">
        <ele>466</ele>
        <time>2019-01-04T13:41:02Z</time>
      </trkpt>
      <trkpt lat="43.36014" lon="5.77824">
        <ele>466</ele>
        <time>2019-01-04T13:41:06Z</time>
      </trkpt>
      <trkpt lat="43.36011" lon="5.77819">
        <ele>467</ele>
        <time>2019-01-04T13:41:10Z</time>
      </trkpt>
      <trkpt lat="43.36006" lon="5.77816">
        <ele>467</ele>
        <time>2019-01-04T13:41:14Z</time>
      </trkpt>
      <trkpt lat="43.36001" lon="5.77815">
        <ele>467</ele>
        <time>2019-01-04T13:41:17Z</time>
      </trkpt>
      <trkpt lat="43.35996" lon="5.77811">
        <ele>466</ele>
        <time>2019-01-04T13:41:21Z</time>
      </trkpt>
      <trkpt lat="43.35991" lon="5.77809">
        <ele>464</ele>
        <time>2019-01-04T13:41:27Z</time>
      </trkpt>
      <trkpt lat="43.35987" lon="5.77805">
        <ele>463</ele>
        <time>2019-01-04T13:41:32Z</time>
      </trkpt>
      <trkpt lat="43.35983" lon="5.77802">
        <ele>460</ele>
        <time>2019-01-04T13:41:35Z</time>
      </trkpt>
      <trkpt lat="43.35979" lon="5.77798">
        <ele>458</ele>
        <time>2019-01-04T13:41:38Z</time>
      </trkpt>
      <trkpt lat="43.35976" lon="5.77794">
        <ele>457</ele>
        <time>2019-01-04T13:41:41Z</time>
      </trkpt>
      <trkpt lat="43.35972" lon="5.7779">
        <ele>456</ele>
        <time>2019-01-04T13:41:45Z</time>
      </trkpt>
      <trkpt lat="43.35968" lon="5.77786">
        <ele>456</ele>
        <time>2019-01-04T13:41:52Z</time>
      </trkpt>
      <trkpt lat="43.35963" lon="5.77783">
        <ele>456</ele>
        <time>2019-01-04T13:41:56Z</time>
      </trkpt>
      <trkpt lat="43.35959" lon="5.77777">
        <ele>457</ele>
        <time>2019-01-04T13:42:00Z</time>
      </trkpt>
      <trkpt lat="43.35955" lon="5.77773">
        <ele>457</ele>
        <time>2019-01-04T13:42:04Z</time>
      </trkpt>
      <trkpt lat="43.35951" lon="5.77768">
        <ele>458</ele>
        <time>2019-01-04T13:42:08Z</time>
      </trkpt>
      <trkpt lat="43.35947" lon="5.77765">
        <ele>458</ele>
        <time>2019-01-04T13:42:12Z</time>
      </trkpt>
      <trkpt lat="43.35943" lon="5.7776">
        <ele>459</ele>
        <time>2019-01-04T13:42:16Z</time>
      </trkpt>
      <trkpt lat="43.35939" lon="5.77756">
        <ele>460</ele>
        <time>2019-01-04T13:42:20Z</time>
      </trkpt>
      <trkpt lat="43.35934" lon="5.77752">
        <ele>461</ele>
        <time>2019-01-04T13:42:24Z</time>
      </trkpt>
      <trkpt lat="43.35931" lon="5.77749">
        <ele>462</ele>
        <time>2019-01-04T13:42:28Z</time>
      </trkpt>
      <trkpt lat="43.35926" lon="5.77747">
        <ele>462</ele>
        <time>2019-01-04T13:42:32Z</time>
      </trkpt>
      <trkpt lat="43.35921" lon="5.77745">
        <ele>462</ele>
        <time>2019-01-04T13:42:36Z</time>
      </trkpt>
      <trkpt lat="43.35917" lon="5.77743">
        <ele>462</ele>
        <time>2019-01-04T13:42:40Z</time>
      </trkpt>
      <trkpt lat="43.35911" lon="5.77741">
        <ele>462</ele>
        <time>2019-01-04T13:42:45Z</time>
      </trkpt>
      <trkpt lat="43.35906" lon="5.77739">
        <ele>461</ele>
        <time>2019-01-04T13:42:51Z</time>
      </trkpt>
      <trkpt lat="43.35902" lon="5.7774">
        <ele>461</ele>
        <time>2019-01-04T13:42:56Z</time>
      </trkpt>
      <trkpt lat="43.35898" lon="5.77737">
        <ele>462</ele>
        <time>2019-01-04T13:43:00Z</time>
      </trkpt>
      <trkpt lat="43.35893" lon="5.77735">
        <ele>463</ele>
        <time>2019-01-04T13:43:03Z</time>
      </trkpt>
      <trkpt lat="43.35888" lon="5.77733">
        <ele>464</ele>
        <time>2019-01-04T13:43:07Z</time>
      </trkpt>
      <trkpt lat="43.35883" lon="5.77731">
        <ele>465</ele>
        <time>2019-01-04T13:43:10Z</time>
      </trkpt>
      <trkpt lat="43.35878" lon="5.77728">
        <ele>465</ele>
        <time>2019-01-04T13:43:14Z</time>
      </trkpt>
      <trkpt lat="43.35875" lon="5.77724">
        <ele>466</ele>
        <time>2019-01-04T13:43:18Z</time>
      </trkpt>
      <trkpt lat="43.3587" lon="5.77722">
        <ele>467</ele>
        <time>2019-01-04T13:43:22Z</time>
      </trkpt>
      <trkpt lat="43.35865" lon="5.77722">
        <ele>467</ele>
        <time>2019-01-04T13:43:26Z</time>
      </trkpt>
      <trkpt lat="43.35859" lon="5.77719">
        <ele>467</ele>
        <time>2019-01-04T13:43:31Z</time>
      </trkpt>
      <trkpt lat="43.35854" lon="5.77719">
        <ele>467</ele>
        <time>2019-01-04T13:43:35Z</time>
      </trkpt>
      <trkpt lat="43.3585" lon="5.77717">
        <ele>466</ele>
        <time>2019-01-04T13:43:39Z</time>
      </trkpt>
      <trkpt lat="43.35845" lon="5.77717">
        <ele>465</ele>
        <time>2019-01-04T13:43:43Z</time>
      </trkpt>
      <trkpt lat="43.35841" lon="5.77717">
        <ele>464</ele>
        <time>2019-01-04T13:43:46Z</time>
      </trkpt>
      <trkpt lat="43.35836" lon="5.77715">
        <ele>463</ele>
        <time>2019-01-04T13:43:50Z</time>
      </trkpt>
      <trkpt lat="43.3583" lon="5.77715">
        <ele>461</ele>
        <time>2019-01-04T13:43:54Z</time>
      </trkpt>
      <trkpt lat="43.35825" lon="5.77713">
        <ele>460</ele>
        <time>2019-01-04T13:43:58Z</time>
      </trkpt>
      <trkpt lat="43.3582" lon="5.77715">
        <ele>459</ele>
        <time>2019-01-04T13:44:02Z</time>
      </trkpt>
      <trkpt lat="43.35815" lon="5.77713">
        <ele>458</ele>
        <time>2019-01-04T13:44:06Z</time>
      </trkpt>
      <trkpt lat="43.3581" lon="5.77713">
        <ele>457</ele>
        <time>2019-01-04T13:44:09Z</time>
      </trkpt>
      <trkpt lat="43.35805" lon="5.77713">
        <ele>457</ele>
        <time>2019-01-04T13:44:12Z</time>
      </trkpt>
      <trkpt lat="43.358" lon="5.77715">
        <ele>456</ele>
        <time>2019-01-04T13:44:16Z</time>
      </trkpt>
      <trkpt lat="43.35794" lon="5.77714">
        <ele>456</ele>
        <time>2019-01-04T13:44:20Z</time>
      </trkpt>
      <trkpt lat="43.35789" lon="5.77713">
        <ele>455</ele>
        <time>2019-01-04T13:44:25Z</time>
      </trkpt>
      <trkpt lat="43.35785" lon="5.77711">
        <ele>454</ele>
        <time>2019-01-04T13:44:29Z</time>
      </trkpt>
      <trkpt lat="43.3578" lon="5.77709">
        <ele>454</ele>
        <time>2019-01-04T13:44:33Z</time>
      </trkpt>
      <trkpt lat="43.35775" lon="5.77708">
        <ele>454</ele>
        <time>2019-01-04T13:44:40Z</time>
      </trkpt>
      <trkpt lat="43.3577" lon="5.77707">
        <ele>454</ele>
        <time>2019-01-04T13:44:45Z</time>
      </trkpt>
      <trkpt lat="43.35766" lon="5.77705">
        <ele>454</ele>
        <time>2019-01-04T13:44:49Z</time>
      </trkpt>
      <trkpt lat="43.35762" lon="5.777">
        <ele>454</ele>
        <time>2019-01-04T13:44:55Z</time>
      </trkpt>
      <trkpt lat="43.35755" lon="5.77698">
        <ele>454</ele>
        <time>2019-01-04T13:45:00Z</time>
      </trkpt>
      <trkpt lat="43.3575" lon="5.77698">
        <ele>454</ele>
        <time>2019-01-04T13:45:03Z</time>
      </trkpt>
      <trkpt lat="43.35745" lon="5.77695">
        <ele>455</ele>
        <time>2019-01-04T13:45:08Z</time>
      </trkpt>
      <trkpt lat="43.3574" lon="5.77692">
        <ele>455</ele>
        <time>2019-01-04T13:45:12Z</time>
      </trkpt>
      <trkpt lat="43.35736" lon="5.77688">
        <ele>456</ele>
        <time>2019-01-04T13:45:16Z</time>
      </trkpt>
      <trkpt lat="43.35731" lon="5.77691">
        <ele>456</ele>
        <time>2019-01-04T13:45:21Z</time>
      </trkpt>
      <trkpt lat="43.3573" lon="5.77698">
        <ele>454</ele>
        <time>2019-01-04T13:45:27Z</time>
      </trkpt>
      <trkpt lat="43.35725" lon="5.77702">
        <ele>452</ele>
        <time>2019-01-04T13:45:33Z</time>
      </trkpt>
      <trkpt lat="43.3572" lon="5.77703">
        <ele>450</ele>
        <time>2019-01-04T13:45:38Z</time>
      </trkpt>
      <trkpt lat="43.35717" lon="5.77707">
        <ele>448</ele>
        <time>2019-01-04T13:45:42Z</time>
      </trkpt>
      <trkpt lat="43.35712" lon="5.77709">
        <ele>447</ele>
        <time>2019-01-04T13:45:49Z</time>
      </trkpt>
      <trkpt lat="43.35707" lon="5.77712">
        <ele>447</ele>
        <time>2019-01-04T13:45:57Z</time>
      </trkpt>
      <trkpt lat="43.35704" lon="5.77718">
        <ele>447</ele>
        <time>2019-01-04T13:46:04Z</time>
      </trkpt>
      <trkpt lat="43.35704" lon="5.77724">
        <ele>446</ele>
        <time>2019-01-04T13:46:09Z</time>
      </trkpt>
      <trkpt lat="43.35704" lon="5.77732">
        <ele>445</ele>
        <time>2019-01-04T13:46:16Z</time>
      </trkpt>
      <trkpt lat="43.35703" lon="5.77738">
        <ele>444</ele>
        <time>2019-01-04T13:46:20Z</time>
      </trkpt>
      <trkpt lat="43.357" lon="5.77746">
        <ele>442</ele>
        <time>2019-01-04T13:46:26Z</time>
      </trkpt>
      <trkpt lat="43.35699" lon="5.77753">
        <ele>441</ele>
        <time>2019-01-04T13:46:30Z</time>
      </trkpt>
      <trkpt lat="43.35697" lon="5.77759">
        <ele>440</ele>
        <time>2019-01-04T13:46:34Z</time>
      </trkpt>
      <trkpt lat="43.35693" lon="5.77763">
        <ele>440</ele>
        <time>2019-01-04T13:46:38Z</time>
      </trkpt>
      <trkpt lat="43.35689" lon="5.77768">
        <ele>440</ele>
        <time>2019-01-04T13:46:41Z</time>
      </trkpt>
      <trkpt lat="43.35685" lon="5.77772">
        <ele>440</ele>
        <time>2019-01-04T13:46:44Z</time>
      </trkpt>
      <trkpt lat="43.3568" lon="5.77775">
        <ele>440</ele>
        <time>2019-01-04T13:46:49Z</time>
      </trkpt>
      <trkpt lat="43.35675" lon="5.77775">
        <ele>441</ele>
        <time>2019-01-04T13:46:55Z</time>
      </trkpt>
      <trkpt lat="43.35671" lon="5.77773">
        <ele>442</ele>
        <time>2019-01-04T13:46:59Z</time>
      </trkpt>
      <trkpt lat="43.35666" lon="5.77772">
        <ele>442</ele>
        <time>2019-01-04T13:47:04Z</time>
      </trkpt>
      <trkpt lat="43.3566" lon="5.7777">
        <ele>443</ele>
        <time>2019-01-04T13:47:07Z</time>
      </trkpt>
      <trkpt lat="43.35655" lon="5.77769">
        <ele>443</ele>
        <time>2019-01-04T13:47:10Z</time>
      </trkpt>
      <trkpt lat="43.3565" lon="5.77768">
        <ele>443</ele>
        <time>2019-01-04T13:47:15Z</time>
      </trkpt>
      <trkpt lat="43.35645" lon="5.77768">
        <ele>444</ele>
        <time>2019-01-04T13:47:19Z</time>
      </trkpt>
      <trkpt lat="43.35641" lon="5.77768">
        <ele>444</ele>
        <time>2019-01-04T13:47:23Z</time>
      </trkpt>
      <trkpt lat="43.35635" lon="5.77764">
        <ele>445</ele>
        <time>2019-01-04T13:47:28Z</time>
      </trkpt>
      <trkpt lat="43.35631" lon="5.77762">
        <ele>445</ele>
        <time>2019-01-04T13:47:31Z</time>
      </trkpt>
      <trkpt lat="43.35627" lon="5.77758">
        <ele>445</ele>
        <time>2019-01-04T13:47:37Z</time>
      </trkpt>
      <trkpt lat="43.35624" lon="5.77754">
        <ele>445</ele>
        <time>2019-01-04T13:47:41Z</time>
      </trkpt>
      <trkpt lat="43.35619" lon="5.77751">
        <ele>445</ele>
        <time>2019-01-04T13:47:45Z</time>
      </trkpt>
      <trkpt lat="43.35614" lon="5.77751">
        <ele>445</ele>
        <time>2019-01-04T13:47:48Z</time>
      </trkpt>
      <trkpt lat="43.35608" lon="5.77751">
        <ele>445</ele>
        <time>2019-01-04T13:47:51Z</time>
      </trkpt>
      <trkpt lat="43.35604" lon="5.77751">
        <ele>445</ele>
        <time>2019-01-04T13:47:54Z</time>
      </trkpt>
      <trkpt lat="43.356" lon="5.77746">
        <ele>444</ele>
        <time>2019-01-04T13:48:00Z</time>
      </trkpt>
      <trkpt lat="43.35596" lon="5.7774">
        <ele>444</ele>
        <time>2019-01-04T13:48:05Z</time>
      </trkpt>
      <trkpt lat="43.35592" lon="5.77736">
        <ele>443</ele>
        <time>2019-01-04T13:48:09Z</time>
      </trkpt>
      <trkpt lat="43.35586" lon="5.77735">
        <ele>443</ele>
        <time>2019-01-04T13:48:15Z</time>
      </trkpt>
      <trkpt lat="43.35582" lon="5.77731">
        <ele>443</ele>
        <time>2019-01-04T13:48:21Z</time>
      </trkpt>
      <trkpt lat="43.35577" lon="5.77727">
        <ele>444</ele>
        <time>2019-01-04T13:48:25Z</time>
      </trkpt>
      <trkpt lat="43.35573" lon="5.77724">
        <ele>444</ele>
        <time>2019-01-04T13:48:28Z</time>
      </trkpt>
      <trkpt lat="43.35568" lon="5.77723">
        <ele>445</ele>
        <time>2019-01-04T13:48:31Z</time>
      </trkpt>
      <trkpt lat="43.35563" lon="5.77724">
        <ele>444</ele>
        <time>2019-01-04T13:48:36Z</time>
      </trkpt>
      <trkpt lat="43.35562" lon="5.7773">
        <ele>443</ele>
        <time>2019-01-04T13:48:41Z</time>
      </trkpt>
      <trkpt lat="43.35558" lon="5.77732">
        <ele>441</ele>
        <time>2019-01-04T13:48:47Z</time>
      </trkpt>
      <trkpt lat="43.35553" lon="5.77731">
        <ele>439</ele>
        <time>2019-01-04T13:48:50Z</time>
      </trkpt>
      <trkpt lat="43.35548" lon="5.7773">
        <ele>437</ele>
        <time>2019-01-04T13:48:54Z</time>
      </trkpt>
      <trkpt lat="43.35543" lon="5.77728">
        <ele>435</ele>
        <time>2019-01-04T13:48:57Z</time>
      </trkpt>
      <trkpt lat="43.35538" lon="5.77728">
        <ele>435</ele>
        <time>2019-01-04T13:49:00Z</time>
      </trkpt>
      <trkpt lat="43.35532" lon="5.77727">
        <ele>435</ele>
        <time>2019-01-04T13:49:04Z</time>
      </trkpt>
      <trkpt lat="43.35528" lon="5.77728">
        <ele>436</ele>
        <time>2019-01-04T13:49:08Z</time>
      </trkpt>
      <trkpt lat="43.35522" lon="5.77728">
        <ele>436</ele>
        <time>2019-01-04T13:49:12Z</time>
      </trkpt>
      <trkpt lat="43.35516" lon="5.77727">
        <ele>437</ele>
        <time>2019-01-04T13:49:15Z</time>
      </trkpt>
      <trkpt lat="43.35511" lon="5.77726">
        <ele>438</ele>
        <time>2019-01-04T13:49:20Z</time>
      </trkpt>
      <trkpt lat="43.35505" lon="5.77728">
        <ele>439</ele>
        <time>2019-01-04T13:49:23Z</time>
      </trkpt>
      <trkpt lat="43.35501" lon="5.77731">
        <ele>439</ele>
        <time>2019-01-04T13:49:28Z</time>
      </trkpt>
      <trkpt lat="43.35496" lon="5.77732">
        <ele>439</ele>
        <time>2019-01-04T13:49:33Z</time>
      </trkpt>
      <trkpt lat="43.35491" lon="5.77732">
        <ele>438</ele>
        <time>2019-01-04T13:49:38Z</time>
      </trkpt>
      <trkpt lat="43.35488" lon="5.77726">
        <ele>437</ele>
        <time>2019-01-04T13:49:42Z</time>
      </trkpt>
      <trkpt lat="43.35486" lon="5.7772">
        <ele>435</ele>
        <time>2019-01-04T13:49:46Z</time>
      </trkpt>
      <trkpt lat="43.35482" lon="5.77716">
        <ele>434</ele>
        <time>2019-01-04T13:49:50Z</time>
      </trkpt>
      <trkpt lat="43.35479" lon="5.77711">
        <ele>434</ele>
        <time>2019-01-04T13:49:54Z</time>
      </trkpt>
      <trkpt lat="43.35476" lon="5.77706">
        <ele>435</ele>
        <time>2019-01-04T13:49:57Z</time>
      </trkpt>
      <trkpt lat="43.35472" lon="5.77702">
        <ele>435</ele>
        <time>2019-01-04T13:50:00Z</time>
      </trkpt>
      <trkpt lat="43.35468" lon="5.77697">
        <ele>436</ele>
        <time>2019-01-04T13:50:04Z</time>
      </trkpt>
      <trkpt lat="43.35465" lon="5.77692">
        <ele>436</ele>
        <time>2019-01-04T13:50:08Z</time>
      </trkpt>
      <trkpt lat="43.35461" lon="5.77688">
        <ele>438</ele>
        <time>2019-01-04T13:50:16Z</time>
      </trkpt>
      <trkpt lat="43.35455" lon="5.77687">
        <ele>439</ele>
        <time>2019-01-04T13:50:20Z</time>
      </trkpt>
      <trkpt lat="43.3545" lon="5.77686">
        <ele>440</ele>
        <time>2019-01-04T13:50:24Z</time>
      </trkpt>
      <trkpt lat="43.35445" lon="5.77685">
        <ele>440</ele>
        <time>2019-01-04T13:50:28Z</time>
      </trkpt>
      <trkpt lat="43.3544" lon="5.77685">
        <ele>440</ele>
        <time>2019-01-04T13:50:32Z</time>
      </trkpt>
      <trkpt lat="43.35435" lon="5.77684">
        <ele>440</ele>
        <time>2019-01-04T13:50:36Z</time>
      </trkpt>
      <trkpt lat="43.3543" lon="5.77683">
        <ele>441</ele>
        <time>2019-01-04T13:50:40Z</time>
      </trkpt>
      <trkpt lat="43.35424" lon="5.77681">
        <ele>441</ele>
        <time>2019-01-04T13:50:45Z</time>
      </trkpt>
      <trkpt lat="43.3542" lon="5.77681">
        <ele>441</ele>
        <time>2019-01-04T13:50:48Z</time>
      </trkpt>
      <trkpt lat="43.35414" lon="5.77681">
        <ele>442</ele>
        <time>2019-01-04T13:50:52Z</time>
      </trkpt>
      <trkpt lat="43.35408" lon="5.77681">
        <ele>442</ele>
        <time>2019-01-04T13:50:56Z</time>
      </trkpt>
      <trkpt lat="43.35403" lon="5.77681">
        <ele>443</ele>
        <time>2019-01-04T13:51:01Z</time>
      </trkpt>
      <trkpt lat="43.35399" lon="5.77678">
        <ele>443</ele>
        <time>2019-01-04T13:51:06Z</time>
      </trkpt>
      <trkpt lat="43.35394" lon="5.77677">
        <ele>444</ele>
        <time>2019-01-04T13:51:10Z</time>
      </trkpt>
      <trkpt lat="43.35389" lon="5.77675">
        <ele>444</ele>
        <time>2019-01-04T13:51:14Z</time>
      </trkpt>
      <trkpt lat="43.35384" lon="5.77675">
        <ele>444</ele>
        <time>2019-01-04T13:51:19Z</time>
      </trkpt>
      <trkpt lat="43.35379" lon="5.77676">
        <ele>445</ele>
        <time>2019-01-04T13:51:22Z</time>
      </trkpt>
      <trkpt lat="43.35374" lon="5.77674">
        <ele>445</ele>
        <time>2019-01-04T13:51:26Z</time>
      </trkpt>
      <trkpt lat="43.35368" lon="5.77672">
        <ele>446</ele>
        <time>2019-01-04T13:51:35Z</time>
      </trkpt>
      <trkpt lat="43.35363" lon="5.77671">
        <ele>446</ele>
        <time>2019-01-04T13:51:39Z</time>
      </trkpt>
      <trkpt lat="43.35358" lon="5.77667">
        <ele>446</ele>
        <time>2019-01-04T13:51:43Z</time>
      </trkpt>
      <trkpt lat="43.35354" lon="5.77666">
        <ele>446</ele>
        <time>2019-01-04T13:51:47Z</time>
      </trkpt>
      <trkpt lat="43.3535" lon="5.77664">
        <ele>445</ele>
        <time>2019-01-04T13:51:51Z</time>
      </trkpt>
      <trkpt lat="43.35346" lon="5.77662">
        <ele>444</ele>
        <time>2019-01-04T13:51:56Z</time>
      </trkpt>
      <trkpt lat="43.3534" lon="5.7766">
        <ele>444</ele>
        <time>2019-01-04T13:52:00Z</time>
      </trkpt>
      <trkpt lat="43.35336" lon="5.77656">
        <ele>443</ele>
        <time>2019-01-04T13:52:05Z</time>
      </trkpt>
      <trkpt lat="43.35332" lon="5.77653">
        <ele>442</ele>
        <time>2019-01-04T13:52:09Z</time>
      </trkpt>
      <trkpt lat="43.35328" lon="5.77648">
        <ele>442</ele>
        <time>2019-01-04T13:52:13Z</time>
      </trkpt>
      <trkpt lat="43.35324" lon="5.77644">
        <ele>442</ele>
        <time>2019-01-04T13:52:18Z</time>
      </trkpt>
      <trkpt lat="43.35319" lon="5.77641">
        <ele>443</ele>
        <time>2019-01-04T13:52:24Z</time>
      </trkpt>
      <trkpt lat="43.35315" lon="5.77638">
        <ele>443</ele>
        <time>2019-01-04T13:52:28Z</time>
      </trkpt>
      <trkpt lat="43.35311" lon="5.77634">
        <ele>444</ele>
        <time>2019-01-04T13:52:32Z</time>
      </trkpt>
      <trkpt lat="43.35306" lon="5.77633">
        <ele>445</ele>
        <time>2019-01-04T13:52:36Z</time>
      </trkpt>
      <trkpt lat="43.35301" lon="5.77631">
        <ele>445</ele>
        <time>2019-01-04T13:52:40Z</time>
      </trkpt>
      <trkpt lat="43.35298" lon="5.77627">
        <ele>444</ele>
        <time>2019-01-04T13:52:45Z</time>
      </trkpt>
      <trkpt lat="43.35293" lon="5.77624">
        <ele>443</ele>
        <time>2019-01-04T13:52:50Z</time>
      </trkpt>
      <trkpt lat="43.35288" lon="5.77622">
        <ele>442</ele>
        <time>2019-01-04T13:52:54Z</time>
      </trkpt>
      <trkpt lat="43.35284" lon="5.77617">
        <ele>442</ele>
        <time>2019-01-04T13:52:59Z</time>
      </trkpt>
      <trkpt lat="43.3528" lon="5.77613">
        <ele>442</ele>
        <time>2019-01-04T13:53:06Z</time>
      </trkpt>
      <trkpt lat="43.35275" lon="5.77612">
        <ele>442</ele>
        <time>2019-01-04T13:53:11Z</time>
      </trkpt>
      <trkpt lat="43.35271" lon="5.77609">
        <ele>442</ele>
        <time>2019-01-04T13:53:16Z</time>
      </trkpt>
      <trkpt lat="43.35267" lon="5.77605">
        <ele>444</ele>
        <time>2019-01-04T13:53:21Z</time>
      </trkpt>
      <trkpt lat="43.35261" lon="5.77603">
        <ele>444</ele>
        <time>2019-01-04T13:53:38Z</time>
      </trkpt>
      <trkpt lat="43.35257" lon="5.77598">
        <ele>445</ele>
        <time>2019-01-04T13:53:45Z</time>
      </trkpt>
      <trkpt lat="43.35252" lon="5.77595">
        <ele>445</ele>
        <time>2019-01-04T13:53:51Z</time>
      </trkpt>
      <trkpt lat="43.35249" lon="5.77591">
        <ele>445</ele>
        <time>2019-01-04T13:53:58Z</time>
      </trkpt>
      <trkpt lat="43.35244" lon="5.77587">
        <ele>445</ele>
        <time>2019-01-04T13:54:03Z</time>
      </trkpt>
      <trkpt lat="43.3524" lon="5.77583">
        <ele>447</ele>
        <time>2019-01-04T13:54:08Z</time>
      </trkpt>
      <trkpt lat="43.35237" lon="5.77578">
        <ele>448</ele>
        <time>2019-01-04T13:54:15Z</time>
      </trkpt>
      <trkpt lat="43.35233" lon="5.77575">
        <ele>449</ele>
        <time>2019-01-04T13:54:21Z</time>
      </trkpt>
      <trkpt lat="43.35229" lon="5.77573">
        <ele>450</ele>
        <time>2019-01-04T13:54:26Z</time>
      </trkpt>
      <trkpt lat="43.35224" lon="5.77571">
        <ele>451</ele>
        <time>2019-01-04T13:54:31Z</time>
      </trkpt>
      <trkpt lat="43.3522" lon="5.77567">
        <ele>452</ele>
        <time>2019-01-04T13:54:36Z</time>
      </trkpt>
      <trkpt lat="43.35216" lon="5.77562">
        <ele>452</ele>
        <time>2019-01-04T13:54:41Z</time>
      </trkpt>
      <trkpt lat="43.35216" lon="5.77552">
        <ele>452</ele>
        <time>2019-01-04T13:54:54Z</time>
      </trkpt>
      <trkpt lat="43.35212" lon="5.77546">
        <ele>453</ele>
        <time>2019-01-04T13:55:07Z</time>
      </trkpt>
      <trkpt lat="43.35211" lon="5.7754">
        <ele>453</ele>
        <time>2019-01-04T13:55:13Z</time>
      </trkpt>
      <trkpt lat="43.35209" lon="5.77534">
        <ele>453</ele>
        <time>2019-01-04T13:55:18Z</time>
      </trkpt>
      <trkpt lat="43.35206" lon="5.77525">
        <ele>452</ele>
        <time>2019-01-04T13:55:26Z</time>
      </trkpt>
      <trkpt lat="43.35206" lon="5.77518">
        <ele>451</ele>
        <time>2019-01-04T13:55:30Z</time>
      </trkpt>
      <trkpt lat="43.35205" lon="5.77512">
        <ele>451</ele>
        <time>2019-01-04T13:55:34Z</time>
      </trkpt>
      <trkpt lat="43.35205" lon="5.77505">
        <ele>451</ele>
        <time>2019-01-04T13:55:38Z</time>
      </trkpt>
      <trkpt lat="43.35204" lon="5.77499">
        <ele>452</ele>
        <time>2019-01-04T13:55:43Z</time>
      </trkpt>
      <trkpt lat="43.35204" lon="5.77492">
        <ele>452</ele>
        <time>2019-01-04T13:55:47Z</time>
      </trkpt>
      <trkpt lat="43.35203" lon="5.77484">
        <ele>453</ele>
        <time>2019-01-04T13:55:52Z</time>
      </trkpt>
      <trkpt lat="43.35205" lon="5.77478">
        <ele>453</ele>
        <time>2019-01-04T13:55:56Z</time>
      </trkpt>
      <trkpt lat="43.35206" lon="5.7747">
        <ele>452</ele>
        <time>2019-01-04T13:56:01Z</time>
      </trkpt>
      <trkpt lat="43.35207" lon="5.77464">
        <ele>452</ele>
        <time>2019-01-04T13:56:04Z</time>
      </trkpt>
      <trkpt lat="43.35207" lon="5.77456">
        <ele>451</ele>
        <time>2019-01-04T13:56:08Z</time>
      </trkpt>
      <trkpt lat="43.35208" lon="5.77449">
        <ele>450</ele>
        <time>2019-01-04T13:56:12Z</time>
      </trkpt>
      <trkpt lat="43.35208" lon="5.7744">
        <ele>450</ele>
        <time>2019-01-04T13:56:17Z</time>
      </trkpt>
      <trkpt lat="43.35209" lon="5.77434">
        <ele>450</ele>
        <time>2019-01-04T13:56:21Z</time>
      </trkpt>
      <trkpt lat="43.3521" lon="5.77427">
        <ele>450</ele>
        <time>2019-01-04T13:56:27Z</time>
      </trkpt>
      <trkpt lat="43.35211" lon="5.77421">
        <ele>450</ele>
        <time>2019-01-04T13:56:31Z</time>
      </trkpt>
      <trkpt lat="43.35212" lon="5.77414">
        <ele>449</ele>
        <time>2019-01-04T13:56:35Z</time>
      </trkpt>
      <trkpt lat="43.35212" lon="5.77407">
        <ele>448</ele>
        <time>2019-01-04T13:56:39Z</time>
      </trkpt>
      <trkpt lat="43.35212" lon="5.77401">
        <ele>448</ele>
        <time>2019-01-04T13:56:43Z</time>
      </trkpt>
      <trkpt lat="43.35214" lon="5.77393">
        <ele>448</ele>
        <time>2019-01-04T13:56:46Z</time>
      </trkpt>
      <trkpt lat="43.35216" lon="5.77387">
        <ele>449</ele>
        <time>2019-01-04T13:56:49Z</time>
      </trkpt>
      <trkpt lat="43.35217" lon="5.77379">
        <ele>449</ele>
        <time>2019-01-04T13:56:54Z</time>
      </trkpt>
      <trkpt lat="43.35216" lon="5.77372">
        <ele>450</ele>
        <time>2019-01-04T13:57:12Z</time>
      </trkpt>
      <trkpt lat="43.35218" lon="5.77366">
        <ele>451</ele>
        <time>2019-01-04T13:57:16Z</time>
      </trkpt>
      <trkpt lat="43.35219" lon="5.77359">
        <ele>451</ele>
        <time>2019-01-04T13:57:20Z</time>
      </trkpt>
      <trkpt lat="43.35218" lon="5.77352">
        <ele>451</ele>
        <time>2019-01-04T13:57:24Z</time>
      </trkpt>
      <trkpt lat="43.3522" lon="5.77346">
        <ele>452</ele>
        <time>2019-01-04T13:57:28Z</time>
      </trkpt>
      <trkpt lat="43.35221" lon="5.7734">
        <ele>452</ele>
        <time>2019-01-04T13:57:40Z</time>
      </trkpt>
      <trkpt lat="43.35221" lon="5.77333">
        <ele>452</ele>
        <time>2019-01-04T13:57:45Z</time>
      </trkpt>
      <trkpt lat="43.35222" lon="5.77325">
        <ele>452</ele>
        <time>2019-01-04T13:57:55Z</time>
      </trkpt>
      <trkpt lat="43.35221" lon="5.77318">
        <ele>452</ele>
        <time>2019-01-04T13:57:58Z</time>
      </trkpt>
      <trkpt lat="43.35221" lon="5.77312">
        <ele>452</ele>
        <time>2019-01-04T13:58:02Z</time>
      </trkpt>
      <trkpt lat="43.35219" lon="5.77305">
        <ele>452</ele>
        <time>2019-01-04T13:58:06Z</time>
      </trkpt>
      <trkpt lat="43.3522" lon="5.77298">
        <ele>453</ele>
        <time>2019-01-04T13:58:10Z</time>
      </trkpt>
      <trkpt lat="43.3522" lon="5.7729">
        <ele>453</ele>
        <time>2019-01-04T13:58:14Z</time>
      </trkpt>
      <trkpt lat="43.3522" lon="5.77282">
        <ele>453</ele>
        <time>2019-01-04T13:58:18Z</time>
      </trkpt>
      <trkpt lat="43.35221" lon="5.77274">
        <ele>453</ele>
        <time>2019-01-04T13:58:21Z</time>
      </trkpt>
      <trkpt lat="43.3522" lon="5.77266">
        <ele>453</ele>
        <time>2019-01-04T13:58:25Z</time>
      </trkpt>
      <trkpt lat="43.3522" lon="5.77259">
        <ele>453</ele>
        <time>2019-01-04T13:58:29Z</time>
      </trkpt>
      <trkpt lat="43.35218" lon="5.77252">
        <ele>454</ele>
        <time>2019-01-04T13:58:35Z</time>
      </trkpt>
      <trkpt lat="43.35217" lon="5.77244">
        <ele>455</ele>
        <time>2019-01-04T13:58:40Z</time>
      </trkpt>
      <trkpt lat="43.35217" lon="5.77237">
        <ele>456</ele>
        <time>2019-01-04T13:58:45Z</time>
      </trkpt>
      <trkpt lat="43.35216" lon="5.7723">
        <ele>456</ele>
        <time>2019-01-04T13:58:49Z</time>
      </trkpt>
      <trkpt lat="43.35215" lon="5.77222">
        <ele>457</ele>
        <time>2019-01-04T13:58:53Z</time>
      </trkpt>
      <trkpt lat="43.35213" lon="5.77213">
        <ele>457</ele>
        <time>2019-01-04T13:58:57Z</time>
      </trkpt>
      <trkpt lat="43.3521" lon="5.77207">
        <ele>456</ele>
        <time>2019-01-04T13:59:01Z</time>
      </trkpt>
      <trkpt lat="43.35209" lon="5.77201">
        <ele>456</ele>
        <time>2019-01-04T13:59:04Z</time>
      </trkpt>
      <trkpt lat="43.35207" lon="5.77193">
        <ele>456</ele>
        <time>2019-01-04T13:59:08Z</time>
      </trkpt>
      <trkpt lat="43.35207" lon="5.77187">
        <ele>456</ele>
        <time>2019-01-04T13:59:11Z</time>
      </trkpt>
      <trkpt lat="43.35205" lon="5.77181">
        <ele>457</ele>
        <time>2019-01-04T13:59:15Z</time>
      </trkpt>
      <trkpt lat="43.35204" lon="5.77173">
        <ele>458</ele>
        <time>2019-01-04T13:59:20Z</time>
      </trkpt>
      <trkpt lat="43.35205" lon="5.77166">
        <ele>458</ele>
        <time>2019-01-04T13:59:23Z</time>
      </trkpt>
      <trkpt lat="43.35205" lon="5.77158">
        <ele>458</ele>
        <time>2019-01-04T13:59:27Z</time>
      </trkpt>
      <trkpt lat="43.35206" lon="5.7715">
        <ele>458</ele>
        <time>2019-01-04T13:59:31Z</time>
      </trkpt>
      <trkpt lat="43.35206" lon="5.77144">
        <ele>458</ele>
        <time>2019-01-04T13:59:35Z</time>
      </trkpt>
      <trkpt lat="43.35208" lon="5.77137">
        <ele>459</ele>
        <time>2019-01-04T13:59:42Z</time>
      </trkpt>
      <trkpt lat="43.3521" lon="5.7713">
        <ele>460</ele>
        <time>2019-01-04T13:59:45Z</time>
      </trkpt>
      <trkpt lat="43.35209" lon="5.77124">
        <ele>461</ele>
        <time>2019-01-04T13:59:48Z</time>
      </trkpt>
      <trkpt lat="43.3521" lon="5.77117">
        <ele>461</ele>
        <time>2019-01-04T13:59:51Z</time>
      </trkpt>
      <trkpt lat="43.35212" lon="5.77111">
        <ele>461</ele>
        <time>2019-01-04T13:59:55Z</time>
      </trkpt>
      <trkpt lat="43.35215" lon="5.77105">
        <ele>460</ele>
        <time>2019-01-04T13:59:59Z</time>
      </trkpt>
      <trkpt lat="43.3522" lon="5.77104">
        <ele>460</ele>
        <time>2019-01-04T14:00:05Z</time>
      </trkpt>
      <trkpt lat="43.35224" lon="5.77103">
        <ele>460</ele>
        <time>2019-01-04T14:00:11Z</time>
      </trkpt>
      <trkpt lat="43.35228" lon="5.77099">
        <ele>460</ele>
        <time>2019-01-04T14:00:16Z</time>
      </trkpt>
      <trkpt lat="43.35234" lon="5.77096">
        <ele>459</ele>
        <time>2019-01-04T14:00:21Z</time>
      </trkpt>
      <trkpt lat="43.3524" lon="5.77099">
        <ele>459</ele>
        <time>2019-01-04T14:00:25Z</time>
      </trkpt>
      <trkpt lat="43.35244" lon="5.77099">
        <ele>458</ele>
        <time>2019-01-04T14:00:28Z</time>
      </trkpt>
      <trkpt lat="43.3525" lon="5.77098">
        <ele>457</ele>
        <time>2019-01-04T14:00:32Z</time>
      </trkpt>
      <trkpt lat="43.35255" lon="5.77097">
        <ele>457</ele>
        <time>2019-01-04T14:00:35Z</time>
      </trkpt>
      <trkpt lat="43.35261" lon="5.77097">
        <ele>456</ele>
        <time>2019-01-04T14:00:39Z</time>
      </trkpt>
      <trkpt lat="43.35265" lon="5.77097">
        <ele>455</ele>
        <time>2019-01-04T14:00:42Z</time>
      </trkpt>
      <trkpt lat="43.3527" lon="5.77096">
        <ele>455</ele>
        <time>2019-01-04T14:00:46Z</time>
      </trkpt>
      <trkpt lat="43.35275" lon="5.77096">
        <ele>455</ele>
        <time>2019-01-04T14:00:50Z</time>
      </trkpt>
      <trkpt lat="43.3528" lon="5.77094">
        <ele>455</ele>
        <time>2019-01-04T14:00:53Z</time>
      </trkpt>
      <trkpt lat="43.35284" lon="5.77096">
        <ele>455</ele>
        <time>2019-01-04T14:00:56Z</time>
      </trkpt>
      <trkpt lat="43.35289" lon="5.77099">
        <ele>456</ele>
        <time>2019-01-04T14:01:00Z</time>
      </trkpt>
      <trkpt lat="43.35294" lon="5.77098">
        <ele>456</ele>
        <time>2019-01-04T14:01:04Z</time>
      </trkpt>
      <trkpt lat="43.35297" lon="5.77092">
        <ele>456</ele>
        <time>2019-01-04T14:01:11Z</time>
      </trkpt>
      <trkpt lat="43.35299" lon="5.77086">
        <ele>456</ele>
        <time>2019-01-04T14:01:15Z</time>
      </trkpt>
      <trkpt lat="43.35298" lon="5.77079">
        <ele>456</ele>
        <time>2019-01-04T14:01:19Z</time>
      </trkpt>
      <trkpt lat="43.35296" lon="5.77073">
        <ele>455</ele>
        <time>2019-01-04T14:01:23Z</time>
      </trkpt>
      <trkpt lat="43.35293" lon="5.77067">
        <ele>455</ele>
        <time>2019-01-04T14:01:26Z</time>
      </trkpt>
      <trkpt lat="43.35292" lon="5.7706">
        <ele>455</ele>
        <time>2019-01-04T14:01:32Z</time>
      </trkpt>
      <trkpt lat="43.35294" lon="5.77053">
        <ele>454</ele>
        <time>2019-01-04T14:01:37Z</time>
      </trkpt>
      <trkpt lat="43.35298" lon="5.77048">
        <ele>455</ele>
        <time>2019-01-04T14:01:42Z</time>
      </trkpt>
      <trkpt lat="43.353" lon="5.77043">
        <ele>455</ele>
        <time>2019-01-04T14:01:48Z</time>
      </trkpt>
      <trkpt lat="43.35303" lon="5.77037">
        <ele>457</ele>
        <time>2019-01-04T14:01:54Z</time>
      </trkpt>
      <trkpt lat="43.35302" lon="5.77031">
        <ele>458</ele>
        <time>2019-01-04T14:01:59Z</time>
      </trkpt>
      <trkpt lat="43.35299" lon="5.77024">
        <ele>460</ele>
        <time>2019-01-04T14:02:04Z</time>
      </trkpt>
      <trkpt lat="43.35297" lon="5.77017">
        <ele>461</ele>
        <time>2019-01-04T14:02:09Z</time>
      </trkpt>
      <trkpt lat="43.35293" lon="5.77012">
        <ele>462</ele>
        <time>2019-01-04T14:02:15Z</time>
      </trkpt>
      <trkpt lat="43.35289" lon="5.77009">
        <ele>464</ele>
        <time>2019-01-04T14:02:19Z</time>
      </trkpt>
      <trkpt lat="43.35286" lon="5.77003">
        <ele>464</ele>
        <time>2019-01-04T14:02:22Z</time>
      </trkpt>
      <trkpt lat="43.35283" lon="5.76999">
        <ele>465</ele>
        <time>2019-01-04T14:02:27Z</time>
      </trkpt>
      <trkpt lat="43.35279" lon="5.76994">
        <ele>467</ele>
        <time>2019-01-04T14:02:30Z</time>
      </trkpt>
      <trkpt lat="43.35275" lon="5.76989">
        <ele>468</ele>
        <time>2019-01-04T14:02:36Z</time>
      </trkpt>
      <trkpt lat="43.35271" lon="5.76984">
        <ele>468</ele>
        <time>2019-01-04T14:02:41Z</time>
      </trkpt>
      <trkpt lat="43.35268" lon="5.76979">
        <ele>469</ele>
        <time>2019-01-04T14:02:45Z</time>
      </trkpt>
      <trkpt lat="43.35264" lon="5.7697">
        <ele>470</ele>
        <time>2019-01-04T14:02:50Z</time>
      </trkpt>
      <trkpt lat="43.35264" lon="5.76964">
        <ele>470</ele>
        <time>2019-01-04T14:02:54Z</time>
      </trkpt>
      <trkpt lat="43.35261" lon="5.76959">
        <ele>471</ele>
        <time>2019-01-04T14:02:58Z</time>
      </trkpt>
      <trkpt lat="43.35258" lon="5.76954">
        <ele>471</ele>
        <time>2019-01-04T14:03:02Z</time>
      </trkpt>
      <trkpt lat="43.35257" lon="5.76948">
        <ele>472</ele>
        <time>2019-01-04T14:03:06Z</time>
      </trkpt>
      <trkpt lat="43.35253" lon="5.76943">
        <ele>472</ele>
        <time>2019-01-04T14:03:11Z</time>
      </trkpt>
      <trkpt lat="43.3525" lon="5.76938">
        <ele>472</ele>
        <time>2019-01-04T14:03:17Z</time>
      </trkpt>
      <trkpt lat="43.35247" lon="5.7693">
        <ele>473</ele>
        <time>2019-01-04T14:03:22Z</time>
      </trkpt>
      <trkpt lat="43.35245" lon="5.76923">
        <ele>474</ele>
        <time>2019-01-04T14:03:31Z</time>
      </trkpt>
      <trkpt lat="43.35244" lon="5.76917">
        <ele>475</ele>
        <time>2019-01-04T14:03:37Z</time>
      </trkpt>
      <trkpt lat="43.35244" lon="5.7691">
        <ele>477</ele>
        <time>2019-01-04T14:03:43Z</time>
      </trkpt>
      <trkpt lat="43.35243" lon="5.76903">
        <ele>478</ele>
        <time>2019-01-04T14:03:47Z</time>
      </trkpt>
      <trkpt lat="43.35241" lon="5.76897">
        <ele>479</ele>
        <time>2019-01-04T14:03:52Z</time>
      </trkpt>
      <trkpt lat="43.35239" lon="5.7689">
        <ele>479</ele>
        <time>2019-01-04T14:03:57Z</time>
      </trkpt>
      <trkpt lat="43.35239" lon="5.76883">
        <ele>479</ele>
        <time>2019-01-04T14:04:02Z</time>
      </trkpt>
      <trkpt lat="43.35236" lon="5.76877">
        <ele>479</ele>
        <time>2019-01-04T14:04:07Z</time>
      </trkpt>
      <trkpt lat="43.35235" lon="5.7687">
        <ele>480</ele>
        <time>2019-01-04T14:04:11Z</time>
      </trkpt>
      <trkpt lat="43.35231" lon="5.76866">
        <ele>481</ele>
        <time>2019-01-04T14:04:15Z</time>
      </trkpt>
      <trkpt lat="43.35229" lon="5.76859">
        <ele>481</ele>
        <time>2019-01-04T14:04:20Z</time>
      </trkpt>
      <trkpt lat="43.35228" lon="5.76853">
        <ele>482</ele>
        <time>2019-01-04T14:04:24Z</time>
      </trkpt>
      <trkpt lat="43.35224" lon="5.76848">
        <ele>482</ele>
        <time>2019-01-04T14:04:29Z</time>
      </trkpt>
      <trkpt lat="43.35223" lon="5.76841">
        <ele>482</ele>
        <time>2019-01-04T14:04:33Z</time>
      </trkpt>
      <trkpt lat="43.35221" lon="5.76835">
        <ele>482</ele>
        <time>2019-01-04T14:04:39Z</time>
      </trkpt>
      <trkpt lat="43.35204" lon="5.76828">
        <ele>482</ele>
        <time>2019-01-04T14:04:46Z</time>
      </trkpt>
      <trkpt lat="43.35217" lon="5.76821">
        <ele>482</ele>
        <time>2019-01-04T14:04:50Z</time>
      </trkpt>
      <trkpt lat="43.35215" lon="5.76815">
        <ele>482</ele>
        <time>2019-01-04T14:04:55Z</time>
      </trkpt>
      <trkpt lat="43.35215" lon="5.76808">
        <ele>482</ele>
        <time>2019-01-04T14:04:59Z</time>
      </trkpt>
      <trkpt lat="43.35212" lon="5.76799">
        <ele>482</ele>
        <time>2019-01-04T14:05:03Z</time>
      </trkpt>
      <trkpt lat="43.35208" lon="5.76792">
        <ele>483</ele>
        <time>2019-01-04T14:05:08Z</time>
      </trkpt>
      <trkpt lat="43.35206" lon="5.76785">
        <ele>483</ele>
        <time>2019-01-04T14:05:13Z</time>
      </trkpt>
      <trkpt lat="43.35203" lon="5.76778">
        <ele>484</ele>
        <time>2019-01-04T14:05:19Z</time>
      </trkpt>
      <trkpt lat="43.35201" lon="5.76772">
        <ele>484</ele>
        <time>2019-01-04T14:05:23Z</time>
      </trkpt>
      <trkpt lat="43.35199" lon="5.76766">
        <ele>484</ele>
        <time>2019-01-04T14:05:28Z</time>
      </trkpt>
      <trkpt lat="43.35197" lon="5.7676">
        <ele>484</ele>
        <time>2019-01-04T14:05:31Z</time>
      </trkpt>
      <trkpt lat="43.35195" lon="5.76754">
        <ele>484</ele>
        <time>2019-01-04T14:05:36Z</time>
      </trkpt>
      <trkpt lat="43.35195" lon="5.76748">
        <ele>484</ele>
        <time>2019-01-04T14:05:49Z</time>
      </trkpt>
      <trkpt lat="43.35194" lon="5.76742">
        <ele>484</ele>
        <time>2019-01-04T14:05:54Z</time>
      </trkpt>
      <trkpt lat="43.35191" lon="5.76736">
        <ele>484</ele>
        <time>2019-01-04T14:05:58Z</time>
      </trkpt>
      <trkpt lat="43.35189" lon="5.7673">
        <ele>484</ele>
        <time>2019-01-04T14:06:02Z</time>
      </trkpt>
      <trkpt lat="43.35187" lon="5.76724">
        <ele>484</ele>
        <time>2019-01-04T14:06:07Z</time>
      </trkpt>
      <trkpt lat="43.35185" lon="5.76718">
        <ele>484</ele>
        <time>2019-01-04T14:06:12Z</time>
      </trkpt>
      <trkpt lat="43.35181" lon="5.76713">
        <ele>483</ele>
        <time>2019-01-04T14:06:16Z</time>
      </trkpt>
      <trkpt lat="43.35179" lon="5.76707">
        <ele>482</ele>
        <time>2019-01-04T14:06:20Z</time>
      </trkpt>
      <trkpt lat="43.35176" lon="5.76701">
        <ele>481</ele>
        <time>2019-01-04T14:06:25Z</time>
      </trkpt>
      <trkpt lat="43.35173" lon="5.76696">
        <ele>481</ele>
        <time>2019-01-04T14:06:29Z</time>
      </trkpt>
      <trkpt lat="43.35171" lon="5.76689">
        <ele>480</ele>
        <time>2019-01-04T14:06:35Z</time>
      </trkpt>
      <trkpt lat="43.3517" lon="5.76683">
        <ele>480</ele>
        <time>2019-01-04T14:06:39Z</time>
      </trkpt>
      <trkpt lat="43.35168" lon="5.76676">
        <ele>479</ele>
        <time>2019-01-04T14:06:42Z</time>
      </trkpt>
      <trkpt lat="43.35165" lon="5.7667">
        <ele>478</ele>
        <time>2019-01-04T14:06:46Z</time>
      </trkpt>
      <trkpt lat="43.35164" lon="5.76664">
        <ele>478</ele>
        <time>2019-01-04T14:06:50Z</time>
      </trkpt>
      <trkpt lat="43.35163" lon="5.76657">
        <ele>478</ele>
        <time>2019-01-04T14:06:54Z</time>
      </trkpt>
      <trkpt lat="43.35162" lon="5.7665">
        <ele>477</ele>
        <time>2019-01-04T14:06:58Z</time>
      </trkpt>
      <trkpt lat="43.3516" lon="5.76644">
        <ele>477</ele>
        <time>2019-01-04T14:07:03Z</time>
      </trkpt>
      <trkpt lat="43.3516" lon="5.76636">
        <ele>477</ele>
        <time>2019-01-04T14:07:07Z</time>
      </trkpt>
      <trkpt lat="43.3516" lon="5.76628">
        <ele>477</ele>
        <time>2019-01-04T14:07:12Z</time>
      </trkpt>
      <trkpt lat="43.3516" lon="5.7662">
        <ele>478</ele>
        <time>2019-01-04T14:07:16Z</time>
      </trkpt>
      <trkpt lat="43.3516" lon="5.76614">
        <ele>479</ele>
        <time>2019-01-04T14:07:20Z</time>
      </trkpt>
      <trkpt lat="43.3516" lon="5.76606">
        <ele>479</ele>
        <time>2019-01-04T14:07:25Z</time>
      </trkpt>
      <trkpt lat="43.35161" lon="5.766">
        <ele>480</ele>
        <time>2019-01-04T14:07:28Z</time>
      </trkpt>
      <trkpt lat="43.3516" lon="5.76593">
        <ele>480</ele>
        <time>2019-01-04T14:07:31Z</time>
      </trkpt>
      <trkpt lat="43.35159" lon="5.76586">
        <ele>480</ele>
        <time>2019-01-04T14:07:34Z</time>
      </trkpt>
      <trkpt lat="43.35157" lon="5.76579">
        <ele>480</ele>
        <time>2019-01-04T14:07:37Z</time>
      </trkpt>
      <trkpt lat="43.35157" lon="5.76573">
        <ele>480</ele>
        <time>2019-01-04T14:07:42Z</time>
      </trkpt>
      <trkpt lat="43.35157" lon="5.76564">
        <ele>479</ele>
        <time>2019-01-04T14:07:47Z</time>
      </trkpt>
      <trkpt lat="43.35156" lon="5.76556">
        <ele>478</ele>
        <time>2019-01-04T14:07:52Z</time>
      </trkpt>
      <trkpt lat="43.35151" lon="5.76556">
        <ele>478</ele>
        <time>2019-01-04T14:08:02Z</time>
      </trkpt>
      <trkpt lat="43.35152" lon="5.76549">
        <ele>477</ele>
        <time>2019-01-04T14:08:05Z</time>
      </trkpt>
      <trkpt lat="43.35153" lon="5.76541">
        <ele>476</ele>
        <time>2019-01-04T14:08:10Z</time>
      </trkpt>
      <trkpt lat="43.35152" lon="5.76534">
        <ele>476</ele>
        <time>2019-01-04T14:08:14Z</time>
      </trkpt>
      <trkpt lat="43.35152" lon="5.76526">
        <ele>475</ele>
        <time>2019-01-04T14:08:18Z</time>
      </trkpt>
      <trkpt lat="43.35152" lon="5.76519">
        <ele>475</ele>
        <time>2019-01-04T14:08:22Z</time>
      </trkpt>
      <trkpt lat="43.35152" lon="5.76512">
        <ele>474</ele>
        <time>2019-01-04T14:08:26Z</time>
      </trkpt>
      <trkpt lat="43.35152" lon="5.76505">
        <ele>473</ele>
        <time>2019-01-04T14:08:30Z</time>
      </trkpt>
      <trkpt lat="43.35149" lon="5.76499">
        <ele>472</ele>
        <time>2019-01-04T14:08:34Z</time>
      </trkpt>
      <trkpt lat="43.35149" lon="5.76493">
        <ele>471</ele>
        <time>2019-01-04T14:08:37Z</time>
      </trkpt>
      <trkpt lat="43.35149" lon="5.76486">
        <ele>471</ele>
        <time>2019-01-04T14:08:41Z</time>
      </trkpt>
      <trkpt lat="43.35148" lon="5.7648">
        <ele>470</ele>
        <time>2019-01-04T14:08:45Z</time>
      </trkpt>
      <trkpt lat="43.35146" lon="5.76472">
        <ele>471</ele>
        <time>2019-01-04T14:08:50Z</time>
      </trkpt>
      <trkpt lat="43.35146" lon="5.76464">
        <ele>471</ele>
        <time>2019-01-04T14:08:56Z</time>
      </trkpt>
      <trkpt lat="43.35146" lon="5.76457">
        <ele>471</ele>
        <time>2019-01-04T14:09:02Z</time>
      </trkpt>
      <trkpt lat="43.35146" lon="5.76451">
        <ele>471</ele>
        <time>2019-01-04T14:09:06Z</time>
      </trkpt>
      <trkpt lat="43.35147" lon="5.76444">
        <ele>470</ele>
        <time>2019-01-04T14:09:11Z</time>
      </trkpt>
      <trkpt lat="43.35146" lon="5.76438">
        <ele>470</ele>
        <time>2019-01-04T14:09:14Z</time>
      </trkpt>
      <trkpt lat="43.35146" lon="5.76431">
        <ele>469</ele>
        <time>2019-01-04T14:09:17Z</time>
      </trkpt>
      <trkpt lat="43.35145" lon="5.76425">
        <ele>468</ele>
        <time>2019-01-04T14:09:20Z</time>
      </trkpt>
      <trkpt lat="43.35137" lon="5.7642">
        <ele>460</ele>
        <time>2019-01-04T14:10:23Z</time>
      </trkpt>
      <trkpt lat="43.35129" lon="5.76416">
        <ele>460</ele>
        <time>2019-01-04T14:10:28Z</time>
      </trkpt>
      <trkpt lat="43.35102" lon="5.76435">
        <ele>460</ele>
        <time>2019-01-04T14:10:32Z</time>
      </trkpt>
      <trkpt lat="43.35034" lon="5.76484">
        <ele>460</ele>
        <time>2019-01-04T14:10:35Z</time>
      </trkpt>
      <trkpt lat="43.3475" lon="5.76406">
        <ele>460</ele>
        <time>2019-01-04T14:10:38Z</time>
      </trkpt>
      <trkpt lat="43.3462" lon="5.76302">
        <ele>460</ele>
        <time>2019-01-04T14:10:41Z</time>
      </trkpt>
      <trkpt lat="43.34767" lon="5.76407">
        <ele>459</ele>
        <time>2019-01-04T14:10:44Z</time>
      </trkpt>
      <trkpt lat="43.34943" lon="5.76417">
        <ele>459</ele>
        <time>2019-01-04T14:10:55Z</time>
      </trkpt>
      <trkpt lat="43.35101" lon="5.76046">
        <ele>459</ele>
        <time>2019-01-04T14:10:58Z</time>
      </trkpt>
      <trkpt lat="43.35118" lon="5.7613">
        <ele>458</ele>
        <time>2019-01-04T14:11:02Z</time>
      </trkpt>
      <trkpt lat="43.35162" lon="5.76153">
        <ele>458</ele>
        <time>2019-01-04T14:11:06Z</time>
      </trkpt>
      <trkpt lat="43.35163" lon="5.76154">
        <ele>458</ele>
        <time>2019-01-04T14:11:10Z</time>
      </trkpt>
      <trkpt lat="43.35163" lon="5.76151">
        <ele>457</ele>
        <time>2019-01-04T14:11:14Z</time>
      </trkpt>
      <trkpt lat="43.35158" lon="5.76152">
        <ele>457</ele>
        <time>2019-01-04T14:11:18Z</time>
      </trkpt>
      <trkpt lat="43.35156" lon="5.76151">
        <ele>456</ele>
        <time>2019-01-04T14:11:25Z</time>
      </trkpt>
      <trkpt lat="43.35153" lon="5.7615">
        <ele>456</ele>
        <time>2019-01-04T14:11:29Z</time>
      </trkpt>
      <trkpt lat="43.35156" lon="5.76152">
        <ele>456</ele>
        <time>2019-01-04T14:11:34Z</time>
      </trkpt>
      <trkpt lat="43.35158" lon="5.76152">
        <ele>441</ele>
        <time>2019-01-04T14:16:47Z</time>
      </trkpt>
      <trkpt lat="43.35164" lon="5.76151">
        <ele>440</ele>
        <time>2019-01-04T14:17:06Z</time>
      </trkpt>
      <trkpt lat="43.35166" lon="5.76145">
        <ele>439</ele>
        <time>2019-01-04T14:17:10Z</time>
      </trkpt>
      <trkpt lat="43.35168" lon="5.76138">
        <ele>439</ele>
        <time>2019-01-04T14:17:15Z</time>
      </trkpt>
      <trkpt lat="43.35171" lon="5.76132">
        <ele>439</ele>
        <time>2019-01-04T14:17:19Z</time>
      </trkpt>
      <trkpt lat="43.35175" lon="5.76126">
        <ele>439</ele>
        <time>2019-01-04T14:17:24Z</time>
      </trkpt>
      <trkpt lat="43.35178" lon="5.76121">
        <ele>439</ele>
        <time>2019-01-04T14:17:28Z</time>
      </trkpt>
      <trkpt lat="43.35183" lon="5.76117">
        <ele>439</ele>
        <time>2019-01-04T14:17:32Z</time>
      </trkpt>
      <trkpt lat="43.35185" lon="5.76112">
        <ele>440</ele>
        <time>2019-01-04T14:17:36Z</time>
      </trkpt>
      <trkpt lat="43.35189" lon="5.76109">
        <ele>440</ele>
        <time>2019-01-04T14:17:40Z</time>
      </trkpt>
      <trkpt lat="43.35193" lon="5.76104">
        <ele>440</ele>
        <time>2019-01-04T14:17:44Z</time>
      </trkpt>
      <trkpt lat="43.35196" lon="5.76098">
        <ele>440</ele>
        <time>2019-01-04T14:17:49Z</time>
      </trkpt>
      <trkpt lat="43.35199" lon="5.76091">
        <ele>440</ele>
        <time>2019-01-04T14:17:53Z</time>
      </trkpt>
      <trkpt lat="43.35202" lon="5.76085">
        <ele>441</ele>
        <time>2019-01-04T14:17:57Z</time>
      </trkpt>
      <trkpt lat="43.35204" lon="5.7608">
        <ele>441</ele>
        <time>2019-01-04T14:18:01Z</time>
      </trkpt>
      <trkpt lat="43.35207" lon="5.76073">
        <ele>441</ele>
        <time>2019-01-04T14:18:06Z</time>
      </trkpt>
      <trkpt lat="43.35208" lon="5.76068">
        <ele>440</ele>
        <time>2019-01-04T14:18:10Z</time>
      </trkpt>
      <trkpt lat="43.3521" lon="5.76062">
        <ele>439</ele>
        <time>2019-01-04T14:18:14Z</time>
      </trkpt>
      <trkpt lat="43.35213" lon="5.76056">
        <ele>438</ele>
        <time>2019-01-04T14:18:18Z</time>
      </trkpt>
      <trkpt lat="43.35216" lon="5.76052">
        <ele>437</ele>
        <time>2019-01-04T14:18:22Z</time>
      </trkpt>
      <trkpt lat="43.3522" lon="5.76046">
        <ele>437</ele>
        <time>2019-01-04T14:18:27Z</time>
      </trkpt>
      <trkpt lat="43.35222" lon="5.76041">
        <ele>436</ele>
        <time>2019-01-04T14:18:31Z</time>
      </trkpt>
      <trkpt lat="43.35226" lon="5.76036">
        <ele>436</ele>
        <time>2019-01-04T14:18:36Z</time>
      </trkpt>
      <trkpt lat="43.35321" lon="5.75952">
        <ele>420</ele>
        <time>2019-01-04T14:25:04Z</time>
      </trkpt>
      <trkpt lat="43.35327" lon="5.75949">
        <ele>419</ele>
        <time>2019-01-04T14:25:10Z</time>
      </trkpt>
      <trkpt lat="43.35332" lon="5.7595">
        <ele>415</ele>
        <time>2019-01-04T14:25:17Z</time>
      </trkpt>
      <trkpt lat="43.35337" lon="5.75949">
        <ele>414</ele>
        <time>2019-01-04T14:25:22Z</time>
      </trkpt>
      <trkpt lat="43.35342" lon="5.75947">
        <ele>415</ele>
        <time>2019-01-04T14:25:27Z</time>
      </trkpt>
      <trkpt lat="43.35347" lon="5.75945">
        <ele>415</ele>
        <time>2019-01-04T14:25:33Z</time>
      </trkpt>
      <trkpt lat="43.35352" lon="5.75943">
        <ele>415</ele>
        <time>2019-01-04T14:25:38Z</time>
      </trkpt>
      <trkpt lat="43.35356" lon="5.75943">
        <ele>415</ele>
        <time>2019-01-04T14:25:45Z</time>
      </trkpt>
      <trkpt lat="43.35361" lon="5.75942">
        <ele>415</ele>
        <time>2019-01-04T14:25:51Z</time>
      </trkpt>
      <trkpt lat="43.35366" lon="5.75939">
        <ele>416</ele>
        <time>2019-01-04T14:25:57Z</time>
      </trkpt>
      <trkpt lat="43.3537" lon="5.75935">
        <ele>416</ele>
        <time>2019-01-04T14:26:02Z</time>
      </trkpt>
      <trkpt lat="43.35374" lon="5.75932">
        <ele>418</ele>
        <time>2019-01-04T14:26:06Z</time>
      </trkpt>
      <trkpt lat="43.35379" lon="5.75929">
        <ele>419</ele>
        <time>2019-01-04T14:26:10Z</time>
      </trkpt>
      <trkpt lat="43.35384" lon="5.75925">
        <ele>420</ele>
        <time>2019-01-04T14:26:14Z</time>
      </trkpt>
      <trkpt lat="43.35389" lon="5.75922">
        <ele>420</ele>
        <time>2019-01-04T14:26:18Z</time>
      </trkpt>
      <trkpt lat="43.35392" lon="5.75917">
        <ele>421</ele>
        <time>2019-01-04T14:26:22Z</time>
      </trkpt>
      <trkpt lat="43.35395" lon="5.75913">
        <ele>421</ele>
        <time>2019-01-04T14:26:26Z</time>
      </trkpt>
      <trkpt lat="43.35398" lon="5.75908">
        <ele>421</ele>
        <time>2019-01-04T14:26:30Z</time>
      </trkpt>
      <trkpt lat="43.35401" lon="5.75903">
        <ele>421</ele>
        <time>2019-01-04T14:26:34Z</time>
      </trkpt>
      <trkpt lat="43.35404" lon="5.75898">
        <ele>421</ele>
        <time>2019-01-04T14:26:38Z</time>
      </trkpt>
      <trkpt lat="43.35408" lon="5.75892">
        <ele>420</ele>
        <time>2019-01-04T14:26:43Z</time>
      </trkpt>
      <trkpt lat="43.35411" lon="5.75888">
        <ele>420</ele>
        <time>2019-01-04T14:26:47Z</time>
      </trkpt>
      <trkpt lat="43.35414" lon="5.75882">
        <ele>420</ele>
        <time>2019-01-04T14:26:51Z</time>
      </trkpt>
      <trkpt lat="43.35417" lon="5.75877">
        <ele>420</ele>
        <time>2019-01-04T14:26:55Z</time>
      </trkpt>
      <trkpt lat="43.3542" lon="5.75872">
        <ele>420</ele>
        <time>2019-01-04T14:26:59Z</time>
      </trkpt>
      <trkpt lat="43.35423" lon="5.75868">
        <ele>420</ele>
        <time>2019-01-04T14:27:03Z</time>
      </trkpt>
      <trkpt lat="43.35426" lon="5.75861">
        <ele>420</ele>
        <time>2019-01-04T14:27:08Z</time>
      </trkpt>
      <trkpt lat="43.3543" lon="5.75856">
        <ele>419</ele>
        <time>2019-01-04T14:27:12Z</time>
      </trkpt>
      <trkpt lat="43.35434" lon="5.75852">
        <ele>419</ele>
        <time>2019-01-04T14:27:17Z</time>
      </trkpt>
      <trkpt lat="43.35437" lon="5.75846">
        <ele>419</ele>
        <time>2019-01-04T14:27:22Z</time>
      </trkpt>
      <trkpt lat="43.35441" lon="5.75842">
        <ele>419</ele>
        <time>2019-01-04T14:27:26Z</time>
      </trkpt>
      <trkpt lat="43.35445" lon="5.75838">
        <ele>418</ele>
        <time>2019-01-04T14:27:30Z</time>
      </trkpt>
      <trkpt lat="43.35449" lon="5.75834">
        <ele>418</ele>
        <time>2019-01-04T14:27:35Z</time>
      </trkpt>
      <trkpt lat="43.35453" lon="5.75829">
        <ele>418</ele>
        <time>2019-01-04T14:27:41Z</time>
      </trkpt>
      <trkpt lat="43.35457" lon="5.75825">
        <ele>418</ele>
        <time>2019-01-04T14:27:47Z</time>
      </trkpt>
      <trkpt lat="43.3546" lon="5.75821">
        <ele>417</ele>
        <time>2019-01-04T14:27:51Z</time>
      </trkpt>
      <trkpt lat="43.35465" lon="5.75816">
        <ele>418</ele>
        <time>2019-01-04T14:27:55Z</time>
      </trkpt>
      <trkpt lat="43.35469" lon="5.75812">
        <ele>418</ele>
        <time>2019-01-04T14:27:58Z</time>
      </trkpt>
      <trkpt lat="43.35471" lon="5.75806">
        <ele>418</ele>
        <time>2019-01-04T14:28:04Z</time>
      </trkpt>
      <trkpt lat="43.35475" lon="5.75801">
        <ele>418</ele>
        <time>2019-01-04T14:28:08Z</time>
      </trkpt>
      <trkpt lat="43.3548" lon="5.758">
        <ele>419</ele>
        <time>2019-01-04T14:28:12Z</time>
      </trkpt>
      <trkpt lat="43.35485" lon="5.75798">
        <ele>420</ele>
        <time>2019-01-04T14:28:17Z</time>
      </trkpt>
      <trkpt lat="43.35489" lon="5.75794">
        <ele>420</ele>
        <time>2019-01-04T14:28:22Z</time>
      </trkpt>
      <trkpt lat="43.35493" lon="5.75789">
        <ele>421</ele>
        <time>2019-01-04T14:28:27Z</time>
      </trkpt>
      <trkpt lat="43.35498" lon="5.75786">
        <ele>422</ele>
        <time>2019-01-04T14:28:32Z</time>
      </trkpt>
      <trkpt lat="43.35503" lon="5.75784">
        <ele>423</ele>
        <time>2019-01-04T14:28:36Z</time>
      </trkpt>
      <trkpt lat="43.35508" lon="5.75781">
        <ele>423</ele>
        <time>2019-01-04T14:28:40Z</time>
      </trkpt>
      <trkpt lat="43.35512" lon="5.75779">
        <ele>423</ele>
        <time>2019-01-04T14:28:44Z</time>
      </trkpt>
      <trkpt lat="43.35518" lon="5.75776">
        <ele>423</ele>
        <time>2019-01-04T14:28:49Z</time>
      </trkpt>
      <trkpt lat="43.35523" lon="5.75773">
        <ele>423</ele>
        <time>2019-01-04T14:28:53Z</time>
      </trkpt>
      <trkpt lat="43.35528" lon="5.75772">
        <ele>423</ele>
        <time>2019-01-04T14:28:58Z</time>
      </trkpt>
      <trkpt lat="43.35533" lon="5.7577">
        <ele>422</ele>
        <time>2019-01-04T14:29:02Z</time>
      </trkpt>
      <trkpt lat="43.35537" lon="5.75768">
        <ele>421</ele>
        <time>2019-01-04T14:29:06Z</time>
      </trkpt>
      <trkpt lat="43.35542" lon="5.75763">
        <ele>421</ele>
        <time>2019-01-04T14:29:15Z</time>
      </trkpt>
      <trkpt lat="43.35545" lon="5.75759">
        <ele>420</ele>
        <time>2019-01-04T14:29:19Z</time>
      </trkpt>
      <trkpt lat="43.3555" lon="5.75755">
        <ele>420</ele>
        <time>2019-01-04T14:29:23Z</time>
      </trkpt>
      <trkpt lat="43.35554" lon="5.75752">
        <ele>420</ele>
        <time>2019-01-04T14:29:27Z</time>
      </trkpt>
      <trkpt lat="43.35557" lon="5.75747">
        <ele>421</ele>
        <time>2019-01-04T14:29:32Z</time>
      </trkpt>
      <trkpt lat="43.35561" lon="5.75743">
        <ele>421</ele>
        <time>2019-01-04T14:29:37Z</time>
      </trkpt>
      <trkpt lat="43.35566" lon="5.7574">
        <ele>421</ele>
        <time>2019-01-04T14:29:42Z</time>
      </trkpt>
      <trkpt lat="43.35572" lon="5.75738">
        <ele>421</ele>
        <time>2019-01-04T14:29:45Z</time>
      </trkpt>
      <trkpt lat="43.35577" lon="5.75735">
        <ele>421</ele>
        <time>2019-01-04T14:29:48Z</time>
      </trkpt>
      <trkpt lat="43.35581" lon="5.75732">
        <ele>421</ele>
        <time>2019-01-04T14:29:52Z</time>
      </trkpt>
      <trkpt lat="43.35587" lon="5.7573">
        <ele>421</ele>
        <time>2019-01-04T14:29:58Z</time>
      </trkpt>
      <trkpt lat="43.35591" lon="5.75726">
        <ele>421</ele>
        <time>2019-01-04T14:30:02Z</time>
      </trkpt>
      <trkpt lat="43.35596" lon="5.75722">
        <ele>421</ele>
        <time>2019-01-04T14:30:06Z</time>
      </trkpt>
      <trkpt lat="43.35598" lon="5.75716">
        <ele>420</ele>
        <time>2019-01-04T14:30:11Z</time>
      </trkpt>
      <trkpt lat="43.35601" lon="5.7571">
        <ele>419</ele>
        <time>2019-01-04T14:30:16Z</time>
      </trkpt>
      <trkpt lat="43.35605" lon="5.75706">
        <ele>418</ele>
        <time>2019-01-04T14:30:19Z</time>
      </trkpt>
      <trkpt lat="43.35608" lon="5.75702">
        <ele>417</ele>
        <time>2019-01-04T14:30:24Z</time>
      </trkpt>
      <trkpt lat="43.35612" lon="5.75698">
        <ele>416</ele>
        <time>2019-01-04T14:30:27Z</time>
      </trkpt>
      <trkpt lat="43.35616" lon="5.75693">
        <ele>416</ele>
        <time>2019-01-04T14:30:32Z</time>
      </trkpt>
      <trkpt lat="43.3562" lon="5.75689">
        <ele>416</ele>
        <time>2019-01-04T14:30:37Z</time>
      </trkpt>
      <trkpt lat="43.35624" lon="5.75686">
        <ele>416</ele>
        <time>2019-01-04T14:30:44Z</time>
      </trkpt>
      <trkpt lat="43.35628" lon="5.75682">
        <ele>415</ele>
        <time>2019-01-04T14:30:49Z</time>
      </trkpt>
      <trkpt lat="43.35632" lon="5.75678">
        <ele>415</ele>
        <time>2019-01-04T14:30:53Z</time>
      </trkpt>
      <trkpt lat="43.35635" lon="5.75673">
        <ele>415</ele>
        <time>2019-01-04T14:30:57Z</time>
      </trkpt>
      <trkpt lat="43.35638" lon="5.75667">
        <ele>415</ele>
        <time>2019-01-04T14:31:03Z</time>
      </trkpt>
      <trkpt lat="43.35641" lon="5.75662">
        <ele>416</ele>
        <time>2019-01-04T14:31:07Z</time>
      </trkpt>
      <trkpt lat="43.35645" lon="5.75659">
        <ele>416</ele>
        <time>2019-01-04T14:31:10Z</time>
      </trkpt>
      <trkpt lat="43.3565" lon="5.75655">
        <ele>417</ele>
        <time>2019-01-04T14:31:14Z</time>
      </trkpt>
      <trkpt lat="43.35654" lon="5.75654">
        <ele>416</ele>
        <time>2019-01-04T14:31:20Z</time>
      </trkpt>
      <trkpt lat="43.35659" lon="5.75651">
        <ele>416</ele>
        <time>2019-01-04T14:31:25Z</time>
      </trkpt>
      <trkpt lat="43.35664" lon="5.75648">
        <ele>415</ele>
        <time>2019-01-04T14:31:30Z</time>
      </trkpt>
      <trkpt lat="43.35668" lon="5.75644">
        <ele>414</ele>
        <time>2019-01-04T14:31:35Z</time>
      </trkpt>
      <trkpt lat="43.35672" lon="5.75641">
        <ele>413</ele>
        <time>2019-01-04T14:31:39Z</time>
      </trkpt>
      <trkpt lat="43.35677" lon="5.7564">
        <ele>412</ele>
        <time>2019-01-04T14:31:42Z</time>
      </trkpt>
      <trkpt lat="43.35682" lon="5.75641">
        <ele>412</ele>
        <time>2019-01-04T14:31:47Z</time>
      </trkpt>
      <trkpt lat="43.35687" lon="5.75638">
        <ele>412</ele>
        <time>2019-01-04T14:31:51Z</time>
      </trkpt>
      <trkpt lat="43.35691" lon="5.75634">
        <ele>412</ele>
        <time>2019-01-04T14:31:55Z</time>
      </trkpt>
      <trkpt lat="43.35696" lon="5.7563">
        <ele>412</ele>
        <time>2019-01-04T14:32:01Z</time>
      </trkpt>
      <trkpt lat="43.35701" lon="5.75629">
        <ele>413</ele>
        <time>2019-01-04T14:32:05Z</time>
      </trkpt>
      <trkpt lat="43.35706" lon="5.7563">
        <ele>413</ele>
        <time>2019-01-04T14:32:10Z</time>
      </trkpt>
      <trkpt lat="43.35711" lon="5.75627">
        <ele>413</ele>
        <time>2019-01-04T14:32:14Z</time>
      </trkpt>
      <trkpt lat="43.35715" lon="5.75624">
        <ele>414</ele>
        <time>2019-01-04T14:32:18Z</time>
      </trkpt>
      <trkpt lat="43.3572" lon="5.75622">
        <ele>414</ele>
        <time>2019-01-04T14:32:23Z</time>
      </trkpt>
      <trkpt lat="43.35723" lon="5.75618">
        <ele>414</ele>
        <time>2019-01-04T14:32:27Z</time>
      </trkpt>
      <trkpt lat="43.35725" lon="5.75611">
        <ele>413</ele>
        <time>2019-01-04T14:32:32Z</time>
      </trkpt>
      <trkpt lat="43.35729" lon="5.75604">
        <ele>413</ele>
        <time>2019-01-04T14:32:36Z</time>
      </trkpt>
      <trkpt lat="43.3573" lon="5.75598">
        <ele>413</ele>
        <time>2019-01-04T14:32:39Z</time>
      </trkpt>
      <trkpt lat="43.35732" lon="5.75591">
        <ele>412</ele>
        <time>2019-01-04T14:32:44Z</time>
      </trkpt>
      <trkpt lat="43.35734" lon="5.75585">
        <ele>412</ele>
        <time>2019-01-04T14:32:48Z</time>
      </trkpt>
      <trkpt lat="43.35736" lon="5.7558">
        <ele>412</ele>
        <time>2019-01-04T14:32:51Z</time>
      </trkpt>
      <trkpt lat="43.3574" lon="5.75575">
        <ele>412</ele>
        <time>2019-01-04T14:32:55Z</time>
      </trkpt>
      <trkpt lat="43.35745" lon="5.7557">
        <ele>412</ele>
        <time>2019-01-04T14:32:59Z</time>
      </trkpt>
      <trkpt lat="43.35749" lon="5.75566">
        <ele>412</ele>
        <time>2019-01-04T14:33:04Z</time>
      </trkpt>
      <trkpt lat="43.35751" lon="5.7556">
        <ele>412</ele>
        <time>2019-01-04T14:33:07Z</time>
      </trkpt>
      <trkpt lat="43.35753" lon="5.75554">
        <ele>412</ele>
        <time>2019-01-04T14:33:12Z</time>
      </trkpt>
      <trkpt lat="43.35757" lon="5.75551">
        <ele>411</ele>
        <time>2019-01-04T14:33:18Z</time>
      </trkpt>
      <trkpt lat="43.35762" lon="5.75546">
        <ele>411</ele>
        <time>2019-01-04T14:33:24Z</time>
      </trkpt>
      <trkpt lat="43.35764" lon="5.75542">
        <ele>411</ele>
        <time>2019-01-04T14:33:28Z</time>
      </trkpt>
      <trkpt lat="43.35767" lon="5.75535">
        <ele>411</ele>
        <time>2019-01-04T14:33:35Z</time>
      </trkpt>
      <trkpt lat="43.3577" lon="5.7553">
        <ele>411</ele>
        <time>2019-01-04T14:33:40Z</time>
      </trkpt>
      <trkpt lat="43.35771" lon="5.75524">
        <ele>411</ele>
        <time>2019-01-04T14:33:46Z</time>
      </trkpt>
      <trkpt lat="43.35772" lon="5.75517">
        <ele>411</ele>
        <time>2019-01-04T14:33:50Z</time>
      </trkpt>
      <trkpt lat="43.35776" lon="5.75511">
        <ele>411</ele>
        <time>2019-01-04T14:33:58Z</time>
      </trkpt>
      <trkpt lat="43.35779" lon="5.75507">
        <ele>411</ele>
        <time>2019-01-04T14:34:03Z</time>
      </trkpt>
      <trkpt lat="43.35783" lon="5.75504">
        <ele>411</ele>
        <time>2019-01-04T14:34:10Z</time>
      </trkpt>
      <trkpt lat="43.35786" lon="5.75499">
        <ele>411</ele>
        <time>2019-01-04T14:34:17Z</time>
      </trkpt>
      <trkpt lat="43.35788" lon="5.75493">
        <ele>411</ele>
        <time>2019-01-04T14:34:32Z</time>
      </trkpt>
      <trkpt lat="43.35791" lon="5.75487">
        <ele>411</ele>
        <time>2019-01-04T14:34:38Z</time>
      </trkpt>
      <trkpt lat="43.35794" lon="5.75482">
        <ele>411</ele>
        <time>2019-01-04T14:34:43Z</time>
      </trkpt>
      <trkpt lat="43.35797" lon="5.75477">
        <ele>411</ele>
        <time>2019-01-04T14:34:47Z</time>
      </trkpt>
      <trkpt lat="43.35798" lon="5.75471">
        <ele>410</ele>
        <time>2019-01-04T14:34:51Z</time>
      </trkpt>
      <trkpt lat="43.35801" lon="5.75466">
        <ele>410</ele>
        <time>2019-01-04T14:34:55Z</time>
      </trkpt>
      <trkpt lat="43.35804" lon="5.75461">
        <ele>409</ele>
        <time>2019-01-04T14:34:59Z</time>
      </trkpt>
      <trkpt lat="43.35808" lon="5.75455">
        <ele>409</ele>
        <time>2019-01-04T14:35:02Z</time>
      </trkpt>
      <trkpt lat="43.35811" lon="5.75448">
        <ele>408</ele>
        <time>2019-01-04T14:35:07Z</time>
      </trkpt>
      <trkpt lat="43.35813" lon="5.75443">
        <ele>408</ele>
        <time>2019-01-04T14:35:11Z</time>
      </trkpt>
      <trkpt lat="43.35818" lon="5.75439">
        <ele>408</ele>
        <time>2019-01-04T14:35:16Z</time>
      </trkpt>
      <trkpt lat="43.35821" lon="5.75433">
        <ele>408</ele>
        <time>2019-01-04T14:35:21Z</time>
      </trkpt>
      <trkpt lat="43.35823" lon="5.75427">
        <ele>408</ele>
        <time>2019-01-04T14:35:26Z</time>
      </trkpt>
      <trkpt lat="43.35827" lon="5.75422">
        <ele>407</ele>
        <time>2019-01-04T14:35:31Z</time>
      </trkpt>
      <trkpt lat="43.35829" lon="5.75416">
        <ele>407</ele>
        <time>2019-01-04T14:35:36Z</time>
      </trkpt>
      <trkpt lat="43.35833" lon="5.75412">
        <ele>406</ele>
        <time>2019-01-04T14:35:40Z</time>
      </trkpt>
      <trkpt lat="43.35838" lon="5.75409">
        <ele>406</ele>
        <time>2019-01-04T14:35:45Z</time>
      </trkpt>
      <trkpt lat="43.35841" lon="5.75404">
        <ele>405</ele>
        <time>2019-01-04T14:35:50Z</time>
      </trkpt>
      <trkpt lat="43.35844" lon="5.75398">
        <ele>405</ele>
        <time>2019-01-04T14:35:54Z</time>
      </trkpt>
      <trkpt lat="43.35848" lon="5.75394">
        <ele>405</ele>
        <time>2019-01-04T14:35:59Z</time>
      </trkpt>
      <trkpt lat="43.35851" lon="5.75389">
        <ele>406</ele>
        <time>2019-01-04T14:36:04Z</time>
      </trkpt>
      <trkpt lat="43.35856" lon="5.7539">
        <ele>406</ele>
        <time>2019-01-04T14:36:20Z</time>
      </trkpt>
      <trkpt lat="43.35861" lon="5.75387">
        <ele>407</ele>
        <time>2019-01-04T14:36:26Z</time>
      </trkpt>
      <trkpt lat="43.35863" lon="5.75382">
        <ele>407</ele>
        <time>2019-01-04T14:36:34Z</time>
      </trkpt>
      <trkpt lat="43.35865" lon="5.75375">
        <ele>408</ele>
        <time>2019-01-04T14:36:40Z</time>
      </trkpt>
      <trkpt lat="43.35869" lon="5.75371">
        <ele>408</ele>
        <time>2019-01-04T14:36:48Z</time>
      </trkpt>
      <trkpt lat="43.35872" lon="5.75366">
        <ele>408</ele>
        <time>2019-01-04T14:36:52Z</time>
      </trkpt>
      <trkpt lat="43.35876" lon="5.75361">
        <ele>408</ele>
        <time>2019-01-04T14:36:57Z</time>
      </trkpt>
      <trkpt lat="43.3588" lon="5.75357">
        <ele>409</ele>
        <time>2019-01-04T14:37:02Z</time>
      </trkpt>
      <trkpt lat="43.35884" lon="5.75352">
        <ele>409</ele>
        <time>2019-01-04T14:37:07Z</time>
      </trkpt>
      <trkpt lat="43.35886" lon="5.75347">
        <ele>409</ele>
        <time>2019-01-04T14:37:11Z</time>
      </trkpt>
      <trkpt lat="43.35889" lon="5.75341">
        <ele>410</ele>
        <time>2019-01-04T14:37:16Z</time>
      </trkpt>
      <trkpt lat="43.35894" lon="5.7534">
        <ele>410</ele>
        <time>2019-01-04T14:37:20Z</time>
      </trkpt>
      <trkpt lat="43.35899" lon="5.7534">
        <ele>411</ele>
        <time>2019-01-04T14:37:27Z</time>
      </trkpt>
      <trkpt lat="43.35903" lon="5.75343">
        <ele>411</ele>
        <time>2019-01-04T14:37:42Z</time>
      </trkpt>
      <trkpt lat="43.35904" lon="5.75344">
        <ele>411</ele>
        <time>2019-01-04T14:38:08Z</time>
      </trkpt>
      <trkpt lat="43.35906" lon="5.75336">
        <ele>412</ele>
        <time>2019-01-04T14:38:11Z</time>
      </trkpt>
      <trkpt lat="43.3591" lon="5.75342">
        <ele>412</ele>
        <time>2019-01-04T14:38:33Z</time>
      </trkpt>
      <trkpt lat="43.35911" lon="5.75344">
        <ele>411</ele>
        <time>2019-01-04T14:38:53Z</time>
      </trkpt>
      <trkpt lat="43.35913" lon="5.7534">
        <ele>412</ele>
        <time>2019-01-04T14:38:57Z</time>
      </trkpt>
      <trkpt lat="43.35907" lon="5.75343">
        <ele>411</ele>
        <time>2019-01-04T14:38:57Z</time>
      </trkpt>
      <trkpt lat="43.35911" lon="5.75346">
        <ele>409</ele>
        <time>2019-01-04T14:39:00Z</time>
      </trkpt>
      <trkpt lat="43.35916" lon="5.75346">
        <ele>408</ele>
        <time>2019-01-04T14:39:09Z</time>
      </trkpt>
      <trkpt lat="43.3592" lon="5.75345">
        <ele>409</ele>
        <time>2019-01-04T14:39:15Z</time>
      </trkpt>
      <trkpt lat="43.35925" lon="5.75347">
        <ele>407</ele>
        <time>2019-01-04T14:39:36Z</time>
      </trkpt>
      <trkpt lat="43.35931" lon="5.75348">
        <ele>408</ele>
        <time>2019-01-04T14:39:41Z</time>
      </trkpt>
      <trkpt lat="43.35934" lon="5.75343">
        <ele>410</ele>
        <time>2019-01-04T14:39:46Z</time>
      </trkpt>
      <trkpt lat="43.35933" lon="5.75342">
        <ele>410</ele>
        <time>2019-01-04T14:40:08Z</time>
      </trkpt>
      <trkpt lat="43.35929" lon="5.75339">
        <ele>410</ele>
        <time>2019-01-04T14:40:12Z</time>
      </trkpt>
      <trkpt lat="43.35935" lon="5.7535">
        <ele>408</ele>
        <time>2019-01-04T14:40:13Z</time>
      </trkpt>
      <trkpt lat="43.35931" lon="5.75334">
        <ele>407</ele>
        <time>2019-01-04T14:40:14Z</time>
      </trkpt>
      <trkpt lat="43.35935" lon="5.75337">
        <ele>405</ele>
        <time>2019-01-04T14:40:22Z</time>
      </trkpt>
      <trkpt lat="43.35958" lon="5.75461">
        <ele>432.22265625</ele>
      </trkpt>
      <trkpt lat="43.35924" lon="5.75569">
        <ele>439.9453125</ele>
      </trkpt>
      <trkpt lat="43.36024" lon="5.75899">
        <ele>485.8515625</ele>
      </trkpt>
      <trkpt lat="43.36059" lon="5.7601">
        <ele>500.59375</ele>
      </trkpt>
      <trkpt lat="43.36154" lon="5.76037">
        <ele>518.3671875</ele>
      </trkpt>
      <trkpt lat="43.36228" lon="5.76189">
        <ele>522.40625</ele>
      </trkpt>
      <trkpt lat="43.3625" lon="5.76215">
        <ele>520.90625</ele>
      </trkpt>
      <trkpt lat="43.36255" lon="5.76222">
        <ele>517.32421875</ele>
      </trkpt>
      <trkpt lat="43.36268" lon="5.7623">
        <ele>511.87109375</ele>
      </trkpt>
      <trkpt lat="43.36271" lon="5.76243">
        <ele>510.65234375</ele>
      </trkpt>
      <trkpt lat="43.36335" lon="5.76358">
        <ele>503.24609375</ele>
      </trkpt>
      <trkpt lat="43.36362" lon="5.76339">
        <ele>498.77734375</ele>
      </trkpt>
      <trkpt lat="43.36419" lon="5.76302">
        <ele>498.35546875</ele>
      </trkpt>
      <trkpt lat="43.36469" lon="5.76434">
        <ele>501.97265625</ele>
      </trkpt>
      <trkpt lat="43.3647" lon="5.76448">
        <ele>503.1015625</ele>
      </trkpt>
      <trkpt lat="43.36486" lon="5.76461">
        <ele>501.44921875</ele>
      </trkpt>
      <trkpt lat="43.36521" lon="5.7644">
        <ele>492.703125</ele>
      </trkpt>
      <trkpt lat="43.36551" lon="5.76444">
        <ele>487.625</ele>
      </trkpt>
      <trkpt lat="43.36585" lon="5.76494">
        <ele>485.515625</ele>
      </trkpt>
      <trkpt lat="43.36614" lon="5.76571">
        <ele>486.1328125</ele>
      </trkpt>
      <trkpt lat="43.36629" lon="5.76609">
        <ele>486.58203125</ele>
      </trkpt>
      <trkpt lat="43.36742" lon="5.76663">
        <ele>471.89453125</ele>
      </trkpt>
      <trkpt lat="43.36795" lon="5.76718">
        <ele>467.35546875</ele>
      </trkpt>
      <trkpt lat="43.36872" lon="5.76792">
        <ele>455.23046875</ele>
      </trkpt>
      <trkpt lat="43.36918" lon="5.76881">
        <ele>447.9921875</ele>
      </trkpt>
      <trkpt lat="43.3696" lon="5.76981">
        <ele>444.71484375</ele>
      </trkpt>
      <trkpt lat="43.37042" lon="5.77051">
        <ele>434.60546875</ele>
      </trkpt>
      <trkpt lat="43.37085" lon="5.77086">
        <ele>430.32421875</ele>
      </trkpt>
      <trkpt lat="43.37111" lon="5.77109">
        <ele>427.79296875</ele>
      </trkpt>
      <trkpt lat="43.37132" lon="5.77198">
        <ele>422.37890625</ele>
      </trkpt>
      <trkpt lat="43.37136" lon="5.77247">
        <ele>418.8515625</ele>
      </trkpt>
      <trkpt lat="43.37108" lon="5.7745">
        <ele>412.140625</ele>
      </trkpt>
      <trkpt lat="43.37093" lon="5.77593">
        <ele>408.63671875</ele>
      </trkpt>
      <trkpt lat="43.3717" lon="5.77613">
        <ele>405.765625</ele>
      </trkpt>
      <trkpt lat="43.37251" lon="5.77577">
        <ele>405.09765625</ele>
      </trkpt>
      <trkpt lat="43.37257" lon="5.77577">
        <ele>404.97265625</ele>
      </trkpt>
      <trkpt lat="43.37234" lon="5.77715">
        <ele>400.54296875</ele>
      </trkpt>
      <trkpt lat="43.3722" lon="5.77865">
        <ele>396.48828125</ele>
      </trkpt>
      <trkpt lat="43.37001" lon="5.7784">
        <ele>410.9296875</ele>
      </trkpt>
      <trkpt lat="43.36997" lon="5.77939">
        <ele>407.8359375</ele>
      </trkpt>
      <trkpt lat="43.37003" lon="5.78096">
        <ele>403.00390625</ele>
      </trkpt>
      <trkpt lat="43.36974" lon="5.78167">
        <ele>405.28125</ele>
      </trkpt>
      <trkpt lat="43.36812" lon="5.78091">
        <ele>417.66015625</ele>
      </trkpt>
      <trkpt lat="43.36628" lon="5.78057">
        <ele>426.22265625</ele>
      </trkpt>
    </trkseg>
  </trk>
  <trk>
    <name><![CDATA[source HUVEAUNE]]></name>
    <trkseg>
      <trkpt lat="43.35484" lon="5.77731">
        <ele>367.36</ele>
        <time>2019-01-06T10:51:28Z</time>
      </trkpt>
      <trkpt lat="43.35476" lon="5.77719">
        <ele>368.8</ele>
        <time>2019-01-06T10:51:43Z</time>
      </trkpt>
      <trkpt lat="43.35466" lon="5.7771">
        <ele>369.76</ele>
        <time>2019-01-06T10:51:59Z</time>
      </trkpt>
      <trkpt lat="43.35458" lon="5.77696">
        <ele>369.76</ele>
        <time>2019-01-06T10:52:19Z</time>
      </trkpt>
      <trkpt lat="43.35446" lon="5.77686">
        <ele>370.73</ele>
        <time>2019-01-06T10:52:39Z</time>
      </trkpt>
      <trkpt lat="43.35445" lon="5.77693">
        <ele>371.21</ele>
        <time>2019-01-06T10:53:02Z</time>
      </trkpt>
      <trkpt lat="43.35444" lon="5.77694">
        <ele>367.84</ele>
        <time>2019-01-06T10:53:09Z</time>
      </trkpt>
      <trkpt lat="43.35443" lon="5.77695">
        <ele>372.17</ele>
        <time>2019-01-06T10:53:12Z</time>
      </trkpt>
      <trkpt lat="43.35431" lon="5.77691">
        <ele>371.21</ele>
        <time>2019-01-06T10:53:33Z</time>
      </trkpt>
      <trkpt lat="43.35429" lon="5.77691">
        <ele>372.65</ele>
        <time>2019-01-06T10:53:35Z</time>
      </trkpt>
      <trkpt lat="43.35426" lon="5.7769">
        <ele>370.73</ele>
        <time>2019-01-06T10:53:38Z</time>
      </trkpt>
      <trkpt lat="43.35422" lon="5.77689">
        <ele>372.65</ele>
        <time>2019-01-06T10:53:41Z</time>
      </trkpt>
      <trkpt lat="43.35402" lon="5.77684">
        <ele>373.13</ele>
        <time>2019-01-06T10:54:02Z</time>
      </trkpt>
      <trkpt lat="43.35378" lon="5.7768">
        <ele>375.05</ele>
        <time>2019-01-06T10:54:24Z</time>
      </trkpt>
      <trkpt lat="43.35369" lon="5.7768">
        <ele>376.01</ele>
        <time>2019-01-06T10:54:32Z</time>
      </trkpt>
      <trkpt lat="43.35367" lon="5.7768">
        <ele>376.01</ele>
        <time>2019-01-06T10:54:33Z</time>
      </trkpt>
      <trkpt lat="43.35366" lon="5.7768">
        <ele>376.01</ele>
        <time>2019-01-06T10:54:34Z</time>
      </trkpt>
      <trkpt lat="43.35365" lon="5.77679">
        <ele>376.01</ele>
        <time>2019-01-06T10:54:35Z</time>
      </trkpt>
      <trkpt lat="43.35364" lon="5.77678">
        <ele>374.57</ele>
        <time>2019-01-06T10:54:36Z</time>
      </trkpt>
      <trkpt lat="43.3536" lon="5.77674">
        <ele>376.97</ele>
        <time>2019-01-06T10:54:41Z</time>
      </trkpt>
      <trkpt lat="43.35346" lon="5.77669">
        <ele>378.42</ele>
        <time>2019-01-06T10:54:56Z</time>
      </trkpt>
      <trkpt lat="43.3534" lon="5.77666">
        <ele>378.9</ele>
        <time>2019-01-06T10:55:03Z</time>
      </trkpt>
      <trkpt lat="43.35323" lon="5.77651">
        <ele>380.34</ele>
        <time>2019-01-06T10:55:19Z</time>
      </trkpt>
      <trkpt lat="43.3531" lon="5.77642">
        <ele>380.34</ele>
        <time>2019-01-06T10:55:31Z</time>
      </trkpt>
      <trkpt lat="43.35308" lon="5.77639">
        <ele>382.26</ele>
        <time>2019-01-06T10:55:33Z</time>
      </trkpt>
      <trkpt lat="43.35299" lon="5.77632">
        <ele>383.22</ele>
        <time>2019-01-06T10:55:42Z</time>
      </trkpt>
      <trkpt lat="43.35293" lon="5.77628">
        <ele>382.74</ele>
        <time>2019-01-06T10:55:50Z</time>
      </trkpt>
      <trkpt lat="43.35288" lon="5.77625">
        <ele>385.15</ele>
        <time>2019-01-06T10:55:55Z</time>
      </trkpt>
      <trkpt lat="43.35287" lon="5.77624">
        <ele>383.22</ele>
        <time>2019-01-06T10:55:57Z</time>
      </trkpt>
      <trkpt lat="43.35285" lon="5.77621">
        <ele>384.66</ele>
        <time>2019-01-06T10:55:59Z</time>
      </trkpt>
      <trkpt lat="43.35279" lon="5.77615">
        <ele>386.59</ele>
        <time>2019-01-06T10:56:07Z</time>
      </trkpt>
      <trkpt lat="43.35273" lon="5.77611">
        <ele>386.59</ele>
        <time>2019-01-06T10:56:18Z</time>
      </trkpt>
      <trkpt lat="43.35268" lon="5.77609">
        <ele>388.03</ele>
        <time>2019-01-06T10:56:24Z</time>
      </trkpt>
      <trkpt lat="43.3526" lon="5.77602">
        <ele>388.99</ele>
        <time>2019-01-06T10:56:36Z</time>
      </trkpt>
      <trkpt lat="43.35256" lon="5.776">
        <ele>390.43</ele>
        <time>2019-01-06T10:56:42Z</time>
      </trkpt>
      <trkpt lat="43.35252" lon="5.77597">
        <ele>391.87</ele>
        <time>2019-01-06T10:56:48Z</time>
      </trkpt>
      <trkpt lat="43.35241" lon="5.7759">
        <ele>393.32</ele>
        <time>2019-01-06T10:57:00Z</time>
      </trkpt>
      <trkpt lat="43.35233" lon="5.77581">
        <ele>395.72</ele>
        <time>2019-01-06T10:57:10Z</time>
      </trkpt>
      <trkpt lat="43.35229" lon="5.77578">
        <ele>395.72</ele>
        <time>2019-01-06T10:57:14Z</time>
      </trkpt>
      <trkpt lat="43.35223" lon="5.77573">
        <ele>396.2</ele>
        <time>2019-01-06T10:57:22Z</time>
      </trkpt>
      <trkpt lat="43.35219" lon="5.77571">
        <ele>396.68</ele>
        <time>2019-01-06T10:57:26Z</time>
      </trkpt>
      <trkpt lat="43.35212" lon="5.77561">
        <ele>399.08</ele>
        <time>2019-01-06T10:57:40Z</time>
      </trkpt>
      <trkpt lat="43.35212" lon="5.77556">
        <ele>400.05</ele>
        <time>2019-01-06T10:57:44Z</time>
      </trkpt>
      <trkpt lat="43.35211" lon="5.77555">
        <ele>400.05</ele>
        <time>2019-01-06T10:57:45Z</time>
      </trkpt>
      <trkpt lat="43.35207" lon="5.77537">
        <ele>400.53</ele>
        <time>2019-01-06T10:57:58Z</time>
      </trkpt>
      <trkpt lat="43.35204" lon="5.77521">
        <ele>400.53</ele>
        <time>2019-01-06T10:58:11Z</time>
      </trkpt>
      <trkpt lat="43.35201" lon="5.77504">
        <ele>400.53</ele>
        <time>2019-01-06T10:58:23Z</time>
      </trkpt>
      <trkpt lat="43.35201" lon="5.77484">
        <ele>401.49</ele>
        <time>2019-01-06T10:58:35Z</time>
      </trkpt>
      <trkpt lat="43.35201" lon="5.7746">
        <ele>401.01</ele>
        <time>2019-01-06T10:58:49Z</time>
      </trkpt>
      <trkpt lat="43.35203" lon="5.77455">
        <ele>401.49</ele>
        <time>2019-01-06T10:58:53Z</time>
      </trkpt>
      <trkpt lat="43.35204" lon="5.77451">
        <ele>399.57</ele>
        <time>2019-01-06T10:58:56Z</time>
      </trkpt>
      <trkpt lat="43.35205" lon="5.77449">
        <ele>401.97</ele>
        <time>2019-01-06T10:58:58Z</time>
      </trkpt>
      <trkpt lat="43.35208" lon="5.77446">
        <ele>400.53</ele>
        <time>2019-01-06T10:59:01Z</time>
      </trkpt>
      <trkpt lat="43.35209" lon="5.77444">
        <ele>401.97</ele>
        <time>2019-01-06T10:59:03Z</time>
      </trkpt>
      <trkpt lat="43.35209" lon="5.77431">
        <ele>400.53</ele>
        <time>2019-01-06T10:59:13Z</time>
      </trkpt>
      <trkpt lat="43.35209" lon="5.77428">
        <ele>401.97</ele>
        <time>2019-01-06T10:59:15Z</time>
      </trkpt>
      <trkpt lat="43.3521" lon="5.7741">
        <ele>401.49</ele>
        <time>2019-01-06T10:59:25Z</time>
      </trkpt>
      <trkpt lat="43.35211" lon="5.77404">
        <ele>402.93</ele>
        <time>2019-01-06T10:59:28Z</time>
      </trkpt>
      <trkpt lat="43.35212" lon="5.77396">
        <ele>403.41</ele>
        <time>2019-01-06T10:59:32Z</time>
      </trkpt>
      <trkpt lat="43.35212" lon="5.77378">
        <ele>403.89</ele>
        <time>2019-01-06T10:59:45Z</time>
      </trkpt>
      <trkpt lat="43.35214" lon="5.77353">
        <ele>405.81</ele>
        <time>2019-01-06T10:59:59Z</time>
      </trkpt>
      <trkpt lat="43.35214" lon="5.77335">
        <ele>405.33</ele>
        <time>2019-01-06T11:00:12Z</time>
      </trkpt>
      <trkpt lat="43.35215" lon="5.77332">
        <ele>406.77</ele>
        <time>2019-01-06T11:00:14Z</time>
      </trkpt>
      <trkpt lat="43.3522" lon="5.77306">
        <ele>407.26</ele>
        <time>2019-01-06T11:00:33Z</time>
      </trkpt>
      <trkpt lat="43.35219" lon="5.77301">
        <ele>405.33</ele>
        <time>2019-01-06T11:00:36Z</time>
      </trkpt>
      <trkpt lat="43.35218" lon="5.77297">
        <ele>407.74</ele>
        <time>2019-01-06T11:00:38Z</time>
      </trkpt>
      <trkpt lat="43.35218" lon="5.77293">
        <ele>406.29</ele>
        <time>2019-01-06T11:00:41Z</time>
      </trkpt>
      <trkpt lat="43.3522" lon="5.77269">
        <ele>408.22</ele>
        <time>2019-01-06T11:01:04Z</time>
      </trkpt>
      <trkpt lat="43.35221" lon="5.77266">
        <ele>407.26</ele>
        <time>2019-01-06T11:01:08Z</time>
      </trkpt>
      <trkpt lat="43.35222" lon="5.77265">
        <ele>408.7</ele>
        <time>2019-01-06T11:01:10Z</time>
      </trkpt>
      <trkpt lat="43.35214" lon="5.77239">
        <ele>411.1</ele>
        <time>2019-01-06T11:01:30Z</time>
      </trkpt>
      <trkpt lat="43.35209" lon="5.77226">
        <ele>411.58</ele>
        <time>2019-01-06T11:01:36Z</time>
      </trkpt>
      <trkpt lat="43.35208" lon="5.77224">
        <ele>411.1</ele>
        <time>2019-01-06T11:01:37Z</time>
      </trkpt>
      <trkpt lat="43.35203" lon="5.77199">
        <ele>410.62</ele>
        <time>2019-01-06T11:01:55Z</time>
      </trkpt>
      <trkpt lat="43.35201" lon="5.77179">
        <ele>411.1</ele>
        <time>2019-01-06T11:02:10Z</time>
      </trkpt>
      <trkpt lat="43.35201" lon="5.77176">
        <ele>411.1</ele>
        <time>2019-01-06T11:02:12Z</time>
      </trkpt>
      <trkpt lat="43.35201" lon="5.77175">
        <ele>411.1</ele>
        <time>2019-01-06T11:02:13Z</time>
      </trkpt>
      <trkpt lat="43.35203" lon="5.77143">
        <ele>413.02</ele>
        <time>2019-01-06T11:02:34Z</time>
      </trkpt>
      <trkpt lat="43.35203" lon="5.77135">
        <ele>411.1</ele>
        <time>2019-01-06T11:02:38Z</time>
      </trkpt>
      <trkpt lat="43.35204" lon="5.77131">
        <ele>413.02</ele>
        <time>2019-01-06T11:02:40Z</time>
      </trkpt>
      <trkpt lat="43.35204" lon="5.77128">
        <ele>412.06</ele>
        <time>2019-01-06T11:02:43Z</time>
      </trkpt>
      <trkpt lat="43.35204" lon="5.77126">
        <ele>413.02</ele>
        <time>2019-01-06T11:02:45Z</time>
      </trkpt>
      <trkpt lat="43.35204" lon="5.77122">
        <ele>411.1</ele>
        <time>2019-01-06T11:02:49Z</time>
      </trkpt>
      <trkpt lat="43.35204" lon="5.77121">
        <ele>412.54</ele>
        <time>2019-01-06T11:02:51Z</time>
      </trkpt>
      <trkpt lat="43.35205" lon="5.77118">
        <ele>411.58</ele>
        <time>2019-01-06T11:02:54Z</time>
      </trkpt>
      <trkpt lat="43.35209" lon="5.77115">
        <ele>412.54</ele>
        <time>2019-01-06T11:02:59Z</time>
      </trkpt>
      <trkpt lat="43.35216" lon="5.77108">
        <ele>411.1</ele>
        <time>2019-01-06T11:03:06Z</time>
      </trkpt>
      <trkpt lat="43.35219" lon="5.77106">
        <ele>412.06</ele>
        <time>2019-01-06T11:03:10Z</time>
      </trkpt>
      <trkpt lat="43.35224" lon="5.77105">
        <ele>410.62</ele>
        <time>2019-01-06T11:03:14Z</time>
      </trkpt>
      <trkpt lat="43.35226" lon="5.77106">
        <ele>411.58</ele>
        <time>2019-01-06T11:03:16Z</time>
      </trkpt>
      <trkpt lat="43.35238" lon="5.77102">
        <ele>410.14</ele>
        <time>2019-01-06T11:03:25Z</time>
      </trkpt>
      <trkpt lat="43.3524" lon="5.77101">
        <ele>411.58</ele>
        <time>2019-01-06T11:03:27Z</time>
      </trkpt>
      <trkpt lat="43.35255" lon="5.77099">
        <ele>410.62</ele>
        <time>2019-01-06T11:03:39Z</time>
      </trkpt>
      <trkpt lat="43.35257" lon="5.771">
        <ele>412.06</ele>
        <time>2019-01-06T11:03:41Z</time>
      </trkpt>
      <trkpt lat="43.35271" lon="5.77095">
        <ele>412.54</ele>
        <time>2019-01-06T11:04:01Z</time>
      </trkpt>
      <trkpt lat="43.35278" lon="5.77099">
        <ele>413.5</ele>
        <time>2019-01-06T11:04:19Z</time>
      </trkpt>
      <trkpt lat="43.35279" lon="5.77102">
        <ele>412.06</ele>
        <time>2019-01-06T11:04:23Z</time>
      </trkpt>
      <trkpt lat="43.35278" lon="5.77105">
        <ele>413.5</ele>
        <time>2019-01-06T11:04:30Z</time>
      </trkpt>
      <trkpt lat="43.35283" lon="5.77106">
        <ele>413.98</ele>
        <time>2019-01-06T11:04:37Z</time>
      </trkpt>
      <trkpt lat="43.35295" lon="5.771">
        <ele>415.43</ele>
        <time>2019-01-06T11:04:49Z</time>
      </trkpt>
      <trkpt lat="43.35298" lon="5.77091">
        <ele>415.91</ele>
        <time>2019-01-06T11:05:00Z</time>
      </trkpt>
      <trkpt lat="43.35296" lon="5.77074">
        <ele>416.87</ele>
        <time>2019-01-06T11:05:13Z</time>
      </trkpt>
      <trkpt lat="43.35295" lon="5.77056">
        <ele>417.35</ele>
        <time>2019-01-06T11:05:26Z</time>
      </trkpt>
      <trkpt lat="43.35296" lon="5.77054">
        <ele>417.35</ele>
        <time>2019-01-06T11:05:27Z</time>
      </trkpt>
      <trkpt lat="43.35296" lon="5.77052">
        <ele>417.35</ele>
        <time>2019-01-06T11:05:28Z</time>
      </trkpt>
      <trkpt lat="43.35298" lon="5.77049">
        <ele>417.83</ele>
        <time>2019-01-06T11:05:29Z</time>
      </trkpt>
      <trkpt lat="43.35303" lon="5.77037">
        <ele>419.27</ele>
        <time>2019-01-06T11:05:43Z</time>
      </trkpt>
      <trkpt lat="43.35297" lon="5.77023">
        <ele>420.71</ele>
        <time>2019-01-06T11:05:58Z</time>
      </trkpt>
      <trkpt lat="43.35289" lon="5.7701">
        <ele>421.19</ele>
        <time>2019-01-06T11:06:12Z</time>
      </trkpt>
      <trkpt lat="43.35288" lon="5.77009">
        <ele>421.68</ele>
        <time>2019-01-06T11:06:13Z</time>
      </trkpt>
      <trkpt lat="43.35278" lon="5.76997">
        <ele>423.12</ele>
        <time>2019-01-06T11:06:27Z</time>
      </trkpt>
      <trkpt lat="43.3527" lon="5.76984">
        <ele>424.56</ele>
        <time>2019-01-06T11:06:42Z</time>
      </trkpt>
      <trkpt lat="43.35261" lon="5.76968">
        <ele>425.52</ele>
        <time>2019-01-06T11:06:57Z</time>
      </trkpt>
      <trkpt lat="43.35257" lon="5.76954">
        <ele>426.48</ele>
        <time>2019-01-06T11:07:10Z</time>
      </trkpt>
      <trkpt lat="43.35252" lon="5.76943">
        <ele>427.44</ele>
        <time>2019-01-06T11:07:26Z</time>
      </trkpt>
      <trkpt lat="43.3525" lon="5.76938">
        <ele>427.92</ele>
        <time>2019-01-06T11:07:31Z</time>
      </trkpt>
      <trkpt lat="43.3525" lon="5.76927">
        <ele>428.89</ele>
        <time>2019-01-06T11:07:43Z</time>
      </trkpt>
      <trkpt lat="43.35247" lon="5.76911">
        <ele>429.85</ele>
        <time>2019-01-06T11:07:58Z</time>
      </trkpt>
      <trkpt lat="43.35245" lon="5.76892">
        <ele>431.77</ele>
        <time>2019-01-06T11:08:13Z</time>
      </trkpt>
      <trkpt lat="43.35239" lon="5.76875">
        <ele>433.69</ele>
        <time>2019-01-06T11:08:27Z</time>
      </trkpt>
      <trkpt lat="43.35233" lon="5.76868">
        <ele>435.13</ele>
        <time>2019-01-06T11:08:40Z</time>
      </trkpt>
      <trkpt lat="43.35226" lon="5.7687">
        <ele>433.69</ele>
        <time>2019-01-06T11:08:47Z</time>
      </trkpt>
      <trkpt lat="43.35225" lon="5.76869">
        <ele>433.69</ele>
        <time>2019-01-06T11:08:49Z</time>
      </trkpt>
      <trkpt lat="43.35221" lon="5.76862">
        <ele>434.65</ele>
        <time>2019-01-06T11:09:01Z</time>
      </trkpt>
      <trkpt lat="43.3522" lon="5.76851">
        <ele>435.13</ele>
        <time>2019-01-06T11:09:17Z</time>
      </trkpt>
      <trkpt lat="43.35213" lon="5.76836">
        <ele>437.54</ele>
        <time>2019-01-06T11:09:34Z</time>
      </trkpt>
      <trkpt lat="43.35212" lon="5.76832">
        <ele>438.02</ele>
        <time>2019-01-06T11:09:44Z</time>
      </trkpt>
      <trkpt lat="43.35205" lon="5.76816">
        <ele>438.98</ele>
        <time>2019-01-06T11:09:54Z</time>
      </trkpt>
      <trkpt lat="43.35201" lon="5.76812">
        <ele>440.42</ele>
        <time>2019-01-06T11:09:58Z</time>
      </trkpt>
      <trkpt lat="43.35197" lon="5.76797">
        <ele>441.38</ele>
        <time>2019-01-06T11:10:06Z</time>
      </trkpt>
      <trkpt lat="43.35193" lon="5.76786">
        <ele>442.34</ele>
        <time>2019-01-06T11:10:23Z</time>
      </trkpt>
      <trkpt lat="43.35188" lon="5.76778">
        <ele>443.79</ele>
        <time>2019-01-06T11:10:36Z</time>
      </trkpt>
      <trkpt lat="43.35185" lon="5.76773">
        <ele>443.79</ele>
        <time>2019-01-06T11:10:40Z</time>
      </trkpt>
      <trkpt lat="43.35177" lon="5.76765">
        <ele>443.31</ele>
        <time>2019-01-06T11:10:48Z</time>
      </trkpt>
      <trkpt lat="43.35177" lon="5.76775">
        <ele>443.79</ele>
        <time>2019-01-06T11:11:03Z</time>
      </trkpt>
      <trkpt lat="43.35178" lon="5.76777">
        <ele>445.23</ele>
        <time>2019-01-06T11:11:06Z</time>
      </trkpt>
      <trkpt lat="43.35175" lon="5.76769">
        <ele>444.27</ele>
        <time>2019-01-06T11:11:23Z</time>
      </trkpt>
      <trkpt lat="43.35172" lon="5.76765">
        <ele>445.71</ele>
        <time>2019-01-06T11:11:26Z</time>
      </trkpt>
      <trkpt lat="43.35162" lon="5.76756">
        <ele>445.23</ele>
        <time>2019-01-06T11:11:36Z</time>
      </trkpt>
      <trkpt lat="43.35149" lon="5.76741">
        <ele>444.75</ele>
        <time>2019-01-06T11:11:50Z</time>
      </trkpt>
      <trkpt lat="43.3514" lon="5.76732">
        <ele>445.23</ele>
        <time>2019-01-06T11:12:02Z</time>
      </trkpt>
      <trkpt lat="43.35137" lon="5.76727">
        <ele>444.75</ele>
        <time>2019-01-06T11:12:05Z</time>
      </trkpt>
      <trkpt lat="43.3513" lon="5.76718">
        <ele>444.75</ele>
        <time>2019-01-06T11:12:18Z</time>
      </trkpt>
      <trkpt lat="43.35122" lon="5.76704">
        <ele>444.75</ele>
        <time>2019-01-06T11:12:36Z</time>
      </trkpt>
      <trkpt lat="43.35115" lon="5.76696">
        <ele>444.27</ele>
        <time>2019-01-06T11:12:48Z</time>
      </trkpt>
      <trkpt lat="43.35108" lon="5.76684">
        <ele>444.27</ele>
        <time>2019-01-06T11:13:02Z</time>
      </trkpt>
      <trkpt lat="43.35101" lon="5.76666">
        <ele>444.27</ele>
        <time>2019-01-06T11:13:19Z</time>
      </trkpt>
      <trkpt lat="43.35097" lon="5.76652">
        <ele>443.79</ele>
        <time>2019-01-06T11:13:31Z</time>
      </trkpt>
      <trkpt lat="43.35094" lon="5.76638">
        <ele>442.34</ele>
        <time>2019-01-06T11:13:42Z</time>
      </trkpt>
      <trkpt lat="43.35091" lon="5.76628">
        <ele>441.38</ele>
        <time>2019-01-06T11:13:52Z</time>
      </trkpt>
      <trkpt lat="43.35092" lon="5.76622">
        <ele>440.9</ele>
        <time>2019-01-06T11:14:03Z</time>
      </trkpt>
      <trkpt lat="43.35087" lon="5.76604">
        <ele>440.9</ele>
        <time>2019-01-06T11:14:17Z</time>
      </trkpt>
      <trkpt lat="43.35087" lon="5.76594">
        <ele>439.94</ele>
        <time>2019-01-06T11:14:23Z</time>
      </trkpt>
      <trkpt lat="43.35086" lon="5.76593">
        <ele>439.94</ele>
        <time>2019-01-06T11:14:24Z</time>
      </trkpt>
      <trkpt lat="43.35086" lon="5.76591">
        <ele>439.94</ele>
        <time>2019-01-06T11:14:25Z</time>
      </trkpt>
      <trkpt lat="43.35085" lon="5.76588">
        <ele>439.94</ele>
        <time>2019-01-06T11:14:27Z</time>
      </trkpt>
      <trkpt lat="43.35085" lon="5.76586">
        <ele>439.46</ele>
        <time>2019-01-06T11:14:28Z</time>
      </trkpt>
      <trkpt lat="43.35084" lon="5.76585">
        <ele>439.46</ele>
        <time>2019-01-06T11:14:29Z</time>
      </trkpt>
      <trkpt lat="43.3508" lon="5.76574">
        <ele>438.98</ele>
        <time>2019-01-06T11:14:37Z</time>
      </trkpt>
      <trkpt lat="43.35081" lon="5.76572">
        <ele>438.5</ele>
        <time>2019-01-06T11:14:38Z</time>
      </trkpt>
      <trkpt lat="43.3508" lon="5.7657">
        <ele>438.5</ele>
        <time>2019-01-06T11:14:39Z</time>
      </trkpt>
      <trkpt lat="43.3508" lon="5.76555">
        <ele>436.58</ele>
        <time>2019-01-06T11:14:50Z</time>
      </trkpt>
      <trkpt lat="43.3508" lon="5.76547">
        <ele>436.58</ele>
        <time>2019-01-06T11:14:56Z</time>
      </trkpt>
      <trkpt lat="43.3508" lon="5.76546">
        <ele>436.1</ele>
        <time>2019-01-06T11:14:57Z</time>
      </trkpt>
      <trkpt lat="43.35075" lon="5.76525">
        <ele>435.61</ele>
        <time>2019-01-06T11:15:12Z</time>
      </trkpt>
      <trkpt lat="43.35061" lon="5.76507">
        <ele>435.61</ele>
        <time>2019-01-06T11:15:27Z</time>
      </trkpt>
      <trkpt lat="43.35059" lon="5.76492">
        <ele>434.65</ele>
        <time>2019-01-06T11:15:39Z</time>
      </trkpt>
      <trkpt lat="43.35057" lon="5.76485">
        <ele>434.65</ele>
        <time>2019-01-06T11:15:44Z</time>
      </trkpt>
      <trkpt lat="43.35054" lon="5.76479">
        <ele>434.17</ele>
        <time>2019-01-06T11:15:59Z</time>
      </trkpt>
      <trkpt lat="43.35051" lon="5.76477">
        <ele>433.69</ele>
        <time>2019-01-06T11:16:06Z</time>
      </trkpt>
      <trkpt lat="43.35044" lon="5.76471">
        <ele>433.21</ele>
        <time>2019-01-06T11:16:15Z</time>
      </trkpt>
      <trkpt lat="43.35043" lon="5.76471">
        <ele>433.21</ele>
        <time>2019-01-06T11:16:16Z</time>
      </trkpt>
      <trkpt lat="43.35037" lon="5.76469">
        <ele>432.25</ele>
        <time>2019-01-06T11:16:25Z</time>
      </trkpt>
      <trkpt lat="43.35035" lon="5.7647">
        <ele>432.25</ele>
        <time>2019-01-06T11:16:28Z</time>
      </trkpt>
      <trkpt lat="43.35034" lon="5.76471">
        <ele>431.77</ele>
        <time>2019-01-06T11:16:29Z</time>
      </trkpt>
      <trkpt lat="43.35032" lon="5.76472">
        <ele>431.77</ele>
        <time>2019-01-06T11:16:30Z</time>
      </trkpt>
      <trkpt lat="43.35031" lon="5.76473">
        <ele>431.77</ele>
        <time>2019-01-06T11:16:31Z</time>
      </trkpt>
      <trkpt lat="43.35027" lon="5.76474">
        <ele>430.81</ele>
        <time>2019-01-06T11:16:36Z</time>
      </trkpt>
      <trkpt lat="43.35014" lon="5.76477">
        <ele>430.33</ele>
        <time>2019-01-06T11:16:49Z</time>
      </trkpt>
      <trkpt lat="43.35008" lon="5.76476">
        <ele>429.85</ele>
        <time>2019-01-06T11:17:00Z</time>
      </trkpt>
      <trkpt lat="43.35006" lon="5.76475">
        <ele>429.85</ele>
        <time>2019-01-06T11:17:02Z</time>
      </trkpt>
      <trkpt lat="43.35004" lon="5.76474">
        <ele>429.85</ele>
        <time>2019-01-06T11:17:03Z</time>
      </trkpt>
      <trkpt lat="43.35003" lon="5.76473">
        <ele>429.37</ele>
        <time>2019-01-06T11:17:04Z</time>
      </trkpt>
      <trkpt lat="43.35001" lon="5.76472">
        <ele>429.37</ele>
        <time>2019-01-06T11:17:05Z</time>
      </trkpt>
      <trkpt lat="43.34998" lon="5.76471">
        <ele>429.85</ele>
        <time>2019-01-06T11:17:06Z</time>
      </trkpt>
      <trkpt lat="43.34997" lon="5.76471">
        <ele>429.85</ele>
        <time>2019-01-06T11:17:07Z</time>
      </trkpt>
      <trkpt lat="43.34995" lon="5.7647">
        <ele>429.37</ele>
        <time>2019-01-06T11:17:11Z</time>
      </trkpt>
      <trkpt lat="43.34994" lon="5.76469">
        <ele>428.89</ele>
        <time>2019-01-06T11:17:12Z</time>
      </trkpt>
      <trkpt lat="43.34992" lon="5.76468">
        <ele>428.89</ele>
        <time>2019-01-06T11:17:13Z</time>
      </trkpt>
      <trkpt lat="43.3499" lon="5.76467">
        <ele>428.4</ele>
        <time>2019-01-06T11:17:14Z</time>
      </trkpt>
      <trkpt lat="43.34989" lon="5.76465">
        <ele>428.4</ele>
        <time>2019-01-06T11:17:15Z</time>
      </trkpt>
      <trkpt lat="43.34987" lon="5.76464">
        <ele>428.4</ele>
        <time>2019-01-06T11:17:16Z</time>
      </trkpt>
      <trkpt lat="43.34986" lon="5.76464">
        <ele>428.4</ele>
        <time>2019-01-06T11:17:17Z</time>
      </trkpt>
      <trkpt lat="43.34977" lon="5.7646">
        <ele>427.44</ele>
        <time>2019-01-06T11:17:28Z</time>
      </trkpt>
      <trkpt lat="43.34973" lon="5.7646">
        <ele>427.44</ele>
        <time>2019-01-06T11:17:34Z</time>
      </trkpt>
      <trkpt lat="43.34972" lon="5.76459">
        <ele>427.44</ele>
        <time>2019-01-06T11:17:35Z</time>
      </trkpt>
      <trkpt lat="43.34971" lon="5.76458">
        <ele>427.44</ele>
        <time>2019-01-06T11:17:36Z</time>
      </trkpt>
      <trkpt lat="43.34967" lon="5.76461">
        <ele>427.44</ele>
        <time>2019-01-06T11:17:51Z</time>
      </trkpt>
      <trkpt lat="43.34965" lon="5.76463">
        <ele>428.89</ele>
        <time>2019-01-06T11:17:58Z</time>
      </trkpt>
      <trkpt lat="43.34964" lon="5.76463">
        <ele>428.89</ele>
        <time>2019-01-06T11:17:59Z</time>
      </trkpt>
      <trkpt lat="43.34964" lon="5.76455">
        <ele>427.44</ele>
        <time>2019-01-06T11:18:10Z</time>
      </trkpt>
      <trkpt lat="43.34964" lon="5.76448">
        <ele>433.21</ele>
        <time>2019-01-06T11:25:20Z</time>
      </trkpt>
      <trkpt lat="43.34953" lon="5.76451">
        <ele>435.13</ele>
        <time>2019-01-06T11:25:33Z</time>
      </trkpt>
      <trkpt lat="43.34952" lon="5.7645">
        <ele>433.21</ele>
        <time>2019-01-06T11:25:35Z</time>
      </trkpt>
      <trkpt lat="43.34951" lon="5.76449">
        <ele>435.61</ele>
        <time>2019-01-06T11:25:37Z</time>
      </trkpt>
      <trkpt lat="43.34938" lon="5.76444">
        <ele>435.61</ele>
        <time>2019-01-06T11:25:51Z</time>
      </trkpt>
      <trkpt lat="43.34928" lon="5.76438">
        <ele>434.17</ele>
        <time>2019-01-06T11:26:14Z</time>
      </trkpt>
      <trkpt lat="43.34911" lon="5.76437">
        <ele>433.69</ele>
        <time>2019-01-06T11:26:35Z</time>
      </trkpt>
      <trkpt lat="43.34908" lon="5.76436">
        <ele>433.69</ele>
        <time>2019-01-06T11:26:37Z</time>
      </trkpt>
      <trkpt lat="43.34895" lon="5.7643">
        <ele>433.21</ele>
        <time>2019-01-06T11:26:44Z</time>
      </trkpt>
      <trkpt lat="43.34894" lon="5.76429">
        <ele>433.21</ele>
        <time>2019-01-06T11:26:45Z</time>
      </trkpt>
      <trkpt lat="43.34889" lon="5.76425">
        <ele>433.21</ele>
        <time>2019-01-06T11:26:50Z</time>
      </trkpt>
      <trkpt lat="43.34873" lon="5.76425">
        <ele>433.21</ele>
        <time>2019-01-06T11:27:06Z</time>
      </trkpt>
      <trkpt lat="43.34869" lon="5.76423">
        <ele>434.17</ele>
        <time>2019-01-06T11:27:29Z</time>
      </trkpt>
      <trkpt lat="43.3487" lon="5.76418">
        <ele>433.21</ele>
        <time>2019-01-06T11:27:50Z</time>
      </trkpt>
      <trkpt lat="43.34865" lon="5.76424">
        <ele>435.13</ele>
        <time>2019-01-06T11:28:06Z</time>
      </trkpt>
      <trkpt lat="43.34861" lon="5.76424">
        <ele>435.61</ele>
        <time>2019-01-06T11:28:20Z</time>
      </trkpt>
      <trkpt lat="43.34847" lon="5.76419">
        <ele>440.9</ele>
        <time>2019-01-06T11:28:41Z</time>
      </trkpt>
      <trkpt lat="43.34846" lon="5.7642">
        <ele>440.9</ele>
        <time>2019-01-06T11:28:42Z</time>
      </trkpt>
      <trkpt lat="43.34839" lon="5.76423">
        <ele>439.46</ele>
        <time>2019-01-06T11:28:45Z</time>
      </trkpt>
      <trkpt lat="43.34836" lon="5.76425">
        <ele>440.42</ele>
        <time>2019-01-06T11:28:47Z</time>
      </trkpt>
      <trkpt lat="43.34806" lon="5.76432">
        <ele>442.82</ele>
        <time>2019-01-06T11:29:09Z</time>
      </trkpt>
      <trkpt lat="43.34777" lon="5.76428">
        <ele>442.82</ele>
        <time>2019-01-06T11:29:29Z</time>
      </trkpt>
      <trkpt lat="43.34766" lon="5.76426">
        <ele>442.34</ele>
        <time>2019-01-06T11:29:38Z</time>
      </trkpt>
      <trkpt lat="43.34743" lon="5.76408">
        <ele>443.79</ele>
        <time>2019-01-06T11:30:01Z</time>
      </trkpt>
      <trkpt lat="43.34738" lon="5.76393">
        <ele>445.23</ele>
        <time>2019-01-06T11:30:13Z</time>
      </trkpt>
      <trkpt lat="43.34737" lon="5.76392">
        <ele>443.79</ele>
        <time>2019-01-06T11:30:15Z</time>
      </trkpt>
      <trkpt lat="43.34732" lon="5.76386">
        <ele>445.23</ele>
        <time>2019-01-06T11:30:21Z</time>
      </trkpt>
      <trkpt lat="43.34722" lon="5.7638">
        <ele>446.67</ele>
        <time>2019-01-06T11:30:44Z</time>
      </trkpt>
      <trkpt lat="43.34721" lon="5.76378">
        <ele>443.79</ele>
        <time>2019-01-06T11:30:50Z</time>
      </trkpt>
      <trkpt lat="43.3472" lon="5.76376">
        <ele>448.59</ele>
        <time>2019-01-06T11:30:54Z</time>
      </trkpt>
      <trkpt lat="43.34719" lon="5.76376">
        <ele>448.59</ele>
        <time>2019-01-06T11:30:55Z</time>
      </trkpt>
      <trkpt lat="43.34718" lon="5.76376">
        <ele>444.75</ele>
        <time>2019-01-06T11:30:56Z</time>
      </trkpt>
      <trkpt lat="43.34717" lon="5.76376">
        <ele>448.11</ele>
        <time>2019-01-06T11:30:57Z</time>
      </trkpt>
      <trkpt lat="43.34713" lon="5.76375">
        <ele>446.19</ele>
        <time>2019-01-06T11:31:00Z</time>
      </trkpt>
      <trkpt lat="43.34705" lon="5.76371">
        <ele>446.19</ele>
        <time>2019-01-06T11:31:09Z</time>
      </trkpt>
      <trkpt lat="43.34704" lon="5.76371">
        <ele>448.11</ele>
        <time>2019-01-06T11:31:11Z</time>
      </trkpt>
      <trkpt lat="43.34696" lon="5.76364">
        <ele>448.59</ele>
        <time>2019-01-06T11:31:23Z</time>
      </trkpt>
      <trkpt lat="43.34693" lon="5.76351">
        <ele>448.59</ele>
        <time>2019-01-06T11:31:36Z</time>
      </trkpt>
      <trkpt lat="43.34692" lon="5.7635">
        <ele>450.52</ele>
        <time>2019-01-06T11:31:38Z</time>
      </trkpt>
      <trkpt lat="43.34672" lon="5.76321">
        <ele>451.48</ele>
        <time>2019-01-06T11:31:55Z</time>
      </trkpt>
      <trkpt lat="43.34671" lon="5.76319">
        <ele>451.48</ele>
        <time>2019-01-06T11:31:57Z</time>
      </trkpt>
      <trkpt lat="43.34666" lon="5.76313">
        <ele>451.48</ele>
        <time>2019-01-06T11:32:03Z</time>
      </trkpt>
      <trkpt lat="43.34657" lon="5.76293">
        <ele>452.44</ele>
        <time>2019-01-06T11:32:19Z</time>
      </trkpt>
      <trkpt lat="43.34645" lon="5.76281">
        <ele>451.48</ele>
        <time>2019-01-06T11:32:35Z</time>
      </trkpt>
      <trkpt lat="43.34627" lon="5.76277">
        <ele>454.36</ele>
        <time>2019-01-06T11:32:56Z</time>
      </trkpt>
      <trkpt lat="43.3462" lon="5.76278">
        <ele>454.36</ele>
        <time>2019-01-06T11:33:06Z</time>
      </trkpt>
      <trkpt lat="43.34614" lon="5.76282">
        <ele>450.52</ele>
        <time>2019-01-06T11:33:16Z</time>
      </trkpt>
      <trkpt lat="43.34613" lon="5.76283">
        <ele>450.52</ele>
        <time>2019-01-06T11:33:17Z</time>
      </trkpt>
      <trkpt lat="43.34613" lon="5.76284">
        <ele>456.76</ele>
        <time>2019-01-06T11:33:18Z</time>
      </trkpt>
      <trkpt lat="43.34612" lon="5.76284">
        <ele>455.32</ele>
        <time>2019-01-06T11:33:19Z</time>
      </trkpt>
      <trkpt lat="43.34612" lon="5.76286">
        <ele>453.88</ele>
        <time>2019-01-06T11:33:21Z</time>
      </trkpt>
      <trkpt lat="43.3461" lon="5.76287">
        <ele>450.03</ele>
        <time>2019-01-06T11:33:25Z</time>
      </trkpt>
      <trkpt lat="43.3461" lon="5.76287">
        <ele>453.4</ele>
        <time>2019-01-06T11:33:26Z</time>
      </trkpt>
      <trkpt lat="43.3461" lon="5.76288">
        <ele>453.4</ele>
        <time>2019-01-06T11:33:27Z</time>
      </trkpt>
      <trkpt lat="43.34606" lon="5.76281">
        <ele>463.01</ele>
        <time>2019-01-06T11:33:45Z</time>
      </trkpt>
      <trkpt lat="43.34616" lon="5.76257">
        <ele>457.24</ele>
        <time>2019-01-06T11:43:02Z</time>
      </trkpt>
      <trkpt lat="43.34622" lon="5.76259">
        <ele>456.76</ele>
        <time>2019-01-06T11:43:23Z</time>
      </trkpt>
      <trkpt lat="43.3463" lon="5.76256">
        <ele>457.72</ele>
        <time>2019-01-06T11:43:41Z</time>
      </trkpt>
      <trkpt lat="43.34633" lon="5.76256">
        <ele>456.28</ele>
        <time>2019-01-06T11:43:43Z</time>
      </trkpt>
      <trkpt lat="43.34639" lon="5.76257">
        <ele>457.72</ele>
        <time>2019-01-06T11:43:45Z</time>
      </trkpt>
      <trkpt lat="43.34655" lon="5.76262">
        <ele>456.28</ele>
        <time>2019-01-06T11:44:02Z</time>
      </trkpt>
      <trkpt lat="43.34664" lon="5.76268">
        <ele>455.8</ele>
        <time>2019-01-06T11:44:14Z</time>
      </trkpt>
      <trkpt lat="43.34676" lon="5.76277">
        <ele>454.84</ele>
        <time>2019-01-06T11:44:29Z</time>
      </trkpt>
      <trkpt lat="43.34683" lon="5.76286">
        <ele>453.88</ele>
        <time>2019-01-06T11:44:41Z</time>
      </trkpt>
      <trkpt lat="43.34687" lon="5.76294">
        <ele>452.92</ele>
        <time>2019-01-06T11:44:51Z</time>
      </trkpt>
      <trkpt lat="43.34688" lon="5.76297">
        <ele>452.44</ele>
        <time>2019-01-06T11:45:12Z</time>
      </trkpt>
      <trkpt lat="43.34692" lon="5.76302">
        <ele>453.4</ele>
        <time>2019-01-06T11:45:29Z</time>
      </trkpt>
      <trkpt lat="43.34699" lon="5.76311">
        <ele>453.88</ele>
        <time>2019-01-06T11:45:42Z</time>
      </trkpt>
      <trkpt lat="43.347" lon="5.76313">
        <ele>453.88</ele>
        <time>2019-01-06T11:45:44Z</time>
      </trkpt>
      <trkpt lat="43.34707" lon="5.76322">
        <ele>452.44</ele>
        <time>2019-01-06T11:45:52Z</time>
      </trkpt>
      <trkpt lat="43.3471" lon="5.76333">
        <ele>451.96</ele>
        <time>2019-01-06T11:46:02Z</time>
      </trkpt>
      <trkpt lat="43.34716" lon="5.76342">
        <ele>451.48</ele>
        <time>2019-01-06T11:46:18Z</time>
      </trkpt>
      <trkpt lat="43.34712" lon="5.76341">
        <ele>450.52</ele>
        <time>2019-01-06T11:46:33Z</time>
      </trkpt>
      <trkpt lat="43.34713" lon="5.7634">
        <ele>451.96</ele>
        <time>2019-01-06T11:46:35Z</time>
      </trkpt>
      <trkpt lat="43.34726" lon="5.76347">
        <ele>451</ele>
        <time>2019-01-06T11:46:50Z</time>
      </trkpt>
      <trkpt lat="43.34738" lon="5.7636">
        <ele>449.07</ele>
        <time>2019-01-06T11:47:06Z</time>
      </trkpt>
      <trkpt lat="43.34745" lon="5.76368">
        <ele>448.59</ele>
        <time>2019-01-06T11:47:16Z</time>
      </trkpt>
      <trkpt lat="43.34744" lon="5.76371">
        <ele>444.75</ele>
        <time>2019-01-06T11:47:19Z</time>
      </trkpt>
      <trkpt lat="43.34744" lon="5.76371">
        <ele>438.98</ele>
        <time>2019-01-06T11:47:20Z</time>
      </trkpt>
      <trkpt lat="43.34744" lon="5.76371">
        <ele>450.03</ele>
        <time>2019-01-06T11:47:21Z</time>
      </trkpt>
      <trkpt lat="43.34743" lon="5.76371">
        <ele>449.07</ele>
        <time>2019-01-06T11:47:22Z</time>
      </trkpt>
      <trkpt lat="43.34743" lon="5.76371">
        <ele>448.11</ele>
        <time>2019-01-06T11:47:24Z</time>
      </trkpt>
      <trkpt lat="43.3475" lon="5.76382">
        <ele>447.15</ele>
        <time>2019-01-06T11:47:46Z</time>
      </trkpt>
      <trkpt lat="43.34751" lon="5.76385">
        <ele>453.88</ele>
        <time>2019-01-06T11:47:48Z</time>
      </trkpt>
      <trkpt lat="43.34742" lon="5.76378">
        <ele>449.07</ele>
        <time>2019-01-06T11:47:49Z</time>
      </trkpt>
      <trkpt lat="43.34735" lon="5.76372">
        <ele>448.11</ele>
        <time>2019-01-06T11:47:59Z</time>
      </trkpt>
      <trkpt lat="43.34736" lon="5.76372">
        <ele>450.03</ele>
        <time>2019-01-06T11:48:02Z</time>
      </trkpt>
      <trkpt lat="43.34737" lon="5.76371">
        <ele>449.07</ele>
        <time>2019-01-06T11:48:04Z</time>
      </trkpt>
      <trkpt lat="43.3475" lon="5.76382">
        <ele>447.63</ele>
        <time>2019-01-06T11:48:18Z</time>
      </trkpt>
      <trkpt lat="43.34757" lon="5.76389">
        <ele>448.59</ele>
        <time>2019-01-06T11:48:29Z</time>
      </trkpt>
      <trkpt lat="43.34772" lon="5.76403">
        <ele>445.23</ele>
        <time>2019-01-06T11:48:44Z</time>
      </trkpt>
      <trkpt lat="43.34773" lon="5.76408">
        <ele>441.86</ele>
        <time>2019-01-06T11:48:51Z</time>
      </trkpt>
      <trkpt lat="43.34773" lon="5.76407">
        <ele>446.19</ele>
        <time>2019-01-06T11:48:52Z</time>
      </trkpt>
      <trkpt lat="43.34773" lon="5.76406">
        <ele>444.75</ele>
        <time>2019-01-06T11:48:53Z</time>
      </trkpt>
      <trkpt lat="43.34772" lon="5.76401">
        <ele>451.96</ele>
        <time>2019-01-06T11:49:01Z</time>
      </trkpt>
      <trkpt lat="43.34772" lon="5.76401">
        <ele>446.19</ele>
        <time>2019-01-06T11:49:02Z</time>
      </trkpt>
      <trkpt lat="43.3477" lon="5.76402">
        <ele>445.71</ele>
        <time>2019-01-06T11:49:04Z</time>
      </trkpt>
      <trkpt lat="43.34789" lon="5.764">
        <ele>445.71</ele>
        <time>2019-01-06T11:49:21Z</time>
      </trkpt>
      <trkpt lat="43.34806" lon="5.76406">
        <ele>443.79</ele>
        <time>2019-01-06T11:49:39Z</time>
      </trkpt>
      <trkpt lat="43.34808" lon="5.76406">
        <ele>445.23</ele>
        <time>2019-01-06T11:49:42Z</time>
      </trkpt>
      <trkpt lat="43.34814" lon="5.7641">
        <ele>441.86</ele>
        <time>2019-01-06T11:49:52Z</time>
      </trkpt>
      <trkpt lat="43.34816" lon="5.7641">
        <ele>438.98</ele>
        <time>2019-01-06T11:50:07Z</time>
      </trkpt>
      <trkpt lat="43.34819" lon="5.76405">
        <ele>441.38</ele>
        <time>2019-01-06T11:50:09Z</time>
      </trkpt>
      <trkpt lat="43.3482" lon="5.76406">
        <ele>444.27</ele>
        <time>2019-01-06T11:50:12Z</time>
      </trkpt>
      <trkpt lat="43.3482" lon="5.76405">
        <ele>442.34</ele>
        <time>2019-01-06T11:50:14Z</time>
      </trkpt>
      <trkpt lat="43.3482" lon="5.76407">
        <ele>440.42</ele>
        <time>2019-01-06T11:50:16Z</time>
      </trkpt>
      <trkpt lat="43.34821" lon="5.76404">
        <ele>440.9</ele>
        <time>2019-01-06T11:50:20Z</time>
      </trkpt>
      <trkpt lat="43.3482" lon="5.76404">
        <ele>446.19</ele>
        <time>2019-01-06T11:50:21Z</time>
      </trkpt>
      <trkpt lat="43.3482" lon="5.76403">
        <ele>441.86</ele>
        <time>2019-01-06T11:50:25Z</time>
      </trkpt>
      <trkpt lat="43.34821" lon="5.76402">
        <ele>445.23</ele>
        <time>2019-01-06T11:50:33Z</time>
      </trkpt>
      <trkpt lat="43.34822" lon="5.76403">
        <ele>444.75</ele>
        <time>2019-01-06T11:50:44Z</time>
      </trkpt>
      <trkpt lat="43.34828" lon="5.764">
        <ele>444.27</ele>
        <time>2019-01-06T11:50:51Z</time>
      </trkpt>
      <trkpt lat="43.34836" lon="5.764">
        <ele>444.75</ele>
        <time>2019-01-06T11:51:00Z</time>
      </trkpt>
      <trkpt lat="43.3486" lon="5.76395">
        <ele>445.23</ele>
        <time>2019-01-06T11:51:21Z</time>
      </trkpt>
      <trkpt lat="43.34867" lon="5.76397">
        <ele>444.27</ele>
        <time>2019-01-06T11:51:28Z</time>
      </trkpt>
      <trkpt lat="43.34871" lon="5.76397">
        <ele>445.23</ele>
        <time>2019-01-06T11:51:31Z</time>
      </trkpt>
      <trkpt lat="43.3489" lon="5.76397">
        <ele>446.19</ele>
        <time>2019-01-06T11:51:45Z</time>
      </trkpt>
      <trkpt lat="43.34901" lon="5.76399">
        <ele>446.19</ele>
        <time>2019-01-06T11:51:55Z</time>
      </trkpt>
      <trkpt lat="43.34912" lon="5.76398">
        <ele>446.67</ele>
        <time>2019-01-06T11:52:07Z</time>
      </trkpt>
      <trkpt lat="43.34926" lon="5.76396">
        <ele>448.11</ele>
        <time>2019-01-06T11:52:21Z</time>
      </trkpt>
      <trkpt lat="43.34938" lon="5.76392">
        <ele>449.55</ele>
        <time>2019-01-06T11:52:34Z</time>
      </trkpt>
      <trkpt lat="43.34939" lon="5.76391">
        <ele>449.55</ele>
        <time>2019-01-06T11:52:35Z</time>
      </trkpt>
      <trkpt lat="43.34948" lon="5.76389">
        <ele>448.59</ele>
        <time>2019-01-06T11:52:43Z</time>
      </trkpt>
      <trkpt lat="43.34953" lon="5.76387">
        <ele>448.11</ele>
        <time>2019-01-06T11:52:52Z</time>
      </trkpt>
      <trkpt lat="43.34959" lon="5.76383">
        <ele>447.63</ele>
        <time>2019-01-06T11:53:00Z</time>
      </trkpt>
      <trkpt lat="43.34962" lon="5.76378">
        <ele>447.15</ele>
        <time>2019-01-06T11:53:06Z</time>
      </trkpt>
      <trkpt lat="43.34975" lon="5.76365">
        <ele>448.59</ele>
        <time>2019-01-06T11:53:21Z</time>
      </trkpt>
      <trkpt lat="43.34979" lon="5.7636">
        <ele>448.59</ele>
        <time>2019-01-06T11:53:30Z</time>
      </trkpt>
      <trkpt lat="43.3498" lon="5.76357">
        <ele>447.63</ele>
        <time>2019-01-06T11:53:34Z</time>
      </trkpt>
      <trkpt lat="43.34988" lon="5.7635">
        <ele>445.23</ele>
        <time>2019-01-06T11:53:46Z</time>
      </trkpt>
      <trkpt lat="43.3499" lon="5.7635">
        <ele>445.23</ele>
        <time>2019-01-06T11:53:47Z</time>
      </trkpt>
      <trkpt lat="43.34997" lon="5.76345">
        <ele>444.75</ele>
        <time>2019-01-06T11:53:57Z</time>
      </trkpt>
      <trkpt lat="43.35005" lon="5.76338">
        <ele>442.34</ele>
        <time>2019-01-06T11:54:09Z</time>
      </trkpt>
      <trkpt lat="43.35007" lon="5.76328">
        <ele>440.42</ele>
        <time>2019-01-06T11:54:20Z</time>
      </trkpt>
      <trkpt lat="43.35009" lon="5.7632">
        <ele>439.46</ele>
        <time>2019-01-06T11:54:27Z</time>
      </trkpt>
      <trkpt lat="43.35009" lon="5.76316">
        <ele>438.98</ele>
        <time>2019-01-06T11:54:30Z</time>
      </trkpt>
      <trkpt lat="43.35014" lon="5.76304">
        <ele>436.58</ele>
        <time>2019-01-06T11:54:42Z</time>
      </trkpt>
      <trkpt lat="43.35012" lon="5.76301">
        <ele>436.58</ele>
        <time>2019-01-06T11:54:53Z</time>
      </trkpt>
      <trkpt lat="43.35012" lon="5.76298">
        <ele>436.58</ele>
        <time>2019-01-06T11:54:56Z</time>
      </trkpt>
      <trkpt lat="43.35012" lon="5.76285">
        <ele>435.61</ele>
        <time>2019-01-06T11:55:09Z</time>
      </trkpt>
      <trkpt lat="43.35011" lon="5.76266">
        <ele>434.17</ele>
        <time>2019-01-06T11:55:24Z</time>
      </trkpt>
      <trkpt lat="43.35013" lon="5.76251">
        <ele>431.77</ele>
        <time>2019-01-06T11:55:39Z</time>
      </trkpt>
      <trkpt lat="43.35014" lon="5.76245">
        <ele>431.29</ele>
        <time>2019-01-06T11:55:44Z</time>
      </trkpt>
      <trkpt lat="43.35019" lon="5.76232">
        <ele>429.85</ele>
        <time>2019-01-06T11:55:58Z</time>
      </trkpt>
      <trkpt lat="43.35023" lon="5.76231">
        <ele>428.4</ele>
        <time>2019-01-06T11:56:03Z</time>
      </trkpt>
      <trkpt lat="43.3503" lon="5.76234">
        <ele>426.96</ele>
        <time>2019-01-06T11:56:16Z</time>
      </trkpt>
      <trkpt lat="43.35031" lon="5.76236">
        <ele>426</ele>
        <time>2019-01-06T11:56:36Z</time>
      </trkpt>
      <trkpt lat="43.35031" lon="5.76234">
        <ele>426</ele>
        <time>2019-01-06T11:56:52Z</time>
      </trkpt>
      <trkpt lat="43.35036" lon="5.76235">
        <ele>425.04</ele>
        <time>2019-01-06T11:57:03Z</time>
      </trkpt>
      <trkpt lat="43.35037" lon="5.76234">
        <ele>425.52</ele>
        <time>2019-01-06T11:57:31Z</time>
      </trkpt>
      <trkpt lat="43.35038" lon="5.7623">
        <ele>425.52</ele>
        <time>2019-01-06T11:57:53Z</time>
      </trkpt>
      <trkpt lat="43.3504" lon="5.7623">
        <ele>427.44</ele>
        <time>2019-01-06T11:57:55Z</time>
      </trkpt>
      <trkpt lat="43.35045" lon="5.76226">
        <ele>427.44</ele>
        <time>2019-01-06T11:58:02Z</time>
      </trkpt>
      <trkpt lat="43.35049" lon="5.76211">
        <ele>428.4</ele>
        <time>2019-01-06T11:58:14Z</time>
      </trkpt>
      <trkpt lat="43.35049" lon="5.76211">
        <ele>428.4</ele>
        <time>2019-01-06T11:58:15Z</time>
      </trkpt>
      <trkpt lat="43.35051" lon="5.76203">
        <ele>428.4</ele>
        <time>2019-01-06T11:58:20Z</time>
      </trkpt>
      <trkpt lat="43.35055" lon="5.76188">
        <ele>428.89</ele>
        <time>2019-01-06T11:58:30Z</time>
      </trkpt>
      <trkpt lat="43.35057" lon="5.7618">
        <ele>428.89</ele>
        <time>2019-01-06T11:58:37Z</time>
      </trkpt>
      <trkpt lat="43.3506" lon="5.76168">
        <ele>427.44</ele>
        <time>2019-01-06T11:58:44Z</time>
      </trkpt>
      <trkpt lat="43.35064" lon="5.76153">
        <ele>426</ele>
        <time>2019-01-06T11:58:54Z</time>
      </trkpt>
      <trkpt lat="43.35071" lon="5.7614">
        <ele>424.56</ele>
        <time>2019-01-06T11:59:04Z</time>
      </trkpt>
      <trkpt lat="43.35074" lon="5.7613">
        <ele>422.64</ele>
        <time>2019-01-06T11:59:15Z</time>
      </trkpt>
      <trkpt lat="43.3508" lon="5.76126">
        <ele>416.39</ele>
        <time>2019-01-06T11:59:32Z</time>
      </trkpt>
      <trkpt lat="43.35081" lon="5.76126">
        <ele>419.75</ele>
        <time>2019-01-06T11:59:33Z</time>
      </trkpt>
      <trkpt lat="43.35082" lon="5.76125">
        <ele>423.12</ele>
        <time>2019-01-06T11:59:37Z</time>
      </trkpt>
      <trkpt lat="43.35083" lon="5.76123">
        <ele>419.27</ele>
        <time>2019-01-06T11:59:42Z</time>
      </trkpt>
      <trkpt lat="43.35084" lon="5.76117">
        <ele>421.68</ele>
        <time>2019-01-06T11:59:45Z</time>
      </trkpt>
      <trkpt lat="43.35084" lon="5.76113">
        <ele>421.68</ele>
        <time>2019-01-06T11:59:49Z</time>
      </trkpt>
      <trkpt lat="43.35091" lon="5.76094">
        <ele>420.23</ele>
        <time>2019-01-06T12:00:07Z</time>
      </trkpt>
      <trkpt lat="43.35094" lon="5.76074">
        <ele>420.23</ele>
        <time>2019-01-06T12:00:27Z</time>
      </trkpt>
      <trkpt lat="43.351" lon="5.76052">
        <ele>419.75</ele>
        <time>2019-01-06T12:00:44Z</time>
      </trkpt>
      <trkpt lat="43.35105" lon="5.76048">
        <ele>419.75</ele>
        <time>2019-01-06T12:00:56Z</time>
      </trkpt>
      <trkpt lat="43.35118" lon="5.76044">
        <ele>419.75</ele>
        <time>2019-01-06T12:01:13Z</time>
      </trkpt>
      <trkpt lat="43.35124" lon="5.7604">
        <ele>421.19</ele>
        <time>2019-01-06T12:01:29Z</time>
      </trkpt>
      <trkpt lat="43.3513" lon="5.76046">
        <ele>421.68</ele>
        <time>2019-01-06T12:01:44Z</time>
      </trkpt>
      <trkpt lat="43.3513" lon="5.76046">
        <ele>421.68</ele>
        <time>2019-01-06T12:02:06Z</time>
      </trkpt>
      <trkpt lat="43.35123" lon="5.76045">
        <ele>422.16</ele>
        <time>2019-01-06T12:02:17Z</time>
      </trkpt>
      <trkpt lat="43.35107" lon="5.76044">
        <ele>423.12</ele>
        <time>2019-01-06T12:02:31Z</time>
      </trkpt>
      <trkpt lat="43.35102" lon="5.76045">
        <ele>423.6</ele>
        <time>2019-01-06T12:02:44Z</time>
      </trkpt>
      <trkpt lat="43.35113" lon="5.76046">
        <ele>423.6</ele>
        <time>2019-01-06T12:03:00Z</time>
      </trkpt>
      <trkpt lat="43.35125" lon="5.76043">
        <ele>422.64</ele>
        <time>2019-01-06T12:03:16Z</time>
      </trkpt>
      <trkpt lat="43.35135" lon="5.76042">
        <ele>422.16</ele>
        <time>2019-01-06T12:03:27Z</time>
      </trkpt>
      <trkpt lat="43.35149" lon="5.76037">
        <ele>421.19</ele>
        <time>2019-01-06T12:03:40Z</time>
      </trkpt>
      <trkpt lat="43.3516" lon="5.76027">
        <ele>421.19</ele>
        <time>2019-01-06T12:03:55Z</time>
      </trkpt>
      <trkpt lat="43.35165" lon="5.76018">
        <ele>420.23</ele>
        <time>2019-01-06T12:04:08Z</time>
      </trkpt>
      <trkpt lat="43.35173" lon="5.76009">
        <ele>420.23</ele>
        <time>2019-01-06T12:04:18Z</time>
      </trkpt>
      <trkpt lat="43.35179" lon="5.76004">
        <ele>420.23</ele>
        <time>2019-01-06T12:04:29Z</time>
      </trkpt>
      <trkpt lat="43.35185" lon="5.75991">
        <ele>419.75</ele>
        <time>2019-01-06T12:04:42Z</time>
      </trkpt>
      <trkpt lat="43.35191" lon="5.75987">
        <ele>419.75</ele>
        <time>2019-01-06T12:04:50Z</time>
      </trkpt>
      <trkpt lat="43.352" lon="5.75979">
        <ele>419.27</ele>
        <time>2019-01-06T12:05:05Z</time>
      </trkpt>
      <trkpt lat="43.35204" lon="5.75969">
        <ele>418.79</ele>
        <time>2019-01-06T12:05:15Z</time>
      </trkpt>
      <trkpt lat="43.35213" lon="5.7596">
        <ele>419.27</ele>
        <time>2019-01-06T12:05:25Z</time>
      </trkpt>
      <trkpt lat="43.35217" lon="5.75956">
        <ele>419.27</ele>
        <time>2019-01-06T12:05:31Z</time>
      </trkpt>
      <trkpt lat="43.3522" lon="5.75954">
        <ele>418.79</ele>
        <time>2019-01-06T12:05:35Z</time>
      </trkpt>
      <trkpt lat="43.35227" lon="5.7595">
        <ele>418.31</ele>
        <time>2019-01-06T12:05:41Z</time>
      </trkpt>
      <trkpt lat="43.35237" lon="5.75945">
        <ele>418.31</ele>
        <time>2019-01-06T12:05:53Z</time>
      </trkpt>
      <trkpt lat="43.35242" lon="5.75941">
        <ele>418.31</ele>
        <time>2019-01-06T12:06:07Z</time>
      </trkpt>
      <trkpt lat="43.35251" lon="5.75937">
        <ele>418.31</ele>
        <time>2019-01-06T12:06:20Z</time>
      </trkpt>
      <trkpt lat="43.35257" lon="5.75933">
        <ele>418.31</ele>
        <time>2019-01-06T12:06:26Z</time>
      </trkpt>
      <trkpt lat="43.3526" lon="5.75931">
        <ele>419.75</ele>
        <time>2019-01-06T12:06:29Z</time>
      </trkpt>
      <trkpt lat="43.35267" lon="5.7593">
        <ele>419.75</ele>
        <time>2019-01-06T12:06:35Z</time>
      </trkpt>
      <trkpt lat="43.35277" lon="5.75927">
        <ele>420.71</ele>
        <time>2019-01-06T12:06:46Z</time>
      </trkpt>
      <trkpt lat="43.35278" lon="5.7592">
        <ele>421.19</ele>
        <time>2019-01-06T12:06:50Z</time>
      </trkpt>
      <trkpt lat="43.35279" lon="5.75918">
        <ele>422.64</ele>
        <time>2019-01-06T12:06:58Z</time>
      </trkpt>
      <trkpt lat="43.35277" lon="5.75921">
        <ele>422.64</ele>
        <time>2019-01-06T12:07:00Z</time>
      </trkpt>
      <trkpt lat="43.35278" lon="5.75923">
        <ele>421.19</ele>
        <time>2019-01-06T12:07:02Z</time>
      </trkpt>
      <trkpt lat="43.35279" lon="5.75923">
        <ele>421.19</ele>
        <time>2019-01-06T12:07:03Z</time>
      </trkpt>
      <trkpt lat="43.35282" lon="5.75925">
        <ele>420.71</ele>
        <time>2019-01-06T12:07:06Z</time>
      </trkpt>
      <trkpt lat="43.35284" lon="5.75925">
        <ele>420.71</ele>
        <time>2019-01-06T12:07:07Z</time>
      </trkpt>
      <trkpt lat="43.35286" lon="5.75924">
        <ele>420.71</ele>
        <time>2019-01-06T12:07:08Z</time>
      </trkpt>
      <trkpt lat="43.35289" lon="5.75925">
        <ele>420.23</ele>
        <time>2019-01-06T12:07:13Z</time>
      </trkpt>
      <trkpt lat="43.35291" lon="5.75925">
        <ele>420.23</ele>
        <time>2019-01-06T12:07:14Z</time>
      </trkpt>
      <trkpt lat="43.35296" lon="5.75925">
        <ele>419.27</ele>
        <time>2019-01-06T12:07:22Z</time>
      </trkpt>
      <trkpt lat="43.3531" lon="5.75926">
        <ele>418.31</ele>
        <time>2019-01-06T12:07:38Z</time>
      </trkpt>
      <trkpt lat="43.35318" lon="5.75928">
        <ele>416.39</ele>
        <time>2019-01-06T12:07:50Z</time>
      </trkpt>
      <trkpt lat="43.35319" lon="5.75929">
        <ele>416.39</ele>
        <time>2019-01-06T12:08:03Z</time>
      </trkpt>
      <trkpt lat="43.35318" lon="5.75931">
        <ele>416.39</ele>
        <time>2019-01-06T12:08:04Z</time>
      </trkpt>
      <trkpt lat="43.35315" lon="5.75942">
        <ele>416.39</ele>
        <time>2019-01-06T12:08:17Z</time>
      </trkpt>
      <trkpt lat="43.35315" lon="5.75944">
        <ele>416.39</ele>
        <time>2019-01-06T12:08:26Z</time>
      </trkpt>
      <trkpt lat="43.35316" lon="5.75949">
        <ele>416.39</ele>
        <time>2019-01-06T12:08:38Z</time>
      </trkpt>
      <trkpt lat="43.35316" lon="5.7595">
        <ele>416.39</ele>
        <time>2019-01-06T12:08:57Z</time>
      </trkpt>
      <trkpt lat="43.35319" lon="5.75951">
        <ele>416.39</ele>
        <time>2019-01-06T12:09:04Z</time>
      </trkpt>
      <trkpt lat="43.35325" lon="5.75951">
        <ele>416.39</ele>
        <time>2019-01-06T12:09:17Z</time>
      </trkpt>
      <trkpt lat="43.35328" lon="5.7595">
        <ele>416.39</ele>
        <time>2019-01-06T12:09:26Z</time>
      </trkpt>
      <trkpt lat="43.35338" lon="5.75947">
        <ele>417.35</ele>
        <time>2019-01-06T12:09:38Z</time>
      </trkpt>
      <trkpt lat="43.35341" lon="5.75947">
        <ele>417.35</ele>
        <time>2019-01-06T12:09:41Z</time>
      </trkpt>
      <trkpt lat="43.35345" lon="5.75946">
        <ele>417.35</ele>
        <time>2019-01-06T12:09:46Z</time>
      </trkpt>
      <trkpt lat="43.35347" lon="5.75945">
        <ele>417.35</ele>
        <time>2019-01-06T12:09:47Z</time>
      </trkpt>
      <trkpt lat="43.35348" lon="5.75945">
        <ele>417.35</ele>
        <time>2019-01-06T12:09:48Z</time>
      </trkpt>
      <trkpt lat="43.3535" lon="5.75945">
        <ele>417.35</ele>
        <time>2019-01-06T12:09:51Z</time>
      </trkpt>
      <trkpt lat="43.35352" lon="5.75946">
        <ele>417.35</ele>
        <time>2019-01-06T12:09:52Z</time>
      </trkpt>
      <trkpt lat="43.35359" lon="5.75947">
        <ele>417.35</ele>
        <time>2019-01-06T12:10:01Z</time>
      </trkpt>
      <trkpt lat="43.3536" lon="5.75947">
        <ele>417.35</ele>
        <time>2019-01-06T12:10:02Z</time>
      </trkpt>
      <trkpt lat="43.35363" lon="5.75943">
        <ele>417.35</ele>
        <time>2019-01-06T12:10:07Z</time>
      </trkpt>
      <trkpt lat="43.35364" lon="5.75942">
        <ele>417.35</ele>
        <time>2019-01-06T12:10:08Z</time>
      </trkpt>
      <trkpt lat="43.35366" lon="5.7594">
        <ele>417.35</ele>
        <time>2019-01-06T12:10:09Z</time>
      </trkpt>
      <trkpt lat="43.35367" lon="5.75937">
        <ele>417.35</ele>
        <time>2019-01-06T12:10:10Z</time>
      </trkpt>
      <trkpt lat="43.35367" lon="5.75935">
        <ele>417.35</ele>
        <time>2019-01-06T12:10:11Z</time>
      </trkpt>
      <trkpt lat="43.35376" lon="5.75933">
        <ele>415.91</ele>
        <time>2019-01-06T12:10:18Z</time>
      </trkpt>
      <trkpt lat="43.35378" lon="5.75932">
        <ele>415.43</ele>
        <time>2019-01-06T12:10:19Z</time>
      </trkpt>
      <trkpt lat="43.35379" lon="5.75931">
        <ele>415.43</ele>
        <time>2019-01-06T12:10:20Z</time>
      </trkpt>
      <trkpt lat="43.3538" lon="5.7593">
        <ele>415.43</ele>
        <time>2019-01-06T12:10:21Z</time>
      </trkpt>
      <trkpt lat="43.35383" lon="5.75927">
        <ele>415.43</ele>
        <time>2019-01-06T12:10:26Z</time>
      </trkpt>
      <trkpt lat="43.35385" lon="5.75926">
        <ele>415.43</ele>
        <time>2019-01-06T12:10:27Z</time>
      </trkpt>
      <trkpt lat="43.35387" lon="5.75925">
        <ele>414.95</ele>
        <time>2019-01-06T12:10:29Z</time>
      </trkpt>
      <trkpt lat="43.35392" lon="5.75922">
        <ele>414.95</ele>
        <time>2019-01-06T12:10:34Z</time>
      </trkpt>
      <trkpt lat="43.35393" lon="5.75921">
        <ele>414.95</ele>
        <time>2019-01-06T12:10:35Z</time>
      </trkpt>
      <trkpt lat="43.35399" lon="5.75911">
        <ele>413.5</ele>
        <time>2019-01-06T12:10:42Z</time>
      </trkpt>
      <trkpt lat="43.35401" lon="5.7591">
        <ele>413.98</ele>
        <time>2019-01-06T12:10:43Z</time>
      </trkpt>
      <trkpt lat="43.35402" lon="5.75908">
        <ele>413.98</ele>
        <time>2019-01-06T12:10:44Z</time>
      </trkpt>
      <trkpt lat="43.35404" lon="5.75906">
        <ele>413.5</ele>
        <time>2019-01-06T12:10:47Z</time>
      </trkpt>
      <trkpt lat="43.35405" lon="5.75905">
        <ele>413.5</ele>
        <time>2019-01-06T12:10:48Z</time>
      </trkpt>
      <trkpt lat="43.35406" lon="5.75904">
        <ele>413.02</ele>
        <time>2019-01-06T12:10:49Z</time>
      </trkpt>
      <trkpt lat="43.35408" lon="5.75902">
        <ele>413.02</ele>
        <time>2019-01-06T12:10:53Z</time>
      </trkpt>
      <trkpt lat="43.35409" lon="5.759">
        <ele>413.02</ele>
        <time>2019-01-06T12:10:54Z</time>
      </trkpt>
      <trkpt lat="43.3541" lon="5.75899">
        <ele>413.02</ele>
        <time>2019-01-06T12:10:55Z</time>
      </trkpt>
      <trkpt lat="43.3541" lon="5.75898">
        <ele>413.02</ele>
        <time>2019-01-06T12:10:56Z</time>
      </trkpt>
      <trkpt lat="43.35411" lon="5.75895">
        <ele>412.06</ele>
        <time>2019-01-06T12:11:00Z</time>
      </trkpt>
      <trkpt lat="43.35412" lon="5.75893">
        <ele>412.06</ele>
        <time>2019-01-06T12:11:01Z</time>
      </trkpt>
      <trkpt lat="43.35412" lon="5.75891">
        <ele>412.06</ele>
        <time>2019-01-06T12:11:02Z</time>
      </trkpt>
      <trkpt lat="43.35414" lon="5.75887">
        <ele>413.98</ele>
        <time>2019-01-06T12:11:15Z</time>
      </trkpt>
      <trkpt lat="43.35418" lon="5.7588">
        <ele>412.54</ele>
        <time>2019-01-06T12:11:20Z</time>
      </trkpt>
      <trkpt lat="43.35429" lon="5.75863">
        <ele>412.54</ele>
        <time>2019-01-06T12:11:36Z</time>
      </trkpt>
      <trkpt lat="43.35434" lon="5.75856">
        <ele>412.54</ele>
        <time>2019-01-06T12:11:41Z</time>
      </trkpt>
      <trkpt lat="43.35438" lon="5.75853">
        <ele>412.06</ele>
        <time>2019-01-06T12:11:46Z</time>
      </trkpt>
      <trkpt lat="43.35441" lon="5.75851">
        <ele>411.58</ele>
        <time>2019-01-06T12:11:48Z</time>
      </trkpt>
      <trkpt lat="43.35441" lon="5.7585">
        <ele>411.58</ele>
        <time>2019-01-06T12:11:49Z</time>
      </trkpt>
      <trkpt lat="43.3545" lon="5.75838">
        <ele>411.1</ele>
        <time>2019-01-06T12:12:01Z</time>
      </trkpt>
      <trkpt lat="43.35459" lon="5.75826">
        <ele>411.1</ele>
        <time>2019-01-06T12:12:16Z</time>
      </trkpt>
      <trkpt lat="43.35463" lon="5.75824">
        <ele>411.1</ele>
        <time>2019-01-06T12:12:28Z</time>
      </trkpt>
      <trkpt lat="43.35469" lon="5.75818">
        <ele>412.54</ele>
        <time>2019-01-06T12:12:44Z</time>
      </trkpt>
      <trkpt lat="43.3548" lon="5.75811">
        <ele>412.06</ele>
        <time>2019-01-06T12:12:56Z</time>
      </trkpt>
      <trkpt lat="43.35483" lon="5.75809">
        <ele>412.06</ele>
        <time>2019-01-06T12:13:00Z</time>
      </trkpt>
      <trkpt lat="43.35485" lon="5.75808">
        <ele>412.06</ele>
        <time>2019-01-06T12:13:01Z</time>
      </trkpt>
      <trkpt lat="43.3549" lon="5.75804">
        <ele>412.54</ele>
        <time>2019-01-06T12:13:06Z</time>
      </trkpt>
      <trkpt lat="43.35498" lon="5.75796">
        <ele>412.06</ele>
        <time>2019-01-06T12:13:16Z</time>
      </trkpt>
      <trkpt lat="43.35512" lon="5.75788">
        <ele>412.06</ele>
        <time>2019-01-06T12:13:30Z</time>
      </trkpt>
      <trkpt lat="43.35521" lon="5.75784">
        <ele>412.06</ele>
        <time>2019-01-06T12:13:40Z</time>
      </trkpt>
      <trkpt lat="43.3553" lon="5.75777">
        <ele>412.06</ele>
        <time>2019-01-06T12:13:50Z</time>
      </trkpt>
      <trkpt lat="43.35539" lon="5.75771">
        <ele>412.06</ele>
        <time>2019-01-06T12:14:01Z</time>
      </trkpt>
      <trkpt lat="43.35541" lon="5.7577">
        <ele>412.06</ele>
        <time>2019-01-06T12:14:02Z</time>
      </trkpt>
      <trkpt lat="43.35542" lon="5.75768">
        <ele>412.06</ele>
        <time>2019-01-06T12:14:03Z</time>
      </trkpt>
      <trkpt lat="43.35548" lon="5.75763">
        <ele>412.06</ele>
        <time>2019-01-06T12:14:08Z</time>
      </trkpt>
      <trkpt lat="43.35549" lon="5.75763">
        <ele>412.06</ele>
        <time>2019-01-06T12:14:09Z</time>
      </trkpt>
      <trkpt lat="43.35551" lon="5.75762">
        <ele>412.06</ele>
        <time>2019-01-06T12:14:13Z</time>
      </trkpt>
      <trkpt lat="43.35552" lon="5.75761">
        <ele>412.06</ele>
        <time>2019-01-06T12:14:14Z</time>
      </trkpt>
      <trkpt lat="43.35554" lon="5.75756">
        <ele>412.06</ele>
        <time>2019-01-06T12:14:18Z</time>
      </trkpt>
      <trkpt lat="43.35555" lon="5.75754">
        <ele>412.06</ele>
        <time>2019-01-06T12:14:19Z</time>
      </trkpt>
      <trkpt lat="43.3556" lon="5.75748">
        <ele>411.1</ele>
        <time>2019-01-06T12:14:28Z</time>
      </trkpt>
      <trkpt lat="43.35562" lon="5.75747">
        <ele>411.1</ele>
        <time>2019-01-06T12:14:30Z</time>
      </trkpt>
      <trkpt lat="43.35563" lon="5.75746">
        <ele>411.1</ele>
        <time>2019-01-06T12:14:31Z</time>
      </trkpt>
      <trkpt lat="43.35566" lon="5.75744">
        <ele>410.62</ele>
        <time>2019-01-06T12:14:36Z</time>
      </trkpt>
      <trkpt lat="43.35575" lon="5.75742">
        <ele>410.62</ele>
        <time>2019-01-06T12:14:46Z</time>
      </trkpt>
      <trkpt lat="43.35579" lon="5.75741">
        <ele>410.62</ele>
        <time>2019-01-06T12:14:49Z</time>
      </trkpt>
      <trkpt lat="43.3558" lon="5.7574">
        <ele>410.62</ele>
        <time>2019-01-06T12:14:50Z</time>
      </trkpt>
      <trkpt lat="43.35586" lon="5.75738">
        <ele>410.62</ele>
        <time>2019-01-06T12:14:55Z</time>
      </trkpt>
      <trkpt lat="43.35587" lon="5.75738">
        <ele>410.62</ele>
        <time>2019-01-06T12:14:56Z</time>
      </trkpt>
      <trkpt lat="43.35596" lon="5.75729">
        <ele>410.62</ele>
        <time>2019-01-06T12:15:07Z</time>
      </trkpt>
      <trkpt lat="43.35604" lon="5.75717">
        <ele>409.66</ele>
        <time>2019-01-06T12:15:21Z</time>
      </trkpt>
      <trkpt lat="43.35618" lon="5.75704">
        <ele>408.7</ele>
        <time>2019-01-06T12:15:36Z</time>
      </trkpt>
      <trkpt lat="43.35625" lon="5.75696">
        <ele>408.22</ele>
        <time>2019-01-06T12:15:46Z</time>
      </trkpt>
      <trkpt lat="43.3563" lon="5.75688">
        <ele>408.22</ele>
        <time>2019-01-06T12:15:56Z</time>
      </trkpt>
      <trkpt lat="43.35632" lon="5.75685">
        <ele>408.22</ele>
        <time>2019-01-06T12:15:58Z</time>
      </trkpt>
      <trkpt lat="43.35636" lon="5.75682">
        <ele>407.74</ele>
        <time>2019-01-06T12:16:04Z</time>
      </trkpt>
      <trkpt lat="43.35638" lon="5.75681">
        <ele>406.77</ele>
        <time>2019-01-06T12:16:05Z</time>
      </trkpt>
      <trkpt lat="43.3564" lon="5.75679">
        <ele>406.77</ele>
        <time>2019-01-06T12:16:06Z</time>
      </trkpt>
      <trkpt lat="43.3564" lon="5.75676">
        <ele>406.77</ele>
        <time>2019-01-06T12:16:13Z</time>
      </trkpt>
      <trkpt lat="43.35641" lon="5.75674">
        <ele>406.77</ele>
        <time>2019-01-06T12:16:14Z</time>
      </trkpt>
      <trkpt lat="43.35643" lon="5.75672">
        <ele>406.77</ele>
        <time>2019-01-06T12:16:15Z</time>
      </trkpt>
      <trkpt lat="43.35644" lon="5.75671">
        <ele>406.77</ele>
        <time>2019-01-06T12:16:16Z</time>
      </trkpt>
      <trkpt lat="43.35644" lon="5.7567">
        <ele>406.77</ele>
        <time>2019-01-06T12:16:17Z</time>
      </trkpt>
      <trkpt lat="43.35647" lon="5.75668">
        <ele>406.77</ele>
        <time>2019-01-06T12:16:21Z</time>
      </trkpt>
      <trkpt lat="43.35648" lon="5.75667">
        <ele>406.77</ele>
        <time>2019-01-06T12:16:22Z</time>
      </trkpt>
      <trkpt lat="43.3565" lon="5.75666">
        <ele>406.77</ele>
        <time>2019-01-06T12:16:23Z</time>
      </trkpt>
      <trkpt lat="43.35652" lon="5.75665">
        <ele>406.77</ele>
        <time>2019-01-06T12:16:24Z</time>
      </trkpt>
      <trkpt lat="43.35655" lon="5.75661">
        <ele>406.77</ele>
        <time>2019-01-06T12:16:29Z</time>
      </trkpt>
      <trkpt lat="43.35656" lon="5.75661">
        <ele>406.77</ele>
        <time>2019-01-06T12:16:30Z</time>
      </trkpt>
      <trkpt lat="43.35658" lon="5.7566">
        <ele>406.77</ele>
        <time>2019-01-06T12:16:31Z</time>
      </trkpt>
      <trkpt lat="43.35659" lon="5.75659">
        <ele>406.77</ele>
        <time>2019-01-06T12:16:32Z</time>
      </trkpt>
      <trkpt lat="43.35668" lon="5.75656">
        <ele>406.77</ele>
        <time>2019-01-06T12:16:42Z</time>
      </trkpt>
      <trkpt lat="43.35669" lon="5.75655">
        <ele>406.77</ele>
        <time>2019-01-06T12:16:43Z</time>
      </trkpt>
      <trkpt lat="43.35671" lon="5.75654">
        <ele>406.77</ele>
        <time>2019-01-06T12:16:44Z</time>
      </trkpt>
      <trkpt lat="43.35677" lon="5.75649">
        <ele>406.29</ele>
        <time>2019-01-06T12:16:50Z</time>
      </trkpt>
      <trkpt lat="43.3568" lon="5.75646">
        <ele>406.29</ele>
        <time>2019-01-06T12:16:55Z</time>
      </trkpt>
      <trkpt lat="43.35682" lon="5.75645">
        <ele>406.29</ele>
        <time>2019-01-06T12:16:56Z</time>
      </trkpt>
      <trkpt lat="43.35684" lon="5.75644">
        <ele>405.81</ele>
        <time>2019-01-06T12:16:57Z</time>
      </trkpt>
      <trkpt lat="43.35687" lon="5.75642">
        <ele>406.29</ele>
        <time>2019-01-06T12:17:01Z</time>
      </trkpt>
      <trkpt lat="43.35693" lon="5.75641">
        <ele>405.81</ele>
        <time>2019-01-06T12:17:08Z</time>
      </trkpt>
      <trkpt lat="43.35695" lon="5.7564">
        <ele>405.81</ele>
        <time>2019-01-06T12:17:09Z</time>
      </trkpt>
      <trkpt lat="43.35699" lon="5.75639">
        <ele>405.81</ele>
        <time>2019-01-06T12:17:17Z</time>
      </trkpt>
      <trkpt lat="43.35704" lon="5.75636">
        <ele>405.81</ele>
        <time>2019-01-06T12:17:27Z</time>
      </trkpt>
      <trkpt lat="43.35706" lon="5.75633">
        <ele>405.33</ele>
        <time>2019-01-06T12:17:31Z</time>
      </trkpt>
      <trkpt lat="43.35707" lon="5.75634">
        <ele>405.33</ele>
        <time>2019-01-06T12:17:44Z</time>
      </trkpt>
      <trkpt lat="43.35709" lon="5.75635">
        <ele>405.33</ele>
        <time>2019-01-06T12:18:04Z</time>
      </trkpt>
      <trkpt lat="43.35717" lon="5.75631">
        <ele>406.77</ele>
        <time>2019-01-06T12:18:21Z</time>
      </trkpt>
      <trkpt lat="43.35725" lon="5.75626">
        <ele>406.77</ele>
        <time>2019-01-06T12:18:32Z</time>
      </trkpt>
      <trkpt lat="43.35731" lon="5.75616">
        <ele>406.77</ele>
        <time>2019-01-06T12:18:42Z</time>
      </trkpt>
      <trkpt lat="43.35733" lon="5.75613">
        <ele>406.77</ele>
        <time>2019-01-06T12:18:49Z</time>
      </trkpt>
      <trkpt lat="43.35739" lon="5.75598">
        <ele>406.77</ele>
        <time>2019-01-06T12:18:59Z</time>
      </trkpt>
      <trkpt lat="43.35744" lon="5.75588">
        <ele>407.26</ele>
        <time>2019-01-06T12:19:09Z</time>
      </trkpt>
      <trkpt lat="43.35745" lon="5.75587">
        <ele>407.26</ele>
        <time>2019-01-06T12:19:10Z</time>
      </trkpt>
      <trkpt lat="43.35746" lon="5.75585">
        <ele>407.26</ele>
        <time>2019-01-06T12:19:11Z</time>
      </trkpt>
      <trkpt lat="43.35747" lon="5.75584">
        <ele>407.26</ele>
        <time>2019-01-06T12:19:12Z</time>
      </trkpt>
      <trkpt lat="43.35748" lon="5.75582">
        <ele>407.26</ele>
        <time>2019-01-06T12:19:13Z</time>
      </trkpt>
      <trkpt lat="43.35757" lon="5.75564">
        <ele>407.26</ele>
        <time>2019-01-06T12:19:29Z</time>
      </trkpt>
      <trkpt lat="43.35763" lon="5.75551">
        <ele>407.26</ele>
        <time>2019-01-06T12:19:40Z</time>
      </trkpt>
      <trkpt lat="43.35764" lon="5.75551">
        <ele>407.26</ele>
        <time>2019-01-06T12:19:41Z</time>
      </trkpt>
      <trkpt lat="43.35767" lon="5.75547">
        <ele>407.26</ele>
        <time>2019-01-06T12:19:45Z</time>
      </trkpt>
      <trkpt lat="43.35768" lon="5.75546">
        <ele>407.26</ele>
        <time>2019-01-06T12:19:46Z</time>
      </trkpt>
      <trkpt lat="43.35773" lon="5.75539">
        <ele>407.26</ele>
        <time>2019-01-06T12:19:58Z</time>
      </trkpt>
      <trkpt lat="43.35778" lon="5.75523">
        <ele>405.33</ele>
        <time>2019-01-06T12:20:11Z</time>
      </trkpt>
      <trkpt lat="43.35779" lon="5.75521">
        <ele>406.77</ele>
        <time>2019-01-06T12:20:13Z</time>
      </trkpt>
      <trkpt lat="43.35792" lon="5.755">
        <ele>405.81</ele>
        <time>2019-01-06T12:20:35Z</time>
      </trkpt>
      <trkpt lat="43.35796" lon="5.75494">
        <ele>406.29</ele>
        <time>2019-01-06T12:20:41Z</time>
      </trkpt>
      <trkpt lat="43.35802" lon="5.75484">
        <ele>405.33</ele>
        <time>2019-01-06T12:20:49Z</time>
      </trkpt>
      <trkpt lat="43.35807" lon="5.75469">
        <ele>405.33</ele>
        <time>2019-01-06T12:21:09Z</time>
      </trkpt>
      <trkpt lat="43.35815" lon="5.75456">
        <ele>406.29</ele>
        <time>2019-01-06T12:21:22Z</time>
      </trkpt>
      <trkpt lat="43.35817" lon="5.7545">
        <ele>404.85</ele>
        <time>2019-01-06T12:21:26Z</time>
      </trkpt>
      <trkpt lat="43.35821" lon="5.75444">
        <ele>404.37</ele>
        <time>2019-01-06T12:21:43Z</time>
      </trkpt>
      <trkpt lat="43.35822" lon="5.7544">
        <ele>405.81</ele>
        <time>2019-01-06T12:21:52Z</time>
      </trkpt>
      <trkpt lat="43.35821" lon="5.75437">
        <ele>404.37</ele>
        <time>2019-01-06T12:21:55Z</time>
      </trkpt>
      <trkpt lat="43.35828" lon="5.7543">
        <ele>405.81</ele>
        <time>2019-01-06T12:22:15Z</time>
      </trkpt>
      <trkpt lat="43.35831" lon="5.75426">
        <ele>405.33</ele>
        <time>2019-01-06T12:22:20Z</time>
      </trkpt>
      <trkpt lat="43.35834" lon="5.75423">
        <ele>405.33</ele>
        <time>2019-01-06T12:22:25Z</time>
      </trkpt>
      <trkpt lat="43.35835" lon="5.75422">
        <ele>405.81</ele>
        <time>2019-01-06T12:22:26Z</time>
      </trkpt>
      <trkpt lat="43.35837" lon="5.7542">
        <ele>405.81</ele>
        <time>2019-01-06T12:22:27Z</time>
      </trkpt>
      <trkpt lat="43.3584" lon="5.75416">
        <ele>405.33</ele>
        <time>2019-01-06T12:22:32Z</time>
      </trkpt>
      <trkpt lat="43.35847" lon="5.75405">
        <ele>405.33</ele>
        <time>2019-01-06T12:22:41Z</time>
      </trkpt>
      <trkpt lat="43.35847" lon="5.75401">
        <ele>404.37</ele>
        <time>2019-01-06T12:22:46Z</time>
      </trkpt>
      <trkpt lat="43.35849" lon="5.75399">
        <ele>404.37</ele>
        <time>2019-01-06T12:22:47Z</time>
      </trkpt>
      <trkpt lat="43.3585" lon="5.75396">
        <ele>404.37</ele>
        <time>2019-01-06T12:22:48Z</time>
      </trkpt>
      <trkpt lat="43.35851" lon="5.75394">
        <ele>404.37</ele>
        <time>2019-01-06T12:22:49Z</time>
      </trkpt>
      <trkpt lat="43.35858" lon="5.75383">
        <ele>404.37</ele>
        <time>2019-01-06T12:22:57Z</time>
      </trkpt>
      <trkpt lat="43.35859" lon="5.75383">
        <ele>404.37</ele>
        <time>2019-01-06T12:22:58Z</time>
      </trkpt>
      <trkpt lat="43.35861" lon="5.75382">
        <ele>404.37</ele>
        <time>2019-01-06T12:22:59Z</time>
      </trkpt>
      <trkpt lat="43.35863" lon="5.75381">
        <ele>404.37</ele>
        <time>2019-01-06T12:23:00Z</time>
      </trkpt>
      <trkpt lat="43.35864" lon="5.7538">
        <ele>404.37</ele>
        <time>2019-01-06T12:23:01Z</time>
      </trkpt>
      <trkpt lat="43.35866" lon="5.75377">
        <ele>404.37</ele>
        <time>2019-01-06T12:23:04Z</time>
      </trkpt>
      <trkpt lat="43.35868" lon="5.75375">
        <ele>403.89</ele>
        <time>2019-01-06T12:23:05Z</time>
      </trkpt>
      <trkpt lat="43.35871" lon="5.75374">
        <ele>403.89</ele>
        <time>2019-01-06T12:23:09Z</time>
      </trkpt>
      <trkpt lat="43.35872" lon="5.75375">
        <ele>403.89</ele>
        <time>2019-01-06T12:23:10Z</time>
      </trkpt>
      <trkpt lat="43.35874" lon="5.75375">
        <ele>403.89</ele>
        <time>2019-01-06T12:23:11Z</time>
      </trkpt>
      <trkpt lat="43.35877" lon="5.75375">
        <ele>404.37</ele>
        <time>2019-01-06T12:23:13Z</time>
      </trkpt>
      <trkpt lat="43.35877" lon="5.75371">
        <ele>403.89</ele>
        <time>2019-01-06T12:23:17Z</time>
      </trkpt>
      <trkpt lat="43.35878" lon="5.75367">
        <ele>405.33</ele>
        <time>2019-01-06T12:23:20Z</time>
      </trkpt>
      <trkpt lat="43.35879" lon="5.75366">
        <ele>405.33</ele>
        <time>2019-01-06T12:23:21Z</time>
      </trkpt>
      <trkpt lat="43.35887" lon="5.75353">
        <ele>405.81</ele>
        <time>2019-01-06T12:23:38Z</time>
      </trkpt>
      <trkpt lat="43.35888" lon="5.7535">
        <ele>405.81</ele>
        <time>2019-01-06T12:23:40Z</time>
      </trkpt>
      <trkpt lat="43.35895" lon="5.75341">
        <ele>405.81</ele>
        <time>2019-01-06T12:23:49Z</time>
      </trkpt>
      <trkpt lat="43.359" lon="5.75336">
        <ele>405.81</ele>
        <time>2019-01-06T12:23:54Z</time>
      </trkpt>
      <trkpt lat="43.35902" lon="5.75336">
        <ele>405.81</ele>
        <time>2019-01-06T12:23:55Z</time>
      </trkpt>
      <trkpt lat="43.35905" lon="5.75334">
        <ele>405.81</ele>
        <time>2019-01-06T12:23:58Z</time>
      </trkpt>
      <trkpt lat="43.35912" lon="5.75325">
        <ele>406.29</ele>
        <time>2019-01-06T12:24:06Z</time>
      </trkpt>
      <trkpt lat="43.35915" lon="5.75322">
        <ele>406.77</ele>
        <time>2019-01-06T12:24:10Z</time>
      </trkpt>
      <trkpt lat="43.35913" lon="5.75317">
        <ele>406.77</ele>
        <time>2019-01-06T12:24:16Z</time>
      </trkpt>
      <trkpt lat="43.35912" lon="5.75314">
        <ele>406.77</ele>
        <time>2019-01-06T12:24:17Z</time>
      </trkpt>
      <trkpt lat="43.35912" lon="5.75312">
        <ele>406.77</ele>
        <time>2019-01-06T12:24:18Z</time>
      </trkpt>
      <trkpt lat="43.35915" lon="5.75309">
        <ele>406.77</ele>
        <time>2019-01-06T12:24:21Z</time>
      </trkpt>
      <trkpt lat="43.35922" lon="5.75299">
        <ele>406.77</ele>
        <time>2019-01-06T12:24:39Z</time>
      </trkpt>
      <trkpt lat="43.35927" lon="5.75291">
        <ele>406.29</ele>
        <time>2019-01-06T12:25:02Z</time>
      </trkpt>
      <trkpt lat="43.35929" lon="5.75288">
        <ele>406.29</ele>
        <time>2019-01-06T12:25:18Z</time>
      </trkpt>
      <trkpt lat="43.35935" lon="5.75295">
        <ele>406.29</ele>
        <time>2019-01-06T12:25:31Z</time>
      </trkpt>
      <trkpt lat="43.35934" lon="5.75307">
        <ele>407.26</ele>
        <time>2019-01-06T12:25:42Z</time>
      </trkpt>
      <trkpt lat="43.35932" lon="5.75317">
        <ele>408.22</ele>
        <time>2019-01-06T12:25:47Z</time>
      </trkpt>
      <trkpt lat="43.35934" lon="5.75332">
        <ele>408.7</ele>
        <time>2019-01-06T12:26:03Z</time>
      </trkpt>
      <trkpt lat="43.35938" lon="5.75348">
        <ele>410.14</ele>
        <time>2019-01-06T12:26:14Z</time>
      </trkpt>
      <trkpt lat="43.35942" lon="5.75361">
        <ele>411.1</ele>
        <time>2019-01-06T12:26:23Z</time>
      </trkpt>
      <trkpt lat="43.3595" lon="5.75374">
        <ele>413.98</ele>
        <time>2019-01-06T12:26:37Z</time>
      </trkpt>
      <trkpt lat="43.35954" lon="5.7539">
        <ele>415.91</ele>
        <time>2019-01-06T12:26:51Z</time>
      </trkpt>
      <trkpt lat="43.35956" lon="5.75403">
        <ele>416.87</ele>
        <time>2019-01-06T12:27:06Z</time>
      </trkpt>
      <trkpt lat="43.35956" lon="5.75405">
        <ele>416.87</ele>
        <time>2019-01-06T12:27:07Z</time>
      </trkpt>
      <trkpt lat="43.35956" lon="5.75407">
        <ele>416.87</ele>
        <time>2019-01-06T12:27:08Z</time>
      </trkpt>
      <trkpt lat="43.35959" lon="5.75423">
        <ele>418.31</ele>
        <time>2019-01-06T12:27:23Z</time>
      </trkpt>
      <trkpt lat="43.35958" lon="5.75425">
        <ele>418.31</ele>
        <time>2019-01-06T12:27:25Z</time>
      </trkpt>
      <trkpt lat="43.35958" lon="5.75427">
        <ele>418.31</ele>
        <time>2019-01-06T12:27:26Z</time>
      </trkpt>
      <trkpt lat="43.35957" lon="5.75429">
        <ele>418.31</ele>
        <time>2019-01-06T12:27:27Z</time>
      </trkpt>
      <trkpt lat="43.35955" lon="5.75433">
        <ele>418.31</ele>
        <time>2019-01-06T12:27:35Z</time>
      </trkpt>
      <trkpt lat="43.35954" lon="5.75433">
        <ele>418.31</ele>
        <time>2019-01-06T12:27:42Z</time>
      </trkpt>
      <trkpt lat="43.35952" lon="5.75435">
        <ele>418.31</ele>
        <time>2019-01-06T12:27:43Z</time>
      </trkpt>
      <trkpt lat="43.35951" lon="5.75437">
        <ele>418.31</ele>
        <time>2019-01-06T12:27:44Z</time>
      </trkpt>
      <trkpt lat="43.3595" lon="5.75439">
        <ele>418.31</ele>
        <time>2019-01-06T12:27:45Z</time>
      </trkpt>
      <trkpt lat="43.3595" lon="5.75439">
        <ele>418.31</ele>
        <time>2019-01-06T12:27:46Z</time>
      </trkpt>
      <trkpt lat="43.35947" lon="5.75447">
        <ele>418.31</ele>
        <time>2019-01-06T12:27:53Z</time>
      </trkpt>
      <trkpt lat="43.35946" lon="5.75451">
        <ele>418.79</ele>
        <time>2019-01-06T12:28:07Z</time>
      </trkpt>
      <trkpt lat="43.35945" lon="5.75453">
        <ele>418.79</ele>
        <time>2019-01-06T12:28:11Z</time>
      </trkpt>
      <trkpt lat="43.35943" lon="5.75459">
        <ele>419.27</ele>
        <time>2019-01-06T12:28:22Z</time>
      </trkpt>
      <trkpt lat="43.35943" lon="5.7546">
        <ele>419.27</ele>
        <time>2019-01-06T12:28:27Z</time>
      </trkpt>
      <trkpt lat="43.35941" lon="5.75464">
        <ele>419.27</ele>
        <time>2019-01-06T12:28:32Z</time>
      </trkpt>
      <trkpt lat="43.3594" lon="5.75465">
        <ele>419.27</ele>
        <time>2019-01-06T12:28:33Z</time>
      </trkpt>
      <trkpt lat="43.35937" lon="5.75469">
        <ele>420.23</ele>
        <time>2019-01-06T12:28:43Z</time>
      </trkpt>
      <trkpt lat="43.35935" lon="5.75473">
        <ele>420.23</ele>
        <time>2019-01-06T12:28:47Z</time>
      </trkpt>
      <trkpt lat="43.35928" lon="5.75487">
        <ele>422.16</ele>
        <time>2019-01-06T12:28:58Z</time>
      </trkpt>
      <trkpt lat="43.35928" lon="5.75489">
        <ele>422.16</ele>
        <time>2019-01-06T12:29:00Z</time>
      </trkpt>
      <trkpt lat="43.35927" lon="5.75491">
        <ele>422.16</ele>
        <time>2019-01-06T12:29:02Z</time>
      </trkpt>
      <trkpt lat="43.35926" lon="5.75494">
        <ele>422.64</ele>
        <time>2019-01-06T12:29:03Z</time>
      </trkpt>
      <trkpt lat="43.35924" lon="5.75496">
        <ele>422.64</ele>
        <time>2019-01-06T12:29:06Z</time>
      </trkpt>
      <trkpt lat="43.35925" lon="5.75498">
        <ele>422.64</ele>
        <time>2019-01-06T12:29:07Z</time>
      </trkpt>
      <trkpt lat="43.35924" lon="5.75501">
        <ele>423.12</ele>
        <time>2019-01-06T12:29:10Z</time>
      </trkpt>
      <trkpt lat="43.35923" lon="5.75503">
        <ele>423.12</ele>
        <time>2019-01-06T12:29:11Z</time>
      </trkpt>
      <trkpt lat="43.35922" lon="5.75509">
        <ele>423.6</ele>
        <time>2019-01-06T12:29:17Z</time>
      </trkpt>
      <trkpt lat="43.35922" lon="5.75511">
        <ele>424.08</ele>
        <time>2019-01-06T12:29:18Z</time>
      </trkpt>
      <trkpt lat="43.35924" lon="5.75521">
        <ele>425.04</ele>
        <time>2019-01-06T12:29:29Z</time>
      </trkpt>
      <trkpt lat="43.35921" lon="5.75522">
        <ele>424.56</ele>
        <time>2019-01-06T12:29:46Z</time>
      </trkpt>
      <trkpt lat="43.35921" lon="5.75522">
        <ele>424.56</ele>
        <time>2019-01-06T12:29:47Z</time>
      </trkpt>
      <trkpt lat="43.35921" lon="5.75523">
        <ele>426.48</ele>
        <time>2019-01-06T12:29:49Z</time>
      </trkpt>
      <trkpt lat="43.35922" lon="5.7553">
        <ele>424.56</ele>
        <time>2019-01-06T12:29:57Z</time>
      </trkpt>
      <trkpt lat="43.35923" lon="5.75531">
        <ele>428.89</ele>
        <time>2019-01-06T12:29:58Z</time>
      </trkpt>
      <trkpt lat="43.35922" lon="5.75538">
        <ele>425.52</ele>
        <time>2019-01-06T12:30:08Z</time>
      </trkpt>
      <trkpt lat="43.35922" lon="5.7554">
        <ele>425.52</ele>
        <time>2019-01-06T12:30:14Z</time>
      </trkpt>
      <trkpt lat="43.35922" lon="5.7554">
        <ele>424.08</ele>
        <time>2019-01-06T12:30:16Z</time>
      </trkpt>
      <trkpt lat="43.35922" lon="5.75541">
        <ele>428.89</ele>
        <time>2019-01-06T12:30:18Z</time>
      </trkpt>
      <trkpt lat="43.35921" lon="5.75541">
        <ele>426.96</ele>
        <time>2019-01-06T12:30:19Z</time>
      </trkpt>
      <trkpt lat="43.35922" lon="5.75539">
        <ele>426.48</ele>
        <time>2019-01-06T12:30:41Z</time>
      </trkpt>
      <trkpt lat="43.35925" lon="5.75535">
        <ele>426</ele>
        <time>2019-01-06T12:30:43Z</time>
      </trkpt>
      <trkpt lat="43.35929" lon="5.75526">
        <ele>425.52</ele>
        <time>2019-01-06T12:31:10Z</time>
      </trkpt>
      <trkpt lat="43.3592" lon="5.75522">
        <ele>426</ele>
        <time>2019-01-06T12:31:26Z</time>
      </trkpt>
      <trkpt lat="43.35921" lon="5.75522">
        <ele>425.52</ele>
        <time>2019-01-06T12:31:41Z</time>
      </trkpt>
      <trkpt lat="43.35922" lon="5.75524">
        <ele>426.48</ele>
        <time>2019-01-06T12:32:00Z</time>
      </trkpt>
      <trkpt lat="43.3592" lon="5.75522">
        <ele>425.04</ele>
        <time>2019-01-06T12:32:13Z</time>
      </trkpt>
      <trkpt lat="43.3592" lon="5.75523">
        <ele>426.48</ele>
        <time>2019-01-06T12:32:15Z</time>
      </trkpt>
      <trkpt lat="43.35923" lon="5.75532">
        <ele>427.92</ele>
        <time>2019-01-06T12:32:25Z</time>
      </trkpt>
      <trkpt lat="43.35926" lon="5.75545">
        <ele>426.96</ele>
        <time>2019-01-06T12:32:41Z</time>
      </trkpt>
      <trkpt lat="43.35926" lon="5.75546">
        <ele>426.96</ele>
        <time>2019-01-06T12:32:42Z</time>
      </trkpt>
      <trkpt lat="43.35926" lon="5.75547">
        <ele>429.37</ele>
        <time>2019-01-06T12:32:43Z</time>
      </trkpt>
      <trkpt lat="43.35927" lon="5.75549">
        <ele>429.37</ele>
        <time>2019-01-06T12:32:44Z</time>
      </trkpt>
      <trkpt lat="43.35929" lon="5.75554">
        <ele>428.89</ele>
        <time>2019-01-06T12:32:59Z</time>
      </trkpt>
      <trkpt lat="43.35929" lon="5.75556">
        <ele>431.77</ele>
        <time>2019-01-06T12:33:02Z</time>
      </trkpt>
      <trkpt lat="43.3593" lon="5.75569">
        <ele>433.69</ele>
        <time>2019-01-06T12:33:11Z</time>
      </trkpt>
      <trkpt lat="43.35937" lon="5.7558">
        <ele>432.73</ele>
        <time>2019-01-06T12:33:23Z</time>
      </trkpt>
      <trkpt lat="43.35942" lon="5.75589">
        <ele>433.21</ele>
        <time>2019-01-06T12:33:31Z</time>
      </trkpt>
      <trkpt lat="43.35944" lon="5.75596">
        <ele>434.17</ele>
        <time>2019-01-06T12:33:40Z</time>
      </trkpt>
      <trkpt lat="43.35946" lon="5.756">
        <ele>435.61</ele>
        <time>2019-01-06T12:33:44Z</time>
      </trkpt>
      <trkpt lat="43.35947" lon="5.75604">
        <ele>436.1</ele>
        <time>2019-01-06T12:33:51Z</time>
      </trkpt>
      <trkpt lat="43.35948" lon="5.75609">
        <ele>437.06</ele>
        <time>2019-01-06T12:34:00Z</time>
      </trkpt>
      <trkpt lat="43.35948" lon="5.75612">
        <ele>436.1</ele>
        <time>2019-01-06T12:34:09Z</time>
      </trkpt>
      <trkpt lat="43.35949" lon="5.75619">
        <ele>437.54</ele>
        <time>2019-01-06T12:34:25Z</time>
      </trkpt>
      <trkpt lat="43.35959" lon="5.75628">
        <ele>438.5</ele>
        <time>2019-01-06T12:34:45Z</time>
      </trkpt>
      <trkpt lat="43.35968" lon="5.7563">
        <ele>438.98</ele>
        <time>2019-01-06T12:35:05Z</time>
      </trkpt>
      <trkpt lat="43.3596" lon="5.75635">
        <ele>439.94</ele>
        <time>2019-01-06T12:35:23Z</time>
      </trkpt>
      <trkpt lat="43.35959" lon="5.75645">
        <ele>442.34</ele>
        <time>2019-01-06T12:35:42Z</time>
      </trkpt>
      <trkpt lat="43.3596" lon="5.75652">
        <ele>442.82</ele>
        <time>2019-01-06T12:35:59Z</time>
      </trkpt>
      <trkpt lat="43.35962" lon="5.75655">
        <ele>444.27</ele>
        <time>2019-01-06T12:36:11Z</time>
      </trkpt>
      <trkpt lat="43.35964" lon="5.75662">
        <ele>442.82</ele>
        <time>2019-01-06T12:36:16Z</time>
      </trkpt>
      <trkpt lat="43.35965" lon="5.75664">
        <ele>444.75</ele>
        <time>2019-01-06T12:36:18Z</time>
      </trkpt>
      <trkpt lat="43.35971" lon="5.75682">
        <ele>446.67</ele>
        <time>2019-01-06T12:36:34Z</time>
      </trkpt>
      <trkpt lat="43.35974" lon="5.75693">
        <ele>447.15</ele>
        <time>2019-01-06T12:36:47Z</time>
      </trkpt>
      <trkpt lat="43.35975" lon="5.75706">
        <ele>448.59</ele>
        <time>2019-01-06T12:36:58Z</time>
      </trkpt>
      <trkpt lat="43.35974" lon="5.75716">
        <ele>451</ele>
        <time>2019-01-06T12:37:06Z</time>
      </trkpt>
      <trkpt lat="43.35974" lon="5.75718">
        <ele>451</ele>
        <time>2019-01-06T12:37:07Z</time>
      </trkpt>
      <trkpt lat="43.35975" lon="5.75723">
        <ele>451.48</ele>
        <time>2019-01-06T12:37:11Z</time>
      </trkpt>
      <trkpt lat="43.35979" lon="5.75727">
        <ele>451.96</ele>
        <time>2019-01-06T12:37:25Z</time>
      </trkpt>
      <trkpt lat="43.3598" lon="5.75728">
        <ele>451.96</ele>
        <time>2019-01-06T12:37:28Z</time>
      </trkpt>
      <trkpt lat="43.35981" lon="5.75729">
        <ele>451.96</ele>
        <time>2019-01-06T12:37:29Z</time>
      </trkpt>
      <trkpt lat="43.35984" lon="5.75738">
        <ele>453.88</ele>
        <time>2019-01-06T12:37:41Z</time>
      </trkpt>
      <trkpt lat="43.35987" lon="5.75745">
        <ele>454.36</ele>
        <time>2019-01-06T12:37:52Z</time>
      </trkpt>
      <trkpt lat="43.35987" lon="5.75747">
        <ele>453.88</ele>
        <time>2019-01-06T12:37:53Z</time>
      </trkpt>
      <trkpt lat="43.35987" lon="5.75749">
        <ele>454.36</ele>
        <time>2019-01-06T12:37:54Z</time>
      </trkpt>
      <trkpt lat="43.3599" lon="5.75762">
        <ele>456.28</ele>
        <time>2019-01-06T12:38:04Z</time>
      </trkpt>
      <trkpt lat="43.35991" lon="5.75766">
        <ele>456.76</ele>
        <time>2019-01-06T12:38:08Z</time>
      </trkpt>
      <trkpt lat="43.35993" lon="5.75771">
        <ele>458.21</ele>
        <time>2019-01-06T12:38:20Z</time>
      </trkpt>
      <trkpt lat="43.35993" lon="5.75779">
        <ele>459.17</ele>
        <time>2019-01-06T12:38:32Z</time>
      </trkpt>
      <trkpt lat="43.35993" lon="5.75783">
        <ele>459.17</ele>
        <time>2019-01-06T12:38:36Z</time>
      </trkpt>
      <trkpt lat="43.35995" lon="5.75786">
        <ele>459.17</ele>
        <time>2019-01-06T12:38:39Z</time>
      </trkpt>
      <trkpt lat="43.35996" lon="5.75788">
        <ele>459.17</ele>
        <time>2019-01-06T12:38:40Z</time>
      </trkpt>
      <trkpt lat="43.36003" lon="5.75799">
        <ele>460.61</ele>
        <time>2019-01-06T12:38:50Z</time>
      </trkpt>
      <trkpt lat="43.36011" lon="5.75808">
        <ele>463.01</ele>
        <time>2019-01-06T12:39:01Z</time>
      </trkpt>
      <trkpt lat="43.36012" lon="5.75809">
        <ele>463.49</ele>
        <time>2019-01-06T12:39:15Z</time>
      </trkpt>
      <trkpt lat="43.36015" lon="5.75821">
        <ele>464.93</ele>
        <time>2019-01-06T12:39:30Z</time>
      </trkpt>
      <trkpt lat="43.36015" lon="5.75831">
        <ele>466.86</ele>
        <time>2019-01-06T12:39:43Z</time>
      </trkpt>
      <trkpt lat="43.36015" lon="5.75837">
        <ele>466.86</ele>
        <time>2019-01-06T12:39:48Z</time>
      </trkpt>
      <trkpt lat="43.36017" lon="5.75854">
        <ele>470.22</ele>
        <time>2019-01-06T12:40:02Z</time>
      </trkpt>
      <trkpt lat="43.3602" lon="5.75874">
        <ele>473.59</ele>
        <time>2019-01-06T12:40:21Z</time>
      </trkpt>
      <trkpt lat="43.36019" lon="5.75878">
        <ele>473.59</ele>
        <time>2019-01-06T12:40:25Z</time>
      </trkpt>
      <trkpt lat="43.36021" lon="5.75891">
        <ele>475.51</ele>
        <time>2019-01-06T12:40:41Z</time>
      </trkpt>
      <trkpt lat="43.36022" lon="5.75894">
        <ele>476.47</ele>
        <time>2019-01-06T12:40:52Z</time>
      </trkpt>
      <trkpt lat="43.36024" lon="5.75907">
        <ele>477.91</ele>
        <time>2019-01-06T12:41:00Z</time>
      </trkpt>
      <trkpt lat="43.36029" lon="5.75918">
        <ele>479.84</ele>
        <time>2019-01-06T12:41:12Z</time>
      </trkpt>
      <trkpt lat="43.36032" lon="5.75924">
        <ele>480.8</ele>
        <time>2019-01-06T12:41:17Z</time>
      </trkpt>
      <trkpt lat="43.36034" lon="5.75927">
        <ele>480.32</ele>
        <time>2019-01-06T12:41:20Z</time>
      </trkpt>
      <trkpt lat="43.36039" lon="5.75935">
        <ele>481.76</ele>
        <time>2019-01-06T12:41:28Z</time>
      </trkpt>
      <trkpt lat="43.36041" lon="5.75949">
        <ele>483.2</ele>
        <time>2019-01-06T12:41:41Z</time>
      </trkpt>
      <trkpt lat="43.36043" lon="5.75958">
        <ele>484.16</ele>
        <time>2019-01-06T12:41:54Z</time>
      </trkpt>
      <trkpt lat="43.36044" lon="5.75959">
        <ele>484.16</ele>
        <time>2019-01-06T12:41:55Z</time>
      </trkpt>
      <trkpt lat="43.36045" lon="5.75962">
        <ele>484.64</ele>
        <time>2019-01-06T12:41:58Z</time>
      </trkpt>
      <trkpt lat="43.36046" lon="5.75965">
        <ele>485.12</ele>
        <time>2019-01-06T12:42:02Z</time>
      </trkpt>
      <trkpt lat="43.36052" lon="5.75967">
        <ele>485.6</ele>
        <time>2019-01-06T12:42:10Z</time>
      </trkpt>
      <trkpt lat="43.36058" lon="5.75968">
        <ele>486.08</ele>
        <time>2019-01-06T12:42:19Z</time>
      </trkpt>
      <trkpt lat="43.36062" lon="5.75969">
        <ele>487.05</ele>
        <time>2019-01-06T12:42:35Z</time>
      </trkpt>
      <trkpt lat="43.36056" lon="5.7597">
        <ele>487.05</ele>
        <time>2019-01-06T12:42:52Z</time>
      </trkpt>
      <trkpt lat="43.36054" lon="5.75968">
        <ele>486.56</ele>
        <time>2019-01-06T12:43:17Z</time>
      </trkpt>
      <trkpt lat="43.36056" lon="5.75971">
        <ele>487.05</ele>
        <time>2019-01-06T12:43:24Z</time>
      </trkpt>
      <trkpt lat="43.36058" lon="5.75982">
        <ele>488.97</ele>
        <time>2019-01-06T12:43:45Z</time>
      </trkpt>
      <trkpt lat="43.36059" lon="5.76003">
        <ele>490.41</ele>
        <time>2019-01-06T12:43:59Z</time>
      </trkpt>
      <trkpt lat="43.36061" lon="5.76005">
        <ele>490.41</ele>
        <time>2019-01-06T12:44:03Z</time>
      </trkpt>
      <trkpt lat="43.36064" lon="5.76006">
        <ele>490.89</ele>
        <time>2019-01-06T12:44:07Z</time>
      </trkpt>
      <trkpt lat="43.36069" lon="5.76011">
        <ele>491.85</ele>
        <time>2019-01-06T12:44:12Z</time>
      </trkpt>
      <trkpt lat="43.36078" lon="5.76014">
        <ele>492.81</ele>
        <time>2019-01-06T12:44:24Z</time>
      </trkpt>
      <trkpt lat="43.36082" lon="5.76015">
        <ele>492.81</ele>
        <time>2019-01-06T12:44:28Z</time>
      </trkpt>
      <trkpt lat="43.36088" lon="5.76015">
        <ele>494.26</ele>
        <time>2019-01-06T12:44:33Z</time>
      </trkpt>
      <trkpt lat="43.361" lon="5.76016">
        <ele>494.74</ele>
        <time>2019-01-06T12:44:45Z</time>
      </trkpt>
      <trkpt lat="43.36108" lon="5.76016">
        <ele>495.22</ele>
        <time>2019-01-06T12:44:56Z</time>
      </trkpt>
      <trkpt lat="43.36113" lon="5.76013">
        <ele>495.7</ele>
        <time>2019-01-06T12:45:02Z</time>
      </trkpt>
      <trkpt lat="43.36118" lon="5.76015">
        <ele>495.7</ele>
        <time>2019-01-06T12:45:06Z</time>
      </trkpt>
      <trkpt lat="43.36122" lon="5.76015">
        <ele>496.18</ele>
        <time>2019-01-06T12:45:11Z</time>
      </trkpt>
      <trkpt lat="43.36129" lon="5.76013">
        <ele>497.14</ele>
        <time>2019-01-06T12:45:20Z</time>
      </trkpt>
      <trkpt lat="43.36127" lon="5.75995">
        <ele>497.14</ele>
        <time>2019-01-06T12:45:39Z</time>
      </trkpt>
      <trkpt lat="43.36126" lon="5.75983">
        <ele>495.7</ele>
        <time>2019-01-06T12:46:01Z</time>
      </trkpt>
      <trkpt lat="43.36126" lon="5.75982">
        <ele>495.7</ele>
        <time>2019-01-06T12:46:20Z</time>
      </trkpt>
      <trkpt lat="43.36127" lon="5.75989">
        <ele>495.7</ele>
        <time>2019-01-06T12:46:41Z</time>
      </trkpt>
      <trkpt lat="43.36129" lon="5.75993">
        <ele>497.14</ele>
        <time>2019-01-06T12:46:45Z</time>
      </trkpt>
      <trkpt lat="43.36128" lon="5.76007">
        <ele>497.14</ele>
        <time>2019-01-06T12:47:13Z</time>
      </trkpt>
      <trkpt lat="43.36129" lon="5.76011">
        <ele>498.1</ele>
        <time>2019-01-06T12:47:39Z</time>
      </trkpt>
      <trkpt lat="43.36132" lon="5.76019">
        <ele>498.1</ele>
        <time>2019-01-06T12:47:58Z</time>
      </trkpt>
      <trkpt lat="43.36133" lon="5.76019">
        <ele>500.02</ele>
        <time>2019-01-06T12:48:01Z</time>
      </trkpt>
      <trkpt lat="43.36137" lon="5.76022">
        <ele>498.58</ele>
        <time>2019-01-06T12:48:04Z</time>
      </trkpt>
      <trkpt lat="43.36139" lon="5.76023">
        <ele>498.58</ele>
        <time>2019-01-06T12:48:05Z</time>
      </trkpt>
      <trkpt lat="43.36147" lon="5.76028">
        <ele>499.54</ele>
        <time>2019-01-06T12:48:13Z</time>
      </trkpt>
      <trkpt lat="43.36149" lon="5.76031">
        <ele>500.98</ele>
        <time>2019-01-06T12:48:18Z</time>
      </trkpt>
      <trkpt lat="43.3615" lon="5.76038">
        <ele>501.46</ele>
        <time>2019-01-06T12:48:24Z</time>
      </trkpt>
      <trkpt lat="43.36155" lon="5.76057">
        <ele>501.95</ele>
        <time>2019-01-06T12:48:37Z</time>
      </trkpt>
      <trkpt lat="43.36157" lon="5.76069">
        <ele>502.43</ele>
        <time>2019-01-06T12:48:48Z</time>
      </trkpt>
      <trkpt lat="43.36158" lon="5.76072">
        <ele>502.43</ele>
        <time>2019-01-06T12:48:50Z</time>
      </trkpt>
      <trkpt lat="43.36159" lon="5.76074">
        <ele>502.43</ele>
        <time>2019-01-06T12:48:51Z</time>
      </trkpt>
      <trkpt lat="43.36161" lon="5.7608">
        <ele>502.43</ele>
        <time>2019-01-06T12:48:56Z</time>
      </trkpt>
      <trkpt lat="43.36162" lon="5.76082">
        <ele>502.91</ele>
        <time>2019-01-06T12:48:57Z</time>
      </trkpt>
      <trkpt lat="43.36166" lon="5.76092">
        <ele>504.35</ele>
        <time>2019-01-06T12:49:03Z</time>
      </trkpt>
      <trkpt lat="43.36178" lon="5.76106">
        <ele>504.83</ele>
        <time>2019-01-06T12:49:23Z</time>
      </trkpt>
      <trkpt lat="43.36191" lon="5.76118">
        <ele>506.27</ele>
        <time>2019-01-06T12:49:45Z</time>
      </trkpt>
      <trkpt lat="43.36205" lon="5.76147">
        <ele>508.67</ele>
        <time>2019-01-06T12:50:04Z</time>
      </trkpt>
      <trkpt lat="43.36207" lon="5.76152">
        <ele>508.67</ele>
        <time>2019-01-06T12:50:05Z</time>
      </trkpt>
      <trkpt lat="43.3621" lon="5.76163">
        <ele>508.67</ele>
        <time>2019-01-06T12:50:11Z</time>
      </trkpt>
      <trkpt lat="43.36218" lon="5.76177">
        <ele>509.64</ele>
        <time>2019-01-06T12:50:25Z</time>
      </trkpt>
      <trkpt lat="43.3622" lon="5.76179">
        <ele>509.64</ele>
        <time>2019-01-06T12:50:36Z</time>
      </trkpt>
      <trkpt lat="43.36219" lon="5.76185">
        <ele>510.12</ele>
        <time>2019-01-06T12:50:52Z</time>
      </trkpt>
      <trkpt lat="43.3622" lon="5.76183">
        <ele>510.12</ele>
        <time>2019-01-06T12:51:05Z</time>
      </trkpt>
      <trkpt lat="43.36219" lon="5.7618">
        <ele>509.16</ele>
        <time>2019-01-06T12:51:13Z</time>
      </trkpt>
      <trkpt lat="43.36218" lon="5.76178">
        <ele>509.16</ele>
        <time>2019-01-06T12:51:14Z</time>
      </trkpt>
      <trkpt lat="43.36215" lon="5.76175">
        <ele>509.16</ele>
        <time>2019-01-06T12:51:23Z</time>
      </trkpt>
      <trkpt lat="43.36217" lon="5.76172">
        <ele>508.67</ele>
        <time>2019-01-06T12:51:35Z</time>
      </trkpt>
      <trkpt lat="43.3622" lon="5.76176">
        <ele>508.67</ele>
        <time>2019-01-06T12:51:39Z</time>
      </trkpt>
      <trkpt lat="43.36221" lon="5.76177">
        <ele>508.67</ele>
        <time>2019-01-06T12:51:40Z</time>
      </trkpt>
      <trkpt lat="43.36222" lon="5.76179">
        <ele>508.67</ele>
        <time>2019-01-06T12:51:41Z</time>
      </trkpt>
      <trkpt lat="43.36227" lon="5.76184">
        <ele>508.19</ele>
        <time>2019-01-06T12:51:49Z</time>
      </trkpt>
      <trkpt lat="43.36225" lon="5.76184">
        <ele>508.19</ele>
        <time>2019-01-06T12:52:01Z</time>
      </trkpt>
      <trkpt lat="43.36223" lon="5.76185">
        <ele>508.19</ele>
        <time>2019-01-06T12:52:02Z</time>
      </trkpt>
      <trkpt lat="43.3622" lon="5.7619">
        <ele>509.64</ele>
        <time>2019-01-06T12:52:09Z</time>
      </trkpt>
      <trkpt lat="43.3622" lon="5.7619">
        <ele>509.64</ele>
        <time>2019-01-06T12:52:10Z</time>
      </trkpt>
      <trkpt lat="43.36225" lon="5.76201">
        <ele>510.6</ele>
        <time>2019-01-06T12:52:24Z</time>
      </trkpt>
      <trkpt lat="43.36225" lon="5.76201">
        <ele>510.6</ele>
        <time>2019-01-06T12:52:40Z</time>
      </trkpt>
      <trkpt lat="43.36226" lon="5.76208">
        <ele>511.08</ele>
        <time>2019-01-06T12:52:55Z</time>
      </trkpt>
      <trkpt lat="43.36233" lon="5.76218">
        <ele>511.08</ele>
        <time>2019-01-06T12:53:15Z</time>
      </trkpt>
      <trkpt lat="43.3624" lon="5.76229">
        <ele>511.08</ele>
        <time>2019-01-06T12:53:27Z</time>
      </trkpt>
      <trkpt lat="43.36242" lon="5.76231">
        <ele>509.64</ele>
        <time>2019-01-06T12:53:29Z</time>
      </trkpt>
      <trkpt lat="43.36246" lon="5.76242">
        <ele>509.64</ele>
        <time>2019-01-06T12:53:40Z</time>
      </trkpt>
      <trkpt lat="43.36248" lon="5.76244">
        <ele>509.64</ele>
        <time>2019-01-06T12:53:43Z</time>
      </trkpt>
      <trkpt lat="43.36248" lon="5.76245">
        <ele>509.16</ele>
        <time>2019-01-06T12:53:44Z</time>
      </trkpt>
      <trkpt lat="43.3625" lon="5.76251">
        <ele>509.16</ele>
        <time>2019-01-06T12:53:50Z</time>
      </trkpt>
      <trkpt lat="43.36251" lon="5.76256">
        <ele>509.16</ele>
        <time>2019-01-06T12:54:02Z</time>
      </trkpt>
      <trkpt lat="43.36256" lon="5.76274">
        <ele>509.16</ele>
        <time>2019-01-06T12:54:19Z</time>
      </trkpt>
      <trkpt lat="43.36258" lon="5.76281">
        <ele>509.16</ele>
        <time>2019-01-06T12:54:25Z</time>
      </trkpt>
      <trkpt lat="43.3626" lon="5.76285">
        <ele>509.16</ele>
        <time>2019-01-06T12:54:28Z</time>
      </trkpt>
      <trkpt lat="43.3626" lon="5.76287">
        <ele>509.16</ele>
        <time>2019-01-06T12:54:29Z</time>
      </trkpt>
      <trkpt lat="43.36263" lon="5.76303">
        <ele>509.16</ele>
        <time>2019-01-06T12:54:41Z</time>
      </trkpt>
      <trkpt lat="43.36268" lon="5.76316">
        <ele>509.16</ele>
        <time>2019-01-06T12:54:51Z</time>
      </trkpt>
      <trkpt lat="43.36273" lon="5.76331">
        <ele>509.16</ele>
        <time>2019-01-06T12:55:00Z</time>
      </trkpt>
      <trkpt lat="43.3628" lon="5.76345">
        <ele>510.6</ele>
        <time>2019-01-06T12:55:10Z</time>
      </trkpt>
      <trkpt lat="43.36285" lon="5.76353">
        <ele>510.12</ele>
        <time>2019-01-06T12:55:19Z</time>
      </trkpt>
      <trkpt lat="43.36287" lon="5.76356">
        <ele>510.12</ele>
        <time>2019-01-06T12:55:22Z</time>
      </trkpt>
      <trkpt lat="43.36288" lon="5.76357">
        <ele>510.12</ele>
        <time>2019-01-06T12:55:23Z</time>
      </trkpt>
      <trkpt lat="43.36294" lon="5.7637">
        <ele>510.12</ele>
        <time>2019-01-06T12:55:34Z</time>
      </trkpt>
      <trkpt lat="43.36297" lon="5.76374">
        <ele>510.12</ele>
        <time>2019-01-06T12:55:38Z</time>
      </trkpt>
      <trkpt lat="43.36297" lon="5.76376">
        <ele>510.12</ele>
        <time>2019-01-06T12:55:39Z</time>
      </trkpt>
      <trkpt lat="43.36298" lon="5.76378">
        <ele>510.12</ele>
        <time>2019-01-06T12:55:40Z</time>
      </trkpt>
      <trkpt lat="43.36299" lon="5.7638">
        <ele>510.12</ele>
        <time>2019-01-06T12:55:41Z</time>
      </trkpt>
      <trkpt lat="43.36305" lon="5.76393">
        <ele>510.12</ele>
        <time>2019-01-06T12:55:50Z</time>
      </trkpt>
      <trkpt lat="43.36304" lon="5.76395">
        <ele>510.12</ele>
        <time>2019-01-06T12:55:53Z</time>
      </trkpt>
      <trkpt lat="43.36305" lon="5.76396">
        <ele>510.6</ele>
        <time>2019-01-06T12:55:54Z</time>
      </trkpt>
      <trkpt lat="43.36308" lon="5.76404">
        <ele>510.6</ele>
        <time>2019-01-06T12:55:59Z</time>
      </trkpt>
      <trkpt lat="43.36309" lon="5.76405">
        <ele>510.6</ele>
        <time>2019-01-06T12:56:00Z</time>
      </trkpt>
      <trkpt lat="43.36311" lon="5.76411">
        <ele>510.6</ele>
        <time>2019-01-06T12:56:05Z</time>
      </trkpt>
      <trkpt lat="43.36313" lon="5.76417">
        <ele>510.6</ele>
        <time>2019-01-06T12:56:10Z</time>
      </trkpt>
      <trkpt lat="43.36314" lon="5.76418">
        <ele>510.6</ele>
        <time>2019-01-06T12:56:11Z</time>
      </trkpt>
      <trkpt lat="43.36318" lon="5.76428">
        <ele>509.64</ele>
        <time>2019-01-06T12:56:18Z</time>
      </trkpt>
      <trkpt lat="43.36317" lon="5.76429">
        <ele>509.64</ele>
        <time>2019-01-06T12:56:21Z</time>
      </trkpt>
      <trkpt lat="43.36319" lon="5.76439">
        <ele>508.67</ele>
        <time>2019-01-06T12:56:31Z</time>
      </trkpt>
      <trkpt lat="43.36319" lon="5.76442">
        <ele>508.19</ele>
        <time>2019-01-06T12:56:32Z</time>
      </trkpt>
      <trkpt lat="43.36319" lon="5.76444">
        <ele>508.19</ele>
        <time>2019-01-06T12:56:33Z</time>
      </trkpt>
      <trkpt lat="43.36322" lon="5.76452">
        <ele>508.19</ele>
        <time>2019-01-06T12:56:40Z</time>
      </trkpt>
      <trkpt lat="43.36327" lon="5.76459">
        <ele>507.23</ele>
        <time>2019-01-06T12:56:48Z</time>
      </trkpt>
      <trkpt lat="43.36329" lon="5.7646">
        <ele>507.23</ele>
        <time>2019-01-06T12:56:49Z</time>
      </trkpt>
      <trkpt lat="43.36331" lon="5.76461">
        <ele>507.23</ele>
        <time>2019-01-06T12:56:50Z</time>
      </trkpt>
      <trkpt lat="43.36332" lon="5.76462">
        <ele>507.23</ele>
        <time>2019-01-06T12:56:51Z</time>
      </trkpt>
      <trkpt lat="43.36334" lon="5.76462">
        <ele>507.23</ele>
        <time>2019-01-06T12:56:52Z</time>
      </trkpt>
      <trkpt lat="43.36337" lon="5.76465">
        <ele>507.23</ele>
        <time>2019-01-06T12:56:57Z</time>
      </trkpt>
      <trkpt lat="43.36339" lon="5.76468">
        <ele>507.23</ele>
        <time>2019-01-06T12:56:59Z</time>
      </trkpt>
      <trkpt lat="43.36343" lon="5.7647">
        <ele>507.23</ele>
        <time>2019-01-06T12:57:04Z</time>
      </trkpt>
      <trkpt lat="43.36344" lon="5.76471">
        <ele>507.23</ele>
        <time>2019-01-06T12:57:05Z</time>
      </trkpt>
      <trkpt lat="43.36357" lon="5.76475">
        <ele>509.64</ele>
        <time>2019-01-06T12:57:16Z</time>
      </trkpt>
      <trkpt lat="43.3636" lon="5.76475">
        <ele>510.12</ele>
        <time>2019-01-06T12:57:20Z</time>
      </trkpt>
      <trkpt lat="43.36361" lon="5.76475">
        <ele>510.12</ele>
        <time>2019-01-06T12:57:21Z</time>
      </trkpt>
      <trkpt lat="43.36365" lon="5.76473">
        <ele>510.6</ele>
        <time>2019-01-06T12:57:25Z</time>
      </trkpt>
      <trkpt lat="43.36366" lon="5.76472">
        <ele>511.08</ele>
        <time>2019-01-06T12:57:26Z</time>
      </trkpt>
      <trkpt lat="43.36369" lon="5.76472">
        <ele>511.56</ele>
        <time>2019-01-06T12:57:29Z</time>
      </trkpt>
      <trkpt lat="43.36374" lon="5.76474">
        <ele>511.56</ele>
        <time>2019-01-06T12:57:34Z</time>
      </trkpt>
      <trkpt lat="43.36376" lon="5.76474">
        <ele>512.52</ele>
        <time>2019-01-06T12:57:36Z</time>
      </trkpt>
      <trkpt lat="43.36378" lon="5.76475">
        <ele>512.52</ele>
        <time>2019-01-06T12:57:38Z</time>
      </trkpt>
      <trkpt lat="43.36379" lon="5.76476">
        <ele>512.52</ele>
        <time>2019-01-06T12:57:39Z</time>
      </trkpt>
      <trkpt lat="43.36381" lon="5.76477">
        <ele>512.52</ele>
        <time>2019-01-06T12:57:40Z</time>
      </trkpt>
      <trkpt lat="43.36383" lon="5.76479">
        <ele>512.52</ele>
        <time>2019-01-06T12:57:43Z</time>
      </trkpt>
      <trkpt lat="43.36387" lon="5.76483">
        <ele>513</ele>
        <time>2019-01-06T12:57:53Z</time>
      </trkpt>
      <trkpt lat="43.36389" lon="5.76485">
        <ele>513</ele>
        <time>2019-01-06T12:58:00Z</time>
      </trkpt>
      <trkpt lat="43.36391" lon="5.76489">
        <ele>513</ele>
        <time>2019-01-06T12:58:04Z</time>
      </trkpt>
      <trkpt lat="43.36398" lon="5.76497">
        <ele>511.56</ele>
        <time>2019-01-06T12:58:15Z</time>
      </trkpt>
      <trkpt lat="43.36399" lon="5.76498">
        <ele>513</ele>
        <time>2019-01-06T12:58:17Z</time>
      </trkpt>
      <trkpt lat="43.36405" lon="5.76507">
        <ele>512.52</ele>
        <time>2019-01-06T12:58:30Z</time>
      </trkpt>
      <trkpt lat="43.36413" lon="5.76513">
        <ele>513.48</ele>
        <time>2019-01-06T12:58:37Z</time>
      </trkpt>
      <trkpt lat="43.36418" lon="5.76521">
        <ele>513.48</ele>
        <time>2019-01-06T12:58:43Z</time>
      </trkpt>
      <trkpt lat="43.36431" lon="5.7654">
        <ele>513.48</ele>
        <time>2019-01-06T12:58:57Z</time>
      </trkpt>
      <trkpt lat="43.36433" lon="5.76543">
        <ele>512.52</ele>
        <time>2019-01-06T12:59:02Z</time>
      </trkpt>
      <trkpt lat="43.36435" lon="5.76544">
        <ele>512.04</ele>
        <time>2019-01-06T12:59:03Z</time>
      </trkpt>
      <trkpt lat="43.36437" lon="5.76546">
        <ele>511.56</ele>
        <time>2019-01-06T12:59:07Z</time>
      </trkpt>
      <trkpt lat="43.3644" lon="5.76546">
        <ele>511.56</ele>
        <time>2019-01-06T12:59:08Z</time>
      </trkpt>
      <trkpt lat="43.36443" lon="5.76547">
        <ele>511.08</ele>
        <time>2019-01-06T12:59:12Z</time>
      </trkpt>
      <trkpt lat="43.36445" lon="5.76548">
        <ele>511.08</ele>
        <time>2019-01-06T12:59:13Z</time>
      </trkpt>
      <trkpt lat="43.36446" lon="5.76549">
        <ele>511.08</ele>
        <time>2019-01-06T12:59:14Z</time>
      </trkpt>
      <trkpt lat="43.36448" lon="5.76551">
        <ele>510.6</ele>
        <time>2019-01-06T12:59:18Z</time>
      </trkpt>
      <trkpt lat="43.36449" lon="5.76553">
        <ele>510.6</ele>
        <time>2019-01-06T12:59:19Z</time>
      </trkpt>
      <trkpt lat="43.36452" lon="5.76556">
        <ele>510.6</ele>
        <time>2019-01-06T12:59:22Z</time>
      </trkpt>
      <trkpt lat="43.36452" lon="5.76557">
        <ele>510.6</ele>
        <time>2019-01-06T12:59:23Z</time>
      </trkpt>
      <trkpt lat="43.36454" lon="5.76559">
        <ele>510.6</ele>
        <time>2019-01-06T12:59:25Z</time>
      </trkpt>
      <trkpt lat="43.3646" lon="5.76567">
        <ele>510.6</ele>
        <time>2019-01-06T12:59:33Z</time>
      </trkpt>
      <trkpt lat="43.36467" lon="5.76578">
        <ele>510.6</ele>
        <time>2019-01-06T12:59:45Z</time>
      </trkpt>
      <trkpt lat="43.36477" lon="5.76591">
        <ele>510.6</ele>
        <time>2019-01-06T13:00:03Z</time>
      </trkpt>
      <trkpt lat="43.36483" lon="5.76599">
        <ele>510.6</ele>
        <time>2019-01-06T13:00:11Z</time>
      </trkpt>
      <trkpt lat="43.36483" lon="5.766">
        <ele>510.6</ele>
        <time>2019-01-06T13:00:12Z</time>
      </trkpt>
      <trkpt lat="43.36493" lon="5.76612">
        <ele>511.56</ele>
        <time>2019-01-06T13:00:25Z</time>
      </trkpt>
      <trkpt lat="43.36495" lon="5.76615">
        <ele>511.56</ele>
        <time>2019-01-06T13:00:28Z</time>
      </trkpt>
      <trkpt lat="43.36496" lon="5.76616">
        <ele>511.56</ele>
        <time>2019-01-06T13:00:29Z</time>
      </trkpt>
      <trkpt lat="43.36497" lon="5.76618">
        <ele>511.56</ele>
        <time>2019-01-06T13:00:30Z</time>
      </trkpt>
      <trkpt lat="43.365" lon="5.76621">
        <ele>511.56</ele>
        <time>2019-01-06T13:00:35Z</time>
      </trkpt>
      <trkpt lat="43.36503" lon="5.76625">
        <ele>511.56</ele>
        <time>2019-01-06T13:00:40Z</time>
      </trkpt>
      <trkpt lat="43.36506" lon="5.76631">
        <ele>510.12</ele>
        <time>2019-01-06T13:00:45Z</time>
      </trkpt>
      <trkpt lat="43.36507" lon="5.76633">
        <ele>510.12</ele>
        <time>2019-01-06T13:00:46Z</time>
      </trkpt>
      <trkpt lat="43.36509" lon="5.76636">
        <ele>510.12</ele>
        <time>2019-01-06T13:00:50Z</time>
      </trkpt>
      <trkpt lat="43.36509" lon="5.76638">
        <ele>510.12</ele>
        <time>2019-01-06T13:00:51Z</time>
      </trkpt>
      <trkpt lat="43.36513" lon="5.76654">
        <ele>510.12</ele>
        <time>2019-01-06T13:01:04Z</time>
      </trkpt>
      <trkpt lat="43.36515" lon="5.76669">
        <ele>510.12</ele>
        <time>2019-01-06T13:01:18Z</time>
      </trkpt>
      <trkpt lat="43.36521" lon="5.76687">
        <ele>508.67</ele>
        <time>2019-01-06T13:01:33Z</time>
      </trkpt>
      <trkpt lat="43.36526" lon="5.76701">
        <ele>508.19</ele>
        <time>2019-01-06T13:01:44Z</time>
      </trkpt>
      <trkpt lat="43.3653" lon="5.76714">
        <ele>507.23</ele>
        <time>2019-01-06T13:01:57Z</time>
      </trkpt>
      <trkpt lat="43.36531" lon="5.76735">
        <ele>506.27</ele>
        <time>2019-01-06T13:02:12Z</time>
      </trkpt>
      <trkpt lat="43.36531" lon="5.76754">
        <ele>505.79</ele>
        <time>2019-01-06T13:02:26Z</time>
      </trkpt>
      <trkpt lat="43.36528" lon="5.76769">
        <ele>505.79</ele>
        <time>2019-01-06T13:02:39Z</time>
      </trkpt>
      <trkpt lat="43.36531" lon="5.76797">
        <ele>503.87</ele>
        <time>2019-01-06T13:03:01Z</time>
      </trkpt>
      <trkpt lat="43.36539" lon="5.7682">
        <ele>502.43</ele>
        <time>2019-01-06T13:03:19Z</time>
      </trkpt>
      <trkpt lat="43.36544" lon="5.76843">
        <ele>502.43</ele>
        <time>2019-01-06T13:03:37Z</time>
      </trkpt>
      <trkpt lat="43.36544" lon="5.76851">
        <ele>502.43</ele>
        <time>2019-01-06T13:03:40Z</time>
      </trkpt>
      <trkpt lat="43.36544" lon="5.76855">
        <ele>502.43</ele>
        <time>2019-01-06T13:03:41Z</time>
      </trkpt>
      <trkpt lat="43.36551" lon="5.76878">
        <ele>504.83</ele>
        <time>2019-01-06T13:03:57Z</time>
      </trkpt>
      <trkpt lat="43.36554" lon="5.76894">
        <ele>504.83</ele>
        <time>2019-01-06T13:04:08Z</time>
      </trkpt>
      <trkpt lat="43.36555" lon="5.76914">
        <ele>504.83</ele>
        <time>2019-01-06T13:04:24Z</time>
      </trkpt>
      <trkpt lat="43.36557" lon="5.76936">
        <ele>505.31</ele>
        <time>2019-01-06T13:04:38Z</time>
      </trkpt>
      <trkpt lat="43.36558" lon="5.7695">
        <ele>505.79</ele>
        <time>2019-01-06T13:04:50Z</time>
      </trkpt>
      <trkpt lat="43.36558" lon="5.76952">
        <ele>505.79</ele>
        <time>2019-01-06T13:04:51Z</time>
      </trkpt>
      <trkpt lat="43.36558" lon="5.76954">
        <ele>505.79</ele>
        <time>2019-01-06T13:04:52Z</time>
      </trkpt>
      <trkpt lat="43.36562" lon="5.76963">
        <ele>504.83</ele>
        <time>2019-01-06T13:04:58Z</time>
      </trkpt>
      <trkpt lat="43.36566" lon="5.76981">
        <ele>504.35</ele>
        <time>2019-01-06T13:05:11Z</time>
      </trkpt>
      <trkpt lat="43.36576" lon="5.77">
        <ele>504.35</ele>
        <time>2019-01-06T13:05:25Z</time>
      </trkpt>
      <trkpt lat="43.36577" lon="5.77001">
        <ele>504.35</ele>
        <time>2019-01-06T13:05:26Z</time>
      </trkpt>
      <trkpt lat="43.36577" lon="5.77003">
        <ele>504.35</ele>
        <time>2019-01-06T13:05:27Z</time>
      </trkpt>
      <trkpt lat="43.36585" lon="5.77019">
        <ele>503.39</ele>
        <time>2019-01-06T13:05:42Z</time>
      </trkpt>
      <trkpt lat="43.36586" lon="5.77021">
        <ele>502.91</ele>
        <time>2019-01-06T13:05:43Z</time>
      </trkpt>
      <trkpt lat="43.3659" lon="5.77028">
        <ele>503.39</ele>
        <time>2019-01-06T13:05:49Z</time>
      </trkpt>
      <trkpt lat="43.36591" lon="5.7703">
        <ele>502.91</ele>
        <time>2019-01-06T13:05:50Z</time>
      </trkpt>
      <trkpt lat="43.36593" lon="5.77032">
        <ele>502.91</ele>
        <time>2019-01-06T13:05:51Z</time>
      </trkpt>
      <trkpt lat="43.36595" lon="5.77034">
        <ele>502.91</ele>
        <time>2019-01-06T13:05:52Z</time>
      </trkpt>
      <trkpt lat="43.36596" lon="5.77036">
        <ele>502.91</ele>
        <time>2019-01-06T13:05:53Z</time>
      </trkpt>
      <trkpt lat="43.36604" lon="5.77044">
        <ele>502.91</ele>
        <time>2019-01-06T13:06:02Z</time>
      </trkpt>
      <trkpt lat="43.36605" lon="5.77053">
        <ele>502.43</ele>
        <time>2019-01-06T13:06:11Z</time>
      </trkpt>
      <trkpt lat="43.36605" lon="5.77063">
        <ele>500.5</ele>
        <time>2019-01-06T13:06:20Z</time>
      </trkpt>
      <trkpt lat="43.36608" lon="5.77075">
        <ele>499.54</ele>
        <time>2019-01-06T13:06:29Z</time>
      </trkpt>
      <trkpt lat="43.36608" lon="5.77077">
        <ele>499.06</ele>
        <time>2019-01-06T13:06:30Z</time>
      </trkpt>
      <trkpt lat="43.3661" lon="5.77086">
        <ele>498.58</ele>
        <time>2019-01-06T13:06:34Z</time>
      </trkpt>
      <trkpt lat="43.3661" lon="5.77092">
        <ele>498.58</ele>
        <time>2019-01-06T13:06:45Z</time>
      </trkpt>
      <trkpt lat="43.36614" lon="5.77097">
        <ele>497.62</ele>
        <time>2019-01-06T13:06:55Z</time>
      </trkpt>
      <trkpt lat="43.36615" lon="5.77099">
        <ele>497.62</ele>
        <time>2019-01-06T13:06:56Z</time>
      </trkpt>
      <trkpt lat="43.36616" lon="5.77101">
        <ele>497.14</ele>
        <time>2019-01-06T13:06:57Z</time>
      </trkpt>
      <trkpt lat="43.36618" lon="5.77103">
        <ele>497.14</ele>
        <time>2019-01-06T13:06:58Z</time>
      </trkpt>
      <trkpt lat="43.36619" lon="5.77105">
        <ele>497.14</ele>
        <time>2019-01-06T13:06:59Z</time>
      </trkpt>
      <trkpt lat="43.36627" lon="5.77117">
        <ele>495.7</ele>
        <time>2019-01-06T13:07:10Z</time>
      </trkpt>
      <trkpt lat="43.36633" lon="5.77131">
        <ele>494.74</ele>
        <time>2019-01-06T13:07:23Z</time>
      </trkpt>
      <trkpt lat="43.36631" lon="5.77133">
        <ele>493.77</ele>
        <time>2019-01-06T13:07:26Z</time>
      </trkpt>
      <trkpt lat="43.36625" lon="5.77146">
        <ele>490.41</ele>
        <time>2019-01-06T13:07:39Z</time>
      </trkpt>
      <trkpt lat="43.36631" lon="5.77159">
        <ele>488.97</ele>
        <time>2019-01-06T13:07:53Z</time>
      </trkpt>
      <trkpt lat="43.36632" lon="5.77165">
        <ele>488.49</ele>
        <time>2019-01-06T13:07:57Z</time>
      </trkpt>
      <trkpt lat="43.3663" lon="5.77183">
        <ele>487.05</ele>
        <time>2019-01-06T13:08:14Z</time>
      </trkpt>
      <trkpt lat="43.36626" lon="5.77186">
        <ele>486.56</ele>
        <time>2019-01-06T13:08:19Z</time>
      </trkpt>
      <trkpt lat="43.3662" lon="5.7719">
        <ele>486.08</ele>
        <time>2019-01-06T13:08:26Z</time>
      </trkpt>
      <trkpt lat="43.36612" lon="5.772">
        <ele>486.08</ele>
        <time>2019-01-06T13:08:39Z</time>
      </trkpt>
      <trkpt lat="43.36613" lon="5.77201">
        <ele>486.08</ele>
        <time>2019-01-06T13:08:46Z</time>
      </trkpt>
      <trkpt lat="43.36613" lon="5.77203">
        <ele>486.08</ele>
        <time>2019-01-06T13:08:47Z</time>
      </trkpt>
      <trkpt lat="43.36614" lon="5.77206">
        <ele>485.6</ele>
        <time>2019-01-06T13:08:52Z</time>
      </trkpt>
      <trkpt lat="43.36614" lon="5.77213">
        <ele>485.12</ele>
        <time>2019-01-06T13:08:57Z</time>
      </trkpt>
      <trkpt lat="43.36615" lon="5.77224">
        <ele>484.64</ele>
        <time>2019-01-06T13:09:06Z</time>
      </trkpt>
      <trkpt lat="43.36615" lon="5.77229">
        <ele>484.64</ele>
        <time>2019-01-06T13:09:09Z</time>
      </trkpt>
      <trkpt lat="43.36617" lon="5.77243">
        <ele>483.68</ele>
        <time>2019-01-06T13:09:21Z</time>
      </trkpt>
      <trkpt lat="43.3662" lon="5.77261">
        <ele>482.72</ele>
        <time>2019-01-06T13:09:40Z</time>
      </trkpt>
      <trkpt lat="43.36621" lon="5.7728">
        <ele>480.8</ele>
        <time>2019-01-06T13:09:57Z</time>
      </trkpt>
      <trkpt lat="43.3662" lon="5.77302">
        <ele>479.35</ele>
        <time>2019-01-06T13:10:14Z</time>
      </trkpt>
      <trkpt lat="43.36621" lon="5.77304">
        <ele>479.35</ele>
        <time>2019-01-06T13:10:15Z</time>
      </trkpt>
      <trkpt lat="43.3662" lon="5.77321">
        <ele>476.95</ele>
        <time>2019-01-06T13:10:31Z</time>
      </trkpt>
      <trkpt lat="43.36621" lon="5.77335">
        <ele>476.47</ele>
        <time>2019-01-06T13:10:39Z</time>
      </trkpt>
      <trkpt lat="43.36628" lon="5.7735">
        <ele>475.51</ele>
        <time>2019-01-06T13:10:51Z</time>
      </trkpt>
      <trkpt lat="43.36629" lon="5.77356">
        <ele>475.03</ele>
        <time>2019-01-06T13:10:54Z</time>
      </trkpt>
      <trkpt lat="43.3663" lon="5.77358">
        <ele>475.03</ele>
        <time>2019-01-06T13:10:55Z</time>
      </trkpt>
      <trkpt lat="43.3663" lon="5.7736">
        <ele>475.03</ele>
        <time>2019-01-06T13:10:56Z</time>
      </trkpt>
      <trkpt lat="43.36632" lon="5.77383">
        <ele>474.07</ele>
        <time>2019-01-06T13:11:12Z</time>
      </trkpt>
      <trkpt lat="43.36632" lon="5.77399">
        <ele>473.11</ele>
        <time>2019-01-06T13:11:27Z</time>
      </trkpt>
      <trkpt lat="43.36637" lon="5.77417">
        <ele>472.14</ele>
        <time>2019-01-06T13:11:42Z</time>
      </trkpt>
      <trkpt lat="43.36642" lon="5.77433">
        <ele>471.18</ele>
        <time>2019-01-06T13:11:58Z</time>
      </trkpt>
      <trkpt lat="43.36649" lon="5.77448">
        <ele>470.22</ele>
        <time>2019-01-06T13:12:17Z</time>
      </trkpt>
      <trkpt lat="43.36656" lon="5.77453">
        <ele>468.3</ele>
        <time>2019-01-06T13:12:30Z</time>
      </trkpt>
      <trkpt lat="43.36659" lon="5.77465">
        <ele>468.3</ele>
        <time>2019-01-06T13:12:47Z</time>
      </trkpt>
      <trkpt lat="43.36664" lon="5.77488">
        <ele>466.86</ele>
        <time>2019-01-06T13:13:02Z</time>
      </trkpt>
      <trkpt lat="43.36674" lon="5.77502">
        <ele>464.93</ele>
        <time>2019-01-06T13:13:16Z</time>
      </trkpt>
      <trkpt lat="43.36684" lon="5.77514">
        <ele>463.01</ele>
        <time>2019-01-06T13:13:32Z</time>
      </trkpt>
      <trkpt lat="43.36689" lon="5.77518">
        <ele>462.53</ele>
        <time>2019-01-06T13:13:49Z</time>
      </trkpt>
      <trkpt lat="43.36688" lon="5.77518">
        <ele>462.05</ele>
        <time>2019-01-06T13:13:56Z</time>
      </trkpt>
      <trkpt lat="43.36684" lon="5.7752">
        <ele>462.53</ele>
        <time>2019-01-06T13:14:06Z</time>
      </trkpt>
      <trkpt lat="43.36681" lon="5.77536">
        <ele>462.53</ele>
        <time>2019-01-06T13:14:22Z</time>
      </trkpt>
      <trkpt lat="43.36677" lon="5.77552">
        <ele>462.53</ele>
        <time>2019-01-06T13:14:33Z</time>
      </trkpt>
      <trkpt lat="43.36668" lon="5.77562">
        <ele>462.53</ele>
        <time>2019-01-06T13:14:45Z</time>
      </trkpt>
      <trkpt lat="43.36656" lon="5.77576">
        <ele>461.09</ele>
        <time>2019-01-06T13:14:58Z</time>
      </trkpt>
      <trkpt lat="43.36654" lon="5.7758">
        <ele>461.09</ele>
        <time>2019-01-06T13:15:01Z</time>
      </trkpt>
      <trkpt lat="43.36654" lon="5.77586">
        <ele>461.57</ele>
        <time>2019-01-06T13:15:06Z</time>
      </trkpt>
      <trkpt lat="43.36653" lon="5.77599">
        <ele>461.09</ele>
        <time>2019-01-06T13:15:16Z</time>
      </trkpt>
      <trkpt lat="43.36656" lon="5.77622">
        <ele>461.09</ele>
        <time>2019-01-06T13:15:30Z</time>
      </trkpt>
      <trkpt lat="43.36658" lon="5.77627">
        <ele>459.17</ele>
        <time>2019-01-06T13:15:36Z</time>
      </trkpt>
      <trkpt lat="43.36659" lon="5.77629">
        <ele>459.17</ele>
        <time>2019-01-06T13:15:37Z</time>
      </trkpt>
      <trkpt lat="43.36661" lon="5.7763">
        <ele>459.17</ele>
        <time>2019-01-06T13:15:38Z</time>
      </trkpt>
      <trkpt lat="43.36663" lon="5.77631">
        <ele>459.17</ele>
        <time>2019-01-06T13:15:39Z</time>
      </trkpt>
      <trkpt lat="43.36664" lon="5.77631">
        <ele>458.69</ele>
        <time>2019-01-06T13:15:40Z</time>
      </trkpt>
      <trkpt lat="43.36666" lon="5.77632">
        <ele>458.69</ele>
        <time>2019-01-06T13:15:41Z</time>
      </trkpt>
      <trkpt lat="43.36671" lon="5.77635">
        <ele>457.72</ele>
        <time>2019-01-06T13:15:45Z</time>
      </trkpt>
      <trkpt lat="43.36672" lon="5.77636">
        <ele>457.24</ele>
        <time>2019-01-06T13:15:46Z</time>
      </trkpt>
      <trkpt lat="43.3668" lon="5.77652">
        <ele>456.28</ele>
        <time>2019-01-06T13:15:58Z</time>
      </trkpt>
      <trkpt lat="43.3669" lon="5.77674">
        <ele>454.84</ele>
        <time>2019-01-06T13:16:14Z</time>
      </trkpt>
      <trkpt lat="43.36693" lon="5.77681">
        <ele>453.4</ele>
        <time>2019-01-06T13:16:24Z</time>
      </trkpt>
      <trkpt lat="43.367" lon="5.77693">
        <ele>451</ele>
        <time>2019-01-06T13:16:38Z</time>
      </trkpt>
      <trkpt lat="43.36715" lon="5.77703">
        <ele>447.63</ele>
        <time>2019-01-06T13:16:52Z</time>
      </trkpt>
      <trkpt lat="43.3672" lon="5.77705">
        <ele>447.15</ele>
        <time>2019-01-06T13:16:57Z</time>
      </trkpt>
      <trkpt lat="43.36728" lon="5.77708">
        <ele>445.23</ele>
        <time>2019-01-06T13:17:06Z</time>
      </trkpt>
      <trkpt lat="43.36732" lon="5.77709">
        <ele>444.27</ele>
        <time>2019-01-06T13:17:18Z</time>
      </trkpt>
      <trkpt lat="43.36734" lon="5.77714">
        <ele>443.31</ele>
        <time>2019-01-06T13:17:32Z</time>
      </trkpt>
      <trkpt lat="43.36736" lon="5.77728">
        <ele>441.86</ele>
        <time>2019-01-06T13:17:41Z</time>
      </trkpt>
      <trkpt lat="43.36738" lon="5.77738">
        <ele>441.86</ele>
        <time>2019-01-06T13:17:47Z</time>
      </trkpt>
      <trkpt lat="43.3674" lon="5.7774">
        <ele>440.42</ele>
        <time>2019-01-06T13:17:50Z</time>
      </trkpt>
      <trkpt lat="43.36744" lon="5.7774">
        <ele>439.94</ele>
        <time>2019-01-06T13:18:03Z</time>
      </trkpt>
      <trkpt lat="43.36741" lon="5.77749">
        <ele>440.9</ele>
        <time>2019-01-06T13:18:12Z</time>
      </trkpt>
      <trkpt lat="43.36741" lon="5.77752">
        <ele>440.9</ele>
        <time>2019-01-06T13:18:14Z</time>
      </trkpt>
      <trkpt lat="43.36741" lon="5.77766">
        <ele>439.46</ele>
        <time>2019-01-06T13:18:27Z</time>
      </trkpt>
      <trkpt lat="43.36743" lon="5.77781">
        <ele>438.98</ele>
        <time>2019-01-06T13:18:40Z</time>
      </trkpt>
      <trkpt lat="43.36744" lon="5.77798">
        <ele>437.54</ele>
        <time>2019-01-06T13:18:51Z</time>
      </trkpt>
      <trkpt lat="43.36744" lon="5.77801">
        <ele>438.02</ele>
        <time>2019-01-06T13:18:55Z</time>
      </trkpt>
      <trkpt lat="43.36748" lon="5.77811">
        <ele>437.06</ele>
        <time>2019-01-06T13:19:02Z</time>
      </trkpt>
      <trkpt lat="43.36756" lon="5.77825">
        <ele>435.13</ele>
        <time>2019-01-06T13:19:14Z</time>
      </trkpt>
      <trkpt lat="43.36759" lon="5.77829">
        <ele>434.65</ele>
        <time>2019-01-06T13:19:18Z</time>
      </trkpt>
      <trkpt lat="43.36764" lon="5.77839">
        <ele>434.17</ele>
        <time>2019-01-06T13:19:26Z</time>
      </trkpt>
      <trkpt lat="43.36769" lon="5.77853">
        <ele>433.69</ele>
        <time>2019-01-06T13:19:38Z</time>
      </trkpt>
      <trkpt lat="43.36772" lon="5.77866">
        <ele>432.25</ele>
        <time>2019-01-06T13:19:48Z</time>
      </trkpt>
      <trkpt lat="43.36773" lon="5.77873">
        <ele>431.77</ele>
        <time>2019-01-06T13:19:53Z</time>
      </trkpt>
      <trkpt lat="43.36782" lon="5.77887">
        <ele>429.37</ele>
        <time>2019-01-06T13:20:08Z</time>
      </trkpt>
      <trkpt lat="43.36791" lon="5.77902">
        <ele>426</ele>
        <time>2019-01-06T13:20:28Z</time>
      </trkpt>
      <trkpt lat="43.36797" lon="5.77927">
        <ele>423.6</ele>
        <time>2019-01-06T13:20:48Z</time>
      </trkpt>
      <trkpt lat="43.36796" lon="5.77939">
        <ele>420.71</ele>
        <time>2019-01-06T13:21:05Z</time>
      </trkpt>
      <trkpt lat="43.36801" lon="5.77951">
        <ele>417.83</ele>
        <time>2019-01-06T13:21:20Z</time>
      </trkpt>
      <trkpt lat="43.36818" lon="5.77961">
        <ele>414.95</ele>
        <time>2019-01-06T13:21:38Z</time>
      </trkpt>
      <trkpt lat="43.36826" lon="5.77979">
        <ele>413.5</ele>
        <time>2019-01-06T13:21:54Z</time>
      </trkpt>
      <trkpt lat="43.36837" lon="5.78">
        <ele>411.1</ele>
        <time>2019-01-06T13:22:13Z</time>
      </trkpt>
      <trkpt lat="43.36846" lon="5.78016">
        <ele>410.14</ele>
        <time>2019-01-06T13:22:28Z</time>
      </trkpt>
      <trkpt lat="43.36852" lon="5.78027">
        <ele>408.7</ele>
        <time>2019-01-06T13:22:44Z</time>
      </trkpt>
      <trkpt lat="43.36853" lon="5.78032">
        <ele>408.22</ele>
        <time>2019-01-06T13:22:47Z</time>
      </trkpt>
      <trkpt lat="43.36862" lon="5.7805">
        <ele>405.81</ele>
        <time>2019-01-06T13:23:07Z</time>
      </trkpt>
      <trkpt lat="43.36862" lon="5.78066">
        <ele>404.85</ele>
        <time>2019-01-06T13:23:20Z</time>
      </trkpt>
      <trkpt lat="43.36854" lon="5.78078">
        <ele>404.37</ele>
        <time>2019-01-06T13:23:29Z</time>
      </trkpt>
      <trkpt lat="43.36837" lon="5.78097">
        <ele>404.37</ele>
        <time>2019-01-06T13:23:49Z</time>
      </trkpt>
      <trkpt lat="43.36824" lon="5.78108">
        <ele>405.81</ele>
        <time>2019-01-06T13:24:05Z</time>
      </trkpt>
      <trkpt lat="43.36805" lon="5.7811">
        <ele>406.77</ele>
        <time>2019-01-06T13:24:24Z</time>
      </trkpt>
      <trkpt lat="43.36798" lon="5.7811">
        <ele>406.77</ele>
        <time>2019-01-06T13:24:32Z</time>
      </trkpt>
      <trkpt lat="43.36772" lon="5.78105">
        <ele>407.26</ele>
        <time>2019-01-06T13:24:55Z</time>
      </trkpt>
      <trkpt lat="43.36746" lon="5.78102">
        <ele>407.74</ele>
        <time>2019-01-06T13:25:16Z</time>
      </trkpt>
      <trkpt lat="43.36719" lon="5.78099">
        <ele>408.22</ele>
        <time>2019-01-06T13:25:36Z</time>
      </trkpt>
      <trkpt lat="43.36702" lon="5.78093">
        <ele>408.7</ele>
        <time>2019-01-06T13:25:54Z</time>
      </trkpt>
      <trkpt lat="43.36679" lon="5.78079">
        <ele>410.62</ele>
        <time>2019-01-06T13:26:15Z</time>
      </trkpt>
      <trkpt lat="43.36662" lon="5.78071">
        <ele>411.58</ele>
        <time>2019-01-06T13:26:36Z</time>
      </trkpt>
      <trkpt lat="43.36646" lon="5.78075">
        <ele>413.5</ele>
        <time>2019-01-06T13:26:56Z</time>
      </trkpt>
      <trkpt lat="43.36623" lon="5.78073">
        <ele>413.98</ele>
        <time>2019-01-06T13:27:16Z</time>
      </trkpt>
      <trkpt lat="43.36601" lon="5.78072">
        <ele>414.47</ele>
        <time>2019-01-06T13:27:35Z</time>
      </trkpt>
      <trkpt lat="43.36595" lon="5.78072">
        <ele>414.95</ele>
        <time>2019-01-06T13:27:48Z</time>
      </trkpt>
      <trkpt lat="43.36589" lon="5.78073">
        <ele>414.95</ele>
        <time>2019-01-06T13:27:53Z</time>
      </trkpt>
      <trkpt lat="43.36579" lon="5.78065">
        <ele>414.95</ele>
        <time>2019-01-06T13:28:03Z</time>
      </trkpt>
      <trkpt lat="43.36574" lon="5.78053">
        <ele>415.43</ele>
        <time>2019-01-06T13:28:05Z</time>
      </trkpt>
      <trkpt lat="43.36553" lon="5.78038">
        <ele>415.91</ele>
        <time>2019-01-06T13:28:24Z</time>
      </trkpt>
      <trkpt lat="43.3655" lon="5.78036">
        <ele>416.39</ele>
        <time>2019-01-06T13:28:27Z</time>
      </trkpt>
      <trkpt lat="43.36542" lon="5.7803">
        <ele>416.39</ele>
        <time>2019-01-06T13:28:37Z</time>
      </trkpt>
      <trkpt lat="43.36537" lon="5.78026">
        <ele>417.35</ele>
        <time>2019-01-06T13:28:44Z</time>
      </trkpt>
      <trkpt lat="43.36532" lon="5.7802">
        <ele>417.83</ele>
        <time>2019-01-06T13:28:51Z</time>
      </trkpt>
      <trkpt lat="43.3653" lon="5.78017">
        <ele>417.83</ele>
        <time>2019-01-06T13:28:54Z</time>
      </trkpt>
      <trkpt lat="43.36528" lon="5.78015">
        <ele>417.83</ele>
        <time>2019-01-06T13:28:57Z</time>
      </trkpt>
      <trkpt lat="43.36522" lon="5.78009">
        <ele>418.79</ele>
        <time>2019-01-06T13:29:05Z</time>
      </trkpt>
      <trkpt lat="43.3652" lon="5.78007">
        <ele>419.27</ele>
        <time>2019-01-06T13:29:08Z</time>
      </trkpt>
      <trkpt lat="43.3651" lon="5.77996">
        <ele>421.19</ele>
        <time>2019-01-06T13:29:30Z</time>
      </trkpt>
      <trkpt lat="43.36501" lon="5.77993">
        <ele>424.56</ele>
        <time>2019-01-06T13:29:46Z</time>
      </trkpt>
      <trkpt lat="43.36499" lon="5.77992">
        <ele>424.56</ele>
        <time>2019-01-06T13:29:48Z</time>
      </trkpt>
      <trkpt lat="43.36485" lon="5.77974">
        <ele>426</ele>
        <time>2019-01-06T13:30:09Z</time>
      </trkpt>
      <trkpt lat="43.36477" lon="5.77955">
        <ele>428.4</ele>
        <time>2019-01-06T13:30:28Z</time>
      </trkpt>
      <trkpt lat="43.36467" lon="5.77954">
        <ele>429.37</ele>
        <time>2019-01-06T13:30:46Z</time>
      </trkpt>
      <trkpt lat="43.36455" lon="5.77955">
        <ele>430.81</ele>
        <time>2019-01-06T13:31:03Z</time>
      </trkpt>
      <trkpt lat="43.36443" lon="5.77941">
        <ele>434.17</ele>
        <time>2019-01-06T13:31:22Z</time>
      </trkpt>
      <trkpt lat="43.36436" lon="5.77934">
        <ele>434.17</ele>
        <time>2019-01-06T13:31:31Z</time>
      </trkpt>
      <trkpt lat="43.36415" lon="5.77916">
        <ele>435.13</ele>
        <time>2019-01-06T13:31:44Z</time>
      </trkpt>
      <trkpt lat="43.36404" lon="5.77903">
        <ele>436.58</ele>
        <time>2019-01-06T13:31:59Z</time>
      </trkpt>
      <trkpt lat="43.36394" lon="5.77892">
        <ele>437.06</ele>
        <time>2019-01-06T13:32:15Z</time>
      </trkpt>
      <trkpt lat="43.36384" lon="5.77884">
        <ele>438.02</ele>
        <time>2019-01-06T13:32:30Z</time>
      </trkpt>
      <trkpt lat="43.36378" lon="5.77881">
        <ele>438.5</ele>
        <time>2019-01-06T13:32:39Z</time>
      </trkpt>
      <trkpt lat="43.36374" lon="5.77878">
        <ele>438.98</ele>
        <time>2019-01-06T13:32:44Z</time>
      </trkpt>
      <trkpt lat="43.36361" lon="5.77865">
        <ele>439.94</ele>
        <time>2019-01-06T13:33:00Z</time>
      </trkpt>
      <trkpt lat="43.36353" lon="5.77856">
        <ele>439.94</ele>
        <time>2019-01-06T13:33:09Z</time>
      </trkpt>
      <trkpt lat="43.36349" lon="5.77854">
        <ele>439.94</ele>
        <time>2019-01-06T13:33:12Z</time>
      </trkpt>
      <trkpt lat="43.36348" lon="5.77852">
        <ele>439.94</ele>
        <time>2019-01-06T13:33:13Z</time>
      </trkpt>
      <trkpt lat="43.36345" lon="5.77849">
        <ele>439.94</ele>
        <time>2019-01-06T13:33:18Z</time>
      </trkpt>
      <trkpt lat="43.36343" lon="5.77848">
        <ele>439.94</ele>
        <time>2019-01-06T13:33:19Z</time>
      </trkpt>
      <trkpt lat="43.36338" lon="5.77845">
        <ele>439.94</ele>
        <time>2019-01-06T13:33:24Z</time>
      </trkpt>
      <trkpt lat="43.36337" lon="5.77844">
        <ele>439.94</ele>
        <time>2019-01-06T13:33:25Z</time>
      </trkpt>
      <trkpt lat="43.3633" lon="5.77842">
        <ele>439.94</ele>
        <time>2019-01-06T13:33:33Z</time>
      </trkpt>
      <trkpt lat="43.36329" lon="5.77843">
        <ele>439.94</ele>
        <time>2019-01-06T13:33:34Z</time>
      </trkpt>
      <trkpt lat="43.36327" lon="5.77844">
        <ele>439.94</ele>
        <time>2019-01-06T13:33:36Z</time>
      </trkpt>
      <trkpt lat="43.36326" lon="5.77843">
        <ele>439.94</ele>
        <time>2019-01-06T13:33:37Z</time>
      </trkpt>
      <trkpt lat="43.36315" lon="5.7784">
        <ele>440.42</ele>
        <time>2019-01-06T13:33:50Z</time>
      </trkpt>
      <trkpt lat="43.36305" lon="5.77839">
        <ele>440.9</ele>
        <time>2019-01-06T13:34:00Z</time>
      </trkpt>
      <trkpt lat="43.36302" lon="5.77839">
        <ele>440.9</ele>
        <time>2019-01-06T13:34:02Z</time>
      </trkpt>
      <trkpt lat="43.363" lon="5.77839">
        <ele>440.9</ele>
        <time>2019-01-06T13:34:04Z</time>
      </trkpt>
      <trkpt lat="43.36299" lon="5.77839">
        <ele>440.9</ele>
        <time>2019-01-06T13:34:05Z</time>
      </trkpt>
      <trkpt lat="43.36298" lon="5.77838">
        <ele>440.9</ele>
        <time>2019-01-06T13:34:06Z</time>
      </trkpt>
      <trkpt lat="43.36296" lon="5.77838">
        <ele>440.9</ele>
        <time>2019-01-06T13:34:07Z</time>
      </trkpt>
      <trkpt lat="43.36295" lon="5.77838">
        <ele>440.9</ele>
        <time>2019-01-06T13:34:08Z</time>
      </trkpt>
      <trkpt lat="43.36283" lon="5.77839">
        <ele>441.86</ele>
        <time>2019-01-06T13:34:20Z</time>
      </trkpt>
      <trkpt lat="43.36269" lon="5.77841">
        <ele>441.86</ele>
        <time>2019-01-06T13:34:36Z</time>
      </trkpt>
      <trkpt lat="43.36266" lon="5.77842">
        <ele>441.86</ele>
        <time>2019-01-06T13:34:40Z</time>
      </trkpt>
      <trkpt lat="43.36265" lon="5.77843">
        <ele>441.86</ele>
        <time>2019-01-06T13:34:41Z</time>
      </trkpt>
      <trkpt lat="43.36262" lon="5.77843">
        <ele>441.86</ele>
        <time>2019-01-06T13:34:44Z</time>
      </trkpt>
      <trkpt lat="43.36261" lon="5.77844">
        <ele>441.86</ele>
        <time>2019-01-06T13:34:45Z</time>
      </trkpt>
      <trkpt lat="43.36259" lon="5.77844">
        <ele>441.86</ele>
        <time>2019-01-06T13:34:46Z</time>
      </trkpt>
      <trkpt lat="43.36248" lon="5.77847">
        <ele>442.82</ele>
        <time>2019-01-06T13:34:58Z</time>
      </trkpt>
      <trkpt lat="43.36237" lon="5.77847">
        <ele>442.82</ele>
        <time>2019-01-06T13:35:11Z</time>
      </trkpt>
      <trkpt lat="43.36234" lon="5.77846">
        <ele>442.82</ele>
        <time>2019-01-06T13:35:34Z</time>
      </trkpt>
      <trkpt lat="43.36233" lon="5.77849">
        <ele>442.82</ele>
        <time>2019-01-06T13:35:42Z</time>
      </trkpt>
      <trkpt lat="43.36216" lon="5.77857">
        <ele>442.82</ele>
        <time>2019-01-06T13:36:26Z</time>
      </trkpt>
      <trkpt lat="43.36209" lon="5.77867">
        <ele>441.86</ele>
        <time>2019-01-06T13:36:39Z</time>
      </trkpt>
      <trkpt lat="43.36196" lon="5.77869">
        <ele>441.38</ele>
        <time>2019-01-06T13:36:51Z</time>
      </trkpt>
      <trkpt lat="43.36185" lon="5.77869">
        <ele>441.38</ele>
        <time>2019-01-06T13:37:04Z</time>
      </trkpt>
      <trkpt lat="43.36181" lon="5.77871">
        <ele>441.38</ele>
        <time>2019-01-06T13:37:08Z</time>
      </trkpt>
      <trkpt lat="43.36174" lon="5.77874">
        <ele>441.38</ele>
        <time>2019-01-06T13:37:17Z</time>
      </trkpt>
      <trkpt lat="43.36168" lon="5.77876">
        <ele>443.31</ele>
        <time>2019-01-06T13:37:23Z</time>
      </trkpt>
      <trkpt lat="43.36153" lon="5.77878">
        <ele>443.31</ele>
        <time>2019-01-06T13:37:37Z</time>
      </trkpt>
      <trkpt lat="43.36136" lon="5.77887">
        <ele>443.31</ele>
        <time>2019-01-06T13:37:59Z</time>
      </trkpt>
      <trkpt lat="43.36135" lon="5.77887">
        <ele>443.31</ele>
        <time>2019-01-06T13:38:00Z</time>
      </trkpt>
      <trkpt lat="43.36125" lon="5.779">
        <ele>441.86</ele>
        <time>2019-01-06T13:38:20Z</time>
      </trkpt>
      <trkpt lat="43.36112" lon="5.77908">
        <ele>439.46</ele>
        <time>2019-01-06T13:38:43Z</time>
      </trkpt>
      <trkpt lat="43.36097" lon="5.77911">
        <ele>437.54</ele>
        <time>2019-01-06T13:39:01Z</time>
      </trkpt>
      <trkpt lat="43.36074" lon="5.77907">
        <ele>435.13</ele>
        <time>2019-01-06T13:39:22Z</time>
      </trkpt>
      <trkpt lat="43.36066" lon="5.77896">
        <ele>433.69</ele>
        <time>2019-01-06T13:39:41Z</time>
      </trkpt>
      <trkpt lat="43.36047" lon="5.77876">
        <ele>432.25</ele>
        <time>2019-01-06T13:40:07Z</time>
      </trkpt>
      <trkpt lat="43.36035" lon="5.77855">
        <ele>430.33</ele>
        <time>2019-01-06T13:40:29Z</time>
      </trkpt>
      <trkpt lat="43.36018" lon="5.77847">
        <ele>427.92</ele>
        <time>2019-01-06T13:40:51Z</time>
      </trkpt>
      <trkpt lat="43.36008" lon="5.77842">
        <ele>426.48</ele>
        <time>2019-01-06T13:41:10Z</time>
      </trkpt>
      <trkpt lat="43.36003" lon="5.77821">
        <ele>426.48</ele>
        <time>2019-01-06T13:41:29Z</time>
      </trkpt>
      <trkpt lat="43.3599" lon="5.77804">
        <ele>426.48</ele>
        <time>2019-01-06T13:41:50Z</time>
      </trkpt>
      <trkpt lat="43.3598" lon="5.77796">
        <ele>426.48</ele>
        <time>2019-01-06T13:42:10Z</time>
      </trkpt>
      <trkpt lat="43.35971" lon="5.77787">
        <ele>426.48</ele>
        <time>2019-01-06T13:42:29Z</time>
      </trkpt>
      <trkpt lat="43.35952" lon="5.77772">
        <ele>426</ele>
        <time>2019-01-06T13:42:49Z</time>
      </trkpt>
      <trkpt lat="43.35939" lon="5.77762">
        <ele>426</ele>
        <time>2019-01-06T13:43:05Z</time>
      </trkpt>
      <trkpt lat="43.3592" lon="5.77752">
        <ele>426</ele>
        <time>2019-01-06T13:43:21Z</time>
      </trkpt>
      <trkpt lat="43.35905" lon="5.77742">
        <ele>425.04</ele>
        <time>2019-01-06T13:43:40Z</time>
      </trkpt>
      <trkpt lat="43.35888" lon="5.77729">
        <ele>423.6</ele>
        <time>2019-01-06T13:44:00Z</time>
      </trkpt>
      <trkpt lat="43.35871" lon="5.77726">
        <ele>423.6</ele>
        <time>2019-01-06T13:44:19Z</time>
      </trkpt>
      <trkpt lat="43.3586" lon="5.77727">
        <ele>423.6</ele>
        <time>2019-01-06T13:44:38Z</time>
      </trkpt>
      <trkpt lat="43.35857" lon="5.77723">
        <ele>423.6</ele>
        <time>2019-01-06T13:44:55Z</time>
      </trkpt>
      <trkpt lat="43.35848" lon="5.77722">
        <ele>423.6</ele>
        <time>2019-01-06T13:45:09Z</time>
      </trkpt>
      <trkpt lat="43.35845" lon="5.77721">
        <ele>423.6</ele>
        <time>2019-01-06T13:45:12Z</time>
      </trkpt>
      <trkpt lat="43.35826" lon="5.77716">
        <ele>423.6</ele>
        <time>2019-01-06T13:45:30Z</time>
      </trkpt>
      <trkpt lat="43.35816" lon="5.77712">
        <ele>423.12</ele>
        <time>2019-01-06T13:45:48Z</time>
      </trkpt>
      <trkpt lat="43.35801" lon="5.77711">
        <ele>423.6</ele>
        <time>2019-01-06T13:46:05Z</time>
      </trkpt>
      <trkpt lat="43.35791" lon="5.77709">
        <ele>423.6</ele>
        <time>2019-01-06T13:46:22Z</time>
      </trkpt>
      <trkpt lat="43.35788" lon="5.77707">
        <ele>424.08</ele>
        <time>2019-01-06T13:46:34Z</time>
      </trkpt>
      <trkpt lat="43.35774" lon="5.77708">
        <ele>424.56</ele>
        <time>2019-01-06T13:46:54Z</time>
      </trkpt>
      <trkpt lat="43.35762" lon="5.77703">
        <ele>426</ele>
        <time>2019-01-06T13:47:14Z</time>
      </trkpt>
      <trkpt lat="43.35743" lon="5.77698">
        <ele>427.44</ele>
        <time>2019-01-06T13:47:34Z</time>
      </trkpt>
      <trkpt lat="43.35732" lon="5.77696">
        <ele>426</ele>
        <time>2019-01-06T13:47:44Z</time>
      </trkpt>
      <trkpt lat="43.35721" lon="5.77702">
        <ele>424.08</ele>
        <time>2019-01-06T13:48:06Z</time>
      </trkpt>
      <trkpt lat="43.35711" lon="5.77705">
        <ele>422.64</ele>
        <time>2019-01-06T13:48:27Z</time>
      </trkpt>
      <trkpt lat="43.35701" lon="5.77713">
        <ele>421.68</ele>
        <time>2019-01-06T13:48:38Z</time>
      </trkpt>
      <trkpt lat="43.35696" lon="5.77728">
        <ele>420.23</ele>
        <time>2019-01-06T13:48:54Z</time>
      </trkpt>
      <trkpt lat="43.3569" lon="5.77758">
        <ele>419.75</ele>
        <time>2019-01-06T13:49:15Z</time>
      </trkpt>
      <trkpt lat="43.35677" lon="5.77772">
        <ele>419.27</ele>
        <time>2019-01-06T13:49:35Z</time>
      </trkpt>
      <trkpt lat="43.35654" lon="5.7777">
        <ele>419.75</ele>
        <time>2019-01-06T13:49:53Z</time>
      </trkpt>
      <trkpt lat="43.35647" lon="5.77768">
        <ele>420.71</ele>
        <time>2019-01-06T13:49:55Z</time>
      </trkpt>
      <trkpt lat="43.35639" lon="5.77763">
        <ele>420.71</ele>
        <time>2019-01-06T13:50:00Z</time>
      </trkpt>
      <trkpt lat="43.35628" lon="5.77759">
        <ele>419.75</ele>
        <time>2019-01-06T13:50:15Z</time>
      </trkpt>
      <trkpt lat="43.35613" lon="5.77747">
        <ele>419.75</ele>
        <time>2019-01-06T13:50:32Z</time>
      </trkpt>
      <trkpt lat="43.35604" lon="5.77744">
        <ele>419.75</ele>
        <time>2019-01-06T13:50:41Z</time>
      </trkpt>
      <trkpt lat="43.35604" lon="5.77743">
        <ele>419.75</ele>
        <time>2019-01-06T13:50:43Z</time>
      </trkpt>
      <trkpt lat="43.35595" lon="5.77735">
        <ele>418.79</ele>
        <time>2019-01-06T13:50:52Z</time>
      </trkpt>
      <trkpt lat="43.3559" lon="5.77733">
        <ele>417.83</ele>
        <time>2019-01-06T13:51:02Z</time>
      </trkpt>
      <trkpt lat="43.3558" lon="5.77734">
        <ele>416.87</ele>
        <time>2019-01-06T13:51:14Z</time>
      </trkpt>
      <trkpt lat="43.35578" lon="5.77733">
        <ele>416.87</ele>
        <time>2019-01-06T13:51:15Z</time>
      </trkpt>
      <trkpt lat="43.35564" lon="5.77719">
        <ele>416.39</ele>
        <time>2019-01-06T13:51:35Z</time>
      </trkpt>
      <trkpt lat="43.35554" lon="5.77719">
        <ele>415.43</ele>
        <time>2019-01-06T13:51:51Z</time>
      </trkpt>
      <trkpt lat="43.35531" lon="5.77715">
        <ele>417.35</ele>
        <time>2019-01-06T13:52:09Z</time>
      </trkpt>
      <trkpt lat="43.35518" lon="5.77728">
        <ele>417.35</ele>
        <time>2019-01-06T13:52:30Z</time>
      </trkpt>
      <trkpt lat="43.35511" lon="5.77733">
        <ele>416.39</ele>
        <time>2019-01-06T13:52:39Z</time>
      </trkpt>
      <trkpt lat="43.355" lon="5.77739">
        <ele>415.91</ele>
        <time>2019-01-06T13:52:54Z</time>
      </trkpt>
      <trkpt lat="43.35489" lon="5.77736">
        <ele>415.43</ele>
        <time>2019-01-06T13:53:13Z</time>
      </trkpt>
    </trkseg>
  </trk>
  <trk>
    <name><![CDATA[SOURCE_HUVEAUNNE_2]]></name>
    <trkseg>
      <trkpt lat="43.36634" lon="5.78065">
        <ele>434</ele>
        <time>2019-01-04T13:24:23Z</time>
      </trkpt>
      <trkpt lat="43.36634" lon="5.78065">
        <ele>430</ele>
        <time>2019-01-04T13:24:40Z</time>
      </trkpt>
      <trkpt lat="43.36632" lon="5.7806">
        <ele>425</ele>
        <time>2019-01-04T13:24:44Z</time>
      </trkpt>
      <trkpt lat="43.36632" lon="5.78065">
        <ele>419</ele>
        <time>2019-01-04T13:25:10Z</time>
      </trkpt>
      <trkpt lat="43.36637" lon="5.78067">
        <ele>425</ele>
        <time>2019-01-04T13:25:14Z</time>
      </trkpt>
      <trkpt lat="43.36644" lon="5.78063">
        <ele>424</ele>
        <time>2019-01-04T13:25:15Z</time>
      </trkpt>
      <trkpt lat="43.36649" lon="5.78064">
        <ele>422</ele>
        <time>2019-01-04T13:25:40Z</time>
      </trkpt>
      <trkpt lat="43.36632" lon="5.78067">
        <ele>420</ele>
        <time>2019-01-04T13:25:44Z</time>
      </trkpt>
      <trkpt lat="43.36642" lon="5.78072">
        <ele>424</ele>
        <time>2019-01-04T13:25:45Z</time>
      </trkpt>
      <trkpt lat="43.36642" lon="5.78069">
        <ele>425</ele>
        <time>2019-01-04T13:26:10Z</time>
      </trkpt>
      <trkpt lat="43.36639" lon="5.78071">
        <ele>433</ele>
        <time>2019-01-04T13:26:14Z</time>
      </trkpt>
      <trkpt lat="43.36642" lon="5.78066">
        <ele>437</ele>
        <time>2019-01-04T13:26:21Z</time>
      </trkpt>
      <trkpt lat="43.36646" lon="5.7807">
        <ele>442</ele>
        <time>2019-01-04T13:26:35Z</time>
      </trkpt>
      <trkpt lat="43.36651" lon="5.78071">
        <ele>442</ele>
        <time>2019-01-04T13:26:40Z</time>
      </trkpt>
      <trkpt lat="43.36655" lon="5.78074">
        <ele>440</ele>
        <time>2019-01-04T13:26:47Z</time>
      </trkpt>
      <trkpt lat="43.3666" lon="5.78074">
        <ele>435</ele>
        <time>2019-01-04T13:26:52Z</time>
      </trkpt>
      <trkpt lat="43.36665" lon="5.78073">
        <ele>432</ele>
        <time>2019-01-04T13:26:58Z</time>
      </trkpt>
      <trkpt lat="43.36669" lon="5.78075">
        <ele>430</ele>
        <time>2019-01-04T13:27:05Z</time>
      </trkpt>
      <trkpt lat="43.36675" lon="5.78077">
        <ele>429</ele>
        <time>2019-01-04T13:27:12Z</time>
      </trkpt>
      <trkpt lat="43.36679" lon="5.78079">
        <ele>429</ele>
        <time>2019-01-04T13:27:17Z</time>
      </trkpt>
      <trkpt lat="43.36684" lon="5.78081">
        <ele>428</ele>
        <time>2019-01-04T13:27:23Z</time>
      </trkpt>
      <trkpt lat="43.36688" lon="5.78084">
        <ele>428</ele>
        <time>2019-01-04T13:27:28Z</time>
      </trkpt>
      <trkpt lat="43.36693" lon="5.78087">
        <ele>428</ele>
        <time>2019-01-04T13:27:33Z</time>
      </trkpt>
      <trkpt lat="43.36697" lon="5.78089">
        <ele>427</ele>
        <time>2019-01-04T13:27:37Z</time>
      </trkpt>
      <trkpt lat="43.36702" lon="5.78091">
        <ele>427</ele>
        <time>2019-01-04T13:27:42Z</time>
      </trkpt>
      <trkpt lat="43.36707" lon="5.78094">
        <ele>426</ele>
        <time>2019-01-04T13:27:48Z</time>
      </trkpt>
      <trkpt lat="43.36712" lon="5.78096">
        <ele>426</ele>
        <time>2019-01-04T13:27:54Z</time>
      </trkpt>
      <trkpt lat="43.36717" lon="5.78097">
        <ele>425</ele>
        <time>2019-01-04T13:28:02Z</time>
      </trkpt>
      <trkpt lat="43.36712" lon="5.78097">
        <ele>424</ele>
        <time>2019-01-04T13:28:19Z</time>
      </trkpt>
      <trkpt lat="43.36707" lon="5.78095">
        <ele>424</ele>
        <time>2019-01-04T13:28:24Z</time>
      </trkpt>
      <trkpt lat="43.36702" lon="5.78091">
        <ele>424</ele>
        <time>2019-01-04T13:28:30Z</time>
      </trkpt>
      <trkpt lat="43.36697" lon="5.78088">
        <ele>424</ele>
        <time>2019-01-04T13:28:36Z</time>
      </trkpt>
      <trkpt lat="43.36693" lon="5.78087">
        <ele>424</ele>
        <time>2019-01-04T13:28:41Z</time>
      </trkpt>
      <trkpt lat="43.36689" lon="5.78083">
        <ele>424</ele>
        <time>2019-01-04T13:28:47Z</time>
      </trkpt>
      <trkpt lat="43.36684" lon="5.7808">
        <ele>424</ele>
        <time>2019-01-04T13:28:52Z</time>
      </trkpt>
      <trkpt lat="43.36678" lon="5.78078">
        <ele>425</ele>
        <time>2019-01-04T13:28:57Z</time>
      </trkpt>
      <trkpt lat="43.36673" lon="5.78077">
        <ele>426</ele>
        <time>2019-01-04T13:29:02Z</time>
      </trkpt>
      <trkpt lat="43.36668" lon="5.78075">
        <ele>426</ele>
        <time>2019-01-04T13:29:07Z</time>
      </trkpt>
      <trkpt lat="43.36663" lon="5.78074">
        <ele>427</ele>
        <time>2019-01-04T13:29:12Z</time>
      </trkpt>
      <trkpt lat="43.36657" lon="5.78073">
        <ele>427</ele>
        <time>2019-01-04T13:29:17Z</time>
      </trkpt>
      <trkpt lat="43.36652" lon="5.78072">
        <ele>427</ele>
        <time>2019-01-04T13:29:22Z</time>
      </trkpt>
      <trkpt lat="43.36647" lon="5.78072">
        <ele>427</ele>
        <time>2019-01-04T13:29:27Z</time>
      </trkpt>
      <trkpt lat="43.36642" lon="5.78069">
        <ele>428</ele>
        <time>2019-01-04T13:29:32Z</time>
      </trkpt>
      <trkpt lat="43.36637" lon="5.78067">
        <ele>427</ele>
        <time>2019-01-04T13:29:40Z</time>
      </trkpt>
      <trkpt lat="43.36632" lon="5.78068">
        <ele>427</ele>
        <time>2019-01-04T13:29:46Z</time>
      </trkpt>
      <trkpt lat="43.36626" lon="5.78067">
        <ele>427</ele>
        <time>2019-01-04T13:29:51Z</time>
      </trkpt>
      <trkpt lat="43.36622" lon="5.78067">
        <ele>427</ele>
        <time>2019-01-04T13:29:57Z</time>
      </trkpt>
      <trkpt lat="43.36617" lon="5.78069">
        <ele>427</ele>
        <time>2019-01-04T13:30:02Z</time>
      </trkpt>
      <trkpt lat="43.36612" lon="5.78069">
        <ele>427</ele>
        <time>2019-01-04T13:30:07Z</time>
      </trkpt>
      <trkpt lat="43.36606" lon="5.78068">
        <ele>427</ele>
        <time>2019-01-04T13:30:12Z</time>
      </trkpt>
      <trkpt lat="43.36601" lon="5.78067">
        <ele>427</ele>
        <time>2019-01-04T13:30:17Z</time>
      </trkpt>
      <trkpt lat="43.36596" lon="5.78066">
        <ele>427</ele>
        <time>2019-01-04T13:30:22Z</time>
      </trkpt>
      <trkpt lat="43.36591" lon="5.78065">
        <ele>428</ele>
        <time>2019-01-04T13:30:28Z</time>
      </trkpt>
      <trkpt lat="43.36586" lon="5.78064">
        <ele>428</ele>
        <time>2019-01-04T13:30:34Z</time>
      </trkpt>
      <trkpt lat="43.36581" lon="5.78061">
        <ele>428</ele>
        <time>2019-01-04T13:30:38Z</time>
      </trkpt>
      <trkpt lat="43.36576" lon="5.78058">
        <ele>429</ele>
        <time>2019-01-04T13:30:42Z</time>
      </trkpt>
      <trkpt lat="43.36572" lon="5.78055">
        <ele>430</ele>
        <time>2019-01-04T13:30:46Z</time>
      </trkpt>
      <trkpt lat="43.36567" lon="5.78052">
        <ele>431</ele>
        <time>2019-01-04T13:30:50Z</time>
      </trkpt>
      <trkpt lat="43.36562" lon="5.7805">
        <ele>431</ele>
        <time>2019-01-04T13:30:53Z</time>
      </trkpt>
      <trkpt lat="43.36558" lon="5.78046">
        <ele>432</ele>
        <time>2019-01-04T13:30:57Z</time>
      </trkpt>
      <trkpt lat="43.36553" lon="5.78044">
        <ele>433</ele>
        <time>2019-01-04T13:31:01Z</time>
      </trkpt>
      <trkpt lat="43.36548" lon="5.78042">
        <ele>433</ele>
        <time>2019-01-04T13:31:05Z</time>
      </trkpt>
      <trkpt lat="43.36545" lon="5.78037">
        <ele>433</ele>
        <time>2019-01-04T13:31:08Z</time>
      </trkpt>
      <trkpt lat="43.36541" lon="5.78032">
        <ele>433</ele>
        <time>2019-01-04T13:31:12Z</time>
      </trkpt>
      <trkpt lat="43.36537" lon="5.78027">
        <ele>434</ele>
        <time>2019-01-04T13:31:18Z</time>
      </trkpt>
      <trkpt lat="43.36533" lon="5.78025">
        <ele>434</ele>
        <time>2019-01-04T13:31:21Z</time>
      </trkpt>
      <trkpt lat="43.36529" lon="5.78022">
        <ele>434</ele>
        <time>2019-01-04T13:31:26Z</time>
      </trkpt>
      <trkpt lat="43.36526" lon="5.78016">
        <ele>436</ele>
        <time>2019-01-04T13:31:33Z</time>
      </trkpt>
      <trkpt lat="43.36522" lon="5.78012">
        <ele>436</ele>
        <time>2019-01-04T13:31:38Z</time>
      </trkpt>
      <trkpt lat="43.36518" lon="5.78007">
        <ele>438</ele>
        <time>2019-01-04T13:31:43Z</time>
      </trkpt>
      <trkpt lat="43.36514" lon="5.78005">
        <ele>439</ele>
        <time>2019-01-04T13:31:47Z</time>
      </trkpt>
      <trkpt lat="43.36509" lon="5.78">
        <ele>441</ele>
        <time>2019-01-04T13:31:52Z</time>
      </trkpt>
      <trkpt lat="43.36505" lon="5.77995">
        <ele>442</ele>
        <time>2019-01-04T13:31:56Z</time>
      </trkpt>
      <trkpt lat="43.36503" lon="5.77989">
        <ele>443</ele>
        <time>2019-01-04T13:32:00Z</time>
      </trkpt>
      <trkpt lat="43.365" lon="5.77983">
        <ele>443</ele>
        <time>2019-01-04T13:32:05Z</time>
      </trkpt>
      <trkpt lat="43.36495" lon="5.7798">
        <ele>444</ele>
        <time>2019-01-04T13:32:09Z</time>
      </trkpt>
      <trkpt lat="43.36491" lon="5.77975">
        <ele>444</ele>
        <time>2019-01-04T13:32:14Z</time>
      </trkpt>
      <trkpt lat="43.36486" lon="5.77972">
        <ele>445</ele>
        <time>2019-01-04T13:32:19Z</time>
      </trkpt>
      <trkpt lat="43.36482" lon="5.77967">
        <ele>446</ele>
        <time>2019-01-04T13:32:25Z</time>
      </trkpt>
      <trkpt lat="43.36477" lon="5.77965">
        <ele>447</ele>
        <time>2019-01-04T13:32:32Z</time>
      </trkpt>
      <trkpt lat="43.36471" lon="5.77963">
        <ele>448</ele>
        <time>2019-01-04T13:32:38Z</time>
      </trkpt>
      <trkpt lat="43.36466" lon="5.77961">
        <ele>449</ele>
        <time>2019-01-04T13:32:43Z</time>
      </trkpt>
      <trkpt lat="43.36461" lon="5.77959">
        <ele>450</ele>
        <time>2019-01-04T13:32:48Z</time>
      </trkpt>
      <trkpt lat="43.36456" lon="5.77955">
        <ele>451</ele>
        <time>2019-01-04T13:32:53Z</time>
      </trkpt>
      <trkpt lat="43.36451" lon="5.77952">
        <ele>452</ele>
        <time>2019-01-04T13:32:59Z</time>
      </trkpt>
      <trkpt lat="43.36447" lon="5.77951">
        <ele>454</ele>
        <time>2019-01-04T13:33:05Z</time>
      </trkpt>
      <trkpt lat="43.36442" lon="5.77946">
        <ele>454</ele>
        <time>2019-01-04T13:33:09Z</time>
      </trkpt>
      <trkpt lat="43.36438" lon="5.77943">
        <ele>455</ele>
        <time>2019-01-04T13:33:13Z</time>
      </trkpt>
      <trkpt lat="43.36433" lon="5.7794">
        <ele>456</ele>
        <time>2019-01-04T13:33:17Z</time>
      </trkpt>
      <trkpt lat="43.36429" lon="5.77935">
        <ele>457</ele>
        <time>2019-01-04T13:33:24Z</time>
      </trkpt>
      <trkpt lat="43.36425" lon="5.77932">
        <ele>457</ele>
        <time>2019-01-04T13:33:30Z</time>
      </trkpt>
      <trkpt lat="43.36419" lon="5.77926">
        <ele>457</ele>
        <time>2019-01-04T13:33:36Z</time>
      </trkpt>
      <trkpt lat="43.36414" lon="5.77922">
        <ele>458</ele>
        <time>2019-01-04T13:33:42Z</time>
      </trkpt>
      <trkpt lat="43.36409" lon="5.7792">
        <ele>459</ele>
        <time>2019-01-04T13:33:46Z</time>
      </trkpt>
      <trkpt lat="43.36406" lon="5.77915">
        <ele>460</ele>
        <time>2019-01-04T13:33:51Z</time>
      </trkpt>
      <trkpt lat="43.36402" lon="5.77909">
        <ele>461</ele>
        <time>2019-01-04T13:33:57Z</time>
      </trkpt>
      <trkpt lat="43.36398" lon="5.77906">
        <ele>463</ele>
        <time>2019-01-04T13:34:00Z</time>
      </trkpt>
      <trkpt lat="43.36394" lon="5.77901">
        <ele>464</ele>
        <time>2019-01-04T13:34:04Z</time>
      </trkpt>
      <trkpt lat="43.36389" lon="5.77897">
        <ele>465</ele>
        <time>2019-01-04T13:34:09Z</time>
      </trkpt>
      <trkpt lat="43.36385" lon="5.77894">
        <ele>466</ele>
        <time>2019-01-04T13:34:14Z</time>
      </trkpt>
      <trkpt lat="43.36379" lon="5.77891">
        <ele>466</ele>
        <time>2019-01-04T13:34:18Z</time>
      </trkpt>
      <trkpt lat="43.36375" lon="5.77888">
        <ele>466</ele>
        <time>2019-01-04T13:34:22Z</time>
      </trkpt>
      <trkpt lat="43.36372" lon="5.77884">
        <ele>466</ele>
        <time>2019-01-04T13:34:26Z</time>
      </trkpt>
      <trkpt lat="43.36368" lon="5.77878">
        <ele>466</ele>
        <time>2019-01-04T13:34:30Z</time>
      </trkpt>
      <trkpt lat="43.36364" lon="5.77875">
        <ele>466</ele>
        <time>2019-01-04T13:34:34Z</time>
      </trkpt>
      <trkpt lat="43.36359" lon="5.7787">
        <ele>466</ele>
        <time>2019-01-04T13:34:39Z</time>
      </trkpt>
      <trkpt lat="43.36355" lon="5.77866">
        <ele>466</ele>
        <time>2019-01-04T13:34:43Z</time>
      </trkpt>
      <trkpt lat="43.36351" lon="5.77865">
        <ele>467</ele>
        <time>2019-01-04T13:34:48Z</time>
      </trkpt>
      <trkpt lat="43.36346" lon="5.77864">
        <ele>467</ele>
        <time>2019-01-04T13:34:51Z</time>
      </trkpt>
      <trkpt lat="43.36341" lon="5.77862">
        <ele>467</ele>
        <time>2019-01-04T13:34:55Z</time>
      </trkpt>
      <trkpt lat="43.36337" lon="5.77858">
        <ele>466</ele>
        <time>2019-01-04T13:35:00Z</time>
      </trkpt>
      <trkpt lat="43.36332" lon="5.77855">
        <ele>466</ele>
        <time>2019-01-04T13:35:05Z</time>
      </trkpt>
      <trkpt lat="43.36326" lon="5.77853">
        <ele>466</ele>
        <time>2019-01-04T13:35:11Z</time>
      </trkpt>
      <trkpt lat="43.36321" lon="5.77851">
        <ele>465</ele>
        <time>2019-01-04T13:35:15Z</time>
      </trkpt>
      <trkpt lat="43.36316" lon="5.7785">
        <ele>465</ele>
        <time>2019-01-04T13:35:19Z</time>
      </trkpt>
      <trkpt lat="43.36311" lon="5.77849">
        <ele>465</ele>
        <time>2019-01-04T13:35:24Z</time>
      </trkpt>
      <trkpt lat="43.36306" lon="5.77848">
        <ele>465</ele>
        <time>2019-01-04T13:35:29Z</time>
      </trkpt>
      <trkpt lat="43.36302" lon="5.77849">
        <ele>465</ele>
        <time>2019-01-04T13:35:32Z</time>
      </trkpt>
      <trkpt lat="43.36297" lon="5.77848">
        <ele>465</ele>
        <time>2019-01-04T13:35:36Z</time>
      </trkpt>
      <trkpt lat="43.36291" lon="5.77848">
        <ele>465</ele>
        <time>2019-01-04T13:35:40Z</time>
      </trkpt>
      <trkpt lat="43.36285" lon="5.77849">
        <ele>465</ele>
        <time>2019-01-04T13:35:45Z</time>
      </trkpt>
      <trkpt lat="43.3628" lon="5.77848">
        <ele>466</ele>
        <time>2019-01-04T13:35:50Z</time>
      </trkpt>
      <trkpt lat="43.36275" lon="5.77847">
        <ele>466</ele>
        <time>2019-01-04T13:35:55Z</time>
      </trkpt>
      <trkpt lat="43.36271" lon="5.77848">
        <ele>467</ele>
        <time>2019-01-04T13:35:58Z</time>
      </trkpt>
      <trkpt lat="43.36266" lon="5.77849">
        <ele>467</ele>
        <time>2019-01-04T13:36:02Z</time>
      </trkpt>
      <trkpt lat="43.3626" lon="5.7785">
        <ele>468</ele>
        <time>2019-01-04T13:36:07Z</time>
      </trkpt>
      <trkpt lat="43.36255" lon="5.77849">
        <ele>468</ele>
        <time>2019-01-04T13:36:12Z</time>
      </trkpt>
      <trkpt lat="43.36249" lon="5.7785">
        <ele>468</ele>
        <time>2019-01-04T13:36:17Z</time>
      </trkpt>
      <trkpt lat="43.36245" lon="5.77851">
        <ele>468</ele>
        <time>2019-01-04T13:36:20Z</time>
      </trkpt>
      <trkpt lat="43.36241" lon="5.77852">
        <ele>468</ele>
        <time>2019-01-04T13:36:36Z</time>
      </trkpt>
      <trkpt lat="43.36222" lon="5.77869">
        <ele>462</ele>
        <time>2019-01-04T13:36:40Z</time>
      </trkpt>
      <trkpt lat="43.36237" lon="5.77855">
        <ele>459</ele>
        <time>2019-01-04T13:36:42Z</time>
      </trkpt>
      <trkpt lat="43.36232" lon="5.77858">
        <ele>455</ele>
        <time>2019-01-04T13:37:00Z</time>
      </trkpt>
      <trkpt lat="43.36228" lon="5.77863">
        <ele>451</ele>
        <time>2019-01-04T13:37:05Z</time>
      </trkpt>
      <trkpt lat="43.36224" lon="5.77867">
        <ele>449</ele>
        <time>2019-01-04T13:37:11Z</time>
      </trkpt>
      <trkpt lat="43.36221" lon="5.77871">
        <ele>451</ele>
        <time>2019-01-04T13:37:18Z</time>
      </trkpt>
      <trkpt lat="43.36216" lon="5.77873">
        <ele>452</ele>
        <time>2019-01-04T13:37:25Z</time>
      </trkpt>
      <trkpt lat="43.36211" lon="5.77877">
        <ele>454</ele>
        <time>2019-01-04T13:37:47Z</time>
      </trkpt>
      <trkpt lat="43.36206" lon="5.77876">
        <ele>457</ele>
        <time>2019-01-04T13:37:53Z</time>
      </trkpt>
      <trkpt lat="43.36201" lon="5.77876">
        <ele>459</ele>
        <time>2019-01-04T13:37:57Z</time>
      </trkpt>
      <trkpt lat="43.36196" lon="5.77875">
        <ele>460</ele>
        <time>2019-01-04T13:38:01Z</time>
      </trkpt>
      <trkpt lat="43.3619" lon="5.77877">
        <ele>462</ele>
        <time>2019-01-04T13:38:05Z</time>
      </trkpt>
      <trkpt lat="43.36186" lon="5.77878">
        <ele>463</ele>
        <time>2019-01-04T13:38:09Z</time>
      </trkpt>
      <trkpt lat="43.3618" lon="5.77879">
        <ele>463</ele>
        <time>2019-01-04T13:38:14Z</time>
      </trkpt>
      <trkpt lat="43.36175" lon="5.7788">
        <ele>464</ele>
        <time>2019-01-04T13:38:18Z</time>
      </trkpt>
      <trkpt lat="43.36169" lon="5.77881">
        <ele>464</ele>
        <time>2019-01-04T13:38:23Z</time>
      </trkpt>
      <trkpt lat="43.36164" lon="5.77883">
        <ele>464</ele>
        <time>2019-01-04T13:38:27Z</time>
      </trkpt>
      <trkpt lat="43.3616" lon="5.77884">
        <ele>464</ele>
        <time>2019-01-04T13:38:31Z</time>
      </trkpt>
      <trkpt lat="43.36154" lon="5.77886">
        <ele>464</ele>
        <time>2019-01-04T13:38:35Z</time>
      </trkpt>
      <trkpt lat="43.3615" lon="5.7789">
        <ele>463</ele>
        <time>2019-01-04T13:38:39Z</time>
      </trkpt>
      <trkpt lat="43.36146" lon="5.77894">
        <ele>464</ele>
        <time>2019-01-04T13:38:46Z</time>
      </trkpt>
      <trkpt lat="43.36142" lon="5.77898">
        <ele>464</ele>
        <time>2019-01-04T13:38:52Z</time>
      </trkpt>
      <trkpt lat="43.36137" lon="5.77901">
        <ele>465</ele>
        <time>2019-01-04T13:38:55Z</time>
      </trkpt>
      <trkpt lat="43.36133" lon="5.77903">
        <ele>465</ele>
        <time>2019-01-04T13:38:58Z</time>
      </trkpt>
      <trkpt lat="43.36129" lon="5.77906">
        <ele>466</ele>
        <time>2019-01-04T13:39:02Z</time>
      </trkpt>
      <trkpt lat="43.36124" lon="5.77907">
        <ele>465</ele>
        <time>2019-01-04T13:39:07Z</time>
      </trkpt>
      <trkpt lat="43.3612" lon="5.7791">
        <ele>465</ele>
        <time>2019-01-04T13:39:10Z</time>
      </trkpt>
      <trkpt lat="43.36115" lon="5.77911">
        <ele>465</ele>
        <time>2019-01-04T13:39:14Z</time>
      </trkpt>
      <trkpt lat="43.36111" lon="5.77912">
        <ele>464</ele>
        <time>2019-01-04T13:39:18Z</time>
      </trkpt>
      <trkpt lat="43.36106" lon="5.77912">
        <ele>464</ele>
        <time>2019-01-04T13:39:23Z</time>
      </trkpt>
      <trkpt lat="43.361" lon="5.77913">
        <ele>464</ele>
        <time>2019-01-04T13:39:29Z</time>
      </trkpt>
      <trkpt lat="43.36095" lon="5.77913">
        <ele>463</ele>
        <time>2019-01-04T13:39:35Z</time>
      </trkpt>
      <trkpt lat="43.36091" lon="5.77915">
        <ele>463</ele>
        <time>2019-01-04T13:39:41Z</time>
      </trkpt>
      <trkpt lat="43.36086" lon="5.77913">
        <ele>463</ele>
        <time>2019-01-04T13:39:44Z</time>
      </trkpt>
      <trkpt lat="43.36081" lon="5.77911">
        <ele>463</ele>
        <time>2019-01-04T13:39:47Z</time>
      </trkpt>
      <trkpt lat="43.36077" lon="5.77907">
        <ele>463</ele>
        <time>2019-01-04T13:39:50Z</time>
      </trkpt>
      <trkpt lat="43.36072" lon="5.77902">
        <ele>464</ele>
        <time>2019-01-04T13:39:55Z</time>
      </trkpt>
      <trkpt lat="43.36069" lon="5.77899">
        <ele>463</ele>
        <time>2019-01-04T13:40:00Z</time>
      </trkpt>
      <trkpt lat="43.36065" lon="5.77894">
        <ele>463</ele>
        <time>2019-01-04T13:40:05Z</time>
      </trkpt>
      <trkpt lat="43.3606" lon="5.7789">
        <ele>464</ele>
        <time>2019-01-04T13:40:10Z</time>
      </trkpt>
      <trkpt lat="43.36056" lon="5.77887">
        <ele>464</ele>
        <time>2019-01-04T13:40:13Z</time>
      </trkpt>
      <trkpt lat="43.36053" lon="5.77881">
        <ele>464</ele>
        <time>2019-01-04T13:40:17Z</time>
      </trkpt>
      <trkpt lat="43.3605" lon="5.77876">
        <ele>465</ele>
        <time>2019-01-04T13:40:20Z</time>
      </trkpt>
      <trkpt lat="43.36048" lon="5.7787">
        <ele>465</ele>
        <time>2019-01-04T13:40:24Z</time>
      </trkpt>
      <trkpt lat="43.36047" lon="5.77863">
        <ele>465</ele>
        <time>2019-01-04T13:40:27Z</time>
      </trkpt>
      <trkpt lat="43.36043" lon="5.77859">
        <ele>465</ele>
        <time>2019-01-04T13:40:31Z</time>
      </trkpt>
      <trkpt lat="43.36039" lon="5.77856">
        <ele>465</ele>
        <time>2019-01-04T13:40:36Z</time>
      </trkpt>
      <trkpt lat="43.36037" lon="5.77851">
        <ele>465</ele>
        <time>2019-01-04T13:40:41Z</time>
      </trkpt>
      <trkpt lat="43.36034" lon="5.77846">
        <ele>465</ele>
        <time>2019-01-04T13:40:45Z</time>
      </trkpt>
      <trkpt lat="43.3603" lon="5.77841">
        <ele>465</ele>
        <time>2019-01-04T13:40:49Z</time>
      </trkpt>
      <trkpt lat="43.36026" lon="5.77835">
        <ele>465</ele>
        <time>2019-01-04T13:40:54Z</time>
      </trkpt>
      <trkpt lat="43.36021" lon="5.77831">
        <ele>465</ele>
        <time>2019-01-04T13:40:58Z</time>
      </trkpt>
      <trkpt lat="43.36018" lon="5.77827">
        <ele>466</ele>
        <time>2019-01-04T13:41:02Z</time>
      </trkpt>
      <trkpt lat="43.36014" lon="5.77824">
        <ele>466</ele>
        <time>2019-01-04T13:41:06Z</time>
      </trkpt>
      <trkpt lat="43.36011" lon="5.77819">
        <ele>467</ele>
        <time>2019-01-04T13:41:10Z</time>
      </trkpt>
      <trkpt lat="43.36006" lon="5.77816">
        <ele>467</ele>
        <time>2019-01-04T13:41:14Z</time>
      </trkpt>
      <trkpt lat="43.36001" lon="5.77815">
        <ele>467</ele>
        <time>2019-01-04T13:41:17Z</time>
      </trkpt>
      <trkpt lat="43.35996" lon="5.77811">
        <ele>466</ele>
        <time>2019-01-04T13:41:21Z</time>
      </trkpt>
      <trkpt lat="43.35991" lon="5.77809">
        <ele>464</ele>
        <time>2019-01-04T13:41:27Z</time>
      </trkpt>
      <trkpt lat="43.35987" lon="5.77805">
        <ele>463</ele>
        <time>2019-01-04T13:41:32Z</time>
      </trkpt>
      <trkpt lat="43.35983" lon="5.77802">
        <ele>460</ele>
        <time>2019-01-04T13:41:35Z</time>
      </trkpt>
      <trkpt lat="43.35979" lon="5.77798">
        <ele>458</ele>
        <time>2019-01-04T13:41:38Z</time>
      </trkpt>
      <trkpt lat="43.35976" lon="5.77794">
        <ele>457</ele>
        <time>2019-01-04T13:41:41Z</time>
      </trkpt>
      <trkpt lat="43.35972" lon="5.7779">
        <ele>456</ele>
        <time>2019-01-04T13:41:45Z</time>
      </trkpt>
      <trkpt lat="43.35968" lon="5.77786">
        <ele>456</ele>
        <time>2019-01-04T13:41:52Z</time>
      </trkpt>
      <trkpt lat="43.35963" lon="5.77783">
        <ele>456</ele>
        <time>2019-01-04T13:41:56Z</time>
      </trkpt>
      <trkpt lat="43.35959" lon="5.77777">
        <ele>457</ele>
        <time>2019-01-04T13:42:00Z</time>
      </trkpt>
      <trkpt lat="43.35955" lon="5.77773">
        <ele>457</ele>
        <time>2019-01-04T13:42:04Z</time>
      </trkpt>
      <trkpt lat="43.35951" lon="5.77768">
        <ele>458</ele>
        <time>2019-01-04T13:42:08Z</time>
      </trkpt>
      <trkpt lat="43.35947" lon="5.77765">
        <ele>458</ele>
        <time>2019-01-04T13:42:12Z</time>
      </trkpt>
      <trkpt lat="43.35943" lon="5.7776">
        <ele>459</ele>
        <time>2019-01-04T13:42:16Z</time>
      </trkpt>
      <trkpt lat="43.35939" lon="5.77756">
        <ele>460</ele>
        <time>2019-01-04T13:42:20Z</time>
      </trkpt>
      <trkpt lat="43.35934" lon="5.77752">
        <ele>461</ele>
        <time>2019-01-04T13:42:24Z</time>
      </trkpt>
      <trkpt lat="43.35931" lon="5.77749">
        <ele>462</ele>
        <time>2019-01-04T13:42:28Z</time>
      </trkpt>
      <trkpt lat="43.35926" lon="5.77747">
        <ele>462</ele>
        <time>2019-01-04T13:42:32Z</time>
      </trkpt>
      <trkpt lat="43.35921" lon="5.77745">
        <ele>462</ele>
        <time>2019-01-04T13:42:36Z</time>
      </trkpt>
      <trkpt lat="43.35917" lon="5.77743">
        <ele>462</ele>
        <time>2019-01-04T13:42:40Z</time>
      </trkpt>
      <trkpt lat="43.35911" lon="5.77741">
        <ele>462</ele>
        <time>2019-01-04T13:42:45Z</time>
      </trkpt>
      <trkpt lat="43.35906" lon="5.77739">
        <ele>461</ele>
        <time>2019-01-04T13:42:51Z</time>
      </trkpt>
      <trkpt lat="43.35902" lon="5.7774">
        <ele>461</ele>
        <time>2019-01-04T13:42:56Z</time>
      </trkpt>
      <trkpt lat="43.35898" lon="5.77737">
        <ele>462</ele>
        <time>2019-01-04T13:43:00Z</time>
      </trkpt>
      <trkpt lat="43.35893" lon="5.77735">
        <ele>463</ele>
        <time>2019-01-04T13:43:03Z</time>
      </trkpt>
      <trkpt lat="43.35888" lon="5.77733">
        <ele>464</ele>
        <time>2019-01-04T13:43:07Z</time>
      </trkpt>
      <trkpt lat="43.35883" lon="5.77731">
        <ele>465</ele>
        <time>2019-01-04T13:43:10Z</time>
      </trkpt>
      <trkpt lat="43.35878" lon="5.77728">
        <ele>465</ele>
        <time>2019-01-04T13:43:14Z</time>
      </trkpt>
      <trkpt lat="43.35875" lon="5.77724">
        <ele>466</ele>
        <time>2019-01-04T13:43:18Z</time>
      </trkpt>
      <trkpt lat="43.3587" lon="5.77722">
        <ele>467</ele>
        <time>2019-01-04T13:43:22Z</time>
      </trkpt>
      <trkpt lat="43.35865" lon="5.77722">
        <ele>467</ele>
        <time>2019-01-04T13:43:26Z</time>
      </trkpt>
      <trkpt lat="43.35859" lon="5.77719">
        <ele>467</ele>
        <time>2019-01-04T13:43:31Z</time>
      </trkpt>
      <trkpt lat="43.35854" lon="5.77719">
        <ele>467</ele>
        <time>2019-01-04T13:43:35Z</time>
      </trkpt>
      <trkpt lat="43.3585" lon="5.77717">
        <ele>466</ele>
        <time>2019-01-04T13:43:39Z</time>
      </trkpt>
      <trkpt lat="43.35845" lon="5.77717">
        <ele>465</ele>
        <time>2019-01-04T13:43:43Z</time>
      </trkpt>
      <trkpt lat="43.35841" lon="5.77717">
        <ele>464</ele>
        <time>2019-01-04T13:43:46Z</time>
      </trkpt>
      <trkpt lat="43.35836" lon="5.77715">
        <ele>463</ele>
        <time>2019-01-04T13:43:50Z</time>
      </trkpt>
      <trkpt lat="43.3583" lon="5.77715">
        <ele>461</ele>
        <time>2019-01-04T13:43:54Z</time>
      </trkpt>
      <trkpt lat="43.35825" lon="5.77713">
        <ele>460</ele>
        <time>2019-01-04T13:43:58Z</time>
      </trkpt>
      <trkpt lat="43.3582" lon="5.77715">
        <ele>459</ele>
        <time>2019-01-04T13:44:02Z</time>
      </trkpt>
      <trkpt lat="43.35815" lon="5.77713">
        <ele>458</ele>
        <time>2019-01-04T13:44:06Z</time>
      </trkpt>
      <trkpt lat="43.3581" lon="5.77713">
        <ele>457</ele>
        <time>2019-01-04T13:44:09Z</time>
      </trkpt>
      <trkpt lat="43.35805" lon="5.77713">
        <ele>457</ele>
        <time>2019-01-04T13:44:12Z</time>
      </trkpt>
      <trkpt lat="43.358" lon="5.77715">
        <ele>456</ele>
        <time>2019-01-04T13:44:16Z</time>
      </trkpt>
      <trkpt lat="43.35794" lon="5.77714">
        <ele>456</ele>
        <time>2019-01-04T13:44:20Z</time>
      </trkpt>
      <trkpt lat="43.35789" lon="5.77713">
        <ele>455</ele>
        <time>2019-01-04T13:44:25Z</time>
      </trkpt>
      <trkpt lat="43.35785" lon="5.77711">
        <ele>454</ele>
        <time>2019-01-04T13:44:29Z</time>
      </trkpt>
      <trkpt lat="43.3578" lon="5.77709">
        <ele>454</ele>
        <time>2019-01-04T13:44:33Z</time>
      </trkpt>
      <trkpt lat="43.35775" lon="5.77708">
        <ele>454</ele>
        <time>2019-01-04T13:44:40Z</time>
      </trkpt>
      <trkpt lat="43.3577" lon="5.77707">
        <ele>454</ele>
        <time>2019-01-04T13:44:45Z</time>
      </trkpt>
      <trkpt lat="43.35766" lon="5.77705">
        <ele>454</ele>
        <time>2019-01-04T13:44:49Z</time>
      </trkpt>
      <trkpt lat="43.35762" lon="5.777">
        <ele>454</ele>
        <time>2019-01-04T13:44:55Z</time>
      </trkpt>
      <trkpt lat="43.35755" lon="5.77698">
        <ele>454</ele>
        <time>2019-01-04T13:45:00Z</time>
      </trkpt>
      <trkpt lat="43.3575" lon="5.77698">
        <ele>454</ele>
        <time>2019-01-04T13:45:03Z</time>
      </trkpt>
      <trkpt lat="43.35745" lon="5.77695">
        <ele>455</ele>
        <time>2019-01-04T13:45:08Z</time>
      </trkpt>
      <trkpt lat="43.3574" lon="5.77692">
        <ele>455</ele>
        <time>2019-01-04T13:45:12Z</time>
      </trkpt>
      <trkpt lat="43.35736" lon="5.77688">
        <ele>456</ele>
        <time>2019-01-04T13:45:16Z</time>
      </trkpt>
      <trkpt lat="43.35731" lon="5.77691">
        <ele>456</ele>
        <time>2019-01-04T13:45:21Z</time>
      </trkpt>
      <trkpt lat="43.3573" lon="5.77698">
        <ele>454</ele>
        <time>2019-01-04T13:45:27Z</time>
      </trkpt>
      <trkpt lat="43.35725" lon="5.77702">
        <ele>452</ele>
        <time>2019-01-04T13:45:33Z</time>
      </trkpt>
      <trkpt lat="43.3572" lon="5.77703">
        <ele>450</ele>
        <time>2019-01-04T13:45:38Z</time>
      </trkpt>
      <trkpt lat="43.35717" lon="5.77707">
        <ele>448</ele>
        <time>2019-01-04T13:45:42Z</time>
      </trkpt>
      <trkpt lat="43.35712" lon="5.77709">
        <ele>447</ele>
        <time>2019-01-04T13:45:49Z</time>
      </trkpt>
      <trkpt lat="43.35707" lon="5.77712">
        <ele>447</ele>
        <time>2019-01-04T13:45:57Z</time>
      </trkpt>
      <trkpt lat="43.35704" lon="5.77718">
        <ele>447</ele>
        <time>2019-01-04T13:46:04Z</time>
      </trkpt>
      <trkpt lat="43.35704" lon="5.77724">
        <ele>446</ele>
        <time>2019-01-04T13:46:09Z</time>
      </trkpt>
      <trkpt lat="43.35704" lon="5.77732">
        <ele>445</ele>
        <time>2019-01-04T13:46:16Z</time>
      </trkpt>
      <trkpt lat="43.35703" lon="5.77738">
        <ele>444</ele>
        <time>2019-01-04T13:46:20Z</time>
      </trkpt>
      <trkpt lat="43.357" lon="5.77746">
        <ele>442</ele>
        <time>2019-01-04T13:46:26Z</time>
      </trkpt>
      <trkpt lat="43.35699" lon="5.77753">
        <ele>441</ele>
        <time>2019-01-04T13:46:30Z</time>
      </trkpt>
      <trkpt lat="43.35697" lon="5.77759">
        <ele>440</ele>
        <time>2019-01-04T13:46:34Z</time>
      </trkpt>
      <trkpt lat="43.35693" lon="5.77763">
        <ele>440</ele>
        <time>2019-01-04T13:46:38Z</time>
      </trkpt>
      <trkpt lat="43.35689" lon="5.77768">
        <ele>440</ele>
        <time>2019-01-04T13:46:41Z</time>
      </trkpt>
      <trkpt lat="43.35685" lon="5.77772">
        <ele>440</ele>
        <time>2019-01-04T13:46:44Z</time>
      </trkpt>
      <trkpt lat="43.3568" lon="5.77775">
        <ele>440</ele>
        <time>2019-01-04T13:46:49Z</time>
      </trkpt>
      <trkpt lat="43.35675" lon="5.77775">
        <ele>441</ele>
        <time>2019-01-04T13:46:55Z</time>
      </trkpt>
      <trkpt lat="43.35671" lon="5.77773">
        <ele>442</ele>
        <time>2019-01-04T13:46:59Z</time>
      </trkpt>
      <trkpt lat="43.35666" lon="5.77772">
        <ele>442</ele>
        <time>2019-01-04T13:47:04Z</time>
      </trkpt>
      <trkpt lat="43.3566" lon="5.7777">
        <ele>443</ele>
        <time>2019-01-04T13:47:07Z</time>
      </trkpt>
      <trkpt lat="43.35655" lon="5.77769">
        <ele>443</ele>
        <time>2019-01-04T13:47:10Z</time>
      </trkpt>
      <trkpt lat="43.3565" lon="5.77768">
        <ele>443</ele>
        <time>2019-01-04T13:47:15Z</time>
      </trkpt>
      <trkpt lat="43.35645" lon="5.77768">
        <ele>444</ele>
        <time>2019-01-04T13:47:19Z</time>
      </trkpt>
      <trkpt lat="43.35641" lon="5.77768">
        <ele>444</ele>
        <time>2019-01-04T13:47:23Z</time>
      </trkpt>
      <trkpt lat="43.35635" lon="5.77764">
        <ele>445</ele>
        <time>2019-01-04T13:47:28Z</time>
      </trkpt>
      <trkpt lat="43.35631" lon="5.77762">
        <ele>445</ele>
        <time>2019-01-04T13:47:31Z</time>
      </trkpt>
      <trkpt lat="43.35627" lon="5.77758">
        <ele>445</ele>
        <time>2019-01-04T13:47:37Z</time>
      </trkpt>
      <trkpt lat="43.35624" lon="5.77754">
        <ele>445</ele>
        <time>2019-01-04T13:47:41Z</time>
      </trkpt>
      <trkpt lat="43.35619" lon="5.77751">
        <ele>445</ele>
        <time>2019-01-04T13:47:45Z</time>
      </trkpt>
      <trkpt lat="43.35614" lon="5.77751">
        <ele>445</ele>
        <time>2019-01-04T13:47:48Z</time>
      </trkpt>
      <trkpt lat="43.35608" lon="5.77751">
        <ele>445</ele>
        <time>2019-01-04T13:47:51Z</time>
      </trkpt>
      <trkpt lat="43.35604" lon="5.77751">
        <ele>445</ele>
        <time>2019-01-04T13:47:54Z</time>
      </trkpt>
      <trkpt lat="43.356" lon="5.77746">
        <ele>444</ele>
        <time>2019-01-04T13:48:00Z</time>
      </trkpt>
      <trkpt lat="43.35596" lon="5.7774">
        <ele>444</ele>
        <time>2019-01-04T13:48:05Z</time>
      </trkpt>
      <trkpt lat="43.35592" lon="5.77736">
        <ele>443</ele>
        <time>2019-01-04T13:48:09Z</time>
      </trkpt>
      <trkpt lat="43.35586" lon="5.77735">
        <ele>443</ele>
        <time>2019-01-04T13:48:15Z</time>
      </trkpt>
      <trkpt lat="43.35582" lon="5.77731">
        <ele>443</ele>
        <time>2019-01-04T13:48:21Z</time>
      </trkpt>
      <trkpt lat="43.35577" lon="5.77727">
        <ele>444</ele>
        <time>2019-01-04T13:48:25Z</time>
      </trkpt>
      <trkpt lat="43.35573" lon="5.77724">
        <ele>444</ele>
        <time>2019-01-04T13:48:28Z</time>
      </trkpt>
      <trkpt lat="43.35568" lon="5.77723">
        <ele>445</ele>
        <time>2019-01-04T13:48:31Z</time>
      </trkpt>
      <trkpt lat="43.35563" lon="5.77724">
        <ele>444</ele>
        <time>2019-01-04T13:48:36Z</time>
      </trkpt>
      <trkpt lat="43.35562" lon="5.7773">
        <ele>443</ele>
        <time>2019-01-04T13:48:41Z</time>
      </trkpt>
      <trkpt lat="43.35558" lon="5.77732">
        <ele>441</ele>
        <time>2019-01-04T13:48:47Z</time>
      </trkpt>
      <trkpt lat="43.35553" lon="5.77731">
        <ele>439</ele>
        <time>2019-01-04T13:48:50Z</time>
      </trkpt>
      <trkpt lat="43.35548" lon="5.7773">
        <ele>437</ele>
        <time>2019-01-04T13:48:54Z</time>
      </trkpt>
      <trkpt lat="43.35543" lon="5.77728">
        <ele>435</ele>
        <time>2019-01-04T13:48:57Z</time>
      </trkpt>
      <trkpt lat="43.35538" lon="5.77728">
        <ele>435</ele>
        <time>2019-01-04T13:49:00Z</time>
      </trkpt>
      <trkpt lat="43.35532" lon="5.77727">
        <ele>435</ele>
        <time>2019-01-04T13:49:04Z</time>
      </trkpt>
      <trkpt lat="43.35528" lon="5.77728">
        <ele>436</ele>
        <time>2019-01-04T13:49:08Z</time>
      </trkpt>
      <trkpt lat="43.35522" lon="5.77728">
        <ele>436</ele>
        <time>2019-01-04T13:49:12Z</time>
      </trkpt>
      <trkpt lat="43.35516" lon="5.77727">
        <ele>437</ele>
        <time>2019-01-04T13:49:15Z</time>
      </trkpt>
      <trkpt lat="43.35511" lon="5.77726">
        <ele>438</ele>
        <time>2019-01-04T13:49:20Z</time>
      </trkpt>
      <trkpt lat="43.35505" lon="5.77728">
        <ele>439</ele>
        <time>2019-01-04T13:49:23Z</time>
      </trkpt>
      <trkpt lat="43.35501" lon="5.77731">
        <ele>439</ele>
        <time>2019-01-04T13:49:28Z</time>
      </trkpt>
      <trkpt lat="43.35496" lon="5.77732">
        <ele>439</ele>
        <time>2019-01-04T13:49:33Z</time>
      </trkpt>
      <trkpt lat="43.35491" lon="5.77732">
        <ele>438</ele>
        <time>2019-01-04T13:49:38Z</time>
      </trkpt>
      <trkpt lat="43.35488" lon="5.77726">
        <ele>437</ele>
        <time>2019-01-04T13:49:42Z</time>
      </trkpt>
      <trkpt lat="43.35486" lon="5.7772">
        <ele>435</ele>
        <time>2019-01-04T13:49:46Z</time>
      </trkpt>
      <trkpt lat="43.35482" lon="5.77716">
        <ele>434</ele>
        <time>2019-01-04T13:49:50Z</time>
      </trkpt>
      <trkpt lat="43.35479" lon="5.77711">
        <ele>434</ele>
        <time>2019-01-04T13:49:54Z</time>
      </trkpt>
      <trkpt lat="43.35476" lon="5.77706">
        <ele>435</ele>
        <time>2019-01-04T13:49:57Z</time>
      </trkpt>
      <trkpt lat="43.35472" lon="5.77702">
        <ele>435</ele>
        <time>2019-01-04T13:50:00Z</time>
      </trkpt>
      <trkpt lat="43.35468" lon="5.77697">
        <ele>436</ele>
        <time>2019-01-04T13:50:04Z</time>
      </trkpt>
      <trkpt lat="43.35465" lon="5.77692">
        <ele>436</ele>
        <time>2019-01-04T13:50:08Z</time>
      </trkpt>
      <trkpt lat="43.35461" lon="5.77688">
        <ele>438</ele>
        <time>2019-01-04T13:50:16Z</time>
      </trkpt>
      <trkpt lat="43.35455" lon="5.77687">
        <ele>439</ele>
        <time>2019-01-04T13:50:20Z</time>
      </trkpt>
      <trkpt lat="43.3545" lon="5.77686">
        <ele>440</ele>
        <time>2019-01-04T13:50:24Z</time>
      </trkpt>
      <trkpt lat="43.35445" lon="5.77685">
        <ele>440</ele>
        <time>2019-01-04T13:50:28Z</time>
      </trkpt>
      <trkpt lat="43.3544" lon="5.77685">
        <ele>440</ele>
        <time>2019-01-04T13:50:32Z</time>
      </trkpt>
      <trkpt lat="43.35435" lon="5.77684">
        <ele>440</ele>
        <time>2019-01-04T13:50:36Z</time>
      </trkpt>
      <trkpt lat="43.3543" lon="5.77683">
        <ele>441</ele>
        <time>2019-01-04T13:50:40Z</time>
      </trkpt>
      <trkpt lat="43.35424" lon="5.77681">
        <ele>441</ele>
        <time>2019-01-04T13:50:45Z</time>
      </trkpt>
      <trkpt lat="43.3542" lon="5.77681">
        <ele>441</ele>
        <time>2019-01-04T13:50:48Z</time>
      </trkpt>
      <trkpt lat="43.35414" lon="5.77681">
        <ele>442</ele>
        <time>2019-01-04T13:50:52Z</time>
      </trkpt>
      <trkpt lat="43.35408" lon="5.77681">
        <ele>442</ele>
        <time>2019-01-04T13:50:56Z</time>
      </trkpt>
      <trkpt lat="43.35403" lon="5.77681">
        <ele>443</ele>
        <time>2019-01-04T13:51:01Z</time>
      </trkpt>
      <trkpt lat="43.35399" lon="5.77678">
        <ele>443</ele>
        <time>2019-01-04T13:51:06Z</time>
      </trkpt>
      <trkpt lat="43.35394" lon="5.77677">
        <ele>444</ele>
        <time>2019-01-04T13:51:10Z</time>
      </trkpt>
      <trkpt lat="43.35389" lon="5.77675">
        <ele>444</ele>
        <time>2019-01-04T13:51:14Z</time>
      </trkpt>
      <trkpt lat="43.35384" lon="5.77675">
        <ele>444</ele>
        <time>2019-01-04T13:51:19Z</time>
      </trkpt>
      <trkpt lat="43.35379" lon="5.77676">
        <ele>445</ele>
        <time>2019-01-04T13:51:22Z</time>
      </trkpt>
      <trkpt lat="43.35374" lon="5.77674">
        <ele>445</ele>
        <time>2019-01-04T13:51:26Z</time>
      </trkpt>
      <trkpt lat="43.35368" lon="5.77672">
        <ele>446</ele>
        <time>2019-01-04T13:51:35Z</time>
      </trkpt>
      <trkpt lat="43.35363" lon="5.77671">
        <ele>446</ele>
        <time>2019-01-04T13:51:39Z</time>
      </trkpt>
      <trkpt lat="43.35358" lon="5.77667">
        <ele>446</ele>
        <time>2019-01-04T13:51:43Z</time>
      </trkpt>
      <trkpt lat="43.35354" lon="5.77666">
        <ele>446</ele>
        <time>2019-01-04T13:51:47Z</time>
      </trkpt>
      <trkpt lat="43.3535" lon="5.77664">
        <ele>445</ele>
        <time>2019-01-04T13:51:51Z</time>
      </trkpt>
      <trkpt lat="43.35346" lon="5.77662">
        <ele>444</ele>
        <time>2019-01-04T13:51:56Z</time>
      </trkpt>
      <trkpt lat="43.3534" lon="5.7766">
        <ele>444</ele>
        <time>2019-01-04T13:52:00Z</time>
      </trkpt>
      <trkpt lat="43.35336" lon="5.77656">
        <ele>443</ele>
        <time>2019-01-04T13:52:05Z</time>
      </trkpt>
      <trkpt lat="43.35332" lon="5.77653">
        <ele>442</ele>
        <time>2019-01-04T13:52:09Z</time>
      </trkpt>
      <trkpt lat="43.35328" lon="5.77648">
        <ele>442</ele>
        <time>2019-01-04T13:52:13Z</time>
      </trkpt>
      <trkpt lat="43.35324" lon="5.77644">
        <ele>442</ele>
        <time>2019-01-04T13:52:18Z</time>
      </trkpt>
      <trkpt lat="43.35319" lon="5.77641">
        <ele>443</ele>
        <time>2019-01-04T13:52:24Z</time>
      </trkpt>
      <trkpt lat="43.35315" lon="5.77638">
        <ele>443</ele>
        <time>2019-01-04T13:52:28Z</time>
      </trkpt>
      <trkpt lat="43.35311" lon="5.77634">
        <ele>444</ele>
        <time>2019-01-04T13:52:32Z</time>
      </trkpt>
      <trkpt lat="43.35306" lon="5.77633">
        <ele>445</ele>
        <time>2019-01-04T13:52:36Z</time>
      </trkpt>
      <trkpt lat="43.35301" lon="5.77631">
        <ele>445</ele>
        <time>2019-01-04T13:52:40Z</time>
      </trkpt>
      <trkpt lat="43.35298" lon="5.77627">
        <ele>444</ele>
        <time>2019-01-04T13:52:45Z</time>
      </trkpt>
      <trkpt lat="43.35293" lon="5.77624">
        <ele>443</ele>
        <time>2019-01-04T13:52:50Z</time>
      </trkpt>
      <trkpt lat="43.35288" lon="5.77622">
        <ele>442</ele>
        <time>2019-01-04T13:52:54Z</time>
      </trkpt>
      <trkpt lat="43.35284" lon="5.77617">
        <ele>442</ele>
        <time>2019-01-04T13:52:59Z</time>
      </trkpt>
      <trkpt lat="43.3528" lon="5.77613">
        <ele>442</ele>
        <time>2019-01-04T13:53:06Z</time>
      </trkpt>
      <trkpt lat="43.35275" lon="5.77612">
        <ele>442</ele>
        <time>2019-01-04T13:53:11Z</time>
      </trkpt>
      <trkpt lat="43.35271" lon="5.77609">
        <ele>442</ele>
        <time>2019-01-04T13:53:16Z</time>
      </trkpt>
      <trkpt lat="43.35267" lon="5.77605">
        <ele>444</ele>
        <time>2019-01-04T13:53:21Z</time>
      </trkpt>
      <trkpt lat="43.35261" lon="5.77603">
        <ele>444</ele>
        <time>2019-01-04T13:53:38Z</time>
      </trkpt>
      <trkpt lat="43.35257" lon="5.77598">
        <ele>445</ele>
        <time>2019-01-04T13:53:45Z</time>
      </trkpt>
      <trkpt lat="43.35252" lon="5.77595">
        <ele>445</ele>
        <time>2019-01-04T13:53:51Z</time>
      </trkpt>
      <trkpt lat="43.35249" lon="5.77591">
        <ele>445</ele>
        <time>2019-01-04T13:53:58Z</time>
      </trkpt>
      <trkpt lat="43.35244" lon="5.77587">
        <ele>445</ele>
        <time>2019-01-04T13:54:03Z</time>
      </trkpt>
      <trkpt lat="43.3524" lon="5.77583">
        <ele>447</ele>
        <time>2019-01-04T13:54:08Z</time>
      </trkpt>
      <trkpt lat="43.35237" lon="5.77578">
        <ele>448</ele>
        <time>2019-01-04T13:54:15Z</time>
      </trkpt>
      <trkpt lat="43.35233" lon="5.77575">
        <ele>449</ele>
        <time>2019-01-04T13:54:21Z</time>
      </trkpt>
      <trkpt lat="43.35229" lon="5.77573">
        <ele>450</ele>
        <time>2019-01-04T13:54:26Z</time>
      </trkpt>
      <trkpt lat="43.35224" lon="5.77571">
        <ele>451</ele>
        <time>2019-01-04T13:54:31Z</time>
      </trkpt>
      <trkpt lat="43.3522" lon="5.77567">
        <ele>452</ele>
        <time>2019-01-04T13:54:36Z</time>
      </trkpt>
      <trkpt lat="43.35216" lon="5.77562">
        <ele>452</ele>
        <time>2019-01-04T13:54:41Z</time>
      </trkpt>
      <trkpt lat="43.35216" lon="5.77552">
        <ele>452</ele>
        <time>2019-01-04T13:54:54Z</time>
      </trkpt>
      <trkpt lat="43.35212" lon="5.77546">
        <ele>453</ele>
        <time>2019-01-04T13:55:07Z</time>
      </trkpt>
      <trkpt lat="43.35211" lon="5.7754">
        <ele>453</ele>
        <time>2019-01-04T13:55:13Z</time>
      </trkpt>
      <trkpt lat="43.35209" lon="5.77534">
        <ele>453</ele>
        <time>2019-01-04T13:55:18Z</time>
      </trkpt>
      <trkpt lat="43.35206" lon="5.77525">
        <ele>452</ele>
        <time>2019-01-04T13:55:26Z</time>
      </trkpt>
      <trkpt lat="43.35206" lon="5.77518">
        <ele>451</ele>
        <time>2019-01-04T13:55:30Z</time>
      </trkpt>
      <trkpt lat="43.35205" lon="5.77512">
        <ele>451</ele>
        <time>2019-01-04T13:55:34Z</time>
      </trkpt>
      <trkpt lat="43.35205" lon="5.77505">
        <ele>451</ele>
        <time>2019-01-04T13:55:38Z</time>
      </trkpt>
      <trkpt lat="43.35204" lon="5.77499">
        <ele>452</ele>
        <time>2019-01-04T13:55:43Z</time>
      </trkpt>
      <trkpt lat="43.35204" lon="5.77492">
        <ele>452</ele>
        <time>2019-01-04T13:55:47Z</time>
      </trkpt>
      <trkpt lat="43.35203" lon="5.77484">
        <ele>453</ele>
        <time>2019-01-04T13:55:52Z</time>
      </trkpt>
      <trkpt lat="43.35205" lon="5.77478">
        <ele>453</ele>
        <time>2019-01-04T13:55:56Z</time>
      </trkpt>
      <trkpt lat="43.35206" lon="5.7747">
        <ele>452</ele>
        <time>2019-01-04T13:56:01Z</time>
      </trkpt>
      <trkpt lat="43.35207" lon="5.77464">
        <ele>452</ele>
        <time>2019-01-04T13:56:04Z</time>
      </trkpt>
      <trkpt lat="43.35207" lon="5.77456">
        <ele>451</ele>
        <time>2019-01-04T13:56:08Z</time>
      </trkpt>
      <trkpt lat="43.35208" lon="5.77449">
        <ele>450</ele>
        <time>2019-01-04T13:56:12Z</time>
      </trkpt>
      <trkpt lat="43.35208" lon="5.7744">
        <ele>450</ele>
        <time>2019-01-04T13:56:17Z</time>
      </trkpt>
      <trkpt lat="43.35209" lon="5.77434">
        <ele>450</ele>
        <time>2019-01-04T13:56:21Z</time>
      </trkpt>
      <trkpt lat="43.3521" lon="5.77427">
        <ele>450</ele>
        <time>2019-01-04T13:56:27Z</time>
      </trkpt>
      <trkpt lat="43.35211" lon="5.77421">
        <ele>450</ele>
        <time>2019-01-04T13:56:31Z</time>
      </trkpt>
      <trkpt lat="43.35212" lon="5.77414">
        <ele>449</ele>
        <time>2019-01-04T13:56:35Z</time>
      </trkpt>
      <trkpt lat="43.35212" lon="5.77407">
        <ele>448</ele>
        <time>2019-01-04T13:56:39Z</time>
      </trkpt>
      <trkpt lat="43.35212" lon="5.77401">
        <ele>448</ele>
        <time>2019-01-04T13:56:43Z</time>
      </trkpt>
      <trkpt lat="43.35214" lon="5.77393">
        <ele>448</ele>
        <time>2019-01-04T13:56:46Z</time>
      </trkpt>
      <trkpt lat="43.35216" lon="5.77387">
        <ele>449</ele>
        <time>2019-01-04T13:56:49Z</time>
      </trkpt>
      <trkpt lat="43.35217" lon="5.77379">
        <ele>449</ele>
        <time>2019-01-04T13:56:54Z</time>
      </trkpt>
      <trkpt lat="43.35216" lon="5.77372">
        <ele>450</ele>
        <time>2019-01-04T13:57:12Z</time>
      </trkpt>
      <trkpt lat="43.35218" lon="5.77366">
        <ele>451</ele>
        <time>2019-01-04T13:57:16Z</time>
      </trkpt>
      <trkpt lat="43.35219" lon="5.77359">
        <ele>451</ele>
        <time>2019-01-04T13:57:20Z</time>
      </trkpt>
      <trkpt lat="43.35218" lon="5.77352">
        <ele>451</ele>
        <time>2019-01-04T13:57:24Z</time>
      </trkpt>
      <trkpt lat="43.3522" lon="5.77346">
        <ele>452</ele>
        <time>2019-01-04T13:57:28Z</time>
      </trkpt>
      <trkpt lat="43.35221" lon="5.7734">
        <ele>452</ele>
        <time>2019-01-04T13:57:40Z</time>
      </trkpt>
      <trkpt lat="43.35221" lon="5.77333">
        <ele>452</ele>
        <time>2019-01-04T13:57:45Z</time>
      </trkpt>
      <trkpt lat="43.35222" lon="5.77325">
        <ele>452</ele>
        <time>2019-01-04T13:57:55Z</time>
      </trkpt>
      <trkpt lat="43.35221" lon="5.77318">
        <ele>452</ele>
        <time>2019-01-04T13:57:58Z</time>
      </trkpt>
      <trkpt lat="43.35221" lon="5.77312">
        <ele>452</ele>
        <time>2019-01-04T13:58:02Z</time>
      </trkpt>
      <trkpt lat="43.35219" lon="5.77305">
        <ele>452</ele>
        <time>2019-01-04T13:58:06Z</time>
      </trkpt>
      <trkpt lat="43.3522" lon="5.77298">
        <ele>453</ele>
        <time>2019-01-04T13:58:10Z</time>
      </trkpt>
      <trkpt lat="43.3522" lon="5.7729">
        <ele>453</ele>
        <time>2019-01-04T13:58:14Z</time>
      </trkpt>
      <trkpt lat="43.3522" lon="5.77282">
        <ele>453</ele>
        <time>2019-01-04T13:58:18Z</time>
      </trkpt>
      <trkpt lat="43.35221" lon="5.77274">
        <ele>453</ele>
        <time>2019-01-04T13:58:21Z</time>
      </trkpt>
      <trkpt lat="43.3522" lon="5.77266">
        <ele>453</ele>
        <time>2019-01-04T13:58:25Z</time>
      </trkpt>
      <trkpt lat="43.3522" lon="5.77259">
        <ele>453</ele>
        <time>2019-01-04T13:58:29Z</time>
      </trkpt>
      <trkpt lat="43.35218" lon="5.77252">
        <ele>454</ele>
        <time>2019-01-04T13:58:35Z</time>
      </trkpt>
      <trkpt lat="43.35217" lon="5.77244">
        <ele>455</ele>
        <time>2019-01-04T13:58:40Z</time>
      </trkpt>
      <trkpt lat="43.35217" lon="5.77237">
        <ele>456</ele>
        <time>2019-01-04T13:58:45Z</time>
      </trkpt>
      <trkpt lat="43.35216" lon="5.7723">
        <ele>456</ele>
        <time>2019-01-04T13:58:49Z</time>
      </trkpt>
      <trkpt lat="43.35215" lon="5.77222">
        <ele>457</ele>
        <time>2019-01-04T13:58:53Z</time>
      </trkpt>
      <trkpt lat="43.35213" lon="5.77213">
        <ele>457</ele>
        <time>2019-01-04T13:58:57Z</time>
      </trkpt>
      <trkpt lat="43.3521" lon="5.77207">
        <ele>456</ele>
        <time>2019-01-04T13:59:01Z</time>
      </trkpt>
      <trkpt lat="43.35209" lon="5.77201">
        <ele>456</ele>
        <time>2019-01-04T13:59:04Z</time>
      </trkpt>
      <trkpt lat="43.35207" lon="5.77193">
        <ele>456</ele>
        <time>2019-01-04T13:59:08Z</time>
      </trkpt>
      <trkpt lat="43.35207" lon="5.77187">
        <ele>456</ele>
        <time>2019-01-04T13:59:11Z</time>
      </trkpt>
      <trkpt lat="43.35205" lon="5.77181">
        <ele>457</ele>
        <time>2019-01-04T13:59:15Z</time>
      </trkpt>
      <trkpt lat="43.35204" lon="5.77173">
        <ele>458</ele>
        <time>2019-01-04T13:59:20Z</time>
      </trkpt>
      <trkpt lat="43.35205" lon="5.77166">
        <ele>458</ele>
        <time>2019-01-04T13:59:23Z</time>
      </trkpt>
      <trkpt lat="43.35205" lon="5.77158">
        <ele>458</ele>
        <time>2019-01-04T13:59:27Z</time>
      </trkpt>
      <trkpt lat="43.35206" lon="5.7715">
        <ele>458</ele>
        <time>2019-01-04T13:59:31Z</time>
      </trkpt>
      <trkpt lat="43.35206" lon="5.77144">
        <ele>458</ele>
        <time>2019-01-04T13:59:35Z</time>
      </trkpt>
      <trkpt lat="43.35208" lon="5.77137">
        <ele>459</ele>
        <time>2019-01-04T13:59:42Z</time>
      </trkpt>
      <trkpt lat="43.3521" lon="5.7713">
        <ele>460</ele>
        <time>2019-01-04T13:59:45Z</time>
      </trkpt>
      <trkpt lat="43.35209" lon="5.77124">
        <ele>461</ele>
        <time>2019-01-04T13:59:48Z</time>
      </trkpt>
      <trkpt lat="43.3521" lon="5.77117">
        <ele>461</ele>
        <time>2019-01-04T13:59:51Z</time>
      </trkpt>
      <trkpt lat="43.35212" lon="5.77111">
        <ele>461</ele>
        <time>2019-01-04T13:59:55Z</time>
      </trkpt>
      <trkpt lat="43.35215" lon="5.77105">
        <ele>460</ele>
        <time>2019-01-04T13:59:59Z</time>
      </trkpt>
      <trkpt lat="43.3522" lon="5.77104">
        <ele>460</ele>
        <time>2019-01-04T14:00:05Z</time>
      </trkpt>
      <trkpt lat="43.35224" lon="5.77103">
        <ele>460</ele>
        <time>2019-01-04T14:00:11Z</time>
      </trkpt>
      <trkpt lat="43.35228" lon="5.77099">
        <ele>460</ele>
        <time>2019-01-04T14:00:16Z</time>
      </trkpt>
      <trkpt lat="43.35234" lon="5.77096">
        <ele>459</ele>
        <time>2019-01-04T14:00:21Z</time>
      </trkpt>
      <trkpt lat="43.3524" lon="5.77099">
        <ele>459</ele>
        <time>2019-01-04T14:00:25Z</time>
      </trkpt>
      <trkpt lat="43.35244" lon="5.77099">
        <ele>458</ele>
        <time>2019-01-04T14:00:28Z</time>
      </trkpt>
      <trkpt lat="43.3525" lon="5.77098">
        <ele>457</ele>
        <time>2019-01-04T14:00:32Z</time>
      </trkpt>
      <trkpt lat="43.35255" lon="5.77097">
        <ele>457</ele>
        <time>2019-01-04T14:00:35Z</time>
      </trkpt>
      <trkpt lat="43.35261" lon="5.77097">
        <ele>456</ele>
        <time>2019-01-04T14:00:39Z</time>
      </trkpt>
      <trkpt lat="43.35265" lon="5.77097">
        <ele>455</ele>
        <time>2019-01-04T14:00:42Z</time>
      </trkpt>
      <trkpt lat="43.3527" lon="5.77096">
        <ele>455</ele>
        <time>2019-01-04T14:00:46Z</time>
      </trkpt>
      <trkpt lat="43.35275" lon="5.77096">
        <ele>455</ele>
        <time>2019-01-04T14:00:50Z</time>
      </trkpt>
      <trkpt lat="43.3528" lon="5.77094">
        <ele>455</ele>
        <time>2019-01-04T14:00:53Z</time>
      </trkpt>
      <trkpt lat="43.35284" lon="5.77096">
        <ele>455</ele>
        <time>2019-01-04T14:00:56Z</time>
      </trkpt>
      <trkpt lat="43.35289" lon="5.77099">
        <ele>456</ele>
        <time>2019-01-04T14:01:00Z</time>
      </trkpt>
      <trkpt lat="43.35294" lon="5.77098">
        <ele>456</ele>
        <time>2019-01-04T14:01:04Z</time>
      </trkpt>
      <trkpt lat="43.35297" lon="5.77092">
        <ele>456</ele>
        <time>2019-01-04T14:01:11Z</time>
      </trkpt>
      <trkpt lat="43.35299" lon="5.77086">
        <ele>456</ele>
        <time>2019-01-04T14:01:15Z</time>
      </trkpt>
      <trkpt lat="43.35298" lon="5.77079">
        <ele>456</ele>
        <time>2019-01-04T14:01:19Z</time>
      </trkpt>
      <trkpt lat="43.35296" lon="5.77073">
        <ele>455</ele>
        <time>2019-01-04T14:01:23Z</time>
      </trkpt>
      <trkpt lat="43.35293" lon="5.77067">
        <ele>455</ele>
        <time>2019-01-04T14:01:26Z</time>
      </trkpt>
      <trkpt lat="43.35292" lon="5.7706">
        <ele>455</ele>
        <time>2019-01-04T14:01:32Z</time>
      </trkpt>
      <trkpt lat="43.35294" lon="5.77053">
        <ele>454</ele>
        <time>2019-01-04T14:01:37Z</time>
      </trkpt>
      <trkpt lat="43.35298" lon="5.77048">
        <ele>455</ele>
        <time>2019-01-04T14:01:42Z</time>
      </trkpt>
      <trkpt lat="43.353" lon="5.77043">
        <ele>455</ele>
        <time>2019-01-04T14:01:48Z</time>
      </trkpt>
      <trkpt lat="43.35303" lon="5.77037">
        <ele>457</ele>
        <time>2019-01-04T14:01:54Z</time>
      </trkpt>
      <trkpt lat="43.35302" lon="5.77031">
        <ele>458</ele>
        <time>2019-01-04T14:01:59Z</time>
      </trkpt>
      <trkpt lat="43.35299" lon="5.77024">
        <ele>460</ele>
        <time>2019-01-04T14:02:04Z</time>
      </trkpt>
      <trkpt lat="43.35297" lon="5.77017">
        <ele>461</ele>
        <time>2019-01-04T14:02:09Z</time>
      </trkpt>
      <trkpt lat="43.35293" lon="5.77012">
        <ele>462</ele>
        <time>2019-01-04T14:02:15Z</time>
      </trkpt>
      <trkpt lat="43.35289" lon="5.77009">
        <ele>464</ele>
        <time>2019-01-04T14:02:19Z</time>
      </trkpt>
      <trkpt lat="43.35286" lon="5.77003">
        <ele>464</ele>
        <time>2019-01-04T14:02:22Z</time>
      </trkpt>
      <trkpt lat="43.35283" lon="5.76999">
        <ele>465</ele>
        <time>2019-01-04T14:02:27Z</time>
      </trkpt>
      <trkpt lat="43.35279" lon="5.76994">
        <ele>467</ele>
        <time>2019-01-04T14:02:30Z</time>
      </trkpt>
      <trkpt lat="43.35275" lon="5.76989">
        <ele>468</ele>
        <time>2019-01-04T14:02:36Z</time>
      </trkpt>
      <trkpt lat="43.35271" lon="5.76984">
        <ele>468</ele>
        <time>2019-01-04T14:02:41Z</time>
      </trkpt>
      <trkpt lat="43.35268" lon="5.76979">
        <ele>469</ele>
        <time>2019-01-04T14:02:45Z</time>
      </trkpt>
      <trkpt lat="43.35264" lon="5.7697">
        <ele>470</ele>
        <time>2019-01-04T14:02:50Z</time>
      </trkpt>
      <trkpt lat="43.35264" lon="5.76964">
        <ele>470</ele>
        <time>2019-01-04T14:02:54Z</time>
      </trkpt>
      <trkpt lat="43.35261" lon="5.76959">
        <ele>471</ele>
        <time>2019-01-04T14:02:58Z</time>
      </trkpt>
      <trkpt lat="43.35258" lon="5.76954">
        <ele>471</ele>
        <time>2019-01-04T14:03:02Z</time>
      </trkpt>
      <trkpt lat="43.35257" lon="5.76948">
        <ele>472</ele>
        <time>2019-01-04T14:03:06Z</time>
      </trkpt>
      <trkpt lat="43.35253" lon="5.76943">
        <ele>472</ele>
        <time>2019-01-04T14:03:11Z</time>
      </trkpt>
      <trkpt lat="43.3525" lon="5.76938">
        <ele>472</ele>
        <time>2019-01-04T14:03:17Z</time>
      </trkpt>
      <trkpt lat="43.35247" lon="5.7693">
        <ele>473</ele>
        <time>2019-01-04T14:03:22Z</time>
      </trkpt>
      <trkpt lat="43.35245" lon="5.76923">
        <ele>474</ele>
        <time>2019-01-04T14:03:31Z</time>
      </trkpt>
      <trkpt lat="43.35244" lon="5.76917">
        <ele>475</ele>
        <time>2019-01-04T14:03:37Z</time>
      </trkpt>
      <trkpt lat="43.35244" lon="5.7691">
        <ele>477</ele>
        <time>2019-01-04T14:03:43Z</time>
      </trkpt>
      <trkpt lat="43.35243" lon="5.76903">
        <ele>478</ele>
        <time>2019-01-04T14:03:47Z</time>
      </trkpt>
      <trkpt lat="43.35241" lon="5.76897">
        <ele>479</ele>
        <time>2019-01-04T14:03:52Z</time>
      </trkpt>
      <trkpt lat="43.35239" lon="5.7689">
        <ele>479</ele>
        <time>2019-01-04T14:03:57Z</time>
      </trkpt>
      <trkpt lat="43.35239" lon="5.76883">
        <ele>479</ele>
        <time>2019-01-04T14:04:02Z</time>
      </trkpt>
      <trkpt lat="43.35236" lon="5.76877">
        <ele>479</ele>
        <time>2019-01-04T14:04:07Z</time>
      </trkpt>
      <trkpt lat="43.35235" lon="5.7687">
        <ele>480</ele>
        <time>2019-01-04T14:04:11Z</time>
      </trkpt>
      <trkpt lat="43.35231" lon="5.76866">
        <ele>481</ele>
        <time>2019-01-04T14:04:15Z</time>
      </trkpt>
      <trkpt lat="43.35229" lon="5.76859">
        <ele>481</ele>
        <time>2019-01-04T14:04:20Z</time>
      </trkpt>
      <trkpt lat="43.35228" lon="5.76853">
        <ele>482</ele>
        <time>2019-01-04T14:04:24Z</time>
      </trkpt>
      <trkpt lat="43.35224" lon="5.76848">
        <ele>482</ele>
        <time>2019-01-04T14:04:29Z</time>
      </trkpt>
      <trkpt lat="43.35223" lon="5.76841">
        <ele>482</ele>
        <time>2019-01-04T14:04:33Z</time>
      </trkpt>
      <trkpt lat="43.35221" lon="5.76835">
        <ele>482</ele>
        <time>2019-01-04T14:04:39Z</time>
      </trkpt>
      <trkpt lat="43.35204" lon="5.76828">
        <ele>482</ele>
        <time>2019-01-04T14:04:46Z</time>
      </trkpt>
      <trkpt lat="43.35217" lon="5.76821">
        <ele>482</ele>
        <time>2019-01-04T14:04:50Z</time>
      </trkpt>
      <trkpt lat="43.35215" lon="5.76815">
        <ele>482</ele>
        <time>2019-01-04T14:04:55Z</time>
      </trkpt>
      <trkpt lat="43.35215" lon="5.76808">
        <ele>482</ele>
        <time>2019-01-04T14:04:59Z</time>
      </trkpt>
      <trkpt lat="43.35212" lon="5.76799">
        <ele>482</ele>
        <time>2019-01-04T14:05:03Z</time>
      </trkpt>
      <trkpt lat="43.35208" lon="5.76792">
        <ele>483</ele>
        <time>2019-01-04T14:05:08Z</time>
      </trkpt>
      <trkpt lat="43.35206" lon="5.76785">
        <ele>483</ele>
        <time>2019-01-04T14:05:13Z</time>
      </trkpt>
      <trkpt lat="43.35203" lon="5.76778">
        <ele>484</ele>
        <time>2019-01-04T14:05:19Z</time>
      </trkpt>
      <trkpt lat="43.35201" lon="5.76772">
        <ele>484</ele>
        <time>2019-01-04T14:05:23Z</time>
      </trkpt>
      <trkpt lat="43.35199" lon="5.76766">
        <ele>484</ele>
        <time>2019-01-04T14:05:28Z</time>
      </trkpt>
      <trkpt lat="43.35197" lon="5.7676">
        <ele>484</ele>
        <time>2019-01-04T14:05:31Z</time>
      </trkpt>
      <trkpt lat="43.35195" lon="5.76754">
        <ele>484</ele>
        <time>2019-01-04T14:05:36Z</time>
      </trkpt>
      <trkpt lat="43.35195" lon="5.76748">
        <ele>484</ele>
        <time>2019-01-04T14:05:49Z</time>
      </trkpt>
      <trkpt lat="43.35194" lon="5.76742">
        <ele>484</ele>
        <time>2019-01-04T14:05:54Z</time>
      </trkpt>
      <trkpt lat="43.35191" lon="5.76736">
        <ele>484</ele>
        <time>2019-01-04T14:05:58Z</time>
      </trkpt>
      <trkpt lat="43.35189" lon="5.7673">
        <ele>484</ele>
        <time>2019-01-04T14:06:02Z</time>
      </trkpt>
      <trkpt lat="43.35187" lon="5.76724">
        <ele>484</ele>
        <time>2019-01-04T14:06:07Z</time>
      </trkpt>
      <trkpt lat="43.35185" lon="5.76718">
        <ele>484</ele>
        <time>2019-01-04T14:06:12Z</time>
      </trkpt>
      <trkpt lat="43.35181" lon="5.76713">
        <ele>483</ele>
        <time>2019-01-04T14:06:16Z</time>
      </trkpt>
      <trkpt lat="43.35179" lon="5.76707">
        <ele>482</ele>
        <time>2019-01-04T14:06:20Z</time>
      </trkpt>
      <trkpt lat="43.35176" lon="5.76701">
        <ele>481</ele>
        <time>2019-01-04T14:06:25Z</time>
      </trkpt>
      <trkpt lat="43.35173" lon="5.76696">
        <ele>481</ele>
        <time>2019-01-04T14:06:29Z</time>
      </trkpt>
      <trkpt lat="43.35171" lon="5.76689">
        <ele>480</ele>
        <time>2019-01-04T14:06:35Z</time>
      </trkpt>
      <trkpt lat="43.3517" lon="5.76683">
        <ele>480</ele>
        <time>2019-01-04T14:06:39Z</time>
      </trkpt>
      <trkpt lat="43.35168" lon="5.76676">
        <ele>479</ele>
        <time>2019-01-04T14:06:42Z</time>
      </trkpt>
      <trkpt lat="43.35165" lon="5.7667">
        <ele>478</ele>
        <time>2019-01-04T14:06:46Z</time>
      </trkpt>
      <trkpt lat="43.35164" lon="5.76664">
        <ele>478</ele>
        <time>2019-01-04T14:06:50Z</time>
      </trkpt>
      <trkpt lat="43.35163" lon="5.76657">
        <ele>478</ele>
        <time>2019-01-04T14:06:54Z</time>
      </trkpt>
      <trkpt lat="43.35162" lon="5.7665">
        <ele>477</ele>
        <time>2019-01-04T14:06:58Z</time>
      </trkpt>
      <trkpt lat="43.3516" lon="5.76644">
        <ele>477</ele>
        <time>2019-01-04T14:07:03Z</time>
      </trkpt>
      <trkpt lat="43.3516" lon="5.76636">
        <ele>477</ele>
        <time>2019-01-04T14:07:07Z</time>
      </trkpt>
      <trkpt lat="43.3516" lon="5.76628">
        <ele>477</ele>
        <time>2019-01-04T14:07:12Z</time>
      </trkpt>
      <trkpt lat="43.3516" lon="5.7662">
        <ele>478</ele>
        <time>2019-01-04T14:07:16Z</time>
      </trkpt>
      <trkpt lat="43.3516" lon="5.76614">
        <ele>479</ele>
        <time>2019-01-04T14:07:20Z</time>
      </trkpt>
      <trkpt lat="43.3516" lon="5.76606">
        <ele>479</ele>
        <time>2019-01-04T14:07:25Z</time>
      </trkpt>
      <trkpt lat="43.35161" lon="5.766">
        <ele>480</ele>
        <time>2019-01-04T14:07:28Z</time>
      </trkpt>
      <trkpt lat="43.3516" lon="5.76593">
        <ele>480</ele>
        <time>2019-01-04T14:07:31Z</time>
      </trkpt>
      <trkpt lat="43.35159" lon="5.76586">
        <ele>480</ele>
        <time>2019-01-04T14:07:34Z</time>
      </trkpt>
      <trkpt lat="43.35157" lon="5.76579">
        <ele>480</ele>
        <time>2019-01-04T14:07:37Z</time>
      </trkpt>
      <trkpt lat="43.35157" lon="5.76573">
        <ele>480</ele>
        <time>2019-01-04T14:07:42Z</time>
      </trkpt>
      <trkpt lat="43.35157" lon="5.76564">
        <ele>479</ele>
        <time>2019-01-04T14:07:47Z</time>
      </trkpt>
      <trkpt lat="43.35156" lon="5.76556">
        <ele>478</ele>
        <time>2019-01-04T14:07:52Z</time>
      </trkpt>
      <trkpt lat="43.35151" lon="5.76556">
        <ele>478</ele>
        <time>2019-01-04T14:08:02Z</time>
      </trkpt>
      <trkpt lat="43.35152" lon="5.76549">
        <ele>477</ele>
        <time>2019-01-04T14:08:05Z</time>
      </trkpt>
      <trkpt lat="43.35153" lon="5.76541">
        <ele>476</ele>
        <time>2019-01-04T14:08:10Z</time>
      </trkpt>
      <trkpt lat="43.35152" lon="5.76534">
        <ele>476</ele>
        <time>2019-01-04T14:08:14Z</time>
      </trkpt>
      <trkpt lat="43.35152" lon="5.76526">
        <ele>475</ele>
        <time>2019-01-04T14:08:18Z</time>
      </trkpt>
      <trkpt lat="43.35152" lon="5.76519">
        <ele>475</ele>
        <time>2019-01-04T14:08:22Z</time>
      </trkpt>
      <trkpt lat="43.35152" lon="5.76512">
        <ele>474</ele>
        <time>2019-01-04T14:08:26Z</time>
      </trkpt>
      <trkpt lat="43.35152" lon="5.76505">
        <ele>473</ele>
        <time>2019-01-04T14:08:30Z</time>
      </trkpt>
      <trkpt lat="43.35149" lon="5.76499">
        <ele>472</ele>
        <time>2019-01-04T14:08:34Z</time>
      </trkpt>
      <trkpt lat="43.35149" lon="5.76493">
        <ele>471</ele>
        <time>2019-01-04T14:08:37Z</time>
      </trkpt>
      <trkpt lat="43.35149" lon="5.76486">
        <ele>471</ele>
        <time>2019-01-04T14:08:41Z</time>
      </trkpt>
      <trkpt lat="43.35148" lon="5.7648">
        <ele>470</ele>
        <time>2019-01-04T14:08:45Z</time>
      </trkpt>
      <trkpt lat="43.35146" lon="5.76472">
        <ele>471</ele>
        <time>2019-01-04T14:08:50Z</time>
      </trkpt>
      <trkpt lat="43.35146" lon="5.76464">
        <ele>471</ele>
        <time>2019-01-04T14:08:56Z</time>
      </trkpt>
      <trkpt lat="43.35146" lon="5.76457">
        <ele>471</ele>
        <time>2019-01-04T14:09:02Z</time>
      </trkpt>
      <trkpt lat="43.35146" lon="5.76451">
        <ele>471</ele>
        <time>2019-01-04T14:09:06Z</time>
      </trkpt>
      <trkpt lat="43.35147" lon="5.76444">
        <ele>470</ele>
        <time>2019-01-04T14:09:11Z</time>
      </trkpt>
      <trkpt lat="43.35146" lon="5.76438">
        <ele>470</ele>
        <time>2019-01-04T14:09:14Z</time>
      </trkpt>
      <trkpt lat="43.35146" lon="5.76431">
        <ele>469</ele>
        <time>2019-01-04T14:09:17Z</time>
      </trkpt>
      <trkpt lat="43.35145" lon="5.76425">
        <ele>468</ele>
        <time>2019-01-04T14:09:20Z</time>
      </trkpt>
      <trkpt lat="43.35137" lon="5.7642">
        <ele>460</ele>
        <time>2019-01-04T14:10:23Z</time>
      </trkpt>
      <trkpt lat="43.35129" lon="5.76416">
        <ele>460</ele>
        <time>2019-01-04T14:10:28Z</time>
      </trkpt>
      <trkpt lat="43.35102" lon="5.76435">
        <ele>460</ele>
        <time>2019-01-04T14:10:32Z</time>
      </trkpt>
      <trkpt lat="43.35034" lon="5.76484">
        <ele>460</ele>
        <time>2019-01-04T14:10:35Z</time>
      </trkpt>
      <trkpt lat="43.3475" lon="5.76406">
        <ele>460</ele>
        <time>2019-01-04T14:10:38Z</time>
      </trkpt>
      <trkpt lat="43.3462" lon="5.76302">
        <ele>460</ele>
        <time>2019-01-04T14:10:41Z</time>
      </trkpt>
      <trkpt lat="43.34767" lon="5.76407">
        <ele>459</ele>
        <time>2019-01-04T14:10:44Z</time>
      </trkpt>
      <trkpt lat="43.34943" lon="5.76417">
        <ele>459</ele>
        <time>2019-01-04T14:10:55Z</time>
      </trkpt>
      <trkpt lat="43.35101" lon="5.76046">
        <ele>459</ele>
        <time>2019-01-04T14:10:58Z</time>
      </trkpt>
      <trkpt lat="43.35118" lon="5.7613">
        <ele>458</ele>
        <time>2019-01-04T14:11:02Z</time>
      </trkpt>
      <trkpt lat="43.35162" lon="5.76153">
        <ele>458</ele>
        <time>2019-01-04T14:11:06Z</time>
      </trkpt>
      <trkpt lat="43.35163" lon="5.76154">
        <ele>458</ele>
        <time>2019-01-04T14:11:10Z</time>
      </trkpt>
      <trkpt lat="43.35163" lon="5.76151">
        <ele>457</ele>
        <time>2019-01-04T14:11:14Z</time>
      </trkpt>
      <trkpt lat="43.35158" lon="5.76152">
        <ele>457</ele>
        <time>2019-01-04T14:11:18Z</time>
      </trkpt>
      <trkpt lat="43.35156" lon="5.76151">
        <ele>456</ele>
        <time>2019-01-04T14:11:25Z</time>
      </trkpt>
      <trkpt lat="43.35153" lon="5.7615">
        <ele>456</ele>
        <time>2019-01-04T14:11:29Z</time>
      </trkpt>
      <trkpt lat="43.35156" lon="5.76152">
        <ele>456</ele>
        <time>2019-01-04T14:11:34Z</time>
      </trkpt>
      <trkpt lat="43.35158" lon="5.76152">
        <ele>441</ele>
        <time>2019-01-04T14:16:47Z</time>
      </trkpt>
      <trkpt lat="43.35164" lon="5.76151">
        <ele>440</ele>
        <time>2019-01-04T14:17:06Z</time>
      </trkpt>
      <trkpt lat="43.35166" lon="5.76145">
        <ele>439</ele>
        <time>2019-01-04T14:17:10Z</time>
      </trkpt>
      <trkpt lat="43.35168" lon="5.76138">
        <ele>439</ele>
        <time>2019-01-04T14:17:15Z</time>
      </trkpt>
      <trkpt lat="43.35171" lon="5.76132">
        <ele>439</ele>
        <time>2019-01-04T14:17:19Z</time>
      </trkpt>
      <trkpt lat="43.35175" lon="5.76126">
        <ele>439</ele>
        <time>2019-01-04T14:17:24Z</time>
      </trkpt>
      <trkpt lat="43.35178" lon="5.76121">
        <ele>439</ele>
        <time>2019-01-04T14:17:28Z</time>
      </trkpt>
      <trkpt lat="43.35183" lon="5.76117">
        <ele>439</ele>
        <time>2019-01-04T14:17:32Z</time>
      </trkpt>
      <trkpt lat="43.35185" lon="5.76112">
        <ele>440</ele>
        <time>2019-01-04T14:17:36Z</time>
      </trkpt>
      <trkpt lat="43.35189" lon="5.76109">
        <ele>440</ele>
        <time>2019-01-04T14:17:40Z</time>
      </trkpt>
      <trkpt lat="43.35193" lon="5.76104">
        <ele>440</ele>
        <time>2019-01-04T14:17:44Z</time>
      </trkpt>
      <trkpt lat="43.35196" lon="5.76098">
        <ele>440</ele>
        <time>2019-01-04T14:17:49Z</time>
      </trkpt>
      <trkpt lat="43.35199" lon="5.76091">
        <ele>440</ele>
        <time>2019-01-04T14:17:53Z</time>
      </trkpt>
      <trkpt lat="43.35202" lon="5.76085">
        <ele>441</ele>
        <time>2019-01-04T14:17:57Z</time>
      </trkpt>
      <trkpt lat="43.35204" lon="5.7608">
        <ele>441</ele>
        <time>2019-01-04T14:18:01Z</time>
      </trkpt>
      <trkpt lat="43.35207" lon="5.76073">
        <ele>441</ele>
        <time>2019-01-04T14:18:06Z</time>
      </trkpt>
      <trkpt lat="43.35208" lon="5.76068">
        <ele>440</ele>
        <time>2019-01-04T14:18:10Z</time>
      </trkpt>
      <trkpt lat="43.3521" lon="5.76062">
        <ele>439</ele>
        <time>2019-01-04T14:18:14Z</time>
      </trkpt>
      <trkpt lat="43.35213" lon="5.76056">
        <ele>438</ele>
        <time>2019-01-04T14:18:18Z</time>
      </trkpt>
      <trkpt lat="43.35216" lon="5.76052">
        <ele>437</ele>
        <time>2019-01-04T14:18:22Z</time>
      </trkpt>
      <trkpt lat="43.3522" lon="5.76046">
        <ele>437</ele>
        <time>2019-01-04T14:18:27Z</time>
      </trkpt>
      <trkpt lat="43.35222" lon="5.76041">
        <ele>436</ele>
        <time>2019-01-04T14:18:31Z</time>
      </trkpt>
      <trkpt lat="43.35226" lon="5.76036">
        <ele>436</ele>
        <time>2019-01-04T14:18:36Z</time>
      </trkpt>
      <trkpt lat="43.35321" lon="5.75952">
        <ele>420</ele>
        <time>2019-01-04T14:25:04Z</time>
      </trkpt>
      <trkpt lat="43.35327" lon="5.75949">
        <ele>419</ele>
        <time>2019-01-04T14:25:10Z</time>
      </trkpt>
      <trkpt lat="43.35332" lon="5.7595">
        <ele>415</ele>
        <time>2019-01-04T14:25:17Z</time>
      </trkpt>
      <trkpt lat="43.35337" lon="5.75949">
        <ele>414</ele>
        <time>2019-01-04T14:25:22Z</time>
      </trkpt>
      <trkpt lat="43.35342" lon="5.75947">
        <ele>415</ele>
        <time>2019-01-04T14:25:27Z</time>
      </trkpt>
      <trkpt lat="43.35347" lon="5.75945">
        <ele>415</ele>
        <time>2019-01-04T14:25:33Z</time>
      </trkpt>
      <trkpt lat="43.35352" lon="5.75943">
        <ele>415</ele>
        <time>2019-01-04T14:25:38Z</time>
      </trkpt>
      <trkpt lat="43.35356" lon="5.75943">
        <ele>415</ele>
        <time>2019-01-04T14:25:45Z</time>
      </trkpt>
      <trkpt lat="43.35361" lon="5.75942">
        <ele>415</ele>
        <time>2019-01-04T14:25:51Z</time>
      </trkpt>
      <trkpt lat="43.35366" lon="5.75939">
        <ele>416</ele>
        <time>2019-01-04T14:25:57Z</time>
      </trkpt>
      <trkpt lat="43.3537" lon="5.75935">
        <ele>416</ele>
        <time>2019-01-04T14:26:02Z</time>
      </trkpt>
      <trkpt lat="43.35374" lon="5.75932">
        <ele>418</ele>
        <time>2019-01-04T14:26:06Z</time>
      </trkpt>
      <trkpt lat="43.35379" lon="5.75929">
        <ele>419</ele>
        <time>2019-01-04T14:26:10Z</time>
      </trkpt>
      <trkpt lat="43.35384" lon="5.75925">
        <ele>420</ele>
        <time>2019-01-04T14:26:14Z</time>
      </trkpt>
      <trkpt lat="43.35389" lon="5.75922">
        <ele>420</ele>
        <time>2019-01-04T14:26:18Z</time>
      </trkpt>
      <trkpt lat="43.35392" lon="5.75917">
        <ele>421</ele>
        <time>2019-01-04T14:26:22Z</time>
      </trkpt>
      <trkpt lat="43.35395" lon="5.75913">
        <ele>421</ele>
        <time>2019-01-04T14:26:26Z</time>
      </trkpt>
      <trkpt lat="43.35398" lon="5.75908">
        <ele>421</ele>
        <time>2019-01-04T14:26:30Z</time>
      </trkpt>
      <trkpt lat="43.35401" lon="5.75903">
        <ele>421</ele>
        <time>2019-01-04T14:26:34Z</time>
      </trkpt>
      <trkpt lat="43.35404" lon="5.75898">
        <ele>421</ele>
        <time>2019-01-04T14:26:38Z</time>
      </trkpt>
      <trkpt lat="43.35408" lon="5.75892">
        <ele>420</ele>
        <time>2019-01-04T14:26:43Z</time>
      </trkpt>
      <trkpt lat="43.35411" lon="5.75888">
        <ele>420</ele>
        <time>2019-01-04T14:26:47Z</time>
      </trkpt>
      <trkpt lat="43.35414" lon="5.75882">
        <ele>420</ele>
        <time>2019-01-04T14:26:51Z</time>
      </trkpt>
      <trkpt lat="43.35417" lon="5.75877">
        <ele>420</ele>
        <time>2019-01-04T14:26:55Z</time>
      </trkpt>
      <trkpt lat="43.3542" lon="5.75872">
        <ele>420</ele>
        <time>2019-01-04T14:26:59Z</time>
      </trkpt>
      <trkpt lat="43.35423" lon="5.75868">
        <ele>420</ele>
        <time>2019-01-04T14:27:03Z</time>
      </trkpt>
      <trkpt lat="43.35426" lon="5.75861">
        <ele>420</ele>
        <time>2019-01-04T14:27:08Z</time>
      </trkpt>
      <trkpt lat="43.3543" lon="5.75856">
        <ele>419</ele>
        <time>2019-01-04T14:27:12Z</time>
      </trkpt>
      <trkpt lat="43.35434" lon="5.75852">
        <ele>419</ele>
        <time>2019-01-04T14:27:17Z</time>
      </trkpt>
      <trkpt lat="43.35437" lon="5.75846">
        <ele>419</ele>
        <time>2019-01-04T14:27:22Z</time>
      </trkpt>
      <trkpt lat="43.35441" lon="5.75842">
        <ele>419</ele>
        <time>2019-01-04T14:27:26Z</time>
      </trkpt>
      <trkpt lat="43.35445" lon="5.75838">
        <ele>418</ele>
        <time>2019-01-04T14:27:30Z</time>
      </trkpt>
      <trkpt lat="43.35449" lon="5.75834">
        <ele>418</ele>
        <time>2019-01-04T14:27:35Z</time>
      </trkpt>
      <trkpt lat="43.35453" lon="5.75829">
        <ele>418</ele>
        <time>2019-01-04T14:27:41Z</time>
      </trkpt>
      <trkpt lat="43.35457" lon="5.75825">
        <ele>418</ele>
        <time>2019-01-04T14:27:47Z</time>
      </trkpt>
      <trkpt lat="43.3546" lon="5.75821">
        <ele>417</ele>
        <time>2019-01-04T14:27:51Z</time>
      </trkpt>
      <trkpt lat="43.35465" lon="5.75816">
        <ele>418</ele>
        <time>2019-01-04T14:27:55Z</time>
      </trkpt>
      <trkpt lat="43.35469" lon="5.75812">
        <ele>418</ele>
        <time>2019-01-04T14:27:58Z</time>
      </trkpt>
      <trkpt lat="43.35471" lon="5.75806">
        <ele>418</ele>
        <time>2019-01-04T14:28:04Z</time>
      </trkpt>
      <trkpt lat="43.35475" lon="5.75801">
        <ele>418</ele>
        <time>2019-01-04T14:28:08Z</time>
      </trkpt>
      <trkpt lat="43.3548" lon="5.758">
        <ele>419</ele>
        <time>2019-01-04T14:28:12Z</time>
      </trkpt>
      <trkpt lat="43.35485" lon="5.75798">
        <ele>420</ele>
        <time>2019-01-04T14:28:17Z</time>
      </trkpt>
      <trkpt lat="43.35489" lon="5.75794">
        <ele>420</ele>
        <time>2019-01-04T14:28:22Z</time>
      </trkpt>
      <trkpt lat="43.35493" lon="5.75789">
        <ele>421</ele>
        <time>2019-01-04T14:28:27Z</time>
      </trkpt>
      <trkpt lat="43.35498" lon="5.75786">
        <ele>422</ele>
        <time>2019-01-04T14:28:32Z</time>
      </trkpt>
      <trkpt lat="43.35503" lon="5.75784">
        <ele>423</ele>
        <time>2019-01-04T14:28:36Z</time>
      </trkpt>
      <trkpt lat="43.35508" lon="5.75781">
        <ele>423</ele>
        <time>2019-01-04T14:28:40Z</time>
      </trkpt>
      <trkpt lat="43.35512" lon="5.75779">
        <ele>423</ele>
        <time>2019-01-04T14:28:44Z</time>
      </trkpt>
      <trkpt lat="43.35518" lon="5.75776">
        <ele>423</ele>
        <time>2019-01-04T14:28:49Z</time>
      </trkpt>
      <trkpt lat="43.35523" lon="5.75773">
        <ele>423</ele>
        <time>2019-01-04T14:28:53Z</time>
      </trkpt>
      <trkpt lat="43.35528" lon="5.75772">
        <ele>423</ele>
        <time>2019-01-04T14:28:58Z</time>
      </trkpt>
      <trkpt lat="43.35533" lon="5.7577">
        <ele>422</ele>
        <time>2019-01-04T14:29:02Z</time>
      </trkpt>
      <trkpt lat="43.35537" lon="5.75768">
        <ele>421</ele>
        <time>2019-01-04T14:29:06Z</time>
      </trkpt>
      <trkpt lat="43.35542" lon="5.75763">
        <ele>421</ele>
        <time>2019-01-04T14:29:15Z</time>
      </trkpt>
      <trkpt lat="43.35545" lon="5.75759">
        <ele>420</ele>
        <time>2019-01-04T14:29:19Z</time>
      </trkpt>
      <trkpt lat="43.3555" lon="5.75755">
        <ele>420</ele>
        <time>2019-01-04T14:29:23Z</time>
      </trkpt>
      <trkpt lat="43.35554" lon="5.75752">
        <ele>420</ele>
        <time>2019-01-04T14:29:27Z</time>
      </trkpt>
      <trkpt lat="43.35557" lon="5.75747">
        <ele>421</ele>
        <time>2019-01-04T14:29:32Z</time>
      </trkpt>
      <trkpt lat="43.35561" lon="5.75743">
        <ele>421</ele>
        <time>2019-01-04T14:29:37Z</time>
      </trkpt>
      <trkpt lat="43.35566" lon="5.7574">
        <ele>421</ele>
        <time>2019-01-04T14:29:42Z</time>
      </trkpt>
      <trkpt lat="43.35572" lon="5.75738">
        <ele>421</ele>
        <time>2019-01-04T14:29:45Z</time>
      </trkpt>
      <trkpt lat="43.35577" lon="5.75735">
        <ele>421</ele>
        <time>2019-01-04T14:29:48Z</time>
      </trkpt>
      <trkpt lat="43.35581" lon="5.75732">
        <ele>421</ele>
        <time>2019-01-04T14:29:52Z</time>
      </trkpt>
      <trkpt lat="43.35587" lon="5.7573">
        <ele>421</ele>
        <time>2019-01-04T14:29:58Z</time>
      </trkpt>
      <trkpt lat="43.35591" lon="5.75726">
        <ele>421</ele>
        <time>2019-01-04T14:30:02Z</time>
      </trkpt>
      <trkpt lat="43.35596" lon="5.75722">
        <ele>421</ele>
        <time>2019-01-04T14:30:06Z</time>
      </trkpt>
      <trkpt lat="43.35598" lon="5.75716">
        <ele>420</ele>
        <time>2019-01-04T14:30:11Z</time>
      </trkpt>
      <trkpt lat="43.35601" lon="5.7571">
        <ele>419</ele>
        <time>2019-01-04T14:30:16Z</time>
      </trkpt>
      <trkpt lat="43.35605" lon="5.75706">
        <ele>418</ele>
        <time>2019-01-04T14:30:19Z</time>
      </trkpt>
      <trkpt lat="43.35608" lon="5.75702">
        <ele>417</ele>
        <time>2019-01-04T14:30:24Z</time>
      </trkpt>
      <trkpt lat="43.35612" lon="5.75698">
        <ele>416</ele>
        <time>2019-01-04T14:30:27Z</time>
      </trkpt>
      <trkpt lat="43.35616" lon="5.75693">
        <ele>416</ele>
        <time>2019-01-04T14:30:32Z</time>
      </trkpt>
      <trkpt lat="43.3562" lon="5.75689">
        <ele>416</ele>
        <time>2019-01-04T14:30:37Z</time>
      </trkpt>
      <trkpt lat="43.35624" lon="5.75686">
        <ele>416</ele>
        <time>2019-01-04T14:30:44Z</time>
      </trkpt>
      <trkpt lat="43.35628" lon="5.75682">
        <ele>415</ele>
        <time>2019-01-04T14:30:49Z</time>
      </trkpt>
      <trkpt lat="43.35632" lon="5.75678">
        <ele>415</ele>
        <time>2019-01-04T14:30:53Z</time>
      </trkpt>
      <trkpt lat="43.35635" lon="5.75673">
        <ele>415</ele>
        <time>2019-01-04T14:30:57Z</time>
      </trkpt>
      <trkpt lat="43.35638" lon="5.75667">
        <ele>415</ele>
        <time>2019-01-04T14:31:03Z</time>
      </trkpt>
      <trkpt lat="43.35641" lon="5.75662">
        <ele>416</ele>
        <time>2019-01-04T14:31:07Z</time>
      </trkpt>
      <trkpt lat="43.35645" lon="5.75659">
        <ele>416</ele>
        <time>2019-01-04T14:31:10Z</time>
      </trkpt>
      <trkpt lat="43.3565" lon="5.75655">
        <ele>417</ele>
        <time>2019-01-04T14:31:14Z</time>
      </trkpt>
      <trkpt lat="43.35654" lon="5.75654">
        <ele>416</ele>
        <time>2019-01-04T14:31:20Z</time>
      </trkpt>
      <trkpt lat="43.35659" lon="5.75651">
        <ele>416</ele>
        <time>2019-01-04T14:31:25Z</time>
      </trkpt>
      <trkpt lat="43.35664" lon="5.75648">
        <ele>415</ele>
        <time>2019-01-04T14:31:30Z</time>
      </trkpt>
      <trkpt lat="43.35668" lon="5.75644">
        <ele>414</ele>
        <time>2019-01-04T14:31:35Z</time>
      </trkpt>
      <trkpt lat="43.35672" lon="5.75641">
        <ele>413</ele>
        <time>2019-01-04T14:31:39Z</time>
      </trkpt>
      <trkpt lat="43.35677" lon="5.7564">
        <ele>412</ele>
        <time>2019-01-04T14:31:42Z</time>
      </trkpt>
      <trkpt lat="43.35682" lon="5.75641">
        <ele>412</ele>
        <time>2019-01-04T14:31:47Z</time>
      </trkpt>
      <trkpt lat="43.35687" lon="5.75638">
        <ele>412</ele>
        <time>2019-01-04T14:31:51Z</time>
      </trkpt>
      <trkpt lat="43.35691" lon="5.75634">
        <ele>412</ele>
        <time>2019-01-04T14:31:55Z</time>
      </trkpt>
      <trkpt lat="43.35696" lon="5.7563">
        <ele>412</ele>
        <time>2019-01-04T14:32:01Z</time>
      </trkpt>
      <trkpt lat="43.35701" lon="5.75629">
        <ele>413</ele>
        <time>2019-01-04T14:32:05Z</time>
      </trkpt>
      <trkpt lat="43.35706" lon="5.7563">
        <ele>413</ele>
        <time>2019-01-04T14:32:10Z</time>
      </trkpt>
      <trkpt lat="43.35711" lon="5.75627">
        <ele>413</ele>
        <time>2019-01-04T14:32:14Z</time>
      </trkpt>
      <trkpt lat="43.35715" lon="5.75624">
        <ele>414</ele>
        <time>2019-01-04T14:32:18Z</time>
      </trkpt>
      <trkpt lat="43.3572" lon="5.75622">
        <ele>414</ele>
        <time>2019-01-04T14:32:23Z</time>
      </trkpt>
      <trkpt lat="43.35723" lon="5.75618">
        <ele>414</ele>
        <time>2019-01-04T14:32:27Z</time>
      </trkpt>
      <trkpt lat="43.35725" lon="5.75611">
        <ele>413</ele>
        <time>2019-01-04T14:32:32Z</time>
      </trkpt>
      <trkpt lat="43.35729" lon="5.75604">
        <ele>413</ele>
        <time>2019-01-04T14:32:36Z</time>
      </trkpt>
      <trkpt lat="43.3573" lon="5.75598">
        <ele>413</ele>
        <time>2019-01-04T14:32:39Z</time>
      </trkpt>
      <trkpt lat="43.35732" lon="5.75591">
        <ele>412</ele>
        <time>2019-01-04T14:32:44Z</time>
      </trkpt>
      <trkpt lat="43.35734" lon="5.75585">
        <ele>412</ele>
        <time>2019-01-04T14:32:48Z</time>
      </trkpt>
      <trkpt lat="43.35736" lon="5.7558">
        <ele>412</ele>
        <time>2019-01-04T14:32:51Z</time>
      </trkpt>
      <trkpt lat="43.3574" lon="5.75575">
        <ele>412</ele>
        <time>2019-01-04T14:32:55Z</time>
      </trkpt>
      <trkpt lat="43.35745" lon="5.7557">
        <ele>412</ele>
        <time>2019-01-04T14:32:59Z</time>
      </trkpt>
      <trkpt lat="43.35749" lon="5.75566">
        <ele>412</ele>
        <time>2019-01-04T14:33:04Z</time>
      </trkpt>
      <trkpt lat="43.35751" lon="5.7556">
        <ele>412</ele>
        <time>2019-01-04T14:33:07Z</time>
      </trkpt>
      <trkpt lat="43.35753" lon="5.75554">
        <ele>412</ele>
        <time>2019-01-04T14:33:12Z</time>
      </trkpt>
      <trkpt lat="43.35757" lon="5.75551">
        <ele>411</ele>
        <time>2019-01-04T14:33:18Z</time>
      </trkpt>
      <trkpt lat="43.35762" lon="5.75546">
        <ele>411</ele>
        <time>2019-01-04T14:33:24Z</time>
      </trkpt>
      <trkpt lat="43.35764" lon="5.75542">
        <ele>411</ele>
        <time>2019-01-04T14:33:28Z</time>
      </trkpt>
      <trkpt lat="43.35767" lon="5.75535">
        <ele>411</ele>
        <time>2019-01-04T14:33:35Z</time>
      </trkpt>
      <trkpt lat="43.3577" lon="5.7553">
        <ele>411</ele>
        <time>2019-01-04T14:33:40Z</time>
      </trkpt>
      <trkpt lat="43.35771" lon="5.75524">
        <ele>411</ele>
        <time>2019-01-04T14:33:46Z</time>
      </trkpt>
      <trkpt lat="43.35772" lon="5.75517">
        <ele>411</ele>
        <time>2019-01-04T14:33:50Z</time>
      </trkpt>
      <trkpt lat="43.35776" lon="5.75511">
        <ele>411</ele>
        <time>2019-01-04T14:33:58Z</time>
      </trkpt>
      <trkpt lat="43.35779" lon="5.75507">
        <ele>411</ele>
        <time>2019-01-04T14:34:03Z</time>
      </trkpt>
      <trkpt lat="43.35783" lon="5.75504">
        <ele>411</ele>
        <time>2019-01-04T14:34:10Z</time>
      </trkpt>
      <trkpt lat="43.35786" lon="5.75499">
        <ele>411</ele>
        <time>2019-01-04T14:34:17Z</time>
      </trkpt>
      <trkpt lat="43.35788" lon="5.75493">
        <ele>411</ele>
        <time>2019-01-04T14:34:32Z</time>
      </trkpt>
      <trkpt lat="43.35791" lon="5.75487">
        <ele>411</ele>
        <time>2019-01-04T14:34:38Z</time>
      </trkpt>
      <trkpt lat="43.35794" lon="5.75482">
        <ele>411</ele>
        <time>2019-01-04T14:34:43Z</time>
      </trkpt>
      <trkpt lat="43.35797" lon="5.75477">
        <ele>411</ele>
        <time>2019-01-04T14:34:47Z</time>
      </trkpt>
      <trkpt lat="43.35798" lon="5.75471">
        <ele>410</ele>
        <time>2019-01-04T14:34:51Z</time>
      </trkpt>
      <trkpt lat="43.35801" lon="5.75466">
        <ele>410</ele>
        <time>2019-01-04T14:34:55Z</time>
      </trkpt>
      <trkpt lat="43.35804" lon="5.75461">
        <ele>409</ele>
        <time>2019-01-04T14:34:59Z</time>
      </trkpt>
      <trkpt lat="43.35808" lon="5.75455">
        <ele>409</ele>
        <time>2019-01-04T14:35:02Z</time>
      </trkpt>
      <trkpt lat="43.35811" lon="5.75448">
        <ele>408</ele>
        <time>2019-01-04T14:35:07Z</time>
      </trkpt>
      <trkpt lat="43.35813" lon="5.75443">
        <ele>408</ele>
        <time>2019-01-04T14:35:11Z</time>
      </trkpt>
      <trkpt lat="43.35818" lon="5.75439">
        <ele>408</ele>
        <time>2019-01-04T14:35:16Z</time>
      </trkpt>
      <trkpt lat="43.35821" lon="5.75433">
        <ele>408</ele>
        <time>2019-01-04T14:35:21Z</time>
      </trkpt>
      <trkpt lat="43.35823" lon="5.75427">
        <ele>408</ele>
        <time>2019-01-04T14:35:26Z</time>
      </trkpt>
      <trkpt lat="43.35827" lon="5.75422">
        <ele>407</ele>
        <time>2019-01-04T14:35:31Z</time>
      </trkpt>
      <trkpt lat="43.35829" lon="5.75416">
        <ele>407</ele>
        <time>2019-01-04T14:35:36Z</time>
      </trkpt>
      <trkpt lat="43.35833" lon="5.75412">
        <ele>406</ele>
        <time>2019-01-04T14:35:40Z</time>
      </trkpt>
      <trkpt lat="43.35838" lon="5.75409">
        <ele>406</ele>
        <time>2019-01-04T14:35:45Z</time>
      </trkpt>
      <trkpt lat="43.35841" lon="5.75404">
        <ele>405</ele>
        <time>2019-01-04T14:35:50Z</time>
      </trkpt>
      <trkpt lat="43.35844" lon="5.75398">
        <ele>405</ele>
        <time>2019-01-04T14:35:54Z</time>
      </trkpt>
      <trkpt lat="43.35848" lon="5.75394">
        <ele>405</ele>
        <time>2019-01-04T14:35:59Z</time>
      </trkpt>
      <trkpt lat="43.35851" lon="5.75389">
        <ele>406</ele>
        <time>2019-01-04T14:36:04Z</time>
      </trkpt>
      <trkpt lat="43.35856" lon="5.7539">
        <ele>406</ele>
        <time>2019-01-04T14:36:20Z</time>
      </trkpt>
      <trkpt lat="43.35861" lon="5.75387">
        <ele>407</ele>
        <time>2019-01-04T14:36:26Z</time>
      </trkpt>
      <trkpt lat="43.35863" lon="5.75382">
        <ele>407</ele>
        <time>2019-01-04T14:36:34Z</time>
      </trkpt>
      <trkpt lat="43.35865" lon="5.75375">
        <ele>408</ele>
        <time>2019-01-04T14:36:40Z</time>
      </trkpt>
      <trkpt lat="43.35869" lon="5.75371">
        <ele>408</ele>
        <time>2019-01-04T14:36:48Z</time>
      </trkpt>
      <trkpt lat="43.35872" lon="5.75366">
        <ele>408</ele>
        <time>2019-01-04T14:36:52Z</time>
      </trkpt>
      <trkpt lat="43.35876" lon="5.75361">
        <ele>408</ele>
        <time>2019-01-04T14:36:57Z</time>
      </trkpt>
      <trkpt lat="43.3588" lon="5.75357">
        <ele>409</ele>
        <time>2019-01-04T14:37:02Z</time>
      </trkpt>
      <trkpt lat="43.35884" lon="5.75352">
        <ele>409</ele>
        <time>2019-01-04T14:37:07Z</time>
      </trkpt>
      <trkpt lat="43.35886" lon="5.75347">
        <ele>409</ele>
        <time>2019-01-04T14:37:11Z</time>
      </trkpt>
      <trkpt lat="43.35889" lon="5.75341">
        <ele>410</ele>
        <time>2019-01-04T14:37:16Z</time>
      </trkpt>
      <trkpt lat="43.35894" lon="5.7534">
        <ele>410</ele>
        <time>2019-01-04T14:37:20Z</time>
      </trkpt>
      <trkpt lat="43.35899" lon="5.7534">
        <ele>411</ele>
        <time>2019-01-04T14:37:27Z</time>
      </trkpt>
      <trkpt lat="43.35903" lon="5.75343">
        <ele>411</ele>
        <time>2019-01-04T14:37:42Z</time>
      </trkpt>
      <trkpt lat="43.35904" lon="5.75344">
        <ele>411</ele>
        <time>2019-01-04T14:38:08Z</time>
      </trkpt>
      <trkpt lat="43.35906" lon="5.75336">
        <ele>412</ele>
        <time>2019-01-04T14:38:11Z</time>
      </trkpt>
      <trkpt lat="43.3591" lon="5.75342">
        <ele>412</ele>
        <time>2019-01-04T14:38:33Z</time>
      </trkpt>
      <trkpt lat="43.35911" lon="5.75344">
        <ele>411</ele>
        <time>2019-01-04T14:38:53Z</time>
      </trkpt>
      <trkpt lat="43.35913" lon="5.7534">
        <ele>412</ele>
        <time>2019-01-04T14:38:57Z</time>
      </trkpt>
      <trkpt lat="43.35907" lon="5.75343">
        <ele>411</ele>
        <time>2019-01-04T14:38:57Z</time>
      </trkpt>
      <trkpt lat="43.35911" lon="5.75346">
        <ele>409</ele>
        <time>2019-01-04T14:39:00Z</time>
      </trkpt>
      <trkpt lat="43.35916" lon="5.75346">
        <ele>408</ele>
        <time>2019-01-04T14:39:09Z</time>
      </trkpt>
      <trkpt lat="43.3592" lon="5.75345">
        <ele>409</ele>
        <time>2019-01-04T14:39:15Z</time>
      </trkpt>
      <trkpt lat="43.35925" lon="5.75347">
        <ele>407</ele>
        <time>2019-01-04T14:39:36Z</time>
      </trkpt>
      <trkpt lat="43.35931" lon="5.75348">
        <ele>408</ele>
        <time>2019-01-04T14:39:41Z</time>
      </trkpt>
      <trkpt lat="43.35934" lon="5.75343">
        <ele>410</ele>
        <time>2019-01-04T14:39:46Z</time>
      </trkpt>
      <trkpt lat="43.35933" lon="5.75342">
        <ele>410</ele>
        <time>2019-01-04T14:40:08Z</time>
      </trkpt>
      <trkpt lat="43.35929" lon="5.75339">
        <ele>410</ele>
        <time>2019-01-04T14:40:12Z</time>
      </trkpt>
      <trkpt lat="43.35935" lon="5.7535">
        <ele>408</ele>
        <time>2019-01-04T14:40:13Z</time>
      </trkpt>
      <trkpt lat="43.35931" lon="5.75334">
        <ele>407</ele>
        <time>2019-01-04T14:40:14Z</time>
      </trkpt>
      <trkpt lat="43.35935" lon="5.75337">
        <ele>405</ele>
        <time>2019-01-04T14:40:22Z</time>
      </trkpt>
      <trkpt lat="43.35958" lon="5.75461">
        <ele>432.22265625</ele>
      </trkpt>
      <trkpt lat="43.35924" lon="5.75569">
        <ele>439.9453125</ele>
      </trkpt>
      <trkpt lat="43.36024" lon="5.75899">
        <ele>485.8515625</ele>
      </trkpt>
      <trkpt lat="43.36059" lon="5.7601">
        <ele>500.59375</ele>
      </trkpt>
      <trkpt lat="43.36154" lon="5.76037">
        <ele>518.3671875</ele>
      </trkpt>
      <trkpt lat="43.36228" lon="5.76189">
        <ele>522.40625</ele>
      </trkpt>
      <trkpt lat="43.3625" lon="5.76215">
        <ele>520.90625</ele>
      </trkpt>
      <trkpt lat="43.36255" lon="5.76222">
        <ele>517.32421875</ele>
      </trkpt>
      <trkpt lat="43.36268" lon="5.7623">
        <ele>511.87109375</ele>
      </trkpt>
      <trkpt lat="43.36271" lon="5.76243">
        <ele>510.65234375</ele>
      </trkpt>
      <trkpt lat="43.36335" lon="5.76358">
        <ele>503.24609375</ele>
      </trkpt>
      <trkpt lat="43.36362" lon="5.76339">
        <ele>498.77734375</ele>
      </trkpt>
      <trkpt lat="43.36419" lon="5.76302">
        <ele>498.35546875</ele>
      </trkpt>
      <trkpt lat="43.36469" lon="5.76434">
        <ele>501.97265625</ele>
      </trkpt>
      <trkpt lat="43.3647" lon="5.76448">
        <ele>503.1015625</ele>
      </trkpt>
      <trkpt lat="43.36486" lon="5.76461">
        <ele>501.44921875</ele>
      </trkpt>
      <trkpt lat="43.36521" lon="5.7644">
        <ele>492.703125</ele>
      </trkpt>
      <trkpt lat="43.36551" lon="5.76444">
        <ele>487.625</ele>
      </trkpt>
      <trkpt lat="43.36585" lon="5.76494">
        <ele>485.515625</ele>
      </trkpt>
      <trkpt lat="43.36614" lon="5.76571">
        <ele>486.1328125</ele>
      </trkpt>
      <trkpt lat="43.36629" lon="5.76609">
        <ele>486.58203125</ele>
      </trkpt>
      <trkpt lat="43.36742" lon="5.76663">
        <ele>471.89453125</ele>
      </trkpt>
      <trkpt lat="43.36795" lon="5.76718">
        <ele>467.35546875</ele>
      </trkpt>
      <trkpt lat="43.36872" lon="5.76792">
        <ele>455.23046875</ele>
      </trkpt>
      <trkpt lat="43.36918" lon="5.76881">
        <ele>447.9921875</ele>
      </trkpt>
      <trkpt lat="43.3696" lon="5.76981">
        <ele>444.71484375</ele>
      </trkpt>
      <trkpt lat="43.37042" lon="5.77051">
        <ele>434.60546875</ele>
      </trkpt>
      <trkpt lat="43.37085" lon="5.77086">
        <ele>430.32421875</ele>
      </trkpt>
      <trkpt lat="43.37111" lon="5.77109">
        <ele>427.79296875</ele>
      </trkpt>
      <trkpt lat="43.37132" lon="5.77198">
        <ele>422.37890625</ele>
      </trkpt>
      <trkpt lat="43.37136" lon="5.77247">
        <ele>418.8515625</ele>
      </trkpt>
      <trkpt lat="43.37108" lon="5.7745">
        <ele>412.140625</ele>
      </trkpt>
      <trkpt lat="43.37093" lon="5.77593">
        <ele>408.63671875</ele>
      </trkpt>
      <trkpt lat="43.3717" lon="5.77613">
        <ele>405.765625</ele>
      </trkpt>
      <trkpt lat="43.37251" lon="5.77577">
        <ele>405.09765625</ele>
      </trkpt>
      <trkpt lat="43.37257" lon="5.77577">
        <ele>404.97265625</ele>
      </trkpt>
      <trkpt lat="43.37234" lon="5.77715">
        <ele>400.54296875</ele>
      </trkpt>
      <trkpt lat="43.3722" lon="5.77865">
        <ele>396.48828125</ele>
      </trkpt>
      <trkpt lat="43.37001" lon="5.7784">
        <ele>410.9296875</ele>
      </trkpt>
      <trkpt lat="43.36997" lon="5.77939">
        <ele>407.8359375</ele>
      </trkpt>
      <trkpt lat="43.37003" lon="5.78096">
        <ele>403.00390625</ele>
      </trkpt>
      <trkpt lat="43.36974" lon="5.78167">
        <ele>405.28125</ele>
      </trkpt>
      <trkpt lat="43.36812" lon="5.78091">
        <ele>417.66015625</ele>
      </trkpt>
      <trkpt lat="43.36628" lon="5.78057">
        <ele>426.22265625</ele>
      </trkpt>
    </trkseg>
  </trk>
  <trk>
    <name><![CDATA[Tracé actuel: 12 MAI 2019 11:39]]></name>
    <trkseg>
      <trkpt lat="43.43969" lon="5.86025">
        <ele>318.81</ele>
        <time>2019-05-12T09:39:19Z</time>
      </trkpt>
      <trkpt lat="43.43969" lon="5.86025">
        <ele>318.81</ele>
        <time>2019-05-12T09:39:20Z</time>
      </trkpt>
      <trkpt lat="43.43969" lon="5.86025">
        <ele>337.56</ele>
        <time>2019-05-12T09:39:24Z</time>
      </trkpt>
      <trkpt lat="43.43969" lon="5.86025">
        <ele>337.56</ele>
        <time>2019-05-12T09:39:25Z</time>
      </trkpt>
      <trkpt lat="43.43969" lon="5.86026">
        <ele>337.56</ele>
        <time>2019-05-12T09:39:26Z</time>
      </trkpt>
    </trkseg>
  </trk>
  <trk>
    <name><![CDATA[VTT_CHATEAU_ROUGIERS]]></name>
    <trkseg>
      <trkpt lat="43.43961" lon="5.86023">
        <ele>403.89</ele>
        <time>2019-01-27T09:05:12Z</time>
      </trkpt>
      <trkpt lat="43.43971" lon="5.86029">
        <ele>400.05</ele>
        <time>2019-01-27T09:05:24Z</time>
      </trkpt>
      <trkpt lat="43.4397" lon="5.8603">
        <ele>396.68</ele>
        <time>2019-01-27T09:05:26Z</time>
      </trkpt>
      <trkpt lat="43.4397" lon="5.8603">
        <ele>391.87</ele>
        <time>2019-01-27T09:05:28Z</time>
      </trkpt>
      <trkpt lat="43.4397" lon="5.8603">
        <ele>390.43</ele>
        <time>2019-01-27T09:05:30Z</time>
      </trkpt>
      <trkpt lat="43.4397" lon="5.8603">
        <ele>386.11</ele>
        <time>2019-01-27T09:05:33Z</time>
      </trkpt>
      <trkpt lat="43.4397" lon="5.86031">
        <ele>381.78</ele>
        <time>2019-01-27T09:05:36Z</time>
      </trkpt>
      <trkpt lat="43.43971" lon="5.86031">
        <ele>378.42</ele>
        <time>2019-01-27T09:05:39Z</time>
      </trkpt>
      <trkpt lat="43.43971" lon="5.86031">
        <ele>375.05</ele>
        <time>2019-01-27T09:05:42Z</time>
      </trkpt>
      <trkpt lat="43.43971" lon="5.8603">
        <ele>371.69</ele>
        <time>2019-01-27T09:05:46Z</time>
      </trkpt>
      <trkpt lat="43.43971" lon="5.8603">
        <ele>368.32</ele>
        <time>2019-01-27T09:05:50Z</time>
      </trkpt>
      <trkpt lat="43.43972" lon="5.86029">
        <ele>365.44</ele>
        <time>2019-01-27T09:05:54Z</time>
      </trkpt>
      <trkpt lat="43.43972" lon="5.86029">
        <ele>362.07</ele>
        <time>2019-01-27T09:06:00Z</time>
      </trkpt>
      <trkpt lat="43.43971" lon="5.86029">
        <ele>358.71</ele>
        <time>2019-01-27T09:06:08Z</time>
      </trkpt>
      <trkpt lat="43.4397" lon="5.86026">
        <ele>355.83</ele>
        <time>2019-01-27T09:06:20Z</time>
      </trkpt>
      <trkpt lat="43.43969" lon="5.86027">
        <ele>352.46</ele>
        <time>2019-01-27T09:06:43Z</time>
      </trkpt>
      <trkpt lat="43.43969" lon="5.86028">
        <ele>350.54</ele>
        <time>2019-01-27T09:07:23Z</time>
      </trkpt>
      <trkpt lat="43.43968" lon="5.86028">
        <ele>350.54</ele>
        <time>2019-01-27T09:08:03Z</time>
      </trkpt>
      <trkpt lat="43.43969" lon="5.86027">
        <ele>350.54</ele>
        <time>2019-01-27T09:08:50Z</time>
      </trkpt>
      <trkpt lat="43.43969" lon="5.86026">
        <ele>350.06</ele>
        <time>2019-01-27T09:09:34Z</time>
      </trkpt>
      <trkpt lat="43.43969" lon="5.86027">
        <ele>350.06</ele>
        <time>2019-01-27T09:10:23Z</time>
      </trkpt>
      <trkpt lat="43.4397" lon="5.86028">
        <ele>349.58</ele>
        <time>2019-01-27T09:11:15Z</time>
      </trkpt>
      <trkpt lat="43.4397" lon="5.86028">
        <ele>349.1</ele>
        <time>2019-01-27T09:11:53Z</time>
      </trkpt>
      <trkpt lat="43.43969" lon="5.86031">
        <ele>349.1</ele>
        <time>2019-01-27T09:12:26Z</time>
      </trkpt>
      <trkpt lat="43.4397" lon="5.86026">
        <ele>349.1</ele>
        <time>2019-01-27T09:12:52Z</time>
      </trkpt>
      <trkpt lat="43.43974" lon="5.86026">
        <ele>348.62</ele>
        <time>2019-01-27T09:12:58Z</time>
      </trkpt>
      <trkpt lat="43.43978" lon="5.8602">
        <ele>348.62</ele>
        <time>2019-01-27T09:13:10Z</time>
      </trkpt>
      <trkpt lat="43.43983" lon="5.86018">
        <ele>348.62</ele>
        <time>2019-01-27T09:13:13Z</time>
      </trkpt>
      <trkpt lat="43.43985" lon="5.86019">
        <ele>348.62</ele>
        <time>2019-01-27T09:13:14Z</time>
      </trkpt>
      <trkpt lat="43.43987" lon="5.86022">
        <ele>348.62</ele>
        <time>2019-01-27T09:13:15Z</time>
      </trkpt>
      <trkpt lat="43.4399" lon="5.86026">
        <ele>348.62</ele>
        <time>2019-01-27T09:13:16Z</time>
      </trkpt>
      <trkpt lat="43.43993" lon="5.8603">
        <ele>348.13</ele>
        <time>2019-01-27T09:13:17Z</time>
      </trkpt>
      <trkpt lat="43.44016" lon="5.86058">
        <ele>345.73</ele>
        <time>2019-01-27T09:13:23Z</time>
      </trkpt>
      <trkpt lat="43.4402" lon="5.86063">
        <ele>345.73</ele>
        <time>2019-01-27T09:13:24Z</time>
      </trkpt>
      <trkpt lat="43.44023" lon="5.86069">
        <ele>345.25</ele>
        <time>2019-01-27T09:13:25Z</time>
      </trkpt>
      <trkpt lat="43.44027" lon="5.86075">
        <ele>345.25</ele>
        <time>2019-01-27T09:13:26Z</time>
      </trkpt>
      <trkpt lat="43.4403" lon="5.86081">
        <ele>345.25</ele>
        <time>2019-01-27T09:13:27Z</time>
      </trkpt>
      <trkpt lat="43.44031" lon="5.86088">
        <ele>345.25</ele>
        <time>2019-01-27T09:13:28Z</time>
      </trkpt>
      <trkpt lat="43.44031" lon="5.86095">
        <ele>345.25</ele>
        <time>2019-01-27T09:13:29Z</time>
      </trkpt>
      <trkpt lat="43.44031" lon="5.86102">
        <ele>345.25</ele>
        <time>2019-01-27T09:13:30Z</time>
      </trkpt>
      <trkpt lat="43.4403" lon="5.8611">
        <ele>344.77</ele>
        <time>2019-01-27T09:13:31Z</time>
      </trkpt>
      <trkpt lat="43.44027" lon="5.86169">
        <ele>344.29</ele>
        <time>2019-01-27T09:13:40Z</time>
      </trkpt>
      <trkpt lat="43.44028" lon="5.8619">
        <ele>343.33</ele>
        <time>2019-01-27T09:13:43Z</time>
      </trkpt>
      <trkpt lat="43.44034" lon="5.86234">
        <ele>341.89</ele>
        <time>2019-01-27T09:13:48Z</time>
      </trkpt>
      <trkpt lat="43.44038" lon="5.86265">
        <ele>338.52</ele>
        <time>2019-01-27T09:13:52Z</time>
      </trkpt>
      <trkpt lat="43.4404" lon="5.86278">
        <ele>337.08</ele>
        <time>2019-01-27T09:13:55Z</time>
      </trkpt>
      <trkpt lat="43.44039" lon="5.86289">
        <ele>336.12</ele>
        <time>2019-01-27T09:13:58Z</time>
      </trkpt>
      <trkpt lat="43.44037" lon="5.86291">
        <ele>335.64</ele>
        <time>2019-01-27T09:13:59Z</time>
      </trkpt>
      <trkpt lat="43.44035" lon="5.86292">
        <ele>336.12</ele>
        <time>2019-01-27T09:14:00Z</time>
      </trkpt>
      <trkpt lat="43.43997" lon="5.8628">
        <ele>337.56</ele>
        <time>2019-01-27T09:14:12Z</time>
      </trkpt>
      <trkpt lat="43.43973" lon="5.86212">
        <ele>339.96</ele>
        <time>2019-01-27T09:14:27Z</time>
      </trkpt>
      <trkpt lat="43.43944" lon="5.86135">
        <ele>342.85</ele>
        <time>2019-01-27T09:14:44Z</time>
      </trkpt>
      <trkpt lat="43.43906" lon="5.86047">
        <ele>345.73</ele>
        <time>2019-01-27T09:15:04Z</time>
      </trkpt>
      <trkpt lat="43.4387" lon="5.85971">
        <ele>347.65</ele>
        <time>2019-01-27T09:15:21Z</time>
      </trkpt>
      <trkpt lat="43.43826" lon="5.8589">
        <ele>350.06</ele>
        <time>2019-01-27T09:15:40Z</time>
      </trkpt>
      <trkpt lat="43.43807" lon="5.85857">
        <ele>350.54</ele>
        <time>2019-01-27T09:15:48Z</time>
      </trkpt>
      <trkpt lat="43.43804" lon="5.85853">
        <ele>351.02</ele>
        <time>2019-01-27T09:15:49Z</time>
      </trkpt>
      <trkpt lat="43.43767" lon="5.85787">
        <ele>351.98</ele>
        <time>2019-01-27T09:16:04Z</time>
      </trkpt>
      <trkpt lat="43.4373" lon="5.85714">
        <ele>353.42</ele>
        <time>2019-01-27T09:16:21Z</time>
      </trkpt>
      <trkpt lat="43.43684" lon="5.8565">
        <ele>353.9</ele>
        <time>2019-01-27T09:16:37Z</time>
      </trkpt>
      <trkpt lat="43.4362" lon="5.85572">
        <ele>355.34</ele>
        <time>2019-01-27T09:16:58Z</time>
      </trkpt>
      <trkpt lat="43.43601" lon="5.8555">
        <ele>355.83</ele>
        <time>2019-01-27T09:17:04Z</time>
      </trkpt>
      <trkpt lat="43.43596" lon="5.85547">
        <ele>355.83</ele>
        <time>2019-01-27T09:17:05Z</time>
      </trkpt>
      <trkpt lat="43.43592" lon="5.85546">
        <ele>356.31</ele>
        <time>2019-01-27T09:17:06Z</time>
      </trkpt>
      <trkpt lat="43.43588" lon="5.85547">
        <ele>356.31</ele>
        <time>2019-01-27T09:17:07Z</time>
      </trkpt>
      <trkpt lat="43.43583" lon="5.8555">
        <ele>356.31</ele>
        <time>2019-01-27T09:17:08Z</time>
      </trkpt>
      <trkpt lat="43.43564" lon="5.85557">
        <ele>356.31</ele>
        <time>2019-01-27T09:17:14Z</time>
      </trkpt>
      <trkpt lat="43.43559" lon="5.85557">
        <ele>356.31</ele>
        <time>2019-01-27T09:17:15Z</time>
      </trkpt>
      <trkpt lat="43.43554" lon="5.85556">
        <ele>356.31</ele>
        <time>2019-01-27T09:17:16Z</time>
      </trkpt>
      <trkpt lat="43.43525" lon="5.85551">
        <ele>355.83</ele>
        <time>2019-01-27T09:17:22Z</time>
      </trkpt>
      <trkpt lat="43.43512" lon="5.85547">
        <ele>354.86</ele>
        <time>2019-01-27T09:17:25Z</time>
      </trkpt>
      <trkpt lat="43.43471" lon="5.85529">
        <ele>351.5</ele>
        <time>2019-01-27T09:17:35Z</time>
      </trkpt>
      <trkpt lat="43.43401" lon="5.85498">
        <ele>348.62</ele>
        <time>2019-01-27T09:17:49Z</time>
      </trkpt>
      <trkpt lat="43.43301" lon="5.85455">
        <ele>345.25</ele>
        <time>2019-01-27T09:18:04Z</time>
      </trkpt>
      <trkpt lat="43.43223" lon="5.85421">
        <ele>341.89</ele>
        <time>2019-01-27T09:18:14Z</time>
      </trkpt>
      <trkpt lat="43.43147" lon="5.85379">
        <ele>341.41</ele>
        <time>2019-01-27T09:18:26Z</time>
      </trkpt>
      <trkpt lat="43.43104" lon="5.85334">
        <ele>344.77</ele>
        <time>2019-01-27T09:18:37Z</time>
      </trkpt>
      <trkpt lat="43.4304" lon="5.8525">
        <ele>347.65</ele>
        <time>2019-01-27T09:18:58Z</time>
      </trkpt>
      <trkpt lat="43.43017" lon="5.85225">
        <ele>348.13</ele>
        <time>2019-01-27T09:19:05Z</time>
      </trkpt>
      <trkpt lat="43.42941" lon="5.85178">
        <ele>349.1</ele>
        <time>2019-01-27T09:19:23Z</time>
      </trkpt>
      <trkpt lat="43.42839" lon="5.85119">
        <ele>349.58</ele>
        <time>2019-01-27T09:19:46Z</time>
      </trkpt>
      <trkpt lat="43.42758" lon="5.85111">
        <ele>351.5</ele>
        <time>2019-01-27T09:20:05Z</time>
      </trkpt>
      <trkpt lat="43.42682" lon="5.85109">
        <ele>352.94</ele>
        <time>2019-01-27T09:20:22Z</time>
      </trkpt>
      <trkpt lat="43.42623" lon="5.85121">
        <ele>352.94</ele>
        <time>2019-01-27T09:20:34Z</time>
      </trkpt>
      <trkpt lat="43.4257" lon="5.85158">
        <ele>353.9</ele>
        <time>2019-01-27T09:20:49Z</time>
      </trkpt>
      <trkpt lat="43.42509" lon="5.85212">
        <ele>353.42</ele>
        <time>2019-01-27T09:21:03Z</time>
      </trkpt>
      <trkpt lat="43.42473" lon="5.85229">
        <ele>352.46</ele>
        <time>2019-01-27T09:21:10Z</time>
      </trkpt>
      <trkpt lat="43.42375" lon="5.85257">
        <ele>350.06</ele>
        <time>2019-01-27T09:21:26Z</time>
      </trkpt>
      <trkpt lat="43.42256" lon="5.85283">
        <ele>347.17</ele>
        <time>2019-01-27T09:21:44Z</time>
      </trkpt>
      <trkpt lat="43.42216" lon="5.85291">
        <ele>343.81</ele>
        <time>2019-01-27T09:21:49Z</time>
      </trkpt>
      <trkpt lat="43.42157" lon="5.85303">
        <ele>340.44</ele>
        <time>2019-01-27T09:21:56Z</time>
      </trkpt>
      <trkpt lat="43.42148" lon="5.85304">
        <ele>340.44</ele>
        <time>2019-01-27T09:21:57Z</time>
      </trkpt>
      <trkpt lat="43.42045" lon="5.85308">
        <ele>337.56</ele>
        <time>2019-01-27T09:22:11Z</time>
      </trkpt>
      <trkpt lat="43.42002" lon="5.85295">
        <ele>336.12</ele>
        <time>2019-01-27T09:22:17Z</time>
      </trkpt>
      <trkpt lat="43.41995" lon="5.8529">
        <ele>336.12</ele>
        <time>2019-01-27T09:22:18Z</time>
      </trkpt>
      <trkpt lat="43.41989" lon="5.85285">
        <ele>336.12</ele>
        <time>2019-01-27T09:22:19Z</time>
      </trkpt>
      <trkpt lat="43.41969" lon="5.85268">
        <ele>334.68</ele>
        <time>2019-01-27T09:22:22Z</time>
      </trkpt>
      <trkpt lat="43.41848" lon="5.85169">
        <ele>332.27</ele>
        <time>2019-01-27T09:22:42Z</time>
      </trkpt>
      <trkpt lat="43.41792" lon="5.85119">
        <ele>333.23</ele>
        <time>2019-01-27T09:22:55Z</time>
      </trkpt>
      <trkpt lat="43.4177" lon="5.85082">
        <ele>336.6</ele>
        <time>2019-01-27T09:23:05Z</time>
      </trkpt>
      <trkpt lat="43.41735" lon="5.85025">
        <ele>339.48</ele>
        <time>2019-01-27T09:23:22Z</time>
      </trkpt>
      <trkpt lat="43.41703" lon="5.84999">
        <ele>342.37</ele>
        <time>2019-01-27T09:23:33Z</time>
      </trkpt>
      <trkpt lat="43.41652" lon="5.8498">
        <ele>345.73</ele>
        <time>2019-01-27T09:23:50Z</time>
      </trkpt>
      <trkpt lat="43.41593" lon="5.84986">
        <ele>346.69</ele>
        <time>2019-01-27T09:24:08Z</time>
      </trkpt>
      <trkpt lat="43.41533" lon="5.84976">
        <ele>346.69</ele>
        <time>2019-01-27T09:24:23Z</time>
      </trkpt>
      <trkpt lat="43.41464" lon="5.84959">
        <ele>344.77</ele>
        <time>2019-01-27T09:24:37Z</time>
      </trkpt>
      <trkpt lat="43.41459" lon="5.84956">
        <ele>344.77</ele>
        <time>2019-01-27T09:24:38Z</time>
      </trkpt>
      <trkpt lat="43.41455" lon="5.84954">
        <ele>344.77</ele>
        <time>2019-01-27T09:24:39Z</time>
      </trkpt>
      <trkpt lat="43.4145" lon="5.8495">
        <ele>344.77</ele>
        <time>2019-01-27T09:24:40Z</time>
      </trkpt>
      <trkpt lat="43.41446" lon="5.84947">
        <ele>344.77</ele>
        <time>2019-01-27T09:24:41Z</time>
      </trkpt>
      <trkpt lat="43.41421" lon="5.84916">
        <ele>345.73</ele>
        <time>2019-01-27T09:24:49Z</time>
      </trkpt>
      <trkpt lat="43.41369" lon="5.84853">
        <ele>344.29</ele>
        <time>2019-01-27T09:25:05Z</time>
      </trkpt>
      <trkpt lat="43.41306" lon="5.8475">
        <ele>340.92</ele>
        <time>2019-01-27T09:25:23Z</time>
      </trkpt>
      <trkpt lat="43.41302" lon="5.84743">
        <ele>340.92</ele>
        <time>2019-01-27T09:25:24Z</time>
      </trkpt>
      <trkpt lat="43.4124" lon="5.8462">
        <ele>338.04</ele>
        <time>2019-01-27T09:25:42Z</time>
      </trkpt>
      <trkpt lat="43.41205" lon="5.84555">
        <ele>334.68</ele>
        <time>2019-01-27T09:25:52Z</time>
      </trkpt>
      <trkpt lat="43.41136" lon="5.84482">
        <ele>332.27</ele>
        <time>2019-01-27T09:26:07Z</time>
      </trkpt>
      <trkpt lat="43.4106" lon="5.8444">
        <ele>330.83</ele>
        <time>2019-01-27T09:26:21Z</time>
      </trkpt>
      <trkpt lat="43.41003" lon="5.84397">
        <ele>332.75</ele>
        <time>2019-01-27T09:26:35Z</time>
      </trkpt>
      <trkpt lat="43.40961" lon="5.84357">
        <ele>336.12</ele>
        <time>2019-01-27T09:26:48Z</time>
      </trkpt>
      <trkpt lat="43.40906" lon="5.84327">
        <ele>337.56</ele>
        <time>2019-01-27T09:27:04Z</time>
      </trkpt>
      <trkpt lat="43.40843" lon="5.8431">
        <ele>339</ele>
        <time>2019-01-27T09:27:22Z</time>
      </trkpt>
      <trkpt lat="43.40799" lon="5.84326">
        <ele>339</ele>
        <time>2019-01-27T09:27:33Z</time>
      </trkpt>
      <trkpt lat="43.40739" lon="5.84391">
        <ele>335.64</ele>
        <time>2019-01-27T09:27:46Z</time>
      </trkpt>
      <trkpt lat="43.40713" lon="5.84413">
        <ele>334.2</ele>
        <time>2019-01-27T09:27:50Z</time>
      </trkpt>
      <trkpt lat="43.40694" lon="5.84434">
        <ele>333.71</ele>
        <time>2019-01-27T09:27:53Z</time>
      </trkpt>
      <trkpt lat="43.4069" lon="5.84442">
        <ele>332.75</ele>
        <time>2019-01-27T09:27:54Z</time>
      </trkpt>
      <trkpt lat="43.40685" lon="5.84452">
        <ele>331.79</ele>
        <time>2019-01-27T09:27:55Z</time>
      </trkpt>
      <trkpt lat="43.40681" lon="5.84462">
        <ele>331.31</ele>
        <time>2019-01-27T09:27:56Z</time>
      </trkpt>
      <trkpt lat="43.40678" lon="5.84473">
        <ele>330.83</ele>
        <time>2019-01-27T09:27:57Z</time>
      </trkpt>
      <trkpt lat="43.40675" lon="5.84484">
        <ele>330.83</ele>
        <time>2019-01-27T09:27:58Z</time>
      </trkpt>
      <trkpt lat="43.40668" lon="5.84506">
        <ele>329.39</ele>
        <time>2019-01-27T09:28:00Z</time>
      </trkpt>
      <trkpt lat="43.40664" lon="5.84516">
        <ele>328.91</ele>
        <time>2019-01-27T09:28:01Z</time>
      </trkpt>
      <trkpt lat="43.40659" lon="5.84526">
        <ele>328.43</ele>
        <time>2019-01-27T09:28:02Z</time>
      </trkpt>
      <trkpt lat="43.40653" lon="5.84534">
        <ele>328.43</ele>
        <time>2019-01-27T09:28:03Z</time>
      </trkpt>
      <trkpt lat="43.40647" lon="5.84543">
        <ele>328.43</ele>
        <time>2019-01-27T09:28:04Z</time>
      </trkpt>
      <trkpt lat="43.40641" lon="5.8455">
        <ele>328.43</ele>
        <time>2019-01-27T09:28:05Z</time>
      </trkpt>
      <trkpt lat="43.40614" lon="5.84588">
        <ele>327.95</ele>
        <time>2019-01-27T09:28:10Z</time>
      </trkpt>
      <trkpt lat="43.4061" lon="5.84596">
        <ele>327.95</ele>
        <time>2019-01-27T09:28:11Z</time>
      </trkpt>
      <trkpt lat="43.4056" lon="5.84688">
        <ele>325.06</ele>
        <time>2019-01-27T09:28:23Z</time>
      </trkpt>
      <trkpt lat="43.40556" lon="5.84696">
        <ele>325.06</ele>
        <time>2019-01-27T09:28:24Z</time>
      </trkpt>
      <trkpt lat="43.40552" lon="5.84705">
        <ele>325.06</ele>
        <time>2019-01-27T09:28:25Z</time>
      </trkpt>
      <trkpt lat="43.40533" lon="5.84753">
        <ele>322.66</ele>
        <time>2019-01-27T09:28:30Z</time>
      </trkpt>
      <trkpt lat="43.40527" lon="5.84761">
        <ele>321.7</ele>
        <time>2019-01-27T09:28:31Z</time>
      </trkpt>
      <trkpt lat="43.4052" lon="5.84767">
        <ele>321.7</ele>
        <time>2019-01-27T09:28:32Z</time>
      </trkpt>
      <trkpt lat="43.40513" lon="5.84771">
        <ele>321.7</ele>
        <time>2019-01-27T09:28:33Z</time>
      </trkpt>
      <trkpt lat="43.40506" lon="5.84773">
        <ele>321.7</ele>
        <time>2019-01-27T09:28:34Z</time>
      </trkpt>
      <trkpt lat="43.40498" lon="5.84771">
        <ele>321.7</ele>
        <time>2019-01-27T09:28:35Z</time>
      </trkpt>
      <trkpt lat="43.40491" lon="5.84767">
        <ele>321.7</ele>
        <time>2019-01-27T09:28:36Z</time>
      </trkpt>
      <trkpt lat="43.40485" lon="5.84763">
        <ele>321.7</ele>
        <time>2019-01-27T09:28:37Z</time>
      </trkpt>
      <trkpt lat="43.40473" lon="5.84756">
        <ele>322.18</ele>
        <time>2019-01-27T09:28:39Z</time>
      </trkpt>
      <trkpt lat="43.40467" lon="5.84754">
        <ele>322.18</ele>
        <time>2019-01-27T09:28:40Z</time>
      </trkpt>
      <trkpt lat="43.40461" lon="5.84752">
        <ele>322.18</ele>
        <time>2019-01-27T09:28:41Z</time>
      </trkpt>
      <trkpt lat="43.4038" lon="5.84753">
        <ele>322.18</ele>
        <time>2019-01-27T09:28:57Z</time>
      </trkpt>
      <trkpt lat="43.40295" lon="5.84759">
        <ele>324.58</ele>
        <time>2019-01-27T09:29:17Z</time>
      </trkpt>
      <trkpt lat="43.40237" lon="5.84755">
        <ele>327.95</ele>
        <time>2019-01-27T09:29:33Z</time>
      </trkpt>
      <trkpt lat="43.40181" lon="5.8475">
        <ele>331.31</ele>
        <time>2019-01-27T09:29:51Z</time>
      </trkpt>
      <trkpt lat="43.40137" lon="5.84745">
        <ele>333.71</ele>
        <time>2019-01-27T09:30:07Z</time>
      </trkpt>
      <trkpt lat="43.40097" lon="5.84742">
        <ele>337.08</ele>
        <time>2019-01-27T09:30:21Z</time>
      </trkpt>
      <trkpt lat="43.4005" lon="5.84737">
        <ele>340.44</ele>
        <time>2019-01-27T09:30:37Z</time>
      </trkpt>
      <trkpt lat="43.40009" lon="5.8473">
        <ele>343.81</ele>
        <time>2019-01-27T09:30:51Z</time>
      </trkpt>
      <trkpt lat="43.39976" lon="5.84746">
        <ele>345.73</ele>
        <time>2019-01-27T09:31:04Z</time>
      </trkpt>
      <trkpt lat="43.39944" lon="5.84798">
        <ele>347.65</ele>
        <time>2019-01-27T09:31:19Z</time>
      </trkpt>
      <trkpt lat="43.399" lon="5.84865">
        <ele>349.58</ele>
        <time>2019-01-27T09:31:36Z</time>
      </trkpt>
      <trkpt lat="43.39854" lon="5.84926">
        <ele>350.54</ele>
        <time>2019-01-27T09:31:53Z</time>
      </trkpt>
      <trkpt lat="43.39809" lon="5.84962">
        <ele>352.46</ele>
        <time>2019-01-27T09:32:08Z</time>
      </trkpt>
      <trkpt lat="43.39756" lon="5.84988">
        <ele>354.86</ele>
        <time>2019-01-27T09:32:25Z</time>
      </trkpt>
      <trkpt lat="43.39693" lon="5.85">
        <ele>356.79</ele>
        <time>2019-01-27T09:32:42Z</time>
      </trkpt>
      <trkpt lat="43.39652" lon="5.85035">
        <ele>356.79</ele>
        <time>2019-01-27T09:32:55Z</time>
      </trkpt>
      <trkpt lat="43.39609" lon="5.85079">
        <ele>355.34</ele>
        <time>2019-01-27T09:33:07Z</time>
      </trkpt>
      <trkpt lat="43.39599" lon="5.85088">
        <ele>355.83</ele>
        <time>2019-01-27T09:33:10Z</time>
      </trkpt>
      <trkpt lat="43.39587" lon="5.85097">
        <ele>355.34</ele>
        <time>2019-01-27T09:33:13Z</time>
      </trkpt>
      <trkpt lat="43.39511" lon="5.85114">
        <ele>354.38</ele>
        <time>2019-01-27T09:33:26Z</time>
      </trkpt>
      <trkpt lat="43.39457" lon="5.85108">
        <ele>357.27</ele>
        <time>2019-01-27T09:33:38Z</time>
      </trkpt>
      <trkpt lat="43.39428" lon="5.85107">
        <ele>357.75</ele>
        <time>2019-01-27T09:33:48Z</time>
      </trkpt>
      <trkpt lat="43.39392" lon="5.85102">
        <ele>357.75</ele>
        <time>2019-01-27T09:34:01Z</time>
      </trkpt>
      <trkpt lat="43.39376" lon="5.851">
        <ele>357.75</ele>
        <time>2019-01-27T09:34:11Z</time>
      </trkpt>
      <trkpt lat="43.39373" lon="5.851">
        <ele>357.75</ele>
        <time>2019-01-27T09:34:25Z</time>
      </trkpt>
      <trkpt lat="43.39371" lon="5.85102">
        <ele>357.75</ele>
        <time>2019-01-27T09:34:45Z</time>
      </trkpt>
      <trkpt lat="43.3937" lon="5.85103">
        <ele>357.75</ele>
        <time>2019-01-27T09:34:46Z</time>
      </trkpt>
      <trkpt lat="43.3937" lon="5.85104">
        <ele>357.75</ele>
        <time>2019-01-27T09:34:47Z</time>
      </trkpt>
      <trkpt lat="43.39369" lon="5.85106">
        <ele>357.75</ele>
        <time>2019-01-27T09:34:48Z</time>
      </trkpt>
      <trkpt lat="43.39369" lon="5.85108">
        <ele>357.75</ele>
        <time>2019-01-27T09:34:49Z</time>
      </trkpt>
      <trkpt lat="43.3937" lon="5.85109">
        <ele>357.75</ele>
        <time>2019-01-27T09:34:50Z</time>
      </trkpt>
      <trkpt lat="43.39371" lon="5.85109">
        <ele>357.75</ele>
        <time>2019-01-27T09:34:52Z</time>
      </trkpt>
      <trkpt lat="43.39372" lon="5.85107">
        <ele>357.75</ele>
        <time>2019-01-27T09:34:53Z</time>
      </trkpt>
      <trkpt lat="43.39372" lon="5.85103">
        <ele>357.75</ele>
        <time>2019-01-27T09:34:56Z</time>
      </trkpt>
      <trkpt lat="43.39376" lon="5.85103">
        <ele>357.75</ele>
        <time>2019-01-27T09:35:04Z</time>
      </trkpt>
      <trkpt lat="43.39375" lon="5.85104">
        <ele>357.75</ele>
        <time>2019-01-27T09:35:05Z</time>
      </trkpt>
      <trkpt lat="43.39374" lon="5.85104">
        <ele>357.75</ele>
        <time>2019-01-27T09:35:06Z</time>
      </trkpt>
      <trkpt lat="43.39373" lon="5.85103">
        <ele>357.75</ele>
        <time>2019-01-27T09:35:07Z</time>
      </trkpt>
      <trkpt lat="43.39373" lon="5.85102">
        <ele>357.75</ele>
        <time>2019-01-27T09:35:08Z</time>
      </trkpt>
      <trkpt lat="43.39371" lon="5.851">
        <ele>357.75</ele>
        <time>2019-01-27T09:35:19Z</time>
      </trkpt>
      <trkpt lat="43.3937" lon="5.85102">
        <ele>357.75</ele>
        <time>2019-01-27T09:35:22Z</time>
      </trkpt>
      <trkpt lat="43.39368" lon="5.85104">
        <ele>357.75</ele>
        <time>2019-01-27T09:35:23Z</time>
      </trkpt>
      <trkpt lat="43.39366" lon="5.85104">
        <ele>357.75</ele>
        <time>2019-01-27T09:35:24Z</time>
      </trkpt>
      <trkpt lat="43.39364" lon="5.85105">
        <ele>357.75</ele>
        <time>2019-01-27T09:35:25Z</time>
      </trkpt>
      <trkpt lat="43.39363" lon="5.85104">
        <ele>357.75</ele>
        <time>2019-01-27T09:35:26Z</time>
      </trkpt>
      <trkpt lat="43.39361" lon="5.85104">
        <ele>357.75</ele>
        <time>2019-01-27T09:35:27Z</time>
      </trkpt>
      <trkpt lat="43.39327" lon="5.85097">
        <ele>358.23</ele>
        <time>2019-01-27T09:35:43Z</time>
      </trkpt>
      <trkpt lat="43.39294" lon="5.85095">
        <ele>359.19</ele>
        <time>2019-01-27T09:35:57Z</time>
      </trkpt>
      <trkpt lat="43.39276" lon="5.85109">
        <ele>361.11</ele>
        <time>2019-01-27T09:36:12Z</time>
      </trkpt>
      <trkpt lat="43.39273" lon="5.85112">
        <ele>361.11</ele>
        <time>2019-01-27T09:36:14Z</time>
      </trkpt>
      <trkpt lat="43.39268" lon="5.85113">
        <ele>361.11</ele>
        <time>2019-01-27T09:36:20Z</time>
      </trkpt>
      <trkpt lat="43.39265" lon="5.85113">
        <ele>361.11</ele>
        <time>2019-01-27T09:36:21Z</time>
      </trkpt>
      <trkpt lat="43.39217" lon="5.85117">
        <ele>364</ele>
        <time>2019-01-27T09:36:41Z</time>
      </trkpt>
      <trkpt lat="43.39193" lon="5.85121">
        <ele>365.44</ele>
        <time>2019-01-27T09:36:53Z</time>
      </trkpt>
      <trkpt lat="43.39191" lon="5.85119">
        <ele>365.44</ele>
        <time>2019-01-27T09:36:54Z</time>
      </trkpt>
      <trkpt lat="43.39189" lon="5.85118">
        <ele>365.44</ele>
        <time>2019-01-27T09:36:55Z</time>
      </trkpt>
      <trkpt lat="43.39182" lon="5.85118">
        <ele>366.4</ele>
        <time>2019-01-27T09:37:00Z</time>
      </trkpt>
      <trkpt lat="43.39145" lon="5.85119">
        <ele>368.32</ele>
        <time>2019-01-27T09:37:15Z</time>
      </trkpt>
      <trkpt lat="43.39106" lon="5.85127">
        <ele>371.21</ele>
        <time>2019-01-27T09:37:35Z</time>
      </trkpt>
      <trkpt lat="43.39072" lon="5.85133">
        <ele>373.61</ele>
        <time>2019-01-27T09:37:51Z</time>
      </trkpt>
      <trkpt lat="43.39037" lon="5.85134">
        <ele>376.49</ele>
        <time>2019-01-27T09:38:08Z</time>
      </trkpt>
      <trkpt lat="43.39009" lon="5.85134">
        <ele>379.38</ele>
        <time>2019-01-27T09:38:22Z</time>
      </trkpt>
      <trkpt lat="43.38973" lon="5.8513">
        <ele>382.26</ele>
        <time>2019-01-27T09:38:40Z</time>
      </trkpt>
      <trkpt lat="43.38944" lon="5.85121">
        <ele>385.15</ele>
        <time>2019-01-27T09:38:57Z</time>
      </trkpt>
      <trkpt lat="43.38918" lon="5.8512">
        <ele>387.55</ele>
        <time>2019-01-27T09:39:13Z</time>
      </trkpt>
      <trkpt lat="43.38891" lon="5.85125">
        <ele>390.91</ele>
        <time>2019-01-27T09:39:29Z</time>
      </trkpt>
      <trkpt lat="43.38875" lon="5.85129">
        <ele>393.8</ele>
        <time>2019-01-27T09:39:38Z</time>
      </trkpt>
      <trkpt lat="43.38851" lon="5.85141">
        <ele>395.72</ele>
        <time>2019-01-27T09:39:53Z</time>
      </trkpt>
      <trkpt lat="43.38848" lon="5.85142">
        <ele>395.72</ele>
        <time>2019-01-27T09:40:16Z</time>
      </trkpt>
      <trkpt lat="43.38848" lon="5.85146">
        <ele>395.72</ele>
        <time>2019-01-27T09:40:29Z</time>
      </trkpt>
      <trkpt lat="43.3885" lon="5.8516">
        <ele>396.2</ele>
        <time>2019-01-27T09:40:43Z</time>
      </trkpt>
      <trkpt lat="43.3885" lon="5.85161">
        <ele>396.2</ele>
        <time>2019-01-27T09:40:44Z</time>
      </trkpt>
      <trkpt lat="43.3885" lon="5.85187">
        <ele>397.64</ele>
        <time>2019-01-27T09:41:04Z</time>
      </trkpt>
      <trkpt lat="43.38846" lon="5.85215">
        <ele>400.53</ele>
        <time>2019-01-27T09:41:24Z</time>
      </trkpt>
      <trkpt lat="43.38843" lon="5.85243">
        <ele>402.45</ele>
        <time>2019-01-27T09:41:43Z</time>
      </trkpt>
      <trkpt lat="43.38842" lon="5.85272">
        <ele>403.41</ele>
        <time>2019-01-27T09:42:01Z</time>
      </trkpt>
      <trkpt lat="43.3884" lon="5.85303">
        <ele>405.33</ele>
        <time>2019-01-27T09:42:22Z</time>
      </trkpt>
      <trkpt lat="43.38838" lon="5.85312">
        <ele>405.81</ele>
        <time>2019-01-27T09:42:29Z</time>
      </trkpt>
      <trkpt lat="43.38837" lon="5.85315">
        <ele>406.29</ele>
        <time>2019-01-27T09:42:32Z</time>
      </trkpt>
      <trkpt lat="43.38837" lon="5.85317">
        <ele>406.29</ele>
        <time>2019-01-27T09:42:33Z</time>
      </trkpt>
      <trkpt lat="43.38837" lon="5.85319">
        <ele>406.29</ele>
        <time>2019-01-27T09:42:34Z</time>
      </trkpt>
      <trkpt lat="43.38836" lon="5.8532">
        <ele>406.29</ele>
        <time>2019-01-27T09:42:35Z</time>
      </trkpt>
      <trkpt lat="43.38833" lon="5.85345">
        <ele>408.22</ele>
        <time>2019-01-27T09:42:54Z</time>
      </trkpt>
      <trkpt lat="43.38833" lon="5.85347">
        <ele>408.22</ele>
        <time>2019-01-27T09:42:55Z</time>
      </trkpt>
      <trkpt lat="43.38826" lon="5.85368">
        <ele>409.18</ele>
        <time>2019-01-27T09:43:11Z</time>
      </trkpt>
      <trkpt lat="43.38819" lon="5.85387">
        <ele>410.62</ele>
        <time>2019-01-27T09:43:28Z</time>
      </trkpt>
      <trkpt lat="43.38809" lon="5.85405">
        <ele>411.58</ele>
        <time>2019-01-27T09:43:45Z</time>
      </trkpt>
      <trkpt lat="43.38802" lon="5.85415">
        <ele>412.06</ele>
        <time>2019-01-27T09:43:54Z</time>
      </trkpt>
      <trkpt lat="43.38802" lon="5.85416">
        <ele>413.02</ele>
        <time>2019-01-27T09:43:55Z</time>
      </trkpt>
      <trkpt lat="43.38797" lon="5.8542">
        <ele>413.5</ele>
        <time>2019-01-27T09:44:12Z</time>
      </trkpt>
      <trkpt lat="43.38786" lon="5.85431">
        <ele>413.98</ele>
        <time>2019-01-27T09:44:30Z</time>
      </trkpt>
      <trkpt lat="43.38771" lon="5.85444">
        <ele>415.91</ele>
        <time>2019-01-27T09:44:49Z</time>
      </trkpt>
      <trkpt lat="43.38762" lon="5.85454">
        <ele>416.87</ele>
        <time>2019-01-27T09:45:06Z</time>
      </trkpt>
      <trkpt lat="43.38737" lon="5.8547">
        <ele>418.79</ele>
        <time>2019-01-27T09:45:22Z</time>
      </trkpt>
      <trkpt lat="43.38703" lon="5.85483">
        <ele>421.68</ele>
        <time>2019-01-27T09:45:40Z</time>
      </trkpt>
      <trkpt lat="43.38682" lon="5.8549">
        <ele>425.04</ele>
        <time>2019-01-27T09:45:51Z</time>
      </trkpt>
      <trkpt lat="43.38655" lon="5.85503">
        <ele>426.96</ele>
        <time>2019-01-27T09:46:08Z</time>
      </trkpt>
      <trkpt lat="43.3863" lon="5.85518">
        <ele>428.4</ele>
        <time>2019-01-27T09:46:23Z</time>
      </trkpt>
      <trkpt lat="43.38601" lon="5.85547">
        <ele>431.29</ele>
        <time>2019-01-27T09:46:41Z</time>
      </trkpt>
      <trkpt lat="43.38576" lon="5.85572">
        <ele>435.13</ele>
        <time>2019-01-27T09:46:56Z</time>
      </trkpt>
      <trkpt lat="43.38543" lon="5.85598">
        <ele>437.06</ele>
        <time>2019-01-27T09:47:13Z</time>
      </trkpt>
      <trkpt lat="43.38507" lon="5.85623">
        <ele>438.5</ele>
        <time>2019-01-27T09:47:33Z</time>
      </trkpt>
      <trkpt lat="43.38474" lon="5.85642">
        <ele>439.46</ele>
        <time>2019-01-27T09:47:50Z</time>
      </trkpt>
      <trkpt lat="43.38444" lon="5.85629">
        <ele>441.86</ele>
        <time>2019-01-27T09:48:06Z</time>
      </trkpt>
      <trkpt lat="43.38409" lon="5.85619">
        <ele>443.31</ele>
        <time>2019-01-27T09:48:23Z</time>
      </trkpt>
      <trkpt lat="43.38376" lon="5.85608">
        <ele>446.67</ele>
        <time>2019-01-27T09:48:38Z</time>
      </trkpt>
      <trkpt lat="43.38347" lon="5.85612">
        <ele>449.55</ele>
        <time>2019-01-27T09:48:53Z</time>
      </trkpt>
      <trkpt lat="43.38317" lon="5.85625">
        <ele>451</ele>
        <time>2019-01-27T09:49:10Z</time>
      </trkpt>
      <trkpt lat="43.38286" lon="5.8564">
        <ele>453.88</ele>
        <time>2019-01-27T09:49:27Z</time>
      </trkpt>
      <trkpt lat="43.38272" lon="5.85658">
        <ele>456.28</ele>
        <time>2019-01-27T09:49:39Z</time>
      </trkpt>
      <trkpt lat="43.38262" lon="5.8569">
        <ele>458.69</ele>
        <time>2019-01-27T09:49:54Z</time>
      </trkpt>
      <trkpt lat="43.38248" lon="5.85724">
        <ele>461.09</ele>
        <time>2019-01-27T09:50:09Z</time>
      </trkpt>
      <trkpt lat="43.38234" lon="5.85756">
        <ele>463.49</ele>
        <time>2019-01-27T09:50:25Z</time>
      </trkpt>
      <trkpt lat="43.38221" lon="5.85789">
        <ele>465.9</ele>
        <time>2019-01-27T09:50:42Z</time>
      </trkpt>
      <trkpt lat="43.38206" lon="5.85829">
        <ele>468.78</ele>
        <time>2019-01-27T09:51:00Z</time>
      </trkpt>
      <trkpt lat="43.38187" lon="5.8587">
        <ele>471.66</ele>
        <time>2019-01-27T09:51:17Z</time>
      </trkpt>
      <trkpt lat="43.38167" lon="5.85905">
        <ele>474.07</ele>
        <time>2019-01-27T09:51:35Z</time>
      </trkpt>
      <trkpt lat="43.38141" lon="5.85935">
        <ele>476.95</ele>
        <time>2019-01-27T09:51:52Z</time>
      </trkpt>
      <trkpt lat="43.38124" lon="5.85972">
        <ele>479.84</ele>
        <time>2019-01-27T09:52:08Z</time>
      </trkpt>
      <trkpt lat="43.381" lon="5.8598">
        <ele>479.84</ele>
        <time>2019-01-27T09:52:21Z</time>
      </trkpt>
      <trkpt lat="43.38082" lon="5.85987">
        <ele>481.28</ele>
        <time>2019-01-27T09:52:37Z</time>
      </trkpt>
      <trkpt lat="43.38067" lon="5.85996">
        <ele>482.72</ele>
        <time>2019-01-27T09:52:53Z</time>
      </trkpt>
      <trkpt lat="43.38048" lon="5.86001">
        <ele>485.12</ele>
        <time>2019-01-27T09:53:11Z</time>
      </trkpt>
      <trkpt lat="43.38028" lon="5.86001">
        <ele>486.08</ele>
        <time>2019-01-27T09:53:30Z</time>
      </trkpt>
      <trkpt lat="43.38013" lon="5.86002">
        <ele>488.01</ele>
        <time>2019-01-27T09:53:45Z</time>
      </trkpt>
      <trkpt lat="43.37995" lon="5.86004">
        <ele>488.97</ele>
        <time>2019-01-27T09:54:02Z</time>
      </trkpt>
      <trkpt lat="43.37975" lon="5.86006">
        <ele>489.93</ele>
        <time>2019-01-27T09:54:21Z</time>
      </trkpt>
      <trkpt lat="43.37955" lon="5.86012">
        <ele>491.85</ele>
        <time>2019-01-27T09:54:40Z</time>
      </trkpt>
      <trkpt lat="43.37936" lon="5.86009">
        <ele>494.26</ele>
        <time>2019-01-27T09:54:58Z</time>
      </trkpt>
      <trkpt lat="43.37917" lon="5.85995">
        <ele>494.74</ele>
        <time>2019-01-27T09:55:18Z</time>
      </trkpt>
      <trkpt lat="43.37902" lon="5.85978">
        <ele>495.7</ele>
        <time>2019-01-27T09:55:37Z</time>
      </trkpt>
      <trkpt lat="43.37887" lon="5.85958">
        <ele>497.62</ele>
        <time>2019-01-27T09:55:56Z</time>
      </trkpt>
      <trkpt lat="43.37875" lon="5.85947">
        <ele>498.1</ele>
        <time>2019-01-27T09:56:11Z</time>
      </trkpt>
      <trkpt lat="43.37863" lon="5.85924">
        <ele>500.02</ele>
        <time>2019-01-27T09:56:24Z</time>
      </trkpt>
      <trkpt lat="43.37848" lon="5.8589">
        <ele>501.95</ele>
        <time>2019-01-27T09:56:42Z</time>
      </trkpt>
      <trkpt lat="43.37832" lon="5.8586">
        <ele>503.39</ele>
        <time>2019-01-27T09:56:59Z</time>
      </trkpt>
      <trkpt lat="43.37817" lon="5.85827">
        <ele>506.27</ele>
        <time>2019-01-27T09:57:16Z</time>
      </trkpt>
      <trkpt lat="43.37804" lon="5.85797">
        <ele>507.71</ele>
        <time>2019-01-27T09:57:30Z</time>
      </trkpt>
      <trkpt lat="43.37789" lon="5.85755">
        <ele>510.6</ele>
        <time>2019-01-27T09:57:47Z</time>
      </trkpt>
      <trkpt lat="43.37779" lon="5.85709">
        <ele>512.04</ele>
        <time>2019-01-27T09:58:05Z</time>
      </trkpt>
      <trkpt lat="43.37764" lon="5.85671">
        <ele>513.48</ele>
        <time>2019-01-27T09:58:21Z</time>
      </trkpt>
      <trkpt lat="43.37736" lon="5.85644">
        <ele>516.37</ele>
        <time>2019-01-27T09:58:37Z</time>
      </trkpt>
      <trkpt lat="43.37732" lon="5.85639">
        <ele>516.37</ele>
        <time>2019-01-27T09:58:40Z</time>
      </trkpt>
      <trkpt lat="43.37731" lon="5.85637">
        <ele>516.37</ele>
        <time>2019-01-27T09:58:41Z</time>
      </trkpt>
      <trkpt lat="43.3773" lon="5.85635">
        <ele>516.85</ele>
        <time>2019-01-27T09:58:42Z</time>
      </trkpt>
      <trkpt lat="43.3773" lon="5.85632">
        <ele>516.85</ele>
        <time>2019-01-27T09:58:43Z</time>
      </trkpt>
      <trkpt lat="43.37729" lon="5.8563">
        <ele>516.85</ele>
        <time>2019-01-27T09:58:44Z</time>
      </trkpt>
      <trkpt lat="43.37728" lon="5.85603">
        <ele>518.29</ele>
        <time>2019-01-27T09:59:00Z</time>
      </trkpt>
      <trkpt lat="43.37726" lon="5.85597">
        <ele>518.29</ele>
        <time>2019-01-27T09:59:13Z</time>
      </trkpt>
      <trkpt lat="43.37725" lon="5.85593">
        <ele>518.29</ele>
        <time>2019-01-27T09:59:16Z</time>
      </trkpt>
      <trkpt lat="43.37723" lon="5.85588">
        <ele>519.73</ele>
        <time>2019-01-27T09:59:21Z</time>
      </trkpt>
      <trkpt lat="43.37723" lon="5.85571">
        <ele>520.69</ele>
        <time>2019-01-27T09:59:37Z</time>
      </trkpt>
      <trkpt lat="43.37732" lon="5.85545">
        <ele>523.58</ele>
        <time>2019-01-27T09:59:53Z</time>
      </trkpt>
      <trkpt lat="43.37742" lon="5.8552">
        <ele>525.98</ele>
        <time>2019-01-27T10:00:08Z</time>
      </trkpt>
      <trkpt lat="43.3775" lon="5.85484">
        <ele>529.34</ele>
        <time>2019-01-27T10:00:25Z</time>
      </trkpt>
      <trkpt lat="43.37753" lon="5.85459">
        <ele>532.23</ele>
        <time>2019-01-27T10:00:38Z</time>
      </trkpt>
      <trkpt lat="43.37753" lon="5.85437">
        <ele>532.23</ele>
        <time>2019-01-27T10:00:46Z</time>
      </trkpt>
      <trkpt lat="43.37749" lon="5.85416">
        <ele>534.15</ele>
        <time>2019-01-27T10:01:03Z</time>
      </trkpt>
      <trkpt lat="43.37742" lon="5.85395">
        <ele>536.07</ele>
        <time>2019-01-27T10:01:20Z</time>
      </trkpt>
      <trkpt lat="43.37737" lon="5.85376">
        <ele>538.48</ele>
        <time>2019-01-27T10:01:37Z</time>
      </trkpt>
      <trkpt lat="43.37742" lon="5.85359">
        <ele>540.4</ele>
        <time>2019-01-27T10:01:53Z</time>
      </trkpt>
      <trkpt lat="43.37747" lon="5.85339">
        <ele>542.8</ele>
        <time>2019-01-27T10:02:10Z</time>
      </trkpt>
      <trkpt lat="43.3775" lon="5.85318">
        <ele>546.17</ele>
        <time>2019-01-27T10:02:29Z</time>
      </trkpt>
      <trkpt lat="43.37753" lon="5.85304">
        <ele>547.61</ele>
        <time>2019-01-27T10:02:41Z</time>
      </trkpt>
      <trkpt lat="43.37754" lon="5.85298">
        <ele>549.05</ele>
        <time>2019-01-27T10:02:46Z</time>
      </trkpt>
      <trkpt lat="43.3775" lon="5.85288">
        <ele>550.01</ele>
        <time>2019-01-27T10:02:55Z</time>
      </trkpt>
      <trkpt lat="43.37749" lon="5.85287">
        <ele>550.01</ele>
        <time>2019-01-27T10:02:56Z</time>
      </trkpt>
      <trkpt lat="43.3774" lon="5.85288">
        <ele>551.93</ele>
        <time>2019-01-27T10:03:09Z</time>
      </trkpt>
      <trkpt lat="43.37725" lon="5.85292">
        <ele>553.38</ele>
        <time>2019-01-27T10:03:24Z</time>
      </trkpt>
      <trkpt lat="43.37708" lon="5.85278">
        <ele>555.3</ele>
        <time>2019-01-27T10:03:42Z</time>
      </trkpt>
      <trkpt lat="43.377" lon="5.85261">
        <ele>556.26</ele>
        <time>2019-01-27T10:03:57Z</time>
      </trkpt>
      <trkpt lat="43.37694" lon="5.85243">
        <ele>557.7</ele>
        <time>2019-01-27T10:04:13Z</time>
      </trkpt>
      <trkpt lat="43.37699" lon="5.85225">
        <ele>560.11</ele>
        <time>2019-01-27T10:04:32Z</time>
      </trkpt>
      <trkpt lat="43.37704" lon="5.85204">
        <ele>562.03</ele>
        <time>2019-01-27T10:04:50Z</time>
      </trkpt>
      <trkpt lat="43.37714" lon="5.85186">
        <ele>563.95</ele>
        <time>2019-01-27T10:05:07Z</time>
      </trkpt>
      <trkpt lat="43.3772" lon="5.85179">
        <ele>564.91</ele>
        <time>2019-01-27T10:05:15Z</time>
      </trkpt>
      <trkpt lat="43.37731" lon="5.85169">
        <ele>566.35</ele>
        <time>2019-01-27T10:05:30Z</time>
      </trkpt>
      <trkpt lat="43.37733" lon="5.85168">
        <ele>566.35</ele>
        <time>2019-01-27T10:05:32Z</time>
      </trkpt>
      <trkpt lat="43.3775" lon="5.85161">
        <ele>568.76</ele>
        <time>2019-01-27T10:05:50Z</time>
      </trkpt>
      <trkpt lat="43.37768" lon="5.85159">
        <ele>571.16</ele>
        <time>2019-01-27T10:06:09Z</time>
      </trkpt>
      <trkpt lat="43.37778" lon="5.85157">
        <ele>572.12</ele>
        <time>2019-01-27T10:06:23Z</time>
      </trkpt>
      <trkpt lat="43.37799" lon="5.85152">
        <ele>574.53</ele>
        <time>2019-01-27T10:06:46Z</time>
      </trkpt>
      <trkpt lat="43.37811" lon="5.85146">
        <ele>577.41</ele>
        <time>2019-01-27T10:07:03Z</time>
      </trkpt>
      <trkpt lat="43.37823" lon="5.85141">
        <ele>579.81</ele>
        <time>2019-01-27T10:07:22Z</time>
      </trkpt>
      <trkpt lat="43.3784" lon="5.85136">
        <ele>582.22</ele>
        <time>2019-01-27T10:07:40Z</time>
      </trkpt>
      <trkpt lat="43.37859" lon="5.85128">
        <ele>585.58</ele>
        <time>2019-01-27T10:08:02Z</time>
      </trkpt>
      <trkpt lat="43.37872" lon="5.85118">
        <ele>587.5</ele>
        <time>2019-01-27T10:08:18Z</time>
      </trkpt>
      <trkpt lat="43.37886" lon="5.85112">
        <ele>588.95</ele>
        <time>2019-01-27T10:08:35Z</time>
      </trkpt>
      <trkpt lat="43.37886" lon="5.85112">
        <ele>588.95</ele>
        <time>2019-01-27T10:08:36Z</time>
      </trkpt>
      <trkpt lat="43.37888" lon="5.85112">
        <ele>588.95</ele>
        <time>2019-01-27T10:08:37Z</time>
      </trkpt>
      <trkpt lat="43.37889" lon="5.85112">
        <ele>588.95</ele>
        <time>2019-01-27T10:08:38Z</time>
      </trkpt>
      <trkpt lat="43.37891" lon="5.85112">
        <ele>589.43</ele>
        <time>2019-01-27T10:08:39Z</time>
      </trkpt>
      <trkpt lat="43.37892" lon="5.85112">
        <ele>589.43</ele>
        <time>2019-01-27T10:08:40Z</time>
      </trkpt>
      <trkpt lat="43.37915" lon="5.85118">
        <ele>591.83</ele>
        <time>2019-01-27T10:08:53Z</time>
      </trkpt>
      <trkpt lat="43.3794" lon="5.85109">
        <ele>594.71</ele>
        <time>2019-01-27T10:09:09Z</time>
      </trkpt>
      <trkpt lat="43.37968" lon="5.85097">
        <ele>597.12</ele>
        <time>2019-01-27T10:09:25Z</time>
      </trkpt>
      <trkpt lat="43.37995" lon="5.85085">
        <ele>599.04</ele>
        <time>2019-01-27T10:09:39Z</time>
      </trkpt>
      <trkpt lat="43.37997" lon="5.85085">
        <ele>599.04</ele>
        <time>2019-01-27T10:09:40Z</time>
      </trkpt>
      <trkpt lat="43.37999" lon="5.85086">
        <ele>599.04</ele>
        <time>2019-01-27T10:09:41Z</time>
      </trkpt>
      <trkpt lat="43.38" lon="5.85086">
        <ele>599.04</ele>
        <time>2019-01-27T10:09:42Z</time>
      </trkpt>
      <trkpt lat="43.38002" lon="5.85087">
        <ele>599.04</ele>
        <time>2019-01-27T10:09:43Z</time>
      </trkpt>
      <trkpt lat="43.38004" lon="5.85087">
        <ele>599.04</ele>
        <time>2019-01-27T10:09:44Z</time>
      </trkpt>
      <trkpt lat="43.38006" lon="5.85087">
        <ele>599.04</ele>
        <time>2019-01-27T10:09:45Z</time>
      </trkpt>
      <trkpt lat="43.38008" lon="5.85088">
        <ele>599.04</ele>
        <time>2019-01-27T10:09:46Z</time>
      </trkpt>
      <trkpt lat="43.3801" lon="5.85089">
        <ele>599.52</ele>
        <time>2019-01-27T10:09:47Z</time>
      </trkpt>
      <trkpt lat="43.38041" lon="5.85077">
        <ele>601.44</ele>
        <time>2019-01-27T10:10:01Z</time>
      </trkpt>
      <trkpt lat="43.38073" lon="5.85042">
        <ele>602.88</ele>
        <time>2019-01-27T10:10:18Z</time>
      </trkpt>
      <trkpt lat="43.38107" lon="5.85029">
        <ele>604.33</ele>
        <time>2019-01-27T10:10:36Z</time>
      </trkpt>
      <trkpt lat="43.38114" lon="5.85029">
        <ele>604.33</ele>
        <time>2019-01-27T10:10:42Z</time>
      </trkpt>
      <trkpt lat="43.38115" lon="5.85028">
        <ele>604.33</ele>
        <time>2019-01-27T10:10:43Z</time>
      </trkpt>
      <trkpt lat="43.38116" lon="5.85027">
        <ele>604.33</ele>
        <time>2019-01-27T10:10:44Z</time>
      </trkpt>
      <trkpt lat="43.38118" lon="5.85025">
        <ele>604.33</ele>
        <time>2019-01-27T10:10:45Z</time>
      </trkpt>
      <trkpt lat="43.3812" lon="5.85024">
        <ele>604.33</ele>
        <time>2019-01-27T10:10:46Z</time>
      </trkpt>
      <trkpt lat="43.38122" lon="5.85023">
        <ele>604.33</ele>
        <time>2019-01-27T10:10:47Z</time>
      </trkpt>
      <trkpt lat="43.38148" lon="5.85011">
        <ele>604.33</ele>
        <time>2019-01-27T10:11:04Z</time>
      </trkpt>
      <trkpt lat="43.38156" lon="5.85016">
        <ele>602.4</ele>
        <time>2019-01-27T10:11:16Z</time>
      </trkpt>
      <trkpt lat="43.38155" lon="5.85019">
        <ele>602.4</ele>
        <time>2019-01-27T10:11:18Z</time>
      </trkpt>
      <trkpt lat="43.38157" lon="5.85026">
        <ele>601.92</ele>
        <time>2019-01-27T10:11:21Z</time>
      </trkpt>
      <trkpt lat="43.38153" lon="5.85048">
        <ele>601.44</ele>
        <time>2019-01-27T10:11:28Z</time>
      </trkpt>
      <trkpt lat="43.38141" lon="5.85063">
        <ele>600.96</ele>
        <time>2019-01-27T10:11:37Z</time>
      </trkpt>
      <trkpt lat="43.38139" lon="5.85071">
        <ele>600.48</ele>
        <time>2019-01-27T10:11:40Z</time>
      </trkpt>
      <trkpt lat="43.38159" lon="5.85116">
        <ele>599.04</ele>
        <time>2019-01-27T10:11:52Z</time>
      </trkpt>
      <trkpt lat="43.38169" lon="5.85149">
        <ele>600.48</ele>
        <time>2019-01-27T10:11:59Z</time>
      </trkpt>
      <trkpt lat="43.38181" lon="5.85188">
        <ele>603.36</ele>
        <time>2019-01-27T10:12:08Z</time>
      </trkpt>
      <trkpt lat="43.38182" lon="5.8522">
        <ele>605.29</ele>
        <time>2019-01-27T10:12:18Z</time>
      </trkpt>
      <trkpt lat="43.38184" lon="5.85223">
        <ele>605.29</ele>
        <time>2019-01-27T10:12:19Z</time>
      </trkpt>
      <trkpt lat="43.38186" lon="5.85223">
        <ele>605.29</ele>
        <time>2019-01-27T10:12:20Z</time>
      </trkpt>
      <trkpt lat="43.38189" lon="5.85224">
        <ele>605.77</ele>
        <time>2019-01-27T10:12:21Z</time>
      </trkpt>
      <trkpt lat="43.38191" lon="5.85225">
        <ele>605.77</ele>
        <time>2019-01-27T10:12:22Z</time>
      </trkpt>
      <trkpt lat="43.38194" lon="5.85225">
        <ele>606.73</ele>
        <time>2019-01-27T10:12:23Z</time>
      </trkpt>
      <trkpt lat="43.38196" lon="5.85226">
        <ele>606.73</ele>
        <time>2019-01-27T10:12:24Z</time>
      </trkpt>
      <trkpt lat="43.38198" lon="5.85227">
        <ele>606.73</ele>
        <time>2019-01-27T10:12:25Z</time>
      </trkpt>
      <trkpt lat="43.382" lon="5.85228">
        <ele>607.21</ele>
        <time>2019-01-27T10:12:26Z</time>
      </trkpt>
      <trkpt lat="43.38215" lon="5.85236">
        <ele>609.13</ele>
        <time>2019-01-27T10:12:39Z</time>
      </trkpt>
      <trkpt lat="43.38218" lon="5.8524">
        <ele>609.13</ele>
        <time>2019-01-27T10:12:45Z</time>
      </trkpt>
      <trkpt lat="43.38216" lon="5.8525">
        <ele>609.61</ele>
        <time>2019-01-27T10:12:59Z</time>
      </trkpt>
      <trkpt lat="43.38218" lon="5.85252">
        <ele>609.61</ele>
        <time>2019-01-27T10:13:32Z</time>
      </trkpt>
      <trkpt lat="43.38217" lon="5.85252">
        <ele>609.61</ele>
        <time>2019-01-27T10:14:04Z</time>
      </trkpt>
      <trkpt lat="43.38216" lon="5.85251">
        <ele>609.61</ele>
        <time>2019-01-27T10:14:31Z</time>
      </trkpt>
      <trkpt lat="43.38215" lon="5.85249">
        <ele>609.13</ele>
        <time>2019-01-27T10:15:10Z</time>
      </trkpt>
      <trkpt lat="43.38215" lon="5.85249">
        <ele>607.69</ele>
        <time>2019-01-27T10:15:46Z</time>
      </trkpt>
      <trkpt lat="43.38215" lon="5.85248">
        <ele>607.69</ele>
        <time>2019-01-27T10:16:23Z</time>
      </trkpt>
      <trkpt lat="43.38216" lon="5.85249">
        <ele>607.69</ele>
        <time>2019-01-27T10:16:48Z</time>
      </trkpt>
      <trkpt lat="43.38216" lon="5.8525">
        <ele>607.21</ele>
        <time>2019-01-27T10:17:25Z</time>
      </trkpt>
      <trkpt lat="43.38217" lon="5.85251">
        <ele>607.21</ele>
        <time>2019-01-27T10:18:01Z</time>
      </trkpt>
      <trkpt lat="43.38219" lon="5.85251">
        <ele>607.21</ele>
        <time>2019-01-27T10:18:31Z</time>
      </trkpt>
      <trkpt lat="43.38218" lon="5.8525">
        <ele>607.21</ele>
        <time>2019-01-27T10:18:58Z</time>
      </trkpt>
      <trkpt lat="43.38218" lon="5.85251">
        <ele>606.25</ele>
        <time>2019-01-27T10:19:36Z</time>
      </trkpt>
      <trkpt lat="43.38218" lon="5.85251">
        <ele>607.21</ele>
        <time>2019-01-27T10:20:10Z</time>
      </trkpt>
      <trkpt lat="43.38218" lon="5.8525">
        <ele>607.69</ele>
        <time>2019-01-27T10:20:39Z</time>
      </trkpt>
      <trkpt lat="43.38218" lon="5.85251">
        <ele>606.25</ele>
        <time>2019-01-27T10:21:18Z</time>
      </trkpt>
      <trkpt lat="43.38218" lon="5.85249">
        <ele>606.25</ele>
        <time>2019-01-27T10:21:51Z</time>
      </trkpt>
      <trkpt lat="43.38218" lon="5.8525">
        <ele>605.77</ele>
        <time>2019-01-27T10:22:27Z</time>
      </trkpt>
      <trkpt lat="43.38219" lon="5.8525">
        <ele>605.77</ele>
        <time>2019-01-27T10:23:03Z</time>
      </trkpt>
      <trkpt lat="43.38219" lon="5.85252">
        <ele>605.77</ele>
        <time>2019-01-27T10:23:34Z</time>
      </trkpt>
      <trkpt lat="43.38219" lon="5.85252">
        <ele>605.77</ele>
        <time>2019-01-27T10:23:59Z</time>
      </trkpt>
      <trkpt lat="43.38218" lon="5.85253">
        <ele>606.73</ele>
        <time>2019-01-27T10:24:19Z</time>
      </trkpt>
      <trkpt lat="43.38219" lon="5.85254">
        <ele>607.21</ele>
        <time>2019-01-27T10:24:49Z</time>
      </trkpt>
      <trkpt lat="43.38219" lon="5.85253">
        <ele>607.21</ele>
        <time>2019-01-27T10:25:17Z</time>
      </trkpt>
      <trkpt lat="43.38218" lon="5.85252">
        <ele>606.73</ele>
        <time>2019-01-27T10:25:49Z</time>
      </trkpt>
      <trkpt lat="43.38218" lon="5.85251">
        <ele>606.73</ele>
        <time>2019-01-27T10:26:17Z</time>
      </trkpt>
      <trkpt lat="43.38218" lon="5.8525">
        <ele>606.73</ele>
        <time>2019-01-27T10:26:36Z</time>
      </trkpt>
      <trkpt lat="43.38218" lon="5.85251">
        <ele>605.77</ele>
        <time>2019-01-27T10:27:08Z</time>
      </trkpt>
      <trkpt lat="43.38219" lon="5.85251">
        <ele>606.73</ele>
        <time>2019-01-27T10:27:42Z</time>
      </trkpt>
      <trkpt lat="43.3822" lon="5.85251">
        <ele>606.73</ele>
        <time>2019-01-27T10:28:05Z</time>
      </trkpt>
      <trkpt lat="43.3822" lon="5.85252">
        <ele>606.73</ele>
        <time>2019-01-27T10:28:24Z</time>
      </trkpt>
      <trkpt lat="43.38221" lon="5.85249">
        <ele>606.73</ele>
        <time>2019-01-27T10:28:33Z</time>
      </trkpt>
      <trkpt lat="43.38218" lon="5.85242">
        <ele>606.73</ele>
        <time>2019-01-27T10:28:49Z</time>
      </trkpt>
      <trkpt lat="43.38214" lon="5.85238">
        <ele>605.29</ele>
        <time>2019-01-27T10:28:55Z</time>
      </trkpt>
      <trkpt lat="43.38213" lon="5.85237">
        <ele>604.33</ele>
        <time>2019-01-27T10:28:56Z</time>
      </trkpt>
      <trkpt lat="43.38209" lon="5.85232">
        <ele>603.85</ele>
        <time>2019-01-27T10:28:59Z</time>
      </trkpt>
      <trkpt lat="43.38206" lon="5.85227">
        <ele>603.85</ele>
        <time>2019-01-27T10:29:01Z</time>
      </trkpt>
      <trkpt lat="43.38203" lon="5.85221">
        <ele>602.88</ele>
        <time>2019-01-27T10:29:03Z</time>
      </trkpt>
      <trkpt lat="43.38203" lon="5.85218">
        <ele>602.88</ele>
        <time>2019-01-27T10:29:04Z</time>
      </trkpt>
      <trkpt lat="43.38196" lon="5.852">
        <ele>600</ele>
        <time>2019-01-27T10:29:10Z</time>
      </trkpt>
      <trkpt lat="43.38167" lon="5.85156">
        <ele>596.64</ele>
        <time>2019-01-27T10:29:22Z</time>
      </trkpt>
      <trkpt lat="43.38158" lon="5.85124">
        <ele>597.12</ele>
        <time>2019-01-27T10:29:28Z</time>
      </trkpt>
      <trkpt lat="43.38142" lon="5.85089">
        <ele>598.56</ele>
        <time>2019-01-27T10:29:38Z</time>
      </trkpt>
      <trkpt lat="43.38137" lon="5.85072">
        <ele>598.56</ele>
        <time>2019-01-27T10:29:50Z</time>
      </trkpt>
      <trkpt lat="43.38139" lon="5.8507">
        <ele>598.56</ele>
        <time>2019-01-27T10:30:03Z</time>
      </trkpt>
      <trkpt lat="43.38142" lon="5.85068">
        <ele>598.56</ele>
        <time>2019-01-27T10:30:06Z</time>
      </trkpt>
      <trkpt lat="43.3816" lon="5.85048">
        <ele>599.52</ele>
        <time>2019-01-27T10:30:19Z</time>
      </trkpt>
      <trkpt lat="43.38159" lon="5.85039">
        <ele>600</ele>
        <time>2019-01-27T10:30:24Z</time>
      </trkpt>
      <trkpt lat="43.38161" lon="5.85018">
        <ele>600.48</ele>
        <time>2019-01-27T10:30:33Z</time>
      </trkpt>
      <trkpt lat="43.38166" lon="5.85002">
        <ele>600.48</ele>
        <time>2019-01-27T10:30:41Z</time>
      </trkpt>
      <trkpt lat="43.3817" lon="5.84992">
        <ele>600.48</ele>
        <time>2019-01-27T10:30:46Z</time>
      </trkpt>
      <trkpt lat="43.38171" lon="5.84984">
        <ele>600.48</ele>
        <time>2019-01-27T10:30:50Z</time>
      </trkpt>
      <trkpt lat="43.38181" lon="5.84961">
        <ele>598.56</ele>
        <time>2019-01-27T10:31:01Z</time>
      </trkpt>
      <trkpt lat="43.38188" lon="5.84951">
        <ele>597.12</ele>
        <time>2019-01-27T10:31:05Z</time>
      </trkpt>
      <trkpt lat="43.38196" lon="5.84931">
        <ele>596.15</ele>
        <time>2019-01-27T10:31:15Z</time>
      </trkpt>
      <trkpt lat="43.38194" lon="5.8492">
        <ele>596.15</ele>
        <time>2019-01-27T10:31:27Z</time>
      </trkpt>
      <trkpt lat="43.38197" lon="5.84915">
        <ele>595.19</ele>
        <time>2019-01-27T10:31:32Z</time>
      </trkpt>
      <trkpt lat="43.38203" lon="5.84911">
        <ele>594.23</ele>
        <time>2019-01-27T10:31:44Z</time>
      </trkpt>
      <trkpt lat="43.38204" lon="5.84911">
        <ele>594.23</ele>
        <time>2019-01-27T10:31:52Z</time>
      </trkpt>
      <trkpt lat="43.38213" lon="5.84912">
        <ele>592.31</ele>
        <time>2019-01-27T10:32:07Z</time>
      </trkpt>
      <trkpt lat="43.38214" lon="5.84908">
        <ele>591.83</ele>
        <time>2019-01-27T10:32:13Z</time>
      </trkpt>
      <trkpt lat="43.38219" lon="5.84892">
        <ele>590.87</ele>
        <time>2019-01-27T10:32:27Z</time>
      </trkpt>
      <trkpt lat="43.38221" lon="5.84886">
        <ele>589.91</ele>
        <time>2019-01-27T10:32:35Z</time>
      </trkpt>
      <trkpt lat="43.38222" lon="5.84881">
        <ele>588.95</ele>
        <time>2019-01-27T10:32:38Z</time>
      </trkpt>
      <trkpt lat="43.38229" lon="5.84868">
        <ele>587.98</ele>
        <time>2019-01-27T10:32:51Z</time>
      </trkpt>
      <trkpt lat="43.38231" lon="5.84867">
        <ele>587.98</ele>
        <time>2019-01-27T10:32:53Z</time>
      </trkpt>
      <trkpt lat="43.38233" lon="5.84862">
        <ele>587.5</ele>
        <time>2019-01-27T10:33:00Z</time>
      </trkpt>
      <trkpt lat="43.38234" lon="5.84856">
        <ele>587.02</ele>
        <time>2019-01-27T10:33:04Z</time>
      </trkpt>
      <trkpt lat="43.38232" lon="5.8483">
        <ele>583.18</ele>
        <time>2019-01-27T10:33:17Z</time>
      </trkpt>
      <trkpt lat="43.38233" lon="5.84826">
        <ele>582.7</ele>
        <time>2019-01-27T10:33:19Z</time>
      </trkpt>
      <trkpt lat="43.38228" lon="5.84804">
        <ele>578.85</ele>
        <time>2019-01-27T10:33:30Z</time>
      </trkpt>
      <trkpt lat="43.38228" lon="5.84794">
        <ele>577.41</ele>
        <time>2019-01-27T10:33:34Z</time>
      </trkpt>
      <trkpt lat="43.38229" lon="5.84789">
        <ele>575.97</ele>
        <time>2019-01-27T10:33:36Z</time>
      </trkpt>
      <trkpt lat="43.38223" lon="5.84781">
        <ele>575.97</ele>
        <time>2019-01-27T10:33:40Z</time>
      </trkpt>
      <trkpt lat="43.38217" lon="5.84743">
        <ele>574.04</ele>
        <time>2019-01-27T10:33:52Z</time>
      </trkpt>
      <trkpt lat="43.38216" lon="5.84736">
        <ele>571.64</ele>
        <time>2019-01-27T10:34:06Z</time>
      </trkpt>
      <trkpt lat="43.38219" lon="5.84726">
        <ele>569.24</ele>
        <time>2019-01-27T10:34:20Z</time>
      </trkpt>
      <trkpt lat="43.38221" lon="5.84725">
        <ele>569.24</ele>
        <time>2019-01-27T10:34:58Z</time>
      </trkpt>
      <trkpt lat="43.38221" lon="5.84726">
        <ele>570.2</ele>
        <time>2019-01-27T10:35:36Z</time>
      </trkpt>
      <trkpt lat="43.38223" lon="5.8472">
        <ele>568.76</ele>
        <time>2019-01-27T10:35:46Z</time>
      </trkpt>
      <trkpt lat="43.38216" lon="5.8469">
        <ele>566.35</ele>
        <time>2019-01-27T10:35:58Z</time>
      </trkpt>
      <trkpt lat="43.3821" lon="5.84678">
        <ele>566.35</ele>
        <time>2019-01-27T10:36:04Z</time>
      </trkpt>
      <trkpt lat="43.38209" lon="5.84668">
        <ele>565.87</ele>
        <time>2019-01-27T10:36:12Z</time>
      </trkpt>
      <trkpt lat="43.3821" lon="5.84666">
        <ele>564.91</ele>
        <time>2019-01-27T10:36:14Z</time>
      </trkpt>
      <trkpt lat="43.3821" lon="5.84663">
        <ele>564.43</ele>
        <time>2019-01-27T10:36:16Z</time>
      </trkpt>
      <trkpt lat="43.38208" lon="5.84639">
        <ele>562.99</ele>
        <time>2019-01-27T10:36:29Z</time>
      </trkpt>
      <trkpt lat="43.38209" lon="5.84629">
        <ele>559.62</ele>
        <time>2019-01-27T10:36:32Z</time>
      </trkpt>
      <trkpt lat="43.38209" lon="5.84626">
        <ele>559.62</ele>
        <time>2019-01-27T10:36:33Z</time>
      </trkpt>
      <trkpt lat="43.3821" lon="5.84614">
        <ele>557.22</ele>
        <time>2019-01-27T10:36:38Z</time>
      </trkpt>
      <trkpt lat="43.38208" lon="5.84592">
        <ele>554.82</ele>
        <time>2019-01-27T10:36:48Z</time>
      </trkpt>
      <trkpt lat="43.38211" lon="5.84569">
        <ele>551.93</ele>
        <time>2019-01-27T10:37:03Z</time>
      </trkpt>
      <trkpt lat="43.38212" lon="5.84569">
        <ele>551.93</ele>
        <time>2019-01-27T10:37:05Z</time>
      </trkpt>
      <trkpt lat="43.38216" lon="5.84567">
        <ele>550.01</ele>
        <time>2019-01-27T10:37:14Z</time>
      </trkpt>
      <trkpt lat="43.38214" lon="5.84539">
        <ele>546.65</ele>
        <time>2019-01-27T10:37:24Z</time>
      </trkpt>
      <trkpt lat="43.38206" lon="5.84515">
        <ele>545.69</ele>
        <time>2019-01-27T10:37:34Z</time>
      </trkpt>
      <trkpt lat="43.38194" lon="5.84475">
        <ele>543.28</ele>
        <time>2019-01-27T10:37:49Z</time>
      </trkpt>
      <trkpt lat="43.38188" lon="5.84462">
        <ele>542.8</ele>
        <time>2019-01-27T10:38:00Z</time>
      </trkpt>
      <trkpt lat="43.38183" lon="5.84452">
        <ele>542.32</ele>
        <time>2019-01-27T10:38:09Z</time>
      </trkpt>
      <trkpt lat="43.38173" lon="5.84436">
        <ele>541.84</ele>
        <time>2019-01-27T10:38:21Z</time>
      </trkpt>
      <trkpt lat="43.38162" lon="5.84427">
        <ele>541.36</ele>
        <time>2019-01-27T10:38:37Z</time>
      </trkpt>
      <trkpt lat="43.38162" lon="5.84426">
        <ele>540.88</ele>
        <time>2019-01-27T10:38:52Z</time>
      </trkpt>
      <trkpt lat="43.38163" lon="5.84427">
        <ele>540.88</ele>
        <time>2019-01-27T10:39:10Z</time>
      </trkpt>
      <trkpt lat="43.38162" lon="5.84428">
        <ele>540.88</ele>
        <time>2019-01-27T10:39:30Z</time>
      </trkpt>
      <trkpt lat="43.38164" lon="5.84425">
        <ele>540.88</ele>
        <time>2019-01-27T10:39:59Z</time>
      </trkpt>
      <trkpt lat="43.3816" lon="5.8442">
        <ele>540.88</ele>
        <time>2019-01-27T10:40:18Z</time>
      </trkpt>
      <trkpt lat="43.38153" lon="5.84415">
        <ele>540.88</ele>
        <time>2019-01-27T10:40:35Z</time>
      </trkpt>
      <trkpt lat="43.38148" lon="5.84407">
        <ele>539.92</ele>
        <time>2019-01-27T10:40:40Z</time>
      </trkpt>
      <trkpt lat="43.38145" lon="5.84405">
        <ele>539.44</ele>
        <time>2019-01-27T10:40:42Z</time>
      </trkpt>
      <trkpt lat="43.38139" lon="5.84405">
        <ele>540.88</ele>
        <time>2019-01-27T10:40:48Z</time>
      </trkpt>
      <trkpt lat="43.38132" lon="5.84401">
        <ele>542.32</ele>
        <time>2019-01-27T10:40:56Z</time>
      </trkpt>
      <trkpt lat="43.38119" lon="5.84394">
        <ele>539.44</ele>
        <time>2019-01-27T10:41:08Z</time>
      </trkpt>
      <trkpt lat="43.38117" lon="5.84394">
        <ele>539.44</ele>
        <time>2019-01-27T10:41:10Z</time>
      </trkpt>
      <trkpt lat="43.38113" lon="5.84393">
        <ele>538.48</ele>
        <time>2019-01-27T10:41:22Z</time>
      </trkpt>
      <trkpt lat="43.38113" lon="5.84394">
        <ele>539.92</ele>
        <time>2019-01-27T10:41:29Z</time>
      </trkpt>
      <trkpt lat="43.3811" lon="5.8439">
        <ele>540.88</ele>
        <time>2019-01-27T10:41:56Z</time>
      </trkpt>
      <trkpt lat="43.38105" lon="5.84382">
        <ele>539.92</ele>
        <time>2019-01-27T10:42:01Z</time>
      </trkpt>
      <trkpt lat="43.38104" lon="5.84381">
        <ele>539.44</ele>
        <time>2019-01-27T10:42:02Z</time>
      </trkpt>
      <trkpt lat="43.38093" lon="5.84368">
        <ele>538.48</ele>
        <time>2019-01-27T10:42:16Z</time>
      </trkpt>
      <trkpt lat="43.3809" lon="5.84365">
        <ele>537.51</ele>
        <time>2019-01-27T10:42:21Z</time>
      </trkpt>
      <trkpt lat="43.38088" lon="5.84362">
        <ele>536.55</ele>
        <time>2019-01-27T10:42:23Z</time>
      </trkpt>
      <trkpt lat="43.38087" lon="5.8436">
        <ele>536.55</ele>
        <time>2019-01-27T10:42:25Z</time>
      </trkpt>
      <trkpt lat="43.38086" lon="5.84354">
        <ele>536.07</ele>
        <time>2019-01-27T10:42:32Z</time>
      </trkpt>
      <trkpt lat="43.38078" lon="5.84341">
        <ele>535.11</ele>
        <time>2019-01-27T10:42:40Z</time>
      </trkpt>
      <trkpt lat="43.38067" lon="5.84331">
        <ele>533.67</ele>
        <time>2019-01-27T10:42:47Z</time>
      </trkpt>
      <trkpt lat="43.38057" lon="5.84328">
        <ele>533.19</ele>
        <time>2019-01-27T10:42:53Z</time>
      </trkpt>
      <trkpt lat="43.38047" lon="5.84318">
        <ele>532.23</ele>
        <time>2019-01-27T10:43:07Z</time>
      </trkpt>
      <trkpt lat="43.38047" lon="5.84317">
        <ele>532.23</ele>
        <time>2019-01-27T10:43:08Z</time>
      </trkpt>
      <trkpt lat="43.38045" lon="5.84315">
        <ele>531.27</ele>
        <time>2019-01-27T10:43:14Z</time>
      </trkpt>
      <trkpt lat="43.38035" lon="5.8431">
        <ele>531.27</ele>
        <time>2019-01-27T10:43:21Z</time>
      </trkpt>
      <trkpt lat="43.38014" lon="5.8431">
        <ele>528.86</ele>
        <time>2019-01-27T10:43:32Z</time>
      </trkpt>
      <trkpt lat="43.38006" lon="5.84312">
        <ele>530.3</ele>
        <time>2019-01-27T10:43:38Z</time>
      </trkpt>
      <trkpt lat="43.38003" lon="5.84311">
        <ele>530.79</ele>
        <time>2019-01-27T10:43:45Z</time>
      </trkpt>
      <trkpt lat="43.38001" lon="5.84309">
        <ele>530.79</ele>
        <time>2019-01-27T10:43:47Z</time>
      </trkpt>
      <trkpt lat="43.3798" lon="5.84293">
        <ele>529.82</ele>
        <time>2019-01-27T10:43:59Z</time>
      </trkpt>
      <trkpt lat="43.37979" lon="5.84292">
        <ele>529.82</ele>
        <time>2019-01-27T10:44:00Z</time>
      </trkpt>
      <trkpt lat="43.37961" lon="5.84278">
        <ele>528.86</ele>
        <time>2019-01-27T10:44:12Z</time>
      </trkpt>
      <trkpt lat="43.37951" lon="5.84273">
        <ele>528.86</ele>
        <time>2019-01-27T10:44:17Z</time>
      </trkpt>
      <trkpt lat="43.37926" lon="5.84263">
        <ele>529.34</ele>
        <time>2019-01-27T10:44:29Z</time>
      </trkpt>
      <trkpt lat="43.3792" lon="5.84262">
        <ele>529.34</ele>
        <time>2019-01-27T10:44:32Z</time>
      </trkpt>
      <trkpt lat="43.3791" lon="5.84261">
        <ele>529.34</ele>
        <time>2019-01-27T10:44:38Z</time>
      </trkpt>
      <trkpt lat="43.37902" lon="5.8426">
        <ele>528.38</ele>
        <time>2019-01-27T10:44:43Z</time>
      </trkpt>
      <trkpt lat="43.37889" lon="5.84254">
        <ele>525.98</ele>
        <time>2019-01-27T10:44:55Z</time>
      </trkpt>
      <trkpt lat="43.3789" lon="5.8425">
        <ele>525.02</ele>
        <time>2019-01-27T10:45:02Z</time>
      </trkpt>
      <trkpt lat="43.37903" lon="5.84247">
        <ele>522.61</ele>
        <time>2019-01-27T10:45:09Z</time>
      </trkpt>
      <trkpt lat="43.37917" lon="5.84234">
        <ele>521.17</ele>
        <time>2019-01-27T10:45:22Z</time>
      </trkpt>
      <trkpt lat="43.37925" lon="5.84228">
        <ele>519.25</ele>
        <time>2019-01-27T10:45:35Z</time>
      </trkpt>
      <trkpt lat="43.37934" lon="5.84223">
        <ele>517.33</ele>
        <time>2019-01-27T10:45:46Z</time>
      </trkpt>
      <trkpt lat="43.37943" lon="5.84217">
        <ele>515.88</ele>
        <time>2019-01-27T10:45:56Z</time>
      </trkpt>
      <trkpt lat="43.37944" lon="5.84217">
        <ele>515.88</ele>
        <time>2019-01-27T10:45:57Z</time>
      </trkpt>
      <trkpt lat="43.37945" lon="5.84217">
        <ele>514.92</ele>
        <time>2019-01-27T10:45:58Z</time>
      </trkpt>
      <trkpt lat="43.37955" lon="5.84217">
        <ele>513</ele>
        <time>2019-01-27T10:46:10Z</time>
      </trkpt>
      <trkpt lat="43.37964" lon="5.84222">
        <ele>511.08</ele>
        <time>2019-01-27T10:46:23Z</time>
      </trkpt>
      <trkpt lat="43.37967" lon="5.84224">
        <ele>510.12</ele>
        <time>2019-01-27T10:46:27Z</time>
      </trkpt>
      <trkpt lat="43.37968" lon="5.84225">
        <ele>509.64</ele>
        <time>2019-01-27T10:46:28Z</time>
      </trkpt>
      <trkpt lat="43.37972" lon="5.84227">
        <ele>508.67</ele>
        <time>2019-01-27T10:46:41Z</time>
      </trkpt>
      <trkpt lat="43.37968" lon="5.84224">
        <ele>508.67</ele>
        <time>2019-01-27T10:47:12Z</time>
      </trkpt>
      <trkpt lat="43.3797" lon="5.84225">
        <ele>508.67</ele>
        <time>2019-01-27T10:47:29Z</time>
      </trkpt>
      <trkpt lat="43.37973" lon="5.84226">
        <ele>508.67</ele>
        <time>2019-01-27T10:47:38Z</time>
      </trkpt>
      <trkpt lat="43.37976" lon="5.84227">
        <ele>508.19</ele>
        <time>2019-01-27T10:47:57Z</time>
      </trkpt>
      <trkpt lat="43.37974" lon="5.84227">
        <ele>508.19</ele>
        <time>2019-01-27T10:48:23Z</time>
      </trkpt>
      <trkpt lat="43.37975" lon="5.84228">
        <ele>507.71</ele>
        <time>2019-01-27T10:48:44Z</time>
      </trkpt>
      <trkpt lat="43.3798" lon="5.84226">
        <ele>506.75</ele>
        <time>2019-01-27T10:48:56Z</time>
      </trkpt>
      <trkpt lat="43.37988" lon="5.84228">
        <ele>505.79</ele>
        <time>2019-01-27T10:49:04Z</time>
      </trkpt>
      <trkpt lat="43.37996" lon="5.84231">
        <ele>504.83</ele>
        <time>2019-01-27T10:49:15Z</time>
      </trkpt>
      <trkpt lat="43.37997" lon="5.84231">
        <ele>504.83</ele>
        <time>2019-01-27T10:49:16Z</time>
      </trkpt>
      <trkpt lat="43.37999" lon="5.84231">
        <ele>504.83</ele>
        <time>2019-01-27T10:49:17Z</time>
      </trkpt>
      <trkpt lat="43.38" lon="5.84231">
        <ele>503.87</ele>
        <time>2019-01-27T10:49:18Z</time>
      </trkpt>
      <trkpt lat="43.38008" lon="5.84234">
        <ele>502.43</ele>
        <time>2019-01-27T10:49:28Z</time>
      </trkpt>
      <trkpt lat="43.38012" lon="5.84232">
        <ele>501.46</ele>
        <time>2019-01-27T10:49:40Z</time>
      </trkpt>
      <trkpt lat="43.38016" lon="5.84233">
        <ele>500.98</ele>
        <time>2019-01-27T10:49:44Z</time>
      </trkpt>
      <trkpt lat="43.38019" lon="5.84232">
        <ele>500.5</ele>
        <time>2019-01-27T10:49:47Z</time>
      </trkpt>
      <trkpt lat="43.38025" lon="5.8423">
        <ele>498.58</ele>
        <time>2019-01-27T10:49:56Z</time>
      </trkpt>
      <trkpt lat="43.38032" lon="5.84227">
        <ele>495.7</ele>
        <time>2019-01-27T10:50:09Z</time>
      </trkpt>
      <trkpt lat="43.38038" lon="5.84226">
        <ele>494.26</ele>
        <time>2019-01-27T10:50:18Z</time>
      </trkpt>
      <trkpt lat="43.38047" lon="5.84227">
        <ele>492.33</ele>
        <time>2019-01-27T10:50:31Z</time>
      </trkpt>
      <trkpt lat="43.38054" lon="5.84225">
        <ele>490.41</ele>
        <time>2019-01-27T10:50:45Z</time>
      </trkpt>
      <trkpt lat="43.38056" lon="5.84221">
        <ele>490.41</ele>
        <time>2019-01-27T10:51:03Z</time>
      </trkpt>
      <trkpt lat="43.38054" lon="5.84221">
        <ele>490.41</ele>
        <time>2019-01-27T10:51:35Z</time>
      </trkpt>
      <trkpt lat="43.38061" lon="5.84224">
        <ele>489.45</ele>
        <time>2019-01-27T10:51:48Z</time>
      </trkpt>
      <trkpt lat="43.38062" lon="5.84224">
        <ele>489.45</ele>
        <time>2019-01-27T10:51:49Z</time>
      </trkpt>
      <trkpt lat="43.38075" lon="5.84225">
        <ele>487.05</ele>
        <time>2019-01-27T10:52:02Z</time>
      </trkpt>
      <trkpt lat="43.38081" lon="5.84219">
        <ele>484.64</ele>
        <time>2019-01-27T10:52:14Z</time>
      </trkpt>
      <trkpt lat="43.38086" lon="5.84214">
        <ele>482.24</ele>
        <time>2019-01-27T10:52:22Z</time>
      </trkpt>
      <trkpt lat="43.38089" lon="5.84213">
        <ele>482.24</ele>
        <time>2019-01-27T10:52:27Z</time>
      </trkpt>
      <trkpt lat="43.38092" lon="5.84213">
        <ele>481.76</ele>
        <time>2019-01-27T10:52:30Z</time>
      </trkpt>
      <trkpt lat="43.38093" lon="5.84213">
        <ele>481.28</ele>
        <time>2019-01-27T10:52:31Z</time>
      </trkpt>
      <trkpt lat="43.38101" lon="5.84218">
        <ele>479.35</ele>
        <time>2019-01-27T10:52:44Z</time>
      </trkpt>
      <trkpt lat="43.38105" lon="5.84222">
        <ele>478.39</ele>
        <time>2019-01-27T10:52:50Z</time>
      </trkpt>
      <trkpt lat="43.38109" lon="5.84226">
        <ele>477.43</ele>
        <time>2019-01-27T10:52:56Z</time>
      </trkpt>
      <trkpt lat="43.38114" lon="5.8423">
        <ele>476.47</ele>
        <time>2019-01-27T10:53:03Z</time>
      </trkpt>
      <trkpt lat="43.38123" lon="5.84237">
        <ele>475.03</ele>
        <time>2019-01-27T10:53:15Z</time>
      </trkpt>
      <trkpt lat="43.38126" lon="5.84241">
        <ele>474.55</ele>
        <time>2019-01-27T10:53:28Z</time>
      </trkpt>
      <trkpt lat="43.38124" lon="5.84241">
        <ele>474.07</ele>
        <time>2019-01-27T10:53:52Z</time>
      </trkpt>
      <trkpt lat="43.38127" lon="5.84238">
        <ele>474.07</ele>
        <time>2019-01-27T10:54:19Z</time>
      </trkpt>
      <trkpt lat="43.38125" lon="5.84238">
        <ele>474.07</ele>
        <time>2019-01-27T10:54:50Z</time>
      </trkpt>
      <trkpt lat="43.38125" lon="5.84239">
        <ele>474.07</ele>
        <time>2019-01-27T10:55:19Z</time>
      </trkpt>
      <trkpt lat="43.38127" lon="5.8424">
        <ele>474.07</ele>
        <time>2019-01-27T10:55:30Z</time>
      </trkpt>
      <trkpt lat="43.38129" lon="5.84243">
        <ele>474.07</ele>
        <time>2019-01-27T10:55:33Z</time>
      </trkpt>
      <trkpt lat="43.38131" lon="5.84244">
        <ele>474.07</ele>
        <time>2019-01-27T10:55:34Z</time>
      </trkpt>
      <trkpt lat="43.38132" lon="5.84246">
        <ele>474.07</ele>
        <time>2019-01-27T10:55:35Z</time>
      </trkpt>
      <trkpt lat="43.3816" lon="5.84268">
        <ele>471.66</ele>
        <time>2019-01-27T10:55:47Z</time>
      </trkpt>
      <trkpt lat="43.38188" lon="5.84274">
        <ele>470.22</ele>
        <time>2019-01-27T10:55:58Z</time>
      </trkpt>
      <trkpt lat="43.38201" lon="5.84276">
        <ele>466.86</ele>
        <time>2019-01-27T10:56:10Z</time>
      </trkpt>
      <trkpt lat="43.38233" lon="5.84296">
        <ele>465.9</ele>
        <time>2019-01-27T10:56:20Z</time>
      </trkpt>
      <trkpt lat="43.38253" lon="5.8431">
        <ele>465.42</ele>
        <time>2019-01-27T10:56:30Z</time>
      </trkpt>
      <trkpt lat="43.38261" lon="5.84316">
        <ele>465.9</ele>
        <time>2019-01-27T10:56:41Z</time>
      </trkpt>
      <trkpt lat="43.38265" lon="5.84318">
        <ele>465.9</ele>
        <time>2019-01-27T10:56:45Z</time>
      </trkpt>
      <trkpt lat="43.38267" lon="5.84319">
        <ele>465.9</ele>
        <time>2019-01-27T10:56:47Z</time>
      </trkpt>
      <trkpt lat="43.38268" lon="5.84319">
        <ele>464.93</ele>
        <time>2019-01-27T10:56:48Z</time>
      </trkpt>
      <trkpt lat="43.38272" lon="5.8432">
        <ele>463.97</ele>
        <time>2019-01-27T10:56:50Z</time>
      </trkpt>
      <trkpt lat="43.38286" lon="5.84324">
        <ele>461.57</ele>
        <time>2019-01-27T10:57:01Z</time>
      </trkpt>
      <trkpt lat="43.38299" lon="5.84329">
        <ele>459.65</ele>
        <time>2019-01-27T10:57:06Z</time>
      </trkpt>
      <trkpt lat="43.38304" lon="5.84332">
        <ele>459.65</ele>
        <time>2019-01-27T10:57:08Z</time>
      </trkpt>
      <trkpt lat="43.38318" lon="5.84361">
        <ele>455.8</ele>
        <time>2019-01-27T10:57:20Z</time>
      </trkpt>
      <trkpt lat="43.38327" lon="5.84369">
        <ele>455.32</ele>
        <time>2019-01-27T10:57:26Z</time>
      </trkpt>
      <trkpt lat="43.38342" lon="5.84381">
        <ele>452.44</ele>
        <time>2019-01-27T10:57:31Z</time>
      </trkpt>
      <trkpt lat="43.38365" lon="5.8443">
        <ele>451.48</ele>
        <time>2019-01-27T10:57:43Z</time>
      </trkpt>
      <trkpt lat="43.38375" lon="5.84452">
        <ele>448.11</ele>
        <time>2019-01-27T10:57:53Z</time>
      </trkpt>
      <trkpt lat="43.3838" lon="5.84459">
        <ele>446.67</ele>
        <time>2019-01-27T10:57:57Z</time>
      </trkpt>
      <trkpt lat="43.38382" lon="5.84462">
        <ele>446.67</ele>
        <time>2019-01-27T10:57:59Z</time>
      </trkpt>
      <trkpt lat="43.38383" lon="5.84464">
        <ele>446.67</ele>
        <time>2019-01-27T10:58:00Z</time>
      </trkpt>
      <trkpt lat="43.38383" lon="5.84466">
        <ele>445.23</ele>
        <time>2019-01-27T10:58:01Z</time>
      </trkpt>
      <trkpt lat="43.38384" lon="5.84468">
        <ele>444.27</ele>
        <time>2019-01-27T10:58:02Z</time>
      </trkpt>
      <trkpt lat="43.38386" lon="5.8447">
        <ele>444.27</ele>
        <time>2019-01-27T10:58:03Z</time>
      </trkpt>
      <trkpt lat="43.38387" lon="5.84472">
        <ele>444.27</ele>
        <time>2019-01-27T10:58:04Z</time>
      </trkpt>
      <trkpt lat="43.3839" lon="5.84475">
        <ele>444.27</ele>
        <time>2019-01-27T10:58:05Z</time>
      </trkpt>
      <trkpt lat="43.38432" lon="5.84518">
        <ele>443.31</ele>
        <time>2019-01-27T10:58:18Z</time>
      </trkpt>
      <trkpt lat="43.38488" lon="5.84545">
        <ele>445.23</ele>
        <time>2019-01-27T10:58:31Z</time>
      </trkpt>
      <trkpt lat="43.38528" lon="5.84558">
        <ele>446.19</ele>
        <time>2019-01-27T10:58:45Z</time>
      </trkpt>
      <trkpt lat="43.38553" lon="5.84575">
        <ele>446.19</ele>
        <time>2019-01-27T10:58:59Z</time>
      </trkpt>
      <trkpt lat="43.38566" lon="5.846">
        <ele>448.11</ele>
        <time>2019-01-27T10:59:15Z</time>
      </trkpt>
      <trkpt lat="43.38575" lon="5.84611">
        <ele>448.59</ele>
        <time>2019-01-27T10:59:28Z</time>
      </trkpt>
      <trkpt lat="43.38587" lon="5.84623">
        <ele>449.55</ele>
        <time>2019-01-27T10:59:41Z</time>
      </trkpt>
      <trkpt lat="43.38613" lon="5.84653">
        <ele>450.03</ele>
        <time>2019-01-27T10:59:58Z</time>
      </trkpt>
      <trkpt lat="43.38637" lon="5.84684">
        <ele>451</ele>
        <time>2019-01-27T11:00:13Z</time>
      </trkpt>
      <trkpt lat="43.38663" lon="5.84724">
        <ele>449.55</ele>
        <time>2019-01-27T11:00:29Z</time>
      </trkpt>
      <trkpt lat="43.38702" lon="5.84771">
        <ele>446.19</ele>
        <time>2019-01-27T11:00:44Z</time>
      </trkpt>
      <trkpt lat="43.3872" lon="5.84793">
        <ele>442.82</ele>
        <time>2019-01-27T11:00:54Z</time>
      </trkpt>
      <trkpt lat="43.38731" lon="5.84806">
        <ele>439.46</ele>
        <time>2019-01-27T11:01:01Z</time>
      </trkpt>
      <trkpt lat="43.38741" lon="5.84822">
        <ele>436.58</ele>
        <time>2019-01-27T11:01:08Z</time>
      </trkpt>
      <trkpt lat="43.38745" lon="5.84829">
        <ele>436.1</ele>
        <time>2019-01-27T11:01:12Z</time>
      </trkpt>
      <trkpt lat="43.38749" lon="5.8483">
        <ele>434.65</ele>
        <time>2019-01-27T11:01:15Z</time>
      </trkpt>
      <trkpt lat="43.38755" lon="5.84837">
        <ele>434.65</ele>
        <time>2019-01-27T11:01:19Z</time>
      </trkpt>
      <trkpt lat="43.38757" lon="5.84837">
        <ele>434.65</ele>
        <time>2019-01-27T11:01:20Z</time>
      </trkpt>
      <trkpt lat="43.38759" lon="5.84837">
        <ele>433.69</ele>
        <time>2019-01-27T11:01:21Z</time>
      </trkpt>
      <trkpt lat="43.3876" lon="5.84837">
        <ele>433.21</ele>
        <time>2019-01-27T11:01:22Z</time>
      </trkpt>
      <trkpt lat="43.38762" lon="5.84838">
        <ele>432.73</ele>
        <time>2019-01-27T11:01:23Z</time>
      </trkpt>
      <trkpt lat="43.38764" lon="5.84839">
        <ele>432.25</ele>
        <time>2019-01-27T11:01:24Z</time>
      </trkpt>
      <trkpt lat="43.38765" lon="5.8484">
        <ele>432.25</ele>
        <time>2019-01-27T11:01:25Z</time>
      </trkpt>
      <trkpt lat="43.38778" lon="5.84858">
        <ele>428.4</ele>
        <time>2019-01-27T11:01:33Z</time>
      </trkpt>
      <trkpt lat="43.38786" lon="5.84879">
        <ele>425.52</ele>
        <time>2019-01-27T11:01:38Z</time>
      </trkpt>
      <trkpt lat="43.38791" lon="5.84902">
        <ele>422.64</ele>
        <time>2019-01-27T11:01:42Z</time>
      </trkpt>
      <trkpt lat="43.38796" lon="5.84925">
        <ele>419.27</ele>
        <time>2019-01-27T11:01:46Z</time>
      </trkpt>
      <trkpt lat="43.38801" lon="5.84947">
        <ele>415.91</ele>
        <time>2019-01-27T11:01:49Z</time>
      </trkpt>
      <trkpt lat="43.38803" lon="5.84955">
        <ele>415.91</ele>
        <time>2019-01-27T11:01:50Z</time>
      </trkpt>
      <trkpt lat="43.38808" lon="5.84988">
        <ele>412.54</ele>
        <time>2019-01-27T11:01:54Z</time>
      </trkpt>
      <trkpt lat="43.38815" lon="5.8503">
        <ele>410.14</ele>
        <time>2019-01-27T11:01:59Z</time>
      </trkpt>
      <trkpt lat="43.38818" lon="5.85037">
        <ele>409.18</ele>
        <time>2019-01-27T11:02:00Z</time>
      </trkpt>
      <trkpt lat="43.38821" lon="5.85045">
        <ele>408.22</ele>
        <time>2019-01-27T11:02:01Z</time>
      </trkpt>
      <trkpt lat="43.38824" lon="5.85054">
        <ele>408.22</ele>
        <time>2019-01-27T11:02:02Z</time>
      </trkpt>
      <trkpt lat="43.38828" lon="5.8508">
        <ele>405.81</ele>
        <time>2019-01-27T11:02:05Z</time>
      </trkpt>
      <trkpt lat="43.38828" lon="5.85094">
        <ele>404.37</ele>
        <time>2019-01-27T11:02:07Z</time>
      </trkpt>
      <trkpt lat="43.3883" lon="5.851">
        <ele>402.93</ele>
        <time>2019-01-27T11:02:09Z</time>
      </trkpt>
      <trkpt lat="43.38832" lon="5.85101">
        <ele>402.45</ele>
        <time>2019-01-27T11:02:10Z</time>
      </trkpt>
      <trkpt lat="43.38833" lon="5.85103">
        <ele>401.97</ele>
        <time>2019-01-27T11:02:11Z</time>
      </trkpt>
      <trkpt lat="43.3884" lon="5.85111">
        <ele>401.49</ele>
        <time>2019-01-27T11:02:13Z</time>
      </trkpt>
      <trkpt lat="43.3885" lon="5.85119">
        <ele>400.53</ele>
        <time>2019-01-27T11:02:15Z</time>
      </trkpt>
      <trkpt lat="43.38856" lon="5.8512">
        <ele>399.57</ele>
        <time>2019-01-27T11:02:16Z</time>
      </trkpt>
      <trkpt lat="43.38865" lon="5.85118">
        <ele>398.6</ele>
        <time>2019-01-27T11:02:18Z</time>
      </trkpt>
      <trkpt lat="43.38871" lon="5.85118">
        <ele>398.12</ele>
        <time>2019-01-27T11:02:19Z</time>
      </trkpt>
      <trkpt lat="43.38916" lon="5.85115">
        <ele>394.76</ele>
        <time>2019-01-27T11:02:26Z</time>
      </trkpt>
      <trkpt lat="43.38938" lon="5.8512">
        <ele>390.91</ele>
        <time>2019-01-27T11:02:31Z</time>
      </trkpt>
      <trkpt lat="43.38961" lon="5.85127">
        <ele>388.99</ele>
        <time>2019-01-27T11:02:41Z</time>
      </trkpt>
      <trkpt lat="43.38993" lon="5.85132">
        <ele>386.59</ele>
        <time>2019-01-27T11:02:46Z</time>
      </trkpt>
      <trkpt lat="43.39025" lon="5.85133">
        <ele>383.22</ele>
        <time>2019-01-27T11:02:51Z</time>
      </trkpt>
      <trkpt lat="43.39042" lon="5.85133">
        <ele>381.78</ele>
        <time>2019-01-27T11:02:54Z</time>
      </trkpt>
      <trkpt lat="43.39062" lon="5.85133">
        <ele>380.34</ele>
        <time>2019-01-27T11:02:57Z</time>
      </trkpt>
      <trkpt lat="43.39115" lon="5.85128">
        <ele>377.94</ele>
        <time>2019-01-27T11:03:04Z</time>
      </trkpt>
      <trkpt lat="43.39149" lon="5.85124">
        <ele>375.05</ele>
        <time>2019-01-27T11:03:10Z</time>
      </trkpt>
      <trkpt lat="43.3916" lon="5.85123">
        <ele>373.61</ele>
        <time>2019-01-27T11:03:12Z</time>
      </trkpt>
      <trkpt lat="43.39165" lon="5.85124">
        <ele>373.61</ele>
        <time>2019-01-27T11:03:13Z</time>
      </trkpt>
      <trkpt lat="43.39204" lon="5.85121">
        <ele>370.73</ele>
        <time>2019-01-27T11:03:20Z</time>
      </trkpt>
      <trkpt lat="43.39208" lon="5.8512">
        <ele>370.73</ele>
        <time>2019-01-27T11:03:21Z</time>
      </trkpt>
      <trkpt lat="43.39261" lon="5.85118">
        <ele>367.36</ele>
        <time>2019-01-27T11:03:36Z</time>
      </trkpt>
      <trkpt lat="43.39272" lon="5.85108">
        <ele>366.88</ele>
        <time>2019-01-27T11:03:41Z</time>
      </trkpt>
      <trkpt lat="43.39303" lon="5.85099">
        <ele>364.48</ele>
        <time>2019-01-27T11:03:48Z</time>
      </trkpt>
      <trkpt lat="43.39308" lon="5.85099">
        <ele>364.48</ele>
        <time>2019-01-27T11:03:49Z</time>
      </trkpt>
      <trkpt lat="43.39321" lon="5.85102">
        <ele>364.48</ele>
        <time>2019-01-27T11:03:51Z</time>
      </trkpt>
      <trkpt lat="43.39327" lon="5.85102">
        <ele>364.48</ele>
        <time>2019-01-27T11:03:52Z</time>
      </trkpt>
      <trkpt lat="43.3934" lon="5.85102">
        <ele>364.48</ele>
        <time>2019-01-27T11:03:54Z</time>
      </trkpt>
      <trkpt lat="43.39378" lon="5.85107">
        <ele>364.48</ele>
        <time>2019-01-27T11:04:04Z</time>
      </trkpt>
      <trkpt lat="43.39386" lon="5.8511">
        <ele>364.48</ele>
        <time>2019-01-27T11:04:07Z</time>
      </trkpt>
      <trkpt lat="43.39387" lon="5.85113">
        <ele>364</ele>
        <time>2019-01-27T11:04:08Z</time>
      </trkpt>
      <trkpt lat="43.39388" lon="5.85117">
        <ele>364</ele>
        <time>2019-01-27T11:04:09Z</time>
      </trkpt>
      <trkpt lat="43.39388" lon="5.85121">
        <ele>364</ele>
        <time>2019-01-27T11:04:10Z</time>
      </trkpt>
      <trkpt lat="43.39389" lon="5.85126">
        <ele>364</ele>
        <time>2019-01-27T11:04:11Z</time>
      </trkpt>
      <trkpt lat="43.39388" lon="5.85131">
        <ele>364</ele>
        <time>2019-01-27T11:04:12Z</time>
      </trkpt>
      <trkpt lat="43.39386" lon="5.85232">
        <ele>364.96</ele>
        <time>2019-01-27T11:04:29Z</time>
      </trkpt>
      <trkpt lat="43.39386" lon="5.85245">
        <ele>364.96</ele>
        <time>2019-01-27T11:04:31Z</time>
      </trkpt>
      <trkpt lat="43.39383" lon="5.85314">
        <ele>365.92</ele>
        <time>2019-01-27T11:04:43Z</time>
      </trkpt>
      <trkpt lat="43.39379" lon="5.85386">
        <ele>366.4</ele>
        <time>2019-01-27T11:04:53Z</time>
      </trkpt>
      <trkpt lat="43.39384" lon="5.85492">
        <ele>365.92</ele>
        <time>2019-01-27T11:05:08Z</time>
      </trkpt>
      <trkpt lat="43.3939" lon="5.85624">
        <ele>365.92</ele>
        <time>2019-01-27T11:05:24Z</time>
      </trkpt>
      <trkpt lat="43.39392" lon="5.8566">
        <ele>364.48</ele>
        <time>2019-01-27T11:05:28Z</time>
      </trkpt>
      <trkpt lat="43.39393" lon="5.85854">
        <ele>364</ele>
        <time>2019-01-27T11:05:47Z</time>
      </trkpt>
      <trkpt lat="43.39404" lon="5.85995">
        <ele>360.63</ele>
        <time>2019-01-27T11:05:59Z</time>
      </trkpt>
      <trkpt lat="43.39439" lon="5.86175">
        <ele>357.75</ele>
        <time>2019-01-27T11:06:14Z</time>
      </trkpt>
      <trkpt lat="43.39499" lon="5.86316">
        <ele>356.31</ele>
        <time>2019-01-27T11:06:27Z</time>
      </trkpt>
      <trkpt lat="43.39518" lon="5.86417">
        <ele>353.42</ele>
        <time>2019-01-27T11:06:36Z</time>
      </trkpt>
      <trkpt lat="43.39517" lon="5.86427">
        <ele>353.42</ele>
        <time>2019-01-27T11:06:37Z</time>
      </trkpt>
      <trkpt lat="43.39515" lon="5.86439">
        <ele>353.9</ele>
        <time>2019-01-27T11:06:38Z</time>
      </trkpt>
      <trkpt lat="43.39469" lon="5.86611">
        <ele>351.02</ele>
        <time>2019-01-27T11:06:54Z</time>
      </trkpt>
      <trkpt lat="43.39459" lon="5.86747">
        <ele>350.06</ele>
        <time>2019-01-27T11:07:07Z</time>
      </trkpt>
      <trkpt lat="43.39492" lon="5.86907">
        <ele>349.1</ele>
        <time>2019-01-27T11:07:24Z</time>
      </trkpt>
      <trkpt lat="43.39524" lon="5.87079">
        <ele>347.65</ele>
        <time>2019-01-27T11:07:42Z</time>
      </trkpt>
      <trkpt lat="43.39577" lon="5.87262">
        <ele>346.69</ele>
        <time>2019-01-27T11:08:01Z</time>
      </trkpt>
      <trkpt lat="43.3963" lon="5.87463">
        <ele>345.73</ele>
        <time>2019-01-27T11:08:22Z</time>
      </trkpt>
      <trkpt lat="43.39673" lon="5.87625">
        <ele>345.25</ele>
        <time>2019-01-27T11:08:39Z</time>
      </trkpt>
      <trkpt lat="43.39721" lon="5.87802">
        <ele>345.25</ele>
        <time>2019-01-27T11:08:58Z</time>
      </trkpt>
      <trkpt lat="43.39751" lon="5.87917">
        <ele>346.21</ele>
        <time>2019-01-27T11:09:11Z</time>
      </trkpt>
      <trkpt lat="43.39779" lon="5.88027">
        <ele>349.1</ele>
        <time>2019-01-27T11:09:26Z</time>
      </trkpt>
      <trkpt lat="43.39814" lon="5.88158">
        <ele>351.02</ele>
        <time>2019-01-27T11:09:43Z</time>
      </trkpt>
      <trkpt lat="43.39841" lon="5.88301">
        <ele>351.5</ele>
        <time>2019-01-27T11:10:01Z</time>
      </trkpt>
      <trkpt lat="43.39852" lon="5.88385">
        <ele>348.13</ele>
        <time>2019-01-27T11:10:11Z</time>
      </trkpt>
      <trkpt lat="43.39854" lon="5.88393">
        <ele>348.13</ele>
        <time>2019-01-27T11:10:12Z</time>
      </trkpt>
      <trkpt lat="43.39857" lon="5.88401">
        <ele>348.13</ele>
        <time>2019-01-27T11:10:13Z</time>
      </trkpt>
      <trkpt lat="43.39862" lon="5.88408">
        <ele>348.13</ele>
        <time>2019-01-27T11:10:14Z</time>
      </trkpt>
      <trkpt lat="43.39868" lon="5.88412">
        <ele>348.13</ele>
        <time>2019-01-27T11:10:15Z</time>
      </trkpt>
      <trkpt lat="43.39874" lon="5.88414">
        <ele>348.13</ele>
        <time>2019-01-27T11:10:16Z</time>
      </trkpt>
      <trkpt lat="43.39879" lon="5.88414">
        <ele>348.13</ele>
        <time>2019-01-27T11:10:17Z</time>
      </trkpt>
      <trkpt lat="43.39884" lon="5.88413">
        <ele>348.13</ele>
        <time>2019-01-27T11:10:18Z</time>
      </trkpt>
      <trkpt lat="43.3989" lon="5.88412">
        <ele>348.13</ele>
        <time>2019-01-27T11:10:19Z</time>
      </trkpt>
      <trkpt lat="43.39895" lon="5.88411">
        <ele>349.58</ele>
        <time>2019-01-27T11:10:20Z</time>
      </trkpt>
      <trkpt lat="43.39899" lon="5.8841">
        <ele>349.58</ele>
        <time>2019-01-27T11:10:21Z</time>
      </trkpt>
      <trkpt lat="43.39908" lon="5.88407">
        <ele>349.58</ele>
        <time>2019-01-27T11:10:23Z</time>
      </trkpt>
      <trkpt lat="43.39913" lon="5.88405">
        <ele>349.58</ele>
        <time>2019-01-27T11:10:24Z</time>
      </trkpt>
      <trkpt lat="43.39917" lon="5.88403">
        <ele>349.58</ele>
        <time>2019-01-27T11:10:25Z</time>
      </trkpt>
      <trkpt lat="43.39921" lon="5.88399">
        <ele>349.58</ele>
        <time>2019-01-27T11:10:26Z</time>
      </trkpt>
      <trkpt lat="43.39924" lon="5.88395">
        <ele>349.58</ele>
        <time>2019-01-27T11:10:27Z</time>
      </trkpt>
      <trkpt lat="43.39928" lon="5.8839">
        <ele>349.58</ele>
        <time>2019-01-27T11:10:28Z</time>
      </trkpt>
      <trkpt lat="43.39959" lon="5.88332">
        <ele>347.65</ele>
        <time>2019-01-27T11:10:38Z</time>
      </trkpt>
      <trkpt lat="43.40022" lon="5.88247">
        <ele>346.69</ele>
        <time>2019-01-27T11:10:52Z</time>
      </trkpt>
      <trkpt lat="43.40102" lon="5.88165">
        <ele>345.25</ele>
        <time>2019-01-27T11:11:09Z</time>
      </trkpt>
      <trkpt lat="43.40174" lon="5.88095">
        <ele>344.29</ele>
        <time>2019-01-27T11:11:24Z</time>
      </trkpt>
      <trkpt lat="43.4023" lon="5.88021">
        <ele>343.33</ele>
        <time>2019-01-27T11:11:37Z</time>
      </trkpt>
      <trkpt lat="43.40286" lon="5.87944">
        <ele>341.89</ele>
        <time>2019-01-27T11:11:50Z</time>
      </trkpt>
      <trkpt lat="43.40298" lon="5.87918">
        <ele>341.89</ele>
        <time>2019-01-27T11:11:54Z</time>
      </trkpt>
      <trkpt lat="43.40303" lon="5.87906">
        <ele>341.41</ele>
        <time>2019-01-27T11:11:56Z</time>
      </trkpt>
      <trkpt lat="43.40323" lon="5.8783">
        <ele>342.85</ele>
        <time>2019-01-27T11:12:11Z</time>
      </trkpt>
      <trkpt lat="43.40335" lon="5.87776">
        <ele>345.25</ele>
        <time>2019-01-27T11:12:22Z</time>
      </trkpt>
      <trkpt lat="43.40334" lon="5.87703">
        <ele>344.29</ele>
        <time>2019-01-27T11:12:37Z</time>
      </trkpt>
      <trkpt lat="43.40326" lon="5.8764">
        <ele>343.81</ele>
        <time>2019-01-27T11:12:50Z</time>
      </trkpt>
      <trkpt lat="43.40316" lon="5.87559">
        <ele>345.73</ele>
        <time>2019-01-27T11:13:08Z</time>
      </trkpt>
      <trkpt lat="43.40306" lon="5.87481">
        <ele>345.25</ele>
        <time>2019-01-27T11:13:24Z</time>
      </trkpt>
      <trkpt lat="43.40301" lon="5.87447">
        <ele>344.29</ele>
        <time>2019-01-27T11:13:31Z</time>
      </trkpt>
      <trkpt lat="43.40293" lon="5.87357">
        <ele>345.73</ele>
        <time>2019-01-27T11:13:49Z</time>
      </trkpt>
      <trkpt lat="43.4029" lon="5.8728">
        <ele>345.25</ele>
        <time>2019-01-27T11:14:04Z</time>
      </trkpt>
      <trkpt lat="43.40289" lon="5.87248">
        <ele>346.21</ele>
        <time>2019-01-27T11:14:10Z</time>
      </trkpt>
      <trkpt lat="43.40286" lon="5.87148">
        <ele>344.29</ele>
        <time>2019-01-27T11:14:28Z</time>
      </trkpt>
      <trkpt lat="43.40283" lon="5.87042">
        <ele>345.25</ele>
        <time>2019-01-27T11:14:47Z</time>
      </trkpt>
      <trkpt lat="43.40282" lon="5.87008">
        <ele>343.81</ele>
        <time>2019-01-27T11:14:53Z</time>
      </trkpt>
      <trkpt lat="43.4028" lon="5.86935">
        <ele>345.73</ele>
        <time>2019-01-27T11:15:08Z</time>
      </trkpt>
      <trkpt lat="43.40297" lon="5.8684">
        <ele>345.25</ele>
        <time>2019-01-27T11:15:25Z</time>
      </trkpt>
      <trkpt lat="43.40322" lon="5.86755">
        <ele>345.73</ele>
        <time>2019-01-27T11:15:41Z</time>
      </trkpt>
      <trkpt lat="43.40354" lon="5.86686">
        <ele>344.77</ele>
        <time>2019-01-27T11:15:56Z</time>
      </trkpt>
      <trkpt lat="43.40396" lon="5.86621">
        <ele>343.33</ele>
        <time>2019-01-27T11:16:11Z</time>
      </trkpt>
      <trkpt lat="43.4043" lon="5.86577">
        <ele>343.33</ele>
        <time>2019-01-27T11:16:21Z</time>
      </trkpt>
      <trkpt lat="43.40441" lon="5.86558">
        <ele>343.33</ele>
        <time>2019-01-27T11:16:25Z</time>
      </trkpt>
      <trkpt lat="43.40442" lon="5.86539">
        <ele>343.33</ele>
        <time>2019-01-27T11:16:33Z</time>
      </trkpt>
      <trkpt lat="43.40443" lon="5.86537">
        <ele>342.85</ele>
        <time>2019-01-27T11:16:46Z</time>
      </trkpt>
      <trkpt lat="43.40446" lon="5.86537">
        <ele>342.85</ele>
        <time>2019-01-27T11:16:50Z</time>
      </trkpt>
      <trkpt lat="43.40462" lon="5.86521">
        <ele>344.29</ele>
        <time>2019-01-27T11:17:02Z</time>
      </trkpt>
      <trkpt lat="43.40464" lon="5.86519">
        <ele>344.29</ele>
        <time>2019-01-27T11:17:03Z</time>
      </trkpt>
      <trkpt lat="43.40482" lon="5.86504">
        <ele>344.77</ele>
        <time>2019-01-27T11:17:16Z</time>
      </trkpt>
      <trkpt lat="43.40482" lon="5.86502">
        <ele>345.25</ele>
        <time>2019-01-27T11:17:26Z</time>
      </trkpt>
      <trkpt lat="43.40481" lon="5.86503">
        <ele>345.25</ele>
        <time>2019-01-27T11:17:41Z</time>
      </trkpt>
      <trkpt lat="43.40494" lon="5.86486">
        <ele>344.29</ele>
        <time>2019-01-27T11:17:56Z</time>
      </trkpt>
      <trkpt lat="43.40511" lon="5.86464">
        <ele>343.81</ele>
        <time>2019-01-27T11:18:14Z</time>
      </trkpt>
      <trkpt lat="43.40525" lon="5.86446">
        <ele>343.81</ele>
        <time>2019-01-27T11:18:30Z</time>
      </trkpt>
      <trkpt lat="43.40539" lon="5.86428">
        <ele>343.81</ele>
        <time>2019-01-27T11:18:47Z</time>
      </trkpt>
      <trkpt lat="43.40544" lon="5.86422">
        <ele>343.33</ele>
        <time>2019-01-27T11:18:53Z</time>
      </trkpt>
      <trkpt lat="43.40557" lon="5.86406">
        <ele>343.33</ele>
        <time>2019-01-27T11:19:10Z</time>
      </trkpt>
      <trkpt lat="43.4057" lon="5.86392">
        <ele>343.33</ele>
        <time>2019-01-27T11:19:24Z</time>
      </trkpt>
      <trkpt lat="43.40577" lon="5.86384">
        <ele>343.33</ele>
        <time>2019-01-27T11:19:35Z</time>
      </trkpt>
      <trkpt lat="43.40588" lon="5.86369">
        <ele>344.77</ele>
        <time>2019-01-27T11:19:50Z</time>
      </trkpt>
      <trkpt lat="43.40595" lon="5.8636">
        <ele>344.77</ele>
        <time>2019-01-27T11:20:02Z</time>
      </trkpt>
      <trkpt lat="43.40605" lon="5.86344">
        <ele>344.77</ele>
        <time>2019-01-27T11:20:16Z</time>
      </trkpt>
      <trkpt lat="43.40613" lon="5.86329">
        <ele>344.77</ele>
        <time>2019-01-27T11:20:31Z</time>
      </trkpt>
      <trkpt lat="43.40622" lon="5.86319">
        <ele>344.77</ele>
        <time>2019-01-27T11:20:44Z</time>
      </trkpt>
      <trkpt lat="43.40624" lon="5.86317">
        <ele>344.77</ele>
        <time>2019-01-27T11:20:48Z</time>
      </trkpt>
      <trkpt lat="43.40638" lon="5.86295">
        <ele>344.29</ele>
        <time>2019-01-27T11:21:03Z</time>
      </trkpt>
      <trkpt lat="43.40645" lon="5.86285">
        <ele>344.29</ele>
        <time>2019-01-27T11:21:09Z</time>
      </trkpt>
      <trkpt lat="43.4065" lon="5.86277">
        <ele>344.29</ele>
        <time>2019-01-27T11:21:13Z</time>
      </trkpt>
      <trkpt lat="43.40675" lon="5.86234">
        <ele>344.29</ele>
        <time>2019-01-27T11:21:29Z</time>
      </trkpt>
      <trkpt lat="43.40699" lon="5.86188">
        <ele>344.29</ele>
        <time>2019-01-27T11:21:42Z</time>
      </trkpt>
      <trkpt lat="43.4073" lon="5.86129">
        <ele>344.29</ele>
        <time>2019-01-27T11:21:56Z</time>
      </trkpt>
      <trkpt lat="43.40771" lon="5.86061">
        <ele>344.29</ele>
        <time>2019-01-27T11:22:13Z</time>
      </trkpt>
      <trkpt lat="43.40802" lon="5.86014">
        <ele>344.29</ele>
        <time>2019-01-27T11:22:28Z</time>
      </trkpt>
      <trkpt lat="43.40804" lon="5.86006">
        <ele>343.81</ele>
        <time>2019-01-27T11:22:38Z</time>
      </trkpt>
      <trkpt lat="43.40811" lon="5.86002">
        <ele>344.77</ele>
        <time>2019-01-27T11:22:49Z</time>
      </trkpt>
      <trkpt lat="43.40812" lon="5.86">
        <ele>344.77</ele>
        <time>2019-01-27T11:22:56Z</time>
      </trkpt>
      <trkpt lat="43.40816" lon="5.85999">
        <ele>343.33</ele>
        <time>2019-01-27T11:22:58Z</time>
      </trkpt>
      <trkpt lat="43.40818" lon="5.85998">
        <ele>343.33</ele>
        <time>2019-01-27T11:22:59Z</time>
      </trkpt>
      <trkpt lat="43.4082" lon="5.85996">
        <ele>343.33</ele>
        <time>2019-01-27T11:23:00Z</time>
      </trkpt>
      <trkpt lat="43.40822" lon="5.85994">
        <ele>343.33</ele>
        <time>2019-01-27T11:23:01Z</time>
      </trkpt>
      <trkpt lat="43.40825" lon="5.85992">
        <ele>343.33</ele>
        <time>2019-01-27T11:23:02Z</time>
      </trkpt>
      <trkpt lat="43.40872" lon="5.8594">
        <ele>343.33</ele>
        <time>2019-01-27T11:23:20Z</time>
      </trkpt>
      <trkpt lat="43.40939" lon="5.85894">
        <ele>343.33</ele>
        <time>2019-01-27T11:23:38Z</time>
      </trkpt>
      <trkpt lat="43.4101" lon="5.85887">
        <ele>343.33</ele>
        <time>2019-01-27T11:23:54Z</time>
      </trkpt>
      <trkpt lat="43.41087" lon="5.85912">
        <ele>343.33</ele>
        <time>2019-01-27T11:24:10Z</time>
      </trkpt>
      <trkpt lat="43.41171" lon="5.85937">
        <ele>343.33</ele>
        <time>2019-01-27T11:24:28Z</time>
      </trkpt>
      <trkpt lat="43.41252" lon="5.85962">
        <ele>343.33</ele>
        <time>2019-01-27T11:24:46Z</time>
      </trkpt>
      <trkpt lat="43.4133" lon="5.85988">
        <ele>344.77</ele>
        <time>2019-01-27T11:25:03Z</time>
      </trkpt>
      <trkpt lat="43.41384" lon="5.86006">
        <ele>344.77</ele>
        <time>2019-01-27T11:25:15Z</time>
      </trkpt>
      <trkpt lat="43.41439" lon="5.86">
        <ele>344.77</ele>
        <time>2019-01-27T11:25:28Z</time>
      </trkpt>
      <trkpt lat="43.4144" lon="5.85997">
        <ele>344.77</ele>
        <time>2019-01-27T11:25:29Z</time>
      </trkpt>
      <trkpt lat="43.41439" lon="5.85994">
        <ele>344.77</ele>
        <time>2019-01-27T11:25:30Z</time>
      </trkpt>
      <trkpt lat="43.41438" lon="5.85992">
        <ele>344.77</ele>
        <time>2019-01-27T11:25:31Z</time>
      </trkpt>
      <trkpt lat="43.41437" lon="5.85991">
        <ele>344.77</ele>
        <time>2019-01-27T11:25:32Z</time>
      </trkpt>
      <trkpt lat="43.41436" lon="5.8599">
        <ele>344.77</ele>
        <time>2019-01-27T11:25:33Z</time>
      </trkpt>
      <trkpt lat="43.41435" lon="5.85989">
        <ele>344.77</ele>
        <time>2019-01-27T11:25:34Z</time>
      </trkpt>
      <trkpt lat="43.41434" lon="5.85985">
        <ele>343.33</ele>
        <time>2019-01-27T11:25:36Z</time>
      </trkpt>
      <trkpt lat="43.41434" lon="5.85977">
        <ele>343.33</ele>
        <time>2019-01-27T11:25:39Z</time>
      </trkpt>
      <trkpt lat="43.41433" lon="5.85975">
        <ele>343.33</ele>
        <time>2019-01-27T11:25:40Z</time>
      </trkpt>
      <trkpt lat="43.4143" lon="5.8597">
        <ele>342.37</ele>
        <time>2019-01-27T11:25:47Z</time>
      </trkpt>
      <trkpt lat="43.4143" lon="5.85969">
        <ele>342.37</ele>
        <time>2019-01-27T11:25:48Z</time>
      </trkpt>
      <trkpt lat="43.41428" lon="5.85967">
        <ele>342.37</ele>
        <time>2019-01-27T11:25:49Z</time>
      </trkpt>
      <trkpt lat="43.41427" lon="5.85965">
        <ele>342.37</ele>
        <time>2019-01-27T11:25:50Z</time>
      </trkpt>
      <trkpt lat="43.41426" lon="5.85963">
        <ele>342.37</ele>
        <time>2019-01-27T11:25:51Z</time>
      </trkpt>
      <trkpt lat="43.41425" lon="5.8596">
        <ele>341.89</ele>
        <time>2019-01-27T11:25:52Z</time>
      </trkpt>
      <trkpt lat="43.41424" lon="5.85956">
        <ele>341.89</ele>
        <time>2019-01-27T11:25:53Z</time>
      </trkpt>
      <trkpt lat="43.41424" lon="5.85951">
        <ele>340.92</ele>
        <time>2019-01-27T11:25:54Z</time>
      </trkpt>
      <trkpt lat="43.41424" lon="5.85946">
        <ele>340.44</ele>
        <time>2019-01-27T11:25:55Z</time>
      </trkpt>
      <trkpt lat="43.41426" lon="5.85942">
        <ele>339.96</ele>
        <time>2019-01-27T11:25:56Z</time>
      </trkpt>
      <trkpt lat="43.41428" lon="5.85938">
        <ele>339</ele>
        <time>2019-01-27T11:25:57Z</time>
      </trkpt>
      <trkpt lat="43.41431" lon="5.85935">
        <ele>337.56</ele>
        <time>2019-01-27T11:25:58Z</time>
      </trkpt>
      <trkpt lat="43.41435" lon="5.85934">
        <ele>337.56</ele>
        <time>2019-01-27T11:25:59Z</time>
      </trkpt>
      <trkpt lat="43.41439" lon="5.85935">
        <ele>336.6</ele>
        <time>2019-01-27T11:26:00Z</time>
      </trkpt>
      <trkpt lat="43.41446" lon="5.85936">
        <ele>336.12</ele>
        <time>2019-01-27T11:26:01Z</time>
      </trkpt>
      <trkpt lat="43.41479" lon="5.85945">
        <ele>333.71</ele>
        <time>2019-01-27T11:26:05Z</time>
      </trkpt>
      <trkpt lat="43.41515" lon="5.85959">
        <ele>330.83</ele>
        <time>2019-01-27T11:26:10Z</time>
      </trkpt>
      <trkpt lat="43.41547" lon="5.85973">
        <ele>327.47</ele>
        <time>2019-01-27T11:26:16Z</time>
      </trkpt>
      <trkpt lat="43.41552" lon="5.85976">
        <ele>327.47</ele>
        <time>2019-01-27T11:26:17Z</time>
      </trkpt>
      <trkpt lat="43.41562" lon="5.8598">
        <ele>326.5</ele>
        <time>2019-01-27T11:26:19Z</time>
      </trkpt>
      <trkpt lat="43.41567" lon="5.85982">
        <ele>325.06</ele>
        <time>2019-01-27T11:26:20Z</time>
      </trkpt>
      <trkpt lat="43.41572" lon="5.85982">
        <ele>325.54</ele>
        <time>2019-01-27T11:26:21Z</time>
      </trkpt>
      <trkpt lat="43.41577" lon="5.85981">
        <ele>324.1</ele>
        <time>2019-01-27T11:26:22Z</time>
      </trkpt>
      <trkpt lat="43.41582" lon="5.85978">
        <ele>324.1</ele>
        <time>2019-01-27T11:26:23Z</time>
      </trkpt>
      <trkpt lat="43.41586" lon="5.85973">
        <ele>324.1</ele>
        <time>2019-01-27T11:26:24Z</time>
      </trkpt>
      <trkpt lat="43.41589" lon="5.85968">
        <ele>323.62</ele>
        <time>2019-01-27T11:26:25Z</time>
      </trkpt>
      <trkpt lat="43.4159" lon="5.85961">
        <ele>323.62</ele>
        <time>2019-01-27T11:26:26Z</time>
      </trkpt>
      <trkpt lat="43.41589" lon="5.85955">
        <ele>323.62</ele>
        <time>2019-01-27T11:26:27Z</time>
      </trkpt>
      <trkpt lat="43.41589" lon="5.85948">
        <ele>321.22</ele>
        <time>2019-01-27T11:26:28Z</time>
      </trkpt>
      <trkpt lat="43.4159" lon="5.85941">
        <ele>319.78</ele>
        <time>2019-01-27T11:26:29Z</time>
      </trkpt>
      <trkpt lat="43.41591" lon="5.85935">
        <ele>319.3</ele>
        <time>2019-01-27T11:26:30Z</time>
      </trkpt>
      <trkpt lat="43.41593" lon="5.85929">
        <ele>318.33</ele>
        <time>2019-01-27T11:26:31Z</time>
      </trkpt>
      <trkpt lat="43.41596" lon="5.85924">
        <ele>317.85</ele>
        <time>2019-01-27T11:26:32Z</time>
      </trkpt>
      <trkpt lat="43.41599" lon="5.8592">
        <ele>317.37</ele>
        <time>2019-01-27T11:26:33Z</time>
      </trkpt>
      <trkpt lat="43.41615" lon="5.85905">
        <ele>316.89</ele>
        <time>2019-01-27T11:26:44Z</time>
      </trkpt>
      <trkpt lat="43.41622" lon="5.85899">
        <ele>316.89</ele>
        <time>2019-01-27T11:26:56Z</time>
      </trkpt>
      <trkpt lat="43.41624" lon="5.85897">
        <ele>317.85</ele>
        <time>2019-01-27T11:27:03Z</time>
      </trkpt>
      <trkpt lat="43.41626" lon="5.85897">
        <ele>317.85</ele>
        <time>2019-01-27T11:27:04Z</time>
      </trkpt>
      <trkpt lat="43.41627" lon="5.85896">
        <ele>317.85</ele>
        <time>2019-01-27T11:27:05Z</time>
      </trkpt>
      <trkpt lat="43.41629" lon="5.85896">
        <ele>317.85</ele>
        <time>2019-01-27T11:27:06Z</time>
      </trkpt>
      <trkpt lat="43.41631" lon="5.85896">
        <ele>318.33</ele>
        <time>2019-01-27T11:27:07Z</time>
      </trkpt>
      <trkpt lat="43.41632" lon="5.85895">
        <ele>318.33</ele>
        <time>2019-01-27T11:27:08Z</time>
      </trkpt>
      <trkpt lat="43.41644" lon="5.85889">
        <ele>320.26</ele>
        <time>2019-01-27T11:27:16Z</time>
      </trkpt>
      <trkpt lat="43.41664" lon="5.859">
        <ele>322.18</ele>
        <time>2019-01-27T11:27:28Z</time>
      </trkpt>
      <trkpt lat="43.41707" lon="5.85913">
        <ele>324.58</ele>
        <time>2019-01-27T11:27:45Z</time>
      </trkpt>
      <trkpt lat="43.41722" lon="5.85907">
        <ele>326.02</ele>
        <time>2019-01-27T11:27:54Z</time>
      </trkpt>
      <trkpt lat="43.41741" lon="5.85903">
        <ele>327.95</ele>
        <time>2019-01-27T11:28:09Z</time>
      </trkpt>
      <trkpt lat="43.41749" lon="5.85905">
        <ele>328.43</ele>
        <time>2019-01-27T11:28:20Z</time>
      </trkpt>
      <trkpt lat="43.4175" lon="5.85905">
        <ele>328.43</ele>
        <time>2019-01-27T11:28:21Z</time>
      </trkpt>
      <trkpt lat="43.41752" lon="5.85904">
        <ele>328.91</ele>
        <time>2019-01-27T11:28:22Z</time>
      </trkpt>
      <trkpt lat="43.41753" lon="5.85904">
        <ele>328.91</ele>
        <time>2019-01-27T11:28:23Z</time>
      </trkpt>
      <trkpt lat="43.41755" lon="5.85904">
        <ele>328.91</ele>
        <time>2019-01-27T11:28:24Z</time>
      </trkpt>
      <trkpt lat="43.41756" lon="5.85904">
        <ele>329.39</ele>
        <time>2019-01-27T11:28:25Z</time>
      </trkpt>
      <trkpt lat="43.41758" lon="5.85904">
        <ele>329.39</ele>
        <time>2019-01-27T11:28:26Z</time>
      </trkpt>
      <trkpt lat="43.41783" lon="5.8591">
        <ele>331.31</ele>
        <time>2019-01-27T11:28:41Z</time>
      </trkpt>
      <trkpt lat="43.41808" lon="5.85919">
        <ele>333.23</ele>
        <time>2019-01-27T11:28:55Z</time>
      </trkpt>
      <trkpt lat="43.4184" lon="5.85919">
        <ele>336.12</ele>
        <time>2019-01-27T11:29:12Z</time>
      </trkpt>
      <trkpt lat="43.41856" lon="5.85918">
        <ele>338.04</ele>
        <time>2019-01-27T11:29:18Z</time>
      </trkpt>
      <trkpt lat="43.41857" lon="5.85916">
        <ele>338.04</ele>
        <time>2019-01-27T11:29:19Z</time>
      </trkpt>
      <trkpt lat="43.41858" lon="5.85914">
        <ele>338.52</ele>
        <time>2019-01-27T11:29:20Z</time>
      </trkpt>
      <trkpt lat="43.41858" lon="5.85913">
        <ele>338.52</ele>
        <time>2019-01-27T11:29:21Z</time>
      </trkpt>
      <trkpt lat="43.41858" lon="5.85911">
        <ele>339</ele>
        <time>2019-01-27T11:29:22Z</time>
      </trkpt>
      <trkpt lat="43.41858" lon="5.85909">
        <ele>339</ele>
        <time>2019-01-27T11:29:23Z</time>
      </trkpt>
      <trkpt lat="43.41857" lon="5.85907">
        <ele>339.48</ele>
        <time>2019-01-27T11:29:24Z</time>
      </trkpt>
      <trkpt lat="43.41856" lon="5.85906">
        <ele>339.96</ele>
        <time>2019-01-27T11:29:25Z</time>
      </trkpt>
      <trkpt lat="43.41855" lon="5.85905">
        <ele>339.96</ele>
        <time>2019-01-27T11:29:26Z</time>
      </trkpt>
      <trkpt lat="43.41854" lon="5.85904">
        <ele>339.96</ele>
        <time>2019-01-27T11:29:27Z</time>
      </trkpt>
      <trkpt lat="43.41854" lon="5.85903">
        <ele>340.44</ele>
        <time>2019-01-27T11:29:28Z</time>
      </trkpt>
      <trkpt lat="43.41852" lon="5.85901">
        <ele>340.44</ele>
        <time>2019-01-27T11:29:29Z</time>
      </trkpt>
      <trkpt lat="43.41851" lon="5.859">
        <ele>340.92</ele>
        <time>2019-01-27T11:29:30Z</time>
      </trkpt>
      <trkpt lat="43.4185" lon="5.85878">
        <ele>342.37</ele>
        <time>2019-01-27T11:29:43Z</time>
      </trkpt>
      <trkpt lat="43.41857" lon="5.8587">
        <ele>342.37</ele>
        <time>2019-01-27T11:29:48Z</time>
      </trkpt>
      <trkpt lat="43.41861" lon="5.85836">
        <ele>342.85</ele>
        <time>2019-01-27T11:30:00Z</time>
      </trkpt>
      <trkpt lat="43.41862" lon="5.85828">
        <ele>342.85</ele>
        <time>2019-01-27T11:30:27Z</time>
      </trkpt>
      <trkpt lat="43.41863" lon="5.85828">
        <ele>342.85</ele>
        <time>2019-01-27T11:30:30Z</time>
      </trkpt>
      <trkpt lat="43.41886" lon="5.85828">
        <ele>343.33</ele>
        <time>2019-01-27T11:30:42Z</time>
      </trkpt>
      <trkpt lat="43.41888" lon="5.85828">
        <ele>343.33</ele>
        <time>2019-01-27T11:30:43Z</time>
      </trkpt>
      <trkpt lat="43.4189" lon="5.85828">
        <ele>343.33</ele>
        <time>2019-01-27T11:30:44Z</time>
      </trkpt>
      <trkpt lat="43.41932" lon="5.85839">
        <ele>346.69</ele>
        <time>2019-01-27T11:31:00Z</time>
      </trkpt>
      <trkpt lat="43.41958" lon="5.8585">
        <ele>347.65</ele>
        <time>2019-01-27T11:31:14Z</time>
      </trkpt>
      <trkpt lat="43.41989" lon="5.85862">
        <ele>347.65</ele>
        <time>2019-01-27T11:31:25Z</time>
      </trkpt>
      <trkpt lat="43.41993" lon="5.85862">
        <ele>346.69</ele>
        <time>2019-01-27T11:31:26Z</time>
      </trkpt>
      <trkpt lat="43.41998" lon="5.85862">
        <ele>346.69</ele>
        <time>2019-01-27T11:31:27Z</time>
      </trkpt>
      <trkpt lat="43.42007" lon="5.85864">
        <ele>346.69</ele>
        <time>2019-01-27T11:31:29Z</time>
      </trkpt>
      <trkpt lat="43.42056" lon="5.85881">
        <ele>347.17</ele>
        <time>2019-01-27T11:31:43Z</time>
      </trkpt>
      <trkpt lat="43.42078" lon="5.85891">
        <ele>348.13</ele>
        <time>2019-01-27T11:31:50Z</time>
      </trkpt>
      <trkpt lat="43.42081" lon="5.85893">
        <ele>348.13</ele>
        <time>2019-01-27T11:31:51Z</time>
      </trkpt>
      <trkpt lat="43.421" lon="5.85901">
        <ele>346.21</ele>
        <time>2019-01-27T11:31:55Z</time>
      </trkpt>
      <trkpt lat="43.4214" lon="5.85914">
        <ele>346.21</ele>
        <time>2019-01-27T11:32:06Z</time>
      </trkpt>
      <trkpt lat="43.42147" lon="5.85914">
        <ele>347.17</ele>
        <time>2019-01-27T11:32:08Z</time>
      </trkpt>
      <trkpt lat="43.42198" lon="5.85919">
        <ele>347.65</ele>
        <time>2019-01-27T11:32:22Z</time>
      </trkpt>
      <trkpt lat="43.42268" lon="5.85907">
        <ele>348.13</ele>
        <time>2019-01-27T11:32:36Z</time>
      </trkpt>
      <trkpt lat="43.42298" lon="5.85899">
        <ele>348.13</ele>
        <time>2019-01-27T11:32:46Z</time>
      </trkpt>
      <trkpt lat="43.42301" lon="5.85892">
        <ele>348.13</ele>
        <time>2019-01-27T11:32:52Z</time>
      </trkpt>
      <trkpt lat="43.42302" lon="5.85893">
        <ele>348.13</ele>
        <time>2019-01-27T11:32:54Z</time>
      </trkpt>
      <trkpt lat="43.42303" lon="5.85893">
        <ele>348.13</ele>
        <time>2019-01-27T11:32:55Z</time>
      </trkpt>
      <trkpt lat="43.42305" lon="5.85892">
        <ele>348.13</ele>
        <time>2019-01-27T11:32:59Z</time>
      </trkpt>
      <trkpt lat="43.42307" lon="5.85892">
        <ele>349.58</ele>
        <time>2019-01-27T11:33:00Z</time>
      </trkpt>
      <trkpt lat="43.42309" lon="5.85891">
        <ele>349.58</ele>
        <time>2019-01-27T11:33:01Z</time>
      </trkpt>
      <trkpt lat="43.42312" lon="5.8589">
        <ele>350.06</ele>
        <time>2019-01-27T11:33:02Z</time>
      </trkpt>
      <trkpt lat="43.42315" lon="5.85889">
        <ele>350.06</ele>
        <time>2019-01-27T11:33:03Z</time>
      </trkpt>
      <trkpt lat="43.42318" lon="5.85888">
        <ele>350.06</ele>
        <time>2019-01-27T11:33:04Z</time>
      </trkpt>
      <trkpt lat="43.42321" lon="5.85887">
        <ele>350.06</ele>
        <time>2019-01-27T11:33:05Z</time>
      </trkpt>
      <trkpt lat="43.42368" lon="5.85863">
        <ele>352.46</ele>
        <time>2019-01-27T11:33:21Z</time>
      </trkpt>
      <trkpt lat="43.42393" lon="5.85845">
        <ele>351.02</ele>
        <time>2019-01-27T11:33:31Z</time>
      </trkpt>
      <trkpt lat="43.42448" lon="5.85813">
        <ele>348.13</ele>
        <time>2019-01-27T11:33:43Z</time>
      </trkpt>
      <trkpt lat="43.42517" lon="5.85777">
        <ele>349.58</ele>
        <time>2019-01-27T11:33:56Z</time>
      </trkpt>
      <trkpt lat="43.42579" lon="5.85738">
        <ele>351.02</ele>
        <time>2019-01-27T11:34:11Z</time>
      </trkpt>
      <trkpt lat="43.42614" lon="5.85724">
        <ele>349.1</ele>
        <time>2019-01-27T11:34:17Z</time>
      </trkpt>
      <trkpt lat="43.42635" lon="5.85718">
        <ele>345.25</ele>
        <time>2019-01-27T11:34:20Z</time>
      </trkpt>
      <trkpt lat="43.42641" lon="5.85716">
        <ele>345.25</ele>
        <time>2019-01-27T11:34:21Z</time>
      </trkpt>
      <trkpt lat="43.42666" lon="5.85713">
        <ele>347.17</ele>
        <time>2019-01-27T11:34:25Z</time>
      </trkpt>
      <trkpt lat="43.42702" lon="5.85711">
        <ele>349.58</ele>
        <time>2019-01-27T11:34:32Z</time>
      </trkpt>
      <trkpt lat="43.42786" lon="5.85718">
        <ele>349.58</ele>
        <time>2019-01-27T11:34:48Z</time>
      </trkpt>
      <trkpt lat="43.42847" lon="5.85731">
        <ele>351.02</ele>
        <time>2019-01-27T11:35:01Z</time>
      </trkpt>
      <trkpt lat="43.42851" lon="5.85729">
        <ele>351.5</ele>
        <time>2019-01-27T11:35:02Z</time>
      </trkpt>
      <trkpt lat="43.42856" lon="5.85729">
        <ele>351.5</ele>
        <time>2019-01-27T11:35:03Z</time>
      </trkpt>
      <trkpt lat="43.42859" lon="5.85725">
        <ele>352.46</ele>
        <time>2019-01-27T11:35:04Z</time>
      </trkpt>
      <trkpt lat="43.42861" lon="5.85721">
        <ele>352.46</ele>
        <time>2019-01-27T11:35:05Z</time>
      </trkpt>
      <trkpt lat="43.42866" lon="5.85711">
        <ele>353.42</ele>
        <time>2019-01-27T11:35:07Z</time>
      </trkpt>
      <trkpt lat="43.42871" lon="5.85701">
        <ele>351.5</ele>
        <time>2019-01-27T11:35:09Z</time>
      </trkpt>
      <trkpt lat="43.42878" lon="5.85688">
        <ele>351.5</ele>
        <time>2019-01-27T11:35:12Z</time>
      </trkpt>
      <trkpt lat="43.42892" lon="5.85662">
        <ele>352.94</ele>
        <time>2019-01-27T11:35:18Z</time>
      </trkpt>
      <trkpt lat="43.42903" lon="5.85647">
        <ele>354.38</ele>
        <time>2019-01-27T11:35:22Z</time>
      </trkpt>
      <trkpt lat="43.42947" lon="5.8561">
        <ele>357.27</ele>
        <time>2019-01-27T11:35:36Z</time>
      </trkpt>
      <trkpt lat="43.42994" lon="5.85571">
        <ele>356.79</ele>
        <time>2019-01-27T11:35:50Z</time>
      </trkpt>
      <trkpt lat="43.43011" lon="5.85552">
        <ele>355.83</ele>
        <time>2019-01-27T11:35:55Z</time>
      </trkpt>
      <trkpt lat="43.43057" lon="5.85476">
        <ele>353.9</ele>
        <time>2019-01-27T11:36:08Z</time>
      </trkpt>
      <trkpt lat="43.4306" lon="5.85471">
        <ele>353.9</ele>
        <time>2019-01-27T11:36:09Z</time>
      </trkpt>
      <trkpt lat="43.43076" lon="5.85446">
        <ele>354.38</ele>
        <time>2019-01-27T11:36:14Z</time>
      </trkpt>
      <trkpt lat="43.43079" lon="5.85441">
        <ele>354.38</ele>
        <time>2019-01-27T11:36:15Z</time>
      </trkpt>
      <trkpt lat="43.43097" lon="5.85409">
        <ele>353.9</ele>
        <time>2019-01-27T11:36:22Z</time>
      </trkpt>
      <trkpt lat="43.43133" lon="5.85389">
        <ele>353.9</ele>
        <time>2019-01-27T11:36:32Z</time>
      </trkpt>
      <trkpt lat="43.43197" lon="5.85414">
        <ele>352.94</ele>
        <time>2019-01-27T11:36:45Z</time>
      </trkpt>
      <trkpt lat="43.43283" lon="5.85449">
        <ele>354.86</ele>
        <time>2019-01-27T11:37:03Z</time>
      </trkpt>
      <trkpt lat="43.43347" lon="5.85475">
        <ele>357.27</ele>
        <time>2019-01-27T11:37:19Z</time>
      </trkpt>
      <trkpt lat="43.43408" lon="5.85502">
        <ele>360.63</ele>
        <time>2019-01-27T11:37:36Z</time>
      </trkpt>
      <trkpt lat="43.43454" lon="5.85521">
        <ele>362.55</ele>
        <time>2019-01-27T11:37:50Z</time>
      </trkpt>
      <trkpt lat="43.4351" lon="5.85545">
        <ele>365.92</ele>
        <time>2019-01-27T11:38:08Z</time>
      </trkpt>
      <trkpt lat="43.43551" lon="5.85558">
        <ele>368.8</ele>
        <time>2019-01-27T11:38:22Z</time>
      </trkpt>
      <trkpt lat="43.43594" lon="5.85552">
        <ele>368.8</ele>
        <time>2019-01-27T11:38:34Z</time>
      </trkpt>
      <trkpt lat="43.43599" lon="5.85552">
        <ele>368.8</ele>
        <time>2019-01-27T11:38:35Z</time>
      </trkpt>
      <trkpt lat="43.43604" lon="5.85553">
        <ele>368.8</ele>
        <time>2019-01-27T11:38:36Z</time>
      </trkpt>
      <trkpt lat="43.43608" lon="5.85555">
        <ele>368.8</ele>
        <time>2019-01-27T11:38:37Z</time>
      </trkpt>
      <trkpt lat="43.43612" lon="5.85558">
        <ele>368.8</ele>
        <time>2019-01-27T11:38:38Z</time>
      </trkpt>
      <trkpt lat="43.43685" lon="5.85644">
        <ele>366.4</ele>
        <time>2019-01-27T11:38:55Z</time>
      </trkpt>
      <trkpt lat="43.43737" lon="5.85716">
        <ele>365.92</ele>
        <time>2019-01-27T11:39:07Z</time>
      </trkpt>
      <trkpt lat="43.43741" lon="5.85723">
        <ele>365.92</ele>
        <time>2019-01-27T11:39:08Z</time>
      </trkpt>
      <trkpt lat="43.43787" lon="5.85815">
        <ele>364</ele>
        <time>2019-01-27T11:39:21Z</time>
      </trkpt>
      <trkpt lat="43.43801" lon="5.85837">
        <ele>363.52</ele>
        <time>2019-01-27T11:39:24Z</time>
      </trkpt>
      <trkpt lat="43.43806" lon="5.85845">
        <ele>363.52</ele>
        <time>2019-01-27T11:39:25Z</time>
      </trkpt>
      <trkpt lat="43.43866" lon="5.85957">
        <ele>362.07</ele>
        <time>2019-01-27T11:39:39Z</time>
      </trkpt>
      <trkpt lat="43.43914" lon="5.86059">
        <ele>358.71</ele>
        <time>2019-01-27T11:39:52Z</time>
      </trkpt>
      <trkpt lat="43.43956" lon="5.86165">
        <ele>354.86</ele>
        <time>2019-01-27T11:40:03Z</time>
      </trkpt>
      <trkpt lat="43.43963" lon="5.86186">
        <ele>354.38</ele>
        <time>2019-01-27T11:40:05Z</time>
      </trkpt>
      <trkpt lat="43.43973" lon="5.8622">
        <ele>352.94</ele>
        <time>2019-01-27T11:40:08Z</time>
      </trkpt>
      <trkpt lat="43.43995" lon="5.86282">
        <ele>350.54</ele>
        <time>2019-01-27T11:40:14Z</time>
      </trkpt>
      <trkpt lat="43.43998" lon="5.86289">
        <ele>350.06</ele>
        <time>2019-01-27T11:40:15Z</time>
      </trkpt>
      <trkpt lat="43.44004" lon="5.86294">
        <ele>350.06</ele>
        <time>2019-01-27T11:40:16Z</time>
      </trkpt>
      <trkpt lat="43.44011" lon="5.86299">
        <ele>350.06</ele>
        <time>2019-01-27T11:40:17Z</time>
      </trkpt>
      <trkpt lat="43.44015" lon="5.863">
        <ele>349.58</ele>
        <time>2019-01-27T11:40:18Z</time>
      </trkpt>
      <trkpt lat="43.44021" lon="5.86302">
        <ele>349.58</ele>
        <time>2019-01-27T11:40:19Z</time>
      </trkpt>
      <trkpt lat="43.44027" lon="5.86303">
        <ele>349.1</ele>
        <time>2019-01-27T11:40:20Z</time>
      </trkpt>
      <trkpt lat="43.44033" lon="5.86303">
        <ele>349.1</ele>
        <time>2019-01-27T11:40:21Z</time>
      </trkpt>
      <trkpt lat="43.44039" lon="5.86302">
        <ele>348.13</ele>
        <time>2019-01-27T11:40:22Z</time>
      </trkpt>
      <trkpt lat="43.44043" lon="5.863">
        <ele>348.13</ele>
        <time>2019-01-27T11:40:23Z</time>
      </trkpt>
      <trkpt lat="43.44046" lon="5.86297">
        <ele>347.65</ele>
        <time>2019-01-27T11:40:24Z</time>
      </trkpt>
      <trkpt lat="43.44047" lon="5.86291">
        <ele>347.65</ele>
        <time>2019-01-27T11:40:25Z</time>
      </trkpt>
      <trkpt lat="43.44047" lon="5.86287">
        <ele>347.65</ele>
        <time>2019-01-27T11:40:26Z</time>
      </trkpt>
      <trkpt lat="43.44046" lon="5.86285">
        <ele>347.65</ele>
        <time>2019-01-27T11:40:27Z</time>
      </trkpt>
      <trkpt lat="43.44045" lon="5.86281">
        <ele>349.1</ele>
        <time>2019-01-27T11:40:28Z</time>
      </trkpt>
      <trkpt lat="43.44037" lon="5.86242">
        <ele>352.94</ele>
        <time>2019-01-27T11:40:38Z</time>
      </trkpt>
      <trkpt lat="43.44031" lon="5.86183">
        <ele>355.34</ele>
        <time>2019-01-27T11:40:52Z</time>
      </trkpt>
      <trkpt lat="43.44027" lon="5.86168">
        <ele>355.34</ele>
        <time>2019-01-27T11:40:56Z</time>
      </trkpt>
      <trkpt lat="43.44026" lon="5.86166">
        <ele>355.34</ele>
        <time>2019-01-27T11:40:57Z</time>
      </trkpt>
      <trkpt lat="43.44" lon="5.86158">
        <ele>356.79</ele>
        <time>2019-01-27T11:41:08Z</time>
      </trkpt>
      <trkpt lat="43.43985" lon="5.86126">
        <ele>359.19</ele>
        <time>2019-01-27T11:41:21Z</time>
      </trkpt>
      <trkpt lat="43.43974" lon="5.86092">
        <ele>359.67</ele>
        <time>2019-01-27T11:41:33Z</time>
      </trkpt>
      <trkpt lat="43.43978" lon="5.86086">
        <ele>359.67</ele>
        <time>2019-01-27T11:41:36Z</time>
      </trkpt>
      <trkpt lat="43.43981" lon="5.86078">
        <ele>360.15</ele>
        <time>2019-01-27T11:41:40Z</time>
      </trkpt>
      <trkpt lat="43.43977" lon="5.86032">
        <ele>360.15</ele>
        <time>2019-01-27T11:41:55Z</time>
      </trkpt>
      <trkpt lat="43.43974" lon="5.86026">
        <ele>360.63</ele>
        <time>2019-01-27T11:42:06Z</time>
      </trkpt>
      <trkpt lat="43.43975" lon="5.86024">
        <ele>360.63</ele>
        <time>2019-01-27T11:42:34Z</time>
      </trkpt>
      <trkpt lat="43.43974" lon="5.86025">
        <ele>360.63</ele>
        <time>2019-01-27T11:42:50Z</time>
      </trkpt>
      <trkpt lat="43.43973" lon="5.86028">
        <ele>360.15</ele>
        <time>2019-01-27T11:43:14Z</time>
      </trkpt>
      <trkpt lat="43.43973" lon="5.86026">
        <ele>360.15</ele>
        <time>2019-01-27T11:43:50Z</time>
      </trkpt>
      <trkpt lat="43.43972" lon="5.86029">
        <ele>361.11</ele>
        <time>2019-01-27T11:44:33Z</time>
      </trkpt>
      <trkpt lat="43.43972" lon="5.86028">
        <ele>361.11</ele>
        <time>2019-01-27T11:45:11Z</time>
      </trkpt>
      <trkpt lat="43.43967" lon="5.86029">
        <ele>360.63</ele>
        <time>2019-01-27T11:45:54Z</time>
      </trkpt>
      <trkpt lat="43.43971" lon="5.8603">
        <ele>360.63</ele>
        <time>2019-01-27T11:46:34Z</time>
      </trkpt>
      <trkpt lat="43.4397" lon="5.86031">
        <ele>360.15</ele>
        <time>2019-01-27T11:47:10Z</time>
      </trkpt>
      <trkpt lat="43.43972" lon="5.86032">
        <ele>359.67</ele>
        <time>2019-01-27T11:47:57Z</time>
      </trkpt>
      <trkpt lat="43.43972" lon="5.86033">
        <ele>359.67</ele>
        <time>2019-01-27T11:48:39Z</time>
      </trkpt>
      <trkpt lat="43.43973" lon="5.86032">
        <ele>359.67</ele>
        <time>2019-01-27T11:49:18Z</time>
      </trkpt>
      <trkpt lat="43.43972" lon="5.86028">
        <ele>359.67</ele>
        <time>2019-01-27T11:49:52Z</time>
      </trkpt>
      <trkpt lat="43.43971" lon="5.86027">
        <ele>359.19</ele>
        <time>2019-01-27T11:50:28Z</time>
      </trkpt>
      <trkpt lat="43.4397" lon="5.86026">
        <ele>359.19</ele>
        <time>2019-01-27T11:50:57Z</time>
      </trkpt>
      <trkpt lat="43.43971" lon="5.86034">
        <ele>359.19</ele>
        <time>2019-01-27T11:51:32Z</time>
      </trkpt>
      <trkpt lat="43.43973" lon="5.8604">
        <ele>359.19</ele>
        <time>2019-01-27T11:52:11Z</time>
      </trkpt>
      <trkpt lat="43.43974" lon="5.8604">
        <ele>358.71</ele>
        <time>2019-01-27T11:52:50Z</time>
      </trkpt>
      <trkpt lat="43.43969" lon="5.86033">
        <ele>358.71</ele>
        <time>2019-01-27T11:53:22Z</time>
      </trkpt>
      <trkpt lat="43.4397" lon="5.86027">
        <ele>358.71</ele>
        <time>2019-01-27T11:53:52Z</time>
      </trkpt>
      <trkpt lat="43.43968" lon="5.86029">
        <ele>358.23</ele>
        <time>2019-01-27T11:54:23Z</time>
      </trkpt>
      <trkpt lat="43.43966" lon="5.86031">
        <ele>358.23</ele>
        <time>2019-01-27T11:54:58Z</time>
      </trkpt>
      <trkpt lat="43.43964" lon="5.86029">
        <ele>356.79</ele>
        <time>2019-01-27T11:55:23Z</time>
      </trkpt>
      <trkpt lat="43.43963" lon="5.86028">
        <ele>356.31</ele>
        <time>2019-01-27T11:56:01Z</time>
      </trkpt>
      <trkpt lat="43.43966" lon="5.86026">
        <ele>356.31</ele>
        <time>2019-01-27T11:56:39Z</time>
      </trkpt>
      <trkpt lat="43.43968" lon="5.86027">
        <ele>356.31</ele>
        <time>2019-01-27T11:57:18Z</time>
      </trkpt>
      <trkpt lat="43.43969" lon="5.86029">
        <ele>356.31</ele>
        <time>2019-01-27T11:58:01Z</time>
      </trkpt>
      <trkpt lat="43.43971" lon="5.8603">
        <ele>355.83</ele>
        <time>2019-01-27T11:58:44Z</time>
      </trkpt>
      <trkpt lat="43.43972" lon="5.8603">
        <ele>355.83</ele>
        <time>2019-01-27T11:59:22Z</time>
      </trkpt>
      <trkpt lat="43.43969" lon="5.86032">
        <ele>355.34</ele>
        <time>2019-01-27T11:59:54Z</time>
      </trkpt>
      <trkpt lat="43.43969" lon="5.86033">
        <ele>355.34</ele>
        <time>2019-01-27T12:00:29Z</time>
      </trkpt>
      <trkpt lat="43.43972" lon="5.86032">
        <ele>355.83</ele>
        <time>2019-01-27T12:01:11Z</time>
      </trkpt>
      <trkpt lat="43.43968" lon="5.86027">
        <ele>355.83</ele>
        <time>2019-01-27T12:01:51Z</time>
      </trkpt>
      <trkpt lat="43.43965" lon="5.86026">
        <ele>357.27</ele>
        <time>2019-01-27T12:02:26Z</time>
      </trkpt>
      <trkpt lat="43.43967" lon="5.86024">
        <ele>357.27</ele>
        <time>2019-01-27T12:02:54Z</time>
      </trkpt>
      <trkpt lat="43.4397" lon="5.86024">
        <ele>356.31</ele>
        <time>2019-01-27T12:03:28Z</time>
      </trkpt>
      <trkpt lat="43.43971" lon="5.86021">
        <ele>356.31</ele>
        <time>2019-01-27T12:04:03Z</time>
      </trkpt>
      <trkpt lat="43.43972" lon="5.86023">
        <ele>356.31</ele>
        <time>2019-01-27T12:04:36Z</time>
      </trkpt>
      <trkpt lat="43.43972" lon="5.86025">
        <ele>357.27</ele>
        <time>2019-01-27T12:05:05Z</time>
      </trkpt>
      <trkpt lat="43.43968" lon="5.86029">
        <ele>357.27</ele>
        <time>2019-01-27T12:05:38Z</time>
      </trkpt>
      <trkpt lat="43.43966" lon="5.8603">
        <ele>357.75</ele>
        <time>2019-01-27T12:06:09Z</time>
      </trkpt>
      <trkpt lat="43.43967" lon="5.86029">
        <ele>357.75</ele>
        <time>2019-01-27T12:06:36Z</time>
      </trkpt>
      <trkpt lat="43.43966" lon="5.8603">
        <ele>356.31</ele>
        <time>2019-01-27T12:07:06Z</time>
      </trkpt>
      <trkpt lat="43.43967" lon="5.86028">
        <ele>357.75</ele>
        <time>2019-01-27T12:07:36Z</time>
      </trkpt>
      <trkpt lat="43.4397" lon="5.86028">
        <ele>358.71</ele>
        <time>2019-01-27T12:08:12Z</time>
      </trkpt>
      <trkpt lat="43.43968" lon="5.86029">
        <ele>357.27</ele>
        <time>2019-01-27T12:08:42Z</time>
      </trkpt>
      <trkpt lat="43.43968" lon="5.86031">
        <ele>358.23</ele>
        <time>2019-01-27T12:09:13Z</time>
      </trkpt>
      <trkpt lat="43.43969" lon="5.86032">
        <ele>357.75</ele>
        <time>2019-01-27T12:09:29Z</time>
      </trkpt>
      <trkpt lat="43.43971" lon="5.86034">
        <ele>358.71</ele>
        <time>2019-01-27T12:09:38Z</time>
      </trkpt>
      <trkpt lat="43.43971" lon="5.86035">
        <ele>358.71</ele>
        <time>2019-01-27T12:09:39Z</time>
      </trkpt>
      <trkpt lat="43.43964" lon="5.86026">
        <ele>359.19</ele>
        <time>2019-01-27T12:09:57Z</time>
      </trkpt>
    </trkseg>
  </trk>
  <trk>
    <name><![CDATA[VTT_RAYOLS_2019-03-24]]></name>
    <trkseg>
      <trkpt lat="43.43962" lon="5.86023">
        <ele>343.81</ele>
        <time>2019-03-19T16:24:15Z</time>
      </trkpt>
      <trkpt lat="43.43962" lon="5.86023">
        <ele>343.81</ele>
        <time>2019-03-19T16:24:16Z</time>
      </trkpt>
      <trkpt lat="43.43959" lon="5.86025">
        <ele>343.33</ele>
        <time>2019-03-19T16:24:32Z</time>
      </trkpt>
      <trkpt lat="43.43981" lon="5.86037">
        <ele>242.39</ele>
        <time>2019-03-24T08:22:57Z</time>
      </trkpt>
      <trkpt lat="43.43985" lon="5.86035">
        <ele>242.39</ele>
        <time>2019-03-24T08:23:23Z</time>
      </trkpt>
      <trkpt lat="43.4398" lon="5.86033">
        <ele>246.23</ele>
        <time>2019-03-24T08:23:42Z</time>
      </trkpt>
      <trkpt lat="43.4398" lon="5.86033">
        <ele>249.6</ele>
        <time>2019-03-24T08:23:43Z</time>
      </trkpt>
      <trkpt lat="43.4398" lon="5.86033">
        <ele>253.44</ele>
        <time>2019-03-24T08:23:44Z</time>
      </trkpt>
      <trkpt lat="43.4398" lon="5.86033">
        <ele>256.81</ele>
        <time>2019-03-24T08:23:45Z</time>
      </trkpt>
      <trkpt lat="43.4398" lon="5.86033">
        <ele>260.17</ele>
        <time>2019-03-24T08:23:46Z</time>
      </trkpt>
      <trkpt lat="43.43979" lon="5.86033">
        <ele>263.54</ele>
        <time>2019-03-24T08:23:47Z</time>
      </trkpt>
      <trkpt lat="43.43979" lon="5.86033">
        <ele>266.42</ele>
        <time>2019-03-24T08:23:48Z</time>
      </trkpt>
      <trkpt lat="43.43979" lon="5.86033">
        <ele>269.79</ele>
        <time>2019-03-24T08:23:49Z</time>
      </trkpt>
      <trkpt lat="43.43978" lon="5.86033">
        <ele>275.56</ele>
        <time>2019-03-24T08:23:51Z</time>
      </trkpt>
      <trkpt lat="43.43978" lon="5.86033">
        <ele>280.84</ele>
        <time>2019-03-24T08:23:53Z</time>
      </trkpt>
      <trkpt lat="43.43978" lon="5.86033">
        <ele>285.65</ele>
        <time>2019-03-24T08:23:55Z</time>
      </trkpt>
      <trkpt lat="43.43979" lon="5.86032">
        <ele>290.46</ele>
        <time>2019-03-24T08:23:57Z</time>
      </trkpt>
      <trkpt lat="43.4398" lon="5.86032">
        <ele>297.18</ele>
        <time>2019-03-24T08:23:59Z</time>
      </trkpt>
      <trkpt lat="43.4398" lon="5.86032">
        <ele>297.18</ele>
        <time>2019-03-24T08:24:00Z</time>
      </trkpt>
      <trkpt lat="43.4398" lon="5.86032">
        <ele>301.03</ele>
        <time>2019-03-24T08:24:01Z</time>
      </trkpt>
      <trkpt lat="43.4398" lon="5.86032">
        <ele>301.03</ele>
        <time>2019-03-24T08:24:02Z</time>
      </trkpt>
      <trkpt lat="43.4398" lon="5.86032">
        <ele>304.88</ele>
        <time>2019-03-24T08:24:04Z</time>
      </trkpt>
      <trkpt lat="43.43981" lon="5.86032">
        <ele>308.72</ele>
        <time>2019-03-24T08:24:06Z</time>
      </trkpt>
      <trkpt lat="43.43982" lon="5.86031">
        <ele>312.09</ele>
        <time>2019-03-24T08:24:08Z</time>
      </trkpt>
      <trkpt lat="43.43982" lon="5.86031">
        <ele>314.97</ele>
        <time>2019-03-24T08:24:10Z</time>
      </trkpt>
      <trkpt lat="43.43983" lon="5.86031">
        <ele>318.33</ele>
        <time>2019-03-24T08:24:12Z</time>
      </trkpt>
      <trkpt lat="43.43983" lon="5.8603">
        <ele>322.18</ele>
        <time>2019-03-24T08:24:15Z</time>
      </trkpt>
      <trkpt lat="43.43984" lon="5.8603">
        <ele>326.02</ele>
        <time>2019-03-24T08:24:18Z</time>
      </trkpt>
      <trkpt lat="43.43984" lon="5.86031">
        <ele>329.39</ele>
        <time>2019-03-24T08:24:21Z</time>
      </trkpt>
      <trkpt lat="43.43985" lon="5.86032">
        <ele>332.75</ele>
        <time>2019-03-24T08:24:24Z</time>
      </trkpt>
      <trkpt lat="43.43985" lon="5.86033">
        <ele>336.6</ele>
        <time>2019-03-24T08:24:27Z</time>
      </trkpt>
      <trkpt lat="43.43985" lon="5.86033">
        <ele>337.56</ele>
        <time>2019-03-24T08:24:29Z</time>
      </trkpt>
      <trkpt lat="43.43985" lon="5.86034">
        <ele>340.44</ele>
        <time>2019-03-24T08:24:33Z</time>
      </trkpt>
      <trkpt lat="43.43986" lon="5.86035">
        <ele>343.81</ele>
        <time>2019-03-24T08:24:38Z</time>
      </trkpt>
      <trkpt lat="43.43985" lon="5.86035">
        <ele>347.17</ele>
        <time>2019-03-24T08:24:44Z</time>
      </trkpt>
      <trkpt lat="43.43985" lon="5.86035">
        <ele>350.54</ele>
        <time>2019-03-24T08:24:52Z</time>
      </trkpt>
      <trkpt lat="43.43985" lon="5.86035">
        <ele>351.98</ele>
        <time>2019-03-24T08:24:56Z</time>
      </trkpt>
      <trkpt lat="43.43981" lon="5.86034">
        <ele>355.34</ele>
        <time>2019-03-24T08:25:12Z</time>
      </trkpt>
      <trkpt lat="43.43979" lon="5.86029">
        <ele>356.31</ele>
        <time>2019-03-24T08:25:34Z</time>
      </trkpt>
      <trkpt lat="43.43976" lon="5.86027">
        <ele>356.31</ele>
        <time>2019-03-24T08:25:55Z</time>
      </trkpt>
      <trkpt lat="43.43973" lon="5.86028">
        <ele>356.31</ele>
        <time>2019-03-24T08:26:13Z</time>
      </trkpt>
      <trkpt lat="43.43977" lon="5.86025">
        <ele>356.31</ele>
        <time>2019-03-24T08:26:27Z</time>
      </trkpt>
      <trkpt lat="43.43978" lon="5.86023">
        <ele>356.31</ele>
        <time>2019-03-24T08:26:28Z</time>
      </trkpt>
      <trkpt lat="43.4398" lon="5.86021">
        <ele>356.31</ele>
        <time>2019-03-24T08:26:29Z</time>
      </trkpt>
      <trkpt lat="43.43982" lon="5.86021">
        <ele>356.31</ele>
        <time>2019-03-24T08:26:30Z</time>
      </trkpt>
      <trkpt lat="43.43984" lon="5.86023">
        <ele>356.31</ele>
        <time>2019-03-24T08:26:31Z</time>
      </trkpt>
      <trkpt lat="43.43987" lon="5.86027">
        <ele>356.31</ele>
        <time>2019-03-24T08:26:32Z</time>
      </trkpt>
      <trkpt lat="43.43991" lon="5.86032">
        <ele>356.31</ele>
        <time>2019-03-24T08:26:33Z</time>
      </trkpt>
      <trkpt lat="43.43999" lon="5.86041">
        <ele>354.86</ele>
        <time>2019-03-24T08:26:35Z</time>
      </trkpt>
      <trkpt lat="43.44028" lon="5.8608">
        <ele>352.46</ele>
        <time>2019-03-24T08:26:43Z</time>
      </trkpt>
      <trkpt lat="43.4403" lon="5.86086">
        <ele>352.46</ele>
        <time>2019-03-24T08:26:44Z</time>
      </trkpt>
      <trkpt lat="43.4403" lon="5.86092">
        <ele>352.46</ele>
        <time>2019-03-24T08:26:45Z</time>
      </trkpt>
      <trkpt lat="43.4403" lon="5.86098">
        <ele>352.46</ele>
        <time>2019-03-24T08:26:46Z</time>
      </trkpt>
      <trkpt lat="43.44029" lon="5.86104">
        <ele>352.46</ele>
        <time>2019-03-24T08:26:47Z</time>
      </trkpt>
      <trkpt lat="43.44025" lon="5.86165">
        <ele>351.98</ele>
        <time>2019-03-24T08:26:56Z</time>
      </trkpt>
      <trkpt lat="43.44024" lon="5.8618">
        <ele>351.5</ele>
        <time>2019-03-24T08:26:58Z</time>
      </trkpt>
      <trkpt lat="43.44025" lon="5.86196">
        <ele>351.5</ele>
        <time>2019-03-24T08:27:00Z</time>
      </trkpt>
      <trkpt lat="43.44027" lon="5.86204">
        <ele>351.02</ele>
        <time>2019-03-24T08:27:01Z</time>
      </trkpt>
      <trkpt lat="43.44033" lon="5.8625">
        <ele>348.62</ele>
        <time>2019-03-24T08:27:06Z</time>
      </trkpt>
      <trkpt lat="43.44036" lon="5.86271">
        <ele>345.73</ele>
        <time>2019-03-24T08:27:09Z</time>
      </trkpt>
      <trkpt lat="43.44038" lon="5.8628">
        <ele>344.77</ele>
        <time>2019-03-24T08:27:11Z</time>
      </trkpt>
      <trkpt lat="43.44045" lon="5.86288">
        <ele>342.85</ele>
        <time>2019-03-24T08:27:19Z</time>
      </trkpt>
      <trkpt lat="43.44046" lon="5.86288">
        <ele>342.85</ele>
        <time>2019-03-24T08:27:20Z</time>
      </trkpt>
      <trkpt lat="43.44048" lon="5.86288">
        <ele>343.33</ele>
        <time>2019-03-24T08:27:21Z</time>
      </trkpt>
      <trkpt lat="43.44052" lon="5.86288">
        <ele>343.33</ele>
        <time>2019-03-24T08:27:22Z</time>
      </trkpt>
      <trkpt lat="43.44106" lon="5.86273">
        <ele>343.33</ele>
        <time>2019-03-24T08:27:34Z</time>
      </trkpt>
      <trkpt lat="43.44199" lon="5.86241">
        <ele>342.37</ele>
        <time>2019-03-24T08:27:48Z</time>
      </trkpt>
      <trkpt lat="43.44308" lon="5.86197">
        <ele>341.89</ele>
        <time>2019-03-24T08:28:06Z</time>
      </trkpt>
      <trkpt lat="43.44372" lon="5.86139">
        <ele>339.96</ele>
        <time>2019-03-24T08:28:18Z</time>
      </trkpt>
      <trkpt lat="43.44408" lon="5.8603">
        <ele>336.12</ele>
        <time>2019-03-24T08:28:29Z</time>
      </trkpt>
      <trkpt lat="43.44428" lon="5.85959">
        <ele>335.64</ele>
        <time>2019-03-24T08:28:36Z</time>
      </trkpt>
      <trkpt lat="43.44433" lon="5.85952">
        <ele>335.16</ele>
        <time>2019-03-24T08:28:37Z</time>
      </trkpt>
      <trkpt lat="43.44438" lon="5.85948">
        <ele>334.68</ele>
        <time>2019-03-24T08:28:38Z</time>
      </trkpt>
      <trkpt lat="43.44443" lon="5.85946">
        <ele>334.68</ele>
        <time>2019-03-24T08:28:39Z</time>
      </trkpt>
      <trkpt lat="43.44449" lon="5.85947">
        <ele>334.68</ele>
        <time>2019-03-24T08:28:40Z</time>
      </trkpt>
      <trkpt lat="43.44453" lon="5.85949">
        <ele>334.2</ele>
        <time>2019-03-24T08:28:41Z</time>
      </trkpt>
      <trkpt lat="43.44457" lon="5.85952">
        <ele>333.71</ele>
        <time>2019-03-24T08:28:42Z</time>
      </trkpt>
      <trkpt lat="43.44473" lon="5.85961">
        <ele>332.75</ele>
        <time>2019-03-24T08:28:46Z</time>
      </trkpt>
      <trkpt lat="43.4448" lon="5.85964">
        <ele>332.75</ele>
        <time>2019-03-24T08:28:48Z</time>
      </trkpt>
      <trkpt lat="43.44511" lon="5.85977">
        <ele>331.79</ele>
        <time>2019-03-24T08:28:56Z</time>
      </trkpt>
      <trkpt lat="43.44578" lon="5.86004">
        <ele>329.87</ele>
        <time>2019-03-24T08:29:11Z</time>
      </trkpt>
      <trkpt lat="43.44635" lon="5.86023">
        <ele>327.95</ele>
        <time>2019-03-24T08:29:22Z</time>
      </trkpt>
      <trkpt lat="43.44638" lon="5.86026">
        <ele>327.47</ele>
        <time>2019-03-24T08:29:23Z</time>
      </trkpt>
      <trkpt lat="43.44641" lon="5.86028">
        <ele>327.47</ele>
        <time>2019-03-24T08:29:24Z</time>
      </trkpt>
      <trkpt lat="43.44642" lon="5.8603">
        <ele>326.99</ele>
        <time>2019-03-24T08:29:25Z</time>
      </trkpt>
      <trkpt lat="43.44643" lon="5.86032">
        <ele>326.99</ele>
        <time>2019-03-24T08:29:26Z</time>
      </trkpt>
      <trkpt lat="43.44644" lon="5.86034">
        <ele>326.99</ele>
        <time>2019-03-24T08:29:27Z</time>
      </trkpt>
      <trkpt lat="43.44645" lon="5.86035">
        <ele>326.99</ele>
        <time>2019-03-24T08:29:28Z</time>
      </trkpt>
      <trkpt lat="43.44646" lon="5.86035">
        <ele>326.99</ele>
        <time>2019-03-24T08:29:29Z</time>
      </trkpt>
      <trkpt lat="43.44647" lon="5.86032">
        <ele>326.5</ele>
        <time>2019-03-24T08:29:42Z</time>
      </trkpt>
      <trkpt lat="43.44646" lon="5.86035">
        <ele>326.5</ele>
        <time>2019-03-24T08:30:01Z</time>
      </trkpt>
      <trkpt lat="43.44646" lon="5.86037">
        <ele>326.99</ele>
        <time>2019-03-24T08:30:23Z</time>
      </trkpt>
      <trkpt lat="43.44647" lon="5.86039">
        <ele>326.99</ele>
        <time>2019-03-24T08:30:46Z</time>
      </trkpt>
      <trkpt lat="43.44648" lon="5.86038">
        <ele>326.99</ele>
        <time>2019-03-24T08:31:12Z</time>
      </trkpt>
      <trkpt lat="43.44649" lon="5.86037">
        <ele>326.99</ele>
        <time>2019-03-24T08:31:13Z</time>
      </trkpt>
      <trkpt lat="43.4465" lon="5.86035">
        <ele>326.99</ele>
        <time>2019-03-24T08:31:14Z</time>
      </trkpt>
      <trkpt lat="43.44653" lon="5.86034">
        <ele>326.99</ele>
        <time>2019-03-24T08:31:15Z</time>
      </trkpt>
      <trkpt lat="43.44656" lon="5.86035">
        <ele>326.99</ele>
        <time>2019-03-24T08:31:16Z</time>
      </trkpt>
      <trkpt lat="43.44659" lon="5.86036">
        <ele>326.99</ele>
        <time>2019-03-24T08:31:17Z</time>
      </trkpt>
      <trkpt lat="43.44727" lon="5.86059">
        <ele>326.02</ele>
        <time>2019-03-24T08:31:30Z</time>
      </trkpt>
      <trkpt lat="43.44793" lon="5.86078">
        <ele>324.1</ele>
        <time>2019-03-24T08:31:42Z</time>
      </trkpt>
      <trkpt lat="43.44811" lon="5.86077">
        <ele>323.62</ele>
        <time>2019-03-24T08:31:45Z</time>
      </trkpt>
      <trkpt lat="43.44815" lon="5.86079">
        <ele>323.14</ele>
        <time>2019-03-24T08:31:46Z</time>
      </trkpt>
      <trkpt lat="43.44818" lon="5.86081">
        <ele>323.14</ele>
        <time>2019-03-24T08:31:47Z</time>
      </trkpt>
      <trkpt lat="43.4482" lon="5.86085">
        <ele>323.14</ele>
        <time>2019-03-24T08:31:48Z</time>
      </trkpt>
      <trkpt lat="43.44822" lon="5.8609">
        <ele>323.14</ele>
        <time>2019-03-24T08:31:49Z</time>
      </trkpt>
      <trkpt lat="43.44823" lon="5.86095">
        <ele>323.14</ele>
        <time>2019-03-24T08:31:50Z</time>
      </trkpt>
      <trkpt lat="43.44823" lon="5.86101">
        <ele>323.14</ele>
        <time>2019-03-24T08:31:51Z</time>
      </trkpt>
      <trkpt lat="43.44824" lon="5.86106">
        <ele>323.14</ele>
        <time>2019-03-24T08:31:52Z</time>
      </trkpt>
      <trkpt lat="43.44826" lon="5.86111">
        <ele>323.14</ele>
        <time>2019-03-24T08:31:53Z</time>
      </trkpt>
      <trkpt lat="43.44829" lon="5.86116">
        <ele>323.14</ele>
        <time>2019-03-24T08:31:54Z</time>
      </trkpt>
      <trkpt lat="43.44832" lon="5.8612">
        <ele>323.14</ele>
        <time>2019-03-24T08:31:55Z</time>
      </trkpt>
      <trkpt lat="43.44835" lon="5.86124">
        <ele>323.14</ele>
        <time>2019-03-24T08:31:56Z</time>
      </trkpt>
      <trkpt lat="43.44837" lon="5.86129">
        <ele>323.14</ele>
        <time>2019-03-24T08:31:57Z</time>
      </trkpt>
      <trkpt lat="43.44838" lon="5.86135">
        <ele>323.14</ele>
        <time>2019-03-24T08:31:58Z</time>
      </trkpt>
      <trkpt lat="43.44837" lon="5.86142">
        <ele>323.14</ele>
        <time>2019-03-24T08:31:59Z</time>
      </trkpt>
      <trkpt lat="43.44835" lon="5.86148">
        <ele>323.14</ele>
        <time>2019-03-24T08:32:00Z</time>
      </trkpt>
      <trkpt lat="43.44832" lon="5.86155">
        <ele>323.14</ele>
        <time>2019-03-24T08:32:01Z</time>
      </trkpt>
      <trkpt lat="43.44829" lon="5.8616">
        <ele>323.14</ele>
        <time>2019-03-24T08:32:02Z</time>
      </trkpt>
      <trkpt lat="43.44824" lon="5.8617">
        <ele>323.14</ele>
        <time>2019-03-24T08:32:04Z</time>
      </trkpt>
      <trkpt lat="43.44807" lon="5.86198">
        <ele>323.14</ele>
        <time>2019-03-24T08:32:11Z</time>
      </trkpt>
      <trkpt lat="43.44807" lon="5.86202">
        <ele>323.14</ele>
        <time>2019-03-24T08:32:12Z</time>
      </trkpt>
      <trkpt lat="43.44809" lon="5.86207">
        <ele>323.14</ele>
        <time>2019-03-24T08:32:13Z</time>
      </trkpt>
      <trkpt lat="43.44811" lon="5.86211">
        <ele>323.14</ele>
        <time>2019-03-24T08:32:14Z</time>
      </trkpt>
      <trkpt lat="43.44814" lon="5.86215">
        <ele>322.66</ele>
        <time>2019-03-24T08:32:15Z</time>
      </trkpt>
      <trkpt lat="43.44817" lon="5.86219">
        <ele>322.66</ele>
        <time>2019-03-24T08:32:16Z</time>
      </trkpt>
      <trkpt lat="43.44845" lon="5.86258">
        <ele>320.74</ele>
        <time>2019-03-24T08:32:25Z</time>
      </trkpt>
      <trkpt lat="43.44847" lon="5.86264">
        <ele>320.74</ele>
        <time>2019-03-24T08:32:26Z</time>
      </trkpt>
      <trkpt lat="43.44849" lon="5.86269">
        <ele>320.26</ele>
        <time>2019-03-24T08:32:27Z</time>
      </trkpt>
      <trkpt lat="43.4485" lon="5.86274">
        <ele>320.26</ele>
        <time>2019-03-24T08:32:28Z</time>
      </trkpt>
      <trkpt lat="43.44851" lon="5.8628">
        <ele>320.26</ele>
        <time>2019-03-24T08:32:29Z</time>
      </trkpt>
      <trkpt lat="43.44856" lon="5.86291">
        <ele>320.26</ele>
        <time>2019-03-24T08:32:31Z</time>
      </trkpt>
      <trkpt lat="43.44879" lon="5.8632">
        <ele>319.3</ele>
        <time>2019-03-24T08:32:38Z</time>
      </trkpt>
      <trkpt lat="43.44932" lon="5.86356">
        <ele>319.3</ele>
        <time>2019-03-24T08:32:49Z</time>
      </trkpt>
      <trkpt lat="43.44936" lon="5.86359">
        <ele>318.81</ele>
        <time>2019-03-24T08:32:50Z</time>
      </trkpt>
      <trkpt lat="43.44973" lon="5.86385">
        <ele>317.37</ele>
        <time>2019-03-24T08:32:59Z</time>
      </trkpt>
      <trkpt lat="43.44977" lon="5.86388">
        <ele>317.37</ele>
        <time>2019-03-24T08:33:00Z</time>
      </trkpt>
      <trkpt lat="43.44982" lon="5.86392">
        <ele>317.37</ele>
        <time>2019-03-24T08:33:01Z</time>
      </trkpt>
      <trkpt lat="43.44985" lon="5.86397">
        <ele>317.37</ele>
        <time>2019-03-24T08:33:02Z</time>
      </trkpt>
      <trkpt lat="43.44988" lon="5.86402">
        <ele>317.37</ele>
        <time>2019-03-24T08:33:03Z</time>
      </trkpt>
      <trkpt lat="43.4499" lon="5.86408">
        <ele>317.37</ele>
        <time>2019-03-24T08:33:04Z</time>
      </trkpt>
      <trkpt lat="43.44993" lon="5.86415">
        <ele>316.89</ele>
        <time>2019-03-24T08:33:05Z</time>
      </trkpt>
      <trkpt lat="43.44995" lon="5.86421">
        <ele>316.89</ele>
        <time>2019-03-24T08:33:06Z</time>
      </trkpt>
      <trkpt lat="43.45007" lon="5.86443">
        <ele>316.89</ele>
        <time>2019-03-24T08:33:10Z</time>
      </trkpt>
      <trkpt lat="43.45057" lon="5.86509">
        <ele>315.45</ele>
        <time>2019-03-24T08:33:25Z</time>
      </trkpt>
      <trkpt lat="43.45076" lon="5.8653">
        <ele>314.01</ele>
        <time>2019-03-24T08:33:30Z</time>
      </trkpt>
      <trkpt lat="43.45111" lon="5.86558">
        <ele>313.05</ele>
        <time>2019-03-24T08:33:38Z</time>
      </trkpt>
      <trkpt lat="43.45115" lon="5.86563">
        <ele>313.05</ele>
        <time>2019-03-24T08:33:39Z</time>
      </trkpt>
      <trkpt lat="43.45119" lon="5.86567">
        <ele>312.57</ele>
        <time>2019-03-24T08:33:40Z</time>
      </trkpt>
      <trkpt lat="43.45123" lon="5.86573">
        <ele>312.57</ele>
        <time>2019-03-24T08:33:41Z</time>
      </trkpt>
      <trkpt lat="43.45125" lon="5.86579">
        <ele>312.09</ele>
        <time>2019-03-24T08:33:42Z</time>
      </trkpt>
      <trkpt lat="43.45127" lon="5.86585">
        <ele>312.09</ele>
        <time>2019-03-24T08:33:43Z</time>
      </trkpt>
      <trkpt lat="43.45128" lon="5.86591">
        <ele>312.09</ele>
        <time>2019-03-24T08:33:44Z</time>
      </trkpt>
      <trkpt lat="43.45133" lon="5.86613">
        <ele>312.09</ele>
        <time>2019-03-24T08:33:47Z</time>
      </trkpt>
      <trkpt lat="43.45133" lon="5.86621">
        <ele>312.09</ele>
        <time>2019-03-24T08:33:48Z</time>
      </trkpt>
      <trkpt lat="43.45133" lon="5.86627">
        <ele>312.09</ele>
        <time>2019-03-24T08:33:49Z</time>
      </trkpt>
      <trkpt lat="43.45131" lon="5.86635">
        <ele>312.09</ele>
        <time>2019-03-24T08:33:50Z</time>
      </trkpt>
      <trkpt lat="43.45129" lon="5.86642">
        <ele>312.09</ele>
        <time>2019-03-24T08:33:51Z</time>
      </trkpt>
      <trkpt lat="43.45126" lon="5.86649">
        <ele>312.09</ele>
        <time>2019-03-24T08:33:52Z</time>
      </trkpt>
      <trkpt lat="43.45122" lon="5.86654">
        <ele>312.09</ele>
        <time>2019-03-24T08:33:53Z</time>
      </trkpt>
      <trkpt lat="43.45077" lon="5.8673">
        <ele>312.09</ele>
        <time>2019-03-24T08:34:10Z</time>
      </trkpt>
      <trkpt lat="43.45019" lon="5.86803">
        <ele>311.6</ele>
        <time>2019-03-24T08:34:30Z</time>
      </trkpt>
      <trkpt lat="43.44987" lon="5.86841">
        <ele>314.97</ele>
        <time>2019-03-24T08:34:43Z</time>
      </trkpt>
      <trkpt lat="43.44971" lon="5.86916">
        <ele>314.97</ele>
        <time>2019-03-24T08:34:56Z</time>
      </trkpt>
      <trkpt lat="43.44969" lon="5.86935">
        <ele>313.53</ele>
        <time>2019-03-24T08:34:59Z</time>
      </trkpt>
      <trkpt lat="43.44969" lon="5.86941">
        <ele>313.53</ele>
        <time>2019-03-24T08:35:00Z</time>
      </trkpt>
      <trkpt lat="43.4497" lon="5.86947">
        <ele>313.05</ele>
        <time>2019-03-24T08:35:01Z</time>
      </trkpt>
      <trkpt lat="43.44976" lon="5.86984">
        <ele>312.57</ele>
        <time>2019-03-24T08:35:08Z</time>
      </trkpt>
      <trkpt lat="43.44981" lon="5.87002">
        <ele>311.6</ele>
        <time>2019-03-24T08:35:11Z</time>
      </trkpt>
      <trkpt lat="43.44982" lon="5.87008">
        <ele>311.6</ele>
        <time>2019-03-24T08:35:12Z</time>
      </trkpt>
      <trkpt lat="43.44983" lon="5.87015">
        <ele>311.12</ele>
        <time>2019-03-24T08:35:13Z</time>
      </trkpt>
      <trkpt lat="43.44984" lon="5.87021">
        <ele>310.64</ele>
        <time>2019-03-24T08:35:14Z</time>
      </trkpt>
      <trkpt lat="43.44983" lon="5.87027">
        <ele>310.64</ele>
        <time>2019-03-24T08:35:15Z</time>
      </trkpt>
      <trkpt lat="43.44981" lon="5.87033">
        <ele>310.64</ele>
        <time>2019-03-24T08:35:16Z</time>
      </trkpt>
      <trkpt lat="43.44978" lon="5.87038">
        <ele>309.68</ele>
        <time>2019-03-24T08:35:17Z</time>
      </trkpt>
      <trkpt lat="43.44975" lon="5.87042">
        <ele>309.68</ele>
        <time>2019-03-24T08:35:18Z</time>
      </trkpt>
      <trkpt lat="43.44971" lon="5.87045">
        <ele>309.2</ele>
        <time>2019-03-24T08:35:19Z</time>
      </trkpt>
      <trkpt lat="43.44919" lon="5.87082">
        <ele>308.72</ele>
        <time>2019-03-24T08:35:31Z</time>
      </trkpt>
      <trkpt lat="43.44916" lon="5.87085">
        <ele>308.72</ele>
        <time>2019-03-24T08:35:32Z</time>
      </trkpt>
      <trkpt lat="43.44913" lon="5.87089">
        <ele>308.72</ele>
        <time>2019-03-24T08:35:33Z</time>
      </trkpt>
      <trkpt lat="43.44911" lon="5.87093">
        <ele>308.72</ele>
        <time>2019-03-24T08:35:34Z</time>
      </trkpt>
      <trkpt lat="43.4491" lon="5.87097">
        <ele>308.72</ele>
        <time>2019-03-24T08:35:35Z</time>
      </trkpt>
      <trkpt lat="43.44909" lon="5.87102">
        <ele>308.72</ele>
        <time>2019-03-24T08:35:36Z</time>
      </trkpt>
      <trkpt lat="43.44908" lon="5.87107">
        <ele>308.72</ele>
        <time>2019-03-24T08:35:37Z</time>
      </trkpt>
      <trkpt lat="43.44903" lon="5.87183">
        <ele>307.76</ele>
        <time>2019-03-24T08:35:50Z</time>
      </trkpt>
      <trkpt lat="43.44892" lon="5.87254">
        <ele>307.28</ele>
        <time>2019-03-24T08:36:04Z</time>
      </trkpt>
      <trkpt lat="43.4487" lon="5.87298">
        <ele>307.28</ele>
        <time>2019-03-24T08:36:14Z</time>
      </trkpt>
      <trkpt lat="43.44867" lon="5.87303">
        <ele>307.28</ele>
        <time>2019-03-24T08:36:15Z</time>
      </trkpt>
      <trkpt lat="43.44864" lon="5.87308">
        <ele>307.28</ele>
        <time>2019-03-24T08:36:16Z</time>
      </trkpt>
      <trkpt lat="43.44858" lon="5.87317">
        <ele>307.28</ele>
        <time>2019-03-24T08:36:18Z</time>
      </trkpt>
      <trkpt lat="43.44855" lon="5.8732">
        <ele>306.32</ele>
        <time>2019-03-24T08:36:19Z</time>
      </trkpt>
      <trkpt lat="43.44851" lon="5.87323">
        <ele>306.32</ele>
        <time>2019-03-24T08:36:20Z</time>
      </trkpt>
      <trkpt lat="43.44847" lon="5.87326">
        <ele>305.84</ele>
        <time>2019-03-24T08:36:21Z</time>
      </trkpt>
      <trkpt lat="43.44842" lon="5.87328">
        <ele>305.36</ele>
        <time>2019-03-24T08:36:22Z</time>
      </trkpt>
      <trkpt lat="43.44837" lon="5.87329">
        <ele>304.88</ele>
        <time>2019-03-24T08:36:23Z</time>
      </trkpt>
      <trkpt lat="43.44832" lon="5.8733">
        <ele>304.88</ele>
        <time>2019-03-24T08:36:24Z</time>
      </trkpt>
      <trkpt lat="43.44827" lon="5.8733">
        <ele>304.88</ele>
        <time>2019-03-24T08:36:25Z</time>
      </trkpt>
      <trkpt lat="43.44822" lon="5.87333">
        <ele>303.91</ele>
        <time>2019-03-24T08:36:26Z</time>
      </trkpt>
      <trkpt lat="43.44818" lon="5.87336">
        <ele>303.91</ele>
        <time>2019-03-24T08:36:27Z</time>
      </trkpt>
      <trkpt lat="43.44814" lon="5.87341">
        <ele>303.43</ele>
        <time>2019-03-24T08:36:28Z</time>
      </trkpt>
      <trkpt lat="43.44811" lon="5.87346">
        <ele>303.43</ele>
        <time>2019-03-24T08:36:29Z</time>
      </trkpt>
      <trkpt lat="43.44808" lon="5.87351">
        <ele>303.43</ele>
        <time>2019-03-24T08:36:30Z</time>
      </trkpt>
      <trkpt lat="43.44768" lon="5.87442">
        <ele>301.99</ele>
        <time>2019-03-24T08:36:46Z</time>
      </trkpt>
      <trkpt lat="43.44759" lon="5.87472">
        <ele>301.51</ele>
        <time>2019-03-24T08:36:52Z</time>
      </trkpt>
      <trkpt lat="43.44761" lon="5.87478">
        <ele>301.51</ele>
        <time>2019-03-24T08:36:53Z</time>
      </trkpt>
      <trkpt lat="43.44763" lon="5.87481">
        <ele>301.51</ele>
        <time>2019-03-24T08:36:54Z</time>
      </trkpt>
      <trkpt lat="43.44794" lon="5.8753">
        <ele>301.03</ele>
        <time>2019-03-24T08:37:05Z</time>
      </trkpt>
      <trkpt lat="43.44795" lon="5.87536">
        <ele>301.03</ele>
        <time>2019-03-24T08:37:06Z</time>
      </trkpt>
      <trkpt lat="43.44796" lon="5.87543">
        <ele>301.03</ele>
        <time>2019-03-24T08:37:07Z</time>
      </trkpt>
      <trkpt lat="43.44798" lon="5.87562">
        <ele>301.03</ele>
        <time>2019-03-24T08:37:10Z</time>
      </trkpt>
      <trkpt lat="43.44798" lon="5.87568">
        <ele>301.03</ele>
        <time>2019-03-24T08:37:11Z</time>
      </trkpt>
      <trkpt lat="43.44805" lon="5.87599">
        <ele>301.03</ele>
        <time>2019-03-24T08:37:17Z</time>
      </trkpt>
      <trkpt lat="43.44813" lon="5.87619">
        <ele>301.03</ele>
        <time>2019-03-24T08:37:21Z</time>
      </trkpt>
      <trkpt lat="43.44816" lon="5.87622">
        <ele>301.03</ele>
        <time>2019-03-24T08:37:22Z</time>
      </trkpt>
      <trkpt lat="43.44819" lon="5.87625">
        <ele>301.03</ele>
        <time>2019-03-24T08:37:23Z</time>
      </trkpt>
      <trkpt lat="43.44823" lon="5.87628">
        <ele>301.03</ele>
        <time>2019-03-24T08:37:24Z</time>
      </trkpt>
      <trkpt lat="43.44827" lon="5.87629">
        <ele>301.03</ele>
        <time>2019-03-24T08:37:25Z</time>
      </trkpt>
      <trkpt lat="43.44831" lon="5.87631">
        <ele>301.03</ele>
        <time>2019-03-24T08:37:26Z</time>
      </trkpt>
      <trkpt lat="43.44836" lon="5.87632">
        <ele>301.03</ele>
        <time>2019-03-24T08:37:27Z</time>
      </trkpt>
      <trkpt lat="43.44858" lon="5.87636">
        <ele>301.03</ele>
        <time>2019-03-24T08:37:32Z</time>
      </trkpt>
      <trkpt lat="43.44862" lon="5.87639">
        <ele>301.03</ele>
        <time>2019-03-24T08:37:33Z</time>
      </trkpt>
      <trkpt lat="43.44865" lon="5.87642">
        <ele>301.03</ele>
        <time>2019-03-24T08:37:34Z</time>
      </trkpt>
      <trkpt lat="43.44868" lon="5.87647">
        <ele>301.03</ele>
        <time>2019-03-24T08:37:35Z</time>
      </trkpt>
      <trkpt lat="43.4487" lon="5.87652">
        <ele>301.03</ele>
        <time>2019-03-24T08:37:36Z</time>
      </trkpt>
      <trkpt lat="43.44877" lon="5.87668">
        <ele>301.03</ele>
        <time>2019-03-24T08:37:39Z</time>
      </trkpt>
      <trkpt lat="43.44889" lon="5.87696">
        <ele>301.03</ele>
        <time>2019-03-24T08:37:44Z</time>
      </trkpt>
      <trkpt lat="43.44924" lon="5.87752">
        <ele>300.55</ele>
        <time>2019-03-24T08:37:56Z</time>
      </trkpt>
      <trkpt lat="43.44926" lon="5.87758">
        <ele>300.55</ele>
        <time>2019-03-24T08:37:57Z</time>
      </trkpt>
      <trkpt lat="43.44927" lon="5.87764">
        <ele>300.55</ele>
        <time>2019-03-24T08:37:58Z</time>
      </trkpt>
      <trkpt lat="43.44928" lon="5.87771">
        <ele>300.55</ele>
        <time>2019-03-24T08:37:59Z</time>
      </trkpt>
      <trkpt lat="43.44928" lon="5.87777">
        <ele>300.07</ele>
        <time>2019-03-24T08:38:00Z</time>
      </trkpt>
      <trkpt lat="43.44929" lon="5.87783">
        <ele>300.07</ele>
        <time>2019-03-24T08:38:01Z</time>
      </trkpt>
      <trkpt lat="43.4493" lon="5.87801">
        <ele>300.07</ele>
        <time>2019-03-24T08:38:04Z</time>
      </trkpt>
      <trkpt lat="43.44931" lon="5.87807">
        <ele>300.07</ele>
        <time>2019-03-24T08:38:05Z</time>
      </trkpt>
      <trkpt lat="43.44933" lon="5.87812">
        <ele>300.07</ele>
        <time>2019-03-24T08:38:06Z</time>
      </trkpt>
      <trkpt lat="43.44935" lon="5.87817">
        <ele>300.07</ele>
        <time>2019-03-24T08:38:07Z</time>
      </trkpt>
      <trkpt lat="43.44938" lon="5.87822">
        <ele>300.07</ele>
        <time>2019-03-24T08:38:08Z</time>
      </trkpt>
      <trkpt lat="43.44941" lon="5.87826">
        <ele>300.07</ele>
        <time>2019-03-24T08:38:09Z</time>
      </trkpt>
      <trkpt lat="43.44944" lon="5.8783">
        <ele>300.07</ele>
        <time>2019-03-24T08:38:10Z</time>
      </trkpt>
      <trkpt lat="43.44985" lon="5.87868">
        <ele>300.07</ele>
        <time>2019-03-24T08:38:23Z</time>
      </trkpt>
      <trkpt lat="43.44989" lon="5.87868">
        <ele>300.07</ele>
        <time>2019-03-24T08:38:24Z</time>
      </trkpt>
      <trkpt lat="43.45007" lon="5.87865">
        <ele>300.07</ele>
        <time>2019-03-24T08:38:28Z</time>
      </trkpt>
      <trkpt lat="43.45012" lon="5.87865">
        <ele>300.07</ele>
        <time>2019-03-24T08:38:29Z</time>
      </trkpt>
      <trkpt lat="43.45016" lon="5.87867">
        <ele>300.07</ele>
        <time>2019-03-24T08:38:30Z</time>
      </trkpt>
      <trkpt lat="43.45019" lon="5.87871">
        <ele>300.07</ele>
        <time>2019-03-24T08:38:31Z</time>
      </trkpt>
      <trkpt lat="43.45022" lon="5.87874">
        <ele>300.07</ele>
        <time>2019-03-24T08:38:32Z</time>
      </trkpt>
      <trkpt lat="43.45024" lon="5.87878">
        <ele>300.07</ele>
        <time>2019-03-24T08:38:33Z</time>
      </trkpt>
      <trkpt lat="43.45026" lon="5.87883">
        <ele>300.07</ele>
        <time>2019-03-24T08:38:34Z</time>
      </trkpt>
      <trkpt lat="43.45028" lon="5.87887">
        <ele>299.59</ele>
        <time>2019-03-24T08:38:35Z</time>
      </trkpt>
      <trkpt lat="43.4507" lon="5.87968">
        <ele>299.59</ele>
        <time>2019-03-24T08:38:52Z</time>
      </trkpt>
      <trkpt lat="43.4511" lon="5.88058">
        <ele>299.59</ele>
        <time>2019-03-24T08:39:12Z</time>
      </trkpt>
      <trkpt lat="43.45129" lon="5.88138">
        <ele>301.51</ele>
        <time>2019-03-24T08:39:27Z</time>
      </trkpt>
      <trkpt lat="43.45131" lon="5.88225">
        <ele>302.95</ele>
        <time>2019-03-24T08:39:45Z</time>
      </trkpt>
      <trkpt lat="43.45111" lon="5.883">
        <ele>301.51</ele>
        <time>2019-03-24T08:40:01Z</time>
      </trkpt>
      <trkpt lat="43.45072" lon="5.88381">
        <ele>301.51</ele>
        <time>2019-03-24T08:40:21Z</time>
      </trkpt>
      <trkpt lat="43.45049" lon="5.88416">
        <ele>301.51</ele>
        <time>2019-03-24T08:40:33Z</time>
      </trkpt>
      <trkpt lat="43.45012" lon="5.88465">
        <ele>301.51</ele>
        <time>2019-03-24T08:40:50Z</time>
      </trkpt>
      <trkpt lat="43.44986" lon="5.88531">
        <ele>303.43</ele>
        <time>2019-03-24T08:41:09Z</time>
      </trkpt>
      <trkpt lat="43.44961" lon="5.88579">
        <ele>304.39</ele>
        <time>2019-03-24T08:41:25Z</time>
      </trkpt>
      <trkpt lat="43.44944" lon="5.88618">
        <ele>305.84</ele>
        <time>2019-03-24T08:41:40Z</time>
      </trkpt>
      <trkpt lat="43.44946" lon="5.88618">
        <ele>305.84</ele>
        <time>2019-03-24T08:41:41Z</time>
      </trkpt>
      <trkpt lat="43.44948" lon="5.88619">
        <ele>305.84</ele>
        <time>2019-03-24T08:41:42Z</time>
      </trkpt>
      <trkpt lat="43.4495" lon="5.8862">
        <ele>305.84</ele>
        <time>2019-03-24T08:41:43Z</time>
      </trkpt>
      <trkpt lat="43.44953" lon="5.88622">
        <ele>305.84</ele>
        <time>2019-03-24T08:41:44Z</time>
      </trkpt>
      <trkpt lat="43.44955" lon="5.88625">
        <ele>305.84</ele>
        <time>2019-03-24T08:41:45Z</time>
      </trkpt>
      <trkpt lat="43.44957" lon="5.88627">
        <ele>305.84</ele>
        <time>2019-03-24T08:41:46Z</time>
      </trkpt>
      <trkpt lat="43.44974" lon="5.88652">
        <ele>307.28</ele>
        <time>2019-03-24T08:41:57Z</time>
      </trkpt>
      <trkpt lat="43.44988" lon="5.88649">
        <ele>307.28</ele>
        <time>2019-03-24T08:41:59Z</time>
      </trkpt>
      <trkpt lat="43.44994" lon="5.88647">
        <ele>307.28</ele>
        <time>2019-03-24T08:42:00Z</time>
      </trkpt>
      <trkpt lat="43.44999" lon="5.88645">
        <ele>307.28</ele>
        <time>2019-03-24T08:42:01Z</time>
      </trkpt>
      <trkpt lat="43.45003" lon="5.88644">
        <ele>307.28</ele>
        <time>2019-03-24T08:42:02Z</time>
      </trkpt>
      <trkpt lat="43.45008" lon="5.88642">
        <ele>307.28</ele>
        <time>2019-03-24T08:42:03Z</time>
      </trkpt>
      <trkpt lat="43.45017" lon="5.88637">
        <ele>305.36</ele>
        <time>2019-03-24T08:42:05Z</time>
      </trkpt>
      <trkpt lat="43.45022" lon="5.88636">
        <ele>304.88</ele>
        <time>2019-03-24T08:42:06Z</time>
      </trkpt>
      <trkpt lat="43.45081" lon="5.88616">
        <ele>303.91</ele>
        <time>2019-03-24T08:42:17Z</time>
      </trkpt>
      <trkpt lat="43.45162" lon="5.8859">
        <ele>302.95</ele>
        <time>2019-03-24T08:42:35Z</time>
      </trkpt>
      <trkpt lat="43.45221" lon="5.88565">
        <ele>302.47</ele>
        <time>2019-03-24T08:42:50Z</time>
      </trkpt>
      <trkpt lat="43.45225" lon="5.88564">
        <ele>302.47</ele>
        <time>2019-03-24T08:42:51Z</time>
      </trkpt>
      <trkpt lat="43.45229" lon="5.88564">
        <ele>302.47</ele>
        <time>2019-03-24T08:42:52Z</time>
      </trkpt>
      <trkpt lat="43.45233" lon="5.88564">
        <ele>302.47</ele>
        <time>2019-03-24T08:42:53Z</time>
      </trkpt>
      <trkpt lat="43.45237" lon="5.88565">
        <ele>302.47</ele>
        <time>2019-03-24T08:42:54Z</time>
      </trkpt>
      <trkpt lat="43.45241" lon="5.88566">
        <ele>302.47</ele>
        <time>2019-03-24T08:42:55Z</time>
      </trkpt>
      <trkpt lat="43.45301" lon="5.88585">
        <ele>302.95</ele>
        <time>2019-03-24T08:43:12Z</time>
      </trkpt>
      <trkpt lat="43.45324" lon="5.88602">
        <ele>303.91</ele>
        <time>2019-03-24T08:43:20Z</time>
      </trkpt>
      <trkpt lat="43.45324" lon="5.88606">
        <ele>303.91</ele>
        <time>2019-03-24T08:43:21Z</time>
      </trkpt>
      <trkpt lat="43.45333" lon="5.88687">
        <ele>305.36</ele>
        <time>2019-03-24T08:43:39Z</time>
      </trkpt>
      <trkpt lat="43.4533" lon="5.8879">
        <ele>305.36</ele>
        <time>2019-03-24T08:43:57Z</time>
      </trkpt>
      <trkpt lat="43.45328" lon="5.88885">
        <ele>306.8</ele>
        <time>2019-03-24T08:44:15Z</time>
      </trkpt>
      <trkpt lat="43.4531" lon="5.88981">
        <ele>306.8</ele>
        <time>2019-03-24T08:44:34Z</time>
      </trkpt>
      <trkpt lat="43.45318" lon="5.89074">
        <ele>306.8</ele>
        <time>2019-03-24T08:44:52Z</time>
      </trkpt>
      <trkpt lat="43.4533" lon="5.89179">
        <ele>306.8</ele>
        <time>2019-03-24T08:45:11Z</time>
      </trkpt>
      <trkpt lat="43.45341" lon="5.89265">
        <ele>307.76</ele>
        <time>2019-03-24T08:45:27Z</time>
      </trkpt>
      <trkpt lat="43.45368" lon="5.89316">
        <ele>308.24</ele>
        <time>2019-03-24T08:45:40Z</time>
      </trkpt>
      <trkpt lat="43.45414" lon="5.8937">
        <ele>308.24</ele>
        <time>2019-03-24T08:45:57Z</time>
      </trkpt>
      <trkpt lat="43.45459" lon="5.89423">
        <ele>309.2</ele>
        <time>2019-03-24T08:46:14Z</time>
      </trkpt>
      <trkpt lat="43.45502" lon="5.89498">
        <ele>309.2</ele>
        <time>2019-03-24T08:46:30Z</time>
      </trkpt>
      <trkpt lat="43.45508" lon="5.89511">
        <ele>307.76</ele>
        <time>2019-03-24T08:46:32Z</time>
      </trkpt>
      <trkpt lat="43.4551" lon="5.89516">
        <ele>307.76</ele>
        <time>2019-03-24T08:46:33Z</time>
      </trkpt>
      <trkpt lat="43.45514" lon="5.89529">
        <ele>307.76</ele>
        <time>2019-03-24T08:46:35Z</time>
      </trkpt>
      <trkpt lat="43.45515" lon="5.89535">
        <ele>307.76</ele>
        <time>2019-03-24T08:46:36Z</time>
      </trkpt>
      <trkpt lat="43.45516" lon="5.89542">
        <ele>307.76</ele>
        <time>2019-03-24T08:46:37Z</time>
      </trkpt>
      <trkpt lat="43.45523" lon="5.89594">
        <ele>307.76</ele>
        <time>2019-03-24T08:46:45Z</time>
      </trkpt>
      <trkpt lat="43.45525" lon="5.896">
        <ele>307.76</ele>
        <time>2019-03-24T08:46:46Z</time>
      </trkpt>
      <trkpt lat="43.45533" lon="5.89618">
        <ele>306.32</ele>
        <time>2019-03-24T08:46:49Z</time>
      </trkpt>
      <trkpt lat="43.45535" lon="5.89624">
        <ele>306.32</ele>
        <time>2019-03-24T08:46:50Z</time>
      </trkpt>
      <trkpt lat="43.45545" lon="5.89648">
        <ele>304.88</ele>
        <time>2019-03-24T08:46:54Z</time>
      </trkpt>
      <trkpt lat="43.45551" lon="5.8967">
        <ele>304.39</ele>
        <time>2019-03-24T08:46:57Z</time>
      </trkpt>
      <trkpt lat="43.45552" lon="5.89679">
        <ele>304.39</ele>
        <time>2019-03-24T08:46:58Z</time>
      </trkpt>
      <trkpt lat="43.45553" lon="5.89687">
        <ele>304.39</ele>
        <time>2019-03-24T08:46:59Z</time>
      </trkpt>
      <trkpt lat="43.45555" lon="5.89711">
        <ele>304.39</ele>
        <time>2019-03-24T08:47:02Z</time>
      </trkpt>
      <trkpt lat="43.45557" lon="5.89718">
        <ele>304.39</ele>
        <time>2019-03-24T08:47:03Z</time>
      </trkpt>
      <trkpt lat="43.45559" lon="5.89725">
        <ele>304.39</ele>
        <time>2019-03-24T08:47:04Z</time>
      </trkpt>
      <trkpt lat="43.45562" lon="5.89732">
        <ele>303.91</ele>
        <time>2019-03-24T08:47:05Z</time>
      </trkpt>
      <trkpt lat="43.45566" lon="5.89739">
        <ele>303.91</ele>
        <time>2019-03-24T08:47:06Z</time>
      </trkpt>
      <trkpt lat="43.45569" lon="5.89745">
        <ele>303.91</ele>
        <time>2019-03-24T08:47:07Z</time>
      </trkpt>
      <trkpt lat="43.45608" lon="5.89817">
        <ele>302.47</ele>
        <time>2019-03-24T08:47:20Z</time>
      </trkpt>
      <trkpt lat="43.45607" lon="5.89821">
        <ele>302.47</ele>
        <time>2019-03-24T08:47:21Z</time>
      </trkpt>
      <trkpt lat="43.45604" lon="5.89825">
        <ele>302.47</ele>
        <time>2019-03-24T08:47:22Z</time>
      </trkpt>
      <trkpt lat="43.45601" lon="5.89827">
        <ele>302.47</ele>
        <time>2019-03-24T08:47:23Z</time>
      </trkpt>
      <trkpt lat="43.45598" lon="5.8983">
        <ele>302.47</ele>
        <time>2019-03-24T08:47:24Z</time>
      </trkpt>
      <trkpt lat="43.45533" lon="5.89873">
        <ele>302.47</ele>
        <time>2019-03-24T08:47:43Z</time>
      </trkpt>
      <trkpt lat="43.45518" lon="5.89911">
        <ele>303.91</ele>
        <time>2019-03-24T08:47:53Z</time>
      </trkpt>
      <trkpt lat="43.45517" lon="5.8996">
        <ele>305.36</ele>
        <time>2019-03-24T08:48:05Z</time>
      </trkpt>
      <trkpt lat="43.4551" lon="5.8999">
        <ele>305.84</ele>
        <time>2019-03-24T08:48:14Z</time>
      </trkpt>
      <trkpt lat="43.4551" lon="5.89992">
        <ele>305.84</ele>
        <time>2019-03-24T08:48:15Z</time>
      </trkpt>
      <trkpt lat="43.45509" lon="5.89995">
        <ele>305.84</ele>
        <time>2019-03-24T08:48:16Z</time>
      </trkpt>
      <trkpt lat="43.45508" lon="5.89997">
        <ele>305.84</ele>
        <time>2019-03-24T08:48:17Z</time>
      </trkpt>
      <trkpt lat="43.45508" lon="5.90001">
        <ele>305.84</ele>
        <time>2019-03-24T08:48:18Z</time>
      </trkpt>
      <trkpt lat="43.45508" lon="5.90004">
        <ele>305.84</ele>
        <time>2019-03-24T08:48:19Z</time>
      </trkpt>
      <trkpt lat="43.45507" lon="5.90007">
        <ele>305.84</ele>
        <time>2019-03-24T08:48:20Z</time>
      </trkpt>
      <trkpt lat="43.45506" lon="5.9001">
        <ele>305.84</ele>
        <time>2019-03-24T08:48:21Z</time>
      </trkpt>
      <trkpt lat="43.455" lon="5.90025">
        <ele>305.84</ele>
        <time>2019-03-24T08:48:26Z</time>
      </trkpt>
      <trkpt lat="43.45497" lon="5.90026">
        <ele>304.88</ele>
        <time>2019-03-24T08:48:27Z</time>
      </trkpt>
      <trkpt lat="43.45493" lon="5.90026">
        <ele>304.88</ele>
        <time>2019-03-24T08:48:28Z</time>
      </trkpt>
      <trkpt lat="43.45488" lon="5.90025">
        <ele>304.39</ele>
        <time>2019-03-24T08:48:29Z</time>
      </trkpt>
      <trkpt lat="43.45484" lon="5.90023">
        <ele>304.39</ele>
        <time>2019-03-24T08:48:30Z</time>
      </trkpt>
      <trkpt lat="43.4543" lon="5.89999">
        <ele>303.91</ele>
        <time>2019-03-24T08:48:44Z</time>
      </trkpt>
      <trkpt lat="43.45379" lon="5.89972">
        <ele>303.91</ele>
        <time>2019-03-24T08:49:01Z</time>
      </trkpt>
      <trkpt lat="43.45334" lon="5.89948">
        <ele>306.8</ele>
        <time>2019-03-24T08:49:17Z</time>
      </trkpt>
      <trkpt lat="43.45301" lon="5.89946">
        <ele>307.76</ele>
        <time>2019-03-24T08:49:30Z</time>
      </trkpt>
      <trkpt lat="43.45251" lon="5.89964">
        <ele>307.76</ele>
        <time>2019-03-24T08:49:43Z</time>
      </trkpt>
      <trkpt lat="43.45216" lon="5.90032">
        <ele>306.8</ele>
        <time>2019-03-24T08:49:59Z</time>
      </trkpt>
      <trkpt lat="43.45201" lon="5.90068">
        <ele>308.24</ele>
        <time>2019-03-24T08:50:09Z</time>
      </trkpt>
      <trkpt lat="43.45182" lon="5.90124">
        <ele>311.6</ele>
        <time>2019-03-24T08:50:24Z</time>
      </trkpt>
      <trkpt lat="43.45158" lon="5.90146">
        <ele>314.49</ele>
        <time>2019-03-24T08:50:36Z</time>
      </trkpt>
      <trkpt lat="43.45122" lon="5.9013">
        <ele>316.89</ele>
        <time>2019-03-24T08:50:52Z</time>
      </trkpt>
      <trkpt lat="43.45095" lon="5.90128">
        <ele>318.33</ele>
        <time>2019-03-24T08:51:04Z</time>
      </trkpt>
      <trkpt lat="43.45063" lon="5.90163">
        <ele>319.78</ele>
        <time>2019-03-24T08:51:19Z</time>
      </trkpt>
      <trkpt lat="43.45047" lon="5.90207">
        <ele>322.18</ele>
        <time>2019-03-24T08:51:34Z</time>
      </trkpt>
      <trkpt lat="43.45045" lon="5.9026">
        <ele>324.58</ele>
        <time>2019-03-24T08:51:50Z</time>
      </trkpt>
      <trkpt lat="43.45056" lon="5.90303">
        <ele>326.99</ele>
        <time>2019-03-24T08:52:06Z</time>
      </trkpt>
      <trkpt lat="43.45066" lon="5.90345">
        <ele>327.95</ele>
        <time>2019-03-24T08:52:20Z</time>
      </trkpt>
      <trkpt lat="43.45052" lon="5.90383">
        <ele>328.91</ele>
        <time>2019-03-24T08:52:30Z</time>
      </trkpt>
      <trkpt lat="43.45071" lon="5.90426">
        <ele>329.87</ele>
        <time>2019-03-24T08:52:41Z</time>
      </trkpt>
      <trkpt lat="43.45112" lon="5.90485">
        <ele>328.43</ele>
        <time>2019-03-24T08:52:58Z</time>
      </trkpt>
      <trkpt lat="43.4515" lon="5.90545">
        <ele>326.5</ele>
        <time>2019-03-24T08:53:11Z</time>
      </trkpt>
      <trkpt lat="43.45153" lon="5.90549">
        <ele>326.5</ele>
        <time>2019-03-24T08:53:12Z</time>
      </trkpt>
      <trkpt lat="43.45156" lon="5.90553">
        <ele>326.02</ele>
        <time>2019-03-24T08:53:13Z</time>
      </trkpt>
      <trkpt lat="43.4516" lon="5.90557">
        <ele>326.02</ele>
        <time>2019-03-24T08:53:14Z</time>
      </trkpt>
      <trkpt lat="43.45163" lon="5.90561">
        <ele>325.54</ele>
        <time>2019-03-24T08:53:15Z</time>
      </trkpt>
      <trkpt lat="43.45198" lon="5.90598">
        <ele>322.18</ele>
        <time>2019-03-24T08:53:24Z</time>
      </trkpt>
      <trkpt lat="43.45208" lon="5.90613">
        <ele>321.7</ele>
        <time>2019-03-24T08:53:27Z</time>
      </trkpt>
      <trkpt lat="43.45215" lon="5.90622">
        <ele>321.22</ele>
        <time>2019-03-24T08:53:29Z</time>
      </trkpt>
      <trkpt lat="43.45228" lon="5.90642">
        <ele>320.26</ele>
        <time>2019-03-24T08:53:33Z</time>
      </trkpt>
      <trkpt lat="43.45231" lon="5.90647">
        <ele>319.78</ele>
        <time>2019-03-24T08:53:34Z</time>
      </trkpt>
      <trkpt lat="43.45232" lon="5.90653">
        <ele>319.78</ele>
        <time>2019-03-24T08:53:35Z</time>
      </trkpt>
      <trkpt lat="43.45233" lon="5.90659">
        <ele>319.78</ele>
        <time>2019-03-24T08:53:36Z</time>
      </trkpt>
      <trkpt lat="43.45234" lon="5.90665">
        <ele>319.78</ele>
        <time>2019-03-24T08:53:37Z</time>
      </trkpt>
      <trkpt lat="43.45233" lon="5.9067">
        <ele>319.3</ele>
        <time>2019-03-24T08:53:38Z</time>
      </trkpt>
      <trkpt lat="43.45232" lon="5.90676">
        <ele>319.3</ele>
        <time>2019-03-24T08:53:39Z</time>
      </trkpt>
      <trkpt lat="43.4523" lon="5.90681">
        <ele>319.3</ele>
        <time>2019-03-24T08:53:40Z</time>
      </trkpt>
      <trkpt lat="43.45228" lon="5.90686">
        <ele>319.3</ele>
        <time>2019-03-24T08:53:41Z</time>
      </trkpt>
      <trkpt lat="43.45226" lon="5.90691">
        <ele>319.3</ele>
        <time>2019-03-24T08:53:42Z</time>
      </trkpt>
      <trkpt lat="43.45209" lon="5.90719">
        <ele>317.37</ele>
        <time>2019-03-24T08:53:48Z</time>
      </trkpt>
      <trkpt lat="43.45205" lon="5.90723">
        <ele>316.89</ele>
        <time>2019-03-24T08:53:49Z</time>
      </trkpt>
      <trkpt lat="43.45202" lon="5.90726">
        <ele>316.89</ele>
        <time>2019-03-24T08:53:50Z</time>
      </trkpt>
      <trkpt lat="43.45189" lon="5.90737">
        <ele>316.41</ele>
        <time>2019-03-24T08:53:53Z</time>
      </trkpt>
      <trkpt lat="43.4518" lon="5.90741">
        <ele>314.97</ele>
        <time>2019-03-24T08:53:55Z</time>
      </trkpt>
      <trkpt lat="43.45176" lon="5.90742">
        <ele>314.97</ele>
        <time>2019-03-24T08:53:56Z</time>
      </trkpt>
      <trkpt lat="43.4517" lon="5.90742">
        <ele>314.49</ele>
        <time>2019-03-24T08:53:57Z</time>
      </trkpt>
      <trkpt lat="43.45166" lon="5.90742">
        <ele>314.49</ele>
        <time>2019-03-24T08:53:58Z</time>
      </trkpt>
      <trkpt lat="43.45161" lon="5.90741">
        <ele>313.53</ele>
        <time>2019-03-24T08:53:59Z</time>
      </trkpt>
      <trkpt lat="43.45112" lon="5.90731">
        <ele>311.12</ele>
        <time>2019-03-24T08:54:09Z</time>
      </trkpt>
      <trkpt lat="43.45104" lon="5.90728">
        <ele>310.64</ele>
        <time>2019-03-24T08:54:11Z</time>
      </trkpt>
      <trkpt lat="43.451" lon="5.90728">
        <ele>309.68</ele>
        <time>2019-03-24T08:54:12Z</time>
      </trkpt>
      <trkpt lat="43.45095" lon="5.90728">
        <ele>309.68</ele>
        <time>2019-03-24T08:54:13Z</time>
      </trkpt>
      <trkpt lat="43.45091" lon="5.90729">
        <ele>309.68</ele>
        <time>2019-03-24T08:54:14Z</time>
      </trkpt>
      <trkpt lat="43.45087" lon="5.9073">
        <ele>309.2</ele>
        <time>2019-03-24T08:54:15Z</time>
      </trkpt>
      <trkpt lat="43.4507" lon="5.90732">
        <ele>308.24</ele>
        <time>2019-03-24T08:54:19Z</time>
      </trkpt>
      <trkpt lat="43.45066" lon="5.90731">
        <ele>308.24</ele>
        <time>2019-03-24T08:54:20Z</time>
      </trkpt>
      <trkpt lat="43.45031" lon="5.90713">
        <ele>305.84</ele>
        <time>2019-03-24T08:54:26Z</time>
      </trkpt>
      <trkpt lat="43.45022" lon="5.90706">
        <ele>305.36</ele>
        <time>2019-03-24T08:54:28Z</time>
      </trkpt>
      <trkpt lat="43.45018" lon="5.90703">
        <ele>304.88</ele>
        <time>2019-03-24T08:54:29Z</time>
      </trkpt>
      <trkpt lat="43.45015" lon="5.90699">
        <ele>304.39</ele>
        <time>2019-03-24T08:54:30Z</time>
      </trkpt>
      <trkpt lat="43.45012" lon="5.90694">
        <ele>304.39</ele>
        <time>2019-03-24T08:54:31Z</time>
      </trkpt>
      <trkpt lat="43.45009" lon="5.9069">
        <ele>303.91</ele>
        <time>2019-03-24T08:54:32Z</time>
      </trkpt>
      <trkpt lat="43.45007" lon="5.90685">
        <ele>303.91</ele>
        <time>2019-03-24T08:54:33Z</time>
      </trkpt>
      <trkpt lat="43.45005" lon="5.90679">
        <ele>303.43</ele>
        <time>2019-03-24T08:54:34Z</time>
      </trkpt>
      <trkpt lat="43.45003" lon="5.90673">
        <ele>302.47</ele>
        <time>2019-03-24T08:54:35Z</time>
      </trkpt>
      <trkpt lat="43.44994" lon="5.90652">
        <ele>301.51</ele>
        <time>2019-03-24T08:54:39Z</time>
      </trkpt>
      <trkpt lat="43.44991" lon="5.90648">
        <ele>301.03</ele>
        <time>2019-03-24T08:54:40Z</time>
      </trkpt>
      <trkpt lat="43.44988" lon="5.90646">
        <ele>301.03</ele>
        <time>2019-03-24T08:54:41Z</time>
      </trkpt>
      <trkpt lat="43.44959" lon="5.90622">
        <ele>298.15</ele>
        <time>2019-03-24T08:54:49Z</time>
      </trkpt>
      <trkpt lat="43.44953" lon="5.90616">
        <ele>297.67</ele>
        <time>2019-03-24T08:54:51Z</time>
      </trkpt>
      <trkpt lat="43.44937" lon="5.90604">
        <ele>296.22</ele>
        <time>2019-03-24T08:54:55Z</time>
      </trkpt>
      <trkpt lat="43.44932" lon="5.90601">
        <ele>295.74</ele>
        <time>2019-03-24T08:54:56Z</time>
      </trkpt>
      <trkpt lat="43.44907" lon="5.90587">
        <ele>294.3</ele>
        <time>2019-03-24T08:55:01Z</time>
      </trkpt>
      <trkpt lat="43.44891" lon="5.90579">
        <ele>292.38</ele>
        <time>2019-03-24T08:55:06Z</time>
      </trkpt>
      <trkpt lat="43.44887" lon="5.90583">
        <ele>291.42</ele>
        <time>2019-03-24T08:55:09Z</time>
      </trkpt>
      <trkpt lat="43.44888" lon="5.90585">
        <ele>290.94</ele>
        <time>2019-03-24T08:55:10Z</time>
      </trkpt>
      <trkpt lat="43.4489" lon="5.90586">
        <ele>290.94</ele>
        <time>2019-03-24T08:55:11Z</time>
      </trkpt>
      <trkpt lat="43.44891" lon="5.90588">
        <ele>290.46</ele>
        <time>2019-03-24T08:55:12Z</time>
      </trkpt>
      <trkpt lat="43.44901" lon="5.906">
        <ele>289.49</ele>
        <time>2019-03-24T08:55:17Z</time>
      </trkpt>
      <trkpt lat="43.44904" lon="5.90603">
        <ele>289.01</ele>
        <time>2019-03-24T08:55:18Z</time>
      </trkpt>
      <trkpt lat="43.44911" lon="5.90612">
        <ele>289.01</ele>
        <time>2019-03-24T08:55:20Z</time>
      </trkpt>
      <trkpt lat="43.44947" lon="5.90678">
        <ele>287.57</ele>
        <time>2019-03-24T08:55:34Z</time>
      </trkpt>
      <trkpt lat="43.44975" lon="5.90722">
        <ele>287.09</ele>
        <time>2019-03-24T08:55:46Z</time>
      </trkpt>
      <trkpt lat="43.44976" lon="5.90737">
        <ele>287.09</ele>
        <time>2019-03-24T08:55:50Z</time>
      </trkpt>
      <trkpt lat="43.44975" lon="5.9074">
        <ele>287.09</ele>
        <time>2019-03-24T08:55:51Z</time>
      </trkpt>
      <trkpt lat="43.44949" lon="5.90779">
        <ele>287.57</ele>
        <time>2019-03-24T08:56:04Z</time>
      </trkpt>
      <trkpt lat="43.44914" lon="5.90829">
        <ele>287.57</ele>
        <time>2019-03-24T08:56:21Z</time>
      </trkpt>
      <trkpt lat="43.44907" lon="5.90844">
        <ele>287.57</ele>
        <time>2019-03-24T08:56:34Z</time>
      </trkpt>
      <trkpt lat="43.44902" lon="5.90855">
        <ele>287.57</ele>
        <time>2019-03-24T08:56:47Z</time>
      </trkpt>
      <trkpt lat="43.44904" lon="5.90854">
        <ele>287.57</ele>
        <time>2019-03-24T08:56:52Z</time>
      </trkpt>
      <trkpt lat="43.44904" lon="5.90853">
        <ele>287.57</ele>
        <time>2019-03-24T08:56:53Z</time>
      </trkpt>
      <trkpt lat="43.44905" lon="5.90852">
        <ele>287.57</ele>
        <time>2019-03-24T08:56:54Z</time>
      </trkpt>
      <trkpt lat="43.44908" lon="5.9085">
        <ele>287.57</ele>
        <time>2019-03-24T08:57:11Z</time>
      </trkpt>
      <trkpt lat="43.44923" lon="5.90829">
        <ele>287.57</ele>
        <time>2019-03-24T08:57:24Z</time>
      </trkpt>
      <trkpt lat="43.44954" lon="5.90787">
        <ele>288.05</ele>
        <time>2019-03-24T08:57:41Z</time>
      </trkpt>
      <trkpt lat="43.44985" lon="5.90739">
        <ele>288.05</ele>
        <time>2019-03-24T08:57:58Z</time>
      </trkpt>
      <trkpt lat="43.44963" lon="5.90708">
        <ele>288.05</ele>
        <time>2019-03-24T08:58:11Z</time>
      </trkpt>
      <trkpt lat="43.44942" lon="5.90666">
        <ele>288.05</ele>
        <time>2019-03-24T08:58:25Z</time>
      </trkpt>
      <trkpt lat="43.44916" lon="5.90622">
        <ele>289.49</ele>
        <time>2019-03-24T08:58:41Z</time>
      </trkpt>
      <trkpt lat="43.44886" lon="5.90584">
        <ele>291.9</ele>
        <time>2019-03-24T08:58:58Z</time>
      </trkpt>
      <trkpt lat="43.44879" lon="5.90572">
        <ele>293.34</ele>
        <time>2019-03-24T08:59:03Z</time>
      </trkpt>
      <trkpt lat="43.4488" lon="5.90566">
        <ele>293.82</ele>
        <time>2019-03-24T08:59:06Z</time>
      </trkpt>
      <trkpt lat="43.44883" lon="5.90565">
        <ele>294.3</ele>
        <time>2019-03-24T08:59:08Z</time>
      </trkpt>
      <trkpt lat="43.44885" lon="5.90565">
        <ele>294.3</ele>
        <time>2019-03-24T08:59:09Z</time>
      </trkpt>
      <trkpt lat="43.44887" lon="5.90566">
        <ele>294.3</ele>
        <time>2019-03-24T08:59:10Z</time>
      </trkpt>
      <trkpt lat="43.44889" lon="5.90566">
        <ele>294.78</ele>
        <time>2019-03-24T08:59:11Z</time>
      </trkpt>
      <trkpt lat="43.44917" lon="5.90578">
        <ele>297.67</ele>
        <time>2019-03-24T08:59:27Z</time>
      </trkpt>
      <trkpt lat="43.44941" lon="5.90597">
        <ele>299.59</ele>
        <time>2019-03-24T08:59:40Z</time>
      </trkpt>
      <trkpt lat="43.44973" lon="5.90629">
        <ele>303.43</ele>
        <time>2019-03-24T08:59:57Z</time>
      </trkpt>
      <trkpt lat="43.44993" lon="5.90671">
        <ele>306.32</ele>
        <time>2019-03-24T09:00:13Z</time>
      </trkpt>
      <trkpt lat="43.4502" lon="5.90706">
        <ele>309.68</ele>
        <time>2019-03-24T09:00:28Z</time>
      </trkpt>
      <trkpt lat="43.45057" lon="5.90721">
        <ele>311.6</ele>
        <time>2019-03-24T09:00:44Z</time>
      </trkpt>
      <trkpt lat="43.45091" lon="5.9073">
        <ele>314.01</ele>
        <time>2019-03-24T09:00:59Z</time>
      </trkpt>
      <trkpt lat="43.4513" lon="5.90743">
        <ele>316.89</ele>
        <time>2019-03-24T09:01:14Z</time>
      </trkpt>
      <trkpt lat="43.45158" lon="5.90746">
        <ele>318.81</ele>
        <time>2019-03-24T09:01:28Z</time>
      </trkpt>
      <trkpt lat="43.4519" lon="5.90728">
        <ele>321.7</ele>
        <time>2019-03-24T09:01:43Z</time>
      </trkpt>
      <trkpt lat="43.45217" lon="5.90698">
        <ele>324.1</ele>
        <time>2019-03-24T09:01:58Z</time>
      </trkpt>
      <trkpt lat="43.45224" lon="5.90662">
        <ele>325.06</ele>
        <time>2019-03-24T09:02:12Z</time>
      </trkpt>
      <trkpt lat="43.45206" lon="5.90604">
        <ele>328.43</ele>
        <time>2019-03-24T09:02:29Z</time>
      </trkpt>
      <trkpt lat="43.45174" lon="5.90572">
        <ele>330.83</ele>
        <time>2019-03-24T09:02:44Z</time>
      </trkpt>
      <trkpt lat="43.4515" lon="5.90536">
        <ele>332.75</ele>
        <time>2019-03-24T09:02:59Z</time>
      </trkpt>
      <trkpt lat="43.45123" lon="5.90498">
        <ele>334.2</ele>
        <time>2019-03-24T09:03:14Z</time>
      </trkpt>
      <trkpt lat="43.45088" lon="5.90448">
        <ele>336.6</ele>
        <time>2019-03-24T09:03:33Z</time>
      </trkpt>
      <trkpt lat="43.45069" lon="5.90413">
        <ele>336.6</ele>
        <time>2019-03-24T09:03:46Z</time>
      </trkpt>
      <trkpt lat="43.45072" lon="5.90407">
        <ele>336.6</ele>
        <time>2019-03-24T09:03:48Z</time>
      </trkpt>
      <trkpt lat="43.45079" lon="5.90362">
        <ele>335.16</ele>
        <time>2019-03-24T09:03:59Z</time>
      </trkpt>
      <trkpt lat="43.45055" lon="5.90324">
        <ele>333.23</ele>
        <time>2019-03-24T09:04:11Z</time>
      </trkpt>
      <trkpt lat="43.45042" lon="5.90288">
        <ele>331.31</ele>
        <time>2019-03-24T09:04:22Z</time>
      </trkpt>
      <trkpt lat="43.45044" lon="5.90253">
        <ele>330.35</ele>
        <time>2019-03-24T09:04:35Z</time>
      </trkpt>
      <trkpt lat="43.45044" lon="5.90245">
        <ele>330.35</ele>
        <time>2019-03-24T09:04:46Z</time>
      </trkpt>
      <trkpt lat="43.45041" lon="5.90277">
        <ele>332.27</ele>
        <time>2019-03-24T09:05:02Z</time>
      </trkpt>
      <trkpt lat="43.45052" lon="5.9031">
        <ele>334.2</ele>
        <time>2019-03-24T09:05:17Z</time>
      </trkpt>
      <trkpt lat="43.45067" lon="5.90344">
        <ele>335.64</ele>
        <time>2019-03-24T09:05:30Z</time>
      </trkpt>
      <trkpt lat="43.45057" lon="5.90382">
        <ele>336.12</ele>
        <time>2019-03-24T09:05:40Z</time>
      </trkpt>
      <trkpt lat="43.4505" lon="5.90393">
        <ele>336.12</ele>
        <time>2019-03-24T09:05:45Z</time>
      </trkpt>
      <trkpt lat="43.45049" lon="5.90393">
        <ele>336.12</ele>
        <time>2019-03-24T09:05:46Z</time>
      </trkpt>
      <trkpt lat="43.45048" lon="5.90394">
        <ele>336.12</ele>
        <time>2019-03-24T09:05:47Z</time>
      </trkpt>
      <trkpt lat="43.45047" lon="5.90393">
        <ele>336.12</ele>
        <time>2019-03-24T09:05:48Z</time>
      </trkpt>
      <trkpt lat="43.4505" lon="5.90386">
        <ele>336.12</ele>
        <time>2019-03-24T09:05:52Z</time>
      </trkpt>
      <trkpt lat="43.45055" lon="5.90381">
        <ele>334.68</ele>
        <time>2019-03-24T09:05:54Z</time>
      </trkpt>
      <trkpt lat="43.45074" lon="5.90361">
        <ele>334.2</ele>
        <time>2019-03-24T09:06:07Z</time>
      </trkpt>
      <trkpt lat="43.45074" lon="5.9036">
        <ele>334.2</ele>
        <time>2019-03-24T09:06:14Z</time>
      </trkpt>
      <trkpt lat="43.45073" lon="5.90359">
        <ele>334.2</ele>
        <time>2019-03-24T09:06:15Z</time>
      </trkpt>
      <trkpt lat="43.45072" lon="5.90358">
        <ele>334.2</ele>
        <time>2019-03-24T09:06:16Z</time>
      </trkpt>
      <trkpt lat="43.45071" lon="5.90357">
        <ele>334.2</ele>
        <time>2019-03-24T09:06:17Z</time>
      </trkpt>
      <trkpt lat="43.4507" lon="5.90356">
        <ele>334.2</ele>
        <time>2019-03-24T09:06:18Z</time>
      </trkpt>
      <trkpt lat="43.45069" lon="5.90355">
        <ele>334.2</ele>
        <time>2019-03-24T09:06:19Z</time>
      </trkpt>
      <trkpt lat="43.45068" lon="5.90354">
        <ele>334.2</ele>
        <time>2019-03-24T09:06:20Z</time>
      </trkpt>
      <trkpt lat="43.45053" lon="5.90336">
        <ele>332.27</ele>
        <time>2019-03-24T09:06:36Z</time>
      </trkpt>
      <trkpt lat="43.4505" lon="5.90333">
        <ele>332.27</ele>
        <time>2019-03-24T09:06:39Z</time>
      </trkpt>
      <trkpt lat="43.45046" lon="5.90325">
        <ele>331.79</ele>
        <time>2019-03-24T09:06:45Z</time>
      </trkpt>
      <trkpt lat="43.45045" lon="5.90323">
        <ele>331.79</ele>
        <time>2019-03-24T09:06:46Z</time>
      </trkpt>
      <trkpt lat="43.45037" lon="5.90306">
        <ele>330.83</ele>
        <time>2019-03-24T09:06:58Z</time>
      </trkpt>
      <trkpt lat="43.4503" lon="5.90299">
        <ele>330.35</ele>
        <time>2019-03-24T09:07:15Z</time>
      </trkpt>
      <trkpt lat="43.45031" lon="5.90298">
        <ele>330.35</ele>
        <time>2019-03-24T09:07:19Z</time>
      </trkpt>
      <trkpt lat="43.45013" lon="5.90305">
        <ele>330.35</ele>
        <time>2019-03-24T09:07:28Z</time>
      </trkpt>
      <trkpt lat="43.45009" lon="5.90306">
        <ele>330.35</ele>
        <time>2019-03-24T09:07:32Z</time>
      </trkpt>
      <trkpt lat="43.45007" lon="5.90305">
        <ele>330.35</ele>
        <time>2019-03-24T09:07:34Z</time>
      </trkpt>
      <trkpt lat="43.45004" lon="5.90294">
        <ele>328.91</ele>
        <time>2019-03-24T09:07:39Z</time>
      </trkpt>
      <trkpt lat="43.45003" lon="5.90291">
        <ele>328.91</ele>
        <time>2019-03-24T09:07:40Z</time>
      </trkpt>
      <trkpt lat="43.44985" lon="5.90246">
        <ele>326.02</ele>
        <time>2019-03-24T09:07:54Z</time>
      </trkpt>
      <trkpt lat="43.44977" lon="5.90212">
        <ele>324.1</ele>
        <time>2019-03-24T09:08:04Z</time>
      </trkpt>
      <trkpt lat="43.44975" lon="5.90204">
        <ele>324.1</ele>
        <time>2019-03-24T09:08:11Z</time>
      </trkpt>
      <trkpt lat="43.44976" lon="5.90201">
        <ele>323.62</ele>
        <time>2019-03-24T09:08:13Z</time>
      </trkpt>
      <trkpt lat="43.44977" lon="5.90181">
        <ele>321.7</ele>
        <time>2019-03-24T09:08:21Z</time>
      </trkpt>
      <trkpt lat="43.44959" lon="5.90129">
        <ele>320.26</ele>
        <time>2019-03-24T09:08:37Z</time>
      </trkpt>
      <trkpt lat="43.44955" lon="5.90115">
        <ele>319.78</ele>
        <time>2019-03-24T09:08:42Z</time>
      </trkpt>
      <trkpt lat="43.44957" lon="5.90107">
        <ele>319.78</ele>
        <time>2019-03-24T09:08:46Z</time>
      </trkpt>
      <trkpt lat="43.44972" lon="5.90083">
        <ele>319.3</ele>
        <time>2019-03-24T09:09:00Z</time>
      </trkpt>
      <trkpt lat="43.44981" lon="5.90074">
        <ele>319.3</ele>
        <time>2019-03-24T09:09:06Z</time>
      </trkpt>
      <trkpt lat="43.4498" lon="5.90062">
        <ele>319.3</ele>
        <time>2019-03-24T09:09:11Z</time>
      </trkpt>
      <trkpt lat="43.44966" lon="5.90017">
        <ele>318.33</ele>
        <time>2019-03-24T09:09:29Z</time>
      </trkpt>
      <trkpt lat="43.44964" lon="5.90012">
        <ele>318.33</ele>
        <time>2019-03-24T09:09:37Z</time>
      </trkpt>
      <trkpt lat="43.44969" lon="5.90001">
        <ele>318.33</ele>
        <time>2019-03-24T09:09:42Z</time>
      </trkpt>
      <trkpt lat="43.44974" lon="5.89992">
        <ele>318.33</ele>
        <time>2019-03-24T09:09:46Z</time>
      </trkpt>
      <trkpt lat="43.44973" lon="5.89952">
        <ele>318.33</ele>
        <time>2019-03-24T09:10:01Z</time>
      </trkpt>
      <trkpt lat="43.4497" lon="5.89946">
        <ele>318.33</ele>
        <time>2019-03-24T09:10:04Z</time>
      </trkpt>
      <trkpt lat="43.44947" lon="5.89939">
        <ele>318.33</ele>
        <time>2019-03-24T09:10:18Z</time>
      </trkpt>
      <trkpt lat="43.44912" lon="5.89941">
        <ele>319.3</ele>
        <time>2019-03-24T09:10:36Z</time>
      </trkpt>
      <trkpt lat="43.44876" lon="5.89945">
        <ele>320.74</ele>
        <time>2019-03-24T09:10:54Z</time>
      </trkpt>
      <trkpt lat="43.44875" lon="5.89941">
        <ele>320.74</ele>
        <time>2019-03-24T09:10:56Z</time>
      </trkpt>
      <trkpt lat="43.44875" lon="5.89938">
        <ele>320.74</ele>
        <time>2019-03-24T09:10:57Z</time>
      </trkpt>
      <trkpt lat="43.44874" lon="5.89935">
        <ele>320.74</ele>
        <time>2019-03-24T09:10:58Z</time>
      </trkpt>
      <trkpt lat="43.44874" lon="5.89932">
        <ele>320.74</ele>
        <time>2019-03-24T09:10:59Z</time>
      </trkpt>
      <trkpt lat="43.44873" lon="5.89929">
        <ele>320.74</ele>
        <time>2019-03-24T09:11:00Z</time>
      </trkpt>
      <trkpt lat="43.44873" lon="5.89926">
        <ele>320.74</ele>
        <time>2019-03-24T09:11:01Z</time>
      </trkpt>
      <trkpt lat="43.44872" lon="5.89924">
        <ele>320.74</ele>
        <time>2019-03-24T09:11:02Z</time>
      </trkpt>
      <trkpt lat="43.44855" lon="5.89875">
        <ele>321.7</ele>
        <time>2019-03-24T09:11:20Z</time>
      </trkpt>
      <trkpt lat="43.44845" lon="5.89846">
        <ele>325.06</ele>
        <time>2019-03-24T09:11:33Z</time>
      </trkpt>
      <trkpt lat="43.44831" lon="5.89815">
        <ele>325.06</ele>
        <time>2019-03-24T09:11:49Z</time>
      </trkpt>
      <trkpt lat="43.44814" lon="5.89786">
        <ele>326.02</ele>
        <time>2019-03-24T09:12:04Z</time>
      </trkpt>
      <trkpt lat="43.44784" lon="5.89751">
        <ele>327.47</ele>
        <time>2019-03-24T09:12:21Z</time>
      </trkpt>
      <trkpt lat="43.44768" lon="5.8972">
        <ele>329.39</ele>
        <time>2019-03-24T09:12:37Z</time>
      </trkpt>
      <trkpt lat="43.44755" lon="5.89689">
        <ele>331.31</ele>
        <time>2019-03-24T09:12:49Z</time>
      </trkpt>
      <trkpt lat="43.4474" lon="5.89651">
        <ele>333.23</ele>
        <time>2019-03-24T09:13:04Z</time>
      </trkpt>
      <trkpt lat="43.44729" lon="5.89633">
        <ele>334.2</ele>
        <time>2019-03-24T09:13:14Z</time>
      </trkpt>
      <trkpt lat="43.44727" lon="5.89633">
        <ele>334.2</ele>
        <time>2019-03-24T09:13:15Z</time>
      </trkpt>
      <trkpt lat="43.44723" lon="5.89634">
        <ele>334.68</ele>
        <time>2019-03-24T09:13:21Z</time>
      </trkpt>
      <trkpt lat="43.44709" lon="5.89659">
        <ele>334.68</ele>
        <time>2019-03-24T09:13:34Z</time>
      </trkpt>
      <trkpt lat="43.44689" lon="5.89692">
        <ele>335.16</ele>
        <time>2019-03-24T09:13:47Z</time>
      </trkpt>
      <trkpt lat="43.44677" lon="5.89706">
        <ele>335.16</ele>
        <time>2019-03-24T09:14:02Z</time>
      </trkpt>
      <trkpt lat="43.44676" lon="5.89708">
        <ele>335.16</ele>
        <time>2019-03-24T09:14:06Z</time>
      </trkpt>
      <trkpt lat="43.44675" lon="5.89712">
        <ele>335.16</ele>
        <time>2019-03-24T09:14:07Z</time>
      </trkpt>
      <trkpt lat="43.44674" lon="5.89715">
        <ele>335.64</ele>
        <time>2019-03-24T09:14:08Z</time>
      </trkpt>
      <trkpt lat="43.44674" lon="5.89718">
        <ele>335.64</ele>
        <time>2019-03-24T09:14:09Z</time>
      </trkpt>
      <trkpt lat="43.44674" lon="5.89721">
        <ele>335.64</ele>
        <time>2019-03-24T09:14:10Z</time>
      </trkpt>
      <trkpt lat="43.44674" lon="5.89724">
        <ele>335.64</ele>
        <time>2019-03-24T09:14:11Z</time>
      </trkpt>
      <trkpt lat="43.44675" lon="5.89726">
        <ele>336.12</ele>
        <time>2019-03-24T09:14:12Z</time>
      </trkpt>
      <trkpt lat="43.44676" lon="5.89729">
        <ele>336.12</ele>
        <time>2019-03-24T09:14:13Z</time>
      </trkpt>
      <trkpt lat="43.44692" lon="5.89773">
        <ele>338.52</ele>
        <time>2019-03-24T09:14:30Z</time>
      </trkpt>
      <trkpt lat="43.44718" lon="5.89829">
        <ele>340.44</ele>
        <time>2019-03-24T09:14:49Z</time>
      </trkpt>
      <trkpt lat="43.44745" lon="5.89893">
        <ele>341.89</ele>
        <time>2019-03-24T09:15:10Z</time>
      </trkpt>
      <trkpt lat="43.44735" lon="5.89938">
        <ele>343.33</ele>
        <time>2019-03-24T09:15:24Z</time>
      </trkpt>
      <trkpt lat="43.44712" lon="5.8998">
        <ele>347.17</ele>
        <time>2019-03-24T09:15:40Z</time>
      </trkpt>
      <trkpt lat="43.44692" lon="5.90011">
        <ele>350.54</ele>
        <time>2019-03-24T09:15:54Z</time>
      </trkpt>
      <trkpt lat="43.44675" lon="5.90004">
        <ele>350.06</ele>
        <time>2019-03-24T09:16:08Z</time>
      </trkpt>
      <trkpt lat="43.44675" lon="5.90005">
        <ele>349.1</ele>
        <time>2019-03-24T09:16:39Z</time>
      </trkpt>
      <trkpt lat="43.44671" lon="5.90004">
        <ele>348.62</ele>
        <time>2019-03-24T09:17:18Z</time>
      </trkpt>
      <trkpt lat="43.4467" lon="5.90004">
        <ele>348.62</ele>
        <time>2019-03-24T09:17:44Z</time>
      </trkpt>
      <trkpt lat="43.44662" lon="5.89994">
        <ele>348.13</ele>
        <time>2019-03-24T09:17:55Z</time>
      </trkpt>
      <trkpt lat="43.44664" lon="5.89994">
        <ele>348.13</ele>
        <time>2019-03-24T09:18:14Z</time>
      </trkpt>
      <trkpt lat="43.44665" lon="5.89997">
        <ele>348.13</ele>
        <time>2019-03-24T09:18:43Z</time>
      </trkpt>
      <trkpt lat="43.44663" lon="5.89995">
        <ele>348.13</ele>
        <time>2019-03-24T09:18:59Z</time>
      </trkpt>
      <trkpt lat="43.44664" lon="5.89995">
        <ele>348.13</ele>
        <time>2019-03-24T09:19:03Z</time>
      </trkpt>
      <trkpt lat="43.44665" lon="5.89997">
        <ele>348.13</ele>
        <time>2019-03-24T09:19:04Z</time>
      </trkpt>
      <trkpt lat="43.44666" lon="5.89997">
        <ele>348.13</ele>
        <time>2019-03-24T09:19:05Z</time>
      </trkpt>
      <trkpt lat="43.44667" lon="5.89999">
        <ele>348.13</ele>
        <time>2019-03-24T09:19:06Z</time>
      </trkpt>
      <trkpt lat="43.44668" lon="5.9">
        <ele>348.13</ele>
        <time>2019-03-24T09:19:07Z</time>
      </trkpt>
      <trkpt lat="43.44692" lon="5.90015">
        <ele>349.1</ele>
        <time>2019-03-24T09:19:24Z</time>
      </trkpt>
      <trkpt lat="43.44711" lon="5.89985">
        <ele>345.73</ele>
        <time>2019-03-24T09:19:36Z</time>
      </trkpt>
      <trkpt lat="43.44724" lon="5.89962">
        <ele>343.81</ele>
        <time>2019-03-24T09:19:40Z</time>
      </trkpt>
      <trkpt lat="43.44744" lon="5.89927">
        <ele>342.37</ele>
        <time>2019-03-24T09:19:46Z</time>
      </trkpt>
      <trkpt lat="43.44745" lon="5.89921">
        <ele>342.37</ele>
        <time>2019-03-24T09:19:47Z</time>
      </trkpt>
      <trkpt lat="43.44745" lon="5.89915">
        <ele>342.37</ele>
        <time>2019-03-24T09:19:48Z</time>
      </trkpt>
      <trkpt lat="43.44745" lon="5.89909">
        <ele>342.37</ele>
        <time>2019-03-24T09:19:49Z</time>
      </trkpt>
      <trkpt lat="43.44744" lon="5.89904">
        <ele>341.41</ele>
        <time>2019-03-24T09:19:50Z</time>
      </trkpt>
      <trkpt lat="43.44743" lon="5.89899">
        <ele>341.41</ele>
        <time>2019-03-24T09:19:51Z</time>
      </trkpt>
      <trkpt lat="43.44742" lon="5.89895">
        <ele>341.41</ele>
        <time>2019-03-24T09:19:52Z</time>
      </trkpt>
      <trkpt lat="43.4474" lon="5.89891">
        <ele>341.41</ele>
        <time>2019-03-24T09:19:53Z</time>
      </trkpt>
      <trkpt lat="43.44712" lon="5.89827">
        <ele>339.48</ele>
        <time>2019-03-24T09:20:09Z</time>
      </trkpt>
      <trkpt lat="43.44679" lon="5.89762">
        <ele>336.6</ele>
        <time>2019-03-24T09:20:26Z</time>
      </trkpt>
      <trkpt lat="43.44672" lon="5.89741">
        <ele>335.16</ele>
        <time>2019-03-24T09:20:33Z</time>
      </trkpt>
      <trkpt lat="43.44672" lon="5.89738">
        <ele>334.68</ele>
        <time>2019-03-24T09:20:34Z</time>
      </trkpt>
      <trkpt lat="43.44673" lon="5.89735">
        <ele>334.68</ele>
        <time>2019-03-24T09:20:35Z</time>
      </trkpt>
      <trkpt lat="43.44674" lon="5.89732">
        <ele>334.68</ele>
        <time>2019-03-24T09:20:36Z</time>
      </trkpt>
      <trkpt lat="43.44675" lon="5.89729">
        <ele>334.68</ele>
        <time>2019-03-24T09:20:37Z</time>
      </trkpt>
      <trkpt lat="43.44675" lon="5.89727">
        <ele>334.68</ele>
        <time>2019-03-24T09:20:38Z</time>
      </trkpt>
      <trkpt lat="43.44693" lon="5.89692">
        <ele>333.71</ele>
        <time>2019-03-24T09:20:48Z</time>
      </trkpt>
      <trkpt lat="43.44715" lon="5.89625">
        <ele>333.23</ele>
        <time>2019-03-24T09:21:02Z</time>
      </trkpt>
      <trkpt lat="43.44728" lon="5.89596">
        <ele>334.68</ele>
        <time>2019-03-24T09:21:10Z</time>
      </trkpt>
      <trkpt lat="43.4476" lon="5.89527">
        <ele>336.12</ele>
        <time>2019-03-24T09:21:25Z</time>
      </trkpt>
      <trkpt lat="43.44781" lon="5.89457">
        <ele>338.52</ele>
        <time>2019-03-24T09:21:40Z</time>
      </trkpt>
      <trkpt lat="43.44791" lon="5.89409">
        <ele>341.89</ele>
        <time>2019-03-24T09:21:52Z</time>
      </trkpt>
      <trkpt lat="43.44787" lon="5.89369">
        <ele>344.77</ele>
        <time>2019-03-24T09:22:03Z</time>
      </trkpt>
      <trkpt lat="43.44787" lon="5.89321">
        <ele>347.17</ele>
        <time>2019-03-24T09:22:18Z</time>
      </trkpt>
      <trkpt lat="43.44786" lon="5.89319">
        <ele>347.17</ele>
        <time>2019-03-24T09:22:19Z</time>
      </trkpt>
      <trkpt lat="43.44785" lon="5.89319">
        <ele>347.17</ele>
        <time>2019-03-24T09:22:20Z</time>
      </trkpt>
      <trkpt lat="43.44785" lon="5.89319">
        <ele>347.17</ele>
        <time>2019-03-24T09:22:21Z</time>
      </trkpt>
      <trkpt lat="43.44785" lon="5.8932">
        <ele>347.17</ele>
        <time>2019-03-24T09:22:22Z</time>
      </trkpt>
      <trkpt lat="43.44785" lon="5.8932">
        <ele>346.69</ele>
        <time>2019-03-24T09:22:23Z</time>
      </trkpt>
      <trkpt lat="43.44796" lon="5.8934">
        <ele>347.17</ele>
        <time>2019-03-24T09:22:37Z</time>
      </trkpt>
      <trkpt lat="43.4482" lon="5.8938">
        <ele>350.06</ele>
        <time>2019-03-24T09:22:55Z</time>
      </trkpt>
      <trkpt lat="43.44845" lon="5.89418">
        <ele>351.02</ele>
        <time>2019-03-24T09:23:11Z</time>
      </trkpt>
      <trkpt lat="43.4486" lon="5.89435">
        <ele>351.5</ele>
        <time>2019-03-24T09:23:22Z</time>
      </trkpt>
      <trkpt lat="43.44863" lon="5.89439">
        <ele>351.5</ele>
        <time>2019-03-24T09:23:34Z</time>
      </trkpt>
      <trkpt lat="43.44867" lon="5.89443">
        <ele>351.5</ele>
        <time>2019-03-24T09:23:54Z</time>
      </trkpt>
      <trkpt lat="43.44868" lon="5.89446">
        <ele>351.5</ele>
        <time>2019-03-24T09:24:01Z</time>
      </trkpt>
      <trkpt lat="43.44869" lon="5.89447">
        <ele>351.5</ele>
        <time>2019-03-24T09:24:02Z</time>
      </trkpt>
      <trkpt lat="43.44884" lon="5.89465">
        <ele>351.98</ele>
        <time>2019-03-24T09:24:15Z</time>
      </trkpt>
      <trkpt lat="43.44903" lon="5.89488">
        <ele>352.46</ele>
        <time>2019-03-24T09:24:28Z</time>
      </trkpt>
      <trkpt lat="43.44915" lon="5.89505">
        <ele>352.46</ele>
        <time>2019-03-24T09:24:36Z</time>
      </trkpt>
      <trkpt lat="43.44931" lon="5.89533">
        <ele>353.42</ele>
        <time>2019-03-24T09:24:49Z</time>
      </trkpt>
      <trkpt lat="43.44956" lon="5.89529">
        <ele>351.5</ele>
        <time>2019-03-24T09:25:05Z</time>
      </trkpt>
      <trkpt lat="43.44968" lon="5.89528">
        <ele>349.58</ele>
        <time>2019-03-24T09:25:12Z</time>
      </trkpt>
      <trkpt lat="43.44992" lon="5.89527">
        <ele>346.21</ele>
        <time>2019-03-24T09:25:25Z</time>
      </trkpt>
      <trkpt lat="43.44996" lon="5.89529">
        <ele>347.65</ele>
        <time>2019-03-24T09:25:27Z</time>
      </trkpt>
      <trkpt lat="43.45003" lon="5.89529">
        <ele>345.73</ele>
        <time>2019-03-24T09:25:30Z</time>
      </trkpt>
      <trkpt lat="43.45007" lon="5.89527">
        <ele>344.29</ele>
        <time>2019-03-24T09:25:32Z</time>
      </trkpt>
      <trkpt lat="43.45026" lon="5.89529">
        <ele>343.33</ele>
        <time>2019-03-24T09:25:38Z</time>
      </trkpt>
      <trkpt lat="43.45052" lon="5.89537">
        <ele>339.96</ele>
        <time>2019-03-24T09:25:49Z</time>
      </trkpt>
      <trkpt lat="43.45064" lon="5.8954">
        <ele>338.52</ele>
        <time>2019-03-24T09:25:55Z</time>
      </trkpt>
      <trkpt lat="43.45087" lon="5.89543">
        <ele>335.16</ele>
        <time>2019-03-24T09:26:04Z</time>
      </trkpt>
      <trkpt lat="43.45089" lon="5.89544">
        <ele>335.16</ele>
        <time>2019-03-24T09:26:05Z</time>
      </trkpt>
      <trkpt lat="43.45111" lon="5.8955">
        <ele>331.79</ele>
        <time>2019-03-24T09:26:14Z</time>
      </trkpt>
      <trkpt lat="43.45132" lon="5.89546">
        <ele>333.71</ele>
        <time>2019-03-24T09:26:23Z</time>
      </trkpt>
      <trkpt lat="43.45158" lon="5.89542">
        <ele>334.68</ele>
        <time>2019-03-24T09:26:34Z</time>
      </trkpt>
      <trkpt lat="43.45169" lon="5.89546">
        <ele>335.64</ele>
        <time>2019-03-24T09:26:48Z</time>
      </trkpt>
      <trkpt lat="43.45179" lon="5.89546">
        <ele>336.12</ele>
        <time>2019-03-24T09:27:03Z</time>
      </trkpt>
      <trkpt lat="43.45183" lon="5.89546">
        <ele>336.12</ele>
        <time>2019-03-24T09:27:21Z</time>
      </trkpt>
      <trkpt lat="43.45196" lon="5.89545">
        <ele>336.12</ele>
        <time>2019-03-24T09:27:32Z</time>
      </trkpt>
      <trkpt lat="43.45208" lon="5.89547">
        <ele>336.12</ele>
        <time>2019-03-24T09:27:50Z</time>
      </trkpt>
      <trkpt lat="43.45216" lon="5.89548">
        <ele>334.68</ele>
        <time>2019-03-24T09:28:05Z</time>
      </trkpt>
      <trkpt lat="43.45217" lon="5.89548">
        <ele>334.68</ele>
        <time>2019-03-24T09:28:06Z</time>
      </trkpt>
      <trkpt lat="43.4522" lon="5.89546">
        <ele>334.68</ele>
        <time>2019-03-24T09:28:09Z</time>
      </trkpt>
      <trkpt lat="43.45227" lon="5.89542">
        <ele>333.71</ele>
        <time>2019-03-24T09:28:22Z</time>
      </trkpt>
      <trkpt lat="43.45233" lon="5.89543">
        <ele>332.75</ele>
        <time>2019-03-24T09:28:43Z</time>
      </trkpt>
      <trkpt lat="43.45235" lon="5.89541">
        <ele>332.27</ele>
        <time>2019-03-24T09:28:52Z</time>
      </trkpt>
      <trkpt lat="43.45239" lon="5.89523">
        <ele>328.91</ele>
        <time>2019-03-24T09:29:08Z</time>
      </trkpt>
      <trkpt lat="43.45239" lon="5.89523">
        <ele>328.91</ele>
        <time>2019-03-24T09:29:09Z</time>
      </trkpt>
      <trkpt lat="43.45246" lon="5.89498">
        <ele>326.5</ele>
        <time>2019-03-24T09:29:27Z</time>
      </trkpt>
      <trkpt lat="43.45249" lon="5.89488">
        <ele>326.5</ele>
        <time>2019-03-24T09:29:42Z</time>
      </trkpt>
      <trkpt lat="43.45254" lon="5.89488">
        <ele>325.54</ele>
        <time>2019-03-24T09:29:57Z</time>
      </trkpt>
      <trkpt lat="43.45257" lon="5.89488">
        <ele>323.62</ele>
        <time>2019-03-24T09:30:11Z</time>
      </trkpt>
      <trkpt lat="43.45259" lon="5.89489">
        <ele>323.62</ele>
        <time>2019-03-24T09:30:18Z</time>
      </trkpt>
      <trkpt lat="43.45259" lon="5.89493">
        <ele>323.62</ele>
        <time>2019-03-24T09:30:21Z</time>
      </trkpt>
      <trkpt lat="43.45265" lon="5.89498">
        <ele>322.18</ele>
        <time>2019-03-24T09:30:27Z</time>
      </trkpt>
      <trkpt lat="43.45269" lon="5.89509">
        <ele>321.22</ele>
        <time>2019-03-24T09:30:35Z</time>
      </trkpt>
      <trkpt lat="43.45271" lon="5.89513">
        <ele>321.22</ele>
        <time>2019-03-24T09:30:38Z</time>
      </trkpt>
      <trkpt lat="43.45277" lon="5.8953">
        <ele>321.22</ele>
        <time>2019-03-24T09:30:52Z</time>
      </trkpt>
      <trkpt lat="43.45278" lon="5.89531">
        <ele>321.22</ele>
        <time>2019-03-24T09:31:10Z</time>
      </trkpt>
      <trkpt lat="43.45287" lon="5.89521">
        <ele>319.78</ele>
        <time>2019-03-24T09:31:17Z</time>
      </trkpt>
      <trkpt lat="43.45295" lon="5.89518">
        <ele>318.81</ele>
        <time>2019-03-24T09:31:22Z</time>
      </trkpt>
      <trkpt lat="43.45321" lon="5.89511">
        <ele>316.41</ele>
        <time>2019-03-24T09:31:34Z</time>
      </trkpt>
      <trkpt lat="43.45362" lon="5.89485">
        <ele>314.97</ele>
        <time>2019-03-24T09:31:47Z</time>
      </trkpt>
      <trkpt lat="43.45413" lon="5.89449">
        <ele>314.01</ele>
        <time>2019-03-24T09:32:06Z</time>
      </trkpt>
      <trkpt lat="43.45438" lon="5.89411">
        <ele>315.93</ele>
        <time>2019-03-24T09:32:21Z</time>
      </trkpt>
      <trkpt lat="43.45438" lon="5.89402">
        <ele>316.41</ele>
        <time>2019-03-24T09:32:26Z</time>
      </trkpt>
      <trkpt lat="43.45436" lon="5.89399">
        <ele>316.41</ele>
        <time>2019-03-24T09:32:29Z</time>
      </trkpt>
      <trkpt lat="43.45439" lon="5.89403">
        <ele>316.41</ele>
        <time>2019-03-24T09:32:33Z</time>
      </trkpt>
      <trkpt lat="43.45441" lon="5.89405">
        <ele>316.41</ele>
        <time>2019-03-24T09:32:34Z</time>
      </trkpt>
      <trkpt lat="43.45442" lon="5.89406">
        <ele>316.41</ele>
        <time>2019-03-24T09:32:35Z</time>
      </trkpt>
      <trkpt lat="43.45443" lon="5.89409">
        <ele>316.41</ele>
        <time>2019-03-24T09:32:36Z</time>
      </trkpt>
      <trkpt lat="43.45444" lon="5.8941">
        <ele>316.41</ele>
        <time>2019-03-24T09:32:37Z</time>
      </trkpt>
      <trkpt lat="43.45445" lon="5.89412">
        <ele>316.41</ele>
        <time>2019-03-24T09:32:38Z</time>
      </trkpt>
      <trkpt lat="43.45462" lon="5.89432">
        <ele>316.41</ele>
        <time>2019-03-24T09:32:55Z</time>
      </trkpt>
      <trkpt lat="43.45463" lon="5.89434">
        <ele>316.41</ele>
        <time>2019-03-24T09:32:59Z</time>
      </trkpt>
      <trkpt lat="43.45466" lon="5.89433">
        <ele>316.41</ele>
        <time>2019-03-24T09:33:00Z</time>
      </trkpt>
      <trkpt lat="43.45468" lon="5.89432">
        <ele>316.89</ele>
        <time>2019-03-24T09:33:02Z</time>
      </trkpt>
      <trkpt lat="43.45472" lon="5.8943">
        <ele>316.89</ele>
        <time>2019-03-24T09:33:03Z</time>
      </trkpt>
      <trkpt lat="43.45474" lon="5.89428">
        <ele>317.37</ele>
        <time>2019-03-24T09:33:04Z</time>
      </trkpt>
      <trkpt lat="43.45476" lon="5.89427">
        <ele>317.37</ele>
        <time>2019-03-24T09:33:05Z</time>
      </trkpt>
      <trkpt lat="43.45478" lon="5.89426">
        <ele>317.37</ele>
        <time>2019-03-24T09:33:06Z</time>
      </trkpt>
      <trkpt lat="43.45479" lon="5.89425">
        <ele>317.37</ele>
        <time>2019-03-24T09:33:07Z</time>
      </trkpt>
      <trkpt lat="43.45512" lon="5.89421">
        <ele>319.3</ele>
        <time>2019-03-24T09:33:21Z</time>
      </trkpt>
      <trkpt lat="43.45552" lon="5.89413">
        <ele>320.74</ele>
        <time>2019-03-24T09:33:36Z</time>
      </trkpt>
      <trkpt lat="43.45576" lon="5.89434">
        <ele>318.33</ele>
        <time>2019-03-24T09:33:47Z</time>
      </trkpt>
      <trkpt lat="43.45578" lon="5.89434">
        <ele>318.33</ele>
        <time>2019-03-24T09:33:48Z</time>
      </trkpt>
      <trkpt lat="43.4558" lon="5.89434">
        <ele>318.33</ele>
        <time>2019-03-24T09:33:49Z</time>
      </trkpt>
      <trkpt lat="43.45582" lon="5.89434">
        <ele>317.85</ele>
        <time>2019-03-24T09:33:50Z</time>
      </trkpt>
      <trkpt lat="43.45622" lon="5.89438">
        <ele>315.93</ele>
        <time>2019-03-24T09:34:01Z</time>
      </trkpt>
      <trkpt lat="43.45627" lon="5.8944">
        <ele>315.45</ele>
        <time>2019-03-24T09:34:02Z</time>
      </trkpt>
      <trkpt lat="43.45644" lon="5.8944">
        <ele>314.97</ele>
        <time>2019-03-24T09:34:05Z</time>
      </trkpt>
      <trkpt lat="43.4565" lon="5.8944">
        <ele>314.97</ele>
        <time>2019-03-24T09:34:06Z</time>
      </trkpt>
      <trkpt lat="43.45656" lon="5.89439">
        <ele>314.97</ele>
        <time>2019-03-24T09:34:07Z</time>
      </trkpt>
      <trkpt lat="43.45661" lon="5.89438">
        <ele>314.97</ele>
        <time>2019-03-24T09:34:08Z</time>
      </trkpt>
      <trkpt lat="43.45666" lon="5.89436">
        <ele>314.97</ele>
        <time>2019-03-24T09:34:09Z</time>
      </trkpt>
      <trkpt lat="43.45671" lon="5.89435">
        <ele>314.97</ele>
        <time>2019-03-24T09:34:10Z</time>
      </trkpt>
      <trkpt lat="43.45675" lon="5.89434">
        <ele>316.41</ele>
        <time>2019-03-24T09:34:11Z</time>
      </trkpt>
      <trkpt lat="43.45678" lon="5.89433">
        <ele>316.89</ele>
        <time>2019-03-24T09:34:12Z</time>
      </trkpt>
      <trkpt lat="43.45681" lon="5.89433">
        <ele>317.37</ele>
        <time>2019-03-24T09:34:13Z</time>
      </trkpt>
      <trkpt lat="43.45685" lon="5.89433">
        <ele>317.37</ele>
        <time>2019-03-24T09:34:14Z</time>
      </trkpt>
      <trkpt lat="43.45688" lon="5.89433">
        <ele>318.33</ele>
        <time>2019-03-24T09:34:15Z</time>
      </trkpt>
      <trkpt lat="43.45691" lon="5.89434">
        <ele>318.81</ele>
        <time>2019-03-24T09:34:16Z</time>
      </trkpt>
      <trkpt lat="43.45712" lon="5.89429">
        <ele>322.66</ele>
        <time>2019-03-24T09:34:24Z</time>
      </trkpt>
      <trkpt lat="43.45715" lon="5.89428">
        <ele>322.66</ele>
        <time>2019-03-24T09:34:25Z</time>
      </trkpt>
      <trkpt lat="43.45732" lon="5.89419">
        <ele>326.02</ele>
        <time>2019-03-24T09:34:33Z</time>
      </trkpt>
      <trkpt lat="43.45752" lon="5.89413">
        <ele>328.91</ele>
        <time>2019-03-24T09:34:42Z</time>
      </trkpt>
      <trkpt lat="43.45775" lon="5.89404">
        <ele>332.27</ele>
        <time>2019-03-24T09:34:54Z</time>
      </trkpt>
      <trkpt lat="43.45784" lon="5.89404">
        <ele>332.75</ele>
        <time>2019-03-24T09:35:02Z</time>
      </trkpt>
      <trkpt lat="43.45788" lon="5.89398">
        <ele>333.23</ele>
        <time>2019-03-24T09:35:05Z</time>
      </trkpt>
      <trkpt lat="43.4579" lon="5.89397">
        <ele>333.23</ele>
        <time>2019-03-24T09:35:06Z</time>
      </trkpt>
      <trkpt lat="43.45792" lon="5.89397">
        <ele>333.71</ele>
        <time>2019-03-24T09:35:07Z</time>
      </trkpt>
      <trkpt lat="43.45807" lon="5.89393">
        <ele>335.64</ele>
        <time>2019-03-24T09:35:14Z</time>
      </trkpt>
      <trkpt lat="43.4581" lon="5.89394">
        <ele>336.6</ele>
        <time>2019-03-24T09:35:16Z</time>
      </trkpt>
      <trkpt lat="43.45811" lon="5.89395">
        <ele>336.6</ele>
        <time>2019-03-24T09:35:17Z</time>
      </trkpt>
      <trkpt lat="43.45813" lon="5.89396">
        <ele>337.08</ele>
        <time>2019-03-24T09:35:18Z</time>
      </trkpt>
      <trkpt lat="43.45838" lon="5.89424">
        <ele>338.52</ele>
        <time>2019-03-24T09:35:32Z</time>
      </trkpt>
      <trkpt lat="43.45874" lon="5.89435">
        <ele>340.44</ele>
        <time>2019-03-24T09:35:48Z</time>
      </trkpt>
      <trkpt lat="43.45913" lon="5.89444">
        <ele>341.41</ele>
        <time>2019-03-24T09:36:06Z</time>
      </trkpt>
      <trkpt lat="43.45954" lon="5.89447">
        <ele>342.37</ele>
        <time>2019-03-24T09:36:23Z</time>
      </trkpt>
      <trkpt lat="43.45971" lon="5.89451">
        <ele>342.37</ele>
        <time>2019-03-24T09:36:38Z</time>
      </trkpt>
      <trkpt lat="43.45996" lon="5.89459">
        <ele>339.48</ele>
        <time>2019-03-24T09:36:54Z</time>
      </trkpt>
      <trkpt lat="43.46043" lon="5.89473">
        <ele>336.12</ele>
        <time>2019-03-24T09:37:01Z</time>
      </trkpt>
      <trkpt lat="43.46052" lon="5.89475">
        <ele>336.6</ele>
        <time>2019-03-24T09:37:02Z</time>
      </trkpt>
      <trkpt lat="43.46078" lon="5.89484">
        <ele>334.68</ele>
        <time>2019-03-24T09:37:05Z</time>
      </trkpt>
      <trkpt lat="43.46087" lon="5.89485">
        <ele>334.68</ele>
        <time>2019-03-24T09:37:06Z</time>
      </trkpt>
      <trkpt lat="43.46097" lon="5.89485">
        <ele>333.23</ele>
        <time>2019-03-24T09:37:07Z</time>
      </trkpt>
      <trkpt lat="43.46106" lon="5.89484">
        <ele>333.23</ele>
        <time>2019-03-24T09:37:08Z</time>
      </trkpt>
      <trkpt lat="43.46115" lon="5.89485">
        <ele>333.23</ele>
        <time>2019-03-24T09:37:09Z</time>
      </trkpt>
      <trkpt lat="43.46122" lon="5.89487">
        <ele>333.23</ele>
        <time>2019-03-24T09:37:10Z</time>
      </trkpt>
      <trkpt lat="43.46128" lon="5.8949">
        <ele>333.23</ele>
        <time>2019-03-24T09:37:11Z</time>
      </trkpt>
      <trkpt lat="43.46133" lon="5.89492">
        <ele>333.23</ele>
        <time>2019-03-24T09:37:12Z</time>
      </trkpt>
      <trkpt lat="43.46141" lon="5.89497">
        <ele>334.68</ele>
        <time>2019-03-24T09:37:14Z</time>
      </trkpt>
      <trkpt lat="43.46157" lon="5.89503">
        <ele>336.6</ele>
        <time>2019-03-24T09:37:18Z</time>
      </trkpt>
      <trkpt lat="43.46179" lon="5.89496">
        <ele>339.48</ele>
        <time>2019-03-24T09:37:25Z</time>
      </trkpt>
      <trkpt lat="43.46181" lon="5.89494">
        <ele>339.48</ele>
        <time>2019-03-24T09:37:26Z</time>
      </trkpt>
      <trkpt lat="43.46216" lon="5.89477">
        <ele>340.92</ele>
        <time>2019-03-24T09:37:38Z</time>
      </trkpt>
      <trkpt lat="43.46268" lon="5.89474">
        <ele>340.92</ele>
        <time>2019-03-24T09:37:51Z</time>
      </trkpt>
      <trkpt lat="43.463" lon="5.89483">
        <ele>341.41</ele>
        <time>2019-03-24T09:37:59Z</time>
      </trkpt>
      <trkpt lat="43.46303" lon="5.89481">
        <ele>341.41</ele>
        <time>2019-03-24T09:38:00Z</time>
      </trkpt>
      <trkpt lat="43.46307" lon="5.89478">
        <ele>339.96</ele>
        <time>2019-03-24T09:38:01Z</time>
      </trkpt>
      <trkpt lat="43.4631" lon="5.89474">
        <ele>339.96</ele>
        <time>2019-03-24T09:38:02Z</time>
      </trkpt>
      <trkpt lat="43.46313" lon="5.89469">
        <ele>339.96</ele>
        <time>2019-03-24T09:38:03Z</time>
      </trkpt>
      <trkpt lat="43.46365" lon="5.89413">
        <ele>338.52</ele>
        <time>2019-03-24T09:38:14Z</time>
      </trkpt>
      <trkpt lat="43.46373" lon="5.89405">
        <ele>338.52</ele>
        <time>2019-03-24T09:38:16Z</time>
      </trkpt>
      <trkpt lat="43.46378" lon="5.89401">
        <ele>338.52</ele>
        <time>2019-03-24T09:38:17Z</time>
      </trkpt>
      <trkpt lat="43.46382" lon="5.89397">
        <ele>338.52</ele>
        <time>2019-03-24T09:38:18Z</time>
      </trkpt>
      <trkpt lat="43.46399" lon="5.89386">
        <ele>339.96</ele>
        <time>2019-03-24T09:38:22Z</time>
      </trkpt>
      <trkpt lat="43.46433" lon="5.89365">
        <ele>341.41</ele>
        <time>2019-03-24T09:38:32Z</time>
      </trkpt>
      <trkpt lat="43.46433" lon="5.89361">
        <ele>341.41</ele>
        <time>2019-03-24T09:38:33Z</time>
      </trkpt>
      <trkpt lat="43.46415" lon="5.89299">
        <ele>341.41</ele>
        <time>2019-03-24T09:38:47Z</time>
      </trkpt>
      <trkpt lat="43.46405" lon="5.89273">
        <ele>340.44</ele>
        <time>2019-03-24T09:38:52Z</time>
      </trkpt>
      <trkpt lat="43.46403" lon="5.89268">
        <ele>340.44</ele>
        <time>2019-03-24T09:38:53Z</time>
      </trkpt>
      <trkpt lat="43.46388" lon="5.89239">
        <ele>339</ele>
        <time>2019-03-24T09:38:58Z</time>
      </trkpt>
      <trkpt lat="43.46386" lon="5.89233">
        <ele>339</ele>
        <time>2019-03-24T09:38:59Z</time>
      </trkpt>
      <trkpt lat="43.46384" lon="5.89226">
        <ele>339</ele>
        <time>2019-03-24T09:39:00Z</time>
      </trkpt>
      <trkpt lat="43.46383" lon="5.89218">
        <ele>338.52</ele>
        <time>2019-03-24T09:39:01Z</time>
      </trkpt>
      <trkpt lat="43.46382" lon="5.8921">
        <ele>338.52</ele>
        <time>2019-03-24T09:39:02Z</time>
      </trkpt>
      <trkpt lat="43.46382" lon="5.89201">
        <ele>338.52</ele>
        <time>2019-03-24T09:39:03Z</time>
      </trkpt>
      <trkpt lat="43.46371" lon="5.89086">
        <ele>337.08</ele>
        <time>2019-03-24T09:39:18Z</time>
      </trkpt>
      <trkpt lat="43.46368" lon="5.89056">
        <ele>337.08</ele>
        <time>2019-03-24T09:39:22Z</time>
      </trkpt>
      <trkpt lat="43.46368" lon="5.89049">
        <ele>336.6</ele>
        <time>2019-03-24T09:39:23Z</time>
      </trkpt>
      <trkpt lat="43.46364" lon="5.88945">
        <ele>336.12</ele>
        <time>2019-03-24T09:39:37Z</time>
      </trkpt>
      <trkpt lat="43.46363" lon="5.88937">
        <ele>336.12</ele>
        <time>2019-03-24T09:39:38Z</time>
      </trkpt>
      <trkpt lat="43.46361" lon="5.88931">
        <ele>336.12</ele>
        <time>2019-03-24T09:39:39Z</time>
      </trkpt>
      <trkpt lat="43.46358" lon="5.88927">
        <ele>336.12</ele>
        <time>2019-03-24T09:39:40Z</time>
      </trkpt>
      <trkpt lat="43.46354" lon="5.88923">
        <ele>336.12</ele>
        <time>2019-03-24T09:39:41Z</time>
      </trkpt>
      <trkpt lat="43.4635" lon="5.8892">
        <ele>336.12</ele>
        <time>2019-03-24T09:39:42Z</time>
      </trkpt>
      <trkpt lat="43.46345" lon="5.88917">
        <ele>336.12</ele>
        <time>2019-03-24T09:39:43Z</time>
      </trkpt>
      <trkpt lat="43.46341" lon="5.88913">
        <ele>336.12</ele>
        <time>2019-03-24T09:39:44Z</time>
      </trkpt>
      <trkpt lat="43.46336" lon="5.88907">
        <ele>336.12</ele>
        <time>2019-03-24T09:39:45Z</time>
      </trkpt>
      <trkpt lat="43.46334" lon="5.88902">
        <ele>336.12</ele>
        <time>2019-03-24T09:39:46Z</time>
      </trkpt>
      <trkpt lat="43.46332" lon="5.88895">
        <ele>336.12</ele>
        <time>2019-03-24T09:39:47Z</time>
      </trkpt>
      <trkpt lat="43.46331" lon="5.88888">
        <ele>336.12</ele>
        <time>2019-03-24T09:39:48Z</time>
      </trkpt>
      <trkpt lat="43.46331" lon="5.88882">
        <ele>337.08</ele>
        <time>2019-03-24T09:39:49Z</time>
      </trkpt>
      <trkpt lat="43.46332" lon="5.88832">
        <ele>337.08</ele>
        <time>2019-03-24T09:39:57Z</time>
      </trkpt>
      <trkpt lat="43.46331" lon="5.88826">
        <ele>337.08</ele>
        <time>2019-03-24T09:39:58Z</time>
      </trkpt>
      <trkpt lat="43.4633" lon="5.88813">
        <ele>337.08</ele>
        <time>2019-03-24T09:40:00Z</time>
      </trkpt>
      <trkpt lat="43.46329" lon="5.88807">
        <ele>337.08</ele>
        <time>2019-03-24T09:40:01Z</time>
      </trkpt>
      <trkpt lat="43.46322" lon="5.8876">
        <ele>335.64</ele>
        <time>2019-03-24T09:40:08Z</time>
      </trkpt>
      <trkpt lat="43.46319" lon="5.88739">
        <ele>335.64</ele>
        <time>2019-03-24T09:40:11Z</time>
      </trkpt>
      <trkpt lat="43.46318" lon="5.8873">
        <ele>335.64</ele>
        <time>2019-03-24T09:40:12Z</time>
      </trkpt>
      <trkpt lat="43.46298" lon="5.88628">
        <ele>334.68</ele>
        <time>2019-03-24T09:40:24Z</time>
      </trkpt>
      <trkpt lat="43.4629" lon="5.88589">
        <ele>334.2</ele>
        <time>2019-03-24T09:40:29Z</time>
      </trkpt>
      <trkpt lat="43.46275" lon="5.8854">
        <ele>333.71</ele>
        <time>2019-03-24T09:40:36Z</time>
      </trkpt>
      <trkpt lat="43.46274" lon="5.88533">
        <ele>333.71</ele>
        <time>2019-03-24T09:40:37Z</time>
      </trkpt>
      <trkpt lat="43.46274" lon="5.88526">
        <ele>333.23</ele>
        <time>2019-03-24T09:40:38Z</time>
      </trkpt>
      <trkpt lat="43.46276" lon="5.88518">
        <ele>333.23</ele>
        <time>2019-03-24T09:40:39Z</time>
      </trkpt>
      <trkpt lat="43.4628" lon="5.88512">
        <ele>333.23</ele>
        <time>2019-03-24T09:40:40Z</time>
      </trkpt>
      <trkpt lat="43.46285" lon="5.88507">
        <ele>333.23</ele>
        <time>2019-03-24T09:40:41Z</time>
      </trkpt>
      <trkpt lat="43.4629" lon="5.88502">
        <ele>333.23</ele>
        <time>2019-03-24T09:40:42Z</time>
      </trkpt>
      <trkpt lat="43.4632" lon="5.88476">
        <ele>334.68</ele>
        <time>2019-03-24T09:40:47Z</time>
      </trkpt>
      <trkpt lat="43.46336" lon="5.8846">
        <ele>334.68</ele>
        <time>2019-03-24T09:40:50Z</time>
      </trkpt>
      <trkpt lat="43.46341" lon="5.88453">
        <ele>334.68</ele>
        <time>2019-03-24T09:40:51Z</time>
      </trkpt>
      <trkpt lat="43.46344" lon="5.88445">
        <ele>335.16</ele>
        <time>2019-03-24T09:40:52Z</time>
      </trkpt>
      <trkpt lat="43.46347" lon="5.88437">
        <ele>335.16</ele>
        <time>2019-03-24T09:40:53Z</time>
      </trkpt>
      <trkpt lat="43.46347" lon="5.8843">
        <ele>336.12</ele>
        <time>2019-03-24T09:40:54Z</time>
      </trkpt>
      <trkpt lat="43.46346" lon="5.88422">
        <ele>336.12</ele>
        <time>2019-03-24T09:40:55Z</time>
      </trkpt>
      <trkpt lat="43.46345" lon="5.88417">
        <ele>336.6</ele>
        <time>2019-03-24T09:40:56Z</time>
      </trkpt>
      <trkpt lat="43.46343" lon="5.8841">
        <ele>336.6</ele>
        <time>2019-03-24T09:40:57Z</time>
      </trkpt>
      <trkpt lat="43.46326" lon="5.88329">
        <ele>337.56</ele>
        <time>2019-03-24T09:41:10Z</time>
      </trkpt>
      <trkpt lat="43.46321" lon="5.88316">
        <ele>337.56</ele>
        <time>2019-03-24T09:41:12Z</time>
      </trkpt>
      <trkpt lat="43.46318" lon="5.88311">
        <ele>336.12</ele>
        <time>2019-03-24T09:41:13Z</time>
      </trkpt>
      <trkpt lat="43.46314" lon="5.88305">
        <ele>336.12</ele>
        <time>2019-03-24T09:41:14Z</time>
      </trkpt>
      <trkpt lat="43.46252" lon="5.88232">
        <ele>333.71</ele>
        <time>2019-03-24T09:41:28Z</time>
      </trkpt>
      <trkpt lat="43.46209" lon="5.8817">
        <ele>331.79</ele>
        <time>2019-03-24T09:41:38Z</time>
      </trkpt>
      <trkpt lat="43.46165" lon="5.88069">
        <ele>328.43</ele>
        <time>2019-03-24T09:41:51Z</time>
      </trkpt>
      <trkpt lat="43.46151" lon="5.88021">
        <ele>327.47</ele>
        <time>2019-03-24T09:41:56Z</time>
      </trkpt>
      <trkpt lat="43.46139" lon="5.87967">
        <ele>325.06</ele>
        <time>2019-03-24T09:42:01Z</time>
      </trkpt>
      <trkpt lat="43.46117" lon="5.87875">
        <ele>321.7</ele>
        <time>2019-03-24T09:42:10Z</time>
      </trkpt>
      <trkpt lat="43.46083" lon="5.87775">
        <ele>319.3</ele>
        <time>2019-03-24T09:42:23Z</time>
      </trkpt>
      <trkpt lat="43.46042" lon="5.87658">
        <ele>315.93</ele>
        <time>2019-03-24T09:42:38Z</time>
      </trkpt>
      <trkpt lat="43.46037" lon="5.8765">
        <ele>315.93</ele>
        <time>2019-03-24T09:42:39Z</time>
      </trkpt>
      <trkpt lat="43.46031" lon="5.87645">
        <ele>315.93</ele>
        <time>2019-03-24T09:42:40Z</time>
      </trkpt>
      <trkpt lat="43.46024" lon="5.8764">
        <ele>315.93</ele>
        <time>2019-03-24T09:42:41Z</time>
      </trkpt>
      <trkpt lat="43.46017" lon="5.87638">
        <ele>314.97</ele>
        <time>2019-03-24T09:42:42Z</time>
      </trkpt>
      <trkpt lat="43.4601" lon="5.87636">
        <ele>314.97</ele>
        <time>2019-03-24T09:42:43Z</time>
      </trkpt>
      <trkpt lat="43.46003" lon="5.87635">
        <ele>314.97</ele>
        <time>2019-03-24T09:42:44Z</time>
      </trkpt>
      <trkpt lat="43.45996" lon="5.87635">
        <ele>314.49</ele>
        <time>2019-03-24T09:42:45Z</time>
      </trkpt>
      <trkpt lat="43.45988" lon="5.87633">
        <ele>314.49</ele>
        <time>2019-03-24T09:42:46Z</time>
      </trkpt>
      <trkpt lat="43.4598" lon="5.87629">
        <ele>314.97</ele>
        <time>2019-03-24T09:42:47Z</time>
      </trkpt>
      <trkpt lat="43.45974" lon="5.87625">
        <ele>314.97</ele>
        <time>2019-03-24T09:42:48Z</time>
      </trkpt>
      <trkpt lat="43.45968" lon="5.8762">
        <ele>314.49</ele>
        <time>2019-03-24T09:42:49Z</time>
      </trkpt>
      <trkpt lat="43.45962" lon="5.87614">
        <ele>314.49</ele>
        <time>2019-03-24T09:42:50Z</time>
      </trkpt>
      <trkpt lat="43.45892" lon="5.87535">
        <ele>311.12</ele>
        <time>2019-03-24T09:43:03Z</time>
      </trkpt>
      <trkpt lat="43.45835" lon="5.87471">
        <ele>311.12</ele>
        <time>2019-03-24T09:43:13Z</time>
      </trkpt>
      <trkpt lat="43.45782" lon="5.87394">
        <ele>312.57</ele>
        <time>2019-03-24T09:43:24Z</time>
      </trkpt>
      <trkpt lat="43.45727" lon="5.87333">
        <ele>314.01</ele>
        <time>2019-03-24T09:43:36Z</time>
      </trkpt>
      <trkpt lat="43.45661" lon="5.87275">
        <ele>314.97</ele>
        <time>2019-03-24T09:43:52Z</time>
      </trkpt>
      <trkpt lat="43.45628" lon="5.87244">
        <ele>314.01</ele>
        <time>2019-03-24T09:43:59Z</time>
      </trkpt>
      <trkpt lat="43.45606" lon="5.87213">
        <ele>313.05</ele>
        <time>2019-03-24T09:44:04Z</time>
      </trkpt>
      <trkpt lat="43.45589" lon="5.87179">
        <ele>312.57</ele>
        <time>2019-03-24T09:44:08Z</time>
      </trkpt>
      <trkpt lat="43.45553" lon="5.87072">
        <ele>311.12</ele>
        <time>2019-03-24T09:44:21Z</time>
      </trkpt>
      <trkpt lat="43.45541" lon="5.87039">
        <ele>311.12</ele>
        <time>2019-03-24T09:44:25Z</time>
      </trkpt>
      <trkpt lat="43.45539" lon="5.87031">
        <ele>311.12</ele>
        <time>2019-03-24T09:44:26Z</time>
      </trkpt>
      <trkpt lat="43.45537" lon="5.8702">
        <ele>311.12</ele>
        <time>2019-03-24T09:44:27Z</time>
      </trkpt>
      <trkpt lat="43.45532" lon="5.86992">
        <ele>310.64</ele>
        <time>2019-03-24T09:44:30Z</time>
      </trkpt>
      <trkpt lat="43.45529" lon="5.86983">
        <ele>310.64</ele>
        <time>2019-03-24T09:44:31Z</time>
      </trkpt>
      <trkpt lat="43.45525" lon="5.86976">
        <ele>310.16</ele>
        <time>2019-03-24T09:44:32Z</time>
      </trkpt>
      <trkpt lat="43.4552" lon="5.86969">
        <ele>310.16</ele>
        <time>2019-03-24T09:44:33Z</time>
      </trkpt>
      <trkpt lat="43.45515" lon="5.86963">
        <ele>310.16</ele>
        <time>2019-03-24T09:44:34Z</time>
      </trkpt>
      <trkpt lat="43.45447" lon="5.8688">
        <ele>309.68</ele>
        <time>2019-03-24T09:44:48Z</time>
      </trkpt>
      <trkpt lat="43.45397" lon="5.86822">
        <ele>311.12</ele>
        <time>2019-03-24T09:44:59Z</time>
      </trkpt>
      <trkpt lat="43.45334" lon="5.86769">
        <ele>312.09</ele>
        <time>2019-03-24T09:45:12Z</time>
      </trkpt>
      <trkpt lat="43.45304" lon="5.86744">
        <ele>313.05</ele>
        <time>2019-03-24T09:45:20Z</time>
      </trkpt>
      <trkpt lat="43.45299" lon="5.8674">
        <ele>313.05</ele>
        <time>2019-03-24T09:45:21Z</time>
      </trkpt>
      <trkpt lat="43.45296" lon="5.86736">
        <ele>313.05</ele>
        <time>2019-03-24T09:45:22Z</time>
      </trkpt>
      <trkpt lat="43.45292" lon="5.86733">
        <ele>312.57</ele>
        <time>2019-03-24T09:45:23Z</time>
      </trkpt>
      <trkpt lat="43.45288" lon="5.86728">
        <ele>312.57</ele>
        <time>2019-03-24T09:45:24Z</time>
      </trkpt>
      <trkpt lat="43.45285" lon="5.86723">
        <ele>313.05</ele>
        <time>2019-03-24T09:45:25Z</time>
      </trkpt>
      <trkpt lat="43.45282" lon="5.86718">
        <ele>313.05</ele>
        <time>2019-03-24T09:45:26Z</time>
      </trkpt>
      <trkpt lat="43.45278" lon="5.86713">
        <ele>313.05</ele>
        <time>2019-03-24T09:45:27Z</time>
      </trkpt>
      <trkpt lat="43.45258" lon="5.86685">
        <ele>314.01</ele>
        <time>2019-03-24T09:45:33Z</time>
      </trkpt>
      <trkpt lat="43.45255" lon="5.86681">
        <ele>314.01</ele>
        <time>2019-03-24T09:45:34Z</time>
      </trkpt>
      <trkpt lat="43.45251" lon="5.86677">
        <ele>314.01</ele>
        <time>2019-03-24T09:45:35Z</time>
      </trkpt>
      <trkpt lat="43.45184" lon="5.86609">
        <ele>315.93</ele>
        <time>2019-03-24T09:45:52Z</time>
      </trkpt>
      <trkpt lat="43.4518" lon="5.86605">
        <ele>316.41</ele>
        <time>2019-03-24T09:45:53Z</time>
      </trkpt>
      <trkpt lat="43.45175" lon="5.86602">
        <ele>316.41</ele>
        <time>2019-03-24T09:45:54Z</time>
      </trkpt>
      <trkpt lat="43.45171" lon="5.86599">
        <ele>316.41</ele>
        <time>2019-03-24T09:45:55Z</time>
      </trkpt>
      <trkpt lat="43.45163" lon="5.86593">
        <ele>316.89</ele>
        <time>2019-03-24T09:45:57Z</time>
      </trkpt>
      <trkpt lat="43.45159" lon="5.86591">
        <ele>316.89</ele>
        <time>2019-03-24T09:45:58Z</time>
      </trkpt>
      <trkpt lat="43.45155" lon="5.86591">
        <ele>316.89</ele>
        <time>2019-03-24T09:45:59Z</time>
      </trkpt>
      <trkpt lat="43.45147" lon="5.8659">
        <ele>317.37</ele>
        <time>2019-03-24T09:46:01Z</time>
      </trkpt>
      <trkpt lat="43.45143" lon="5.86588">
        <ele>317.37</ele>
        <time>2019-03-24T09:46:02Z</time>
      </trkpt>
      <trkpt lat="43.45139" lon="5.86586">
        <ele>317.37</ele>
        <time>2019-03-24T09:46:03Z</time>
      </trkpt>
      <trkpt lat="43.45135" lon="5.86582">
        <ele>317.85</ele>
        <time>2019-03-24T09:46:04Z</time>
      </trkpt>
      <trkpt lat="43.45131" lon="5.86579">
        <ele>317.85</ele>
        <time>2019-03-24T09:46:05Z</time>
      </trkpt>
      <trkpt lat="43.45128" lon="5.86575">
        <ele>317.37</ele>
        <time>2019-03-24T09:46:06Z</time>
      </trkpt>
      <trkpt lat="43.45116" lon="5.86564">
        <ele>318.33</ele>
        <time>2019-03-24T09:46:09Z</time>
      </trkpt>
      <trkpt lat="43.45051" lon="5.86509">
        <ele>320.26</ele>
        <time>2019-03-24T09:46:25Z</time>
      </trkpt>
      <trkpt lat="43.45007" lon="5.86448">
        <ele>321.7</ele>
        <time>2019-03-24T09:46:37Z</time>
      </trkpt>
      <trkpt lat="43.44996" lon="5.86424">
        <ele>321.7</ele>
        <time>2019-03-24T09:46:41Z</time>
      </trkpt>
      <trkpt lat="43.44994" lon="5.86418">
        <ele>321.7</ele>
        <time>2019-03-24T09:46:42Z</time>
      </trkpt>
      <trkpt lat="43.44992" lon="5.86412">
        <ele>322.18</ele>
        <time>2019-03-24T09:46:43Z</time>
      </trkpt>
      <trkpt lat="43.44989" lon="5.86405">
        <ele>322.18</ele>
        <time>2019-03-24T09:46:44Z</time>
      </trkpt>
      <trkpt lat="43.44986" lon="5.86401">
        <ele>322.18</ele>
        <time>2019-03-24T09:46:45Z</time>
      </trkpt>
      <trkpt lat="43.44982" lon="5.86397">
        <ele>322.18</ele>
        <time>2019-03-24T09:46:46Z</time>
      </trkpt>
      <trkpt lat="43.44978" lon="5.86393">
        <ele>322.18</ele>
        <time>2019-03-24T09:46:47Z</time>
      </trkpt>
      <trkpt lat="43.44973" lon="5.86389">
        <ele>322.18</ele>
        <time>2019-03-24T09:46:48Z</time>
      </trkpt>
      <trkpt lat="43.44969" lon="5.86386">
        <ele>322.18</ele>
        <time>2019-03-24T09:46:49Z</time>
      </trkpt>
      <trkpt lat="43.44892" lon="5.86332">
        <ele>324.1</ele>
        <time>2019-03-24T09:47:07Z</time>
      </trkpt>
      <trkpt lat="43.44876" lon="5.8632">
        <ele>324.58</ele>
        <time>2019-03-24T09:47:11Z</time>
      </trkpt>
      <trkpt lat="43.44873" lon="5.86316">
        <ele>324.58</ele>
        <time>2019-03-24T09:47:12Z</time>
      </trkpt>
      <trkpt lat="43.44871" lon="5.8631">
        <ele>324.58</ele>
        <time>2019-03-24T09:47:13Z</time>
      </trkpt>
      <trkpt lat="43.44869" lon="5.86304">
        <ele>324.58</ele>
        <time>2019-03-24T09:47:14Z</time>
      </trkpt>
      <trkpt lat="43.44867" lon="5.86298">
        <ele>325.06</ele>
        <time>2019-03-24T09:47:15Z</time>
      </trkpt>
      <trkpt lat="43.44864" lon="5.86292">
        <ele>325.06</ele>
        <time>2019-03-24T09:47:16Z</time>
      </trkpt>
      <trkpt lat="43.4486" lon="5.86286">
        <ele>325.54</ele>
        <time>2019-03-24T09:47:17Z</time>
      </trkpt>
      <trkpt lat="43.44852" lon="5.8627">
        <ele>326.02</ele>
        <time>2019-03-24T09:47:20Z</time>
      </trkpt>
      <trkpt lat="43.44817" lon="5.8622">
        <ele>326.99</ele>
        <time>2019-03-24T09:47:31Z</time>
      </trkpt>
      <trkpt lat="43.44816" lon="5.86215">
        <ele>326.99</ele>
        <time>2019-03-24T09:47:32Z</time>
      </trkpt>
      <trkpt lat="43.44816" lon="5.86209">
        <ele>327.47</ele>
        <time>2019-03-24T09:47:33Z</time>
      </trkpt>
      <trkpt lat="43.44817" lon="5.86205">
        <ele>327.47</ele>
        <time>2019-03-24T09:47:34Z</time>
      </trkpt>
      <trkpt lat="43.44819" lon="5.862">
        <ele>327.47</ele>
        <time>2019-03-24T09:47:35Z</time>
      </trkpt>
      <trkpt lat="43.44822" lon="5.86196">
        <ele>327.95</ele>
        <time>2019-03-24T09:47:36Z</time>
      </trkpt>
      <trkpt lat="43.44824" lon="5.86192">
        <ele>327.95</ele>
        <time>2019-03-24T09:47:37Z</time>
      </trkpt>
      <trkpt lat="43.44855" lon="5.86121">
        <ele>327.95</ele>
        <time>2019-03-24T09:47:52Z</time>
      </trkpt>
      <trkpt lat="43.44856" lon="5.86115">
        <ele>327.95</ele>
        <time>2019-03-24T09:47:53Z</time>
      </trkpt>
      <trkpt lat="43.44856" lon="5.86108">
        <ele>327.95</ele>
        <time>2019-03-24T09:47:54Z</time>
      </trkpt>
      <trkpt lat="43.44854" lon="5.86102">
        <ele>327.95</ele>
        <time>2019-03-24T09:47:55Z</time>
      </trkpt>
      <trkpt lat="43.44852" lon="5.86097">
        <ele>327.95</ele>
        <time>2019-03-24T09:47:56Z</time>
      </trkpt>
      <trkpt lat="43.44848" lon="5.86092">
        <ele>327.95</ele>
        <time>2019-03-24T09:47:57Z</time>
      </trkpt>
      <trkpt lat="43.44844" lon="5.8609">
        <ele>327.95</ele>
        <time>2019-03-24T09:47:58Z</time>
      </trkpt>
      <trkpt lat="43.4484" lon="5.8609">
        <ele>327.95</ele>
        <time>2019-03-24T09:47:59Z</time>
      </trkpt>
      <trkpt lat="43.44836" lon="5.86092">
        <ele>327.95</ele>
        <time>2019-03-24T09:48:00Z</time>
      </trkpt>
      <trkpt lat="43.44832" lon="5.86095">
        <ele>327.95</ele>
        <time>2019-03-24T09:48:01Z</time>
      </trkpt>
      <trkpt lat="43.44829" lon="5.861">
        <ele>327.95</ele>
        <time>2019-03-24T09:48:02Z</time>
      </trkpt>
      <trkpt lat="43.44826" lon="5.86105">
        <ele>327.95</ele>
        <time>2019-03-24T09:48:03Z</time>
      </trkpt>
      <trkpt lat="43.44824" lon="5.86109">
        <ele>327.95</ele>
        <time>2019-03-24T09:48:04Z</time>
      </trkpt>
      <trkpt lat="43.44821" lon="5.86115">
        <ele>327.95</ele>
        <time>2019-03-24T09:48:05Z</time>
      </trkpt>
      <trkpt lat="43.44819" lon="5.86119">
        <ele>327.95</ele>
        <time>2019-03-24T09:48:06Z</time>
      </trkpt>
      <trkpt lat="43.44817" lon="5.86124">
        <ele>327.95</ele>
        <time>2019-03-24T09:48:07Z</time>
      </trkpt>
      <trkpt lat="43.44814" lon="5.86128">
        <ele>327.95</ele>
        <time>2019-03-24T09:48:08Z</time>
      </trkpt>
      <trkpt lat="43.44811" lon="5.86132">
        <ele>328.43</ele>
        <time>2019-03-24T09:48:09Z</time>
      </trkpt>
      <trkpt lat="43.44779" lon="5.86172">
        <ele>328.91</ele>
        <time>2019-03-24T09:48:19Z</time>
      </trkpt>
      <trkpt lat="43.44732" lon="5.86235">
        <ele>329.39</ele>
        <time>2019-03-24T09:48:34Z</time>
      </trkpt>
      <trkpt lat="43.44671" lon="5.8632">
        <ele>332.27</ele>
        <time>2019-03-24T09:48:54Z</time>
      </trkpt>
      <trkpt lat="43.4462" lon="5.86392">
        <ele>334.68</ele>
        <time>2019-03-24T09:49:11Z</time>
      </trkpt>
      <trkpt lat="43.44568" lon="5.86458">
        <ele>335.64</ele>
        <time>2019-03-24T09:49:30Z</time>
      </trkpt>
      <trkpt lat="43.4454" lon="5.86438">
        <ele>337.08</ele>
        <time>2019-03-24T09:49:39Z</time>
      </trkpt>
      <trkpt lat="43.44536" lon="5.86379">
        <ele>337.08</ele>
        <time>2019-03-24T09:49:51Z</time>
      </trkpt>
      <trkpt lat="43.44535" lon="5.86368">
        <ele>337.08</ele>
        <time>2019-03-24T09:49:54Z</time>
      </trkpt>
      <trkpt lat="43.44533" lon="5.86367">
        <ele>337.08</ele>
        <time>2019-03-24T09:49:55Z</time>
      </trkpt>
      <trkpt lat="43.44532" lon="5.86367">
        <ele>337.08</ele>
        <time>2019-03-24T09:49:56Z</time>
      </trkpt>
      <trkpt lat="43.44526" lon="5.86367">
        <ele>337.08</ele>
        <time>2019-03-24T09:50:09Z</time>
      </trkpt>
      <trkpt lat="43.44507" lon="5.86358">
        <ele>337.56</ele>
        <time>2019-03-24T09:50:20Z</time>
      </trkpt>
      <trkpt lat="43.44504" lon="5.86352">
        <ele>338.52</ele>
        <time>2019-03-24T09:50:26Z</time>
      </trkpt>
      <trkpt lat="43.44504" lon="5.86349">
        <ele>338.52</ele>
        <time>2019-03-24T09:50:27Z</time>
      </trkpt>
      <trkpt lat="43.44504" lon="5.86346">
        <ele>338.52</ele>
        <time>2019-03-24T09:50:28Z</time>
      </trkpt>
      <trkpt lat="43.44497" lon="5.86296">
        <ele>338.52</ele>
        <time>2019-03-24T09:50:42Z</time>
      </trkpt>
      <trkpt lat="43.44488" lon="5.86269">
        <ele>338.52</ele>
        <time>2019-03-24T09:50:54Z</time>
      </trkpt>
      <trkpt lat="43.44484" lon="5.86258">
        <ele>339</ele>
        <time>2019-03-24T09:50:56Z</time>
      </trkpt>
      <trkpt lat="43.44483" lon="5.86252">
        <ele>339</ele>
        <time>2019-03-24T09:50:57Z</time>
      </trkpt>
      <trkpt lat="43.44483" lon="5.86247">
        <ele>339</ele>
        <time>2019-03-24T09:50:58Z</time>
      </trkpt>
      <trkpt lat="43.44483" lon="5.86242">
        <ele>339</ele>
        <time>2019-03-24T09:50:59Z</time>
      </trkpt>
      <trkpt lat="43.44482" lon="5.86237">
        <ele>339</ele>
        <time>2019-03-24T09:51:00Z</time>
      </trkpt>
      <trkpt lat="43.44481" lon="5.86233">
        <ele>339.48</ele>
        <time>2019-03-24T09:51:01Z</time>
      </trkpt>
      <trkpt lat="43.4448" lon="5.86228">
        <ele>339.48</ele>
        <time>2019-03-24T09:51:02Z</time>
      </trkpt>
      <trkpt lat="43.44476" lon="5.86201">
        <ele>339.48</ele>
        <time>2019-03-24T09:51:08Z</time>
      </trkpt>
      <trkpt lat="43.44477" lon="5.86196">
        <ele>339.48</ele>
        <time>2019-03-24T09:51:09Z</time>
      </trkpt>
      <trkpt lat="43.44477" lon="5.8619">
        <ele>339.48</ele>
        <time>2019-03-24T09:51:10Z</time>
      </trkpt>
      <trkpt lat="43.44483" lon="5.86128">
        <ele>335.64</ele>
        <time>2019-03-24T09:51:18Z</time>
      </trkpt>
      <trkpt lat="43.44482" lon="5.86114">
        <ele>334.68</ele>
        <time>2019-03-24T09:51:21Z</time>
      </trkpt>
      <trkpt lat="43.4448" lon="5.86112">
        <ele>334.68</ele>
        <time>2019-03-24T09:51:22Z</time>
      </trkpt>
      <trkpt lat="43.44476" lon="5.86111">
        <ele>334.2</ele>
        <time>2019-03-24T09:51:23Z</time>
      </trkpt>
      <trkpt lat="43.44447" lon="5.86117">
        <ele>335.64</ele>
        <time>2019-03-24T09:51:32Z</time>
      </trkpt>
      <trkpt lat="43.44407" lon="5.8612">
        <ele>338.52</ele>
        <time>2019-03-24T09:51:45Z</time>
      </trkpt>
      <trkpt lat="43.44382" lon="5.8613">
        <ele>340.44</ele>
        <time>2019-03-24T09:51:58Z</time>
      </trkpt>
      <trkpt lat="43.4438" lon="5.86133">
        <ele>336.12</ele>
        <time>2019-03-24T09:52:02Z</time>
      </trkpt>
      <trkpt lat="43.44379" lon="5.86134">
        <ele>341.41</ele>
        <time>2019-03-24T09:52:04Z</time>
      </trkpt>
      <trkpt lat="43.44378" lon="5.86134">
        <ele>346.21</ele>
        <time>2019-03-24T09:52:05Z</time>
      </trkpt>
      <trkpt lat="43.44378" lon="5.86134">
        <ele>340.92</ele>
        <time>2019-03-24T09:52:06Z</time>
      </trkpt>
      <trkpt lat="43.44376" lon="5.86134">
        <ele>340.92</ele>
        <time>2019-03-24T09:52:09Z</time>
      </trkpt>
      <trkpt lat="43.44375" lon="5.86134">
        <ele>340.92</ele>
        <time>2019-03-24T09:52:10Z</time>
      </trkpt>
      <trkpt lat="43.4437" lon="5.86134">
        <ele>342.37</ele>
        <time>2019-03-24T09:52:15Z</time>
      </trkpt>
      <trkpt lat="43.44356" lon="5.86145">
        <ele>342.37</ele>
        <time>2019-03-24T09:52:25Z</time>
      </trkpt>
      <trkpt lat="43.44322" lon="5.86185">
        <ele>344.29</ele>
        <time>2019-03-24T09:52:40Z</time>
      </trkpt>
      <trkpt lat="43.4427" lon="5.86211">
        <ele>344.77</ele>
        <time>2019-03-24T09:52:57Z</time>
      </trkpt>
      <trkpt lat="43.44213" lon="5.86232">
        <ele>345.25</ele>
        <time>2019-03-24T09:53:13Z</time>
      </trkpt>
      <trkpt lat="43.44144" lon="5.86259">
        <ele>345.73</ele>
        <time>2019-03-24T09:53:32Z</time>
      </trkpt>
      <trkpt lat="43.44074" lon="5.86286">
        <ele>346.69</ele>
        <time>2019-03-24T09:53:51Z</time>
      </trkpt>
      <trkpt lat="43.44047" lon="5.86294">
        <ele>347.17</ele>
        <time>2019-03-24T09:53:59Z</time>
      </trkpt>
      <trkpt lat="43.44044" lon="5.86291">
        <ele>347.17</ele>
        <time>2019-03-24T09:54:00Z</time>
      </trkpt>
      <trkpt lat="43.44043" lon="5.86287">
        <ele>347.65</ele>
        <time>2019-03-24T09:54:01Z</time>
      </trkpt>
      <trkpt lat="43.44036" lon="5.86249">
        <ele>350.54</ele>
        <time>2019-03-24T09:54:12Z</time>
      </trkpt>
      <trkpt lat="43.44031" lon="5.86184">
        <ele>353.42</ele>
        <time>2019-03-24T09:54:30Z</time>
      </trkpt>
      <trkpt lat="43.44029" lon="5.86167">
        <ele>353.9</ele>
        <time>2019-03-24T09:54:35Z</time>
      </trkpt>
      <trkpt lat="43.44025" lon="5.86165">
        <ele>354.38</ele>
        <time>2019-03-24T09:54:36Z</time>
      </trkpt>
      <trkpt lat="43.44023" lon="5.86165">
        <ele>354.38</ele>
        <time>2019-03-24T09:54:37Z</time>
      </trkpt>
      <trkpt lat="43.44004" lon="5.86164">
        <ele>354.86</ele>
        <time>2019-03-24T09:54:45Z</time>
      </trkpt>
      <trkpt lat="43.44003" lon="5.86161">
        <ele>354.86</ele>
        <time>2019-03-24T09:54:46Z</time>
      </trkpt>
      <trkpt lat="43.44" lon="5.86153">
        <ele>355.34</ele>
        <time>2019-03-24T09:54:48Z</time>
      </trkpt>
      <trkpt lat="43.43982" lon="5.86104">
        <ele>356.79</ele>
        <time>2019-03-24T09:55:01Z</time>
      </trkpt>
      <trkpt lat="43.43968" lon="5.86073">
        <ele>357.75</ele>
        <time>2019-03-24T09:55:10Z</time>
      </trkpt>
      <trkpt lat="43.43969" lon="5.8607">
        <ele>358.23</ele>
        <time>2019-03-24T09:55:11Z</time>
      </trkpt>
      <trkpt lat="43.4397" lon="5.86068">
        <ele>358.23</ele>
        <time>2019-03-24T09:55:12Z</time>
      </trkpt>
      <trkpt lat="43.43972" lon="5.86065">
        <ele>358.23</ele>
        <time>2019-03-24T09:55:13Z</time>
      </trkpt>
      <trkpt lat="43.43973" lon="5.86062">
        <ele>358.23</ele>
        <time>2019-03-24T09:55:14Z</time>
      </trkpt>
      <trkpt lat="43.43974" lon="5.86059">
        <ele>358.23</ele>
        <time>2019-03-24T09:55:15Z</time>
      </trkpt>
      <trkpt lat="43.43975" lon="5.86056">
        <ele>358.71</ele>
        <time>2019-03-24T09:55:16Z</time>
      </trkpt>
      <trkpt lat="43.43976" lon="5.86045">
        <ele>358.71</ele>
        <time>2019-03-24T09:55:20Z</time>
      </trkpt>
      <trkpt lat="43.43974" lon="5.86035">
        <ele>359.19</ele>
        <time>2019-03-24T09:55:30Z</time>
      </trkpt>
      <trkpt lat="43.43972" lon="5.86031">
        <ele>358.71</ele>
        <time>2019-03-24T09:56:04Z</time>
      </trkpt>
      <trkpt lat="43.43971" lon="5.86032">
        <ele>358.23</ele>
        <time>2019-03-24T09:56:41Z</time>
      </trkpt>
      <trkpt lat="43.43969" lon="5.86032">
        <ele>357.75</ele>
        <time>2019-03-24T09:57:14Z</time>
      </trkpt>
      <trkpt lat="43.43966" lon="5.86031">
        <ele>357.75</ele>
        <time>2019-03-24T09:57:48Z</time>
      </trkpt>
      <trkpt lat="43.43966" lon="5.8603">
        <ele>357.27</ele>
        <time>2019-03-24T09:58:21Z</time>
      </trkpt>
      <trkpt lat="43.43969" lon="5.8603">
        <ele>356.79</ele>
        <time>2019-03-24T09:59:04Z</time>
      </trkpt>
      <trkpt lat="43.43966" lon="5.86029">
        <ele>358.23</ele>
        <time>2019-03-24T09:59:28Z</time>
      </trkpt>
      <trkpt lat="43.43969" lon="5.86032">
        <ele>357.75</ele>
        <time>2019-03-24T09:59:53Z</time>
      </trkpt>
      <trkpt lat="43.43967" lon="5.86032">
        <ele>357.75</ele>
        <time>2019-03-24T10:00:17Z</time>
      </trkpt>
      <trkpt lat="43.43965" lon="5.86033">
        <ele>358.71</ele>
        <time>2019-03-24T10:00:20Z</time>
      </trkpt>
      <trkpt lat="43.43963" lon="5.86035">
        <ele>358.71</ele>
        <time>2019-03-24T10:00:22Z</time>
      </trkpt>
      <trkpt lat="43.43958" lon="5.8603">
        <ele>358.23</ele>
        <time>2019-03-24T10:00:38Z</time>
      </trkpt>
    </trkseg>
  </trk>
</gpx>